<?xml version='1.0' encoding='UTF-8'?><gpx version="1.1" creator="JPX - https://github.com/jenetics/jpx" xmlns="http://www.topografix.com/GPX/1/1"><trk><trkseg><trkpt lat="45.7805106" lon="8.7336112"><ele>272.0</ele><time>2026-04-05T14:28:24.823Z</time></trkpt><trkpt lat="45.7805772" lon="8.7336719"><ele>272.0</ele><time>2026-04-05T14:28:25.822Z</time></trkpt><trkpt lat="45.7806579" lon="8.7337501"><ele>272.0</ele><time>2026-04-05T14:28:26.822Z</time></trkpt><trkpt lat="45.7807457" lon="8.7338429"><ele>272.0</ele><time>2026-04-05T14:28:27.823Z</time></trkpt><trkpt lat="45.7808279" lon="8.7339438"><ele>272.0</ele><time>2026-04-05T14:28:28.822Z</time></trkpt><trkpt lat="45.78091" lon="8.7340482"><ele>272.0</ele><time>2026-04-05T14:28:29.822Z</time></trkpt><trkpt lat="45.7809999" lon="8.7341412"><ele>272.0</ele><time>2026-04-05T14:28:30.822Z</time></trkpt><trkpt lat="45.7811005" lon="8.7341973"><ele>272.0</ele><time>2026-04-05T14:28:31.822Z</time></trkpt><trkpt lat="45.7812097" lon="8.7342175"><ele>272.0</ele><time>2026-04-05T14:28:32.822Z</time></trkpt><trkpt lat="45.7813156" lon="8.7341909"><ele>272.0</ele><time>2026-04-05T14:28:33.822Z</time></trkpt><trkpt lat="45.7814245" lon="8.7341232"><ele>270.0</ele><time>2026-04-05T14:28:34.822Z</time></trkpt><trkpt lat="45.7815403" lon="8.7340544"><ele>268.0</ele><time>2026-04-05T14:28:35.822Z</time></trkpt><trkpt lat="45.7816555" lon="8.7340105"><ele>266.0</ele><time>2026-04-05T14:28:36.822Z</time></trkpt><trkpt lat="45.7817711" lon="8.7340144"><ele>264.0</ele><time>2026-04-05T14:28:37.822Z</time></trkpt><trkpt lat="45.7818778" lon="8.7340748"><ele>263.25</ele><time>2026-04-05T14:28:38.822Z</time></trkpt><trkpt lat="45.7819716" lon="8.7341876"><ele>262.5</ele><time>2026-04-05T14:28:39.822Z</time></trkpt><trkpt lat="45.7820654" lon="8.7343225"><ele>261.75</ele><time>2026-04-05T14:28:40.823Z</time></trkpt><trkpt lat="45.7821653" lon="8.7344485"><ele>261.0</ele><time>2026-04-05T14:28:41.822Z</time></trkpt><trkpt lat="45.782264" lon="8.7345523"><ele>261.0</ele><time>2026-04-05T14:28:42.823Z</time></trkpt><trkpt lat="45.7823621" lon="8.7346336"><ele>261.0</ele><time>2026-04-05T14:28:43.823Z</time></trkpt><trkpt lat="45.7824579" lon="8.7347001"><ele>261.0</ele><time>2026-04-05T14:28:44.822Z</time></trkpt><trkpt lat="45.7825518" lon="8.7347614"><ele>261.0</ele><time>2026-04-05T14:28:45.822Z</time></trkpt><trkpt lat="45.7826444" lon="8.734838"><ele>261.0</ele><time>2026-04-05T14:28:46.822Z</time></trkpt><trkpt lat="45.7827306" lon="8.7349264"><ele>260.40000000000003</ele><time>2026-04-05T14:28:47.822Z</time></trkpt><trkpt lat="45.7828166" lon="8.735009"><ele>259.8</ele><time>2026-04-05T14:28:48.822Z</time></trkpt><trkpt lat="45.7829097" lon="8.73508"><ele>259.20000000000005</ele><time>2026-04-05T14:28:49.822Z</time></trkpt><trkpt lat="45.7830117" lon="8.7351289"><ele>258.6</ele><time>2026-04-05T14:28:50.822Z</time></trkpt><trkpt lat="45.7831214" lon="8.7351406"><ele>258.0</ele><time>2026-04-05T14:28:51.822Z</time></trkpt><trkpt lat="45.7832442" lon="8.7351072"><ele>258.0</ele><time>2026-04-05T14:28:52.822Z</time></trkpt><trkpt lat="45.7833708" lon="8.7350498"><ele>258.0</ele><time>2026-04-05T14:28:53.823Z</time></trkpt><trkpt lat="45.7834849" lon="8.7350017"><ele>258.0</ele><time>2026-04-05T14:28:54.823Z</time></trkpt><trkpt lat="45.7835957" lon="8.7349875"><ele>258.0</ele><time>2026-04-05T14:28:55.822Z</time></trkpt><trkpt lat="45.7837044" lon="8.7350065"><ele>257.5</ele><time>2026-04-05T14:28:56.822Z</time></trkpt><trkpt lat="45.7838083" lon="8.73505"><ele>257.0</ele><time>2026-04-05T14:28:57.822Z</time></trkpt><trkpt lat="45.783905" lon="8.73508"><ele>256.5</ele><time>2026-04-05T14:28:58.823Z</time></trkpt><trkpt lat="45.783995" lon="8.7351167"><ele>256.0</ele><time>2026-04-05T14:28:59.822Z</time></trkpt><trkpt lat="45.7840683" lon="8.7351333"><ele>255.5</ele><time>2026-04-05T14:29:00.822Z</time></trkpt><trkpt lat="45.7841317" lon="8.7351433"><ele>255.0</ele><time>2026-04-05T14:29:01.822Z</time></trkpt><trkpt lat="45.7842483" lon="8.7351217"><ele>255.8</ele><time>2026-04-05T14:29:03.822Z</time></trkpt><trkpt lat="45.78435" lon="8.7350567"><ele>256.6</ele><time>2026-04-05T14:29:05.822Z</time></trkpt><trkpt lat="45.7844317" lon="8.73499"><ele>257.4</ele><time>2026-04-05T14:29:07.823Z</time></trkpt><trkpt lat="45.7845133" lon="8.73492"><ele>258.2</ele><time>2026-04-05T14:29:09.822Z</time></trkpt><trkpt lat="45.7846067" lon="8.73484"><ele>259.0</ele><time>2026-04-05T14:29:11.823Z</time></trkpt><trkpt lat="45.7847183" lon="8.7347517"><ele>259.0</ele><time>2026-04-05T14:29:13.822Z</time></trkpt><trkpt lat="45.7847733" lon="8.7347017"><ele>259.0</ele><time>2026-04-05T14:29:14.822Z</time></trkpt><trkpt lat="45.7848283" lon="8.7346483"><ele>259.0</ele><time>2026-04-05T14:29:15.822Z</time></trkpt><trkpt lat="45.7848983" lon="8.7345917"><ele>259.0</ele><time>2026-04-05T14:29:16.822Z</time></trkpt><trkpt lat="45.7849567" lon="8.7345283"><ele>259.0</ele><time>2026-04-05T14:29:17.822Z</time></trkpt><trkpt lat="45.7850167" lon="8.7344583"><ele>259.0</ele><time>2026-04-05T14:29:18.822Z</time></trkpt><trkpt lat="45.7850783" lon="8.7344083"><ele>259.0</ele><time>2026-04-05T14:29:19.822Z</time></trkpt><trkpt lat="45.7851433" lon="8.7343667"><ele>260.0</ele><time>2026-04-05T14:29:20.822Z</time></trkpt><trkpt lat="45.785215" lon="8.73433"><ele>261.0</ele><time>2026-04-05T14:29:21.822Z</time></trkpt><trkpt lat="45.7852833" lon="8.7342967"><ele>262.0</ele><time>2026-04-05T14:29:22.823Z</time></trkpt><trkpt lat="45.7853883" lon="8.734225"><ele>263.0</ele><time>2026-04-05T14:29:24.823Z</time></trkpt><trkpt lat="45.7855117" lon="8.7342083"><ele>264.0</ele><time>2026-04-05T14:29:26.822Z</time></trkpt><trkpt lat="45.7855833" lon="8.734235"><ele>264.0</ele><time>2026-04-05T14:29:27.822Z</time></trkpt><trkpt lat="45.7856417" lon="8.73429"><ele>264.0</ele><time>2026-04-05T14:29:28.822Z</time></trkpt><trkpt lat="45.7856983" lon="8.7344533"><ele>264.0</ele><time>2026-04-05T14:29:30.822Z</time></trkpt><trkpt lat="45.785715" lon="8.73455"><ele>264.0</ele><time>2026-04-05T14:29:31.822Z</time></trkpt><trkpt lat="45.7857433" lon="8.73464"><ele>264.0</ele><time>2026-04-05T14:29:32.822Z</time></trkpt><trkpt lat="45.7857683" lon="8.7347283"><ele>264.0</ele><time>2026-04-05T14:29:33.823Z</time></trkpt><trkpt lat="45.7858033" lon="8.7348567"><ele>264.0</ele><time>2026-04-05T14:29:35.822Z</time></trkpt><trkpt lat="45.7858117" lon="8.7349667"><ele>264.0</ele><time>2026-04-05T14:29:45.822Z</time></trkpt><trkpt lat="45.7858767" lon="8.73511"><ele>264.0</ele><time>2026-04-05T14:29:47.822Z</time></trkpt><trkpt lat="45.7859167" lon="8.7352167"><ele>264.0</ele><time>2026-04-05T14:29:48.822Z</time></trkpt><trkpt lat="45.785955" lon="8.73534"><ele>264.0</ele><time>2026-04-05T14:29:49.823Z</time></trkpt><trkpt lat="45.7859867" lon="8.7354683"><ele>263.4</ele><time>2026-04-05T14:29:50.822Z</time></trkpt><trkpt lat="45.7860117" lon="8.73559"><ele>262.79999999999995</ele><time>2026-04-05T14:29:51.822Z</time></trkpt><trkpt lat="45.78604" lon="8.735715"><ele>262.20000000000005</ele><time>2026-04-05T14:29:52.823Z</time></trkpt><trkpt lat="45.78607" lon="8.7358433"><ele>261.6</ele><time>2026-04-05T14:29:53.822Z</time></trkpt><trkpt lat="45.7861" lon="8.7359667"><ele>261.0</ele><time>2026-04-05T14:29:54.822Z</time></trkpt><trkpt lat="45.7861233" lon="8.7360883"><ele>261.0</ele><time>2026-04-05T14:29:55.822Z</time></trkpt><trkpt lat="45.7861567" lon="8.736215"><ele>261.0</ele><time>2026-04-05T14:29:56.822Z</time></trkpt><trkpt lat="45.786195" lon="8.736365"><ele>261.0</ele><time>2026-04-05T14:29:57.822Z</time></trkpt><trkpt lat="45.78623" lon="8.7365383"><ele>261.0</ele><time>2026-04-05T14:29:58.822Z</time></trkpt><trkpt lat="45.7862683" lon="8.7367283"><ele>261.6666666666667</ele><time>2026-04-05T14:29:59.822Z</time></trkpt><trkpt lat="45.7863" lon="8.7369333"><ele>262.33333333333337</ele><time>2026-04-05T14:30:00.822Z</time></trkpt><trkpt lat="45.7863317" lon="8.7371483"><ele>263.0</ele><time>2026-04-05T14:30:01.822Z</time></trkpt><trkpt lat="45.7863667" lon="8.7373783"><ele>263.0</ele><time>2026-04-05T14:30:02.822Z</time></trkpt><trkpt lat="45.7864017" lon="8.7375983"><ele>263.0</ele><time>2026-04-05T14:30:03.822Z</time></trkpt><trkpt lat="45.7864183" lon="8.7378"><ele>263.0</ele><time>2026-04-05T14:30:04.822Z</time></trkpt><trkpt lat="45.7864417" lon="8.7379783"><ele>263.0</ele><time>2026-04-05T14:30:05.823Z</time></trkpt><trkpt lat="45.7864583" lon="8.7381283"><ele>263.0</ele><time>2026-04-05T14:30:06.822Z</time></trkpt><trkpt lat="45.7864833" lon="8.738275"><ele>263.0</ele><time>2026-04-05T14:30:07.823Z</time></trkpt><trkpt lat="45.7865083" lon="8.73842"><ele>263.0</ele><time>2026-04-05T14:30:08.822Z</time></trkpt><trkpt lat="45.786555" lon="8.7385767"><ele>263.0</ele><time>2026-04-05T14:30:09.822Z</time></trkpt><trkpt lat="45.78661" lon="8.7387333"><ele>263.0</ele><time>2026-04-05T14:30:10.823Z</time></trkpt><trkpt lat="45.7866833" lon="8.73889"><ele>263.0</ele><time>2026-04-05T14:30:11.822Z</time></trkpt><trkpt lat="45.78677" lon="8.7390533"><ele>263.0</ele><time>2026-04-05T14:30:12.822Z</time></trkpt><trkpt lat="45.7868583" lon="8.739205"><ele>263.0</ele><time>2026-04-05T14:30:13.822Z</time></trkpt><trkpt lat="45.7869483" lon="8.7393467"><ele>263.0</ele><time>2026-04-05T14:30:14.823Z</time></trkpt><trkpt lat="45.7870367" lon="8.73949"><ele>263.0</ele><time>2026-04-05T14:30:15.823Z</time></trkpt><trkpt lat="45.7871183" lon="8.7396467"><ele>263.0</ele><time>2026-04-05T14:30:16.822Z</time></trkpt><trkpt lat="45.7872133" lon="8.7397983"><ele>263.0</ele><time>2026-04-05T14:30:17.822Z</time></trkpt><trkpt lat="45.78735" lon="8.7399417"><ele>263.0</ele><time>2026-04-05T14:30:18.822Z</time></trkpt><trkpt lat="45.787485" lon="8.74007"><ele>263.0</ele><time>2026-04-05T14:30:19.823Z</time></trkpt><trkpt lat="45.7876233" lon="8.7402117"><ele>263.0</ele><time>2026-04-05T14:30:20.822Z</time></trkpt><trkpt lat="45.787755" lon="8.7403567"><ele>263.33333333333337</ele><time>2026-04-05T14:30:21.823Z</time></trkpt><trkpt lat="45.78788" lon="8.7405033"><ele>263.6666666666667</ele><time>2026-04-05T14:30:22.822Z</time></trkpt><trkpt lat="45.7880033" lon="8.7406567"><ele>264.0</ele><time>2026-04-05T14:30:23.823Z</time></trkpt><trkpt lat="45.7881217" lon="8.7407883"><ele>264.0</ele><time>2026-04-05T14:30:24.822Z</time></trkpt><trkpt lat="45.788235" lon="8.74091"><ele>264.0</ele><time>2026-04-05T14:30:25.822Z</time></trkpt><trkpt lat="45.7883567" lon="8.7410183"><ele>264.0</ele><time>2026-04-05T14:30:26.822Z</time></trkpt><trkpt lat="45.7884917" lon="8.7411017"><ele>264.0</ele><time>2026-04-05T14:30:27.823Z</time></trkpt><trkpt lat="45.7886483" lon="8.7411783"><ele>263.6666666666667</ele><time>2026-04-05T14:30:28.822Z</time></trkpt><trkpt lat="45.7888" lon="8.7412533"><ele>263.33333333333337</ele><time>2026-04-05T14:30:29.822Z</time></trkpt><trkpt lat="45.7889333" lon="8.7413517"><ele>263.0</ele><time>2026-04-05T14:30:30.823Z</time></trkpt><trkpt lat="45.7890583" lon="8.741485"><ele>263.0</ele><time>2026-04-05T14:30:31.822Z</time></trkpt><trkpt lat="45.78917" lon="8.7416317"><ele>263.0</ele><time>2026-04-05T14:30:32.823Z</time></trkpt><trkpt lat="45.7892633" lon="8.7417817"><ele>263.0</ele><time>2026-04-05T14:30:33.823Z</time></trkpt><trkpt lat="45.7893483" lon="8.7419333"><ele>263.0</ele><time>2026-04-05T14:30:34.823Z</time></trkpt><trkpt lat="45.789435" lon="8.7420867"><ele>263.0</ele><time>2026-04-05T14:30:35.822Z</time></trkpt><trkpt lat="45.7895333" lon="8.7422383"><ele>263.0</ele><time>2026-04-05T14:30:36.822Z</time></trkpt><trkpt lat="45.7896233" lon="8.74239"><ele>263.0</ele><time>2026-04-05T14:30:37.822Z</time></trkpt><trkpt lat="45.789705" lon="8.7425367"><ele>263.0</ele><time>2026-04-05T14:30:38.822Z</time></trkpt><trkpt lat="45.7897817" lon="8.7426817"><ele>262.75</ele><time>2026-04-05T14:30:39.823Z</time></trkpt><trkpt lat="45.7898567" lon="8.7428333"><ele>262.5</ele><time>2026-04-05T14:30:40.823Z</time></trkpt><trkpt lat="45.78993" lon="8.7430133"><ele>262.25</ele><time>2026-04-05T14:30:41.823Z</time></trkpt><trkpt lat="45.7899733" lon="8.74322"><ele>262.0</ele><time>2026-04-05T14:30:42.822Z</time></trkpt><trkpt lat="45.789995" lon="8.7434617"><ele>262.66666666666663</ele><time>2026-04-05T14:30:43.822Z</time></trkpt><trkpt lat="45.7900117" lon="8.74372"><ele>263.3333333333333</ele><time>2026-04-05T14:30:44.822Z</time></trkpt><trkpt lat="45.7900317" lon="8.7439717"><ele>264.0</ele><time>2026-04-05T14:30:45.822Z</time></trkpt><trkpt lat="45.7900667" lon="8.7442133"><ele>263.6666666666667</ele><time>2026-04-05T14:30:46.822Z</time></trkpt><trkpt lat="45.7901067" lon="8.74445"><ele>263.33333333333337</ele><time>2026-04-05T14:30:47.822Z</time></trkpt><trkpt lat="45.7901483" lon="8.74469"><ele>263.0</ele><time>2026-04-05T14:30:48.822Z</time></trkpt><trkpt lat="45.7901967" lon="8.7449317"><ele>263.0</ele><time>2026-04-05T14:30:49.823Z</time></trkpt><trkpt lat="45.7902483" lon="8.745155"><ele>263.0</ele><time>2026-04-05T14:30:50.822Z</time></trkpt><trkpt lat="45.7903" lon="8.7453767"><ele>263.0</ele><time>2026-04-05T14:30:51.822Z</time></trkpt><trkpt lat="45.790355" lon="8.7455883"><ele>263.0</ele><time>2026-04-05T14:30:52.822Z</time></trkpt><trkpt lat="45.7904233" lon="8.7457817"><ele>263.0</ele><time>2026-04-05T14:30:53.822Z</time></trkpt><trkpt lat="45.79049" lon="8.7459667"><ele>263.0</ele><time>2026-04-05T14:30:54.822Z</time></trkpt><trkpt lat="45.7905567" lon="8.7461417"><ele>263.0</ele><time>2026-04-05T14:30:55.823Z</time></trkpt><trkpt lat="45.790615" lon="8.7463"><ele>263.2</ele><time>2026-04-05T14:30:56.822Z</time></trkpt><trkpt lat="45.7906433" lon="8.7464367"><ele>263.4</ele><time>2026-04-05T14:30:57.822Z</time></trkpt><trkpt lat="45.7906667" lon="8.7465633"><ele>263.59999999999997</ele><time>2026-04-05T14:30:58.822Z</time></trkpt><trkpt lat="45.7907" lon="8.746685"><ele>263.8</ele><time>2026-04-05T14:30:59.822Z</time></trkpt><trkpt lat="45.7907317" lon="8.746825"><ele>264.0</ele><time>2026-04-05T14:31:00.822Z</time></trkpt><trkpt lat="45.79074" lon="8.7469767"><ele>264.0</ele><time>2026-04-05T14:31:01.822Z</time></trkpt><trkpt lat="45.7907233" lon="8.7471583"><ele>264.0</ele><time>2026-04-05T14:31:02.822Z</time></trkpt><trkpt lat="45.790705" lon="8.7473583"><ele>264.0</ele><time>2026-04-05T14:31:03.822Z</time></trkpt><trkpt lat="45.7906567" lon="8.74754"><ele>264.0</ele><time>2026-04-05T14:31:04.823Z</time></trkpt><trkpt lat="45.790625" lon="8.7477117"><ele>264.0</ele><time>2026-04-05T14:31:05.823Z</time></trkpt><trkpt lat="45.7906067" lon="8.7478717"><ele>264.0</ele><time>2026-04-05T14:31:06.822Z</time></trkpt><trkpt lat="45.7906083" lon="8.7480433"><ele>264.0</ele><time>2026-04-05T14:31:07.823Z</time></trkpt><trkpt lat="45.79062" lon="8.7482317"><ele>264.0</ele><time>2026-04-05T14:31:08.822Z</time></trkpt><trkpt lat="45.7906133" lon="8.7484467"><ele>264.0</ele><time>2026-04-05T14:31:09.823Z</time></trkpt><trkpt lat="45.790595" lon="8.748665"><ele>264.0</ele><time>2026-04-05T14:31:10.822Z</time></trkpt><trkpt lat="45.7905833" lon="8.7488783"><ele>264.0</ele><time>2026-04-05T14:31:11.822Z</time></trkpt><trkpt lat="45.79057" lon="8.749085"><ele>264.0</ele><time>2026-04-05T14:31:12.822Z</time></trkpt><trkpt lat="45.7905683" lon="8.749295"><ele>264.6666666666667</ele><time>2026-04-05T14:31:13.822Z</time></trkpt><trkpt lat="45.7905733" lon="8.7495167"><ele>265.33333333333337</ele><time>2026-04-05T14:31:14.822Z</time></trkpt><trkpt lat="45.7905833" lon="8.74974"><ele>266.0</ele><time>2026-04-05T14:31:15.822Z</time></trkpt><trkpt lat="45.7905967" lon="8.749975"><ele>266.6666666666667</ele><time>2026-04-05T14:31:16.822Z</time></trkpt><trkpt lat="45.7906033" lon="8.750215"><ele>267.3333333333333</ele><time>2026-04-05T14:31:17.822Z</time></trkpt><trkpt lat="45.790605" lon="8.75047"><ele>268.0</ele><time>2026-04-05T14:31:18.822Z</time></trkpt><trkpt lat="45.7906083" lon="8.7507267"><ele>268.0</ele><time>2026-04-05T14:31:19.822Z</time></trkpt><trkpt lat="45.79061" lon="8.75098"><ele>268.0</ele><time>2026-04-05T14:31:20.822Z</time></trkpt><trkpt lat="45.7906117" lon="8.7512317"><ele>268.0</ele><time>2026-04-05T14:31:21.822Z</time></trkpt><trkpt lat="45.7906133" lon="8.7514833"><ele>269.0</ele><time>2026-04-05T14:31:22.822Z</time></trkpt><trkpt lat="45.7906167" lon="8.7517267"><ele>270.0</ele><time>2026-04-05T14:31:23.823Z</time></trkpt><trkpt lat="45.7906283" lon="8.75197"><ele>271.0</ele><time>2026-04-05T14:31:24.822Z</time></trkpt><trkpt lat="45.7906333" lon="8.7522033"><ele>271.0</ele><time>2026-04-05T14:31:25.822Z</time></trkpt><trkpt lat="45.79064" lon="8.752435"><ele>271.0</ele><time>2026-04-05T14:31:26.823Z</time></trkpt><trkpt lat="45.79064" lon="8.7526683"><ele>271.0</ele><time>2026-04-05T14:31:27.822Z</time></trkpt><trkpt lat="45.7906533" lon="8.7529033"><ele>270.0</ele><time>2026-04-05T14:31:28.822Z</time></trkpt><trkpt lat="45.7906567" lon="8.753125"><ele>269.0</ele><time>2026-04-05T14:31:29.822Z</time></trkpt><trkpt lat="45.79065" lon="8.7533517"><ele>268.0</ele><time>2026-04-05T14:31:30.822Z</time></trkpt><trkpt lat="45.79065" lon="8.7535833"><ele>267.66666666666663</ele><time>2026-04-05T14:31:31.822Z</time></trkpt><trkpt lat="45.7906533" lon="8.7538217"><ele>267.3333333333333</ele><time>2026-04-05T14:31:32.822Z</time></trkpt><trkpt lat="45.79066" lon="8.7540617"><ele>267.0</ele><time>2026-04-05T14:31:33.822Z</time></trkpt><trkpt lat="45.7906583" lon="8.7543033"><ele>266.0</ele><time>2026-04-05T14:31:34.823Z</time></trkpt><trkpt lat="45.7906533" lon="8.7545417"><ele>265.0</ele><time>2026-04-05T14:31:35.823Z</time></trkpt><trkpt lat="45.7906567" lon="8.75478"><ele>264.0</ele><time>2026-04-05T14:31:36.822Z</time></trkpt><trkpt lat="45.790665" lon="8.755025"><ele>264.0</ele><time>2026-04-05T14:31:37.822Z</time></trkpt><trkpt lat="45.7906683" lon="8.7552633"><ele>264.0</ele><time>2026-04-05T14:31:38.823Z</time></trkpt><trkpt lat="45.790665" lon="8.7555"><ele>264.0</ele><time>2026-04-05T14:31:39.822Z</time></trkpt><trkpt lat="45.79067" lon="8.7557483"><ele>264.0</ele><time>2026-04-05T14:31:40.823Z</time></trkpt><trkpt lat="45.790675" lon="8.7559967"><ele>264.0</ele><time>2026-04-05T14:31:41.822Z</time></trkpt><trkpt lat="45.7906733" lon="8.756245"><ele>264.0</ele><time>2026-04-05T14:31:42.822Z</time></trkpt><trkpt lat="45.79067" lon="8.7565033"><ele>263.3333333333333</ele><time>2026-04-05T14:31:43.822Z</time></trkpt><trkpt lat="45.7906567" lon="8.7567567"><ele>262.66666666666663</ele><time>2026-04-05T14:31:44.823Z</time></trkpt><trkpt lat="45.790645" lon="8.7570117"><ele>262.0</ele><time>2026-04-05T14:31:45.822Z</time></trkpt><trkpt lat="45.7906267" lon="8.75727"><ele>261.3333333333333</ele><time>2026-04-05T14:31:46.822Z</time></trkpt><trkpt lat="45.7906183" lon="8.75753"><ele>260.6666666666667</ele><time>2026-04-05T14:31:47.822Z</time></trkpt><trkpt lat="45.7905983" lon="8.7577817"><ele>260.0</ele><time>2026-04-05T14:31:48.822Z</time></trkpt><trkpt lat="45.790585" lon="8.758035"><ele>260.0</ele><time>2026-04-05T14:31:49.822Z</time></trkpt><trkpt lat="45.7905783" lon="8.7582817"><ele>260.0</ele><time>2026-04-05T14:31:50.822Z</time></trkpt><trkpt lat="45.7905517" lon="8.758525"><ele>260.0</ele><time>2026-04-05T14:31:51.822Z</time></trkpt><trkpt lat="45.7905283" lon="8.7587817"><ele>259.6666666666667</ele><time>2026-04-05T14:31:52.822Z</time></trkpt><trkpt lat="45.790505" lon="8.7590533"><ele>259.3333333333333</ele><time>2026-04-05T14:31:53.822Z</time></trkpt><trkpt lat="45.790485" lon="8.7593417"><ele>259.0</ele><time>2026-04-05T14:31:54.822Z</time></trkpt><trkpt lat="45.7904733" lon="8.7596233"><ele>259.0</ele><time>2026-04-05T14:31:55.822Z</time></trkpt><trkpt lat="45.79046" lon="8.7598967"><ele>259.0</ele><time>2026-04-05T14:31:56.822Z</time></trkpt><trkpt lat="45.7904483" lon="8.7601583"><ele>259.0</ele><time>2026-04-05T14:31:57.822Z</time></trkpt><trkpt lat="45.7904383" lon="8.7604267"><ele>258.3333333333333</ele><time>2026-04-05T14:31:58.822Z</time></trkpt><trkpt lat="45.7904217" lon="8.7606933"><ele>257.6666666666667</ele><time>2026-04-05T14:31:59.822Z</time></trkpt><trkpt lat="45.7903983" lon="8.760965"><ele>257.0</ele><time>2026-04-05T14:32:00.823Z</time></trkpt><trkpt lat="45.7903783" lon="8.76124"><ele>257.0</ele><time>2026-04-05T14:32:01.822Z</time></trkpt><trkpt lat="45.7903683" lon="8.7615067"><ele>257.0</ele><time>2026-04-05T14:32:02.822Z</time></trkpt><trkpt lat="45.7903517" lon="8.7617817"><ele>257.0</ele><time>2026-04-05T14:32:03.823Z</time></trkpt><trkpt lat="45.7903433" lon="8.762055"><ele>257.33333333333337</ele><time>2026-04-05T14:32:04.823Z</time></trkpt><trkpt lat="45.7903333" lon="8.7623333"><ele>257.6666666666667</ele><time>2026-04-05T14:32:05.822Z</time></trkpt><trkpt lat="45.79034" lon="8.7626183"><ele>258.0</ele><time>2026-04-05T14:32:06.822Z</time></trkpt><trkpt lat="45.79035" lon="8.76289"><ele>257.0</ele><time>2026-04-05T14:32:07.822Z</time></trkpt><trkpt lat="45.790355" lon="8.7631633"><ele>256.0</ele><time>2026-04-05T14:32:08.822Z</time></trkpt><trkpt lat="45.7903683" lon="8.7634317"><ele>255.0</ele><time>2026-04-05T14:32:09.822Z</time></trkpt><trkpt lat="45.790385" lon="8.76369"><ele>255.0</ele><time>2026-04-05T14:32:10.822Z</time></trkpt><trkpt lat="45.7903917" lon="8.7639483"><ele>255.0</ele><time>2026-04-05T14:32:11.822Z</time></trkpt><trkpt lat="45.7904033" lon="8.7642083"><ele>255.0</ele><time>2026-04-05T14:32:12.822Z</time></trkpt><trkpt lat="45.790415" lon="8.76447"><ele>255.0</ele><time>2026-04-05T14:32:13.822Z</time></trkpt><trkpt lat="45.7904283" lon="8.7647317"><ele>255.0</ele><time>2026-04-05T14:32:14.822Z</time></trkpt><trkpt lat="45.7904317" lon="8.7649933"><ele>255.0</ele><time>2026-04-05T14:32:15.822Z</time></trkpt><trkpt lat="45.7904417" lon="8.7652567"><ele>255.0</ele><time>2026-04-05T14:32:16.822Z</time></trkpt><trkpt lat="45.790455" lon="8.7655217"><ele>255.0</ele><time>2026-04-05T14:32:17.822Z</time></trkpt><trkpt lat="45.7904633" lon="8.7657817"><ele>255.0</ele><time>2026-04-05T14:32:18.822Z</time></trkpt><trkpt lat="45.7904767" lon="8.76604"><ele>254.66666666666669</ele><time>2026-04-05T14:32:19.822Z</time></trkpt><trkpt lat="45.79049" lon="8.7663017"><ele>254.33333333333334</ele><time>2026-04-05T14:32:20.823Z</time></trkpt><trkpt lat="45.7904867" lon="8.7665583"><ele>254.0</ele><time>2026-04-05T14:32:21.822Z</time></trkpt><trkpt lat="45.79047" lon="8.7668283"><ele>252.66666666666669</ele><time>2026-04-05T14:32:22.822Z</time></trkpt><trkpt lat="45.79044" lon="8.7671083"><ele>251.33333333333331</ele><time>2026-04-05T14:32:23.823Z</time></trkpt><trkpt lat="45.7904083" lon="8.767395"><ele>250.0</ele><time>2026-04-05T14:32:24.823Z</time></trkpt><trkpt lat="45.79037" lon="8.7676767"><ele>249.33333333333331</ele><time>2026-04-05T14:32:25.822Z</time></trkpt><trkpt lat="45.7903333" lon="8.767955"><ele>248.66666666666669</ele><time>2026-04-05T14:32:26.822Z</time></trkpt><trkpt lat="45.7902967" lon="8.7682367"><ele>248.0</ele><time>2026-04-05T14:32:27.823Z</time></trkpt><trkpt lat="45.79026" lon="8.7685167"><ele>246.66666666666669</ele><time>2026-04-05T14:32:28.822Z</time></trkpt><trkpt lat="45.7902217" lon="8.7687967"><ele>245.33333333333331</ele><time>2026-04-05T14:32:29.822Z</time></trkpt><trkpt lat="45.79018" lon="8.7690683"><ele>244.0</ele><time>2026-04-05T14:32:30.822Z</time></trkpt><trkpt lat="45.790135" lon="8.76934"><ele>248.33333333333331</ele><time>2026-04-05T14:32:31.822Z</time></trkpt><trkpt lat="45.7900983" lon="8.7696133"><ele>252.66666666666669</ele><time>2026-04-05T14:32:32.822Z</time></trkpt><trkpt lat="45.790055" lon="8.76989"><ele>257.0</ele><time>2026-04-05T14:32:33.822Z</time></trkpt><trkpt lat="45.7900283" lon="8.7701617"><ele>256.0</ele><time>2026-04-05T14:32:34.822Z</time></trkpt><trkpt lat="45.7900033" lon="8.7704233"><ele>255.0</ele><time>2026-04-05T14:32:35.823Z</time></trkpt><trkpt lat="45.78998" lon="8.7706833"><ele>254.0</ele><time>2026-04-05T14:32:36.822Z</time></trkpt><trkpt lat="45.78995" lon="8.7709417"><ele>253.66666666666669</ele><time>2026-04-05T14:32:37.822Z</time></trkpt><trkpt lat="45.7899333" lon="8.7712"><ele>253.33333333333331</ele><time>2026-04-05T14:32:38.822Z</time></trkpt><trkpt lat="45.7899167" lon="8.7714517"><ele>253.0</ele><time>2026-04-05T14:32:39.822Z</time></trkpt><trkpt lat="45.7899033" lon="8.7716917"><ele>254.0</ele><time>2026-04-05T14:32:40.822Z</time></trkpt><trkpt lat="45.7898867" lon="8.7719333"><ele>255.0</ele><time>2026-04-05T14:32:41.822Z</time></trkpt><trkpt lat="45.7898583" lon="8.77217"><ele>256.0</ele><time>2026-04-05T14:32:42.822Z</time></trkpt><trkpt lat="45.789835" lon="8.7724183"><ele>256.0</ele><time>2026-04-05T14:32:43.822Z</time></trkpt><trkpt lat="45.78981" lon="8.772675"><ele>256.0</ele><time>2026-04-05T14:32:44.822Z</time></trkpt><trkpt lat="45.7897817" lon="8.7729467"><ele>256.0</ele><time>2026-04-05T14:32:45.823Z</time></trkpt><trkpt lat="45.789765" lon="8.773245"><ele>254.33333333333331</ele><time>2026-04-05T14:32:46.822Z</time></trkpt><trkpt lat="45.7897383" lon="8.77353"><ele>252.66666666666669</ele><time>2026-04-05T14:32:47.822Z</time></trkpt><trkpt lat="45.789715" lon="8.7738"><ele>251.0</ele><time>2026-04-05T14:32:48.822Z</time></trkpt><trkpt lat="45.7896867" lon="8.77406"><ele>251.0</ele><time>2026-04-05T14:32:49.822Z</time></trkpt><trkpt lat="45.789645" lon="8.7743117"><ele>251.0</ele><time>2026-04-05T14:32:50.823Z</time></trkpt><trkpt lat="45.789605" lon="8.7745517"><ele>251.0</ele><time>2026-04-05T14:32:51.822Z</time></trkpt><trkpt lat="45.78956" lon="8.7747883"><ele>251.33333333333334</ele><time>2026-04-05T14:32:52.822Z</time></trkpt><trkpt lat="45.7895183" lon="8.77504"><ele>251.66666666666669</ele><time>2026-04-05T14:32:53.823Z</time></trkpt><trkpt lat="45.7894683" lon="8.775295"><ele>252.0</ele><time>2026-04-05T14:32:54.822Z</time></trkpt><trkpt lat="45.7894067" lon="8.77556"><ele>251.33333333333331</ele><time>2026-04-05T14:32:55.822Z</time></trkpt><trkpt lat="45.7893633" lon="8.7758283"><ele>250.66666666666666</ele><time>2026-04-05T14:32:56.822Z</time></trkpt><trkpt lat="45.7892967" lon="8.776085"><ele>250.0</ele><time>2026-04-05T14:32:57.823Z</time></trkpt><trkpt lat="45.7892517" lon="8.7763283"><ele>252.33333333333331</ele><time>2026-04-05T14:32:58.822Z</time></trkpt><trkpt lat="45.789205" lon="8.7765567"><ele>254.66666666666669</ele><time>2026-04-05T14:32:59.822Z</time></trkpt><trkpt lat="45.789155" lon="8.7767883"><ele>257.0</ele><time>2026-04-05T14:33:00.823Z</time></trkpt><trkpt lat="45.7891133" lon="8.7770233"><ele>257.0</ele><time>2026-04-05T14:33:01.822Z</time></trkpt><trkpt lat="45.78906" lon="8.77725"><ele>257.0</ele><time>2026-04-05T14:33:02.823Z</time></trkpt><trkpt lat="45.78901" lon="8.777475"><ele>257.0</ele><time>2026-04-05T14:33:03.822Z</time></trkpt><trkpt lat="45.78898" lon="8.777675"><ele>256.6</ele><time>2026-04-05T14:33:04.822Z</time></trkpt><trkpt lat="45.7889567" lon="8.77784"><ele>256.2</ele><time>2026-04-05T14:33:05.822Z</time></trkpt><trkpt lat="45.7889283" lon="8.777985"><ele>255.8</ele><time>2026-04-05T14:33:06.823Z</time></trkpt><trkpt lat="45.7888983" lon="8.7781333"><ele>255.4</ele><time>2026-04-05T14:33:07.822Z</time></trkpt><trkpt lat="45.7888617" lon="8.7782883"><ele>255.0</ele><time>2026-04-05T14:33:08.822Z</time></trkpt><trkpt lat="45.7888383" lon="8.7784617"><ele>254.25</ele><time>2026-04-05T14:33:09.823Z</time></trkpt><trkpt lat="45.7888067" lon="8.7786517"><ele>253.5</ele><time>2026-04-05T14:33:10.822Z</time></trkpt><trkpt lat="45.7887617" lon="8.7788567"><ele>252.75</ele><time>2026-04-05T14:33:11.822Z</time></trkpt><trkpt lat="45.7887267" lon="8.7790483"><ele>252.0</ele><time>2026-04-05T14:33:12.822Z</time></trkpt><trkpt lat="45.7886817" lon="8.77923"><ele>250.25</ele><time>2026-04-05T14:33:13.822Z</time></trkpt><trkpt lat="45.7886383" lon="8.7793917"><ele>248.5</ele><time>2026-04-05T14:33:14.823Z</time></trkpt><trkpt lat="45.7886067" lon="8.7795583"><ele>246.75</ele><time>2026-04-05T14:33:15.822Z</time></trkpt><trkpt lat="45.7885733" lon="8.7797383"><ele>245.0</ele><time>2026-04-05T14:33:16.822Z</time></trkpt><trkpt lat="45.7885383" lon="8.7799217"><ele>246.0</ele><time>2026-04-05T14:33:17.823Z</time></trkpt><trkpt lat="45.7885017" lon="8.78012"><ele>247.0</ele><time>2026-04-05T14:33:18.822Z</time></trkpt><trkpt lat="45.7884717" lon="8.7803333"><ele>248.0</ele><time>2026-04-05T14:33:19.822Z</time></trkpt><trkpt lat="45.7884317" lon="8.7805267"><ele>249.0</ele><time>2026-04-05T14:33:20.823Z</time></trkpt><trkpt lat="45.7883933" lon="8.78069"><ele>249.0</ele><time>2026-04-05T14:33:21.822Z</time></trkpt><trkpt lat="45.78836" lon="8.7808167"><ele>249.0</ele><time>2026-04-05T14:33:22.822Z</time></trkpt><trkpt lat="45.7883283" lon="8.7809267"><ele>249.0</ele><time>2026-04-05T14:33:23.822Z</time></trkpt><trkpt lat="45.7882983" lon="8.7810167"><ele>249.0</ele><time>2026-04-05T14:33:24.822Z</time></trkpt><trkpt lat="45.788265" lon="8.7810967"><ele>249.0</ele><time>2026-04-05T14:33:25.822Z</time></trkpt><trkpt lat="45.7882367" lon="8.7811817"><ele>249.0</ele><time>2026-04-05T14:33:26.822Z</time></trkpt><trkpt lat="45.788205" lon="8.78128"><ele>249.0</ele><time>2026-04-05T14:33:27.822Z</time></trkpt><trkpt lat="45.7881733" lon="8.781385"><ele>248.99999999999997</ele><time>2026-04-05T14:33:28.822Z</time></trkpt><trkpt lat="45.7881667" lon="8.7814867"><ele>249.0</ele><time>2026-04-05T14:33:29.823Z</time></trkpt><trkpt lat="45.7881883" lon="8.7815717"><ele>249.0</ele><time>2026-04-05T14:33:30.822Z</time></trkpt><trkpt lat="45.7882267" lon="8.7816517"><ele>248.99999999999997</ele><time>2026-04-05T14:33:31.823Z</time></trkpt><trkpt lat="45.788265" lon="8.7817483"><ele>249.0</ele><time>2026-04-05T14:33:32.823Z</time></trkpt><trkpt lat="45.7883" lon="8.7818567"><ele>249.0</ele><time>2026-04-05T14:33:33.822Z</time></trkpt><trkpt lat="45.7883133" lon="8.7819867"><ele>249.0</ele><time>2026-04-05T14:33:34.822Z</time></trkpt><trkpt lat="45.788315" lon="8.7821233"><ele>248.99999999999997</ele><time>2026-04-05T14:33:35.822Z</time></trkpt><trkpt lat="45.7883267" lon="8.7822683"><ele>248.99999999999997</ele><time>2026-04-05T14:33:36.822Z</time></trkpt><trkpt lat="45.78835" lon="8.7824233"><ele>249.0</ele><time>2026-04-05T14:33:37.822Z</time></trkpt><trkpt lat="45.7883683" lon="8.782585"><ele>249.0</ele><time>2026-04-05T14:33:38.823Z</time></trkpt><trkpt lat="45.7883933" lon="8.7827617"><ele>249.25</ele><time>2026-04-05T14:33:39.822Z</time></trkpt><trkpt lat="45.7884133" lon="8.7829467"><ele>249.5</ele><time>2026-04-05T14:33:40.822Z</time></trkpt><trkpt lat="45.7884367" lon="8.783135"><ele>249.75</ele><time>2026-04-05T14:33:41.822Z</time></trkpt><trkpt lat="45.7884567" lon="8.78332"><ele>250.0</ele><time>2026-04-05T14:33:42.823Z</time></trkpt><trkpt lat="45.7884817" lon="8.7835167"><ele>250.0</ele><time>2026-04-05T14:33:43.822Z</time></trkpt><trkpt lat="45.7885083" lon="8.78374"><ele>250.0</ele><time>2026-04-05T14:33:44.822Z</time></trkpt><trkpt lat="45.7885467" lon="8.7839933"><ele>250.0</ele><time>2026-04-05T14:33:45.823Z</time></trkpt><trkpt lat="45.7885767" lon="8.78425"><ele>249.0</ele><time>2026-04-05T14:33:46.822Z</time></trkpt><trkpt lat="45.78859" lon="8.7845"><ele>248.0</ele><time>2026-04-05T14:33:47.822Z</time></trkpt><trkpt lat="45.7886167" lon="8.78474"><ele>247.0</ele><time>2026-04-05T14:33:48.822Z</time></trkpt><trkpt lat="45.788645" lon="8.78499"><ele>248.0</ele><time>2026-04-05T14:33:49.822Z</time></trkpt><trkpt lat="45.7886733" lon="8.78524"><ele>249.0</ele><time>2026-04-05T14:33:50.822Z</time></trkpt><trkpt lat="45.7887" lon="8.7854883"><ele>250.0</ele><time>2026-04-05T14:33:51.822Z</time></trkpt><trkpt lat="45.7887517" lon="8.78576"><ele>249.66666666666666</ele><time>2026-04-05T14:33:52.822Z</time></trkpt><trkpt lat="45.7887933" lon="8.7860383"><ele>249.33333333333331</ele><time>2026-04-05T14:33:53.822Z</time></trkpt><trkpt lat="45.78881" lon="8.78631"><ele>249.0</ele><time>2026-04-05T14:33:54.822Z</time></trkpt><trkpt lat="45.7888183" lon="8.7865583"><ele>249.0</ele><time>2026-04-05T14:33:55.823Z</time></trkpt><trkpt lat="45.788835" lon="8.7867917"><ele>249.0</ele><time>2026-04-05T14:33:56.822Z</time></trkpt><trkpt lat="45.7888567" lon="8.7870117"><ele>249.0</ele><time>2026-04-05T14:33:57.822Z</time></trkpt><trkpt lat="45.788885" lon="8.7872233"><ele>249.0</ele><time>2026-04-05T14:33:58.822Z</time></trkpt><trkpt lat="45.7889117" lon="8.7874233"><ele>249.0</ele><time>2026-04-05T14:33:59.822Z</time></trkpt><trkpt lat="45.78894" lon="8.7876167"><ele>249.0</ele><time>2026-04-05T14:34:00.822Z</time></trkpt><trkpt lat="45.7889567" lon="8.7878117"><ele>249.0</ele><time>2026-04-05T14:34:01.822Z</time></trkpt><trkpt lat="45.7889833" lon="8.78803"><ele>248.0</ele><time>2026-04-05T14:34:02.823Z</time></trkpt><trkpt lat="45.7890183" lon="8.78826"><ele>247.0</ele><time>2026-04-05T14:34:03.823Z</time></trkpt><trkpt lat="45.7890533" lon="8.7885083"><ele>246.0</ele><time>2026-04-05T14:34:04.822Z</time></trkpt><trkpt lat="45.78908" lon="8.788745"><ele>246.0</ele><time>2026-04-05T14:34:05.822Z</time></trkpt><trkpt lat="45.7891033" lon="8.7889617"><ele>246.0</ele><time>2026-04-05T14:34:06.823Z</time></trkpt><trkpt lat="45.7891233" lon="8.78915"><ele>246.0</ele><time>2026-04-05T14:34:07.822Z</time></trkpt><trkpt lat="45.78914" lon="8.7893167"><ele>246.0</ele><time>2026-04-05T14:34:08.822Z</time></trkpt><trkpt lat="45.7891533" lon="8.7894667"><ele>245.83333333333334</ele><time>2026-04-05T14:34:09.822Z</time></trkpt><trkpt lat="45.7891683" lon="8.7895967"><ele>245.66666666666669</ele><time>2026-04-05T14:34:10.822Z</time></trkpt><trkpt lat="45.7891833" lon="8.789725"><ele>245.5</ele><time>2026-04-05T14:34:11.823Z</time></trkpt><trkpt lat="45.7891917" lon="8.78985"><ele>245.33333333333334</ele><time>2026-04-05T14:34:12.822Z</time></trkpt><trkpt lat="45.789205" lon="8.7899683"><ele>245.16666666666669</ele><time>2026-04-05T14:34:13.822Z</time></trkpt><trkpt lat="45.7892117" lon="8.7900817"><ele>245.0</ele><time>2026-04-05T14:34:14.822Z</time></trkpt><trkpt lat="45.78922" lon="8.7901817"><ele>245.0</ele><time>2026-04-05T14:34:15.822Z</time></trkpt><trkpt lat="45.7892233" lon="8.7902733"><ele>245.0</ele><time>2026-04-05T14:34:16.823Z</time></trkpt><trkpt lat="45.78922" lon="8.79042"><ele>245.0</ele><time>2026-04-05T14:34:18.823Z</time></trkpt><trkpt lat="45.7892017" lon="8.7905633"><ele>245.0</ele><time>2026-04-05T14:34:20.822Z</time></trkpt><trkpt lat="45.7892383" lon="8.7907683"><ele>245.0</ele><time>2026-04-05T14:34:22.822Z</time></trkpt><trkpt lat="45.7892783" lon="8.7909167"><ele>245.5</ele><time>2026-04-05T14:34:23.823Z</time></trkpt><trkpt lat="45.7893117" lon="8.79108"><ele>246.0</ele><time>2026-04-05T14:34:24.822Z</time></trkpt><trkpt lat="45.789335" lon="8.79124"><ele>246.5</ele><time>2026-04-05T14:34:25.823Z</time></trkpt><trkpt lat="45.789355" lon="8.791395"><ele>247.0</ele><time>2026-04-05T14:34:26.823Z</time></trkpt><trkpt lat="45.7893867" lon="8.7915667"><ele>246.25</ele><time>2026-04-05T14:34:27.822Z</time></trkpt><trkpt lat="45.7894167" lon="8.7917417"><ele>245.5</ele><time>2026-04-05T14:34:28.823Z</time></trkpt><trkpt lat="45.7894367" lon="8.7919167"><ele>244.75</ele><time>2026-04-05T14:34:29.822Z</time></trkpt><trkpt lat="45.7894467" lon="8.79209"><ele>244.0</ele><time>2026-04-05T14:34:30.822Z</time></trkpt><trkpt lat="45.789465" lon="8.79226"><ele>244.0</ele><time>2026-04-05T14:34:31.821Z</time></trkpt><trkpt lat="45.7894833" lon="8.7924383"><ele>244.0</ele><time>2026-04-05T14:34:32.821Z</time></trkpt><trkpt lat="45.7894983" lon="8.792595"><ele>244.0</ele><time>2026-04-05T14:34:33.821Z</time></trkpt><trkpt lat="45.78952" lon="8.7927517"><ele>244.0</ele><time>2026-04-05T14:34:34.821Z</time></trkpt><trkpt lat="45.7895333" lon="8.792905"><ele>244.25</ele><time>2026-04-05T14:34:35.821Z</time></trkpt><trkpt lat="45.7895417" lon="8.793055"><ele>244.5</ele><time>2026-04-05T14:34:36.821Z</time></trkpt><trkpt lat="45.7895633" lon="8.7932117"><ele>244.75</ele><time>2026-04-05T14:34:37.821Z</time></trkpt><trkpt lat="45.78958" lon="8.7933767"><ele>245.0</ele><time>2026-04-05T14:34:38.822Z</time></trkpt><trkpt lat="45.7895983" lon="8.7935467"><ele>245.25</ele><time>2026-04-05T14:34:39.821Z</time></trkpt><trkpt lat="45.7896217" lon="8.7937167"><ele>245.5</ele><time>2026-04-05T14:34:40.821Z</time></trkpt><trkpt lat="45.7896383" lon="8.79389"><ele>245.75</ele><time>2026-04-05T14:34:41.821Z</time></trkpt><trkpt lat="45.7896617" lon="8.7940483"><ele>246.0</ele><time>2026-04-05T14:34:42.821Z</time></trkpt><trkpt lat="45.7896967" lon="8.7941917"><ele>246.0</ele><time>2026-04-05T14:34:43.821Z</time></trkpt><trkpt lat="45.7897333" lon="8.7943283"><ele>246.00000000000003</ele><time>2026-04-05T14:34:44.821Z</time></trkpt><trkpt lat="45.7897783" lon="8.79446"><ele>246.00000000000003</ele><time>2026-04-05T14:34:45.821Z</time></trkpt><trkpt lat="45.7898267" lon="8.7945917"><ele>246.0</ele><time>2026-04-05T14:34:46.821Z</time></trkpt><trkpt lat="45.7898783" lon="8.79472"><ele>246.0</ele><time>2026-04-05T14:34:47.822Z</time></trkpt><trkpt lat="45.78993" lon="8.7948467"><ele>246.0</ele><time>2026-04-05T14:34:48.821Z</time></trkpt><trkpt lat="45.7899883" lon="8.7949817"><ele>246.0</ele><time>2026-04-05T14:34:49.821Z</time></trkpt><trkpt lat="45.79005" lon="8.795115"><ele>246.0</ele><time>2026-04-05T14:34:50.821Z</time></trkpt><trkpt lat="45.7901133" lon="8.7952517"><ele>246.0</ele><time>2026-04-05T14:34:51.821Z</time></trkpt><trkpt lat="45.7901767" lon="8.7953917"><ele>246.0</ele><time>2026-04-05T14:34:52.822Z</time></trkpt><trkpt lat="45.7902367" lon="8.7955333"><ele>246.0</ele><time>2026-04-05T14:34:53.822Z</time></trkpt><trkpt lat="45.7903033" lon="8.7956767"><ele>246.0</ele><time>2026-04-05T14:34:54.821Z</time></trkpt><trkpt lat="45.7903633" lon="8.795815"><ele>246.0</ele><time>2026-04-05T14:34:55.821Z</time></trkpt><trkpt lat="45.790435" lon="8.7959617"><ele>246.0</ele><time>2026-04-05T14:34:56.821Z</time></trkpt><trkpt lat="45.790505" lon="8.7961067"><ele>246.0</ele><time>2026-04-05T14:34:57.821Z</time></trkpt><trkpt lat="45.7905767" lon="8.7962567"><ele>246.0</ele><time>2026-04-05T14:34:58.822Z</time></trkpt><trkpt lat="45.7906467" lon="8.796405"><ele>246.0</ele><time>2026-04-05T14:34:59.821Z</time></trkpt><trkpt lat="45.790725" lon="8.796555"><ele>246.0</ele><time>2026-04-05T14:35:00.821Z</time></trkpt><trkpt lat="45.7907967" lon="8.7967033"><ele>246.0</ele><time>2026-04-05T14:35:01.821Z</time></trkpt><trkpt lat="45.7908733" lon="8.7968533"><ele>246.0</ele><time>2026-04-05T14:35:02.821Z</time></trkpt><trkpt lat="45.7909467" lon="8.7970083"><ele>246.0</ele><time>2026-04-05T14:35:03.821Z</time></trkpt><trkpt lat="45.7910183" lon="8.7971567"><ele>246.0</ele><time>2026-04-05T14:35:04.821Z</time></trkpt><trkpt lat="45.7910933" lon="8.79731"><ele>246.0</ele><time>2026-04-05T14:35:05.821Z</time></trkpt><trkpt lat="45.7911667" lon="8.7974717"><ele>246.0</ele><time>2026-04-05T14:35:06.822Z</time></trkpt><trkpt lat="45.7912367" lon="8.797635"><ele>246.0</ele><time>2026-04-05T14:35:07.821Z</time></trkpt><trkpt lat="45.7913133" lon="8.7977817"><ele>246.20000000000002</ele><time>2026-04-05T14:35:08.821Z</time></trkpt><trkpt lat="45.79138" lon="8.7979167"><ele>246.40000000000003</ele><time>2026-04-05T14:35:09.821Z</time></trkpt><trkpt lat="45.7914433" lon="8.79805"><ele>246.6</ele><time>2026-04-05T14:35:10.821Z</time></trkpt><trkpt lat="45.791495" lon="8.7981767"><ele>246.8</ele><time>2026-04-05T14:35:11.821Z</time></trkpt><trkpt lat="45.7915433" lon="8.7983017"><ele>247.0</ele><time>2026-04-05T14:35:12.821Z</time></trkpt><trkpt lat="45.7915933" lon="8.7984233"><ele>246.75</ele><time>2026-04-05T14:35:13.821Z</time></trkpt><trkpt lat="45.791645" lon="8.7985567"><ele>246.5</ele><time>2026-04-05T14:35:14.821Z</time></trkpt><trkpt lat="45.791705" lon="8.798705"><ele>246.25</ele><time>2026-04-05T14:35:15.821Z</time></trkpt><trkpt lat="45.7917767" lon="8.7988483"><ele>246.0</ele><time>2026-04-05T14:35:16.821Z</time></trkpt><trkpt lat="45.791855" lon="8.7989967"><ele>246.0</ele><time>2026-04-05T14:35:17.821Z</time></trkpt><trkpt lat="45.7919367" lon="8.7991533"><ele>246.0</ele><time>2026-04-05T14:35:18.821Z</time></trkpt><trkpt lat="45.792025" lon="8.7993"><ele>246.0</ele><time>2026-04-05T14:35:19.821Z</time></trkpt><trkpt lat="45.79211" lon="8.7994533"><ele>246.0</ele><time>2026-04-05T14:35:20.821Z</time></trkpt><trkpt lat="45.7921933" lon="8.799585"><ele>245.8</ele><time>2026-04-05T14:35:21.821Z</time></trkpt><trkpt lat="45.7922667" lon="8.79971"><ele>245.60000000000002</ele><time>2026-04-05T14:35:22.821Z</time></trkpt><trkpt lat="45.79233" lon="8.799835"><ele>245.4</ele><time>2026-04-05T14:35:23.821Z</time></trkpt><trkpt lat="45.792385" lon="8.79996"><ele>245.2</ele><time>2026-04-05T14:35:24.821Z</time></trkpt><trkpt lat="45.792425" lon="8.8000783"><ele>245.0</ele><time>2026-04-05T14:35:25.821Z</time></trkpt><trkpt lat="45.792425" lon="8.8002217"><ele>244.5</ele><time>2026-04-05T14:35:26.821Z</time></trkpt><trkpt lat="45.79239" lon="8.8003483"><ele>244.0</ele><time>2026-04-05T14:35:27.821Z</time></trkpt><trkpt lat="45.7923317" lon="8.8004717"><ele>243.5</ele><time>2026-04-05T14:35:28.821Z</time></trkpt><trkpt lat="45.792245" lon="8.8005883"><ele>243.0</ele><time>2026-04-05T14:35:29.821Z</time></trkpt><trkpt lat="45.7921183" lon="8.8006833"><ele>243.0</ele><time>2026-04-05T14:35:30.821Z</time></trkpt><trkpt lat="45.791965" lon="8.8007717"><ele>243.0</ele><time>2026-04-05T14:35:31.821Z</time></trkpt><trkpt lat="45.79181" lon="8.8008433"><ele>243.0</ele><time>2026-04-05T14:35:32.822Z</time></trkpt><trkpt lat="45.791665" lon="8.8009083"><ele>244.0</ele><time>2026-04-05T14:35:33.822Z</time></trkpt><trkpt lat="45.7915333" lon="8.80098"><ele>245.0</ele><time>2026-04-05T14:35:34.821Z</time></trkpt><trkpt lat="45.7914067" lon="8.80105"><ele>246.0</ele><time>2026-04-05T14:35:35.821Z</time></trkpt><trkpt lat="45.7912667" lon="8.8011233"><ele>247.0</ele><time>2026-04-05T14:35:36.822Z</time></trkpt><trkpt lat="45.791125" lon="8.801195"><ele>249.25</ele><time>2026-04-05T14:35:37.821Z</time></trkpt><trkpt lat="45.7909883" lon="8.8012767"><ele>251.5</ele><time>2026-04-05T14:35:38.821Z</time></trkpt><trkpt lat="45.7908683" lon="8.8013633"><ele>253.75</ele><time>2026-04-05T14:35:39.821Z</time></trkpt><trkpt lat="45.7907633" lon="8.8014417"><ele>256.0</ele><time>2026-04-05T14:35:40.821Z</time></trkpt><trkpt lat="45.7906817" lon="8.8015383"><ele>256.0</ele><time>2026-04-05T14:35:41.821Z</time></trkpt><trkpt lat="45.7906" lon="8.8016367"><ele>256.0</ele><time>2026-04-05T14:35:42.821Z</time></trkpt><trkpt lat="45.7905233" lon="8.8017483"><ele>256.0</ele><time>2026-04-05T14:35:43.822Z</time></trkpt><trkpt lat="45.7904533" lon="8.8018783"><ele>256.0</ele><time>2026-04-05T14:35:44.822Z</time></trkpt><trkpt lat="45.790385" lon="8.802025"><ele>256.75</ele><time>2026-04-05T14:35:45.821Z</time></trkpt><trkpt lat="45.7903317" lon="8.802185"><ele>257.5</ele><time>2026-04-05T14:35:46.821Z</time></trkpt><trkpt lat="45.7902817" lon="8.802355"><ele>258.25</ele><time>2026-04-05T14:35:47.821Z</time></trkpt><trkpt lat="45.7902317" lon="8.8025417"><ele>259.0</ele><time>2026-04-05T14:35:48.821Z</time></trkpt><trkpt lat="45.7901967" lon="8.8027283"><ele>259.5</ele><time>2026-04-05T14:35:49.821Z</time></trkpt><trkpt lat="45.7901733" lon="8.802925"><ele>260.0</ele><time>2026-04-05T14:35:50.821Z</time></trkpt><trkpt lat="45.7901667" lon="8.80312"><ele>260.5</ele><time>2026-04-05T14:35:51.821Z</time></trkpt><trkpt lat="45.7901833" lon="8.8033083"><ele>261.0</ele><time>2026-04-05T14:35:52.821Z</time></trkpt><trkpt lat="45.7902133" lon="8.8035033"><ele>261.0</ele><time>2026-04-05T14:35:53.821Z</time></trkpt><trkpt lat="45.7902583" lon="8.8036933"><ele>261.0</ele><time>2026-04-05T14:35:54.821Z</time></trkpt><trkpt lat="45.7903183" lon="8.8038883"><ele>261.0</ele><time>2026-04-05T14:35:55.821Z</time></trkpt><trkpt lat="45.7903767" lon="8.80409"><ele>261.0</ele><time>2026-04-05T14:35:56.821Z</time></trkpt><trkpt lat="45.79043" lon="8.8042983"><ele>263.3333333333333</ele><time>2026-04-05T14:35:57.822Z</time></trkpt><trkpt lat="45.7904867" lon="8.8045167"><ele>265.66666666666663</ele><time>2026-04-05T14:35:58.821Z</time></trkpt><trkpt lat="45.7905517" lon="8.8047567"><ele>268.0</ele><time>2026-04-05T14:35:59.821Z</time></trkpt><trkpt lat="45.7906217" lon="8.8050117"><ele>270.3333333333333</ele><time>2026-04-05T14:36:00.821Z</time></trkpt><trkpt lat="45.7906967" lon="8.8052883"><ele>272.6666666666667</ele><time>2026-04-05T14:36:01.822Z</time></trkpt><trkpt lat="45.7907667" lon="8.8055767"><ele>275.0</ele><time>2026-04-05T14:36:02.821Z</time></trkpt><trkpt lat="45.7908417" lon="8.80584"><ele>272.0</ele><time>2026-04-05T14:36:03.821Z</time></trkpt><trkpt lat="45.7909117" lon="8.8061033"><ele>269.0</ele><time>2026-04-05T14:36:04.821Z</time></trkpt><trkpt lat="45.7909867" lon="8.8063567"><ele>266.0</ele><time>2026-04-05T14:36:05.821Z</time></trkpt><trkpt lat="45.7910467" lon="8.8066017"><ele>267.33333333333337</ele><time>2026-04-05T14:36:06.822Z</time></trkpt><trkpt lat="45.7911017" lon="8.8068383"><ele>268.6666666666667</ele><time>2026-04-05T14:36:07.821Z</time></trkpt><trkpt lat="45.7911583" lon="8.807065"><ele>270.0</ele><time>2026-04-05T14:36:08.821Z</time></trkpt><trkpt lat="45.7912217" lon="8.8072883"><ele>270.0</ele><time>2026-04-05T14:36:09.821Z</time></trkpt><trkpt lat="45.7912817" lon="8.80751"><ele>270.0</ele><time>2026-04-05T14:36:10.821Z</time></trkpt><trkpt lat="45.791335" lon="8.8077317"><ele>270.0</ele><time>2026-04-05T14:36:11.821Z</time></trkpt><trkpt lat="45.7913917" lon="8.8079483"><ele>271.75</ele><time>2026-04-05T14:36:12.821Z</time></trkpt><trkpt lat="45.7914433" lon="8.80815"><ele>273.5</ele><time>2026-04-05T14:36:13.821Z</time></trkpt><trkpt lat="45.7914817" lon="8.8083367"><ele>275.25</ele><time>2026-04-05T14:36:14.821Z</time></trkpt><trkpt lat="45.7915117" lon="8.8085183"><ele>277.0</ele><time>2026-04-05T14:36:15.821Z</time></trkpt><trkpt lat="45.7915367" lon="8.80872"><ele>278.25</ele><time>2026-04-05T14:36:16.821Z</time></trkpt><trkpt lat="45.7915333" lon="8.80894"><ele>279.5</ele><time>2026-04-05T14:36:17.821Z</time></trkpt><trkpt lat="45.7915117" lon="8.80915"><ele>280.75</ele><time>2026-04-05T14:36:18.821Z</time></trkpt><trkpt lat="45.7914817" lon="8.8093533"><ele>282.0</ele><time>2026-04-05T14:36:19.822Z</time></trkpt><trkpt lat="45.7914333" lon="8.8095333"><ele>282.0</ele><time>2026-04-05T14:36:20.821Z</time></trkpt><trkpt lat="45.7913683" lon="8.8097017"><ele>282.0</ele><time>2026-04-05T14:36:21.821Z</time></trkpt><trkpt lat="45.7913033" lon="8.809845"><ele>282.0</ele><time>2026-04-05T14:36:22.822Z</time></trkpt><trkpt lat="45.791225" lon="8.8099783"><ele>282.0</ele><time>2026-04-05T14:36:23.821Z</time></trkpt><trkpt lat="45.7911383" lon="8.8101083"><ele>282.75</ele><time>2026-04-05T14:36:24.821Z</time></trkpt><trkpt lat="45.7910483" lon="8.8102233"><ele>283.5</ele><time>2026-04-05T14:36:25.822Z</time></trkpt><trkpt lat="45.7909533" lon="8.81034"><ele>284.25</ele><time>2026-04-05T14:36:26.821Z</time></trkpt><trkpt lat="45.79085" lon="8.8104467"><ele>285.0</ele><time>2026-04-05T14:36:27.821Z</time></trkpt><trkpt lat="45.7907433" lon="8.8105317"><ele>285.0</ele><time>2026-04-05T14:36:28.821Z</time></trkpt><trkpt lat="45.79061" lon="8.8106"><ele>285.0</ele><time>2026-04-05T14:36:29.822Z</time></trkpt><trkpt lat="45.7904767" lon="8.8106383"><ele>285.0</ele><time>2026-04-05T14:36:30.821Z</time></trkpt><trkpt lat="45.79035" lon="8.8106767"><ele>285.0</ele><time>2026-04-05T14:36:31.821Z</time></trkpt><trkpt lat="45.7902233" lon="8.81069"><ele>287.25</ele><time>2026-04-05T14:36:32.821Z</time></trkpt><trkpt lat="45.7900817" lon="8.8106867"><ele>289.5</ele><time>2026-04-05T14:36:33.821Z</time></trkpt><trkpt lat="45.7899433" lon="8.8106583"><ele>291.75</ele><time>2026-04-05T14:36:34.821Z</time></trkpt><trkpt lat="45.789805" lon="8.8106217"><ele>294.0</ele><time>2026-04-05T14:36:35.821Z</time></trkpt><trkpt lat="45.7896767" lon="8.8105717"><ele>294.0</ele><time>2026-04-05T14:36:36.821Z</time></trkpt><trkpt lat="45.7895583" lon="8.8105133"><ele>294.0</ele><time>2026-04-05T14:36:37.821Z</time></trkpt><trkpt lat="45.7894467" lon="8.8104517"><ele>294.0</ele><time>2026-04-05T14:36:38.822Z</time></trkpt><trkpt lat="45.7893317" lon="8.8103917"><ele>294.0</ele><time>2026-04-05T14:36:39.821Z</time></trkpt><trkpt lat="45.7892233" lon="8.8103283"><ele>294.75</ele><time>2026-04-05T14:36:40.821Z</time></trkpt><trkpt lat="45.7891083" lon="8.81027"><ele>295.5</ele><time>2026-04-05T14:36:41.821Z</time></trkpt><trkpt lat="45.789" lon="8.810205"><ele>296.25</ele><time>2026-04-05T14:36:42.822Z</time></trkpt><trkpt lat="45.78888" lon="8.8101417"><ele>297.0</ele><time>2026-04-05T14:36:43.821Z</time></trkpt><trkpt lat="45.7887567" lon="8.810085"><ele>297.0</ele><time>2026-04-05T14:36:44.821Z</time></trkpt><trkpt lat="45.7886417" lon="8.8100117"><ele>297.0</ele><time>2026-04-05T14:36:45.821Z</time></trkpt><trkpt lat="45.7885267" lon="8.809935"><ele>297.0</ele><time>2026-04-05T14:36:46.821Z</time></trkpt><trkpt lat="45.788405" lon="8.809855"><ele>297.0</ele><time>2026-04-05T14:36:47.821Z</time></trkpt><trkpt lat="45.7882733" lon="8.8097967"><ele>296.5</ele><time>2026-04-05T14:36:48.821Z</time></trkpt><trkpt lat="45.7881367" lon="8.809735"><ele>296.0</ele><time>2026-04-05T14:36:49.821Z</time></trkpt><trkpt lat="45.788" lon="8.80967"><ele>295.5</ele><time>2026-04-05T14:36:50.821Z</time></trkpt><trkpt lat="45.7878633" lon="8.8095983"><ele>295.0</ele><time>2026-04-05T14:36:51.821Z</time></trkpt><trkpt lat="45.7877217" lon="8.8095217"><ele>295.66666666666663</ele><time>2026-04-05T14:36:52.821Z</time></trkpt><trkpt lat="45.7875617" lon="8.809455"><ele>296.3333333333333</ele><time>2026-04-05T14:36:53.821Z</time></trkpt><trkpt lat="45.7873817" lon="8.8093967"><ele>297.0</ele><time>2026-04-05T14:36:54.821Z</time></trkpt><trkpt lat="45.7871983" lon="8.8093667"><ele>297.0</ele><time>2026-04-05T14:36:55.821Z</time></trkpt><trkpt lat="45.78701" lon="8.8093517"><ele>297.0</ele><time>2026-04-05T14:36:56.822Z</time></trkpt><trkpt lat="45.7868367" lon="8.80934"><ele>297.0</ele><time>2026-04-05T14:36:57.822Z</time></trkpt><trkpt lat="45.786655" lon="8.8093533"><ele>298.3333333333333</ele><time>2026-04-05T14:36:58.821Z</time></trkpt><trkpt lat="45.7864767" lon="8.8093817"><ele>299.66666666666663</ele><time>2026-04-05T14:36:59.821Z</time></trkpt><trkpt lat="45.78632" lon="8.8094233"><ele>301.0</ele><time>2026-04-05T14:37:00.821Z</time></trkpt><trkpt lat="45.7861767" lon="8.809485"><ele>301.0</ele><time>2026-04-05T14:37:01.821Z</time></trkpt><trkpt lat="45.7860417" lon="8.809545"><ele>301.0</ele><time>2026-04-05T14:37:02.821Z</time></trkpt><trkpt lat="45.785925" lon="8.8096"><ele>301.0</ele><time>2026-04-05T14:37:03.822Z</time></trkpt><trkpt lat="45.7857933" lon="8.8096633"><ele>301.0</ele><time>2026-04-05T14:37:04.821Z</time></trkpt><trkpt lat="45.7856617" lon="8.809735"><ele>303.0</ele><time>2026-04-05T14:37:05.821Z</time></trkpt><trkpt lat="45.7855233" lon="8.8098083"><ele>305.0</ele><time>2026-04-05T14:37:06.821Z</time></trkpt><trkpt lat="45.7853867" lon="8.8098883"><ele>307.0</ele><time>2026-04-05T14:37:07.821Z</time></trkpt><trkpt lat="45.78524" lon="8.8099617"><ele>308.0</ele><time>2026-04-05T14:37:08.821Z</time></trkpt><trkpt lat="45.785095" lon="8.8100383"><ele>309.0</ele><time>2026-04-05T14:37:09.821Z</time></trkpt><trkpt lat="45.7849533" lon="8.8101133"><ele>310.0</ele><time>2026-04-05T14:37:10.821Z</time></trkpt><trkpt lat="45.7848117" lon="8.8101883"><ele>310.0</ele><time>2026-04-05T14:37:11.822Z</time></trkpt><trkpt lat="45.7846717" lon="8.8102483"><ele>310.0</ele><time>2026-04-05T14:37:12.822Z</time></trkpt><trkpt lat="45.7845433" lon="8.810295"><ele>310.0</ele><time>2026-04-05T14:37:13.821Z</time></trkpt><trkpt lat="45.78442" lon="8.8103233"><ele>310.0</ele><time>2026-04-05T14:37:14.821Z</time></trkpt><trkpt lat="45.784295" lon="8.8103367"><ele>310.75</ele><time>2026-04-05T14:37:15.821Z</time></trkpt><trkpt lat="45.784175" lon="8.8103517"><ele>311.5</ele><time>2026-04-05T14:37:16.821Z</time></trkpt><trkpt lat="45.78404" lon="8.8103533"><ele>312.25</ele><time>2026-04-05T14:37:17.821Z</time></trkpt><trkpt lat="45.7838983" lon="8.810355"><ele>313.0</ele><time>2026-04-05T14:37:18.821Z</time></trkpt><trkpt lat="45.783755" lon="8.810335"><ele>313.0</ele><time>2026-04-05T14:37:19.821Z</time></trkpt><trkpt lat="45.7836083" lon="8.8103067"><ele>313.0</ele><time>2026-04-05T14:37:20.821Z</time></trkpt><trkpt lat="45.78347" lon="8.8102733"><ele>313.0</ele><time>2026-04-05T14:37:21.822Z</time></trkpt><trkpt lat="45.7833317" lon="8.8102367"><ele>313.0</ele><time>2026-04-05T14:37:22.821Z</time></trkpt><trkpt lat="45.7832083" lon="8.8101833"><ele>315.25</ele><time>2026-04-05T14:37:23.822Z</time></trkpt><trkpt lat="45.7830883" lon="8.810125"><ele>317.5</ele><time>2026-04-05T14:37:24.821Z</time></trkpt><trkpt lat="45.7829617" lon="8.81006"><ele>319.75</ele><time>2026-04-05T14:37:25.821Z</time></trkpt><trkpt lat="45.78283" lon="8.8099983"><ele>322.0</ele><time>2026-04-05T14:37:26.822Z</time></trkpt><trkpt lat="45.7826933" lon="8.8099417"><ele>321.75</ele><time>2026-04-05T14:37:27.821Z</time></trkpt><trkpt lat="45.7825467" lon="8.80988"><ele>321.5</ele><time>2026-04-05T14:37:28.821Z</time></trkpt><trkpt lat="45.7824167" lon="8.8098017"><ele>321.25</ele><time>2026-04-05T14:37:29.821Z</time></trkpt><trkpt lat="45.78228" lon="8.8097267"><ele>321.0</ele><time>2026-04-05T14:37:30.821Z</time></trkpt><trkpt lat="45.7821433" lon="8.809655"><ele>321.0</ele><time>2026-04-05T14:37:31.822Z</time></trkpt><trkpt lat="45.782" lon="8.8095783"><ele>321.0</ele><time>2026-04-05T14:37:32.821Z</time></trkpt><trkpt lat="45.781865" lon="8.809505"><ele>321.0</ele><time>2026-04-05T14:37:33.821Z</time></trkpt><trkpt lat="45.781735" lon="8.80944"><ele>321.0</ele><time>2026-04-05T14:37:34.821Z</time></trkpt><trkpt lat="45.7816" lon="8.80937"><ele>321.0</ele><time>2026-04-05T14:37:35.822Z</time></trkpt><trkpt lat="45.78146" lon="8.809295"><ele>321.0</ele><time>2026-04-05T14:37:36.821Z</time></trkpt><trkpt lat="45.7813233" lon="8.8092167"><ele>321.0</ele><time>2026-04-05T14:37:37.821Z</time></trkpt><trkpt lat="45.7811783" lon="8.8091583"><ele>321.0</ele><time>2026-04-05T14:37:38.821Z</time></trkpt><trkpt lat="45.7810417" lon="8.8090883"><ele>320.75</ele><time>2026-04-05T14:37:39.822Z</time></trkpt><trkpt lat="45.780905" lon="8.809035"><ele>320.5</ele><time>2026-04-05T14:37:40.822Z</time></trkpt><trkpt lat="45.7807717" lon="8.8089983"><ele>320.25</ele><time>2026-04-05T14:37:41.821Z</time></trkpt><trkpt lat="45.7806383" lon="8.8089583"><ele>320.0</ele><time>2026-04-05T14:37:42.821Z</time></trkpt><trkpt lat="45.7805017" lon="8.8089283"><ele>320.0</ele><time>2026-04-05T14:37:43.821Z</time></trkpt><trkpt lat="45.7803583" lon="8.808895"><ele>320.0</ele><time>2026-04-05T14:37:44.821Z</time></trkpt><trkpt lat="45.780215" lon="8.8088783"><ele>320.0</ele><time>2026-04-05T14:37:45.821Z</time></trkpt><trkpt lat="45.7800683" lon="8.808865"><ele>320.0</ele><time>2026-04-05T14:37:46.821Z</time></trkpt><trkpt lat="45.77993" lon="8.808865"><ele>320.0</ele><time>2026-04-05T14:37:47.822Z</time></trkpt><trkpt lat="45.7797783" lon="8.8088633"><ele>320.0</ele><time>2026-04-05T14:37:48.821Z</time></trkpt><trkpt lat="45.7796317" lon="8.8088683"><ele>320.0</ele><time>2026-04-05T14:37:49.821Z</time></trkpt><trkpt lat="45.779495" lon="8.8088717"><ele>320.0</ele><time>2026-04-05T14:37:50.822Z</time></trkpt><trkpt lat="45.7793683" lon="8.8088833"><ele>320.25</ele><time>2026-04-05T14:37:51.821Z</time></trkpt><trkpt lat="45.7792383" lon="8.80891"><ele>320.5</ele><time>2026-04-05T14:37:52.822Z</time></trkpt><trkpt lat="45.7791017" lon="8.80895"><ele>320.75</ele><time>2026-04-05T14:37:53.821Z</time></trkpt><trkpt lat="45.7789617" lon="8.80899"><ele>321.0</ele><time>2026-04-05T14:37:54.822Z</time></trkpt><trkpt lat="45.7788167" lon="8.80903"><ele>321.0</ele><time>2026-04-05T14:37:55.822Z</time></trkpt><trkpt lat="45.778685" lon="8.80907"><ele>321.0</ele><time>2026-04-05T14:37:56.822Z</time></trkpt><trkpt lat="45.7785567" lon="8.8091183"><ele>321.0</ele><time>2026-04-05T14:37:57.822Z</time></trkpt><trkpt lat="45.7784333" lon="8.809165"><ele>321.0</ele><time>2026-04-05T14:37:58.822Z</time></trkpt><trkpt lat="45.7783067" lon="8.80921"><ele>322.0</ele><time>2026-04-05T14:37:59.821Z</time></trkpt><trkpt lat="45.778175" lon="8.809255"><ele>323.0</ele><time>2026-04-05T14:38:00.821Z</time></trkpt><trkpt lat="45.77804" lon="8.8092933"><ele>324.0</ele><time>2026-04-05T14:38:01.821Z</time></trkpt><trkpt lat="45.777915" lon="8.8093333"><ele>325.0</ele><time>2026-04-05T14:38:02.822Z</time></trkpt><trkpt lat="45.7777917" lon="8.8093783"><ele>326.75</ele><time>2026-04-05T14:38:03.822Z</time></trkpt><trkpt lat="45.7776667" lon="8.8094217"><ele>328.5</ele><time>2026-04-05T14:38:04.821Z</time></trkpt><trkpt lat="45.7775317" lon="8.8094633"><ele>330.25</ele><time>2026-04-05T14:38:05.822Z</time></trkpt><trkpt lat="45.7774033" lon="8.8095017"><ele>332.0</ele><time>2026-04-05T14:38:06.822Z</time></trkpt><trkpt lat="45.777285" lon="8.8095367"><ele>332.0</ele><time>2026-04-05T14:38:07.821Z</time></trkpt><trkpt lat="45.7771517" lon="8.80957"><ele>332.0</ele><time>2026-04-05T14:38:08.822Z</time></trkpt><trkpt lat="45.77702" lon="8.8096033"><ele>332.0</ele><time>2026-04-05T14:38:09.821Z</time></trkpt><trkpt lat="45.7769117" lon="8.8096383"><ele>332.0</ele><time>2026-04-05T14:38:10.821Z</time></trkpt><trkpt lat="45.7768117" lon="8.8096717"><ele>333.75</ele><time>2026-04-05T14:38:11.822Z</time></trkpt><trkpt lat="45.7766917" lon="8.8097033"><ele>335.5</ele><time>2026-04-05T14:38:12.821Z</time></trkpt><trkpt lat="45.7765683" lon="8.80975"><ele>337.25</ele><time>2026-04-05T14:38:13.821Z</time></trkpt><trkpt lat="45.7764433" lon="8.8097933"><ele>339.0</ele><time>2026-04-05T14:38:14.821Z</time></trkpt><trkpt lat="45.7763267" lon="8.8098467"><ele>339.0</ele><time>2026-04-05T14:38:15.821Z</time></trkpt><trkpt lat="45.7762033" lon="8.809895"><ele>339.0</ele><time>2026-04-05T14:38:16.822Z</time></trkpt><trkpt lat="45.77608" lon="8.80993"><ele>339.0</ele><time>2026-04-05T14:38:17.821Z</time></trkpt><trkpt lat="45.7759567" lon="8.8099817"><ele>339.0</ele><time>2026-04-05T14:38:18.821Z</time></trkpt><trkpt lat="45.7758267" lon="8.8100233"><ele>341.75</ele><time>2026-04-05T14:38:19.821Z</time></trkpt><trkpt lat="45.775685" lon="8.8100683"><ele>344.5</ele><time>2026-04-05T14:38:20.821Z</time></trkpt><trkpt lat="45.775545" lon="8.810115"><ele>347.25</ele><time>2026-04-05T14:38:21.821Z</time></trkpt><trkpt lat="45.7754183" lon="8.81016"><ele>350.0</ele><time>2026-04-05T14:38:22.821Z</time></trkpt><trkpt lat="45.7752967" lon="8.8102017"><ele>351.0</ele><time>2026-04-05T14:38:23.821Z</time></trkpt><trkpt lat="45.775175" lon="8.8102367"><ele>352.0</ele><time>2026-04-05T14:38:24.822Z</time></trkpt><trkpt lat="45.7750583" lon="8.8102767"><ele>353.0</ele><time>2026-04-05T14:38:25.821Z</time></trkpt><trkpt lat="45.7749317" lon="8.81032"><ele>354.0</ele><time>2026-04-05T14:38:26.821Z</time></trkpt><trkpt lat="45.7747967" lon="8.810365"><ele>354.0</ele><time>2026-04-05T14:38:27.822Z</time></trkpt><trkpt lat="45.7746533" lon="8.8104133"><ele>354.0</ele><time>2026-04-05T14:38:28.822Z</time></trkpt><trkpt lat="45.7745167" lon="8.8104683"><ele>354.0</ele><time>2026-04-05T14:38:29.821Z</time></trkpt><trkpt lat="45.77438" lon="8.810535"><ele>354.0</ele><time>2026-04-05T14:38:30.821Z</time></trkpt><trkpt lat="45.7742467" lon="8.8106133"><ele>354.0</ele><time>2026-04-05T14:38:31.821Z</time></trkpt><trkpt lat="45.774125" lon="8.8106883"><ele>354.0</ele><time>2026-04-05T14:38:32.822Z</time></trkpt><trkpt lat="45.7740133" lon="8.81077"><ele>354.0</ele><time>2026-04-05T14:38:33.822Z</time></trkpt><trkpt lat="45.7739033" lon="8.8108633"><ele>354.0</ele><time>2026-04-05T14:38:34.821Z</time></trkpt><trkpt lat="45.7737933" lon="8.810975"><ele>354.0</ele><time>2026-04-05T14:38:35.821Z</time></trkpt><trkpt lat="45.7736817" lon="8.8111017"><ele>354.0</ele><time>2026-04-05T14:38:36.821Z</time></trkpt><trkpt lat="45.7735583" lon="8.8112583"><ele>354.0</ele><time>2026-04-05T14:38:37.822Z</time></trkpt><trkpt lat="45.77343" lon="8.8114367"><ele>352.3333333333333</ele><time>2026-04-05T14:38:38.821Z</time></trkpt><trkpt lat="45.7732967" lon="8.8116317"><ele>350.66666666666663</ele><time>2026-04-05T14:38:39.821Z</time></trkpt><trkpt lat="45.7731883" lon="8.811865"><ele>349.0</ele><time>2026-04-05T14:38:40.821Z</time></trkpt><trkpt lat="45.7730883" lon="8.81211"><ele>348.3333333333333</ele><time>2026-04-05T14:38:41.822Z</time></trkpt><trkpt lat="45.7730017" lon="8.8123717"><ele>347.6666666666667</ele><time>2026-04-05T14:38:42.821Z</time></trkpt><trkpt lat="45.7729217" lon="8.8126433"><ele>347.0</ele><time>2026-04-05T14:38:43.821Z</time></trkpt><trkpt lat="45.772845" lon="8.8129283"><ele>347.33333333333337</ele><time>2026-04-05T14:38:44.821Z</time></trkpt><trkpt lat="45.7727667" lon="8.8132"><ele>347.6666666666667</ele><time>2026-04-05T14:38:45.821Z</time></trkpt><trkpt lat="45.7726917" lon="8.8134867"><ele>348.0</ele><time>2026-04-05T14:38:46.821Z</time></trkpt><trkpt lat="45.7726167" lon="8.813765"><ele>348.0</ele><time>2026-04-05T14:38:47.822Z</time></trkpt><trkpt lat="45.7725417" lon="8.8140483"><ele>348.0</ele><time>2026-04-05T14:38:48.821Z</time></trkpt><trkpt lat="45.7724717" lon="8.8143267"><ele>348.0</ele><time>2026-04-05T14:38:49.821Z</time></trkpt><trkpt lat="45.772395" lon="8.8146217"><ele>348.5</ele><time>2026-04-05T14:38:50.821Z</time></trkpt><trkpt lat="45.7723183" lon="8.814935"><ele>349.0</ele><time>2026-04-05T14:38:51.821Z</time></trkpt><trkpt lat="45.7722267" lon="8.8152533"><ele>349.0</ele><time>2026-04-05T14:38:52.821Z</time></trkpt><trkpt lat="45.7721267" lon="8.8155817"><ele>349.0</ele><time>2026-04-05T14:38:53.821Z</time></trkpt><trkpt lat="45.7720233" lon="8.8159183"><ele>348.5</ele><time>2026-04-05T14:38:54.821Z</time></trkpt><trkpt lat="45.77191" lon="8.8162583"><ele>348.0</ele><time>2026-04-05T14:38:55.822Z</time></trkpt><trkpt lat="45.7717967" lon="8.8165917"><ele>348.5</ele><time>2026-04-05T14:38:56.822Z</time></trkpt><trkpt lat="45.7716967" lon="8.81691"><ele>349.0</ele><time>2026-04-05T14:38:57.822Z</time></trkpt><trkpt lat="45.7715983" lon="8.8172233"><ele>349.0</ele><time>2026-04-05T14:38:58.821Z</time></trkpt><trkpt lat="45.771505" lon="8.8175333"><ele>349.0</ele><time>2026-04-05T14:38:59.821Z</time></trkpt><trkpt lat="45.7714117" lon="8.8178617"><ele>348.5</ele><time>2026-04-05T14:39:00.822Z</time></trkpt><trkpt lat="45.7713217" lon="8.8181833"><ele>348.0</ele><time>2026-04-05T14:39:01.821Z</time></trkpt><trkpt lat="45.7712367" lon="8.8184933"><ele>349.0</ele><time>2026-04-05T14:39:02.821Z</time></trkpt><trkpt lat="45.7711533" lon="8.8187867"><ele>350.0</ele><time>2026-04-05T14:39:03.821Z</time></trkpt><trkpt lat="45.771085" lon="8.81904"><ele>351.0</ele><time>2026-04-05T14:39:04.821Z</time></trkpt><trkpt lat="45.7710167" lon="8.8192717"><ele>352.3333333333333</ele><time>2026-04-05T14:39:05.821Z</time></trkpt><trkpt lat="45.7709667" lon="8.8194917"><ele>353.66666666666663</ele><time>2026-04-05T14:39:06.821Z</time></trkpt><trkpt lat="45.770915" lon="8.8196967"><ele>355.0</ele><time>2026-04-05T14:39:07.821Z</time></trkpt><trkpt lat="45.7708583" lon="8.8198967"><ele>355.0</ele><time>2026-04-05T14:39:08.821Z</time></trkpt><trkpt lat="45.770805" lon="8.82009"><ele>355.0</ele><time>2026-04-05T14:39:09.821Z</time></trkpt><trkpt lat="45.7707567" lon="8.8202933"><ele>355.0</ele><time>2026-04-05T14:39:10.821Z</time></trkpt><trkpt lat="45.7706783" lon="8.8205267"><ele>355.0</ele><time>2026-04-05T14:39:11.821Z</time></trkpt><trkpt lat="45.7705883" lon="8.8207583"><ele>355.0</ele><time>2026-04-05T14:39:12.822Z</time></trkpt><trkpt lat="45.7704833" lon="8.8209733"><ele>355.0</ele><time>2026-04-05T14:39:13.821Z</time></trkpt><trkpt lat="45.7703667" lon="8.8211767"><ele>356.0</ele><time>2026-04-05T14:39:14.821Z</time></trkpt><trkpt lat="45.7702433" lon="8.821365"><ele>357.0</ele><time>2026-04-05T14:39:15.821Z</time></trkpt><trkpt lat="45.7701283" lon="8.8215433"><ele>358.0</ele><time>2026-04-05T14:39:16.821Z</time></trkpt><trkpt lat="45.7700267" lon="8.8217117"><ele>358.0</ele><time>2026-04-05T14:39:17.821Z</time></trkpt><trkpt lat="45.7699433" lon="8.8218717"><ele>358.0</ele><time>2026-04-05T14:39:18.821Z</time></trkpt><trkpt lat="45.7698883" lon="8.8220383"><ele>358.0</ele><time>2026-04-05T14:39:19.822Z</time></trkpt><trkpt lat="45.7698467" lon="8.8222183"><ele>358.0</ele><time>2026-04-05T14:39:20.821Z</time></trkpt><trkpt lat="45.7698183" lon="8.8224083"><ele>358.0</ele><time>2026-04-05T14:39:21.821Z</time></trkpt><trkpt lat="45.769825" lon="8.8226083"><ele>358.0</ele><time>2026-04-05T14:39:22.821Z</time></trkpt><trkpt lat="45.769855" lon="8.822795"><ele>358.0</ele><time>2026-04-05T14:39:23.821Z</time></trkpt><trkpt lat="45.76991" lon="8.822955"><ele>358.0</ele><time>2026-04-05T14:39:24.821Z</time></trkpt><trkpt lat="45.76998" lon="8.8230933"><ele>359.0</ele><time>2026-04-05T14:39:25.821Z</time></trkpt><trkpt lat="45.7700617" lon="8.8232083"><ele>360.0</ele><time>2026-04-05T14:39:26.821Z</time></trkpt><trkpt lat="45.7701433" lon="8.823315"><ele>361.0</ele><time>2026-04-05T14:39:27.822Z</time></trkpt><trkpt lat="45.7702317" lon="8.8234233"><ele>362.0</ele><time>2026-04-05T14:39:28.821Z</time></trkpt><trkpt lat="45.7703417" lon="8.823535"><ele>363.6666666666667</ele><time>2026-04-05T14:39:29.821Z</time></trkpt><trkpt lat="45.770435" lon="8.8236517"><ele>365.3333333333333</ele><time>2026-04-05T14:39:30.821Z</time></trkpt><trkpt lat="45.7705867" lon="8.8238433"><ele>367.0</ele><time>2026-04-05T14:39:31.821Z</time></trkpt><trkpt lat="45.7707483" lon="8.824035"><ele>367.0</ele><time>2026-04-05T14:39:32.821Z</time></trkpt><trkpt lat="45.7709183" lon="8.8242183"><ele>367.0</ele><time>2026-04-05T14:39:33.821Z</time></trkpt><trkpt lat="45.7710817" lon="8.8243917"><ele>367.0</ele><time>2026-04-05T14:39:34.821Z</time></trkpt><trkpt lat="45.7712467" lon="8.824545"><ele>367.0</ele><time>2026-04-05T14:39:35.822Z</time></trkpt><trkpt lat="45.7714017" lon="8.8246867"><ele>367.0</ele><time>2026-04-05T14:39:36.821Z</time></trkpt><trkpt lat="45.7715433" lon="8.8248217"><ele>367.0</ele><time>2026-04-05T14:39:37.821Z</time></trkpt><trkpt lat="45.7716883" lon="8.8249583"><ele>367.0</ele><time>2026-04-05T14:39:38.821Z</time></trkpt><trkpt lat="45.77182" lon="8.8250983"><ele>367.0</ele><time>2026-04-05T14:39:39.822Z</time></trkpt><trkpt lat="45.7719483" lon="8.8252383"><ele>367.0</ele><time>2026-04-05T14:39:40.821Z</time></trkpt><trkpt lat="45.7720733" lon="8.8253733"><ele>367.5</ele><time>2026-04-05T14:39:41.821Z</time></trkpt><trkpt lat="45.7721983" lon="8.8255017"><ele>368.0</ele><time>2026-04-05T14:39:42.821Z</time></trkpt><trkpt lat="45.77232" lon="8.82562"><ele>368.5</ele><time>2026-04-05T14:39:43.821Z</time></trkpt><trkpt lat="45.7724317" lon="8.8257333"><ele>369.0</ele><time>2026-04-05T14:39:44.821Z</time></trkpt><trkpt lat="45.772535" lon="8.8258367"><ele>369.0</ele><time>2026-04-05T14:39:45.821Z</time></trkpt><trkpt lat="45.7726283" lon="8.8259333"><ele>369.0</ele><time>2026-04-05T14:39:46.821Z</time></trkpt><trkpt lat="45.77271" lon="8.8260217"><ele>369.0</ele><time>2026-04-05T14:39:47.821Z</time></trkpt><trkpt lat="45.7727917" lon="8.8261067"><ele>369.0</ele><time>2026-04-05T14:39:48.821Z</time></trkpt><trkpt lat="45.7728683" lon="8.8261883"><ele>369.0</ele><time>2026-04-05T14:39:49.821Z</time></trkpt><trkpt lat="45.7729367" lon="8.826265"><ele>369.5</ele><time>2026-04-05T14:39:50.821Z</time></trkpt><trkpt lat="45.7730033" lon="8.8263417"><ele>370.0</ele><time>2026-04-05T14:39:51.821Z</time></trkpt><trkpt lat="45.7730733" lon="8.8264167"><ele>370.5</ele><time>2026-04-05T14:39:52.822Z</time></trkpt><trkpt lat="45.77314" lon="8.8265"><ele>371.0</ele><time>2026-04-05T14:39:53.821Z</time></trkpt><trkpt lat="45.7731967" lon="8.8266017"><ele>371.5</ele><time>2026-04-05T14:39:54.821Z</time></trkpt><trkpt lat="45.77323" lon="8.8266983"><ele>372.0</ele><time>2026-04-05T14:39:55.822Z</time></trkpt><trkpt lat="45.7732417" lon="8.8267983"><ele>372.1666666666667</ele><time>2026-04-05T14:39:56.822Z</time></trkpt><trkpt lat="45.7732567" lon="8.8269"><ele>372.3333333333333</ele><time>2026-04-05T14:39:57.821Z</time></trkpt><trkpt lat="45.773285" lon="8.827"><ele>372.5</ele><time>2026-04-05T14:39:58.821Z</time></trkpt><trkpt lat="45.7733383" lon="8.8270917"><ele>372.66666666666663</ele><time>2026-04-05T14:39:59.821Z</time></trkpt><trkpt lat="45.7734217" lon="8.8271383"><ele>372.8333333333333</ele><time>2026-04-05T14:40:00.821Z</time></trkpt><trkpt lat="45.77352" lon="8.8271417"><ele>373.0</ele><time>2026-04-05T14:40:01.821Z</time></trkpt><trkpt lat="45.7736317" lon="8.8271467"><ele>373.0</ele><time>2026-04-05T14:40:02.821Z</time></trkpt><trkpt lat="45.77374" lon="8.8271883"><ele>373.0</ele><time>2026-04-05T14:40:03.821Z</time></trkpt><trkpt lat="45.7738567" lon="8.8272517"><ele>373.0</ele><time>2026-04-05T14:40:04.821Z</time></trkpt><trkpt lat="45.7739717" lon="8.8273383"><ele>373.0</ele><time>2026-04-05T14:40:05.821Z</time></trkpt><trkpt lat="45.7741017" lon="8.8274533"><ele>373.0</ele><time>2026-04-05T14:40:06.822Z</time></trkpt><trkpt lat="45.7742283" lon="8.8275867"><ele>373.0</ele><time>2026-04-05T14:40:07.821Z</time></trkpt><trkpt lat="45.7743617" lon="8.8277217"><ele>373.0</ele><time>2026-04-05T14:40:08.821Z</time></trkpt><trkpt lat="45.774515" lon="8.8278683"><ele>373.0</ele><time>2026-04-05T14:40:09.821Z</time></trkpt><trkpt lat="45.7746767" lon="8.828035"><ele>373.0</ele><time>2026-04-05T14:40:10.822Z</time></trkpt><trkpt lat="45.7748533" lon="8.828215"><ele>373.0</ele><time>2026-04-05T14:40:11.821Z</time></trkpt><trkpt lat="45.7750433" lon="8.8284083"><ele>371.5</ele><time>2026-04-05T14:40:12.821Z</time></trkpt><trkpt lat="45.77524" lon="8.8286183"><ele>370.0</ele><time>2026-04-05T14:40:13.821Z</time></trkpt><trkpt lat="45.775445" lon="8.828835"><ele>370.0</ele><time>2026-04-05T14:40:14.821Z</time></trkpt><trkpt lat="45.7756583" lon="8.82906"><ele>370.0</ele><time>2026-04-05T14:40:15.821Z</time></trkpt><trkpt lat="45.77588" lon="8.8292883"><ele>370.0</ele><time>2026-04-05T14:40:16.821Z</time></trkpt><trkpt lat="45.77611" lon="8.8295217"><ele>370.0</ele><time>2026-04-05T14:40:17.822Z</time></trkpt><trkpt lat="45.776335" lon="8.829745"><ele>370.0</ele><time>2026-04-05T14:40:18.821Z</time></trkpt><trkpt lat="45.7765433" lon="8.82996"><ele>370.0</ele><time>2026-04-05T14:40:19.821Z</time></trkpt><trkpt lat="45.7767567" lon="8.83018"><ele>371.0</ele><time>2026-04-05T14:40:20.822Z</time></trkpt><trkpt lat="45.776965" lon="8.8303967"><ele>372.0</ele><time>2026-04-05T14:40:21.822Z</time></trkpt><trkpt lat="45.7771617" lon="8.830605"><ele>372.0</ele><time>2026-04-05T14:40:22.821Z</time></trkpt><trkpt lat="45.7773417" lon="8.830815"><ele>372.0</ele><time>2026-04-05T14:40:23.822Z</time></trkpt><trkpt lat="45.7775117" lon="8.8310283"><ele>372.0</ele><time>2026-04-05T14:40:24.821Z</time></trkpt><trkpt lat="45.77768" lon="8.8312567"><ele>372.0</ele><time>2026-04-05T14:40:25.821Z</time></trkpt><trkpt lat="45.7778433" lon="8.8314967"><ele>371.5</ele><time>2026-04-05T14:40:26.821Z</time></trkpt><trkpt lat="45.778005" lon="8.8317733"><ele>371.0</ele><time>2026-04-05T14:40:27.821Z</time></trkpt><trkpt lat="45.778165" lon="8.83208"><ele>371.0</ele><time>2026-04-05T14:40:28.822Z</time></trkpt><trkpt lat="45.77831" lon="8.832415"><ele>371.0</ele><time>2026-04-05T14:40:29.822Z</time></trkpt><trkpt lat="45.7784333" lon="8.83277"><ele>375.0</ele><time>2026-04-05T14:40:30.821Z</time></trkpt><trkpt lat="45.778535" lon="8.83312"><ele>379.0</ele><time>2026-04-05T14:40:31.821Z</time></trkpt><trkpt lat="45.7786233" lon="8.8334767"><ele>379.5</ele><time>2026-04-05T14:40:32.821Z</time></trkpt><trkpt lat="45.778695" lon="8.8338333"><ele>380.0</ele><time>2026-04-05T14:40:33.821Z</time></trkpt><trkpt lat="45.778745" lon="8.8342017"><ele>380.5</ele><time>2026-04-05T14:40:34.821Z</time></trkpt><trkpt lat="45.778775" lon="8.8345733"><ele>381.0</ele><time>2026-04-05T14:40:35.822Z</time></trkpt><trkpt lat="45.778785" lon="8.8349367"><ele>382.5</ele><time>2026-04-05T14:40:36.821Z</time></trkpt><trkpt lat="45.77879" lon="8.83529"><ele>384.0</ele><time>2026-04-05T14:40:37.822Z</time></trkpt><trkpt lat="45.7787817" lon="8.83562"><ele>384.0</ele><time>2026-04-05T14:40:38.821Z</time></trkpt><trkpt lat="45.7787583" lon="8.835945"><ele>384.0</ele><time>2026-04-05T14:40:39.821Z</time></trkpt><trkpt lat="45.7787217" lon="8.83624"><ele>384.0</ele><time>2026-04-05T14:40:40.821Z</time></trkpt><trkpt lat="45.77867" lon="8.8365433"><ele>383.5</ele><time>2026-04-05T14:40:41.821Z</time></trkpt><trkpt lat="45.77861" lon="8.8368517"><ele>383.0</ele><time>2026-04-05T14:40:42.822Z</time></trkpt><trkpt lat="45.7785483" lon="8.8371717"><ele>379.0</ele><time>2026-04-05T14:40:43.821Z</time></trkpt><trkpt lat="45.7784833" lon="8.8374883"><ele>375.0</ele><time>2026-04-05T14:40:44.821Z</time></trkpt><trkpt lat="45.7784117" lon="8.8378033"><ele>374.5</ele><time>2026-04-05T14:40:45.821Z</time></trkpt><trkpt lat="45.7783367" lon="8.8381133"><ele>374.0</ele><time>2026-04-05T14:40:46.821Z</time></trkpt><trkpt lat="45.778265" lon="8.838415"><ele>373.0</ele><time>2026-04-05T14:40:47.821Z</time></trkpt><trkpt lat="45.7782" lon="8.838705"><ele>372.0</ele><time>2026-04-05T14:40:48.822Z</time></trkpt><trkpt lat="45.778135" lon="8.8389883"><ele>371.0</ele><time>2026-04-05T14:40:49.822Z</time></trkpt><trkpt lat="45.778065" lon="8.8392633"><ele>370.33333333333337</ele><time>2026-04-05T14:40:50.821Z</time></trkpt><trkpt lat="45.7780083" lon="8.8395433"><ele>369.6666666666667</ele><time>2026-04-05T14:40:51.821Z</time></trkpt><trkpt lat="45.777955" lon="8.839825"><ele>369.0</ele><time>2026-04-05T14:40:52.821Z</time></trkpt><trkpt lat="45.777905" lon="8.840125"><ele>368.5</ele><time>2026-04-05T14:40:53.821Z</time></trkpt><trkpt lat="45.777835" lon="8.8404383"><ele>368.0</ele><time>2026-04-05T14:40:54.821Z</time></trkpt><trkpt lat="45.7777633" lon="8.8407467"><ele>368.0</ele><time>2026-04-05T14:40:55.821Z</time></trkpt><trkpt lat="45.7776933" lon="8.841045"><ele>368.0</ele><time>2026-04-05T14:40:56.821Z</time></trkpt><trkpt lat="45.77762" lon="8.841365"><ele>367.5</ele><time>2026-04-05T14:40:57.821Z</time></trkpt><trkpt lat="45.7775467" lon="8.8417017"><ele>367.0</ele><time>2026-04-05T14:40:58.821Z</time></trkpt><trkpt lat="45.777469" lon="8.8420366"><ele>367.0</ele><time>2026-04-05T14:40:59.821Z</time></trkpt><trkpt lat="45.7773783" lon="8.8423558"><ele>367.0</ele><time>2026-04-05T14:41:00.821Z</time></trkpt><trkpt lat="45.777275" lon="8.8426488"><ele>365.5</ele><time>2026-04-05T14:41:01.821Z</time></trkpt><trkpt lat="45.7771567" lon="8.8429223"><ele>364.0</ele><time>2026-04-05T14:41:02.821Z</time></trkpt><trkpt lat="45.7770275" lon="8.8431874"><ele>364.0</ele><time>2026-04-05T14:41:03.821Z</time></trkpt><trkpt lat="45.7768793" lon="8.843446"><ele>364.0</ele><time>2026-04-05T14:41:04.821Z</time></trkpt><trkpt lat="45.7767228" lon="8.8436941"><ele>362.0</ele><time>2026-04-05T14:41:05.821Z</time></trkpt><trkpt lat="45.7765257" lon="8.843921"><ele>360.0</ele><time>2026-04-05T14:41:06.822Z</time></trkpt><trkpt lat="45.7763151" lon="8.84414"><ele>359.0</ele><time>2026-04-05T14:41:07.821Z</time></trkpt><trkpt lat="45.7760939" lon="8.8443642"><ele>358.0</ele><time>2026-04-05T14:41:08.821Z</time></trkpt><trkpt lat="45.7758656" lon="8.844582"><ele>358.0</ele><time>2026-04-05T14:41:09.822Z</time></trkpt><trkpt lat="45.7756414" lon="8.844799"><ele>358.0</ele><time>2026-04-05T14:41:10.821Z</time></trkpt><trkpt lat="45.7754265" lon="8.8450186"><ele>357.5</ele><time>2026-04-05T14:41:11.821Z</time></trkpt><trkpt lat="45.7752092" lon="8.8452409"><ele>357.0</ele><time>2026-04-05T14:41:12.821Z</time></trkpt><trkpt lat="45.7749919" lon="8.8454676"><ele>357.0</ele><time>2026-04-05T14:41:13.821Z</time></trkpt><trkpt lat="45.7747739" lon="8.8456968"><ele>357.0</ele><time>2026-04-05T14:41:14.821Z</time></trkpt><trkpt lat="45.7745511" lon="8.8459233"><ele>356.5</ele><time>2026-04-05T14:41:15.821Z</time></trkpt><trkpt lat="45.7743357" lon="8.8461339"><ele>356.0</ele><time>2026-04-05T14:41:16.822Z</time></trkpt><trkpt lat="45.7741236" lon="8.8463504"><ele>356.0</ele><time>2026-04-05T14:41:17.822Z</time></trkpt><trkpt lat="45.7739276" lon="8.846553"><ele>356.0</ele><time>2026-04-05T14:41:18.821Z</time></trkpt><trkpt lat="45.7737397" lon="8.8467506"><ele>356.0</ele><time>2026-04-05T14:41:19.821Z</time></trkpt><trkpt lat="45.7735604" lon="8.8469397"><ele>356.0</ele><time>2026-04-05T14:41:20.822Z</time></trkpt><trkpt lat="45.7734012" lon="8.8471336"><ele>356.0</ele><time>2026-04-05T14:41:21.822Z</time></trkpt><trkpt lat="45.7732641" lon="8.8473324"><ele>351.6666666666667</ele><time>2026-04-05T14:41:22.82Z</time></trkpt><trkpt lat="45.7731431" lon="8.8475731"><ele>347.3333333333333</ele><time>2026-04-05T14:41:23.821Z</time></trkpt><trkpt lat="45.773036" lon="8.8478456"><ele>343.0</ele><time>2026-04-05T14:41:24.821Z</time></trkpt><trkpt lat="45.7729375" lon="8.8481353"><ele>342.3333333333333</ele><time>2026-04-05T14:41:25.821Z</time></trkpt><trkpt lat="45.7728589" lon="8.8484255"><ele>341.6666666666667</ele><time>2026-04-05T14:41:26.82Z</time></trkpt><trkpt lat="45.7727998" lon="8.8487226"><ele>341.0</ele><time>2026-04-05T14:41:27.82Z</time></trkpt><trkpt lat="45.7727547" lon="8.8490252"><ele>340.0</ele><time>2026-04-05T14:41:28.82Z</time></trkpt><trkpt lat="45.7727445" lon="8.8493388"><ele>339.0</ele><time>2026-04-05T14:41:29.82Z</time></trkpt><trkpt lat="45.7727579" lon="8.8496694"><ele>339.0</ele><time>2026-04-05T14:41:30.82Z</time></trkpt><trkpt lat="45.77278" lon="8.8500121"><ele>339.0</ele><time>2026-04-05T14:41:31.82Z</time></trkpt><trkpt lat="45.7728086" lon="8.8503538"><ele>336.5</ele><time>2026-04-05T14:41:32.82Z</time></trkpt><trkpt lat="45.7728302" lon="8.8506847"><ele>334.0</ele><time>2026-04-05T14:41:33.821Z</time></trkpt><trkpt lat="45.7728537" lon="8.8510055"><ele>327.5</ele><time>2026-04-05T14:41:34.82Z</time></trkpt><trkpt lat="45.7728755" lon="8.8513285"><ele>321.0</ele><time>2026-04-05T14:41:35.82Z</time></trkpt><trkpt lat="45.7728951" lon="8.8516651"><ele>317.0</ele><time>2026-04-05T14:41:36.82Z</time></trkpt><trkpt lat="45.7729164" lon="8.852005"><ele>313.0</ele><time>2026-04-05T14:41:37.82Z</time></trkpt><trkpt lat="45.7729339" lon="8.852338"><ele>312.3333333333333</ele><time>2026-04-05T14:41:38.82Z</time></trkpt><trkpt lat="45.7729473" lon="8.8526645"><ele>311.6666666666667</ele><time>2026-04-05T14:41:39.82Z</time></trkpt><trkpt lat="45.7729475" lon="8.8529738"><ele>311.0</ele><time>2026-04-05T14:41:40.821Z</time></trkpt><trkpt lat="45.7729289" lon="8.853293"><ele>314.0</ele><time>2026-04-05T14:41:41.82Z</time></trkpt><trkpt lat="45.7728953" lon="8.8536237"><ele>317.0</ele><time>2026-04-05T14:41:42.82Z</time></trkpt><trkpt lat="45.7728601" lon="8.853973"><ele>318.5</ele><time>2026-04-05T14:41:43.82Z</time></trkpt><trkpt lat="45.772821" lon="8.8543364"><ele>320.0</ele><time>2026-04-05T14:41:44.82Z</time></trkpt><trkpt lat="45.7727792" lon="8.8546915"><ele>320.0</ele><time>2026-04-05T14:41:45.82Z</time></trkpt><trkpt lat="45.7727389" lon="8.855031"><ele>320.0</ele><time>2026-04-05T14:41:46.821Z</time></trkpt><trkpt lat="45.7727016" lon="8.8553568"><ele>314.33333333333337</ele><time>2026-04-05T14:41:47.821Z</time></trkpt><trkpt lat="45.7726662" lon="8.8556752"><ele>308.6666666666667</ele><time>2026-04-05T14:41:48.82Z</time></trkpt><trkpt lat="45.7726351" lon="8.8559769"><ele>303.0</ele><time>2026-04-05T14:41:49.82Z</time></trkpt><trkpt lat="45.7726044" lon="8.8562533"><ele>303.0</ele><time>2026-04-05T14:41:50.821Z</time></trkpt><trkpt lat="45.7725774" lon="8.8565101"><ele>303.0</ele><time>2026-04-05T14:41:51.82Z</time></trkpt><trkpt lat="45.7725509" lon="8.8567615"><ele>303.0</ele><time>2026-04-05T14:41:52.82Z</time></trkpt><trkpt lat="45.7725274" lon="8.8570128"><ele>302.6666666666667</ele><time>2026-04-05T14:41:53.82Z</time></trkpt><trkpt lat="45.7725056" lon="8.8572725"><ele>302.33333333333337</ele><time>2026-04-05T14:41:54.82Z</time></trkpt><trkpt lat="45.7724891" lon="8.8575461"><ele>302.0</ele><time>2026-04-05T14:41:55.821Z</time></trkpt><trkpt lat="45.7724723" lon="8.8578241"><ele>299.0</ele><time>2026-04-05T14:41:56.821Z</time></trkpt><trkpt lat="45.7724598" lon="8.8580909"><ele>296.0</ele><time>2026-04-05T14:41:57.82Z</time></trkpt><trkpt lat="45.772446" lon="8.8583525"><ele>293.0</ele><time>2026-04-05T14:41:58.82Z</time></trkpt><trkpt lat="45.7724287" lon="8.8586049"><ele>292.6666666666667</ele><time>2026-04-05T14:41:59.82Z</time></trkpt><trkpt lat="45.7724155" lon="8.858846"><ele>292.3333333333333</ele><time>2026-04-05T14:42:00.82Z</time></trkpt><trkpt lat="45.7724049" lon="8.8590782"><ele>292.0</ele><time>2026-04-05T14:42:01.82Z</time></trkpt><trkpt lat="45.7723968" lon="8.8592977"><ele>291.75</ele><time>2026-04-05T14:42:02.821Z</time></trkpt><trkpt lat="45.7723978" lon="8.8595112"><ele>291.5</ele><time>2026-04-05T14:42:03.82Z</time></trkpt><trkpt lat="45.7723982" lon="8.8597161"><ele>291.25</ele><time>2026-04-05T14:42:04.82Z</time></trkpt><trkpt lat="45.7723933" lon="8.8599117"><ele>291.0</ele><time>2026-04-05T14:42:05.82Z</time></trkpt><trkpt lat="45.7723933" lon="8.8600967"><ele>289.8</ele><time>2026-04-05T14:42:06.821Z</time></trkpt><trkpt lat="45.77241" lon="8.8602533"><ele>288.6</ele><time>2026-04-05T14:42:07.82Z</time></trkpt><trkpt lat="45.7724233" lon="8.8603983"><ele>287.4</ele><time>2026-04-05T14:42:08.82Z</time></trkpt><trkpt lat="45.7724383" lon="8.860515"><ele>286.2</ele><time>2026-04-05T14:42:09.821Z</time></trkpt><trkpt lat="45.772455" lon="8.8606133"><ele>285.0</ele><time>2026-04-05T14:42:10.82Z</time></trkpt><trkpt lat="45.772445" lon="8.86079"><ele>285.0</ele><time>2026-04-05T14:42:12.82Z</time></trkpt><trkpt lat="45.772415" lon="8.8608817"><ele>285.0</ele><time>2026-04-05T14:42:13.82Z</time></trkpt><trkpt lat="45.7723833" lon="8.8609783"><ele>285.0</ele><time>2026-04-05T14:42:14.82Z</time></trkpt><trkpt lat="45.7723733" lon="8.861095"><ele>285.0</ele><time>2026-04-05T14:42:15.82Z</time></trkpt><trkpt lat="45.7723917" lon="8.8612067"><ele>285.0</ele><time>2026-04-05T14:42:16.82Z</time></trkpt><trkpt lat="45.77245" lon="8.8612933"><ele>285.0</ele><time>2026-04-05T14:42:17.821Z</time></trkpt><trkpt lat="45.772535" lon="8.8613417"><ele>285.0</ele><time>2026-04-05T14:42:18.82Z</time></trkpt><trkpt lat="45.7726283" lon="8.8613867"><ele>285.0</ele><time>2026-04-05T14:42:19.82Z</time></trkpt><trkpt lat="45.772725" lon="8.8614583"><ele>285.0</ele><time>2026-04-05T14:42:20.821Z</time></trkpt><trkpt lat="45.7728083" lon="8.861565"><ele>285.0</ele><time>2026-04-05T14:42:21.82Z</time></trkpt><trkpt lat="45.7728917" lon="8.86169"><ele>285.0</ele><time>2026-04-05T14:42:22.82Z</time></trkpt><trkpt lat="45.772975" lon="8.8618317"><ele>284.75</ele><time>2026-04-05T14:42:23.82Z</time></trkpt><trkpt lat="45.7730467" lon="8.8619833"><ele>284.5</ele><time>2026-04-05T14:42:24.82Z</time></trkpt><trkpt lat="45.7731217" lon="8.8621517"><ele>284.25</ele><time>2026-04-05T14:42:25.82Z</time></trkpt><trkpt lat="45.7732017" lon="8.8623267"><ele>284.0</ele><time>2026-04-05T14:42:26.82Z</time></trkpt><trkpt lat="45.7732783" lon="8.86249"><ele>283.5</ele><time>2026-04-05T14:42:27.82Z</time></trkpt><trkpt lat="45.77334" lon="8.86265"><ele>283.0</ele><time>2026-04-05T14:42:28.82Z</time></trkpt><trkpt lat="45.773395" lon="8.862805"><ele>282.5</ele><time>2026-04-05T14:42:29.821Z</time></trkpt><trkpt lat="45.7734617" lon="8.862955"><ele>282.0</ele><time>2026-04-05T14:42:30.82Z</time></trkpt><trkpt lat="45.7735267" lon="8.8631"><ele>282.0</ele><time>2026-04-05T14:42:31.82Z</time></trkpt><trkpt lat="45.77359" lon="8.8632517"><ele>282.0</ele><time>2026-04-05T14:42:32.82Z</time></trkpt><trkpt lat="45.77365" lon="8.8634033"><ele>282.0</ele><time>2026-04-05T14:42:33.82Z</time></trkpt><trkpt lat="45.7736983" lon="8.8635367"><ele>282.0</ele><time>2026-04-05T14:42:34.82Z</time></trkpt><trkpt lat="45.7737433" lon="8.8636517"><ele>282.0</ele><time>2026-04-05T14:42:35.821Z</time></trkpt><trkpt lat="45.7737967" lon="8.8637483"><ele>281.4</ele><time>2026-04-05T14:42:36.82Z</time></trkpt><trkpt lat="45.7738467" lon="8.863855"><ele>280.79999999999995</ele><time>2026-04-05T14:42:37.82Z</time></trkpt><trkpt lat="45.7739017" lon="8.863975"><ele>280.2</ele><time>2026-04-05T14:42:38.82Z</time></trkpt><trkpt lat="45.77396" lon="8.8641"><ele>279.59999999999997</ele><time>2026-04-05T14:42:39.82Z</time></trkpt><trkpt lat="45.774025" lon="8.86422"><ele>279.0</ele><time>2026-04-05T14:42:40.82Z</time></trkpt><trkpt lat="45.774085" lon="8.8643417"><ele>278.71428571428567</ele><time>2026-04-05T14:42:41.82Z</time></trkpt><trkpt lat="45.77412" lon="8.864455"><ele>278.42857142857144</ele><time>2026-04-05T14:42:42.821Z</time></trkpt><trkpt lat="45.7741267" lon="8.8645533"><ele>278.1428571428571</ele><time>2026-04-05T14:42:43.82Z</time></trkpt><trkpt lat="45.774115" lon="8.864665"><ele>277.85714285714283</ele><time>2026-04-05T14:42:44.82Z</time></trkpt><trkpt lat="45.7740917" lon="8.864765"><ele>277.57142857142856</ele><time>2026-04-05T14:42:45.82Z</time></trkpt><trkpt lat="45.7740517" lon="8.8648383"><ele>277.2857142857143</ele><time>2026-04-05T14:42:46.821Z</time></trkpt><trkpt lat="45.7740067" lon="8.8649033"><ele>277.0</ele><time>2026-04-05T14:42:47.82Z</time></trkpt><trkpt lat="45.7739633" lon="8.8649883"><ele>277.0</ele><time>2026-04-05T14:42:48.82Z</time></trkpt><trkpt lat="45.77393" lon="8.8651033"><ele>277.0</ele><time>2026-04-05T14:42:49.82Z</time></trkpt><trkpt lat="45.7739333" lon="8.8652317"><ele>277.0</ele><time>2026-04-05T14:42:50.82Z</time></trkpt><trkpt lat="45.7739683" lon="8.8653667"><ele>277.0</ele><time>2026-04-05T14:42:51.82Z</time></trkpt><trkpt lat="45.7740183" lon="8.8654983"><ele>277.0</ele><time>2026-04-05T14:42:52.82Z</time></trkpt><trkpt lat="45.7740633" lon="8.8656083"><ele>277.0</ele><time>2026-04-05T14:42:53.82Z</time></trkpt><trkpt lat="45.7741283" lon="8.8657017"><ele>277.0</ele><time>2026-04-05T14:42:54.82Z</time></trkpt><trkpt lat="45.7742317" lon="8.8657667"><ele>277.0</ele><time>2026-04-05T14:42:55.82Z</time></trkpt><trkpt lat="45.7743467" lon="8.8658217"><ele>277.0</ele><time>2026-04-05T14:42:56.82Z</time></trkpt><trkpt lat="45.7744533" lon="8.8658867"><ele>277.0</ele><time>2026-04-05T14:42:57.82Z</time></trkpt><trkpt lat="45.774545" lon="8.86596"><ele>277.0</ele><time>2026-04-05T14:42:58.82Z</time></trkpt><trkpt lat="45.7746417" lon="8.866045"><ele>277.0</ele><time>2026-04-05T14:42:59.82Z</time></trkpt><trkpt lat="45.774735" lon="8.8661367"><ele>277.0</ele><time>2026-04-05T14:43:00.82Z</time></trkpt><trkpt lat="45.77483" lon="8.8662383"><ele>277.0</ele><time>2026-04-05T14:43:01.82Z</time></trkpt><trkpt lat="45.77494" lon="8.8663433"><ele>277.0</ele><time>2026-04-05T14:43:02.821Z</time></trkpt><trkpt lat="45.7750533" lon="8.8664517"><ele>277.0</ele><time>2026-04-05T14:43:03.82Z</time></trkpt><trkpt lat="45.77517" lon="8.8665717"><ele>277.0</ele><time>2026-04-05T14:43:04.82Z</time></trkpt><trkpt lat="45.77528" lon="8.8667017"><ele>277.0</ele><time>2026-04-05T14:43:05.821Z</time></trkpt><trkpt lat="45.7753867" lon="8.86685"><ele>277.5</ele><time>2026-04-05T14:43:06.821Z</time></trkpt><trkpt lat="45.7754733" lon="8.8670133"><ele>278.0</ele><time>2026-04-05T14:43:07.82Z</time></trkpt><trkpt lat="45.775555" lon="8.86718"><ele>278.5</ele><time>2026-04-05T14:43:08.821Z</time></trkpt><trkpt lat="45.7756233" lon="8.8673383"><ele>279.0</ele><time>2026-04-05T14:43:09.82Z</time></trkpt><trkpt lat="45.775695" lon="8.8674967"><ele>279.0</ele><time>2026-04-05T14:43:10.82Z</time></trkpt><trkpt lat="45.775765" lon="8.8676683"><ele>279.0</ele><time>2026-04-05T14:43:11.82Z</time></trkpt><trkpt lat="45.7758217" lon="8.8678417"><ele>279.0</ele><time>2026-04-05T14:43:12.82Z</time></trkpt><trkpt lat="45.775855" lon="8.8680017"><ele>279.0</ele><time>2026-04-05T14:43:13.82Z</time></trkpt><trkpt lat="45.7758783" lon="8.8681467"><ele>279.0</ele><time>2026-04-05T14:43:14.82Z</time></trkpt><trkpt lat="45.77589" lon="8.8682583"><ele>279.0</ele><time>2026-04-05T14:43:15.82Z</time></trkpt><trkpt lat="45.77591" lon="8.8684267"><ele>279.0</ele><time>2026-04-05T14:43:17.82Z</time></trkpt><trkpt lat="45.7759283" lon="8.8686017"><ele>279.0</ele><time>2026-04-05T14:43:19.82Z</time></trkpt><trkpt lat="45.7759317" lon="8.8687083"><ele>279.0</ele><time>2026-04-05T14:43:20.821Z</time></trkpt><trkpt lat="45.7759333" lon="8.8688067"><ele>279.1666666666667</ele><time>2026-04-05T14:43:21.82Z</time></trkpt><trkpt lat="45.77594" lon="8.8689"><ele>279.3333333333333</ele><time>2026-04-05T14:43:22.82Z</time></trkpt><trkpt lat="45.7759783" lon="8.869045"><ele>279.5</ele><time>2026-04-05T14:43:24.82Z</time></trkpt><trkpt lat="45.7760217" lon="8.8691117"><ele>279.66666666666663</ele><time>2026-04-05T14:43:26.82Z</time></trkpt><trkpt lat="45.7761067" lon="8.86918"><ele>279.8333333333333</ele><time>2026-04-05T14:43:29.82Z</time></trkpt><trkpt lat="45.7761567" lon="8.869315"><ele>280.0</ele><time>2026-04-05T14:43:31.82Z</time></trkpt><trkpt lat="45.776155" lon="8.869465"><ele>280.2</ele><time>2026-04-05T14:43:33.821Z</time></trkpt><trkpt lat="45.7761067" lon="8.8696133"><ele>280.4</ele><time>2026-04-05T14:43:35.82Z</time></trkpt><trkpt lat="45.7760717" lon="8.8697033"><ele>280.6</ele><time>2026-04-05T14:43:36.821Z</time></trkpt><trkpt lat="45.7760383" lon="8.86982"><ele>280.8</ele><time>2026-04-05T14:43:37.82Z</time></trkpt><trkpt lat="45.7760083" lon="8.869955"><ele>281.0</ele><time>2026-04-05T14:43:38.821Z</time></trkpt><trkpt lat="45.775995" lon="8.870095"><ele>281.40000000000003</ele><time>2026-04-05T14:43:39.82Z</time></trkpt><trkpt lat="45.7759833" lon="8.87022"><ele>281.8</ele><time>2026-04-05T14:43:40.821Z</time></trkpt><trkpt lat="45.77594" lon="8.8703317"><ele>282.20000000000005</ele><time>2026-04-05T14:43:41.82Z</time></trkpt><trkpt lat="45.7758667" lon="8.87046"><ele>282.6</ele><time>2026-04-05T14:43:42.821Z</time></trkpt><trkpt lat="45.775765" lon="8.8705817"><ele>283.0</ele><time>2026-04-05T14:43:43.82Z</time></trkpt><trkpt lat="45.7756533" lon="8.8707083"><ele>283.0</ele><time>2026-04-05T14:43:44.821Z</time></trkpt><trkpt lat="45.775525" lon="8.87085"><ele>283.0</ele><time>2026-04-05T14:43:45.82Z</time></trkpt><trkpt lat="45.7753867" lon="8.870975"><ele>283.0</ele><time>2026-04-05T14:43:46.82Z</time></trkpt><trkpt lat="45.7752567" lon="8.8710933"><ele>283.75</ele><time>2026-04-05T14:43:47.821Z</time></trkpt><trkpt lat="45.7751333" lon="8.871205"><ele>284.5</ele><time>2026-04-05T14:43:48.821Z</time></trkpt><trkpt lat="45.7750167" lon="8.87131"><ele>285.25</ele><time>2026-04-05T14:43:49.82Z</time></trkpt><trkpt lat="45.77491" lon="8.8714133"><ele>286.0</ele><time>2026-04-05T14:43:50.821Z</time></trkpt><trkpt lat="45.7748067" lon="8.871515"><ele>286.0</ele><time>2026-04-05T14:43:51.821Z</time></trkpt><trkpt lat="45.7747033" lon="8.8716067"><ele>286.0</ele><time>2026-04-05T14:43:52.82Z</time></trkpt><trkpt lat="45.7746083" lon="8.8716983"><ele>286.0</ele><time>2026-04-05T14:43:53.82Z</time></trkpt><trkpt lat="45.77452" lon="8.8717733"><ele>286.0</ele><time>2026-04-05T14:43:54.821Z</time></trkpt><trkpt lat="45.7744467" lon="8.871845"><ele>286.0</ele><time>2026-04-05T14:43:55.82Z</time></trkpt><trkpt lat="45.774375" lon="8.8719283"><ele>286.0</ele><time>2026-04-05T14:43:56.82Z</time></trkpt><trkpt lat="45.7743083" lon="8.872045"><ele>286.0</ele><time>2026-04-05T14:43:57.82Z</time></trkpt><trkpt lat="45.7742617" lon="8.8721967"><ele>286.0</ele><time>2026-04-05T14:43:58.82Z</time></trkpt><trkpt lat="45.7742433" lon="8.872375"><ele>286.0</ele><time>2026-04-05T14:43:59.82Z</time></trkpt><trkpt lat="45.774235" lon="8.872555"><ele>287.6</ele><time>2026-04-05T14:44:00.82Z</time></trkpt><trkpt lat="45.7742267" lon="8.8727183"><ele>289.20000000000005</ele><time>2026-04-05T14:44:01.82Z</time></trkpt><trkpt lat="45.7742167" lon="8.8728583"><ele>290.79999999999995</ele><time>2026-04-05T14:44:02.82Z</time></trkpt><trkpt lat="45.7742017" lon="8.8729883"><ele>292.4</ele><time>2026-04-05T14:44:03.821Z</time></trkpt><trkpt lat="45.7741767" lon="8.8731117"><ele>294.0</ele><time>2026-04-05T14:44:04.821Z</time></trkpt><trkpt lat="45.7741333" lon="8.873225"><ele>294.0</ele><time>2026-04-05T14:44:05.821Z</time></trkpt><trkpt lat="45.774075" lon="8.8733183"><ele>294.0</ele><time>2026-04-05T14:44:06.821Z</time></trkpt><trkpt lat="45.7739967" lon="8.8733833"><ele>294.0</ele><time>2026-04-05T14:44:07.82Z</time></trkpt><trkpt lat="45.7739117" lon="8.873435"><ele>294.0</ele><time>2026-04-05T14:44:08.821Z</time></trkpt><trkpt lat="45.77382" lon="8.873465"><ele>294.0</ele><time>2026-04-05T14:44:09.821Z</time></trkpt><trkpt lat="45.773735" lon="8.8734883"><ele>296.8333333333333</ele><time>2026-04-05T14:44:10.82Z</time></trkpt><trkpt lat="45.7736533" lon="8.8735183"><ele>299.6666666666667</ele><time>2026-04-05T14:44:11.82Z</time></trkpt><trkpt lat="45.77358" lon="8.8735483"><ele>302.5</ele><time>2026-04-05T14:44:12.821Z</time></trkpt><trkpt lat="45.7735183" lon="8.8735733"><ele>305.33333333333337</ele><time>2026-04-05T14:44:13.82Z</time></trkpt><trkpt lat="45.773445" lon="8.8736"><ele>308.1666666666667</ele><time>2026-04-05T14:44:14.82Z</time></trkpt><trkpt lat="45.7733583" lon="8.87363"><ele>311.0</ele><time>2026-04-05T14:44:15.821Z</time></trkpt><trkpt lat="45.7732583" lon="8.8736767"><ele>311.25</ele><time>2026-04-05T14:44:16.82Z</time></trkpt><trkpt lat="45.7731483" lon="8.8737233"><ele>311.5</ele><time>2026-04-05T14:44:17.82Z</time></trkpt><trkpt lat="45.77302" lon="8.87376"><ele>311.75</ele><time>2026-04-05T14:44:18.82Z</time></trkpt><trkpt lat="45.7728733" lon="8.8738033"><ele>312.0</ele><time>2026-04-05T14:44:19.82Z</time></trkpt><trkpt lat="45.772715" lon="8.8738567"><ele>312.6666666666667</ele><time>2026-04-05T14:44:20.82Z</time></trkpt><trkpt lat="45.772525" lon="8.8739183"><ele>313.33333333333337</ele><time>2026-04-05T14:44:21.82Z</time></trkpt><trkpt lat="45.77233" lon="8.8739783"><ele>314.0</ele><time>2026-04-05T14:44:22.82Z</time></trkpt><trkpt lat="45.77213" lon="8.8740483"><ele>314.0</ele><time>2026-04-05T14:44:23.82Z</time></trkpt><trkpt lat="45.77192" lon="8.8741217"><ele>314.0</ele><time>2026-04-05T14:44:24.82Z</time></trkpt><trkpt lat="45.77172" lon="8.8741933"><ele>314.0</ele><time>2026-04-05T14:44:25.82Z</time></trkpt><trkpt lat="45.7715333" lon="8.8742633"><ele>324.0</ele><time>2026-04-05T14:44:26.82Z</time></trkpt><trkpt lat="45.7713517" lon="8.8743267"><ele>334.0</ele><time>2026-04-05T14:44:27.82Z</time></trkpt><trkpt lat="45.771185" lon="8.874375"><ele>344.0</ele><time>2026-04-05T14:44:28.82Z</time></trkpt><trkpt lat="45.77101" lon="8.8743967"><ele>344.6666666666667</ele><time>2026-04-05T14:44:29.82Z</time></trkpt><trkpt lat="45.770835" lon="8.874385"><ele>345.3333333333333</ele><time>2026-04-05T14:44:30.821Z</time></trkpt><trkpt lat="45.7706633" lon="8.8743633"><ele>346.0</ele><time>2026-04-05T14:44:31.82Z</time></trkpt><trkpt lat="45.77046" lon="8.8743117"><ele>346.0</ele><time>2026-04-05T14:44:32.82Z</time></trkpt><trkpt lat="45.770275" lon="8.8742733"><ele>346.0</ele><time>2026-04-05T14:44:33.82Z</time></trkpt><trkpt lat="45.770115" lon="8.8742617"><ele>346.0</ele><time>2026-04-05T14:44:34.82Z</time></trkpt><trkpt lat="45.769985" lon="8.8742717"><ele>347.25</ele><time>2026-04-05T14:44:35.82Z</time></trkpt><trkpt lat="45.7698567" lon="8.8742717"><ele>348.5</ele><time>2026-04-05T14:44:36.82Z</time></trkpt><trkpt lat="45.7697383" lon="8.8742817"><ele>349.75</ele><time>2026-04-05T14:44:37.82Z</time></trkpt><trkpt lat="45.7696233" lon="8.8742867"><ele>351.0</ele><time>2026-04-05T14:44:38.82Z</time></trkpt><trkpt lat="45.7695083" lon="8.874285"><ele>351.0</ele><time>2026-04-05T14:44:39.82Z</time></trkpt><trkpt lat="45.7694067" lon="8.874275"><ele>351.0</ele><time>2026-04-05T14:44:40.821Z</time></trkpt><trkpt lat="45.7693117" lon="8.8742783"><ele>351.0</ele><time>2026-04-05T14:44:41.82Z</time></trkpt><trkpt lat="45.76923" lon="8.8742783"><ele>351.0</ele><time>2026-04-05T14:44:42.821Z</time></trkpt><trkpt lat="45.7691483" lon="8.874275"><ele>351.0</ele><time>2026-04-05T14:44:43.82Z</time></trkpt><trkpt lat="45.7690717" lon="8.8742733"><ele>351.0</ele><time>2026-04-05T14:44:44.82Z</time></trkpt><trkpt lat="45.7690017" lon="8.874275"><ele>346.42857142857144</ele><time>2026-04-05T14:44:45.821Z</time></trkpt><trkpt lat="45.7689367" lon="8.87427"><ele>341.8571428571429</ele><time>2026-04-05T14:44:46.82Z</time></trkpt><trkpt lat="45.76885" lon="8.8742633"><ele>337.28571428571433</ele><time>2026-04-05T14:44:48.82Z</time></trkpt><trkpt lat="45.7687617" lon="8.8742617"><ele>332.7142857142857</ele><time>2026-04-05T14:44:50.82Z</time></trkpt><trkpt lat="45.7686967" lon="8.8742367"><ele>328.1428571428571</ele><time>2026-04-05T14:44:51.82Z</time></trkpt><trkpt lat="45.76863" lon="8.8742033"><ele>323.5714285714286</ele><time>2026-04-05T14:44:52.82Z</time></trkpt><trkpt lat="45.7685683" lon="8.8741583"><ele>319.0</ele><time>2026-04-05T14:44:53.821Z</time></trkpt><trkpt lat="45.7685067" lon="8.8741117"><ele>318.8333333333333</ele><time>2026-04-05T14:44:54.82Z</time></trkpt><trkpt lat="45.7684017" lon="8.8740783"><ele>318.66666666666663</ele><time>2026-04-05T14:44:56.82Z</time></trkpt><trkpt lat="45.7683267" lon="8.874145"><ele>318.5</ele><time>2026-04-05T14:44:58.82Z</time></trkpt><trkpt lat="45.7683117" lon="8.8743"><ele>318.3333333333333</ele><time>2026-04-05T14:45:00.82Z</time></trkpt><trkpt lat="45.768325" lon="8.8743883"><ele>318.1666666666667</ele><time>2026-04-05T14:45:01.82Z</time></trkpt><trkpt lat="45.7683483" lon="8.87448"><ele>318.0</ele><time>2026-04-05T14:45:02.82Z</time></trkpt><trkpt lat="45.7683817" lon="8.8745733"><ele>322.1666666666667</ele><time>2026-04-05T14:45:03.82Z</time></trkpt><trkpt lat="45.7684117" lon="8.8746633"><ele>326.3333333333333</ele><time>2026-04-05T14:45:04.82Z</time></trkpt><trkpt lat="45.76845" lon="8.8747467"><ele>330.5</ele><time>2026-04-05T14:45:05.82Z</time></trkpt><trkpt lat="45.7684883" lon="8.87483"><ele>334.66666666666663</ele><time>2026-04-05T14:45:06.82Z</time></trkpt><trkpt lat="45.7685433" lon="8.87489"><ele>338.8333333333333</ele><time>2026-04-05T14:45:07.82Z</time></trkpt><trkpt lat="45.7686667" lon="8.8749183"><ele>343.0</ele><time>2026-04-05T14:45:09.82Z</time></trkpt><trkpt lat="45.7687367" lon="8.8748817"><ele>343.66666666666663</ele><time>2026-04-05T14:45:10.82Z</time></trkpt><trkpt lat="45.7688033" lon="8.874795"><ele>344.3333333333333</ele><time>2026-04-05T14:45:11.821Z</time></trkpt><trkpt lat="45.7688617" lon="8.874685"><ele>345.0</ele><time>2026-04-05T14:45:12.82Z</time></trkpt><trkpt lat="45.7689183" lon="8.8746067"><ele>345.6666666666667</ele><time>2026-04-05T14:45:13.82Z</time></trkpt><trkpt lat="45.76899" lon="8.8745417"><ele>346.33333333333337</ele><time>2026-04-05T14:45:14.82Z</time></trkpt><trkpt lat="45.7690833" lon="8.8744917"><ele>347.0</ele><time>2026-04-05T14:45:15.82Z</time></trkpt><trkpt lat="45.76922" lon="8.8744633"><ele>348.33333333333337</ele><time>2026-04-05T14:45:16.82Z</time></trkpt><trkpt lat="45.7693783" lon="8.8744517"><ele>349.6666666666667</ele><time>2026-04-05T14:45:17.82Z</time></trkpt><trkpt lat="45.769545" lon="8.8744483"><ele>351.0</ele><time>2026-04-05T14:45:18.82Z</time></trkpt><trkpt lat="45.7697117" lon="8.8744683"><ele>351.0</ele><time>2026-04-05T14:45:19.821Z</time></trkpt><trkpt lat="45.76987" lon="8.874485"><ele>351.0</ele><time>2026-04-05T14:45:20.82Z</time></trkpt><trkpt lat="45.7700267" lon="8.8745083"><ele>351.0</ele><time>2026-04-05T14:45:21.82Z</time></trkpt><trkpt lat="45.77017" lon="8.8745217"><ele>349.75</ele><time>2026-04-05T14:45:22.82Z</time></trkpt><trkpt lat="45.7702983" lon="8.8745417"><ele>348.5</ele><time>2026-04-05T14:45:23.82Z</time></trkpt><trkpt lat="45.77041" lon="8.8745667"><ele>347.25</ele><time>2026-04-05T14:45:24.821Z</time></trkpt><trkpt lat="45.770525" lon="8.874605"><ele>346.0</ele><time>2026-04-05T14:45:25.82Z</time></trkpt><trkpt lat="45.7706417" lon="8.87465"><ele>346.0</ele><time>2026-04-05T14:45:26.82Z</time></trkpt><trkpt lat="45.7707683" lon="8.8747033"><ele>346.0</ele><time>2026-04-05T14:45:27.821Z</time></trkpt><trkpt lat="45.77092" lon="8.8747883"><ele>346.0</ele><time>2026-04-05T14:45:28.82Z</time></trkpt><trkpt lat="45.7710767" lon="8.8748667"><ele>345.3333333333333</ele><time>2026-04-05T14:45:29.82Z</time></trkpt><trkpt lat="45.771265" lon="8.8749533"><ele>344.6666666666667</ele><time>2026-04-05T14:45:30.821Z</time></trkpt><trkpt lat="45.7714567" lon="8.8750233"><ele>344.0</ele><time>2026-04-05T14:45:31.82Z</time></trkpt><trkpt lat="45.7716483" lon="8.8750917"><ele>349.0</ele><time>2026-04-05T14:45:32.82Z</time></trkpt><trkpt lat="45.7718333" lon="8.8751383"><ele>354.0</ele><time>2026-04-05T14:45:33.82Z</time></trkpt><trkpt lat="45.7719967" lon="8.8751767"><ele>359.0</ele><time>2026-04-05T14:45:34.82Z</time></trkpt><trkpt lat="45.77211" lon="8.8752317"><ele>359.0</ele><time>2026-04-05T14:45:35.821Z</time></trkpt><trkpt lat="45.7722417" lon="8.8753033"><ele>359.0</ele><time>2026-04-05T14:45:36.82Z</time></trkpt><trkpt lat="45.7723333" lon="8.8754067"><ele>359.0</ele><time>2026-04-05T14:45:37.82Z</time></trkpt><trkpt lat="45.772395" lon="8.8755817"><ele>359.0</ele><time>2026-04-05T14:45:38.821Z</time></trkpt><trkpt lat="45.7724517" lon="8.875805"><ele>359.33333333333337</ele><time>2026-04-05T14:45:39.82Z</time></trkpt><trkpt lat="45.7724967" lon="8.8760483"><ele>359.6666666666667</ele><time>2026-04-05T14:45:40.82Z</time></trkpt><trkpt lat="45.7725583" lon="8.87628"><ele>360.0</ele><time>2026-04-05T14:45:41.82Z</time></trkpt><trkpt lat="45.7726183" lon="8.876485"><ele>360.0</ele><time>2026-04-05T14:45:42.82Z</time></trkpt><trkpt lat="45.77267" lon="8.8766917"><ele>360.0</ele><time>2026-04-05T14:45:43.82Z</time></trkpt><trkpt lat="45.77273" lon="8.8768767"><ele>360.0</ele><time>2026-04-05T14:45:44.82Z</time></trkpt><trkpt lat="45.77278" lon="8.87705"><ele>360.0</ele><time>2026-04-05T14:45:45.821Z</time></trkpt><trkpt lat="45.7728283" lon="8.877205"><ele>359.8</ele><time>2026-04-05T14:45:46.821Z</time></trkpt><trkpt lat="45.772855" lon="8.8773433"><ele>359.6</ele><time>2026-04-05T14:45:47.82Z</time></trkpt><trkpt lat="45.7728783" lon="8.8774517"><ele>359.4</ele><time>2026-04-05T14:45:48.821Z</time></trkpt><trkpt lat="45.772885" lon="8.8775883"><ele>359.2</ele><time>2026-04-05T14:45:50.82Z</time></trkpt><trkpt lat="45.772895" lon="8.8777117"><ele>359.0</ele><time>2026-04-05T14:45:52.82Z</time></trkpt><trkpt lat="45.772945" lon="8.877885"><ele>359.0</ele><time>2026-04-05T14:45:54.82Z</time></trkpt><trkpt lat="45.7729633" lon="8.8780017"><ele>359.0</ele><time>2026-04-05T14:45:55.82Z</time></trkpt><trkpt lat="45.772975" lon="8.8781617"><ele>359.0</ele><time>2026-04-05T14:45:56.82Z</time></trkpt><trkpt lat="45.7729833" lon="8.87841"><ele>359.0</ele><time>2026-04-05T14:45:57.82Z</time></trkpt><trkpt lat="45.7729983" lon="8.87869"><ele>359.0</ele><time>2026-04-05T14:45:58.821Z</time></trkpt><trkpt lat="45.773025" lon="8.878985"><ele>359.0</ele><time>2026-04-05T14:45:59.82Z</time></trkpt><trkpt lat="45.7730517" lon="8.8792767"><ele>359.0</ele><time>2026-04-05T14:46:00.82Z</time></trkpt><trkpt lat="45.7730917" lon="8.879555"><ele>359.0</ele><time>2026-04-05T14:46:01.821Z</time></trkpt><trkpt lat="45.7731183" lon="8.87982"><ele>359.0</ele><time>2026-04-05T14:46:02.82Z</time></trkpt><trkpt lat="45.7731333" lon="8.88006"><ele>359.0</ele><time>2026-04-05T14:46:03.821Z</time></trkpt><trkpt lat="45.7731533" lon="8.8802833"><ele>359.33333333333337</ele><time>2026-04-05T14:46:04.82Z</time></trkpt><trkpt lat="45.7731717" lon="8.8805067"><ele>359.6666666666667</ele><time>2026-04-05T14:46:05.821Z</time></trkpt><trkpt lat="45.77319" lon="8.880715"><ele>360.0</ele><time>2026-04-05T14:46:06.82Z</time></trkpt><trkpt lat="45.7732183" lon="8.88093"><ele>360.3333333333333</ele><time>2026-04-05T14:46:07.82Z</time></trkpt><trkpt lat="45.7732367" lon="8.88113"><ele>360.66666666666663</ele><time>2026-04-05T14:46:08.821Z</time></trkpt><trkpt lat="45.7732617" lon="8.88135"><ele>361.0</ele><time>2026-04-05T14:46:09.82Z</time></trkpt><trkpt lat="45.7732967" lon="8.8815867"><ele>360.3333333333333</ele><time>2026-04-05T14:46:10.821Z</time></trkpt><trkpt lat="45.773335" lon="8.8818417"><ele>359.6666666666667</ele><time>2026-04-05T14:46:11.82Z</time></trkpt><trkpt lat="45.77338" lon="8.8821083"><ele>359.0</ele><time>2026-04-05T14:46:12.82Z</time></trkpt><trkpt lat="45.7734217" lon="8.8823783"><ele>359.0</ele><time>2026-04-05T14:46:13.82Z</time></trkpt><trkpt lat="45.773455" lon="8.8826417"><ele>359.0</ele><time>2026-04-05T14:46:14.82Z</time></trkpt><trkpt lat="45.7734983" lon="8.8828967"><ele>359.0</ele><time>2026-04-05T14:46:15.82Z</time></trkpt><trkpt lat="45.7735433" lon="8.8831467"><ele>359.0</ele><time>2026-04-05T14:46:16.82Z</time></trkpt><trkpt lat="45.7735783" lon="8.8833983"><ele>359.0</ele><time>2026-04-05T14:46:17.82Z</time></trkpt><trkpt lat="45.7736017" lon="8.8836283"><ele>359.0</ele><time>2026-04-05T14:46:18.82Z</time></trkpt><trkpt lat="45.7736283" lon="8.8838517"><ele>359.25</ele><time>2026-04-05T14:46:19.82Z</time></trkpt><trkpt lat="45.7736483" lon="8.88406"><ele>359.5</ele><time>2026-04-05T14:46:20.82Z</time></trkpt><trkpt lat="45.773665" lon="8.8842367"><ele>359.75</ele><time>2026-04-05T14:46:21.82Z</time></trkpt><trkpt lat="45.7736567" lon="8.8843833"><ele>360.0</ele><time>2026-04-05T14:46:22.82Z</time></trkpt><trkpt lat="45.773625" lon="8.884495"><ele>360.0</ele><time>2026-04-05T14:46:23.82Z</time></trkpt><trkpt lat="45.7735683" lon="8.884575"><ele>360.0</ele><time>2026-04-05T14:46:24.82Z</time></trkpt><trkpt lat="45.7735" lon="8.8846383"><ele>360.0</ele><time>2026-04-05T14:46:25.821Z</time></trkpt><trkpt lat="45.7734133" lon="8.88468"><ele>360.0</ele><time>2026-04-05T14:46:26.82Z</time></trkpt><trkpt lat="45.7733167" lon="8.8846733"><ele>360.0</ele><time>2026-04-05T14:46:27.82Z</time></trkpt><trkpt lat="45.77321" lon="8.8846617"><ele>359.6</ele><time>2026-04-05T14:46:28.821Z</time></trkpt><trkpt lat="45.7731283" lon="8.8846767"><ele>359.2</ele><time>2026-04-05T14:46:29.82Z</time></trkpt><trkpt lat="45.7730767" lon="8.8847483"><ele>358.79999999999995</ele><time>2026-04-05T14:46:30.82Z</time></trkpt><trkpt lat="45.7730533" lon="8.884845"><ele>358.4</ele><time>2026-04-05T14:46:31.821Z</time></trkpt><trkpt lat="45.7730817" lon="8.884985"><ele>358.0</ele><time>2026-04-05T14:46:32.82Z</time></trkpt><trkpt lat="45.773115" lon="8.8851767"><ele>358.0</ele><time>2026-04-05T14:46:33.82Z</time></trkpt><trkpt lat="45.7731267" lon="8.8854183"><ele>358.0</ele><time>2026-04-05T14:46:34.82Z</time></trkpt><trkpt lat="45.77312" lon="8.8856917"><ele>358.0</ele><time>2026-04-05T14:46:35.82Z</time></trkpt><trkpt lat="45.7731167" lon="8.8859933"><ele>358.0</ele><time>2026-04-05T14:46:36.82Z</time></trkpt><trkpt lat="45.77311" lon="8.88632"><ele>358.0</ele><time>2026-04-05T14:46:37.82Z</time></trkpt><trkpt lat="45.773105" lon="8.88667"><ele>356.5</ele><time>2026-04-05T14:46:38.82Z</time></trkpt><trkpt lat="45.7731" lon="8.8870033"><ele>355.0</ele><time>2026-04-05T14:46:39.82Z</time></trkpt><trkpt lat="45.7730983" lon="8.887325"><ele>355.3333333333333</ele><time>2026-04-05T14:46:40.82Z</time></trkpt><trkpt lat="45.773095" lon="8.887625"><ele>355.6666666666667</ele><time>2026-04-05T14:46:41.821Z</time></trkpt><trkpt lat="45.773095" lon="8.8878983"><ele>356.0</ele><time>2026-04-05T14:46:42.82Z</time></trkpt><trkpt lat="45.7730967" lon="8.88816"><ele>356.0</ele><time>2026-04-05T14:46:43.821Z</time></trkpt><trkpt lat="45.773095" lon="8.8884067"><ele>356.0</ele><time>2026-04-05T14:46:44.82Z</time></trkpt><trkpt lat="45.7730933" lon="8.88864"><ele>356.0</ele><time>2026-04-05T14:46:45.82Z</time></trkpt><trkpt lat="45.77309" lon="8.8888633"><ele>356.25</ele><time>2026-04-05T14:46:46.82Z</time></trkpt><trkpt lat="45.7730983" lon="8.8890783"><ele>356.5</ele><time>2026-04-05T14:46:47.82Z</time></trkpt><trkpt lat="45.7731033" lon="8.8892867"><ele>356.75</ele><time>2026-04-05T14:46:48.82Z</time></trkpt><trkpt lat="45.7731033" lon="8.8895017"><ele>357.0</ele><time>2026-04-05T14:46:49.82Z</time></trkpt><trkpt lat="45.7730983" lon="8.8897083"><ele>357.40000000000003</ele><time>2026-04-05T14:46:50.82Z</time></trkpt><trkpt lat="45.773095" lon="8.8898867"><ele>357.8</ele><time>2026-04-05T14:46:51.82Z</time></trkpt><trkpt lat="45.773095" lon="8.8900267"><ele>358.2</ele><time>2026-04-05T14:46:52.821Z</time></trkpt><trkpt lat="45.7730917" lon="8.8901433"><ele>358.6</ele><time>2026-04-05T14:46:53.82Z</time></trkpt><trkpt lat="45.7730933" lon="8.8902483"><ele>359.0</ele><time>2026-04-05T14:46:54.82Z</time></trkpt><trkpt lat="45.7730933" lon="8.8904183"><ele>359.0</ele><time>2026-04-05T14:46:56.82Z</time></trkpt><trkpt lat="45.7730933" lon="8.8905367"><ele>359.0</ele><time>2026-04-05T14:46:58.821Z</time></trkpt><trkpt lat="45.77309" lon="8.8906367"><ele>359.0</ele><time>2026-04-05T14:47:01.82Z</time></trkpt><trkpt lat="45.77311" lon="8.8907267"><ele>359.0</ele><time>2026-04-05T14:47:16.82Z</time></trkpt><trkpt lat="45.7731183" lon="8.8908983"><ele>359.0</ele><time>2026-04-05T14:47:18.82Z</time></trkpt><trkpt lat="45.7731067" lon="8.8910417"><ele>359.0</ele><time>2026-04-05T14:47:19.82Z</time></trkpt><trkpt lat="45.7731033" lon="8.89123"><ele>359.33333333333337</ele><time>2026-04-05T14:47:20.82Z</time></trkpt><trkpt lat="45.773105" lon="8.8914517"><ele>359.6666666666667</ele><time>2026-04-05T14:47:21.821Z</time></trkpt><trkpt lat="45.7731" lon="8.8916833"><ele>360.0</ele><time>2026-04-05T14:47:22.82Z</time></trkpt><trkpt lat="45.773105" lon="8.891925"><ele>360.6666666666667</ele><time>2026-04-05T14:47:23.82Z</time></trkpt><trkpt lat="45.7731067" lon="8.892175"><ele>361.33333333333337</ele><time>2026-04-05T14:47:24.82Z</time></trkpt><trkpt lat="45.7731183" lon="8.8924267"><ele>362.0</ele><time>2026-04-05T14:47:25.821Z</time></trkpt><trkpt lat="45.7731233" lon="8.892665"><ele>362.0</ele><time>2026-04-05T14:47:26.82Z</time></trkpt><trkpt lat="45.77312" lon="8.8928883"><ele>362.0</ele><time>2026-04-05T14:47:27.82Z</time></trkpt><trkpt lat="45.7730967" lon="8.8930783"><ele>362.0</ele><time>2026-04-05T14:47:28.821Z</time></trkpt><trkpt lat="45.773065" lon="8.8932217"><ele>362.0</ele><time>2026-04-05T14:47:29.821Z</time></trkpt><trkpt lat="45.773045" lon="8.8933367"><ele>362.0</ele><time>2026-04-05T14:47:30.82Z</time></trkpt><trkpt lat="45.77306" lon="8.8934367"><ele>362.0</ele><time>2026-04-05T14:47:31.821Z</time></trkpt><trkpt lat="45.7731533" lon="8.8935467"><ele>362.0</ele><time>2026-04-05T14:47:33.821Z</time></trkpt><trkpt lat="45.7732183" lon="8.8935417"><ele>362.0</ele><time>2026-04-05T14:47:34.82Z</time></trkpt><trkpt lat="45.7732833" lon="8.89348"><ele>362.0</ele><time>2026-04-05T14:47:35.82Z</time></trkpt><trkpt lat="45.7733483" lon="8.8933833"><ele>362.0</ele><time>2026-04-05T14:47:36.82Z</time></trkpt><trkpt lat="45.7734367" lon="8.8932817"><ele>361.33333333333337</ele><time>2026-04-05T14:47:37.821Z</time></trkpt><trkpt lat="45.7735617" lon="8.8932017"><ele>360.6666666666667</ele><time>2026-04-05T14:47:38.82Z</time></trkpt><trkpt lat="45.7737317" lon="8.8931217"><ele>360.0</ele><time>2026-04-05T14:47:39.82Z</time></trkpt><trkpt lat="45.773925" lon="8.8930617"><ele>360.0</ele><time>2026-04-05T14:47:40.82Z</time></trkpt><trkpt lat="45.77413" lon="8.8929967"><ele>360.0</ele><time>2026-04-05T14:47:41.821Z</time></trkpt><trkpt lat="45.7743267" lon="8.8929333"><ele>360.0</ele><time>2026-04-05T14:47:42.82Z</time></trkpt><trkpt lat="45.7745267" lon="8.8928683"><ele>360.6666666666667</ele><time>2026-04-05T14:47:43.82Z</time></trkpt><trkpt lat="45.7747167" lon="8.8928083"><ele>361.33333333333337</ele><time>2026-04-05T14:47:44.82Z</time></trkpt><trkpt lat="45.7749" lon="8.8927483"><ele>362.0</ele><time>2026-04-05T14:47:45.82Z</time></trkpt><trkpt lat="45.775075" lon="8.892685"><ele>362.20000000000005</ele><time>2026-04-05T14:47:46.82Z</time></trkpt><trkpt lat="45.7752217" lon="8.8926467"><ele>362.4</ele><time>2026-04-05T14:47:47.82Z</time></trkpt><trkpt lat="45.7753433" lon="8.892635"><ele>362.6</ele><time>2026-04-05T14:47:48.821Z</time></trkpt><trkpt lat="45.775425" lon="8.8926617"><ele>362.79999999999995</ele><time>2026-04-05T14:47:49.82Z</time></trkpt><trkpt lat="45.7754833" lon="8.8927433"><ele>363.0</ele><time>2026-04-05T14:47:50.82Z</time></trkpt><trkpt lat="45.7755683" lon="8.8928833"><ele>363.0</ele><time>2026-04-05T14:47:51.82Z</time></trkpt><trkpt lat="45.7756767" lon="8.8930183"><ele>363.0</ele><time>2026-04-05T14:47:52.82Z</time></trkpt><trkpt lat="45.775805" lon="8.8931383"><ele>363.0</ele><time>2026-04-05T14:47:53.82Z</time></trkpt><trkpt lat="45.775955" lon="8.8932067"><ele>363.3333333333333</ele><time>2026-04-05T14:47:54.82Z</time></trkpt><trkpt lat="45.7761217" lon="8.8931983"><ele>363.66666666666663</ele><time>2026-04-05T14:47:55.82Z</time></trkpt><trkpt lat="45.7763" lon="8.8931817"><ele>364.0</ele><time>2026-04-05T14:47:56.821Z</time></trkpt><trkpt lat="45.7764583" lon="8.89316"><ele>364.0</ele><time>2026-04-05T14:47:57.82Z</time></trkpt><trkpt lat="45.7765933" lon="8.8931333"><ele>364.0</ele><time>2026-04-05T14:47:58.82Z</time></trkpt><trkpt lat="45.776695" lon="8.8930867"><ele>364.0</ele><time>2026-04-05T14:47:59.82Z</time></trkpt><trkpt lat="45.7767867" lon="8.892995"><ele>364.0</ele><time>2026-04-05T14:48:00.82Z</time></trkpt><trkpt lat="45.7768583" lon="8.8928517"><ele>364.0</ele><time>2026-04-05T14:48:01.82Z</time></trkpt><trkpt lat="45.776895" lon="8.8926633"><ele>364.0</ele><time>2026-04-05T14:48:02.82Z</time></trkpt><trkpt lat="45.7769017" lon="8.89244"><ele>364.0</ele><time>2026-04-05T14:48:03.82Z</time></trkpt><trkpt lat="45.7769033" lon="8.892235"><ele>364.0</ele><time>2026-04-05T14:48:04.82Z</time></trkpt><trkpt lat="45.77691" lon="8.8920517"><ele>364.2</ele><time>2026-04-05T14:48:05.819Z</time></trkpt><trkpt lat="45.776915" lon="8.8918983"><ele>364.4</ele><time>2026-04-05T14:48:06.819Z</time></trkpt><trkpt lat="45.77692" lon="8.8917483"><ele>364.6</ele><time>2026-04-05T14:48:07.819Z</time></trkpt><trkpt lat="45.776925" lon="8.89162"><ele>364.8</ele><time>2026-04-05T14:48:08.819Z</time></trkpt><trkpt lat="45.7769317" lon="8.8915033"><ele>365.0</ele><time>2026-04-05T14:48:09.819Z</time></trkpt><trkpt lat="45.7769417" lon="8.8913933"><ele>365.0</ele><time>2026-04-05T14:48:10.82Z</time></trkpt><trkpt lat="45.7769667" lon="8.8913033"><ele>365.0</ele><time>2026-04-05T14:48:11.819Z</time></trkpt><trkpt lat="45.7770717" lon="8.8912167"><ele>365.0</ele><time>2026-04-05T14:48:13.819Z</time></trkpt><trkpt lat="45.7771583" lon="8.89122"><ele>365.0</ele><time>2026-04-05T14:48:14.82Z</time></trkpt><trkpt lat="45.7772667" lon="8.891235"><ele>365.0</ele><time>2026-04-05T14:48:15.819Z</time></trkpt><trkpt lat="45.7773617" lon="8.8912483"><ele>365.0</ele><time>2026-04-05T14:48:16.819Z</time></trkpt><trkpt lat="45.7774567" lon="8.8912567"><ele>365.0</ele><time>2026-04-05T14:48:17.82Z</time></trkpt><trkpt lat="45.7775417" lon="8.8912617"><ele>365.0</ele><time>2026-04-05T14:48:18.819Z</time></trkpt><trkpt lat="45.7776133" lon="8.8912667"><ele>365.0</ele><time>2026-04-05T14:48:19.819Z</time></trkpt><trkpt lat="45.7776767" lon="8.89127"><ele>365.0</ele><time>2026-04-05T14:48:20.819Z</time></trkpt><trkpt lat="45.7777933" lon="8.89129"><ele>365.0</ele><time>2026-04-05T14:48:22.819Z</time></trkpt><trkpt lat="45.7778933" lon="8.8913183"><ele>365.0</ele><time>2026-04-05T14:48:24.82Z</time></trkpt><trkpt lat="45.777995" lon="8.8914117"><ele>365.0</ele><time>2026-04-05T14:48:26.819Z</time></trkpt><trkpt lat="45.778065" lon="8.8914717"><ele>365.0</ele><time>2026-04-05T14:48:27.819Z</time></trkpt><trkpt lat="45.7781533" lon="8.8915067"><ele>365.0</ele><time>2026-04-05T14:48:28.819Z</time></trkpt><trkpt lat="45.7782417" lon="8.8915217"><ele>365.0</ele><time>2026-04-05T14:48:29.819Z</time></trkpt><trkpt lat="45.778325" lon="8.8915383"><ele>365.0</ele><time>2026-04-05T14:48:30.819Z</time></trkpt><trkpt lat="45.7784067" lon="8.8915633"><ele>365.0</ele><time>2026-04-05T14:48:31.819Z</time></trkpt><trkpt lat="45.7784867" lon="8.8916067"><ele>365.0</ele><time>2026-04-05T14:48:32.819Z</time></trkpt><trkpt lat="45.7785667" lon="8.8916533"><ele>365.0</ele><time>2026-04-05T14:48:33.819Z</time></trkpt><trkpt lat="45.7786333" lon="8.8916983"><ele>365.0</ele><time>2026-04-05T14:48:34.819Z</time></trkpt><trkpt lat="45.778705" lon="8.8917417"><ele>365.0</ele><time>2026-04-05T14:48:35.82Z</time></trkpt><trkpt lat="45.77878" lon="8.891795"><ele>364.8</ele><time>2026-04-05T14:48:36.819Z</time></trkpt><trkpt lat="45.7788467" lon="8.8918633"><ele>364.6</ele><time>2026-04-05T14:48:37.82Z</time></trkpt><trkpt lat="45.778915" lon="8.8919567"><ele>364.4</ele><time>2026-04-05T14:48:38.819Z</time></trkpt><trkpt lat="45.7789683" lon="8.8920733"><ele>364.2</ele><time>2026-04-05T14:48:39.819Z</time></trkpt><trkpt lat="45.7790517" lon="8.8921867"><ele>364.0</ele><time>2026-04-05T14:48:40.82Z</time></trkpt><trkpt lat="45.77914" lon="8.892315"><ele>364.0</ele><time>2026-04-05T14:48:41.82Z</time></trkpt><trkpt lat="45.77922" lon="8.8924483"><ele>364.0</ele><time>2026-04-05T14:48:42.819Z</time></trkpt><trkpt lat="45.7793133" lon="8.892575"><ele>364.0</ele><time>2026-04-05T14:48:43.819Z</time></trkpt><trkpt lat="45.77942" lon="8.8927067"><ele>364.0</ele><time>2026-04-05T14:48:44.819Z</time></trkpt><trkpt lat="45.7795317" lon="8.8928467"><ele>365.66666666666663</ele><time>2026-04-05T14:48:45.819Z</time></trkpt><trkpt lat="45.779655" lon="8.8929833"><ele>367.3333333333333</ele><time>2026-04-05T14:48:46.82Z</time></trkpt><trkpt lat="45.779775" lon="8.893115"><ele>369.0</ele><time>2026-04-05T14:48:47.819Z</time></trkpt><trkpt lat="45.7798917" lon="8.8932383"><ele>369.0</ele><time>2026-04-05T14:48:48.82Z</time></trkpt><trkpt lat="45.780005" lon="8.89336"><ele>369.0</ele><time>2026-04-05T14:48:49.819Z</time></trkpt><trkpt lat="45.7801117" lon="8.8934767"><ele>369.0</ele><time>2026-04-05T14:48:50.819Z</time></trkpt><trkpt lat="45.780215" lon="8.8935817"><ele>369.0</ele><time>2026-04-05T14:48:51.819Z</time></trkpt><trkpt lat="45.7803017" lon="8.893685"><ele>368.5</ele><time>2026-04-05T14:48:52.819Z</time></trkpt><trkpt lat="45.780405" lon="8.8937633"><ele>368.0</ele><time>2026-04-05T14:48:53.819Z</time></trkpt><trkpt lat="45.7805067" lon="8.8938283"><ele>367.5</ele><time>2026-04-05T14:48:54.819Z</time></trkpt><trkpt lat="45.78061" lon="8.8938917"><ele>367.0</ele><time>2026-04-05T14:48:55.82Z</time></trkpt><trkpt lat="45.78073" lon="8.893935"><ele>367.0</ele><time>2026-04-05T14:48:56.819Z</time></trkpt><trkpt lat="45.7808633" lon="8.8939817"><ele>367.0</ele><time>2026-04-05T14:48:57.819Z</time></trkpt><trkpt lat="45.780985" lon="8.8940317"><ele>367.0</ele><time>2026-04-05T14:48:58.819Z</time></trkpt><trkpt lat="45.7810867" lon="8.894105"><ele>367.0</ele><time>2026-04-05T14:48:59.819Z</time></trkpt><trkpt lat="45.7811767" lon="8.894195"><ele>367.0</ele><time>2026-04-05T14:49:00.819Z</time></trkpt><trkpt lat="45.7812517" lon="8.8942983"><ele>367.0</ele><time>2026-04-05T14:49:01.819Z</time></trkpt><trkpt lat="45.7813367" lon="8.894415"><ele>367.0</ele><time>2026-04-05T14:49:02.82Z</time></trkpt><trkpt lat="45.7814067" lon="8.8945717"><ele>367.0</ele><time>2026-04-05T14:49:03.819Z</time></trkpt><trkpt lat="45.7814917" lon="8.8947383"><ele>367.0</ele><time>2026-04-05T14:49:04.82Z</time></trkpt><trkpt lat="45.7815767" lon="8.894925"><ele>367.0</ele><time>2026-04-05T14:49:05.819Z</time></trkpt><trkpt lat="45.78168" lon="8.895115"><ele>367.0</ele><time>2026-04-05T14:49:06.819Z</time></trkpt><trkpt lat="45.781785" lon="8.8953167"><ele>367.0</ele><time>2026-04-05T14:49:07.82Z</time></trkpt><trkpt lat="45.7818983" lon="8.895535"><ele>367.0</ele><time>2026-04-05T14:49:08.82Z</time></trkpt><trkpt lat="45.7820017" lon="8.8957517"><ele>367.0</ele><time>2026-04-05T14:49:09.819Z</time></trkpt><trkpt lat="45.7820983" lon="8.8959583"><ele>366.66666666666663</ele><time>2026-04-05T14:49:10.82Z</time></trkpt><trkpt lat="45.7821833" lon="8.896155"><ele>366.3333333333333</ele><time>2026-04-05T14:49:11.82Z</time></trkpt><trkpt lat="45.782265" lon="8.8963467"><ele>366.0</ele><time>2026-04-05T14:49:12.819Z</time></trkpt><trkpt lat="45.78234" lon="8.89653"><ele>366.0</ele><time>2026-04-05T14:49:13.82Z</time></trkpt><trkpt lat="45.7824" lon="8.89671"><ele>366.0</ele><time>2026-04-05T14:49:14.819Z</time></trkpt><trkpt lat="45.7824533" lon="8.8968883"><ele>366.0</ele><time>2026-04-05T14:49:15.819Z</time></trkpt><trkpt lat="45.7824983" lon="8.8970817"><ele>366.0</ele><time>2026-04-05T14:49:16.819Z</time></trkpt><trkpt lat="45.7825483" lon="8.8972883"><ele>366.3333333333333</ele><time>2026-04-05T14:49:17.819Z</time></trkpt><trkpt lat="45.7825933" lon="8.89751"><ele>366.66666666666663</ele><time>2026-04-05T14:49:18.82Z</time></trkpt><trkpt lat="45.78264" lon="8.897725"><ele>367.0</ele><time>2026-04-05T14:49:19.819Z</time></trkpt><trkpt lat="45.7826933" lon="8.8979283"><ele>367.0</ele><time>2026-04-05T14:49:20.819Z</time></trkpt><trkpt lat="45.7827483" lon="8.8981183"><ele>367.0</ele><time>2026-04-05T14:49:21.82Z</time></trkpt><trkpt lat="45.782815" lon="8.8982983"><ele>367.0</ele><time>2026-04-05T14:49:22.819Z</time></trkpt><trkpt lat="45.7828967" lon="8.898465"><ele>367.0</ele><time>2026-04-05T14:49:23.82Z</time></trkpt><trkpt lat="45.7829867" lon="8.898615"><ele>367.0</ele><time>2026-04-05T14:49:24.819Z</time></trkpt><trkpt lat="45.7830883" lon="8.898745"><ele>367.0</ele><time>2026-04-05T14:49:25.819Z</time></trkpt><trkpt lat="45.7831867" lon="8.8988583"><ele>367.0</ele><time>2026-04-05T14:49:26.819Z</time></trkpt><trkpt lat="45.78329" lon="8.8989667"><ele>367.0</ele><time>2026-04-05T14:49:27.819Z</time></trkpt><trkpt lat="45.783395" lon="8.8990667"><ele>367.0</ele><time>2026-04-05T14:49:28.819Z</time></trkpt><trkpt lat="45.7834883" lon="8.899165"><ele>367.0</ele><time>2026-04-05T14:49:29.819Z</time></trkpt><trkpt lat="45.783575" lon="8.8992633"><ele>367.0</ele><time>2026-04-05T14:49:30.819Z</time></trkpt><trkpt lat="45.7836633" lon="8.8993583"><ele>367.0</ele><time>2026-04-05T14:49:31.819Z</time></trkpt><trkpt lat="45.78376" lon="8.89946"><ele>367.25</ele><time>2026-04-05T14:49:32.819Z</time></trkpt><trkpt lat="45.783855" lon="8.899565"><ele>367.5</ele><time>2026-04-05T14:49:33.819Z</time></trkpt><trkpt lat="45.7839583" lon="8.89968"><ele>367.75</ele><time>2026-04-05T14:49:34.819Z</time></trkpt><trkpt lat="45.784075" lon="8.8998017"><ele>368.0</ele><time>2026-04-05T14:49:35.819Z</time></trkpt><trkpt lat="45.784215" lon="8.8999283"><ele>368.6666666666667</ele><time>2026-04-05T14:49:36.82Z</time></trkpt><trkpt lat="45.7843617" lon="8.90008"><ele>369.3333333333333</ele><time>2026-04-05T14:49:37.819Z</time></trkpt><trkpt lat="45.7845067" lon="8.9002517"><ele>370.0</ele><time>2026-04-05T14:49:38.819Z</time></trkpt><trkpt lat="45.784645" lon="8.90042"><ele>370.0</ele><time>2026-04-05T14:49:39.819Z</time></trkpt><trkpt lat="45.7847983" lon="8.9005833"><ele>370.0</ele><time>2026-04-05T14:49:40.82Z</time></trkpt><trkpt lat="45.7849583" lon="8.9007467"><ele>370.0</ele><time>2026-04-05T14:49:41.819Z</time></trkpt><trkpt lat="45.7851117" lon="8.9009217"><ele>371.0</ele><time>2026-04-05T14:49:42.82Z</time></trkpt><trkpt lat="45.7852567" lon="8.9011"><ele>372.0</ele><time>2026-04-05T14:49:43.819Z</time></trkpt><trkpt lat="45.7854017" lon="8.9012567"><ele>373.0</ele><time>2026-04-05T14:49:44.819Z</time></trkpt><trkpt lat="45.7855583" lon="8.9013833"><ele>373.0</ele><time>2026-04-05T14:49:45.82Z</time></trkpt><trkpt lat="45.78569" lon="8.90149"><ele>373.0</ele><time>2026-04-05T14:49:46.82Z</time></trkpt><trkpt lat="45.78583" lon="8.9015817"><ele>373.0</ele><time>2026-04-05T14:49:47.82Z</time></trkpt><trkpt lat="45.7859633" lon="8.9016667"><ele>373.0</ele><time>2026-04-05T14:49:48.819Z</time></trkpt><trkpt lat="45.7861017" lon="8.9017483"><ele>373.0</ele><time>2026-04-05T14:49:49.82Z</time></trkpt><trkpt lat="45.786215" lon="8.9018217"><ele>373.0</ele><time>2026-04-05T14:49:50.819Z</time></trkpt><trkpt lat="45.7863067" lon="8.90189"><ele>373.0</ele><time>2026-04-05T14:49:51.819Z</time></trkpt><trkpt lat="45.7863817" lon="8.901945"><ele>373.0</ele><time>2026-04-05T14:49:52.819Z</time></trkpt><trkpt lat="45.7864583" lon="8.9020317"><ele>373.0</ele><time>2026-04-05T14:49:54.819Z</time></trkpt><trkpt lat="45.7865117" lon="8.902135"><ele>373.0</ele><time>2026-04-05T14:49:58.819Z</time></trkpt><trkpt lat="45.7865317" lon="8.9022283"><ele>373.0</ele><time>2026-04-05T14:49:59.819Z</time></trkpt><trkpt lat="45.7865417" lon="8.9023317"><ele>373.0</ele><time>2026-04-05T14:50:00.819Z</time></trkpt><trkpt lat="45.78654" lon="8.90246"><ele>373.0</ele><time>2026-04-05T14:50:01.82Z</time></trkpt><trkpt lat="45.7865317" lon="8.9026233"><ele>373.5</ele><time>2026-04-05T14:50:02.82Z</time></trkpt><trkpt lat="45.7865133" lon="8.9027983"><ele>374.0</ele><time>2026-04-05T14:50:03.819Z</time></trkpt><trkpt lat="45.7864967" lon="8.9029817"><ele>374.5</ele><time>2026-04-05T14:50:04.819Z</time></trkpt><trkpt lat="45.786475" lon="8.90319"><ele>375.0</ele><time>2026-04-05T14:50:05.82Z</time></trkpt><trkpt lat="45.78646" lon="8.9033917"><ele>375.25</ele><time>2026-04-05T14:50:06.819Z</time></trkpt><trkpt lat="45.78644" lon="8.90358"><ele>375.5</ele><time>2026-04-05T14:50:07.819Z</time></trkpt><trkpt lat="45.7864217" lon="8.9037667"><ele>375.75</ele><time>2026-04-05T14:50:08.819Z</time></trkpt><trkpt lat="45.7863967" lon="8.9039533"><ele>376.0</ele><time>2026-04-05T14:50:09.819Z</time></trkpt><trkpt lat="45.78638" lon="8.90416"><ele>376.3333333333333</ele><time>2026-04-05T14:50:10.819Z</time></trkpt><trkpt lat="45.7863533" lon="8.9043717"><ele>376.6666666666667</ele><time>2026-04-05T14:50:11.819Z</time></trkpt><trkpt lat="45.7863333" lon="8.904605"><ele>377.0</ele><time>2026-04-05T14:50:12.819Z</time></trkpt><trkpt lat="45.786305" lon="8.9048517"><ele>377.0</ele><time>2026-04-05T14:50:13.819Z</time></trkpt><trkpt lat="45.7862917" lon="8.9050967"><ele>377.0</ele><time>2026-04-05T14:50:14.819Z</time></trkpt><trkpt lat="45.78627" lon="8.905335"><ele>377.0</ele><time>2026-04-05T14:50:15.819Z</time></trkpt><trkpt lat="45.7862433" lon="8.9055733"><ele>377.0</ele><time>2026-04-05T14:50:16.819Z</time></trkpt><trkpt lat="45.7862133" lon="8.905825"><ele>377.0</ele><time>2026-04-05T14:50:17.82Z</time></trkpt><trkpt lat="45.78619" lon="8.9060717"><ele>377.0</ele><time>2026-04-05T14:50:18.819Z</time></trkpt><trkpt lat="45.78616" lon="8.9063333"><ele>377.33333333333337</ele><time>2026-04-05T14:50:19.82Z</time></trkpt><trkpt lat="45.78613" lon="8.9065967"><ele>377.6666666666667</ele><time>2026-04-05T14:50:20.82Z</time></trkpt><trkpt lat="45.7861017" lon="8.906865"><ele>378.0</ele><time>2026-04-05T14:50:21.819Z</time></trkpt><trkpt lat="45.7860767" lon="8.9071333"><ele>378.0</ele><time>2026-04-05T14:50:22.819Z</time></trkpt><trkpt lat="45.7860567" lon="8.907405"><ele>378.0</ele><time>2026-04-05T14:50:23.819Z</time></trkpt><trkpt lat="45.786025" lon="8.90768"><ele>378.0</ele><time>2026-04-05T14:50:24.82Z</time></trkpt><trkpt lat="45.7859983" lon="8.9079533"><ele>378.0</ele><time>2026-04-05T14:50:25.819Z</time></trkpt><trkpt lat="45.7859767" lon="8.90822"><ele>378.0</ele><time>2026-04-05T14:50:26.819Z</time></trkpt><trkpt lat="45.78595" lon="8.9084683"><ele>378.0</ele><time>2026-04-05T14:50:27.819Z</time></trkpt><trkpt lat="45.7859283" lon="8.908705"><ele>378.75</ele><time>2026-04-05T14:50:28.82Z</time></trkpt><trkpt lat="45.78591" lon="8.9089283"><ele>379.5</ele><time>2026-04-05T14:50:29.819Z</time></trkpt><trkpt lat="45.7858933" lon="8.90914"><ele>380.25</ele><time>2026-04-05T14:50:30.819Z</time></trkpt><trkpt lat="45.7858733" lon="8.9093367"><ele>381.0</ele><time>2026-04-05T14:50:31.819Z</time></trkpt><trkpt lat="45.7858533" lon="8.9095317"><ele>382.0</ele><time>2026-04-05T14:50:32.819Z</time></trkpt><trkpt lat="45.7858267" lon="8.9097367"><ele>383.0</ele><time>2026-04-05T14:50:33.819Z</time></trkpt><trkpt lat="45.785805" lon="8.909945"><ele>384.0</ele><time>2026-04-05T14:50:34.819Z</time></trkpt><trkpt lat="45.7857933" lon="8.9101433"><ele>385.0</ele><time>2026-04-05T14:50:35.82Z</time></trkpt><trkpt lat="45.7857733" lon="8.9103267"><ele>385.5</ele><time>2026-04-05T14:50:36.819Z</time></trkpt><trkpt lat="45.785755" lon="8.9105033"><ele>386.0</ele><time>2026-04-05T14:50:37.82Z</time></trkpt><trkpt lat="45.78575" lon="8.9106817"><ele>386.5</ele><time>2026-04-05T14:50:38.819Z</time></trkpt><trkpt lat="45.7857483" lon="8.9108517"><ele>387.0</ele><time>2026-04-05T14:50:39.819Z</time></trkpt><trkpt lat="45.785745" lon="8.9110167"><ele>387.0</ele><time>2026-04-05T14:50:40.819Z</time></trkpt><trkpt lat="45.78574" lon="8.9111667"><ele>387.0</ele><time>2026-04-05T14:50:41.819Z</time></trkpt><trkpt lat="45.7857183" lon="8.9113133"><ele>387.0</ele><time>2026-04-05T14:50:42.819Z</time></trkpt><trkpt lat="45.7856733" lon="8.9114433"><ele>387.0</ele><time>2026-04-05T14:50:43.819Z</time></trkpt><trkpt lat="45.7856033" lon="8.9115583"><ele>387.0</ele><time>2026-04-05T14:50:44.82Z</time></trkpt><trkpt lat="45.7855367" lon="8.9116567"><ele>387.8</ele><time>2026-04-05T14:50:45.819Z</time></trkpt><trkpt lat="45.7855" lon="8.911765"><ele>388.6</ele><time>2026-04-05T14:50:46.819Z</time></trkpt><trkpt lat="45.7854933" lon="8.9118783"><ele>389.40000000000003</ele><time>2026-04-05T14:50:47.819Z</time></trkpt><trkpt lat="45.785505" lon="8.9120033"><ele>390.20000000000005</ele><time>2026-04-05T14:50:48.819Z</time></trkpt><trkpt lat="45.785535" lon="8.9121483"><ele>391.0</ele><time>2026-04-05T14:50:49.819Z</time></trkpt><trkpt lat="45.7855733" lon="8.9123067"><ele>391.0</ele><time>2026-04-05T14:50:50.819Z</time></trkpt><trkpt lat="45.7856033" lon="8.9124783"><ele>391.0</ele><time>2026-04-05T14:50:51.819Z</time></trkpt><trkpt lat="45.7856233" lon="8.9126617"><ele>391.0</ele><time>2026-04-05T14:50:52.819Z</time></trkpt><trkpt lat="45.7856367" lon="8.9128683"><ele>391.0</ele><time>2026-04-05T14:50:53.819Z</time></trkpt><trkpt lat="45.7856417" lon="8.913085"><ele>391.6666666666667</ele><time>2026-04-05T14:50:54.819Z</time></trkpt><trkpt lat="45.7856417" lon="8.9133133"><ele>392.33333333333337</ele><time>2026-04-05T14:50:55.82Z</time></trkpt><trkpt lat="45.785645" lon="8.9135433"><ele>393.0</ele><time>2026-04-05T14:50:56.819Z</time></trkpt><trkpt lat="45.785645" lon="8.9137883"><ele>393.33333333333337</ele><time>2026-04-05T14:50:57.819Z</time></trkpt><trkpt lat="45.7856383" lon="8.9140533"><ele>393.6666666666667</ele><time>2026-04-05T14:50:58.819Z</time></trkpt><trkpt lat="45.785635" lon="8.914315"><ele>394.0</ele><time>2026-04-05T14:50:59.819Z</time></trkpt><trkpt lat="45.7856383" lon="8.91456"><ele>398.0</ele><time>2026-04-05T14:51:00.819Z</time></trkpt><trkpt lat="45.7856333" lon="8.914795"><ele>402.0</ele><time>2026-04-05T14:51:01.819Z</time></trkpt><trkpt lat="45.78563" lon="8.915025"><ele>406.0</ele><time>2026-04-05T14:51:02.82Z</time></trkpt><trkpt lat="45.7856283" lon="8.915255"><ele>407.6666666666667</ele><time>2026-04-05T14:51:03.819Z</time></trkpt><trkpt lat="45.7856183" lon="8.9154667"><ele>409.33333333333337</ele><time>2026-04-05T14:51:04.819Z</time></trkpt><trkpt lat="45.78562" lon="8.9156833"><ele>411.0</ele><time>2026-04-05T14:51:05.819Z</time></trkpt><trkpt lat="45.785615" lon="8.9159017"><ele>412.25</ele><time>2026-04-05T14:51:06.819Z</time></trkpt><trkpt lat="45.7856083" lon="8.9161017"><ele>413.5</ele><time>2026-04-05T14:51:07.819Z</time></trkpt><trkpt lat="45.785615" lon="8.9163217"><ele>414.75</ele><time>2026-04-05T14:51:08.819Z</time></trkpt><trkpt lat="45.785635" lon="8.9165367"><ele>416.0</ele><time>2026-04-05T14:51:09.819Z</time></trkpt><trkpt lat="45.7856633" lon="8.91677"><ele>418.3333333333333</ele><time>2026-04-05T14:51:10.819Z</time></trkpt><trkpt lat="45.7856883" lon="8.9170083"><ele>420.66666666666663</ele><time>2026-04-05T14:51:11.819Z</time></trkpt><trkpt lat="45.7857167" lon="8.91725"><ele>423.0</ele><time>2026-04-05T14:51:12.82Z</time></trkpt><trkpt lat="45.7857467" lon="8.917495"><ele>423.0</ele><time>2026-04-05T14:51:13.819Z</time></trkpt><trkpt lat="45.7857767" lon="8.917745"><ele>423.0</ele><time>2026-04-05T14:51:14.819Z</time></trkpt><trkpt lat="45.7858117" lon="8.9179967"><ele>423.0</ele><time>2026-04-05T14:51:15.819Z</time></trkpt><trkpt lat="45.7858417" lon="8.918245"><ele>423.66666666666663</ele><time>2026-04-05T14:51:16.819Z</time></trkpt><trkpt lat="45.7858783" lon="8.9184833"><ele>424.3333333333333</ele><time>2026-04-05T14:51:17.819Z</time></trkpt><trkpt lat="45.7859017" lon="8.91872"><ele>425.0</ele><time>2026-04-05T14:51:18.82Z</time></trkpt><trkpt lat="45.7859283" lon="8.9189733"><ele>425.0</ele><time>2026-04-05T14:51:19.82Z</time></trkpt><trkpt lat="45.78596" lon="8.9192317"><ele>425.0</ele><time>2026-04-05T14:51:20.819Z</time></trkpt><trkpt lat="45.7859917" lon="8.9194783"><ele>425.0</ele><time>2026-04-05T14:51:21.82Z</time></trkpt><trkpt lat="45.78602" lon="8.919705"><ele>424.66666666666663</ele><time>2026-04-05T14:51:22.819Z</time></trkpt><trkpt lat="45.7860467" lon="8.919925"><ele>424.33333333333337</ele><time>2026-04-05T14:51:23.819Z</time></trkpt><trkpt lat="45.7860783" lon="8.9201483"><ele>424.0</ele><time>2026-04-05T14:51:24.819Z</time></trkpt><trkpt lat="45.786105" lon="8.92035"><ele>424.0</ele><time>2026-04-05T14:51:25.819Z</time></trkpt><trkpt lat="45.7861217" lon="8.92055"><ele>424.0</ele><time>2026-04-05T14:51:26.819Z</time></trkpt><trkpt lat="45.7861383" lon="8.92075"><ele>424.0</ele><time>2026-04-05T14:51:27.819Z</time></trkpt><trkpt lat="45.786165" lon="8.9209733"><ele>424.0</ele><time>2026-04-05T14:51:28.819Z</time></trkpt><trkpt lat="45.78619" lon="8.921195"><ele>426.0</ele><time>2026-04-05T14:51:29.819Z</time></trkpt><trkpt lat="45.78621" lon="8.9214117"><ele>428.0</ele><time>2026-04-05T14:51:30.819Z</time></trkpt><trkpt lat="45.78624" lon="8.9216183"><ele>430.0</ele><time>2026-04-05T14:51:31.819Z</time></trkpt><trkpt lat="45.7862733" lon="8.92183"><ele>430.75</ele><time>2026-04-05T14:51:32.819Z</time></trkpt><trkpt lat="45.7863017" lon="8.9220333"><ele>431.5</ele><time>2026-04-05T14:51:33.82Z</time></trkpt><trkpt lat="45.7863317" lon="8.9222433"><ele>432.25</ele><time>2026-04-05T14:51:34.819Z</time></trkpt><trkpt lat="45.7863617" lon="8.92246"><ele>433.0</ele><time>2026-04-05T14:51:35.819Z</time></trkpt><trkpt lat="45.786385" lon="8.9226833"><ele>433.6666666666667</ele><time>2026-04-05T14:51:36.819Z</time></trkpt><trkpt lat="45.7864033" lon="8.9228967"><ele>434.33333333333337</ele><time>2026-04-05T14:51:37.819Z</time></trkpt><trkpt lat="45.7864317" lon="8.9231283"><ele>435.0</ele><time>2026-04-05T14:51:38.819Z</time></trkpt><trkpt lat="45.7864633" lon="8.92336"><ele>434.33333333333337</ele><time>2026-04-05T14:51:39.819Z</time></trkpt><trkpt lat="45.7864917" lon="8.9235733"><ele>433.6666666666667</ele><time>2026-04-05T14:51:40.819Z</time></trkpt><trkpt lat="45.7865133" lon="8.9238"><ele>433.0</ele><time>2026-04-05T14:51:41.819Z</time></trkpt><trkpt lat="45.786545" lon="8.9240333"><ele>432.33333333333337</ele><time>2026-04-05T14:51:42.82Z</time></trkpt><trkpt lat="45.78657" lon="8.9242683"><ele>431.66666666666663</ele><time>2026-04-05T14:51:43.819Z</time></trkpt><trkpt lat="45.7865983" lon="8.9245017"><ele>431.0</ele><time>2026-04-05T14:51:44.819Z</time></trkpt><trkpt lat="45.7866267" lon="8.9247567"><ele>431.0</ele><time>2026-04-05T14:51:45.82Z</time></trkpt><trkpt lat="45.7866533" lon="8.9250183"><ele>431.0</ele><time>2026-04-05T14:51:46.82Z</time></trkpt><trkpt lat="45.7866767" lon="8.9252833"><ele>431.0</ele><time>2026-04-05T14:51:47.819Z</time></trkpt><trkpt lat="45.7867117" lon="8.925535"><ele>431.3333333333333</ele><time>2026-04-05T14:51:48.819Z</time></trkpt><trkpt lat="45.78675" lon="8.92577"><ele>431.66666666666663</ele><time>2026-04-05T14:51:49.82Z</time></trkpt><trkpt lat="45.7867767" lon="8.9259917"><ele>432.0</ele><time>2026-04-05T14:51:50.82Z</time></trkpt><trkpt lat="45.786795" lon="8.926205"><ele>432.0</ele><time>2026-04-05T14:51:51.819Z</time></trkpt><trkpt lat="45.7868217" lon="8.926415"><ele>432.0</ele><time>2026-04-05T14:51:52.819Z</time></trkpt><trkpt lat="45.78685" lon="8.92662"><ele>432.0</ele><time>2026-04-05T14:51:53.819Z</time></trkpt><trkpt lat="45.786875" lon="8.9268317"><ele>432.0</ele><time>2026-04-05T14:51:54.819Z</time></trkpt><trkpt lat="45.7868967" lon="8.9270483"><ele>432.33333333333337</ele><time>2026-04-05T14:51:55.819Z</time></trkpt><trkpt lat="45.78693" lon="8.9272617"><ele>432.6666666666667</ele><time>2026-04-05T14:51:56.819Z</time></trkpt><trkpt lat="45.786955" lon="8.9274883"><ele>433.0</ele><time>2026-04-05T14:51:57.819Z</time></trkpt><trkpt lat="45.7869817" lon="8.9277217"><ele>433.33333333333337</ele><time>2026-04-05T14:51:58.819Z</time></trkpt><trkpt lat="45.786995" lon="8.9279633"><ele>433.66666666666663</ele><time>2026-04-05T14:51:59.819Z</time></trkpt><trkpt lat="45.7870217" lon="8.9281933"><ele>434.0</ele><time>2026-04-05T14:52:00.82Z</time></trkpt><trkpt lat="45.7870417" lon="8.9284183"><ele>434.25</ele><time>2026-04-05T14:52:01.819Z</time></trkpt><trkpt lat="45.7870633" lon="8.9286317"><ele>434.5</ele><time>2026-04-05T14:52:02.819Z</time></trkpt><trkpt lat="45.78708" lon="8.9288283"><ele>434.75</ele><time>2026-04-05T14:52:03.819Z</time></trkpt><trkpt lat="45.7871" lon="8.92902"><ele>435.0</ele><time>2026-04-05T14:52:04.82Z</time></trkpt><trkpt lat="45.7871383" lon="8.9292033"><ele>434.75</ele><time>2026-04-05T14:52:05.819Z</time></trkpt><trkpt lat="45.7871567" lon="8.9293967"><ele>434.5</ele><time>2026-04-05T14:52:06.819Z</time></trkpt><trkpt lat="45.7871817" lon="8.92958"><ele>434.25</ele><time>2026-04-05T14:52:07.819Z</time></trkpt><trkpt lat="45.78722" lon="8.9297533"><ele>434.0</ele><time>2026-04-05T14:52:08.819Z</time></trkpt><trkpt lat="45.7872583" lon="8.9299083"><ele>434.2</ele><time>2026-04-05T14:52:09.819Z</time></trkpt><trkpt lat="45.7872917" lon="8.9300583"><ele>434.4</ele><time>2026-04-05T14:52:10.819Z</time></trkpt><trkpt lat="45.7873183" lon="8.9301967"><ele>434.6</ele><time>2026-04-05T14:52:11.819Z</time></trkpt><trkpt lat="45.7873367" lon="8.9303183"><ele>434.8</ele><time>2026-04-05T14:52:12.819Z</time></trkpt><trkpt lat="45.7873467" lon="8.93044"><ele>435.0</ele><time>2026-04-05T14:52:13.819Z</time></trkpt><trkpt lat="45.78735" lon="8.9305583"><ele>435.0</ele><time>2026-04-05T14:52:14.819Z</time></trkpt><trkpt lat="45.7873567" lon="8.93068"><ele>435.0</ele><time>2026-04-05T14:52:15.819Z</time></trkpt><trkpt lat="45.7873867" lon="8.9307933"><ele>435.0</ele><time>2026-04-05T14:52:16.819Z</time></trkpt><trkpt lat="45.7874367" lon="8.9308933"><ele>435.0</ele><time>2026-04-05T14:52:17.819Z</time></trkpt><trkpt lat="45.7875083" lon="8.93099"><ele>435.0</ele><time>2026-04-05T14:52:18.819Z</time></trkpt><trkpt lat="45.7875983" lon="8.9310733"><ele>436.25</ele><time>2026-04-05T14:52:19.819Z</time></trkpt><trkpt lat="45.7876967" lon="8.9311517"><ele>437.5</ele><time>2026-04-05T14:52:20.82Z</time></trkpt><trkpt lat="45.7878" lon="8.9312567"><ele>438.75</ele><time>2026-04-05T14:52:21.819Z</time></trkpt><trkpt lat="45.7878883" lon="8.9314033"><ele>440.0</ele><time>2026-04-05T14:52:22.819Z</time></trkpt><trkpt lat="45.7879533" lon="8.9315533"><ele>440.0</ele><time>2026-04-05T14:52:23.819Z</time></trkpt><trkpt lat="45.7880133" lon="8.93169"><ele>440.0</ele><time>2026-04-05T14:52:24.819Z</time></trkpt><trkpt lat="45.7880717" lon="8.931815"><ele>440.0</ele><time>2026-04-05T14:52:25.819Z</time></trkpt><trkpt lat="45.7881317" lon="8.93193"><ele>440.0</ele><time>2026-04-05T14:52:26.819Z</time></trkpt><trkpt lat="45.7881933" lon="8.9320567"><ele>440.0</ele><time>2026-04-05T14:52:27.819Z</time></trkpt><trkpt lat="45.788245" lon="8.9321833"><ele>440.5</ele><time>2026-04-05T14:52:28.819Z</time></trkpt><trkpt lat="45.7883067" lon="8.9323267"><ele>441.0</ele><time>2026-04-05T14:52:29.82Z</time></trkpt><trkpt lat="45.78836" lon="8.9324767"><ele>441.5</ele><time>2026-04-05T14:52:30.819Z</time></trkpt><trkpt lat="45.788435" lon="8.9326283"><ele>442.0</ele><time>2026-04-05T14:52:31.819Z</time></trkpt><trkpt lat="45.788505" lon="8.9327783"><ele>443.25</ele><time>2026-04-05T14:52:32.819Z</time></trkpt><trkpt lat="45.7885767" lon="8.9329233"><ele>444.5</ele><time>2026-04-05T14:52:33.819Z</time></trkpt><trkpt lat="45.7886433" lon="8.9330583"><ele>445.75</ele><time>2026-04-05T14:52:34.819Z</time></trkpt><trkpt lat="45.788705" lon="8.9331967"><ele>447.0</ele><time>2026-04-05T14:52:35.819Z</time></trkpt><trkpt lat="45.7887683" lon="8.9333317"><ele>447.5</ele><time>2026-04-05T14:52:36.82Z</time></trkpt><trkpt lat="45.7888217" lon="8.9334833"><ele>448.0</ele><time>2026-04-05T14:52:37.819Z</time></trkpt><trkpt lat="45.78887" lon="8.9336417"><ele>448.5</ele><time>2026-04-05T14:52:38.82Z</time></trkpt><trkpt lat="45.7889067" lon="8.9338067"><ele>449.0</ele><time>2026-04-05T14:52:39.82Z</time></trkpt><trkpt lat="45.78893" lon="8.93398"><ele>449.0</ele><time>2026-04-05T14:52:40.819Z</time></trkpt><trkpt lat="45.7889517" lon="8.934155"><ele>449.0</ele><time>2026-04-05T14:52:41.819Z</time></trkpt><trkpt lat="45.7889767" lon="8.93433"><ele>449.0</ele><time>2026-04-05T14:52:42.819Z</time></trkpt><trkpt lat="45.7890017" lon="8.93451"><ele>449.0</ele><time>2026-04-05T14:52:43.819Z</time></trkpt><trkpt lat="45.7890167" lon="8.93467"><ele>449.0</ele><time>2026-04-05T14:52:44.82Z</time></trkpt><trkpt lat="45.789045" lon="8.9348267"><ele>449.0</ele><time>2026-04-05T14:52:45.819Z</time></trkpt><trkpt lat="45.7890717" lon="8.9349883"><ele>449.0</ele><time>2026-04-05T14:52:46.82Z</time></trkpt><trkpt lat="45.789105" lon="8.935145"><ele>449.0</ele><time>2026-04-05T14:52:47.819Z</time></trkpt><trkpt lat="45.78915" lon="8.9352883"><ele>448.99999999999994</ele><time>2026-04-05T14:52:48.819Z</time></trkpt><trkpt lat="45.789185" lon="8.9354217"><ele>449.0</ele><time>2026-04-05T14:52:49.819Z</time></trkpt><trkpt lat="45.789235" lon="8.9355367"><ele>449.0</ele><time>2026-04-05T14:52:50.819Z</time></trkpt><trkpt lat="45.78929" lon="8.9356433"><ele>449.0</ele><time>2026-04-05T14:52:51.82Z</time></trkpt><trkpt lat="45.7893517" lon="8.935715"><ele>448.99999999999994</ele><time>2026-04-05T14:52:52.819Z</time></trkpt><trkpt lat="45.7894167" lon="8.9357817"><ele>449.0</ele><time>2026-04-05T14:52:53.819Z</time></trkpt><trkpt lat="45.7894833" lon="8.93586"><ele>448.4</ele><time>2026-04-05T14:52:54.819Z</time></trkpt><trkpt lat="45.789545" lon="8.935965"><ele>447.79999999999995</ele><time>2026-04-05T14:52:55.819Z</time></trkpt><trkpt lat="45.7895983" lon="8.936095"><ele>447.20000000000005</ele><time>2026-04-05T14:52:56.819Z</time></trkpt><trkpt lat="45.7896367" lon="8.936255"><ele>446.6</ele><time>2026-04-05T14:52:57.819Z</time></trkpt><trkpt lat="45.789645" lon="8.9364283"><ele>446.0</ele><time>2026-04-05T14:52:58.819Z</time></trkpt><trkpt lat="45.7896367" lon="8.936615"><ele>444.5</ele><time>2026-04-05T14:52:59.819Z</time></trkpt><trkpt lat="45.7895967" lon="8.9368067"><ele>443.0</ele><time>2026-04-05T14:53:00.819Z</time></trkpt><trkpt lat="45.7895583" lon="8.9370133"><ele>441.5</ele><time>2026-04-05T14:53:01.819Z</time></trkpt><trkpt lat="45.7895267" lon="8.937215"><ele>440.0</ele><time>2026-04-05T14:53:02.819Z</time></trkpt><trkpt lat="45.7895033" lon="8.9374183"><ele>439.66666666666663</ele><time>2026-04-05T14:53:03.819Z</time></trkpt><trkpt lat="45.7894733" lon="8.9376317"><ele>439.33333333333337</ele><time>2026-04-05T14:53:04.819Z</time></trkpt><trkpt lat="45.7894417" lon="8.9378617"><ele>439.0</ele><time>2026-04-05T14:53:05.819Z</time></trkpt><trkpt lat="45.789405" lon="8.9381117"><ele>439.0</ele><time>2026-04-05T14:53:06.82Z</time></trkpt><trkpt lat="45.78937" lon="8.938365"><ele>439.0</ele><time>2026-04-05T14:53:07.819Z</time></trkpt><trkpt lat="45.7893217" lon="8.9386067"><ele>439.0</ele><time>2026-04-05T14:53:08.82Z</time></trkpt><trkpt lat="45.789285" lon="8.9388467"><ele>439.0</ele><time>2026-04-05T14:53:09.819Z</time></trkpt><trkpt lat="45.7892483" lon="8.9390783"><ele>439.0</ele><time>2026-04-05T14:53:10.819Z</time></trkpt><trkpt lat="45.789215" lon="8.9393083"><ele>439.0</ele><time>2026-04-05T14:53:11.819Z</time></trkpt><trkpt lat="45.78918" lon="8.939545"><ele>437.33333333333337</ele><time>2026-04-05T14:53:12.819Z</time></trkpt><trkpt lat="45.78915" lon="8.939775"><ele>435.66666666666663</ele><time>2026-04-05T14:53:13.819Z</time></trkpt><trkpt lat="45.78912" lon="8.940005"><ele>434.0</ele><time>2026-04-05T14:53:14.819Z</time></trkpt><trkpt lat="45.78909" lon="8.9402367"><ele>433.3333333333333</ele><time>2026-04-05T14:53:15.819Z</time></trkpt><trkpt lat="45.78906" lon="8.9404667"><ele>432.66666666666663</ele><time>2026-04-05T14:53:16.819Z</time></trkpt><trkpt lat="45.78903" lon="8.9407167"><ele>432.0</ele><time>2026-04-05T14:53:17.819Z</time></trkpt><trkpt lat="45.7889967" lon="8.9409783"><ele>431.33333333333337</ele><time>2026-04-05T14:53:18.82Z</time></trkpt><trkpt lat="45.7889567" lon="8.9412633"><ele>430.6666666666667</ele><time>2026-04-05T14:53:19.819Z</time></trkpt><trkpt lat="45.7889133" lon="8.9415667"><ele>430.0</ele><time>2026-04-05T14:53:20.819Z</time></trkpt><trkpt lat="45.78888" lon="8.941875"><ele>429.0</ele><time>2026-04-05T14:53:21.819Z</time></trkpt><trkpt lat="45.7888317" lon="8.9421817"><ele>428.0</ele><time>2026-04-05T14:53:22.819Z</time></trkpt><trkpt lat="45.788785" lon="8.9424617"><ele>427.0</ele><time>2026-04-05T14:53:23.819Z</time></trkpt><trkpt lat="45.7887467" lon="8.942735"><ele>426.33333333333337</ele><time>2026-04-05T14:53:24.819Z</time></trkpt><trkpt lat="45.788705" lon="8.943005"><ele>425.66666666666663</ele><time>2026-04-05T14:53:25.819Z</time></trkpt><trkpt lat="45.7886633" lon="8.9432733"><ele>425.0</ele><time>2026-04-05T14:53:26.819Z</time></trkpt><trkpt lat="45.7886167" lon="8.9435317"><ele>424.66666666666663</ele><time>2026-04-05T14:53:27.82Z</time></trkpt><trkpt lat="45.7885767" lon="8.9437917"><ele>424.33333333333337</ele><time>2026-04-05T14:53:28.819Z</time></trkpt><trkpt lat="45.788535" lon="8.944045"><ele>424.0</ele><time>2026-04-05T14:53:29.819Z</time></trkpt><trkpt lat="45.7885" lon="8.9442817"><ele>423.0</ele><time>2026-04-05T14:53:30.819Z</time></trkpt><trkpt lat="45.788475" lon="8.9445083"><ele>422.0</ele><time>2026-04-05T14:53:31.819Z</time></trkpt><trkpt lat="45.7884333" lon="8.9447233"><ele>421.0</ele><time>2026-04-05T14:53:32.819Z</time></trkpt><trkpt lat="45.7883983" lon="8.94493"><ele>422.25</ele><time>2026-04-05T14:53:33.819Z</time></trkpt><trkpt lat="45.7883683" lon="8.9451367"><ele>423.5</ele><time>2026-04-05T14:53:34.819Z</time></trkpt><trkpt lat="45.7883367" lon="8.94535"><ele>424.75</ele><time>2026-04-05T14:53:35.819Z</time></trkpt><trkpt lat="45.7883117" lon="8.94556"><ele>426.0</ele><time>2026-04-05T14:53:36.819Z</time></trkpt><trkpt lat="45.7882767" lon="8.945765"><ele>425.75</ele><time>2026-04-05T14:53:37.819Z</time></trkpt><trkpt lat="45.7882467" lon="8.9459683"><ele>425.5</ele><time>2026-04-05T14:53:38.819Z</time></trkpt><trkpt lat="45.78822" lon="8.9461633"><ele>425.25</ele><time>2026-04-05T14:53:39.819Z</time></trkpt><trkpt lat="45.7881967" lon="8.946345"><ele>425.0</ele><time>2026-04-05T14:53:40.819Z</time></trkpt><trkpt lat="45.7881717" lon="8.9465133"><ele>424.99999999999994</ele><time>2026-04-05T14:53:41.819Z</time></trkpt><trkpt lat="45.788145" lon="8.9466533"><ele>425.0</ele><time>2026-04-05T14:53:42.819Z</time></trkpt><trkpt lat="45.7881267" lon="8.9467833"><ele>425.0</ele><time>2026-04-05T14:53:43.82Z</time></trkpt><trkpt lat="45.7881083" lon="8.9468983"><ele>425.0</ele><time>2026-04-05T14:53:44.819Z</time></trkpt><trkpt lat="45.7880933" lon="8.9470117"><ele>424.99999999999994</ele><time>2026-04-05T14:53:45.819Z</time></trkpt><trkpt lat="45.7880817" lon="8.9471233"><ele>425.0</ele><time>2026-04-05T14:53:46.819Z</time></trkpt><trkpt lat="45.78808" lon="8.9472233"><ele>424.8333333333333</ele><time>2026-04-05T14:53:47.82Z</time></trkpt><trkpt lat="45.7880733" lon="8.947315"><ele>424.66666666666663</ele><time>2026-04-05T14:53:48.82Z</time></trkpt><trkpt lat="45.788085" lon="8.947445"><ele>424.5</ele><time>2026-04-05T14:53:50.819Z</time></trkpt><trkpt lat="45.7881117" lon="8.9475867"><ele>424.33333333333337</ele><time>2026-04-05T14:53:52.819Z</time></trkpt><trkpt lat="45.7881233" lon="8.947695"><ele>424.1666666666667</ele><time>2026-04-05T14:53:53.819Z</time></trkpt><trkpt lat="45.7881433" lon="8.947835"><ele>424.0</ele><time>2026-04-05T14:53:54.819Z</time></trkpt><trkpt lat="45.7881783" lon="8.9480167"><ele>422.75</ele><time>2026-04-05T14:53:55.819Z</time></trkpt><trkpt lat="45.78821" lon="8.9481933"><ele>421.5</ele><time>2026-04-05T14:53:56.819Z</time></trkpt><trkpt lat="45.7882383" lon="8.9483683"><ele>420.25</ele><time>2026-04-05T14:53:57.819Z</time></trkpt><trkpt lat="45.788265" lon="8.9485483"><ele>419.0</ele><time>2026-04-05T14:53:58.819Z</time></trkpt><trkpt lat="45.788285" lon="8.948725"><ele>418.25</ele><time>2026-04-05T14:53:59.82Z</time></trkpt><trkpt lat="45.7883033" lon="8.9489067"><ele>417.5</ele><time>2026-04-05T14:54:00.819Z</time></trkpt><trkpt lat="45.788325" lon="8.9490983"><ele>416.75</ele><time>2026-04-05T14:54:01.82Z</time></trkpt><trkpt lat="45.7883483" lon="8.9493"><ele>416.0</ele><time>2026-04-05T14:54:02.819Z</time></trkpt><trkpt lat="45.7883733" lon="8.9495117"><ele>416.0</ele><time>2026-04-05T14:54:03.819Z</time></trkpt><trkpt lat="45.7884" lon="8.94972"><ele>416.0</ele><time>2026-04-05T14:54:04.819Z</time></trkpt><trkpt lat="45.7884367" lon="8.9499367"><ele>416.0</ele><time>2026-04-05T14:54:05.819Z</time></trkpt><trkpt lat="45.7884683" lon="8.95018"><ele>415.5</ele><time>2026-04-05T14:54:06.82Z</time></trkpt><trkpt lat="45.7884983" lon="8.9504183"><ele>415.0</ele><time>2026-04-05T14:54:07.819Z</time></trkpt><trkpt lat="45.788515" lon="8.950635"><ele>414.5</ele><time>2026-04-05T14:54:08.819Z</time></trkpt><trkpt lat="45.788515" lon="8.95081"><ele>414.0</ele><time>2026-04-05T14:54:09.819Z</time></trkpt><trkpt lat="45.788495" lon="8.9509517"><ele>413.8333333333333</ele><time>2026-04-05T14:54:10.819Z</time></trkpt><trkpt lat="45.7884467" lon="8.9510517"><ele>413.66666666666663</ele><time>2026-04-05T14:54:11.819Z</time></trkpt><trkpt lat="45.78839" lon="8.9511117"><ele>413.5</ele><time>2026-04-05T14:54:12.819Z</time></trkpt><trkpt lat="45.7883317" lon="8.951165"><ele>413.3333333333333</ele><time>2026-04-05T14:54:13.819Z</time></trkpt><trkpt lat="45.7883017" lon="8.9513167"><ele>413.16666666666663</ele><time>2026-04-05T14:54:15.819Z</time></trkpt><trkpt lat="45.7883183" lon="8.9514117"><ele>413.0</ele><time>2026-04-05T14:54:16.819Z</time></trkpt><trkpt lat="45.7883383" lon="8.9515367"><ele>413.0</ele><time>2026-04-05T14:54:17.819Z</time></trkpt><trkpt lat="45.7883417" lon="8.951675"><ele>413.0</ele><time>2026-04-05T14:54:18.82Z</time></trkpt><trkpt lat="45.7883133" lon="8.9518"><ele>413.0</ele><time>2026-04-05T14:54:19.819Z</time></trkpt><trkpt lat="45.7882717" lon="8.9519217"><ele>413.0</ele><time>2026-04-05T14:54:20.82Z</time></trkpt><trkpt lat="45.7882133" lon="8.9520583"><ele>413.0</ele><time>2026-04-05T14:54:21.819Z</time></trkpt><trkpt lat="45.78817" lon="8.9522"><ele>413.25</ele><time>2026-04-05T14:54:22.819Z</time></trkpt><trkpt lat="45.788125" lon="8.952345"><ele>413.5</ele><time>2026-04-05T14:54:23.818Z</time></trkpt><trkpt lat="45.7880733" lon="8.952495"><ele>413.75</ele><time>2026-04-05T14:54:24.818Z</time></trkpt><trkpt lat="45.78801" lon="8.9526667"><ele>414.0</ele><time>2026-04-05T14:54:25.818Z</time></trkpt><trkpt lat="45.78795" lon="8.952845"><ele>412.66666666666663</ele><time>2026-04-05T14:54:26.818Z</time></trkpt><trkpt lat="45.7878867" lon="8.9530267"><ele>411.3333333333333</ele><time>2026-04-05T14:54:27.818Z</time></trkpt><trkpt lat="45.7878233" lon="8.9532433"><ele>410.0</ele><time>2026-04-05T14:54:28.818Z</time></trkpt><trkpt lat="45.78775" lon="8.95348"><ele>408.66666666666663</ele><time>2026-04-05T14:54:29.818Z</time></trkpt><trkpt lat="45.787655" lon="8.9537333"><ele>407.33333333333337</ele><time>2026-04-05T14:54:30.818Z</time></trkpt><trkpt lat="45.78755" lon="8.9539983"><ele>406.0</ele><time>2026-04-05T14:54:31.818Z</time></trkpt><trkpt lat="45.7874567" lon="8.9542567"><ele>406.0</ele><time>2026-04-05T14:54:32.818Z</time></trkpt><trkpt lat="45.78737" lon="8.9545017"><ele>406.0</ele><time>2026-04-05T14:54:33.818Z</time></trkpt><trkpt lat="45.7872933" lon="8.9547317"><ele>406.0</ele><time>2026-04-05T14:54:34.818Z</time></trkpt><trkpt lat="45.7872167" lon="8.9549567"><ele>406.0</ele><time>2026-04-05T14:54:35.819Z</time></trkpt><trkpt lat="45.787145" lon="8.95516"><ele>406.0</ele><time>2026-04-05T14:54:36.818Z</time></trkpt><trkpt lat="45.787075" lon="8.9553517"><ele>406.0</ele><time>2026-04-05T14:54:37.819Z</time></trkpt><trkpt lat="45.7870067" lon="8.9555317"><ele>406.0</ele><time>2026-04-05T14:54:38.818Z</time></trkpt><trkpt lat="45.7869483" lon="8.9556967"><ele>406.0</ele><time>2026-04-05T14:54:39.818Z</time></trkpt><trkpt lat="45.7868883" lon="8.95586"><ele>406.0</ele><time>2026-04-05T14:54:40.818Z</time></trkpt><trkpt lat="45.7868517" lon="8.95601"><ele>406.0</ele><time>2026-04-05T14:54:41.818Z</time></trkpt><trkpt lat="45.7868033" lon="8.9561467"><ele>405.33333333333337</ele><time>2026-04-05T14:54:42.818Z</time></trkpt><trkpt lat="45.7867617" lon="8.9562633"><ele>404.6666666666667</ele><time>2026-04-05T14:54:43.819Z</time></trkpt><trkpt lat="45.78671" lon="8.956375"><ele>404.0</ele><time>2026-04-05T14:54:44.818Z</time></trkpt><trkpt lat="45.7866533" lon="8.956465"><ele>403.33333333333337</ele><time>2026-04-05T14:54:45.819Z</time></trkpt><trkpt lat="45.786595" lon="8.9565483"><ele>402.6666666666667</ele><time>2026-04-05T14:54:46.818Z</time></trkpt><trkpt lat="45.7865467" lon="8.9566283"><ele>402.0</ele><time>2026-04-05T14:54:47.818Z</time></trkpt><trkpt lat="45.7865083" lon="8.9567333"><ele>402.0</ele><time>2026-04-05T14:54:48.819Z</time></trkpt><trkpt lat="45.786495" lon="8.9568517"><ele>402.0</ele><time>2026-04-05T14:54:49.819Z</time></trkpt><trkpt lat="45.7864917" lon="8.9569983"><ele>402.0</ele><time>2026-04-05T14:54:50.818Z</time></trkpt><trkpt lat="45.7864833" lon="8.9571567"><ele>402.0</ele><time>2026-04-05T14:54:51.818Z</time></trkpt><trkpt lat="45.7864467" lon="8.9573217"><ele>402.0</ele><time>2026-04-05T14:54:52.818Z</time></trkpt><trkpt lat="45.7863867" lon="8.95747"><ele>402.25</ele><time>2026-04-05T14:54:53.818Z</time></trkpt><trkpt lat="45.7863183" lon="8.95761"><ele>402.5</ele><time>2026-04-05T14:54:54.818Z</time></trkpt><trkpt lat="45.7862567" lon="8.9577633"><ele>402.75</ele><time>2026-04-05T14:54:55.818Z</time></trkpt><trkpt lat="45.7862033" lon="8.9579267"><ele>403.0</ele><time>2026-04-05T14:54:56.818Z</time></trkpt><trkpt lat="45.786155" lon="8.9580833"><ele>403.0</ele><time>2026-04-05T14:54:57.819Z</time></trkpt><trkpt lat="45.7861" lon="8.9582233"><ele>403.0</ele><time>2026-04-05T14:54:58.819Z</time></trkpt><trkpt lat="45.78605" lon="8.95835"><ele>403.0</ele><time>2026-04-05T14:54:59.819Z</time></trkpt><trkpt lat="45.78601" lon="8.9584683"><ele>403.0</ele><time>2026-04-05T14:55:00.818Z</time></trkpt><trkpt lat="45.7859667" lon="8.9585683"><ele>403.0</ele><time>2026-04-05T14:55:01.818Z</time></trkpt><trkpt lat="45.78593" lon="8.9586683"><ele>402.7142857142857</ele><time>2026-04-05T14:55:02.818Z</time></trkpt><trkpt lat="45.7859033" lon="8.9587683"><ele>402.4285714285714</ele><time>2026-04-05T14:55:03.818Z</time></trkpt><trkpt lat="45.7858767" lon="8.9588567"><ele>402.1428571428571</ele><time>2026-04-05T14:55:04.818Z</time></trkpt><trkpt lat="45.7858617" lon="8.9589467"><ele>401.8571428571429</ele><time>2026-04-05T14:55:05.818Z</time></trkpt><trkpt lat="45.7858667" lon="8.9590367"><ele>401.57142857142856</ele><time>2026-04-05T14:55:06.818Z</time></trkpt><trkpt lat="45.785905" lon="8.9591233"><ele>401.2857142857143</ele><time>2026-04-05T14:55:07.819Z</time></trkpt><trkpt lat="45.7859667" lon="8.9591983"><ele>401.0</ele><time>2026-04-05T14:55:08.818Z</time></trkpt><trkpt lat="45.786045" lon="8.9592783"><ele>402.0</ele><time>2026-04-05T14:55:09.818Z</time></trkpt><trkpt lat="45.7861283" lon="8.9593633"><ele>403.0</ele><time>2026-04-05T14:55:10.818Z</time></trkpt><trkpt lat="45.7862033" lon="8.9594783"><ele>404.0</ele><time>2026-04-05T14:55:11.818Z</time></trkpt><trkpt lat="45.7862767" lon="8.95959"><ele>405.0</ele><time>2026-04-05T14:55:12.818Z</time></trkpt><trkpt lat="45.7863433" lon="8.959705"><ele>406.0</ele><time>2026-04-05T14:55:13.818Z</time></trkpt><trkpt lat="45.7863767" lon="8.9598533"><ele>406.0</ele><time>2026-04-05T14:55:14.819Z</time></trkpt><trkpt lat="45.7864033" lon="8.9600133"><ele>406.0</ele><time>2026-04-05T14:55:15.819Z</time></trkpt><trkpt lat="45.786425" lon="8.9601933"><ele>406.0</ele><time>2026-04-05T14:55:16.818Z</time></trkpt><trkpt lat="45.7864467" lon="8.9603783"><ele>406.0</ele><time>2026-04-05T14:55:17.818Z</time></trkpt><trkpt lat="45.7864567" lon="8.9605517"><ele>406.5</ele><time>2026-04-05T14:55:18.818Z</time></trkpt><trkpt lat="45.7864483" lon="8.9607217"><ele>407.0</ele><time>2026-04-05T14:55:19.819Z</time></trkpt><trkpt lat="45.7864133" lon="8.9608833"><ele>407.5</ele><time>2026-04-05T14:55:20.818Z</time></trkpt><trkpt lat="45.7863667" lon="8.9610433"><ele>408.0</ele><time>2026-04-05T14:55:21.818Z</time></trkpt><trkpt lat="45.7863267" lon="8.9611883"><ele>409.0</ele><time>2026-04-05T14:55:22.818Z</time></trkpt><trkpt lat="45.7862917" lon="8.961335"><ele>410.0</ele><time>2026-04-05T14:55:23.819Z</time></trkpt><trkpt lat="45.7862567" lon="8.9614967"><ele>411.0</ele><time>2026-04-05T14:55:24.818Z</time></trkpt><trkpt lat="45.78623" lon="8.9616667"><ele>412.0</ele><time>2026-04-05T14:55:25.819Z</time></trkpt><trkpt lat="45.786235" lon="8.961825"><ele>412.75</ele><time>2026-04-05T14:55:26.818Z</time></trkpt><trkpt lat="45.7862617" lon="8.961995"><ele>413.5</ele><time>2026-04-05T14:55:27.818Z</time></trkpt><trkpt lat="45.7862833" lon="8.9621633"><ele>414.25</ele><time>2026-04-05T14:55:28.818Z</time></trkpt><trkpt lat="45.7862767" lon="8.962335"><ele>415.0</ele><time>2026-04-05T14:55:29.818Z</time></trkpt><trkpt lat="45.7862383" lon="8.962505"><ele>416.25</ele><time>2026-04-05T14:55:30.819Z</time></trkpt><trkpt lat="45.78619" lon="8.9626667"><ele>417.5</ele><time>2026-04-05T14:55:31.819Z</time></trkpt><trkpt lat="45.78614" lon="8.9628167"><ele>418.75</ele><time>2026-04-05T14:55:32.818Z</time></trkpt><trkpt lat="45.7860917" lon="8.9629617"><ele>420.0</ele><time>2026-04-05T14:55:33.818Z</time></trkpt><trkpt lat="45.7860383" lon="8.9631017"><ele>418.25</ele><time>2026-04-05T14:55:34.818Z</time></trkpt><trkpt lat="45.7859917" lon="8.9632583"><ele>416.5</ele><time>2026-04-05T14:55:35.818Z</time></trkpt><trkpt lat="45.78595" lon="8.9634233"><ele>414.75</ele><time>2026-04-05T14:55:36.818Z</time></trkpt><trkpt lat="45.78592" lon="8.96361"><ele>413.0</ele><time>2026-04-05T14:55:37.818Z</time></trkpt><trkpt lat="45.7859017" lon="8.96379"><ele>413.0</ele><time>2026-04-05T14:55:38.818Z</time></trkpt><trkpt lat="45.7858867" lon="8.9639883"><ele>413.0</ele><time>2026-04-05T14:55:39.818Z</time></trkpt><trkpt lat="45.78588" lon="8.964195"><ele>413.0</ele><time>2026-04-05T14:55:40.819Z</time></trkpt><trkpt lat="45.7858717" lon="8.9644"><ele>413.0</ele><time>2026-04-05T14:55:41.818Z</time></trkpt><trkpt lat="45.78587" lon="8.9646"><ele>413.25</ele><time>2026-04-05T14:55:42.818Z</time></trkpt><trkpt lat="45.785875" lon="8.9647883"><ele>413.5</ele><time>2026-04-05T14:55:43.818Z</time></trkpt><trkpt lat="45.78587" lon="8.9649717"><ele>413.75</ele><time>2026-04-05T14:55:44.819Z</time></trkpt><trkpt lat="45.7858783" lon="8.96515"><ele>414.0</ele><time>2026-04-05T14:55:45.818Z</time></trkpt><trkpt lat="45.78589" lon="8.9653233"><ele>414.0</ele><time>2026-04-05T14:55:46.818Z</time></trkpt><trkpt lat="45.7859067" lon="8.9655017"><ele>414.0</ele><time>2026-04-05T14:55:47.818Z</time></trkpt><trkpt lat="45.7859317" lon="8.9657017"><ele>414.0</ele><time>2026-04-05T14:55:48.818Z</time></trkpt><trkpt lat="45.7859467" lon="8.9659083"><ele>414.0</ele><time>2026-04-05T14:55:49.818Z</time></trkpt><trkpt lat="45.7859533" lon="8.96611"><ele>413.5</ele><time>2026-04-05T14:55:50.818Z</time></trkpt><trkpt lat="45.785965" lon="8.9662983"><ele>413.0</ele><time>2026-04-05T14:55:51.818Z</time></trkpt><trkpt lat="45.78597" lon="8.9664717"><ele>412.5</ele><time>2026-04-05T14:55:52.818Z</time></trkpt><trkpt lat="45.785965" lon="8.9666367"><ele>412.0</ele><time>2026-04-05T14:55:53.819Z</time></trkpt><trkpt lat="45.7859667" lon="8.966775"><ele>412.00000000000006</ele><time>2026-04-05T14:55:54.818Z</time></trkpt><trkpt lat="45.7859683" lon="8.9668817"><ele>412.0</ele><time>2026-04-05T14:55:55.818Z</time></trkpt><trkpt lat="45.785955" lon="8.9670167"><ele>412.0</ele><time>2026-04-05T14:55:57.819Z</time></trkpt><trkpt lat="45.785905" lon="8.9671267"><ele>412.0</ele><time>2026-04-05T14:56:01.819Z</time></trkpt><trkpt lat="45.7859067" lon="8.9672383"><ele>412.00000000000006</ele><time>2026-04-05T14:56:03.818Z</time></trkpt><trkpt lat="45.78598" lon="8.9672733"><ele>412.0</ele><time>2026-04-05T14:56:05.819Z</time></trkpt><trkpt lat="45.7860567" lon="8.96728"><ele>412.0</ele><time>2026-04-05T14:56:06.818Z</time></trkpt><trkpt lat="45.7861667" lon="8.967285"><ele>412.0</ele><time>2026-04-05T14:56:07.818Z</time></trkpt><trkpt lat="45.7862967" lon="8.9673083"><ele>412.0</ele><time>2026-04-05T14:56:08.818Z</time></trkpt><trkpt lat="45.786435" lon="8.96735"><ele>412.0</ele><time>2026-04-05T14:56:09.818Z</time></trkpt><trkpt lat="45.7865767" lon="8.9673883"><ele>412.0</ele><time>2026-04-05T14:56:10.818Z</time></trkpt><trkpt lat="45.7867083" lon="8.96743"><ele>412.0</ele><time>2026-04-05T14:56:11.818Z</time></trkpt><trkpt lat="45.786845" lon="8.9674733"><ele>412.0</ele><time>2026-04-05T14:56:12.819Z</time></trkpt><trkpt lat="45.7869817" lon="8.967505"><ele>412.0</ele><time>2026-04-05T14:56:13.818Z</time></trkpt><trkpt lat="45.7871067" lon="8.9675417"><ele>411.75</ele><time>2026-04-05T14:56:14.818Z</time></trkpt><trkpt lat="45.7872417" lon="8.96758"><ele>411.5</ele><time>2026-04-05T14:56:15.818Z</time></trkpt><trkpt lat="45.78738" lon="8.9676233"><ele>411.25</ele><time>2026-04-05T14:56:16.818Z</time></trkpt><trkpt lat="45.7875183" lon="8.96767"><ele>411.0</ele><time>2026-04-05T14:56:17.818Z</time></trkpt><trkpt lat="45.7876633" lon="8.9677017"><ele>410.25</ele><time>2026-04-05T14:56:18.819Z</time></trkpt><trkpt lat="45.7877917" lon="8.9677417"><ele>409.5</ele><time>2026-04-05T14:56:19.819Z</time></trkpt><trkpt lat="45.78794" lon="8.9677883"><ele>408.75</ele><time>2026-04-05T14:56:20.818Z</time></trkpt><trkpt lat="45.7880817" lon="8.9678383"><ele>408.0</ele><time>2026-04-05T14:56:21.818Z</time></trkpt><trkpt lat="45.7882233" lon="8.9678833"><ele>408.0</ele><time>2026-04-05T14:56:22.818Z</time></trkpt><trkpt lat="45.7883517" lon="8.9679183"><ele>408.0</ele><time>2026-04-05T14:56:23.819Z</time></trkpt><trkpt lat="45.7884767" lon="8.9679367"><ele>408.0</ele><time>2026-04-05T14:56:24.819Z</time></trkpt><trkpt lat="45.788615" lon="8.967955"><ele>408.0</ele><time>2026-04-05T14:56:25.818Z</time></trkpt><trkpt lat="45.788765" lon="8.9679283"><ele>405.66666666666663</ele><time>2026-04-05T14:56:26.818Z</time></trkpt><trkpt lat="45.7889117" lon="8.96788"><ele>403.3333333333333</ele><time>2026-04-05T14:56:27.818Z</time></trkpt><trkpt lat="45.7890683" lon="8.967815"><ele>401.0</ele><time>2026-04-05T14:56:28.818Z</time></trkpt><trkpt lat="45.7892217" lon="8.9677467"><ele>398.66666666666663</ele><time>2026-04-05T14:56:29.818Z</time></trkpt><trkpt lat="45.7893833" lon="8.9676767"><ele>396.33333333333337</ele><time>2026-04-05T14:56:30.819Z</time></trkpt><trkpt lat="45.7895417" lon="8.9676067"><ele>394.0</ele><time>2026-04-05T14:56:31.818Z</time></trkpt><trkpt lat="45.7896867" lon="8.9675367"><ele>394.33333333333337</ele><time>2026-04-05T14:56:32.819Z</time></trkpt><trkpt lat="45.7898333" lon="8.967475"><ele>394.66666666666663</ele><time>2026-04-05T14:56:33.819Z</time></trkpt><trkpt lat="45.789985" lon="8.9674117"><ele>395.0</ele><time>2026-04-05T14:56:34.818Z</time></trkpt><trkpt lat="45.7901267" lon="8.9673467"><ele>394.0</ele><time>2026-04-05T14:56:35.818Z</time></trkpt><trkpt lat="45.790265" lon="8.967285"><ele>393.0</ele><time>2026-04-05T14:56:36.818Z</time></trkpt><trkpt lat="45.7904033" lon="8.9672367"><ele>392.0</ele><time>2026-04-05T14:56:37.818Z</time></trkpt><trkpt lat="45.790535" lon="8.96718"><ele>391.0</ele><time>2026-04-05T14:56:38.819Z</time></trkpt><trkpt lat="45.7906733" lon="8.96714"><ele>391.0</ele><time>2026-04-05T14:56:39.819Z</time></trkpt><trkpt lat="45.7908183" lon="8.96714"><ele>391.0</ele><time>2026-04-05T14:56:40.818Z</time></trkpt><trkpt lat="45.79096" lon="8.967195"><ele>391.0</ele><time>2026-04-05T14:56:41.819Z</time></trkpt><trkpt lat="45.7911083" lon="8.9673083"><ele>391.0</ele><time>2026-04-05T14:56:42.818Z</time></trkpt><trkpt lat="45.7912583" lon="8.9674533"><ele>391.0</ele><time>2026-04-05T14:56:43.818Z</time></trkpt><trkpt lat="45.7914167" lon="8.9676083"><ele>391.0</ele><time>2026-04-05T14:56:44.819Z</time></trkpt><trkpt lat="45.7915867" lon="8.9677683"><ele>391.0</ele><time>2026-04-05T14:56:45.819Z</time></trkpt><trkpt lat="45.791755" lon="8.9679217"><ele>391.0</ele><time>2026-04-05T14:56:46.818Z</time></trkpt><trkpt lat="45.791905" lon="8.96807"><ele>391.0</ele><time>2026-04-05T14:56:47.818Z</time></trkpt><trkpt lat="45.7920483" lon="8.9682183"><ele>391.0</ele><time>2026-04-05T14:56:48.819Z</time></trkpt><trkpt lat="45.792185" lon="8.9683583"><ele>391.0</ele><time>2026-04-05T14:56:49.818Z</time></trkpt><trkpt lat="45.7923117" lon="8.9684867"><ele>391.0</ele><time>2026-04-05T14:56:50.818Z</time></trkpt><trkpt lat="45.7924383" lon="8.9686183"><ele>391.0</ele><time>2026-04-05T14:56:51.818Z</time></trkpt><trkpt lat="45.7925683" lon="8.9687483"><ele>391.0</ele><time>2026-04-05T14:56:52.818Z</time></trkpt><trkpt lat="45.7927017" lon="8.9688817"><ele>391.0</ele><time>2026-04-05T14:56:53.818Z</time></trkpt><trkpt lat="45.7928333" lon="8.969015"><ele>391.33333333333337</ele><time>2026-04-05T14:56:54.818Z</time></trkpt><trkpt lat="45.792975" lon="8.9691533"><ele>391.66666666666663</ele><time>2026-04-05T14:56:55.818Z</time></trkpt><trkpt lat="45.7931167" lon="8.9692967"><ele>392.0</ele><time>2026-04-05T14:56:56.818Z</time></trkpt><trkpt lat="45.7932567" lon="8.9694383"><ele>391.66666666666663</ele><time>2026-04-05T14:56:57.818Z</time></trkpt><trkpt lat="45.7934" lon="8.9695733"><ele>391.33333333333337</ele><time>2026-04-05T14:56:58.818Z</time></trkpt><trkpt lat="45.7935317" lon="8.9697133"><ele>391.0</ele><time>2026-04-05T14:56:59.818Z</time></trkpt><trkpt lat="45.7936567" lon="8.9698383"><ele>391.0</ele><time>2026-04-05T14:57:00.818Z</time></trkpt><trkpt lat="45.7937817" lon="8.9699683"><ele>391.0</ele><time>2026-04-05T14:57:01.818Z</time></trkpt><trkpt lat="45.793905" lon="8.9700783"><ele>391.0</ele><time>2026-04-05T14:57:02.819Z</time></trkpt><trkpt lat="45.7940267" lon="8.9701817"><ele>391.0</ele><time>2026-04-05T14:57:03.818Z</time></trkpt><trkpt lat="45.7941517" lon="8.9702667"><ele>391.0</ele><time>2026-04-05T14:57:04.819Z</time></trkpt><trkpt lat="45.79431" lon="8.970325"><ele>391.0</ele><time>2026-04-05T14:57:05.818Z</time></trkpt><trkpt lat="45.7944717" lon="8.970345"><ele>391.0</ele><time>2026-04-05T14:57:06.818Z</time></trkpt><trkpt lat="45.79461" lon="8.9703233"><ele>392.6666666666667</ele><time>2026-04-05T14:57:07.818Z</time></trkpt><trkpt lat="45.794765" lon="8.9702933"><ele>394.33333333333337</ele><time>2026-04-05T14:57:08.818Z</time></trkpt><trkpt lat="45.7949017" lon="8.9702417"><ele>396.0</ele><time>2026-04-05T14:57:09.819Z</time></trkpt><trkpt lat="45.79506" lon="8.97021"><ele>392.0</ele><time>2026-04-05T14:57:10.818Z</time></trkpt><trkpt lat="45.7952217" lon="8.9701883"><ele>388.0</ele><time>2026-04-05T14:57:11.818Z</time></trkpt><trkpt lat="45.7953883" lon="8.9701633"><ele>384.0</ele><time>2026-04-05T14:57:12.818Z</time></trkpt><trkpt lat="45.7955533" lon="8.9701433"><ele>384.0</ele><time>2026-04-05T14:57:13.818Z</time></trkpt><trkpt lat="45.7957167" lon="8.9701267"><ele>384.0</ele><time>2026-04-05T14:57:14.818Z</time></trkpt><trkpt lat="45.7958883" lon="8.9701167"><ele>384.0</ele><time>2026-04-05T14:57:15.818Z</time></trkpt><trkpt lat="45.7960533" lon="8.9700967"><ele>383.25</ele><time>2026-04-05T14:57:16.819Z</time></trkpt><trkpt lat="45.7962067" lon="8.9700817"><ele>382.5</ele><time>2026-04-05T14:57:17.818Z</time></trkpt><trkpt lat="45.7963283" lon="8.9700567"><ele>381.75</ele><time>2026-04-05T14:57:18.818Z</time></trkpt><trkpt lat="45.79644" lon="8.9700383"><ele>381.0</ele><time>2026-04-05T14:57:19.818Z</time></trkpt><trkpt lat="45.7965217" lon="8.9700283"><ele>381.0</ele><time>2026-04-05T14:57:20.819Z</time></trkpt><trkpt lat="45.7966267" lon="8.97003"><ele>381.0</ele><time>2026-04-05T14:57:22.818Z</time></trkpt><trkpt lat="45.7967083" lon="8.9700483"><ele>381.0</ele><time>2026-04-05T14:57:24.818Z</time></trkpt><trkpt lat="45.7968083" lon="8.9700383"><ele>381.0</ele><time>2026-04-05T14:57:26.819Z</time></trkpt><trkpt lat="45.7969333" lon="8.97006"><ele>381.0</ele><time>2026-04-05T14:57:28.818Z</time></trkpt><trkpt lat="45.796995" lon="8.970085"><ele>380.8</ele><time>2026-04-05T14:57:29.818Z</time></trkpt><trkpt lat="45.7970633" lon="8.970125"><ele>380.6</ele><time>2026-04-05T14:57:30.818Z</time></trkpt><trkpt lat="45.7971267" lon="8.9701817"><ele>380.4</ele><time>2026-04-05T14:57:31.818Z</time></trkpt><trkpt lat="45.7972083" lon="8.9702883"><ele>380.2</ele><time>2026-04-05T14:57:33.818Z</time></trkpt><trkpt lat="45.7973017" lon="8.97043"><ele>380.0</ele><time>2026-04-05T14:57:35.819Z</time></trkpt><trkpt lat="45.797375" lon="8.9705333"><ele>380.0</ele><time>2026-04-05T14:57:36.818Z</time></trkpt><trkpt lat="45.79746" lon="8.9706733"><ele>380.0</ele><time>2026-04-05T14:57:37.818Z</time></trkpt><trkpt lat="45.7975633" lon="8.970815"><ele>380.0</ele><time>2026-04-05T14:57:38.818Z</time></trkpt><trkpt lat="45.797675" lon="8.97096"><ele>380.0</ele><time>2026-04-05T14:57:39.819Z</time></trkpt><trkpt lat="45.7977917" lon="8.9711117"><ele>380.6666666666667</ele><time>2026-04-05T14:57:40.818Z</time></trkpt><trkpt lat="45.7979183" lon="8.9712817"><ele>381.3333333333333</ele><time>2026-04-05T14:57:41.818Z</time></trkpt><trkpt lat="45.7980417" lon="8.9714683"><ele>382.0</ele><time>2026-04-05T14:57:42.819Z</time></trkpt><trkpt lat="45.7981683" lon="8.97165"><ele>382.0</ele><time>2026-04-05T14:57:43.819Z</time></trkpt><trkpt lat="45.798305" lon="8.9718267"><ele>382.0</ele><time>2026-04-05T14:57:44.818Z</time></trkpt><trkpt lat="45.7984467" lon="8.9719983"><ele>382.0</ele><time>2026-04-05T14:57:45.819Z</time></trkpt><trkpt lat="45.7985733" lon="8.9721833"><ele>380.66666666666663</ele><time>2026-04-05T14:57:46.818Z</time></trkpt><trkpt lat="45.7986817" lon="8.97238"><ele>379.3333333333333</ele><time>2026-04-05T14:57:47.819Z</time></trkpt><trkpt lat="45.798755" lon="8.9726"><ele>378.0</ele><time>2026-04-05T14:57:48.818Z</time></trkpt><trkpt lat="45.798815" lon="8.97283"><ele>378.0</ele><time>2026-04-05T14:57:49.818Z</time></trkpt><trkpt lat="45.7988767" lon="8.9730767"><ele>378.0</ele><time>2026-04-05T14:57:50.818Z</time></trkpt><trkpt lat="45.7989417" lon="8.97332"><ele>378.0</ele><time>2026-04-05T14:57:51.818Z</time></trkpt><trkpt lat="45.7990217" lon="8.9735633"><ele>378.0</ele><time>2026-04-05T14:57:52.818Z</time></trkpt><trkpt lat="45.7991083" lon="8.97381"><ele>378.0</ele><time>2026-04-05T14:57:53.819Z</time></trkpt><trkpt lat="45.7991983" lon="8.9740433"><ele>378.0</ele><time>2026-04-05T14:57:54.819Z</time></trkpt><trkpt lat="45.7992783" lon="8.9742683"><ele>378.3333333333333</ele><time>2026-04-05T14:57:55.818Z</time></trkpt><trkpt lat="45.7993533" lon="8.9744917"><ele>378.66666666666663</ele><time>2026-04-05T14:57:56.818Z</time></trkpt><trkpt lat="45.7994233" lon="8.9747017"><ele>379.0</ele><time>2026-04-05T14:57:57.818Z</time></trkpt><trkpt lat="45.7994917" lon="8.9749133"><ele>378.66666666666663</ele><time>2026-04-05T14:57:58.818Z</time></trkpt><trkpt lat="45.79957" lon="8.9751083"><ele>378.3333333333333</ele><time>2026-04-05T14:57:59.818Z</time></trkpt><trkpt lat="45.7996467" lon="8.9752967"><ele>378.0</ele><time>2026-04-05T14:58:00.818Z</time></trkpt><trkpt lat="45.7997283" lon="8.9754833"><ele>378.0</ele><time>2026-04-05T14:58:01.818Z</time></trkpt><trkpt lat="45.7998117" lon="8.9756433"><ele>378.0</ele><time>2026-04-05T14:58:02.818Z</time></trkpt><trkpt lat="45.799905" lon="8.9757883"><ele>378.0</ele><time>2026-04-05T14:58:03.818Z</time></trkpt><trkpt lat="45.8000017" lon="8.9759167"><ele>378.0</ele><time>2026-04-05T14:58:04.818Z</time></trkpt><trkpt lat="45.8000983" lon="8.976045"><ele>376.0</ele><time>2026-04-05T14:58:05.818Z</time></trkpt><trkpt lat="45.8001917" lon="8.9761783"><ele>374.0</ele><time>2026-04-05T14:58:06.818Z</time></trkpt><trkpt lat="45.8002717" lon="8.9763067"><ele>372.0</ele><time>2026-04-05T14:58:07.818Z</time></trkpt><trkpt lat="45.8003417" lon="8.9764383"><ele>370.0</ele><time>2026-04-05T14:58:08.818Z</time></trkpt><trkpt lat="45.8004083" lon="8.9765783"><ele>370.75</ele><time>2026-04-05T14:58:09.819Z</time></trkpt><trkpt lat="45.8004717" lon="8.97672"><ele>371.5</ele><time>2026-04-05T14:58:10.818Z</time></trkpt><trkpt lat="45.8005417" lon="8.9768683"><ele>372.25</ele><time>2026-04-05T14:58:11.818Z</time></trkpt><trkpt lat="45.8006017" lon="8.9770317"><ele>373.0</ele><time>2026-04-05T14:58:12.818Z</time></trkpt><trkpt lat="45.8006633" lon="8.97722"><ele>373.0</ele><time>2026-04-05T14:58:13.818Z</time></trkpt><trkpt lat="45.8007283" lon="8.977425"><ele>373.0</ele><time>2026-04-05T14:58:14.819Z</time></trkpt><trkpt lat="45.8007967" lon="8.977645"><ele>373.0</ele><time>2026-04-05T14:58:15.818Z</time></trkpt><trkpt lat="45.8008717" lon="8.9778717"><ele>374.0</ele><time>2026-04-05T14:58:16.818Z</time></trkpt><trkpt lat="45.80094" lon="8.9781033"><ele>375.0</ele><time>2026-04-05T14:58:17.818Z</time></trkpt><trkpt lat="45.8009983" lon="8.97833"><ele>376.0</ele><time>2026-04-05T14:58:18.818Z</time></trkpt><trkpt lat="45.80104" lon="8.978545"><ele>374.25</ele><time>2026-04-05T14:58:19.818Z</time></trkpt><trkpt lat="45.8010767" lon="8.9787583"><ele>372.5</ele><time>2026-04-05T14:58:20.818Z</time></trkpt><trkpt lat="45.8011117" lon="8.9789567"><ele>370.75</ele><time>2026-04-05T14:58:21.819Z</time></trkpt><trkpt lat="45.801145" lon="8.9791517"><ele>369.0</ele><time>2026-04-05T14:58:22.818Z</time></trkpt><trkpt lat="45.80118" lon="8.9793433"><ele>369.0</ele><time>2026-04-05T14:58:23.819Z</time></trkpt><trkpt lat="45.8012133" lon="8.979535"><ele>369.0</ele><time>2026-04-05T14:58:24.818Z</time></trkpt><trkpt lat="45.801245" lon="8.9797283"><ele>369.0</ele><time>2026-04-05T14:58:25.819Z</time></trkpt><trkpt lat="45.8012733" lon="8.97992"><ele>369.0</ele><time>2026-04-05T14:58:26.818Z</time></trkpt><trkpt lat="45.8013017" lon="8.9801067"><ele>370.0</ele><time>2026-04-05T14:58:27.818Z</time></trkpt><trkpt lat="45.801325" lon="8.9802983"><ele>371.0</ele><time>2026-04-05T14:58:28.818Z</time></trkpt><trkpt lat="45.80136" lon="8.9804967"><ele>372.0</ele><time>2026-04-05T14:58:29.818Z</time></trkpt><trkpt lat="45.8014017" lon="8.9806983"><ele>373.0</ele><time>2026-04-05T14:58:30.819Z</time></trkpt><trkpt lat="45.8014483" lon="8.98091"><ele>373.25</ele><time>2026-04-05T14:58:31.818Z</time></trkpt><trkpt lat="45.8014833" lon="8.9811167"><ele>373.5</ele><time>2026-04-05T14:58:32.818Z</time></trkpt><trkpt lat="45.8015167" lon="8.9813117"><ele>373.75</ele><time>2026-04-05T14:58:33.818Z</time></trkpt><trkpt lat="45.80155" lon="8.9814633"><ele>374.0</ele><time>2026-04-05T14:58:34.818Z</time></trkpt><trkpt lat="45.801575" lon="8.9815983"><ele>373.6</ele><time>2026-04-05T14:58:35.818Z</time></trkpt><trkpt lat="45.801595" lon="8.9817017"><ele>373.2</ele><time>2026-04-05T14:58:36.819Z</time></trkpt><trkpt lat="45.8016033" lon="8.9817933"><ele>372.8</ele><time>2026-04-05T14:58:37.818Z</time></trkpt><trkpt lat="45.80163" lon="8.9819267"><ele>372.40000000000003</ele><time>2026-04-05T14:58:39.819Z</time></trkpt><trkpt lat="45.8016483" lon="8.9820517"><ele>372.0</ele><time>2026-04-05T14:58:41.819Z</time></trkpt><trkpt lat="45.8016817" lon="8.98223"><ele>372.0</ele><time>2026-04-05T14:58:43.819Z</time></trkpt><trkpt lat="45.8017133" lon="8.9823617"><ele>372.0</ele><time>2026-04-05T14:58:44.818Z</time></trkpt><trkpt lat="45.8017433" lon="8.9825217"><ele>372.0</ele><time>2026-04-05T14:58:45.818Z</time></trkpt><trkpt lat="45.8017867" lon="8.9827033"><ele>372.0</ele><time>2026-04-05T14:58:46.818Z</time></trkpt><trkpt lat="45.8018" lon="8.9829117"><ele>371.75</ele><time>2026-04-05T14:58:47.818Z</time></trkpt><trkpt lat="45.80182" lon="8.9831267"><ele>371.5</ele><time>2026-04-05T14:58:48.819Z</time></trkpt><trkpt lat="45.801835" lon="8.9833333"><ele>371.25</ele><time>2026-04-05T14:58:49.818Z</time></trkpt><trkpt lat="45.8018483" lon="8.983545"><ele>371.0</ele><time>2026-04-05T14:58:50.818Z</time></trkpt><trkpt lat="45.8018617" lon="8.983775"><ele>369.33333333333337</ele><time>2026-04-05T14:58:51.818Z</time></trkpt><trkpt lat="45.8018683" lon="8.9840283"><ele>367.6666666666667</ele><time>2026-04-05T14:58:52.819Z</time></trkpt><trkpt lat="45.8018833" lon="8.9842933"><ele>366.0</ele><time>2026-04-05T14:58:53.818Z</time></trkpt><trkpt lat="45.8018983" lon="8.9845417"><ele>366.0</ele><time>2026-04-05T14:58:54.818Z</time></trkpt><trkpt lat="45.8019217" lon="8.984775"><ele>366.0</ele><time>2026-04-05T14:58:55.819Z</time></trkpt><trkpt lat="45.8019417" lon="8.9850017"><ele>366.0</ele><time>2026-04-05T14:58:56.819Z</time></trkpt><trkpt lat="45.8019483" lon="8.9852067"><ele>365.75</ele><time>2026-04-05T14:58:57.819Z</time></trkpt><trkpt lat="45.8019517" lon="8.98541"><ele>365.5</ele><time>2026-04-05T14:58:58.818Z</time></trkpt><trkpt lat="45.8019433" lon="8.98559"><ele>365.25</ele><time>2026-04-05T14:58:59.818Z</time></trkpt><trkpt lat="45.8019233" lon="8.9857433"><ele>365.0</ele><time>2026-04-05T14:59:00.818Z</time></trkpt><trkpt lat="45.801895" lon="8.9859"><ele>365.25</ele><time>2026-04-05T14:59:01.819Z</time></trkpt><trkpt lat="45.80188" lon="8.986095"><ele>365.5</ele><time>2026-04-05T14:59:02.818Z</time></trkpt><trkpt lat="45.80186" lon="8.9862933"><ele>365.75</ele><time>2026-04-05T14:59:03.819Z</time></trkpt><trkpt lat="45.8018233" lon="8.9865117"><ele>366.0</ele><time>2026-04-05T14:59:04.818Z</time></trkpt><trkpt lat="45.801775" lon="8.986755"><ele>366.6666666666667</ele><time>2026-04-05T14:59:05.818Z</time></trkpt><trkpt lat="45.8017167" lon="8.9870217"><ele>367.33333333333337</ele><time>2026-04-05T14:59:06.819Z</time></trkpt><trkpt lat="45.8016517" lon="8.9872867"><ele>368.0</ele><time>2026-04-05T14:59:07.818Z</time></trkpt><trkpt lat="45.80159" lon="8.98756"><ele>369.33333333333337</ele><time>2026-04-05T14:59:08.818Z</time></trkpt><trkpt lat="45.8015317" lon="8.9878433"><ele>370.6666666666667</ele><time>2026-04-05T14:59:09.818Z</time></trkpt><trkpt lat="45.8014683" lon="8.9881433"><ele>372.0</ele><time>2026-04-05T14:59:10.818Z</time></trkpt><trkpt lat="45.8014017" lon="8.9884383"><ele>374.0</ele><time>2026-04-05T14:59:11.818Z</time></trkpt><trkpt lat="45.8013367" lon="8.9887133"><ele>376.0</ele><time>2026-04-05T14:59:12.818Z</time></trkpt><trkpt lat="45.80127" lon="8.9889783"><ele>378.0</ele><time>2026-04-05T14:59:13.818Z</time></trkpt><trkpt lat="45.8012083" lon="8.989235"><ele>381.0</ele><time>2026-04-05T14:59:14.818Z</time></trkpt><trkpt lat="45.801155" lon="8.9894767"><ele>384.0</ele><time>2026-04-05T14:59:15.819Z</time></trkpt><trkpt lat="45.801085" lon="8.9897067"><ele>387.0</ele><time>2026-04-05T14:59:16.818Z</time></trkpt><trkpt lat="45.8010167" lon="8.9899383"><ele>387.0</ele><time>2026-04-05T14:59:17.819Z</time></trkpt><trkpt lat="45.8009433" lon="8.9901633"><ele>387.0</ele><time>2026-04-05T14:59:18.818Z</time></trkpt><trkpt lat="45.8008683" lon="8.9903833"><ele>387.0</ele><time>2026-04-05T14:59:19.818Z</time></trkpt><trkpt lat="45.80081" lon="8.9906033"><ele>387.0</ele><time>2026-04-05T14:59:20.818Z</time></trkpt><trkpt lat="45.8007667" lon="8.990825"><ele>387.0</ele><time>2026-04-05T14:59:21.819Z</time></trkpt><trkpt lat="45.800735" lon="8.9910567"><ele>387.0</ele><time>2026-04-05T14:59:22.818Z</time></trkpt><trkpt lat="45.8007067" lon="8.99129"><ele>387.0</ele><time>2026-04-05T14:59:23.819Z</time></trkpt><trkpt lat="45.800695" lon="8.991525"><ele>387.0</ele><time>2026-04-05T14:59:24.818Z</time></trkpt><trkpt lat="45.8006883" lon="8.9917583"><ele>387.0</ele><time>2026-04-05T14:59:25.818Z</time></trkpt><trkpt lat="45.8007167" lon="8.9919733"><ele>389.0</ele><time>2026-04-05T14:59:26.818Z</time></trkpt><trkpt lat="45.8007867" lon="8.992195"><ele>391.0</ele><time>2026-04-05T14:59:27.818Z</time></trkpt><trkpt lat="45.8008833" lon="8.9924083"><ele>393.0</ele><time>2026-04-05T14:59:28.818Z</time></trkpt><trkpt lat="45.8010017" lon="8.9926267"><ele>394.0</ele><time>2026-04-05T14:59:29.819Z</time></trkpt><trkpt lat="45.8011233" lon="8.99286"><ele>395.0</ele><time>2026-04-05T14:59:30.818Z</time></trkpt><trkpt lat="45.8012517" lon="8.993095"><ele>396.0</ele><time>2026-04-05T14:59:31.818Z</time></trkpt><trkpt lat="45.8013767" lon="8.993315"><ele>396.66666666666663</ele><time>2026-04-05T14:59:32.818Z</time></trkpt><trkpt lat="45.8015017" lon="8.9935183"><ele>397.3333333333333</ele><time>2026-04-05T14:59:33.819Z</time></trkpt><trkpt lat="45.8016083" lon="8.9937183"><ele>398.0</ele><time>2026-04-05T14:59:34.818Z</time></trkpt><trkpt lat="45.8017167" lon="8.9939183"><ele>398.0</ele><time>2026-04-05T14:59:35.818Z</time></trkpt><trkpt lat="45.801825" lon="8.9941233"><ele>398.0</ele><time>2026-04-05T14:59:36.818Z</time></trkpt><trkpt lat="45.8019317" lon="8.99434"><ele>398.0</ele><time>2026-04-05T14:59:37.818Z</time></trkpt><trkpt lat="45.8020433" lon="8.99455"><ele>397.66666666666663</ele><time>2026-04-05T14:59:38.818Z</time></trkpt><trkpt lat="45.8021517" lon="8.99476"><ele>397.33333333333337</ele><time>2026-04-05T14:59:39.818Z</time></trkpt><trkpt lat="45.8022583" lon="8.9949517"><ele>397.0</ele><time>2026-04-05T14:59:40.819Z</time></trkpt><trkpt lat="45.8023533" lon="8.9951317"><ele>395.0</ele><time>2026-04-05T14:59:41.819Z</time></trkpt><trkpt lat="45.8024417" lon="8.9952933"><ele>393.0</ele><time>2026-04-05T14:59:42.818Z</time></trkpt><trkpt lat="45.802505" lon="8.9954567"><ele>391.0</ele><time>2026-04-05T14:59:43.818Z</time></trkpt><trkpt lat="45.80256" lon="8.9956117"><ele>389.0</ele><time>2026-04-05T14:59:44.818Z</time></trkpt><trkpt lat="45.8026083" lon="8.9957483"><ele>388.79999999999995</ele><time>2026-04-05T14:59:45.818Z</time></trkpt><trkpt lat="45.802645" lon="8.9958767"><ele>388.59999999999997</ele><time>2026-04-05T14:59:46.818Z</time></trkpt><trkpt lat="45.8026733" lon="8.9960033"><ele>388.4</ele><time>2026-04-05T14:59:47.818Z</time></trkpt><trkpt lat="45.8026967" lon="8.996115"><ele>388.2</ele><time>2026-04-05T14:59:48.818Z</time></trkpt><trkpt lat="45.8027033" lon="8.9962083"><ele>388.0</ele><time>2026-04-05T14:59:49.818Z</time></trkpt><trkpt lat="45.8026967" lon="8.9963817"><ele>387.4</ele><time>2026-04-05T14:59:51.818Z</time></trkpt><trkpt lat="45.8027083" lon="8.996475"><ele>386.79999999999995</ele><time>2026-04-05T14:59:52.819Z</time></trkpt><trkpt lat="45.802775" lon="8.9966167"><ele>386.2</ele><time>2026-04-05T14:59:54.818Z</time></trkpt><trkpt lat="45.802905" lon="8.996675"><ele>385.6</ele><time>2026-04-05T14:59:56.818Z</time></trkpt><trkpt lat="45.80298" lon="8.99673"><ele>385.0</ele><time>2026-04-05T14:59:57.818Z</time></trkpt><trkpt lat="45.8030533" lon="8.9968267"><ele>384.5</ele><time>2026-04-05T14:59:58.818Z</time></trkpt><trkpt lat="45.803115" lon="8.996955"><ele>384.0</ele><time>2026-04-05T14:59:59.819Z</time></trkpt><trkpt lat="45.8031717" lon="8.9970933"><ele>383.5</ele><time>2026-04-05T15:00:00.818Z</time></trkpt><trkpt lat="45.8032333" lon="8.99723"><ele>383.0</ele><time>2026-04-05T15:00:01.818Z</time></trkpt><trkpt lat="45.8033" lon="8.99737"><ele>382.0</ele><time>2026-04-05T15:00:02.818Z</time></trkpt><trkpt lat="45.8033617" lon="8.99752"><ele>381.0</ele><time>2026-04-05T15:00:03.819Z</time></trkpt><trkpt lat="45.803425" lon="8.9976633"><ele>380.0</ele><time>2026-04-05T15:00:04.818Z</time></trkpt><trkpt lat="45.8034833" lon="8.9977983"><ele>379.0</ele><time>2026-04-05T15:00:05.818Z</time></trkpt><trkpt lat="45.8035467" lon="8.997945"><ele>378.25</ele><time>2026-04-05T15:00:06.818Z</time></trkpt><trkpt lat="45.8036167" lon="8.9980883"><ele>377.5</ele><time>2026-04-05T15:00:07.818Z</time></trkpt><trkpt lat="45.80368" lon="8.9982517"><ele>376.75</ele><time>2026-04-05T15:00:08.818Z</time></trkpt><trkpt lat="45.803745" lon="8.9984183"><ele>376.0</ele><time>2026-04-05T15:00:09.818Z</time></trkpt><trkpt lat="45.803815" lon="8.9985833"><ele>376.0</ele><time>2026-04-05T15:00:10.818Z</time></trkpt><trkpt lat="45.803885" lon="8.9987333"><ele>376.0</ele><time>2026-04-05T15:00:11.818Z</time></trkpt><trkpt lat="45.803935" lon="8.9988817"><ele>376.0</ele><time>2026-04-05T15:00:12.818Z</time></trkpt><trkpt lat="45.8039833" lon="8.999015"><ele>376.0</ele><time>2026-04-05T15:00:13.818Z</time></trkpt><trkpt lat="45.804025" lon="8.999125"><ele>376.0</ele><time>2026-04-05T15:00:14.819Z</time></trkpt><trkpt lat="45.8040467" lon="8.99923"><ele>377.16666666666663</ele><time>2026-04-05T15:00:15.819Z</time></trkpt><trkpt lat="45.8040667" lon="8.999335"><ele>378.3333333333333</ele><time>2026-04-05T15:00:16.819Z</time></trkpt><trkpt lat="45.80409" lon="8.9994333"><ele>379.5</ele><time>2026-04-05T15:00:17.818Z</time></trkpt><trkpt lat="45.804135" lon="8.9995183"><ele>380.6666666666667</ele><time>2026-04-05T15:00:18.818Z</time></trkpt><trkpt lat="45.8041917" lon="8.99961"><ele>381.83333333333337</ele><time>2026-04-05T15:00:19.819Z</time></trkpt><trkpt lat="45.80426" lon="8.9997017"><ele>383.0</ele><time>2026-04-05T15:00:20.818Z</time></trkpt><trkpt lat="45.8043383" lon="8.9997967"><ele>383.0</ele><time>2026-04-05T15:00:21.818Z</time></trkpt><trkpt lat="45.804435" lon="8.9998967"><ele>383.0</ele><time>2026-04-05T15:00:22.819Z</time></trkpt><trkpt lat="45.8045467" lon="8.9999817"><ele>383.0</ele><time>2026-04-05T15:00:23.818Z</time></trkpt><trkpt lat="45.8046833" lon="9.0000733"><ele>383.0</ele><time>2026-04-05T15:00:24.818Z</time></trkpt><trkpt lat="45.8048233" lon="9.000145"><ele>383.0</ele><time>2026-04-05T15:00:25.818Z</time></trkpt><trkpt lat="45.8049667" lon="9.00021"><ele>383.0</ele><time>2026-04-05T15:00:26.818Z</time></trkpt><trkpt lat="45.8051183" lon="9.00027"><ele>383.0</ele><time>2026-04-05T15:00:27.819Z</time></trkpt><trkpt lat="45.8052733" lon="9.0003367"><ele>382.33333333333337</ele><time>2026-04-05T15:00:28.818Z</time></trkpt><trkpt lat="45.80543" lon="9.0004067"><ele>381.6666666666667</ele><time>2026-04-05T15:00:29.818Z</time></trkpt><trkpt lat="45.8055817" lon="9.000475"><ele>381.0</ele><time>2026-04-05T15:00:30.818Z</time></trkpt><trkpt lat="45.8057267" lon="9.00055"><ele>381.0</ele><time>2026-04-05T15:00:31.818Z</time></trkpt><trkpt lat="45.805875" lon="9.0006183"><ele>381.0</ele><time>2026-04-05T15:00:32.819Z</time></trkpt><trkpt lat="45.80602" lon="9.0006933"><ele>381.0</ele><time>2026-04-05T15:00:33.818Z</time></trkpt><trkpt lat="45.8061633" lon="9.00077"><ele>382.25</ele><time>2026-04-05T15:00:34.818Z</time></trkpt><trkpt lat="45.8063033" lon="9.0008433"><ele>383.5</ele><time>2026-04-05T15:00:35.818Z</time></trkpt><trkpt lat="45.80643" lon="9.000905"><ele>384.75</ele><time>2026-04-05T15:00:36.818Z</time></trkpt><trkpt lat="45.8065533" lon="9.0009667"><ele>386.0</ele><time>2026-04-05T15:00:37.818Z</time></trkpt><trkpt lat="45.8066767" lon="9.0010317"><ele>386.0</ele><time>2026-04-05T15:00:38.818Z</time></trkpt><trkpt lat="45.8068183" lon="9.001095"><ele>386.0</ele><time>2026-04-05T15:00:39.818Z</time></trkpt><trkpt lat="45.8069683" lon="9.001155"><ele>386.0</ele><time>2026-04-05T15:00:40.818Z</time></trkpt><trkpt lat="45.8071233" lon="9.0012317"><ele>386.75</ele><time>2026-04-05T15:00:41.818Z</time></trkpt><trkpt lat="45.80727" lon="9.0013"><ele>387.5</ele><time>2026-04-05T15:00:42.818Z</time></trkpt><trkpt lat="45.8074067" lon="9.0013617"><ele>388.25</ele><time>2026-04-05T15:00:43.818Z</time></trkpt><trkpt lat="45.80754" lon="9.0014217"><ele>389.0</ele><time>2026-04-05T15:00:44.818Z</time></trkpt><trkpt lat="45.8076617" lon="9.0014717"><ele>389.75</ele><time>2026-04-05T15:00:45.818Z</time></trkpt><trkpt lat="45.80778" lon="9.001525"><ele>390.5</ele><time>2026-04-05T15:00:46.818Z</time></trkpt><trkpt lat="45.8078983" lon="9.00158"><ele>391.25</ele><time>2026-04-05T15:00:47.818Z</time></trkpt><trkpt lat="45.8080133" lon="9.001645"><ele>392.0</ele><time>2026-04-05T15:00:48.818Z</time></trkpt><trkpt lat="45.80813" lon="9.001715"><ele>392.0</ele><time>2026-04-05T15:00:49.819Z</time></trkpt><trkpt lat="45.8082417" lon="9.0017933"><ele>392.0</ele><time>2026-04-05T15:00:50.818Z</time></trkpt><trkpt lat="45.8083383" lon="9.001865"><ele>392.0</ele><time>2026-04-05T15:00:51.819Z</time></trkpt><trkpt lat="45.8084267" lon="9.0019283"><ele>392.0</ele><time>2026-04-05T15:00:52.818Z</time></trkpt><trkpt lat="45.8085133" lon="9.00199"><ele>392.0</ele><time>2026-04-05T15:00:53.818Z</time></trkpt><trkpt lat="45.8085967" lon="9.0020517"><ele>392.0</ele><time>2026-04-05T15:00:54.819Z</time></trkpt><trkpt lat="45.80868" lon="9.0021317"><ele>392.0</ele><time>2026-04-05T15:00:55.818Z</time></trkpt><trkpt lat="45.8087533" lon="9.00223"><ele>392.0</ele><time>2026-04-05T15:00:56.818Z</time></trkpt><trkpt lat="45.8088317" lon="9.0023183"><ele>392.0</ele><time>2026-04-05T15:00:57.818Z</time></trkpt><trkpt lat="45.8089083" lon="9.0024233"><ele>392.0</ele><time>2026-04-05T15:00:58.818Z</time></trkpt><trkpt lat="45.8089967" lon="9.002545"><ele>392.0</ele><time>2026-04-05T15:00:59.818Z</time></trkpt><trkpt lat="45.80908" lon="9.002685"><ele>392.0</ele><time>2026-04-05T15:01:00.818Z</time></trkpt><trkpt lat="45.8091383" lon="9.0028233"><ele>392.0</ele><time>2026-04-05T15:01:01.818Z</time></trkpt><trkpt lat="45.809195" lon="9.0029533"><ele>392.0</ele><time>2026-04-05T15:01:02.818Z</time></trkpt><trkpt lat="45.8092467" lon="9.003075"><ele>392.0</ele><time>2026-04-05T15:01:03.818Z</time></trkpt><trkpt lat="45.80929" lon="9.003195"><ele>391.3333333333333</ele><time>2026-04-05T15:01:04.818Z</time></trkpt><trkpt lat="45.8093283" lon="9.003285"><ele>390.66666666666663</ele><time>2026-04-05T15:01:05.818Z</time></trkpt><trkpt lat="45.80938" lon="9.0034533"><ele>390.0</ele><time>2026-04-05T15:01:07.818Z</time></trkpt><trkpt lat="45.8094033" lon="9.003555"><ele>389.33333333333337</ele><time>2026-04-05T15:01:08.818Z</time></trkpt><trkpt lat="45.809415" lon="9.0036717"><ele>388.6666666666667</ele><time>2026-04-05T15:01:09.818Z</time></trkpt><trkpt lat="45.8094233" lon="9.0037967"><ele>388.0</ele><time>2026-04-05T15:01:10.819Z</time></trkpt><trkpt lat="45.8094267" lon="9.0039417"><ele>388.0</ele><time>2026-04-05T15:01:11.818Z</time></trkpt><trkpt lat="45.8094217" lon="9.0040933"><ele>388.0</ele><time>2026-04-05T15:01:12.818Z</time></trkpt><trkpt lat="45.80941" lon="9.0042533"><ele>388.0</ele><time>2026-04-05T15:01:13.819Z</time></trkpt><trkpt lat="45.8093917" lon="9.0044267"><ele>388.0</ele><time>2026-04-05T15:01:14.818Z</time></trkpt><trkpt lat="45.80936" lon="9.0046083"><ele>389.0</ele><time>2026-04-05T15:01:15.818Z</time></trkpt><trkpt lat="45.8093267" lon="9.0047883"><ele>390.0</ele><time>2026-04-05T15:01:16.818Z</time></trkpt><trkpt lat="45.80929" lon="9.0049733"><ele>391.0</ele><time>2026-04-05T15:01:17.818Z</time></trkpt><trkpt lat="45.8092583" lon="9.00517"><ele>392.0</ele><time>2026-04-05T15:01:18.818Z</time></trkpt><trkpt lat="45.80922" lon="9.0053633"><ele>392.0</ele><time>2026-04-05T15:01:19.818Z</time></trkpt><trkpt lat="45.8091917" lon="9.0055583"><ele>392.0</ele><time>2026-04-05T15:01:20.818Z</time></trkpt><trkpt lat="45.80916" lon="9.0057483"><ele>392.0</ele><time>2026-04-05T15:01:21.819Z</time></trkpt><trkpt lat="45.8091267" lon="9.00592"><ele>392.0</ele><time>2026-04-05T15:01:22.818Z</time></trkpt><trkpt lat="45.809095" lon="9.0061"><ele>392.75</ele><time>2026-04-05T15:01:23.818Z</time></trkpt><trkpt lat="45.8090767" lon="9.006285"><ele>393.5</ele><time>2026-04-05T15:01:24.818Z</time></trkpt><trkpt lat="45.8090733" lon="9.0064817"><ele>394.25</ele><time>2026-04-05T15:01:25.819Z</time></trkpt><trkpt lat="45.809095" lon="9.006695"><ele>395.0</ele><time>2026-04-05T15:01:26.818Z</time></trkpt><trkpt lat="45.80913" lon="9.0068933"><ele>396.75</ele><time>2026-04-05T15:01:27.818Z</time></trkpt><trkpt lat="45.8091883" lon="9.00708"><ele>398.5</ele><time>2026-04-05T15:01:28.818Z</time></trkpt><trkpt lat="45.80927" lon="9.0072483"><ele>400.25</ele><time>2026-04-05T15:01:29.818Z</time></trkpt><trkpt lat="45.8093783" lon="9.0073867"><ele>402.0</ele><time>2026-04-05T15:01:30.817Z</time></trkpt><trkpt lat="45.809525" lon="9.0075083"><ele>404.0</ele><time>2026-04-05T15:01:31.818Z</time></trkpt><trkpt lat="45.8096767" lon="9.0076517"><ele>406.0</ele><time>2026-04-05T15:01:32.818Z</time></trkpt><trkpt lat="45.8098183" lon="9.0078167"><ele>408.0</ele><time>2026-04-05T15:01:33.817Z</time></trkpt><trkpt lat="45.809935" lon="9.0079917"><ele>408.0</ele><time>2026-04-05T15:01:34.817Z</time></trkpt><trkpt lat="45.8100317" lon="9.0081767"><ele>408.0</ele><time>2026-04-05T15:01:35.818Z</time></trkpt><trkpt lat="45.8101217" lon="9.0083383"><ele>408.0</ele><time>2026-04-05T15:01:36.817Z</time></trkpt><trkpt lat="45.8101967" lon="9.0085033"><ele>408.0</ele><time>2026-04-05T15:01:37.818Z</time></trkpt><trkpt lat="45.81025" lon="9.008655"><ele>409.75</ele><time>2026-04-05T15:01:38.818Z</time></trkpt><trkpt lat="45.8102867" lon="9.0088133"><ele>411.5</ele><time>2026-04-05T15:01:39.817Z</time></trkpt><trkpt lat="45.8103033" lon="9.0089817"><ele>413.25</ele><time>2026-04-05T15:01:40.817Z</time></trkpt><trkpt lat="45.8103133" lon="9.0091567"><ele>415.0</ele><time>2026-04-05T15:01:41.818Z</time></trkpt><trkpt lat="45.810315" lon="9.00933"><ele>415.0</ele><time>2026-04-05T15:01:42.817Z</time></trkpt><trkpt lat="45.8103033" lon="9.0095117"><ele>415.0</ele><time>2026-04-05T15:01:43.818Z</time></trkpt><trkpt lat="45.8102833" lon="9.0096933"><ele>415.0</ele><time>2026-04-05T15:01:44.817Z</time></trkpt><trkpt lat="45.8102533" lon="9.0098683"><ele>415.0</ele><time>2026-04-05T15:01:45.817Z</time></trkpt><trkpt lat="45.810225" lon="9.0100283"><ele>415.0</ele><time>2026-04-05T15:01:46.817Z</time></trkpt><trkpt lat="45.810205" lon="9.0101833"><ele>415.0</ele><time>2026-04-05T15:01:47.818Z</time></trkpt><trkpt lat="45.8101933" lon="9.010335"><ele>415.0</ele><time>2026-04-05T15:01:48.818Z</time></trkpt><trkpt lat="45.810175" lon="9.0104867"><ele>415.0</ele><time>2026-04-05T15:01:49.817Z</time></trkpt><trkpt lat="45.8101667" lon="9.0106433"><ele>415.0</ele><time>2026-04-05T15:01:50.817Z</time></trkpt><trkpt lat="45.8101617" lon="9.010805"><ele>414.8</ele><time>2026-04-05T15:01:51.817Z</time></trkpt><trkpt lat="45.8101583" lon="9.0109583"><ele>414.6</ele><time>2026-04-05T15:01:52.818Z</time></trkpt><trkpt lat="45.8101667" lon="9.0111"><ele>414.4</ele><time>2026-04-05T15:01:53.817Z</time></trkpt><trkpt lat="45.81018" lon="9.011245"><ele>414.2</ele><time>2026-04-05T15:01:54.817Z</time></trkpt><trkpt lat="45.8102033" lon="9.01138"><ele>414.0</ele><time>2026-04-05T15:01:55.818Z</time></trkpt><trkpt lat="45.8102383" lon="9.0115167"><ele>414.0</ele><time>2026-04-05T15:01:56.817Z</time></trkpt><trkpt lat="45.8102833" lon="9.0116467"><ele>414.0</ele><time>2026-04-05T15:01:57.817Z</time></trkpt><trkpt lat="45.8103367" lon="9.0117983"><ele>414.0</ele><time>2026-04-05T15:01:58.817Z</time></trkpt><trkpt lat="45.81041" lon="9.01195"><ele>414.0</ele><time>2026-04-05T15:01:59.818Z</time></trkpt><trkpt lat="45.8105067" lon="9.01211"><ele>414.0</ele><time>2026-04-05T15:02:00.817Z</time></trkpt><trkpt lat="45.810615" lon="9.0122783"><ele>414.0</ele><time>2026-04-05T15:02:01.818Z</time></trkpt><trkpt lat="45.8107383" lon="9.012455"><ele>414.0</ele><time>2026-04-05T15:02:02.817Z</time></trkpt><trkpt lat="45.810855" lon="9.0126267"><ele>414.5</ele><time>2026-04-05T15:02:03.817Z</time></trkpt><trkpt lat="45.8109617" lon="9.01278"><ele>415.0</ele><time>2026-04-05T15:02:04.818Z</time></trkpt><trkpt lat="45.8110583" lon="9.01292"><ele>415.5</ele><time>2026-04-05T15:02:05.817Z</time></trkpt><trkpt lat="45.8111433" lon="9.0130467"><ele>416.0</ele><time>2026-04-05T15:02:06.818Z</time></trkpt><trkpt lat="45.8112083" lon="9.013175"><ele>417.0</ele><time>2026-04-05T15:02:07.817Z</time></trkpt><trkpt lat="45.8112567" lon="9.0132933"><ele>418.0</ele><time>2026-04-05T15:02:08.817Z</time></trkpt><trkpt lat="45.81129" lon="9.013405"><ele>419.0</ele><time>2026-04-05T15:02:09.818Z</time></trkpt><trkpt lat="45.81133" lon="9.0135133"><ele>420.0</ele><time>2026-04-05T15:02:10.818Z</time></trkpt><trkpt lat="45.8113983" lon="9.0136117"><ele>421.0</ele><time>2026-04-05T15:02:11.817Z</time></trkpt><trkpt lat="45.8114867" lon="9.0137117"><ele>421.0</ele><time>2026-04-05T15:02:12.817Z</time></trkpt><trkpt lat="45.8115767" lon="9.0138133"><ele>421.0</ele><time>2026-04-05T15:02:13.818Z</time></trkpt><trkpt lat="45.8116583" lon="9.0139067"><ele>421.0</ele><time>2026-04-05T15:02:14.817Z</time></trkpt><trkpt lat="45.8117283" lon="9.0140317"><ele>421.0</ele><time>2026-04-05T15:02:15.818Z</time></trkpt><trkpt lat="45.8117783" lon="9.0141867"><ele>421.0</ele><time>2026-04-05T15:02:16.818Z</time></trkpt><trkpt lat="45.8118217" lon="9.01437"><ele>421.0</ele><time>2026-04-05T15:02:17.818Z</time></trkpt><trkpt lat="45.8118683" lon="9.0146033"><ele>421.0</ele><time>2026-04-05T15:02:18.818Z</time></trkpt><trkpt lat="45.8119017" lon="9.0148483"><ele>423.0</ele><time>2026-04-05T15:02:19.817Z</time></trkpt><trkpt lat="45.8119317" lon="9.0151117"><ele>425.0</ele><time>2026-04-05T15:02:20.817Z</time></trkpt><trkpt lat="45.8119667" lon="9.0153833"><ele>427.0</ele><time>2026-04-05T15:02:21.818Z</time></trkpt><trkpt lat="45.8119967" lon="9.0156583"><ele>426.6666666666667</ele><time>2026-04-05T15:02:22.818Z</time></trkpt><trkpt lat="45.8120267" lon="9.0159233"><ele>426.33333333333337</ele><time>2026-04-05T15:02:23.817Z</time></trkpt><trkpt lat="45.8120467" lon="9.0161867"><ele>426.0</ele><time>2026-04-05T15:02:24.817Z</time></trkpt><trkpt lat="45.8120733" lon="9.0164333"><ele>426.0</ele><time>2026-04-05T15:02:25.818Z</time></trkpt><trkpt lat="45.81209" lon="9.0166567"><ele>426.0</ele><time>2026-04-05T15:02:26.817Z</time></trkpt><trkpt lat="45.8120917" lon="9.0168717"><ele>426.0</ele><time>2026-04-05T15:02:27.817Z</time></trkpt><trkpt lat="45.8121017" lon="9.017075"><ele>426.0</ele><time>2026-04-05T15:02:28.817Z</time></trkpt><trkpt lat="45.8121033" lon="9.01726"><ele>426.0</ele><time>2026-04-05T15:02:29.817Z</time></trkpt><trkpt lat="45.812105" lon="9.0174467"><ele>426.0</ele><time>2026-04-05T15:02:30.817Z</time></trkpt><trkpt lat="45.81212" lon="9.0176333"><ele>426.0</ele><time>2026-04-05T15:02:31.817Z</time></trkpt><trkpt lat="45.81213" lon="9.0178017"><ele>426.0</ele><time>2026-04-05T15:02:32.817Z</time></trkpt><trkpt lat="45.8121417" lon="9.0179567"><ele>426.0</ele><time>2026-04-05T15:02:33.817Z</time></trkpt><trkpt lat="45.81216" lon="9.0180983"><ele>426.0</ele><time>2026-04-05T15:02:34.817Z</time></trkpt><trkpt lat="45.8121767" lon="9.01823"><ele>426.0</ele><time>2026-04-05T15:02:35.817Z</time></trkpt><trkpt lat="45.812185" lon="9.0183683"><ele>426.0</ele><time>2026-04-05T15:02:36.817Z</time></trkpt><trkpt lat="45.8121933" lon="9.0185283"><ele>426.0</ele><time>2026-04-05T15:02:37.817Z</time></trkpt><trkpt lat="45.812195" lon="9.0187083"><ele>426.5</ele><time>2026-04-05T15:02:38.817Z</time></trkpt><trkpt lat="45.8122017" lon="9.0189133"><ele>427.0</ele><time>2026-04-05T15:02:39.818Z</time></trkpt><trkpt lat="45.8122083" lon="9.019135"><ele>427.5</ele><time>2026-04-05T15:02:40.818Z</time></trkpt><trkpt lat="45.81222" lon="9.01935"><ele>428.0</ele><time>2026-04-05T15:02:41.817Z</time></trkpt><trkpt lat="45.812235" lon="9.0195583"><ele>429.0</ele><time>2026-04-05T15:02:42.818Z</time></trkpt><trkpt lat="45.8122467" lon="9.01977"><ele>430.0</ele><time>2026-04-05T15:02:43.818Z</time></trkpt><trkpt lat="45.812265" lon="9.0199983"><ele>431.0</ele><time>2026-04-05T15:02:44.817Z</time></trkpt><trkpt lat="45.81227" lon="9.0202367"><ele>432.3333333333333</ele><time>2026-04-05T15:02:45.817Z</time></trkpt><trkpt lat="45.8122933" lon="9.0204733"><ele>433.66666666666663</ele><time>2026-04-05T15:02:46.817Z</time></trkpt><trkpt lat="45.8122967" lon="9.0207167"><ele>435.0</ele><time>2026-04-05T15:02:47.817Z</time></trkpt><trkpt lat="45.8123033" lon="9.02094"><ele>435.5</ele><time>2026-04-05T15:02:48.818Z</time></trkpt><trkpt lat="45.8123117" lon="9.0211483"><ele>436.0</ele><time>2026-04-05T15:02:49.817Z</time></trkpt><trkpt lat="45.812325" lon="9.0213517"><ele>436.5</ele><time>2026-04-05T15:02:50.817Z</time></trkpt><trkpt lat="45.81235" lon="9.0215467"><ele>437.0</ele><time>2026-04-05T15:02:51.817Z</time></trkpt><trkpt lat="45.812375" lon="9.0217467"><ele>438.0</ele><time>2026-04-05T15:02:52.817Z</time></trkpt><trkpt lat="45.8124283" lon="9.021955"><ele>439.0</ele><time>2026-04-05T15:02:53.817Z</time></trkpt><trkpt lat="45.8124867" lon="9.022165"><ele>440.0</ele><time>2026-04-05T15:02:54.817Z</time></trkpt><trkpt lat="45.8125533" lon="9.0223667"><ele>439.66666666666663</ele><time>2026-04-05T15:02:55.817Z</time></trkpt><trkpt lat="45.81261" lon="9.0225683"><ele>439.33333333333337</ele><time>2026-04-05T15:02:56.817Z</time></trkpt><trkpt lat="45.8126583" lon="9.0227733"><ele>439.0</ele><time>2026-04-05T15:02:57.818Z</time></trkpt><trkpt lat="45.8127117" lon="9.0229767"><ele>443.0</ele><time>2026-04-05T15:02:58.817Z</time></trkpt><trkpt lat="45.8127667" lon="9.0231817"><ele>447.0</ele><time>2026-04-05T15:02:59.817Z</time></trkpt><trkpt lat="45.8128283" lon="9.0233833"><ele>451.0</ele><time>2026-04-05T15:03:00.817Z</time></trkpt><trkpt lat="45.8128917" lon="9.0235783"><ele>451.0</ele><time>2026-04-05T15:03:01.817Z</time></trkpt><trkpt lat="45.81296" lon="9.02376"><ele>451.0</ele><time>2026-04-05T15:03:02.818Z</time></trkpt><trkpt lat="45.8130417" lon="9.0239333"><ele>451.0</ele><time>2026-04-05T15:03:03.817Z</time></trkpt><trkpt lat="45.8131367" lon="9.0240917"><ele>451.0</ele><time>2026-04-05T15:03:04.817Z</time></trkpt><trkpt lat="45.8132517" lon="9.0242183"><ele>451.0</ele><time>2026-04-05T15:03:05.818Z</time></trkpt><trkpt lat="45.813385" lon="9.0243283"><ele>451.0</ele><time>2026-04-05T15:03:06.817Z</time></trkpt><trkpt lat="45.81352" lon="9.024445"><ele>451.0</ele><time>2026-04-05T15:03:07.817Z</time></trkpt><trkpt lat="45.81365" lon="9.024555"><ele>451.0</ele><time>2026-04-05T15:03:08.817Z</time></trkpt><trkpt lat="45.8137683" lon="9.0246733"><ele>451.0</ele><time>2026-04-05T15:03:09.818Z</time></trkpt><trkpt lat="45.813895" lon="9.0247867"><ele>451.0</ele><time>2026-04-05T15:03:10.817Z</time></trkpt><trkpt lat="45.8140117" lon="9.0249"><ele>451.0</ele><time>2026-04-05T15:03:11.817Z</time></trkpt><trkpt lat="45.814105" lon="9.0250333"><ele>450.75</ele><time>2026-04-05T15:03:12.817Z</time></trkpt><trkpt lat="45.8141983" lon="9.025185"><ele>450.5</ele><time>2026-04-05T15:03:13.818Z</time></trkpt><trkpt lat="45.8142633" lon="9.025365"><ele>450.25</ele><time>2026-04-05T15:03:14.817Z</time></trkpt><trkpt lat="45.8143233" lon="9.0255483"><ele>450.0</ele><time>2026-04-05T15:03:15.818Z</time></trkpt><trkpt lat="45.8143967" lon="9.0257433"><ele>446.75</ele><time>2026-04-05T15:03:16.817Z</time></trkpt><trkpt lat="45.81447" lon="9.0259333"><ele>443.5</ele><time>2026-04-05T15:03:17.817Z</time></trkpt><trkpt lat="45.81455" lon="9.0261"><ele>440.25</ele><time>2026-04-05T15:03:18.818Z</time></trkpt><trkpt lat="45.8146383" lon="9.0262583"><ele>437.0</ele><time>2026-04-05T15:03:19.817Z</time></trkpt><trkpt lat="45.8147167" lon="9.0264167"><ele>437.0</ele><time>2026-04-05T15:03:20.817Z</time></trkpt><trkpt lat="45.8147917" lon="9.0265833"><ele>437.0</ele><time>2026-04-05T15:03:21.817Z</time></trkpt><trkpt lat="45.8148383" lon="9.0267583"><ele>437.0</ele><time>2026-04-05T15:03:22.817Z</time></trkpt><trkpt lat="45.8148667" lon="9.02694"><ele>437.0</ele><time>2026-04-05T15:03:23.817Z</time></trkpt><trkpt lat="45.8148617" lon="9.02713"><ele>435.5</ele><time>2026-04-05T15:03:24.818Z</time></trkpt><trkpt lat="45.8148283" lon="9.0273033"><ele>434.0</ele><time>2026-04-05T15:03:25.818Z</time></trkpt><trkpt lat="45.8147717" lon="9.0274817"><ele>432.5</ele><time>2026-04-05T15:03:26.818Z</time></trkpt><trkpt lat="45.8147167" lon="9.0276717"><ele>431.0</ele><time>2026-04-05T15:03:27.817Z</time></trkpt><trkpt lat="45.814665" lon="9.0278767"><ele>430.5</ele><time>2026-04-05T15:03:28.817Z</time></trkpt><trkpt lat="45.8146133" lon="9.0280783"><ele>430.0</ele><time>2026-04-05T15:03:29.817Z</time></trkpt><trkpt lat="45.8145683" lon="9.0282733"><ele>429.5</ele><time>2026-04-05T15:03:30.817Z</time></trkpt><trkpt lat="45.814525" lon="9.02846"><ele>429.0</ele><time>2026-04-05T15:03:31.818Z</time></trkpt><trkpt lat="45.8144817" lon="9.02865"><ele>429.0</ele><time>2026-04-05T15:03:32.817Z</time></trkpt><trkpt lat="45.8144533" lon="9.0288383"><ele>429.0</ele><time>2026-04-05T15:03:33.817Z</time></trkpt><trkpt lat="45.81445" lon="9.02904"><ele>429.0</ele><time>2026-04-05T15:03:34.817Z</time></trkpt><trkpt lat="45.8144683" lon="9.029245"><ele>429.0</ele><time>2026-04-05T15:03:35.818Z</time></trkpt><trkpt lat="45.8145067" lon="9.02945"><ele>428.5</ele><time>2026-04-05T15:03:36.817Z</time></trkpt><trkpt lat="45.8145683" lon="9.0296567"><ele>428.0</ele><time>2026-04-05T15:03:37.817Z</time></trkpt><trkpt lat="45.8146317" lon="9.0298533"><ele>427.5</ele><time>2026-04-05T15:03:38.817Z</time></trkpt><trkpt lat="45.81469" lon="9.0300333"><ele>427.0</ele><time>2026-04-05T15:03:39.817Z</time></trkpt><trkpt lat="45.8147467" lon="9.0302117"><ele>425.0</ele><time>2026-04-05T15:03:40.817Z</time></trkpt><trkpt lat="45.8148067" lon="9.03039"><ele>423.0</ele><time>2026-04-05T15:03:41.817Z</time></trkpt><trkpt lat="45.8148617" lon="9.0305583"><ele>421.0</ele><time>2026-04-05T15:03:42.818Z</time></trkpt><trkpt lat="45.8149117" lon="9.03072"><ele>419.0</ele><time>2026-04-05T15:03:43.818Z</time></trkpt><trkpt lat="45.8149567" lon="9.03087"><ele>417.6</ele><time>2026-04-05T15:03:44.817Z</time></trkpt><trkpt lat="45.8149933" lon="9.0310183"><ele>416.2</ele><time>2026-04-05T15:03:45.818Z</time></trkpt><trkpt lat="45.8150183" lon="9.031155"><ele>414.8</ele><time>2026-04-05T15:03:46.818Z</time></trkpt><trkpt lat="45.8150383" lon="9.0312983"><ele>413.40000000000003</ele><time>2026-04-05T15:03:47.817Z</time></trkpt><trkpt lat="45.81503" lon="9.0314483"><ele>412.0</ele><time>2026-04-05T15:03:48.817Z</time></trkpt><trkpt lat="45.8150017" lon="9.0316"><ele>411.40000000000003</ele><time>2026-04-05T15:03:49.817Z</time></trkpt><trkpt lat="45.8149567" lon="9.0317333"><ele>410.8</ele><time>2026-04-05T15:03:50.817Z</time></trkpt><trkpt lat="45.81489" lon="9.0318417"><ele>410.2</ele><time>2026-04-05T15:03:51.818Z</time></trkpt><trkpt lat="45.814815" lon="9.031905"><ele>409.6</ele><time>2026-04-05T15:03:52.818Z</time></trkpt><trkpt lat="45.8147367" lon="9.031945"><ele>409.0</ele><time>2026-04-05T15:03:53.817Z</time></trkpt><trkpt lat="45.81466" lon="9.0319517"><ele>409.00000000000006</ele><time>2026-04-05T15:03:54.817Z</time></trkpt><trkpt lat="45.81459" lon="9.03193"><ele>409.0</ele><time>2026-04-05T15:03:55.818Z</time></trkpt><trkpt lat="45.8145283" lon="9.0318967"><ele>409.0</ele><time>2026-04-05T15:03:56.817Z</time></trkpt><trkpt lat="45.8144283" lon="9.03188"><ele>409.0</ele><time>2026-04-05T15:03:58.818Z</time></trkpt><trkpt lat="45.8143533" lon="9.0319567"><ele>409.00000000000006</ele><time>2026-04-05T15:04:00.817Z</time></trkpt><trkpt lat="45.81433" lon="9.0320433"><ele>409.0</ele><time>2026-04-05T15:04:01.817Z</time></trkpt><trkpt lat="45.8143067" lon="9.0321533"><ele>407.79999999999995</ele><time>2026-04-05T15:04:02.818Z</time></trkpt><trkpt lat="45.81427" lon="9.032275"><ele>406.59999999999997</ele><time>2026-04-05T15:04:03.817Z</time></trkpt><trkpt lat="45.8142367" lon="9.0324033"><ele>405.4</ele><time>2026-04-05T15:04:04.818Z</time></trkpt><trkpt lat="45.8142067" lon="9.0325267"><ele>404.2</ele><time>2026-04-05T15:04:05.817Z</time></trkpt><trkpt lat="45.8141683" lon="9.0326383"><ele>403.0</ele><time>2026-04-05T15:04:06.817Z</time></trkpt><trkpt lat="45.8141367" lon="9.0327517"><ele>403.0</ele><time>2026-04-05T15:04:07.817Z</time></trkpt><trkpt lat="45.8140967" lon="9.0328683"><ele>403.0</ele><time>2026-04-05T15:04:08.817Z</time></trkpt><trkpt lat="45.814045" lon="9.0329983"><ele>403.0</ele><time>2026-04-05T15:04:09.818Z</time></trkpt><trkpt lat="45.8139833" lon="9.03314"><ele>403.0</ele><time>2026-04-05T15:04:10.817Z</time></trkpt><trkpt lat="45.81391" lon="9.033285"><ele>403.0</ele><time>2026-04-05T15:04:11.818Z</time></trkpt><trkpt lat="45.8138367" lon="9.03343"><ele>403.0</ele><time>2026-04-05T15:04:12.817Z</time></trkpt><trkpt lat="45.8137733" lon="9.0335667"><ele>403.0</ele><time>2026-04-05T15:04:13.817Z</time></trkpt><trkpt lat="45.8137067" lon="9.0337033"><ele>403.0</ele><time>2026-04-05T15:04:14.818Z</time></trkpt><trkpt lat="45.8136317" lon="9.0338367"><ele>403.0</ele><time>2026-04-05T15:04:15.818Z</time></trkpt><trkpt lat="45.8135517" lon="9.0339867"><ele>400.33333333333337</ele><time>2026-04-05T15:04:16.817Z</time></trkpt><trkpt lat="45.8134633" lon="9.0341467"><ele>397.66666666666663</ele><time>2026-04-05T15:04:17.817Z</time></trkpt><trkpt lat="45.81337" lon="9.0343317"><ele>395.0</ele><time>2026-04-05T15:04:18.817Z</time></trkpt><trkpt lat="45.8132767" lon="9.0345083"><ele>395.0</ele><time>2026-04-05T15:04:19.818Z</time></trkpt><trkpt lat="45.8131917" lon="9.034685"><ele>395.0</ele><time>2026-04-05T15:04:20.818Z</time></trkpt><trkpt lat="45.8131117" lon="9.0348617"><ele>395.0</ele><time>2026-04-05T15:04:21.817Z</time></trkpt><trkpt lat="45.81303" lon="9.0350383"><ele>395.0</ele><time>2026-04-05T15:04:22.817Z</time></trkpt><trkpt lat="45.8129333" lon="9.0352167"><ele>395.5</ele><time>2026-04-05T15:04:23.817Z</time></trkpt><trkpt lat="45.8128467" lon="9.0353883"><ele>396.0</ele><time>2026-04-05T15:04:24.818Z</time></trkpt><trkpt lat="45.812765" lon="9.0355517"><ele>396.5</ele><time>2026-04-05T15:04:25.817Z</time></trkpt><trkpt lat="45.8126917" lon="9.0357133"><ele>397.0</ele><time>2026-04-05T15:04:26.817Z</time></trkpt><trkpt lat="45.81262" lon="9.0358583"><ele>396.0</ele><time>2026-04-05T15:04:27.817Z</time></trkpt><trkpt lat="45.8125467" lon="9.0359917"><ele>395.0</ele><time>2026-04-05T15:04:28.817Z</time></trkpt><trkpt lat="45.812475" lon="9.036125"><ele>394.0</ele><time>2026-04-05T15:04:29.817Z</time></trkpt><trkpt lat="45.8124033" lon="9.0362517"><ele>393.0</ele><time>2026-04-05T15:04:30.817Z</time></trkpt><trkpt lat="45.8123283" lon="9.036375"><ele>393.0</ele><time>2026-04-05T15:04:31.817Z</time></trkpt><trkpt lat="45.8122417" lon="9.0364883"><ele>393.0</ele><time>2026-04-05T15:04:32.817Z</time></trkpt><trkpt lat="45.8121383" lon="9.0366083"><ele>393.0</ele><time>2026-04-05T15:04:33.817Z</time></trkpt><trkpt lat="45.8120233" lon="9.036735"><ele>393.0</ele><time>2026-04-05T15:04:34.817Z</time></trkpt><trkpt lat="45.8119083" lon="9.0368783"><ele>393.0</ele><time>2026-04-05T15:04:35.817Z</time></trkpt><trkpt lat="45.8117967" lon="9.037035"><ele>393.0</ele><time>2026-04-05T15:04:36.817Z</time></trkpt><trkpt lat="45.8117" lon="9.03719"><ele>393.0</ele><time>2026-04-05T15:04:37.817Z</time></trkpt><trkpt lat="45.8116033" lon="9.0373467"><ele>393.0</ele><time>2026-04-05T15:04:38.818Z</time></trkpt><trkpt lat="45.8115083" lon="9.03749"><ele>395.0</ele><time>2026-04-05T15:04:39.817Z</time></trkpt><trkpt lat="45.8114333" lon="9.0376333"><ele>397.0</ele><time>2026-04-05T15:04:40.817Z</time></trkpt><trkpt lat="45.8113583" lon="9.0377733"><ele>399.0</ele><time>2026-04-05T15:04:41.817Z</time></trkpt><trkpt lat="45.8112883" lon="9.037905"><ele>401.0</ele><time>2026-04-05T15:04:42.817Z</time></trkpt><trkpt lat="45.811225" lon="9.038035"><ele>401.0</ele><time>2026-04-05T15:04:43.817Z</time></trkpt><trkpt lat="45.8111633" lon="9.03817"><ele>401.0</ele><time>2026-04-05T15:04:44.817Z</time></trkpt><trkpt lat="45.8110983" lon="9.0383167"><ele>401.0</ele><time>2026-04-05T15:04:45.817Z</time></trkpt><trkpt lat="45.811025" lon="9.0384767"><ele>401.0</ele><time>2026-04-05T15:04:46.817Z</time></trkpt><trkpt lat="45.810945" lon="9.0386433"><ele>399.25</ele><time>2026-04-05T15:04:47.818Z</time></trkpt><trkpt lat="45.8108633" lon="9.038815"><ele>397.5</ele><time>2026-04-05T15:04:48.817Z</time></trkpt><trkpt lat="45.8107933" lon="9.038975"><ele>395.75</ele><time>2026-04-05T15:04:49.817Z</time></trkpt><trkpt lat="45.8107367" lon="9.03914"><ele>394.0</ele><time>2026-04-05T15:04:50.817Z</time></trkpt><trkpt lat="45.8107067" lon="9.03931"><ele>394.0</ele><time>2026-04-05T15:04:51.817Z</time></trkpt><trkpt lat="45.8107017" lon="9.0394967"><ele>394.0</ele><time>2026-04-05T15:04:52.817Z</time></trkpt><trkpt lat="45.8107167" lon="9.03969"><ele>394.0</ele><time>2026-04-05T15:04:53.817Z</time></trkpt><trkpt lat="45.8107783" lon="9.0398717"><ele>394.0</ele><time>2026-04-05T15:04:54.817Z</time></trkpt><trkpt lat="45.81084" lon="9.0400583"><ele>395.0</ele><time>2026-04-05T15:04:55.817Z</time></trkpt><trkpt lat="45.8108967" lon="9.0402417"><ele>396.0</ele><time>2026-04-05T15:04:56.817Z</time></trkpt><trkpt lat="45.8109583" lon="9.0404083"><ele>397.0</ele><time>2026-04-05T15:04:57.817Z</time></trkpt><trkpt lat="45.8109783" lon="9.0405867"><ele>398.0</ele><time>2026-04-05T15:04:58.817Z</time></trkpt><trkpt lat="45.810965" lon="9.04075"><ele>398.0</ele><time>2026-04-05T15:04:59.817Z</time></trkpt><trkpt lat="45.810925" lon="9.0409167"><ele>398.0</ele><time>2026-04-05T15:05:00.818Z</time></trkpt><trkpt lat="45.8108617" lon="9.0410983"><ele>398.0</ele><time>2026-04-05T15:05:01.818Z</time></trkpt><trkpt lat="45.8108" lon="9.04127"><ele>398.0</ele><time>2026-04-05T15:05:02.817Z</time></trkpt><trkpt lat="45.8107417" lon="9.0414183"><ele>398.0</ele><time>2026-04-05T15:05:03.817Z</time></trkpt><trkpt lat="45.8106883" lon="9.0415533"><ele>398.0</ele><time>2026-04-05T15:05:04.817Z</time></trkpt><trkpt lat="45.810645" lon="9.041675"><ele>398.0</ele><time>2026-04-05T15:05:05.818Z</time></trkpt><trkpt lat="45.81061" lon="9.0418"><ele>398.0</ele><time>2026-04-05T15:05:06.817Z</time></trkpt><trkpt lat="45.8105717" lon="9.0419283"><ele>398.0</ele><time>2026-04-05T15:05:07.817Z</time></trkpt><trkpt lat="45.8105233" lon="9.0420733"><ele>399.5</ele><time>2026-04-05T15:05:08.817Z</time></trkpt><trkpt lat="45.8105017" lon="9.0422233"><ele>401.0</ele><time>2026-04-05T15:05:09.817Z</time></trkpt><trkpt lat="45.8105283" lon="9.0423883"><ele>402.5</ele><time>2026-04-05T15:05:10.817Z</time></trkpt><trkpt lat="45.8106017" lon="9.0425483"><ele>404.0</ele><time>2026-04-05T15:05:11.818Z</time></trkpt><trkpt lat="45.8106917" lon="9.0427033"><ele>404.0</ele><time>2026-04-05T15:05:12.817Z</time></trkpt><trkpt lat="45.81077" lon="9.04285"><ele>404.0</ele><time>2026-04-05T15:05:13.817Z</time></trkpt><trkpt lat="45.8108467" lon="9.042975"><ele>404.0</ele><time>2026-04-05T15:05:14.817Z</time></trkpt><trkpt lat="45.8109167" lon="9.0431017"><ele>404.0</ele><time>2026-04-05T15:05:15.818Z</time></trkpt><trkpt lat="45.8109767" lon="9.0432183"><ele>403.79999999999995</ele><time>2026-04-05T15:05:16.817Z</time></trkpt><trkpt lat="45.811015" lon="9.0433317"><ele>403.59999999999997</ele><time>2026-04-05T15:05:17.817Z</time></trkpt><trkpt lat="45.8110367" lon="9.043455"><ele>403.4</ele><time>2026-04-05T15:05:18.817Z</time></trkpt><trkpt lat="45.8110467" lon="9.0435933"><ele>403.2</ele><time>2026-04-05T15:05:19.817Z</time></trkpt><trkpt lat="45.811045" lon="9.043745"><ele>403.0</ele><time>2026-04-05T15:05:20.817Z</time></trkpt><trkpt lat="45.8110417" lon="9.0439033"><ele>403.0</ele><time>2026-04-05T15:05:21.818Z</time></trkpt><trkpt lat="45.8110383" lon="9.04406"><ele>403.0</ele><time>2026-04-05T15:05:22.817Z</time></trkpt><trkpt lat="45.8110333" lon="9.0442133"><ele>403.0</ele><time>2026-04-05T15:05:23.818Z</time></trkpt><trkpt lat="45.8110233" lon="9.04436"><ele>403.0</ele><time>2026-04-05T15:05:24.817Z</time></trkpt><trkpt lat="45.8110033" lon="9.0445083"><ele>403.0</ele><time>2026-04-05T15:05:25.817Z</time></trkpt><trkpt lat="45.810955" lon="9.0446617"><ele>402.0</ele><time>2026-04-05T15:05:26.817Z</time></trkpt><trkpt lat="45.8108833" lon="9.0448183"><ele>401.0</ele><time>2026-04-05T15:05:27.817Z</time></trkpt><trkpt lat="45.8108067" lon="9.0449733"><ele>400.0</ele><time>2026-04-05T15:05:28.817Z</time></trkpt><trkpt lat="45.8107283" lon="9.0451333"><ele>399.0</ele><time>2026-04-05T15:05:29.817Z</time></trkpt><trkpt lat="45.8106417" lon="9.0452833"><ele>398.0</ele><time>2026-04-05T15:05:30.817Z</time></trkpt><trkpt lat="45.8105617" lon="9.0454333"><ele>397.0</ele><time>2026-04-05T15:05:31.817Z</time></trkpt><trkpt lat="45.810485" lon="9.04557"><ele>396.0</ele><time>2026-04-05T15:05:32.817Z</time></trkpt><trkpt lat="45.810415" lon="9.0457"><ele>395.0</ele><time>2026-04-05T15:05:33.817Z</time></trkpt><trkpt lat="45.8103467" lon="9.0458267"><ele>395.0</ele><time>2026-04-05T15:05:34.817Z</time></trkpt><trkpt lat="45.8102883" lon="9.04595"><ele>395.0</ele><time>2026-04-05T15:05:35.817Z</time></trkpt><trkpt lat="45.81023" lon="9.0460683"><ele>395.0</ele><time>2026-04-05T15:05:36.817Z</time></trkpt><trkpt lat="45.8101667" lon="9.0461783"><ele>395.0</ele><time>2026-04-05T15:05:37.817Z</time></trkpt><trkpt lat="45.810105" lon="9.0462883"><ele>395.0</ele><time>2026-04-05T15:05:38.817Z</time></trkpt><trkpt lat="45.8100567" lon="9.0463917"><ele>394.85714285714283</ele><time>2026-04-05T15:05:39.817Z</time></trkpt><trkpt lat="45.8100133" lon="9.0464883"><ele>394.7142857142857</ele><time>2026-04-05T15:05:40.818Z</time></trkpt><trkpt lat="45.8099717" lon="9.0465767"><ele>394.57142857142856</ele><time>2026-04-05T15:05:41.817Z</time></trkpt><trkpt lat="45.8099233" lon="9.0466567"><ele>394.42857142857144</ele><time>2026-04-05T15:05:42.818Z</time></trkpt><trkpt lat="45.8098667" lon="9.0467233"><ele>394.28571428571433</ele><time>2026-04-05T15:05:43.817Z</time></trkpt><trkpt lat="45.8098083" lon="9.046775"><ele>394.14285714285717</ele><time>2026-04-05T15:05:44.817Z</time></trkpt><trkpt lat="45.80975" lon="9.0468183"><ele>394.0</ele><time>2026-04-05T15:05:45.817Z</time></trkpt><trkpt lat="45.8096933" lon="9.04686"><ele>394.00000000000006</ele><time>2026-04-05T15:05:46.818Z</time></trkpt><trkpt lat="45.8096333" lon="9.0469967"><ele>394.0</ele><time>2026-04-05T15:05:48.818Z</time></trkpt><trkpt lat="45.80961" lon="9.047095"><ele>394.0</ele><time>2026-04-05T15:05:49.818Z</time></trkpt><trkpt lat="45.8095817" lon="9.0471917"><ele>394.0</ele><time>2026-04-05T15:05:50.818Z</time></trkpt><trkpt lat="45.8095433" lon="9.0472667"><ele>394.00000000000006</ele><time>2026-04-05T15:05:51.818Z</time></trkpt><trkpt lat="45.80947" lon="9.0473983"><ele>394.0</ele><time>2026-04-05T15:05:53.817Z</time></trkpt><trkpt lat="45.8094033" lon="9.0475283"><ele>394.33333333333337</ele><time>2026-04-05T15:05:55.817Z</time></trkpt><trkpt lat="45.8093367" lon="9.0476317"><ele>394.6666666666667</ele><time>2026-04-05T15:05:57.817Z</time></trkpt><trkpt lat="45.80926" lon="9.04776"><ele>395.0</ele><time>2026-04-05T15:05:59.817Z</time></trkpt><trkpt lat="45.8092217" lon="9.047835"><ele>395.33333333333337</ele><time>2026-04-05T15:06:00.817Z</time></trkpt><trkpt lat="45.8091717" lon="9.0479"><ele>395.6666666666667</ele><time>2026-04-05T15:06:01.817Z</time></trkpt><trkpt lat="45.8091217" lon="9.0479783"><ele>396.0</ele><time>2026-04-05T15:06:02.817Z</time></trkpt><trkpt lat="45.8090667" lon="9.0480567"><ele>396.0</ele><time>2026-04-05T15:06:03.818Z</time></trkpt><trkpt lat="45.80902" lon="9.0481467"><ele>396.0</ele><time>2026-04-05T15:06:04.817Z</time></trkpt><trkpt lat="45.808975" lon="9.0482333"><ele>396.0</ele><time>2026-04-05T15:06:05.817Z</time></trkpt><trkpt lat="45.8089217" lon="9.0483133"><ele>396.0</ele><time>2026-04-05T15:06:06.817Z</time></trkpt><trkpt lat="45.8088683" lon="9.0483867"><ele>396.0</ele><time>2026-04-05T15:06:07.818Z</time></trkpt><trkpt lat="45.8088183" lon="9.048465"><ele>396.0</ele><time>2026-04-05T15:06:08.818Z</time></trkpt><trkpt lat="45.8087733" lon="9.0485383"><ele>396.0</ele><time>2026-04-05T15:06:09.818Z</time></trkpt><trkpt lat="45.8087317" lon="9.0486167"><ele>396.3333333333333</ele><time>2026-04-05T15:06:10.817Z</time></trkpt><trkpt lat="45.808685" lon="9.0486933"><ele>396.66666666666663</ele><time>2026-04-05T15:06:11.817Z</time></trkpt><trkpt lat="45.808635" lon="9.0487717"><ele>397.0</ele><time>2026-04-05T15:06:12.817Z</time></trkpt><trkpt lat="45.80858" lon="9.048835"><ele>397.3333333333333</ele><time>2026-04-05T15:06:13.818Z</time></trkpt><trkpt lat="45.808525" lon="9.0488833"><ele>397.66666666666663</ele><time>2026-04-05T15:06:14.817Z</time></trkpt><trkpt lat="45.8084083" lon="9.0489383"><ele>398.0</ele><time>2026-04-05T15:06:16.817Z</time></trkpt><trkpt lat="45.808345" lon="9.0489633"><ele>397.99999999999994</ele><time>2026-04-05T15:06:17.817Z</time></trkpt><trkpt lat="45.808275" lon="9.0489983"><ele>398.0</ele><time>2026-04-05T15:06:18.817Z</time></trkpt><trkpt lat="45.80821" lon="9.0490467"><ele>398.0</ele><time>2026-04-05T15:06:19.817Z</time></trkpt><trkpt lat="45.80816" lon="9.04912"><ele>398.0</ele><time>2026-04-05T15:06:20.817Z</time></trkpt><trkpt lat="45.808125" lon="9.0492233"><ele>397.99999999999994</ele><time>2026-04-05T15:06:21.817Z</time></trkpt><trkpt lat="45.8080883" lon="9.0493417"><ele>398.0</ele><time>2026-04-05T15:06:22.817Z</time></trkpt><trkpt lat="45.80805" lon="9.04947"><ele>398.3333333333333</ele><time>2026-04-05T15:06:23.817Z</time></trkpt><trkpt lat="45.8080167" lon="9.049595"><ele>398.66666666666663</ele><time>2026-04-05T15:06:24.817Z</time></trkpt><trkpt lat="45.807985" lon="9.0497183"><ele>399.0</ele><time>2026-04-05T15:06:25.817Z</time></trkpt><trkpt lat="45.8079583" lon="9.0498383"><ele>399.33333333333337</ele><time>2026-04-05T15:06:26.817Z</time></trkpt><trkpt lat="45.8079333" lon="9.049955"><ele>399.6666666666667</ele><time>2026-04-05T15:06:27.817Z</time></trkpt><trkpt lat="45.8079067" lon="9.0500717"><ele>400.0</ele><time>2026-04-05T15:06:28.818Z</time></trkpt><trkpt lat="45.8078767" lon="9.050185"><ele>400.1666666666667</ele><time>2026-04-05T15:06:29.817Z</time></trkpt><trkpt lat="45.80784" lon="9.0502933"><ele>400.33333333333337</ele><time>2026-04-05T15:06:30.817Z</time></trkpt><trkpt lat="45.8077967" lon="9.05039"><ele>400.5</ele><time>2026-04-05T15:06:31.817Z</time></trkpt><trkpt lat="45.8077483" lon="9.0504783"><ele>400.66666666666663</ele><time>2026-04-05T15:06:32.817Z</time></trkpt><trkpt lat="45.807695" lon="9.0505417"><ele>400.8333333333333</ele><time>2026-04-05T15:06:33.817Z</time></trkpt><trkpt lat="45.8076333" lon="9.050585"><ele>401.0</ele><time>2026-04-05T15:06:34.817Z</time></trkpt><trkpt lat="45.8075183" lon="9.050605"><ele>400.66666666666663</ele><time>2026-04-05T15:06:36.818Z</time></trkpt><trkpt lat="45.80744" lon="9.0506717"><ele>400.3333333333333</ele><time>2026-04-05T15:06:38.817Z</time></trkpt><trkpt lat="45.8074467" lon="9.0508133"><ele>400.0</ele><time>2026-04-05T15:06:40.818Z</time></trkpt><trkpt lat="45.80754" lon="9.0509133"><ele>399.66666666666663</ele><time>2026-04-05T15:06:42.817Z</time></trkpt><trkpt lat="45.8075983" lon="9.05096"><ele>399.3333333333333</ele><time>2026-04-05T15:06:43.817Z</time></trkpt><trkpt lat="45.8076583" lon="9.0510233"><ele>399.0</ele><time>2026-04-05T15:06:44.817Z</time></trkpt><trkpt lat="45.8077183" lon="9.0510983"><ele>399.0</ele><time>2026-04-05T15:06:45.818Z</time></trkpt><trkpt lat="45.8077867" lon="9.0512017"><ele>399.0</ele><time>2026-04-05T15:06:46.817Z</time></trkpt><trkpt lat="45.8078567" lon="9.0513183"><ele>399.0</ele><time>2026-04-05T15:06:47.817Z</time></trkpt><trkpt lat="45.8079233" lon="9.051415"><ele>399.0</ele><time>2026-04-05T15:06:48.818Z</time></trkpt><trkpt lat="45.8079833" lon="9.0515033"><ele>399.0</ele><time>2026-04-05T15:06:49.817Z</time></trkpt><trkpt lat="45.8080283" lon="9.0515717"><ele>399.2</ele><time>2026-04-05T15:06:50.818Z</time></trkpt><trkpt lat="45.8080733" lon="9.0516367"><ele>399.4</ele><time>2026-04-05T15:06:51.817Z</time></trkpt><trkpt lat="45.8081533" lon="9.0517333"><ele>399.6</ele><time>2026-04-05T15:06:53.818Z</time></trkpt><trkpt lat="45.8082233" lon="9.0518233"><ele>399.8</ele><time>2026-04-05T15:06:55.818Z</time></trkpt><trkpt lat="45.8083133" lon="9.0519367"><ele>400.0</ele><time>2026-04-05T15:06:57.817Z</time></trkpt><trkpt lat="45.808375" lon="9.0519883"><ele>400.00000000000006</ele><time>2026-04-05T15:06:58.818Z</time></trkpt><trkpt lat="45.8084467" lon="9.0520283"><ele>400.0</ele><time>2026-04-05T15:06:59.817Z</time></trkpt><trkpt lat="45.8085167" lon="9.0520567"><ele>400.0</ele><time>2026-04-05T15:07:00.817Z</time></trkpt><trkpt lat="45.80858" lon="9.05206"><ele>400.0</ele><time>2026-04-05T15:07:01.817Z</time></trkpt><trkpt lat="45.80865" lon="9.0520617"><ele>400.00000000000006</ele><time>2026-04-05T15:07:02.817Z</time></trkpt><trkpt lat="45.8087133" lon="9.0520717"><ele>400.0</ele><time>2026-04-05T15:07:03.817Z</time></trkpt><trkpt lat="45.808835" lon="9.0521367"><ele>400.00000000000006</ele><time>2026-04-05T15:07:05.817Z</time></trkpt><trkpt lat="45.80889" lon="9.0521867"><ele>400.0</ele><time>2026-04-05T15:07:06.818Z</time></trkpt><trkpt lat="45.8089533" lon="9.0522567"><ele>400.0</ele><time>2026-04-05T15:07:07.817Z</time></trkpt><trkpt lat="45.80901" lon="9.052335"><ele>400.0</ele><time>2026-04-05T15:07:08.818Z</time></trkpt><trkpt lat="45.8090617" lon="9.0524083"><ele>400.00000000000006</ele><time>2026-04-05T15:07:09.817Z</time></trkpt><trkpt lat="45.8091167" lon="9.0525367"><ele>400.0</ele><time>2026-04-05T15:07:11.817Z</time></trkpt><trkpt lat="45.8091367" lon="9.05265"><ele>400.0</ele><time>2026-04-05T15:07:13.818Z</time></trkpt><trkpt lat="45.80916" lon="9.0527783"><ele>400.0</ele><time>2026-04-05T15:07:15.817Z</time></trkpt><trkpt lat="45.80916" lon="9.0529367"><ele>400.0</ele><time>2026-04-05T15:07:17.818Z</time></trkpt><trkpt lat="45.8091217" lon="9.0530933"><ele>400.0</ele><time>2026-04-05T15:07:19.817Z</time></trkpt><trkpt lat="45.8091017" lon="9.0531833"><ele>400.0</ele><time>2026-04-05T15:07:20.817Z</time></trkpt><trkpt lat="45.8090633" lon="9.053325"><ele>399.6</ele><time>2026-04-05T15:07:22.817Z</time></trkpt><trkpt lat="45.8089983" lon="9.0534517"><ele>399.2</ele><time>2026-04-05T15:07:43.817Z</time></trkpt><trkpt lat="45.80896" lon="9.0536167"><ele>398.79999999999995</ele><time>2026-04-05T15:07:45.817Z</time></trkpt><trkpt lat="45.8089383" lon="9.053705"><ele>398.4</ele><time>2026-04-05T15:07:46.817Z</time></trkpt><trkpt lat="45.80887" lon="9.0538367"><ele>398.0</ele><time>2026-04-05T15:07:48.817Z</time></trkpt><trkpt lat="45.8087733" lon="9.05396"><ele>397.99999999999994</ele><time>2026-04-05T15:07:50.818Z</time></trkpt><trkpt lat="45.8086967" lon="9.054035"><ele>398.0</ele><time>2026-04-05T15:07:51.817Z</time></trkpt><trkpt lat="45.8086267" lon="9.054115"><ele>398.0</ele><time>2026-04-05T15:07:52.817Z</time></trkpt><trkpt lat="45.8085633" lon="9.0542"><ele>398.0</ele><time>2026-04-05T15:07:53.817Z</time></trkpt><trkpt lat="45.80851" lon="9.054275"><ele>397.99999999999994</ele><time>2026-04-05T15:07:54.817Z</time></trkpt><trkpt lat="45.8084667" lon="9.0543533"><ele>398.0</ele><time>2026-04-05T15:07:55.817Z</time></trkpt><trkpt lat="45.8084033" lon="9.054485"><ele>397.8333333333333</ele><time>2026-04-05T15:07:57.818Z</time></trkpt><trkpt lat="45.8084067" lon="9.0546033"><ele>397.66666666666663</ele><time>2026-04-05T15:07:59.817Z</time></trkpt><trkpt lat="45.8084567" lon="9.0547717"><ele>397.5</ele><time>2026-04-05T15:08:01.817Z</time></trkpt><trkpt lat="45.8084817" lon="9.0548683"><ele>397.33333333333337</ele><time>2026-04-05T15:08:02.818Z</time></trkpt><trkpt lat="45.808505" lon="9.0549617"><ele>397.1666666666667</ele><time>2026-04-05T15:08:03.817Z</time></trkpt><trkpt lat="45.808535" lon="9.05505"><ele>397.0</ele><time>2026-04-05T15:08:04.817Z</time></trkpt><trkpt lat="45.80859" lon="9.0551267"><ele>396.6666666666667</ele><time>2026-04-05T15:08:05.817Z</time></trkpt><trkpt lat="45.80863" lon="9.0552067"><ele>396.33333333333337</ele><time>2026-04-05T15:08:06.818Z</time></trkpt><trkpt lat="45.8086917" lon="9.0552933"><ele>396.0</ele><time>2026-04-05T15:08:07.817Z</time></trkpt><trkpt lat="45.808755" lon="9.0553683"><ele>395.66666666666663</ele><time>2026-04-05T15:08:08.817Z</time></trkpt><trkpt lat="45.8088317" lon="9.0554433"><ele>395.3333333333333</ele><time>2026-04-05T15:08:09.817Z</time></trkpt><trkpt lat="45.8089067" lon="9.0555083"><ele>395.0</ele><time>2026-04-05T15:08:10.816Z</time></trkpt><trkpt lat="45.80898" lon="9.0555367"><ele>394.99999999999994</ele><time>2026-04-05T15:08:11.817Z</time></trkpt><trkpt lat="45.8090467" lon="9.0555583"><ele>395.0</ele><time>2026-04-05T15:08:12.816Z</time></trkpt><trkpt lat="45.8091233" lon="9.05557"><ele>395.0</ele><time>2026-04-05T15:08:13.817Z</time></trkpt><trkpt lat="45.80921" lon="9.055555"><ele>395.0</ele><time>2026-04-05T15:08:14.816Z</time></trkpt><trkpt lat="45.8093067" lon="9.055525"><ele>394.99999999999994</ele><time>2026-04-05T15:08:15.817Z</time></trkpt><trkpt lat="45.8093983" lon="9.0555033"><ele>395.0</ele><time>2026-04-05T15:08:16.817Z</time></trkpt><trkpt lat="45.8094767" lon="9.0554817"><ele>395.16666666666663</ele><time>2026-04-05T15:08:17.817Z</time></trkpt><trkpt lat="45.8095533" lon="9.0555067"><ele>395.3333333333333</ele><time>2026-04-05T15:08:18.816Z</time></trkpt><trkpt lat="45.809595" lon="9.05558"><ele>395.5</ele><time>2026-04-05T15:08:19.817Z</time></trkpt><trkpt lat="45.80961" lon="9.0556717"><ele>395.66666666666663</ele><time>2026-04-05T15:08:20.817Z</time></trkpt><trkpt lat="45.8096033" lon="9.0557983"><ele>395.8333333333333</ele><time>2026-04-05T15:08:21.816Z</time></trkpt><trkpt lat="45.809595" lon="9.055925"><ele>396.0</ele><time>2026-04-05T15:08:22.816Z</time></trkpt><trkpt lat="45.8096167" lon="9.0560317"><ele>396.0</ele><time>2026-04-05T15:08:23.817Z</time></trkpt><trkpt lat="45.809655" lon="9.0561217"><ele>396.0</ele><time>2026-04-05T15:08:24.816Z</time></trkpt><trkpt lat="45.8097" lon="9.0561883"><ele>396.0</ele><time>2026-04-05T15:08:25.816Z</time></trkpt><trkpt lat="45.80972" lon="9.056285"><ele>396.0</ele><time>2026-04-05T15:08:26.816Z</time></trkpt><trkpt lat="45.8096983" lon="9.0564567"><ele>396.0</ele><time>2026-04-05T15:08:28.816Z</time></trkpt><trkpt lat="45.80963" lon="9.0565733"><ele>396.0</ele><time>2026-04-05T15:08:30.816Z</time></trkpt><trkpt lat="45.80957" lon="9.0566417"><ele>396.0</ele><time>2026-04-05T15:08:33.816Z</time></trkpt><trkpt lat="45.8095067" lon="9.05673"><ele>396.0</ele><time>2026-04-05T15:08:38.816Z</time></trkpt><trkpt lat="45.8094417" lon="9.05672"><ele>396.0</ele><time>2026-04-05T15:08:40.816Z</time></trkpt><trkpt lat="45.8094017" lon="9.05661"><ele>396.0</ele><time>2026-04-05T15:08:42.816Z</time></trkpt><trkpt lat="45.8093533" lon="9.0564517"><ele>396.0</ele><time>2026-04-05T15:08:44.816Z</time></trkpt><trkpt lat="45.8092817" lon="9.0563083"><ele>392.8571428571429</ele><time>2026-04-05T15:08:46.816Z</time></trkpt><trkpt lat="45.8092333" lon="9.0562483"><ele>389.71428571428567</ele><time>2026-04-05T15:08:47.816Z</time></trkpt><trkpt lat="45.8091833" lon="9.0561883"><ele>386.57142857142856</ele><time>2026-04-05T15:08:48.816Z</time></trkpt><trkpt lat="45.8091317" lon="9.056125"><ele>383.42857142857144</ele><time>2026-04-05T15:08:49.816Z</time></trkpt><trkpt lat="45.8090783" lon="9.0560683"><ele>380.28571428571433</ele><time>2026-04-05T15:08:50.816Z</time></trkpt><trkpt lat="45.809015" lon="9.05602"><ele>377.1428571428571</ele><time>2026-04-05T15:08:51.816Z</time></trkpt><trkpt lat="45.8089517" lon="9.0559767"><ele>374.0</ele><time>2026-04-05T15:08:52.816Z</time></trkpt><trkpt lat="45.8088867" lon="9.0559417"><ele>374.0</ele><time>2026-04-05T15:08:53.816Z</time></trkpt><trkpt lat="45.8088117" lon="9.05592"><ele>374.0</ele><time>2026-04-05T15:08:54.817Z</time></trkpt><trkpt lat="45.8087417" lon="9.0558983"><ele>374.0</ele><time>2026-04-05T15:08:55.816Z</time></trkpt><trkpt lat="45.8086767" lon="9.0558883"><ele>374.0</ele><time>2026-04-05T15:08:56.817Z</time></trkpt><trkpt lat="45.8086117" lon="9.0559017"><ele>374.0</ele><time>2026-04-05T15:08:57.816Z</time></trkpt><trkpt lat="45.8085533" lon="9.0559383"><ele>374.0</ele><time>2026-04-05T15:08:58.816Z</time></trkpt><trkpt lat="45.8085017" lon="9.0560067"><ele>374.0</ele><time>2026-04-05T15:08:59.816Z</time></trkpt><trkpt lat="45.80848" lon="9.056095"><ele>374.0</ele><time>2026-04-05T15:09:00.817Z</time></trkpt><trkpt lat="45.8084733" lon="9.0562117"><ele>374.0</ele><time>2026-04-05T15:09:01.816Z</time></trkpt><trkpt lat="45.808475" lon="9.056345"><ele>374.0</ele><time>2026-04-05T15:09:02.816Z</time></trkpt><trkpt lat="45.8084917" lon="9.0564817"><ele>374.0</ele><time>2026-04-05T15:09:03.816Z</time></trkpt><trkpt lat="45.808495" lon="9.0566183"><ele>374.0</ele><time>2026-04-05T15:09:04.817Z</time></trkpt><trkpt lat="45.808475" lon="9.0567467"><ele>375.33333333333337</ele><time>2026-04-05T15:09:05.816Z</time></trkpt><trkpt lat="45.8084517" lon="9.0568717"><ele>376.6666666666667</ele><time>2026-04-05T15:09:06.816Z</time></trkpt><trkpt lat="45.8084183" lon="9.0569883"><ele>378.0</ele><time>2026-04-05T15:09:07.817Z</time></trkpt><trkpt lat="45.8083833" lon="9.0571067"><ele>379.3333333333333</ele><time>2026-04-05T15:09:08.816Z</time></trkpt><trkpt lat="45.8083467" lon="9.057225"><ele>380.66666666666663</ele><time>2026-04-05T15:09:09.817Z</time></trkpt><trkpt lat="45.8083117" lon="9.0573317"><ele>382.0</ele><time>2026-04-05T15:09:10.817Z</time></trkpt><trkpt lat="45.8082633" lon="9.0574117"><ele>378.8333333333333</ele><time>2026-04-05T15:09:11.816Z</time></trkpt><trkpt lat="45.8081967" lon="9.05747"><ele>375.66666666666663</ele><time>2026-04-05T15:09:12.816Z</time></trkpt><trkpt lat="45.8081367" lon="9.0575267"><ele>372.5</ele><time>2026-04-05T15:09:13.816Z</time></trkpt><trkpt lat="45.8080833" lon="9.0575883"><ele>369.3333333333333</ele><time>2026-04-05T15:09:14.816Z</time></trkpt><trkpt lat="45.80804" lon="9.0576633"><ele>366.1666666666667</ele><time>2026-04-05T15:09:15.816Z</time></trkpt><trkpt lat="45.8080133" lon="9.0577933"><ele>363.0</ele><time>2026-04-05T15:09:17.816Z</time></trkpt><trkpt lat="45.8081267" lon="9.0579067"><ele>363.0</ele><time>2026-04-05T15:09:19.816Z</time></trkpt><trkpt lat="45.80823" lon="9.057975"><ele>363.0</ele><time>2026-04-05T15:09:20.816Z</time></trkpt><trkpt lat="45.8083433" lon="9.0580683"><ele>363.0</ele><time>2026-04-05T15:09:21.816Z</time></trkpt><trkpt lat="45.8084483" lon="9.0581883"><ele>363.0</ele><time>2026-04-05T15:09:22.817Z</time></trkpt><trkpt lat="45.8085683" lon="9.0583033"><ele>359.59999999999997</ele><time>2026-04-05T15:09:23.816Z</time></trkpt><trkpt lat="45.8086767" lon="9.0583933"><ele>356.2</ele><time>2026-04-05T15:09:24.816Z</time></trkpt><trkpt lat="45.808775" lon="9.0584733"><ele>352.8</ele><time>2026-04-05T15:09:25.816Z</time></trkpt><trkpt lat="45.8088433" lon="9.0585567"><ele>349.4</ele><time>2026-04-05T15:09:26.817Z</time></trkpt><trkpt lat="45.80889" lon="9.0586517"><ele>346.0</ele><time>2026-04-05T15:09:27.816Z</time></trkpt><trkpt lat="45.8089167" lon="9.058755"><ele>346.0</ele><time>2026-04-05T15:09:28.816Z</time></trkpt><trkpt lat="45.8089367" lon="9.0588433"><ele>346.0</ele><time>2026-04-05T15:09:29.816Z</time></trkpt><trkpt lat="45.8089267" lon="9.05901"><ele>346.0</ele><time>2026-04-05T15:09:31.816Z</time></trkpt><trkpt lat="45.80888" lon="9.0591333"><ele>346.0</ele><time>2026-04-05T15:09:33.816Z</time></trkpt><trkpt lat="45.8087883" lon="9.0592117"><ele>346.0</ele><time>2026-04-05T15:09:35.816Z</time></trkpt><trkpt lat="45.808725" lon="9.0592617"><ele>344.57142857142856</ele><time>2026-04-05T15:09:37.816Z</time></trkpt><trkpt lat="45.8086867" lon="9.0593383"><ele>343.14285714285717</ele><time>2026-04-05T15:09:39.817Z</time></trkpt><trkpt lat="45.8087267" lon="9.0594383"><ele>341.7142857142857</ele><time>2026-04-05T15:09:41.816Z</time></trkpt><trkpt lat="45.8087767" lon="9.0595017"><ele>340.2857142857143</ele><time>2026-04-05T15:09:42.816Z</time></trkpt><trkpt lat="45.80883" lon="9.059575"><ele>338.8571428571429</ele><time>2026-04-05T15:09:43.816Z</time></trkpt><trkpt lat="45.8088783" lon="9.05965"><ele>337.42857142857144</ele><time>2026-04-05T15:09:44.816Z</time></trkpt><trkpt lat="45.8089233" lon="9.05972"><ele>336.0</ele><time>2026-04-05T15:09:45.817Z</time></trkpt><trkpt lat="45.8089667" lon="9.0597983"><ele>336.0</ele><time>2026-04-05T15:09:46.816Z</time></trkpt><trkpt lat="45.80901" lon="9.0598933"><ele>336.0</ele><time>2026-04-05T15:09:47.816Z</time></trkpt><trkpt lat="45.8090533" lon="9.060005"><ele>336.0</ele><time>2026-04-05T15:09:48.816Z</time></trkpt><trkpt lat="45.80909" lon="9.0601117"><ele>336.0</ele><time>2026-04-05T15:09:49.817Z</time></trkpt><trkpt lat="45.80912" lon="9.0602233"><ele>336.0</ele><time>2026-04-05T15:09:50.816Z</time></trkpt><trkpt lat="45.8091467" lon="9.060335"><ele>336.0</ele><time>2026-04-05T15:09:51.816Z</time></trkpt><trkpt lat="45.8091633" lon="9.0604417"><ele>335.0</ele><time>2026-04-05T15:09:52.817Z</time></trkpt><trkpt lat="45.8091717" lon="9.0605517"><ele>334.0</ele><time>2026-04-05T15:09:53.816Z</time></trkpt><trkpt lat="45.8091733" lon="9.06067"><ele>333.0</ele><time>2026-04-05T15:09:54.816Z</time></trkpt><trkpt lat="45.8091767" lon="9.060785"><ele>332.0</ele><time>2026-04-05T15:09:55.816Z</time></trkpt><trkpt lat="45.8091917" lon="9.0608833"><ele>331.0</ele><time>2026-04-05T15:09:56.817Z</time></trkpt><trkpt lat="45.8092183" lon="9.0609867"><ele>330.0</ele><time>2026-04-05T15:09:57.817Z</time></trkpt><trkpt lat="45.8092617" lon="9.06109"><ele>330.0</ele><time>2026-04-05T15:09:58.816Z</time></trkpt><trkpt lat="45.8092983" lon="9.061195"><ele>330.0</ele><time>2026-04-05T15:09:59.816Z</time></trkpt><trkpt lat="45.8093283" lon="9.0613133"><ele>330.0</ele><time>2026-04-05T15:10:00.817Z</time></trkpt><trkpt lat="45.8093533" lon="9.061425"><ele>330.0</ele><time>2026-04-05T15:10:01.817Z</time></trkpt><trkpt lat="45.8093733" lon="9.0615467"><ele>330.0</ele><time>2026-04-05T15:10:02.816Z</time></trkpt><trkpt lat="45.809405" lon="9.0616533"><ele>330.0</ele><time>2026-04-05T15:10:03.816Z</time></trkpt><trkpt lat="45.8094433" lon="9.06177"><ele>322.8</ele><time>2026-04-05T15:10:04.816Z</time></trkpt><trkpt lat="45.8094867" lon="9.0618883"><ele>315.6</ele><time>2026-04-05T15:10:05.816Z</time></trkpt><trkpt lat="45.8095317" lon="9.062"><ele>308.4</ele><time>2026-04-05T15:10:06.816Z</time></trkpt><trkpt lat="45.8095883" lon="9.0621117"><ele>301.2</ele><time>2026-04-05T15:10:07.816Z</time></trkpt><trkpt lat="45.8096383" lon="9.0622317"><ele>294.0</ele><time>2026-04-05T15:10:08.816Z</time></trkpt><trkpt lat="45.80969" lon="9.0623417"><ele>294.0</ele><time>2026-04-05T15:10:09.816Z</time></trkpt><trkpt lat="45.809745" lon="9.0624383"><ele>294.0</ele><time>2026-04-05T15:10:10.817Z</time></trkpt><trkpt lat="45.809785" lon="9.06252"><ele>294.0</ele><time>2026-04-05T15:10:11.816Z</time></trkpt><trkpt lat="45.80984" lon="9.0626233"><ele>294.0</ele><time>2026-04-05T15:10:13.816Z</time></trkpt><trkpt lat="45.8099033" lon="9.0626367"><ele>294.0</ele><time>2026-04-05T15:10:15.816Z</time></trkpt><trkpt lat="45.809895" lon="9.06247"><ele>294.0</ele><time>2026-04-05T15:10:18.816Z</time></trkpt><trkpt lat="45.8098633" lon="9.062355"><ele>294.0</ele><time>2026-04-05T15:10:19.816Z</time></trkpt><trkpt lat="45.80982" lon="9.0622033"><ele>294.0</ele><time>2026-04-05T15:10:20.816Z</time></trkpt><trkpt lat="45.809765" lon="9.0620033"><ele>294.0</ele><time>2026-04-05T15:10:21.816Z</time></trkpt><trkpt lat="45.8097117" lon="9.0617983"><ele>294.0</ele><time>2026-04-05T15:10:22.816Z</time></trkpt><trkpt lat="45.809665" lon="9.0616067"><ele>295.0</ele><time>2026-04-05T15:10:23.816Z</time></trkpt><trkpt lat="45.80962" lon="9.0614483"><ele>296.0</ele><time>2026-04-05T15:10:24.816Z</time></trkpt><trkpt lat="45.8095783" lon="9.0612933"><ele>297.0</ele><time>2026-04-05T15:10:25.816Z</time></trkpt><trkpt lat="45.8095383" lon="9.0611483"><ele>298.0</ele><time>2026-04-05T15:10:26.816Z</time></trkpt><trkpt lat="45.8095017" lon="9.0610167"><ele>299.0</ele><time>2026-04-05T15:10:27.816Z</time></trkpt><trkpt lat="45.8094933" lon="9.0609"><ele>299.0</ele><time>2026-04-05T15:10:28.816Z</time></trkpt><trkpt lat="45.8095217" lon="9.0608"><ele>299.0</ele><time>2026-04-05T15:10:29.816Z</time></trkpt><trkpt lat="45.8095767" lon="9.0607233"><ele>299.0</ele><time>2026-04-05T15:10:30.817Z</time></trkpt><trkpt lat="45.8096467" lon="9.0606767"><ele>299.0</ele><time>2026-04-05T15:10:31.816Z</time></trkpt><trkpt lat="45.8097117" lon="9.06066"><ele>299.0</ele><time>2026-04-05T15:10:32.817Z</time></trkpt><trkpt lat="45.809785" lon="9.0606767"><ele>299.0</ele><time>2026-04-05T15:10:33.817Z</time></trkpt><trkpt lat="45.809855" lon="9.0607167"><ele>299.0</ele><time>2026-04-05T15:10:34.816Z</time></trkpt><trkpt lat="45.80993" lon="9.0607817"><ele>299.0</ele><time>2026-04-05T15:10:35.817Z</time></trkpt><trkpt lat="45.81001" lon="9.0608683"><ele>299.0</ele><time>2026-04-05T15:10:36.816Z</time></trkpt><trkpt lat="45.810095" lon="9.06096"><ele>299.0</ele><time>2026-04-05T15:10:37.816Z</time></trkpt><trkpt lat="45.8101767" lon="9.0610433"><ele>299.0</ele><time>2026-04-05T15:10:38.816Z</time></trkpt><trkpt lat="45.8102633" lon="9.061125"><ele>299.0</ele><time>2026-04-05T15:10:39.816Z</time></trkpt><trkpt lat="45.810345" lon="9.0612067"><ele>300.2</ele><time>2026-04-05T15:10:40.816Z</time></trkpt><trkpt lat="45.8104183" lon="9.0612867"><ele>301.4</ele><time>2026-04-05T15:10:41.816Z</time></trkpt><trkpt lat="45.8105033" lon="9.0613717"><ele>302.6</ele><time>2026-04-05T15:10:42.816Z</time></trkpt><trkpt lat="45.8105983" lon="9.0614633"><ele>303.8</ele><time>2026-04-05T15:10:43.816Z</time></trkpt><trkpt lat="45.8106983" lon="9.0615583"><ele>305.0</ele><time>2026-04-05T15:10:44.816Z</time></trkpt><trkpt lat="45.8107933" lon="9.0616517"><ele>303.75</ele><time>2026-04-05T15:10:45.816Z</time></trkpt><trkpt lat="45.8108933" lon="9.0617417"><ele>302.5</ele><time>2026-04-05T15:10:46.816Z</time></trkpt><trkpt lat="45.810995" lon="9.0618333"><ele>301.25</ele><time>2026-04-05T15:10:47.816Z</time></trkpt><trkpt lat="45.8110883" lon="9.061925"><ele>300.0</ele><time>2026-04-05T15:10:48.816Z</time></trkpt><trkpt lat="45.811185" lon="9.0620133"><ele>300.0</ele><time>2026-04-05T15:10:49.817Z</time></trkpt><trkpt lat="45.811275" lon="9.062105"><ele>300.0</ele><time>2026-04-05T15:10:50.816Z</time></trkpt><trkpt lat="45.811345" lon="9.0622"><ele>300.0</ele><time>2026-04-05T15:10:51.816Z</time></trkpt><trkpt lat="45.811415" lon="9.0623083"><ele>300.0</ele><time>2026-04-05T15:10:52.817Z</time></trkpt><trkpt lat="45.8114717" lon="9.0624433"><ele>300.0</ele><time>2026-04-05T15:10:53.816Z</time></trkpt><trkpt lat="45.811525" lon="9.0625767"><ele>297.6</ele><time>2026-04-05T15:10:54.816Z</time></trkpt><trkpt lat="45.81157" lon="9.0627067"><ele>295.2</ele><time>2026-04-05T15:10:55.816Z</time></trkpt><trkpt lat="45.811615" lon="9.062835"><ele>292.8</ele><time>2026-04-05T15:10:56.816Z</time></trkpt><trkpt lat="45.8116517" lon="9.062965"><ele>290.4</ele><time>2026-04-05T15:10:57.816Z</time></trkpt><trkpt lat="45.8116783" lon="9.0630933"><ele>288.0</ele><time>2026-04-05T15:10:58.816Z</time></trkpt><trkpt lat="45.8117" lon="9.0632233"><ele>286.8571428571429</ele><time>2026-04-05T15:10:59.816Z</time></trkpt><trkpt lat="45.8117233" lon="9.06334"><ele>285.7142857142857</ele><time>2026-04-05T15:11:00.817Z</time></trkpt><trkpt lat="45.8117633" lon="9.0634267"><ele>284.57142857142856</ele><time>2026-04-05T15:11:01.816Z</time></trkpt><trkpt lat="45.8118133" lon="9.063495"><ele>283.42857142857144</ele><time>2026-04-05T15:11:02.816Z</time></trkpt><trkpt lat="45.8118783" lon="9.063525"><ele>282.2857142857143</ele><time>2026-04-05T15:11:03.816Z</time></trkpt><trkpt lat="45.8119467" lon="9.0635233"><ele>281.14285714285717</ele><time>2026-04-05T15:11:04.816Z</time></trkpt><trkpt lat="45.8120217" lon="9.0634983"><ele>280.0</ele><time>2026-04-05T15:11:05.816Z</time></trkpt><trkpt lat="45.8120983" lon="9.06347"><ele>280.0</ele><time>2026-04-05T15:11:06.816Z</time></trkpt><trkpt lat="45.8121767" lon="9.0634617"><ele>280.0</ele><time>2026-04-05T15:11:07.816Z</time></trkpt><trkpt lat="45.81225" lon="9.0634633"><ele>280.0</ele><time>2026-04-05T15:11:08.816Z</time></trkpt><trkpt lat="45.8123233" lon="9.0634683"><ele>280.0</ele><time>2026-04-05T15:11:09.816Z</time></trkpt><trkpt lat="45.81239" lon="9.0634933"><ele>280.0</ele><time>2026-04-05T15:11:10.817Z</time></trkpt><trkpt lat="45.8124567" lon="9.06353"><ele>280.0</ele><time>2026-04-05T15:11:11.816Z</time></trkpt><trkpt lat="45.8125133" lon="9.0635733"><ele>280.0</ele><time>2026-04-05T15:11:12.816Z</time></trkpt><trkpt lat="45.8125833" lon="9.0636667"><ele>280.0</ele><time>2026-04-05T15:11:14.816Z</time></trkpt><trkpt lat="45.8125283" lon="9.0637317"><ele>280.0</ele><time>2026-04-05T15:11:16.816Z</time></trkpt><trkpt lat="45.8124583" lon="9.06372"><ele>280.0</ele><time>2026-04-05T15:11:17.816Z</time></trkpt><trkpt lat="45.8123667" lon="9.0637017"><ele>280.0</ele><time>2026-04-05T15:11:18.817Z</time></trkpt><trkpt lat="45.8122667" lon="9.0636983"><ele>280.0</ele><time>2026-04-05T15:11:19.816Z</time></trkpt><trkpt lat="45.8121567" lon="9.0637017"><ele>280.0</ele><time>2026-04-05T15:11:20.816Z</time></trkpt><trkpt lat="45.8120433" lon="9.0637117"><ele>280.0</ele><time>2026-04-05T15:11:21.817Z</time></trkpt><trkpt lat="45.8119483" lon="9.0637217"><ele>280.0</ele><time>2026-04-05T15:11:22.816Z</time></trkpt><trkpt lat="45.8118667" lon="9.06372"><ele>280.0</ele><time>2026-04-05T15:11:23.816Z</time></trkpt><trkpt lat="45.8118017" lon="9.06373"><ele>280.0</ele><time>2026-04-05T15:11:24.817Z</time></trkpt><trkpt lat="45.8117617" lon="9.0638"><ele>280.0</ele><time>2026-04-05T15:11:27.816Z</time></trkpt><trkpt lat="45.811825" lon="9.0638533"><ele>280.0</ele><time>2026-04-05T15:11:29.817Z</time></trkpt><trkpt lat="45.81196" lon="9.0639183"><ele>280.0</ele><time>2026-04-05T15:11:31.816Z</time></trkpt><trkpt lat="45.8120667" lon="9.0639717"><ele>280.0</ele><time>2026-04-05T15:11:32.817Z</time></trkpt><trkpt lat="45.8121483" lon="9.0640333"><ele>280.0</ele><time>2026-04-05T15:11:33.816Z</time></trkpt><trkpt lat="45.81221" lon="9.0640967"><ele>280.0</ele><time>2026-04-05T15:11:34.816Z</time></trkpt><trkpt lat="45.812275" lon="9.064185"><ele>280.0</ele><time>2026-04-05T15:11:35.816Z</time></trkpt><trkpt lat="45.8123333" lon="9.0642717"><ele>277.8</ele><time>2026-04-05T15:11:36.816Z</time></trkpt><trkpt lat="45.812375" lon="9.064395"><ele>275.6</ele><time>2026-04-05T15:11:37.817Z</time></trkpt><trkpt lat="45.8124117" lon="9.06454"><ele>273.4</ele><time>2026-04-05T15:11:38.816Z</time></trkpt><trkpt lat="45.8124417" lon="9.0646883"><ele>271.2</ele><time>2026-04-05T15:11:39.816Z</time></trkpt><trkpt lat="45.812445" lon="9.0648417"><ele>269.0</ele><time>2026-04-05T15:11:40.817Z</time></trkpt><trkpt lat="45.8124533" lon="9.06499"><ele>267.83333333333337</ele><time>2026-04-05T15:11:41.817Z</time></trkpt><trkpt lat="45.81246" lon="9.0651233"><ele>266.6666666666667</ele><time>2026-04-05T15:11:42.817Z</time></trkpt><trkpt lat="45.81248" lon="9.0652417"><ele>265.5</ele><time>2026-04-05T15:11:43.816Z</time></trkpt><trkpt lat="45.8125067" lon="9.06535"><ele>264.3333333333333</ele><time>2026-04-05T15:11:44.817Z</time></trkpt><trkpt lat="45.812545" lon="9.0654517"><ele>263.16666666666663</ele><time>2026-04-05T15:11:45.816Z</time></trkpt><trkpt lat="45.8125917" lon="9.0655567"><ele>262.0</ele><time>2026-04-05T15:11:46.816Z</time></trkpt><trkpt lat="45.8126433" lon="9.06567"><ele>258.3333333333333</ele><time>2026-04-05T15:11:47.816Z</time></trkpt><trkpt lat="45.8126933" lon="9.0657883"><ele>254.66666666666666</ele><time>2026-04-05T15:11:48.816Z</time></trkpt><trkpt lat="45.81274" lon="9.0659017"><ele>251.0</ele><time>2026-04-05T15:11:49.817Z</time></trkpt><trkpt lat="45.8127833" lon="9.0660117"><ele>247.33333333333331</ele><time>2026-04-05T15:11:50.816Z</time></trkpt><trkpt lat="45.8128317" lon="9.0661183"><ele>243.66666666666666</ele><time>2026-04-05T15:11:51.816Z</time></trkpt><trkpt lat="45.8128733" lon="9.06621"><ele>240.0</ele><time>2026-04-05T15:11:52.817Z</time></trkpt><trkpt lat="45.81291" lon="9.0662867"><ele>240.0</ele><time>2026-04-05T15:11:53.816Z</time></trkpt><trkpt lat="45.8129983" lon="9.0663633"><ele>240.0</ele><time>2026-04-05T15:11:55.816Z</time></trkpt><trkpt lat="45.8130617" lon="9.066315"><ele>240.0</ele><time>2026-04-05T15:11:57.817Z</time></trkpt><trkpt lat="45.8131217" lon="9.0662133"><ele>240.0</ele><time>2026-04-05T15:11:59.817Z</time></trkpt><trkpt lat="45.8132167" lon="9.0660733"><ele>240.0</ele><time>2026-04-05T15:12:01.816Z</time></trkpt><trkpt lat="45.8132617" lon="9.0659933"><ele>240.0</ele><time>2026-04-05T15:12:02.817Z</time></trkpt><trkpt lat="45.8133033" lon="9.06591"><ele>240.0</ele><time>2026-04-05T15:12:03.817Z</time></trkpt><trkpt lat="45.8133467" lon="9.0658283"><ele>240.0</ele><time>2026-04-05T15:12:04.816Z</time></trkpt><trkpt lat="45.8133817" lon="9.065745"><ele>240.0</ele><time>2026-04-05T15:12:05.816Z</time></trkpt><trkpt lat="45.8134117" lon="9.0656583"><ele>240.0</ele><time>2026-04-05T15:12:06.816Z</time></trkpt><trkpt lat="45.8134567" lon="9.0655683"><ele>240.0</ele><time>2026-04-05T15:12:07.817Z</time></trkpt><trkpt lat="45.8135167" lon="9.06549"><ele>240.0</ele><time>2026-04-05T15:12:08.817Z</time></trkpt><trkpt lat="45.81358" lon="9.06542"><ele>238.5</ele><time>2026-04-05T15:12:09.817Z</time></trkpt><trkpt lat="45.8136333" lon="9.06535"><ele>237.0</ele><time>2026-04-05T15:12:10.816Z</time></trkpt><trkpt lat="45.8136833" lon="9.0652867"><ele>235.5</ele><time>2026-04-05T15:12:11.816Z</time></trkpt><trkpt lat="45.8137617" lon="9.0651783"><ele>234.0</ele><time>2026-04-05T15:12:13.816Z</time></trkpt><trkpt lat="45.81383" lon="9.06518"><ele>232.5</ele><time>2026-04-05T15:12:15.816Z</time></trkpt><trkpt lat="45.8138233" lon="9.0652883"><ele>231.0</ele><time>2026-04-05T15:12:17.816Z</time></trkpt><trkpt lat="45.8137283" lon="9.0654367"><ele>231.0</ele><time>2026-04-05T15:12:19.816Z</time></trkpt><trkpt lat="45.81366" lon="9.06554"><ele>231.00000000000003</ele><time>2026-04-05T15:12:20.816Z</time></trkpt><trkpt lat="45.8135933" lon="9.0656633"><ele>231.00000000000003</ele><time>2026-04-05T15:12:21.817Z</time></trkpt><trkpt lat="45.8135267" lon="9.0657917"><ele>231.0</ele><time>2026-04-05T15:12:22.816Z</time></trkpt><trkpt lat="45.8134517" lon="9.0659183"><ele>231.0</ele><time>2026-04-05T15:12:23.816Z</time></trkpt><trkpt lat="45.813375" lon="9.0660517"><ele>233.25</ele><time>2026-04-05T15:12:24.816Z</time></trkpt><trkpt lat="45.8133" lon="9.066185"><ele>235.5</ele><time>2026-04-05T15:12:25.817Z</time></trkpt><trkpt lat="45.8132317" lon="9.0663133"><ele>237.75</ele><time>2026-04-05T15:12:26.816Z</time></trkpt><trkpt lat="45.8131633" lon="9.066445"><ele>240.0</ele><time>2026-04-05T15:12:27.816Z</time></trkpt><trkpt lat="45.81309" lon="9.0665633"><ele>235.8</ele><time>2026-04-05T15:12:28.816Z</time></trkpt><trkpt lat="45.8130267" lon="9.0666933"><ele>231.6</ele><time>2026-04-05T15:12:29.816Z</time></trkpt><trkpt lat="45.81296" lon="9.0668017"><ele>227.39999999999998</ele><time>2026-04-05T15:12:30.816Z</time></trkpt><trkpt lat="45.81289" lon="9.0669233"><ele>223.2</ele><time>2026-04-05T15:12:31.817Z</time></trkpt><trkpt lat="45.8128217" lon="9.067065"><ele>219.0</ele><time>2026-04-05T15:12:32.816Z</time></trkpt><trkpt lat="45.812735" lon="9.0671967"><ele>223.0</ele><time>2026-04-05T15:12:33.816Z</time></trkpt><trkpt lat="45.8126433" lon="9.0673467"><ele>227.0</ele><time>2026-04-05T15:12:34.816Z</time></trkpt><trkpt lat="45.8125517" lon="9.0675033"><ele>231.0</ele><time>2026-04-05T15:12:35.816Z</time></trkpt><trkpt lat="45.8124483" lon="9.067665"><ele>235.0</ele><time>2026-04-05T15:12:36.816Z</time></trkpt><trkpt lat="45.8123583" lon="9.0678283"><ele>235.0</ele><time>2026-04-05T15:12:37.817Z</time></trkpt><trkpt lat="45.8122767" lon="9.0679867"><ele>235.0</ele><time>2026-04-05T15:12:38.816Z</time></trkpt><trkpt lat="45.8122017" lon="9.0681383"><ele>235.0</ele><time>2026-04-05T15:12:39.817Z</time></trkpt><trkpt lat="45.81213" lon="9.0682867"><ele>235.0</ele><time>2026-04-05T15:12:40.816Z</time></trkpt><trkpt lat="45.8120567" lon="9.0684233"><ele>237.33333333333331</ele><time>2026-04-05T15:12:41.817Z</time></trkpt><trkpt lat="45.8119833" lon="9.0685433"><ele>239.66666666666666</ele><time>2026-04-05T15:12:42.816Z</time></trkpt><trkpt lat="45.8119233" lon="9.06865"><ele>242.0</ele><time>2026-04-05T15:12:43.816Z</time></trkpt><trkpt lat="45.81186" lon="9.0687317"><ele>244.33333333333331</ele><time>2026-04-05T15:12:44.817Z</time></trkpt><trkpt lat="45.8118117" lon="9.06881"><ele>246.66666666666666</ele><time>2026-04-05T15:12:45.816Z</time></trkpt><trkpt lat="45.8117717" lon="9.0688817"><ele>249.0</ele><time>2026-04-05T15:12:46.817Z</time></trkpt><trkpt lat="45.8117483" lon="9.0690667"><ele>243.0</ele><time>2026-04-05T15:12:48.817Z</time></trkpt><trkpt lat="45.8117717" lon="9.06917"><ele>236.99999999999997</ele><time>2026-04-05T15:12:49.816Z</time></trkpt><trkpt lat="45.8117967" lon="9.06926"><ele>230.99999999999997</ele><time>2026-04-05T15:12:50.816Z</time></trkpt><trkpt lat="45.8118433" lon="9.069425"><ele>225.0</ele><time>2026-04-05T15:12:52.816Z</time></trkpt><trkpt lat="45.8118867" lon="9.0695733"><ele>219.0</ele><time>2026-04-05T15:12:54.816Z</time></trkpt><trkpt lat="45.8119433" lon="9.06974"><ele>217.16666666666666</ele><time>2026-04-05T15:12:56.816Z</time></trkpt><trkpt lat="45.8119883" lon="9.0698117"><ele>215.33333333333331</ele><time>2026-04-05T15:12:57.816Z</time></trkpt><trkpt lat="45.812035" lon="9.06988"><ele>213.5</ele><time>2026-04-05T15:12:58.816Z</time></trkpt><trkpt lat="45.8121117" lon="9.0699667"><ele>211.66666666666666</ele><time>2026-04-05T15:13:00.816Z</time></trkpt><trkpt lat="45.81217" lon="9.0700483"><ele>209.83333333333331</ele><time>2026-04-05T15:13:03.816Z</time></trkpt><trkpt lat="45.8122583" lon="9.0701367"><ele>208.0</ele><time>2026-04-05T15:13:05.816Z</time></trkpt><trkpt lat="45.812335" lon="9.0701483"><ele>208.0</ele><time>2026-04-05T15:13:07.816Z</time></trkpt><trkpt lat="45.8124117" lon="9.0700517"><ele>208.0</ele><time>2026-04-05T15:13:09.817Z</time></trkpt><trkpt lat="45.812475" lon="9.069975"><ele>208.0</ele><time>2026-04-05T15:13:10.817Z</time></trkpt><trkpt lat="45.8125633" lon="9.0698933"><ele>208.0</ele><time>2026-04-05T15:13:11.816Z</time></trkpt><trkpt lat="45.8126517" lon="9.0698267"><ele>208.0</ele><time>2026-04-05T15:13:12.816Z</time></trkpt><trkpt lat="45.8127483" lon="9.0697467"><ele>207.75</ele><time>2026-04-05T15:13:13.816Z</time></trkpt><trkpt lat="45.8128433" lon="9.0696633"><ele>207.5</ele><time>2026-04-05T15:13:14.816Z</time></trkpt><trkpt lat="45.812965" lon="9.069575"><ele>207.25</ele><time>2026-04-05T15:13:15.816Z</time></trkpt><trkpt lat="45.8130733" lon="9.0694933"><ele>207.0</ele><time>2026-04-05T15:13:16.816Z</time></trkpt><trkpt lat="45.8131817" lon="9.06941"><ele>207.0</ele><time>2026-04-05T15:13:17.816Z</time></trkpt><trkpt lat="45.813295" lon="9.069345"><ele>207.0</ele><time>2026-04-05T15:13:18.817Z</time></trkpt><trkpt lat="45.8133917" lon="9.0692867"><ele>207.0</ele><time>2026-04-05T15:13:19.816Z</time></trkpt><trkpt lat="45.8134917" lon="9.0692483"><ele>207.0</ele><time>2026-04-05T15:13:20.816Z</time></trkpt><trkpt lat="45.8135817" lon="9.0692067"><ele>207.0</ele><time>2026-04-05T15:13:21.817Z</time></trkpt><trkpt lat="45.8136633" lon="9.0691467"><ele>207.2</ele><time>2026-04-05T15:13:22.816Z</time></trkpt><trkpt lat="45.8137467" lon="9.069085"><ele>207.39999999999998</ele><time>2026-04-05T15:13:23.816Z</time></trkpt><trkpt lat="45.8138367" lon="9.0690283"><ele>207.60000000000002</ele><time>2026-04-05T15:13:24.816Z</time></trkpt><trkpt lat="45.81393" lon="9.0689567"><ele>207.8</ele><time>2026-04-05T15:13:25.817Z</time></trkpt><trkpt lat="45.81402" lon="9.0688783"><ele>208.0</ele><time>2026-04-05T15:13:26.816Z</time></trkpt><trkpt lat="45.8141133" lon="9.0687967"><ele>208.0</ele><time>2026-04-05T15:13:27.816Z</time></trkpt><trkpt lat="45.81421" lon="9.0687117"><ele>208.0</ele><time>2026-04-05T15:13:28.816Z</time></trkpt><trkpt lat="45.8143" lon="9.0686083"><ele>208.0</ele><time>2026-04-05T15:13:29.816Z</time></trkpt><trkpt lat="45.81437" lon="9.0685067"><ele>208.0</ele><time>2026-04-05T15:13:30.816Z</time></trkpt><trkpt lat="45.8144433" lon="9.0684"><ele>208.0</ele><time>2026-04-05T15:13:31.816Z</time></trkpt><trkpt lat="45.814515" lon="9.0682967"><ele>207.8</ele><time>2026-04-05T15:13:32.817Z</time></trkpt><trkpt lat="45.8145817" lon="9.0681917"><ele>207.60000000000002</ele><time>2026-04-05T15:13:33.816Z</time></trkpt><trkpt lat="45.8146417" lon="9.0680767"><ele>207.39999999999998</ele><time>2026-04-05T15:13:34.816Z</time></trkpt><trkpt lat="45.8147" lon="9.0679633"><ele>207.2</ele><time>2026-04-05T15:13:35.816Z</time></trkpt><trkpt lat="45.814755" lon="9.0678383"><ele>207.0</ele><time>2026-04-05T15:13:36.816Z</time></trkpt><trkpt lat="45.8147933" lon="9.0677067"><ele>207.0</ele><time>2026-04-05T15:13:37.816Z</time></trkpt><trkpt lat="45.81483" lon="9.0675833"><ele>207.0</ele><time>2026-04-05T15:13:38.816Z</time></trkpt><trkpt lat="45.8148733" lon="9.067465"><ele>207.0</ele><time>2026-04-05T15:13:39.816Z</time></trkpt><trkpt lat="45.814905" lon="9.067345"><ele>207.0</ele><time>2026-04-05T15:13:40.817Z</time></trkpt><trkpt lat="45.8149383" lon="9.06722"><ele>207.0</ele><time>2026-04-05T15:13:41.816Z</time></trkpt><trkpt lat="45.81498" lon="9.06711"><ele>207.2</ele><time>2026-04-05T15:13:42.816Z</time></trkpt><trkpt lat="45.8150233" lon="9.0669933"><ele>207.39999999999998</ele><time>2026-04-05T15:13:43.816Z</time></trkpt><trkpt lat="45.8150767" lon="9.06689"><ele>207.60000000000002</ele><time>2026-04-05T15:13:44.816Z</time></trkpt><trkpt lat="45.8151367" lon="9.06679"><ele>207.8</ele><time>2026-04-05T15:13:45.816Z</time></trkpt><trkpt lat="45.8151967" lon="9.0666933"><ele>208.0</ele><time>2026-04-05T15:13:46.817Z</time></trkpt><trkpt lat="45.8152683" lon="9.0666033"><ele>207.66666666666666</ele><time>2026-04-05T15:13:47.816Z</time></trkpt><trkpt lat="45.8153383" lon="9.066515"><ele>207.33333333333331</ele><time>2026-04-05T15:13:48.817Z</time></trkpt><trkpt lat="45.815405" lon="9.06643"><ele>207.0</ele><time>2026-04-05T15:13:49.816Z</time></trkpt><trkpt lat="45.815475" lon="9.066355"><ele>206.66666666666669</ele><time>2026-04-05T15:13:50.817Z</time></trkpt><trkpt lat="45.8155433" lon="9.0663017"><ele>206.33333333333334</ele><time>2026-04-05T15:13:51.816Z</time></trkpt><trkpt lat="45.8156033" lon="9.0662533"><ele>206.0</ele><time>2026-04-05T15:13:52.816Z</time></trkpt><trkpt lat="45.815665" lon="9.066215"><ele>206.00000000000003</ele><time>2026-04-05T15:13:53.817Z</time></trkpt><trkpt lat="45.81577" lon="9.06614"><ele>206.0</ele><time>2026-04-05T15:13:55.816Z</time></trkpt><trkpt lat="45.8158933" lon="9.0660767"><ele>206.0</ele><time>2026-04-05T15:13:57.816Z</time></trkpt><trkpt lat="45.8159533" lon="9.0660417"><ele>206.0</ele><time>2026-04-05T15:13:58.816Z</time></trkpt><trkpt lat="45.816015" lon="9.0660083"><ele>206.00000000000003</ele><time>2026-04-05T15:13:59.816Z</time></trkpt><trkpt lat="45.8160783" lon="9.065975"><ele>206.0</ele><time>2026-04-05T15:14:00.816Z</time></trkpt><trkpt lat="45.8161433" lon="9.0659367"><ele>206.0</ele><time>2026-04-05T15:14:01.816Z</time></trkpt><trkpt lat="45.81622" lon="9.065895"><ele>206.0</ele><time>2026-04-05T15:14:02.817Z</time></trkpt><trkpt lat="45.8163033" lon="9.0658517"><ele>206.0</ele><time>2026-04-05T15:14:03.816Z</time></trkpt><trkpt lat="45.8163917" lon="9.0658067"><ele>206.0</ele><time>2026-04-05T15:14:04.817Z</time></trkpt><trkpt lat="45.8164817" lon="9.0657617"><ele>206.0</ele><time>2026-04-05T15:14:05.816Z</time></trkpt><trkpt lat="45.8165717" lon="9.065725"><ele>206.0</ele><time>2026-04-05T15:14:06.816Z</time></trkpt><trkpt lat="45.816665" lon="9.0656867"><ele>206.0</ele><time>2026-04-05T15:14:07.816Z</time></trkpt><trkpt lat="45.8167467" lon="9.0656317"><ele>206.0</ele><time>2026-04-05T15:14:08.816Z</time></trkpt><trkpt lat="45.816825" lon="9.06557"><ele>206.0</ele><time>2026-04-05T15:14:09.817Z</time></trkpt><trkpt lat="45.8169017" lon="9.065505"><ele>206.0</ele><time>2026-04-05T15:14:10.817Z</time></trkpt><trkpt lat="45.81697" lon="9.0654117"><ele>206.33333333333334</ele><time>2026-04-05T15:14:11.816Z</time></trkpt><trkpt lat="45.81703" lon="9.0653383"><ele>206.66666666666669</ele><time>2026-04-05T15:14:12.817Z</time></trkpt><trkpt lat="45.81708" lon="9.065255"><ele>207.0</ele><time>2026-04-05T15:14:13.816Z</time></trkpt><trkpt lat="45.8171333" lon="9.06518"><ele>207.33333333333331</ele><time>2026-04-05T15:14:14.816Z</time></trkpt><trkpt lat="45.81719" lon="9.0651333"><ele>207.66666666666666</ele><time>2026-04-05T15:14:15.816Z</time></trkpt><trkpt lat="45.8172683" lon="9.0650583"><ele>208.0</ele><time>2026-04-05T15:14:17.816Z</time></trkpt><trkpt lat="45.8173283" lon="9.064985"><ele>208.83333333333331</ele><time>2026-04-05T15:14:21.817Z</time></trkpt><trkpt lat="45.8173733" lon="9.0649183"><ele>209.66666666666666</ele><time>2026-04-05T15:14:23.816Z</time></trkpt><trkpt lat="45.817455" lon="9.0648183"><ele>210.5</ele><time>2026-04-05T15:14:25.816Z</time></trkpt><trkpt lat="45.8175033" lon="9.064755"><ele>211.33333333333331</ele><time>2026-04-05T15:14:26.816Z</time></trkpt><trkpt lat="45.8175683" lon="9.0646683"><ele>212.16666666666666</ele><time>2026-04-05T15:14:27.817Z</time></trkpt><trkpt lat="45.8176483" lon="9.064575"><ele>213.0</ele><time>2026-04-05T15:14:28.817Z</time></trkpt><trkpt lat="45.8177383" lon="9.0644667"><ele>213.5</ele><time>2026-04-05T15:14:29.816Z</time></trkpt><trkpt lat="45.8178267" lon="9.0643533"><ele>214.0</ele><time>2026-04-05T15:14:30.816Z</time></trkpt><trkpt lat="45.81792" lon="9.0642467"><ele>214.5</ele><time>2026-04-05T15:14:31.815Z</time></trkpt><trkpt lat="45.81801" lon="9.064135"><ele>215.0</ele><time>2026-04-05T15:14:32.815Z</time></trkpt><trkpt lat="45.8180833" lon="9.0640217"><ele>215.6</ele><time>2026-04-05T15:14:33.815Z</time></trkpt><trkpt lat="45.8181517" lon="9.0639133"><ele>216.2</ele><time>2026-04-05T15:14:34.815Z</time></trkpt><trkpt lat="45.818235" lon="9.063825"><ele>216.8</ele><time>2026-04-05T15:14:35.816Z</time></trkpt><trkpt lat="45.81832" lon="9.0637467"><ele>217.4</ele><time>2026-04-05T15:14:36.815Z</time></trkpt><trkpt lat="45.8184" lon="9.0636767"><ele>218.0</ele><time>2026-04-05T15:14:37.815Z</time></trkpt><trkpt lat="45.8184767" lon="9.0636283"><ele>218.60000000000002</ele><time>2026-04-05T15:14:38.816Z</time></trkpt><trkpt lat="45.8185533" lon="9.06355"><ele>219.20000000000002</ele><time>2026-04-05T15:14:40.815Z</time></trkpt><trkpt lat="45.818615" lon="9.0635"><ele>219.8</ele><time>2026-04-05T15:14:42.815Z</time></trkpt><trkpt lat="45.8186867" lon="9.0634317"><ele>220.4</ele><time>2026-04-05T15:14:44.815Z</time></trkpt><trkpt lat="45.8187867" lon="9.0633767"><ele>221.0</ele><time>2026-04-05T15:14:46.816Z</time></trkpt><trkpt lat="45.8189017" lon="9.0633183"><ele>221.00000000000003</ele><time>2026-04-05T15:14:48.815Z</time></trkpt><trkpt lat="45.8189667" lon="9.063305"><ele>221.0</ele><time>2026-04-05T15:14:49.815Z</time></trkpt><trkpt lat="45.819035" lon="9.06329"><ele>221.0</ele><time>2026-04-05T15:14:50.815Z</time></trkpt><trkpt lat="45.819115" lon="9.0632917"><ele>221.0</ele><time>2026-04-05T15:14:51.815Z</time></trkpt><trkpt lat="45.8191917" lon="9.0633017"><ele>221.00000000000003</ele><time>2026-04-05T15:14:52.815Z</time></trkpt><trkpt lat="45.8192767" lon="9.063325"><ele>221.0</ele><time>2026-04-05T15:14:53.815Z</time></trkpt><trkpt lat="45.819365" lon="9.0633533"><ele>220.75</ele><time>2026-04-05T15:14:54.816Z</time></trkpt><trkpt lat="45.8194667" lon="9.0634133"><ele>220.5</ele><time>2026-04-05T15:14:55.815Z</time></trkpt><trkpt lat="45.81957" lon="9.0635"><ele>220.25</ele><time>2026-04-05T15:14:56.815Z</time></trkpt><trkpt lat="45.8196667" lon="9.0636067"><ele>220.0</ele><time>2026-04-05T15:14:57.815Z</time></trkpt><trkpt lat="45.8197567" lon="9.0637233"><ele>220.0</ele><time>2026-04-05T15:14:58.815Z</time></trkpt><trkpt lat="45.819825" lon="9.0638567"><ele>220.0</ele><time>2026-04-05T15:14:59.815Z</time></trkpt><trkpt lat="45.8198833" lon="9.0639967"><ele>220.0</ele><time>2026-04-05T15:15:00.815Z</time></trkpt><trkpt lat="45.8199283" lon="9.0641267"><ele>220.0</ele><time>2026-04-05T15:15:01.815Z</time></trkpt><trkpt lat="45.81998" lon="9.064265"><ele>220.0</ele><time>2026-04-05T15:15:02.815Z</time></trkpt><trkpt lat="45.8200217" lon="9.0644033"><ele>220.0</ele><time>2026-04-05T15:15:03.815Z</time></trkpt><trkpt lat="45.8200617" lon="9.0645467"><ele>220.0</ele><time>2026-04-05T15:15:04.815Z</time></trkpt><trkpt lat="45.8201033" lon="9.0646867"><ele>220.0</ele><time>2026-04-05T15:15:05.815Z</time></trkpt><trkpt lat="45.82015" lon="9.064835"><ele>220.0</ele><time>2026-04-05T15:15:06.815Z</time></trkpt><trkpt lat="45.8202067" lon="9.06498"><ele>220.0</ele><time>2026-04-05T15:15:07.815Z</time></trkpt><trkpt lat="45.8202567" lon="9.0651333"><ele>220.0</ele><time>2026-04-05T15:15:08.815Z</time></trkpt><trkpt lat="45.82031" lon="9.0652883"><ele>220.0</ele><time>2026-04-05T15:15:09.816Z</time></trkpt><trkpt lat="45.8203667" lon="9.0654533"><ele>220.0</ele><time>2026-04-05T15:15:10.815Z</time></trkpt><trkpt lat="45.8204283" lon="9.0656267"><ele>220.0</ele><time>2026-04-05T15:15:11.816Z</time></trkpt><trkpt lat="45.820485" lon="9.0658033"><ele>220.0</ele><time>2026-04-05T15:15:12.815Z</time></trkpt><trkpt lat="45.8205467" lon="9.065995"><ele>220.0</ele><time>2026-04-05T15:15:13.815Z</time></trkpt><trkpt lat="45.8206167" lon="9.0661767"><ele>220.0</ele><time>2026-04-05T15:15:14.815Z</time></trkpt><trkpt lat="45.8206833" lon="9.0663433"><ele>220.0</ele><time>2026-04-05T15:15:15.816Z</time></trkpt><trkpt lat="45.8207583" lon="9.066475"><ele>219.66666666666666</ele><time>2026-04-05T15:15:16.815Z</time></trkpt><trkpt lat="45.82094" lon="9.0667"><ele>219.33333333333331</ele><time>2026-04-05T15:15:18.815Z</time></trkpt><trkpt lat="45.8210467" lon="9.0668"><ele>219.0</ele><time>2026-04-05T15:15:19.815Z</time></trkpt><trkpt lat="45.8211667" lon="9.0668767"><ele>219.0</ele><time>2026-04-05T15:15:20.815Z</time></trkpt><trkpt lat="45.8213017" lon="9.0669567"><ele>219.0</ele><time>2026-04-05T15:15:21.815Z</time></trkpt><trkpt lat="45.8214383" lon="9.06703"><ele>219.0</ele><time>2026-04-05T15:15:22.815Z</time></trkpt><trkpt lat="45.82158" lon="9.0670917"><ele>219.0</ele><time>2026-04-05T15:15:23.815Z</time></trkpt><trkpt lat="45.8217083" lon="9.0671633"><ele>217.75</ele><time>2026-04-05T15:15:24.815Z</time></trkpt><trkpt lat="45.82183" lon="9.0672483"><ele>216.5</ele><time>2026-04-05T15:15:25.815Z</time></trkpt><trkpt lat="45.8219583" lon="9.0673317"><ele>215.25</ele><time>2026-04-05T15:15:26.816Z</time></trkpt><trkpt lat="45.8220883" lon="9.0674017"><ele>214.0</ele><time>2026-04-05T15:15:27.815Z</time></trkpt><trkpt lat="45.82221" lon="9.0674817"><ele>214.0</ele><time>2026-04-05T15:15:28.815Z</time></trkpt><trkpt lat="45.822325" lon="9.067575"><ele>214.0</ele><time>2026-04-05T15:15:29.815Z</time></trkpt><trkpt lat="45.822445" lon="9.0676567"><ele>214.0</ele><time>2026-04-05T15:15:30.815Z</time></trkpt><trkpt lat="45.8225583" lon="9.067715"><ele>214.0</ele><time>2026-04-05T15:15:31.816Z</time></trkpt><trkpt lat="45.8226817" lon="9.067765"><ele>216.25</ele><time>2026-04-05T15:15:32.815Z</time></trkpt><trkpt lat="45.8228133" lon="9.0677767"><ele>218.5</ele><time>2026-04-05T15:15:33.815Z</time></trkpt><trkpt lat="45.8229417" lon="9.0677883"><ele>220.75</ele><time>2026-04-05T15:15:34.815Z</time></trkpt><trkpt lat="45.8230783" lon="9.0678"><ele>223.0</ele><time>2026-04-05T15:15:35.815Z</time></trkpt><trkpt lat="45.8232" lon="9.0678117"><ele>223.0</ele><time>2026-04-05T15:15:36.815Z</time></trkpt><trkpt lat="45.823315" lon="9.067825"><ele>223.0</ele><time>2026-04-05T15:15:37.816Z</time></trkpt><trkpt lat="45.8234267" lon="9.06783"><ele>223.0</ele><time>2026-04-05T15:15:38.815Z</time></trkpt><trkpt lat="45.8235383" lon="9.0678483"><ele>223.0</ele><time>2026-04-05T15:15:39.815Z</time></trkpt><trkpt lat="45.8236567" lon="9.0678783"><ele>227.75</ele><time>2026-04-05T15:15:40.815Z</time></trkpt><trkpt lat="45.8237667" lon="9.0679267"><ele>232.5</ele><time>2026-04-05T15:15:41.816Z</time></trkpt><trkpt lat="45.823885" lon="9.0679883"><ele>237.25</ele><time>2026-04-05T15:15:42.815Z</time></trkpt><trkpt lat="45.8239983" lon="9.0680467"><ele>242.0</ele><time>2026-04-05T15:15:43.815Z</time></trkpt><trkpt lat="45.8241017" lon="9.068095"><ele>242.0</ele><time>2026-04-05T15:15:44.815Z</time></trkpt><trkpt lat="45.8241967" lon="9.0681383"><ele>242.0</ele><time>2026-04-05T15:15:45.815Z</time></trkpt><trkpt lat="45.8242867" lon="9.0681917"><ele>242.0</ele><time>2026-04-05T15:15:46.816Z</time></trkpt><trkpt lat="45.8243767" lon="9.068235"><ele>242.0</ele><time>2026-04-05T15:15:47.815Z</time></trkpt><trkpt lat="45.824465" lon="9.068285"><ele>242.0</ele><time>2026-04-05T15:15:48.816Z</time></trkpt><trkpt lat="45.82456" lon="9.068325"><ele>236.0</ele><time>2026-04-05T15:15:49.815Z</time></trkpt><trkpt lat="45.8246467" lon="9.0683567"><ele>230.0</ele><time>2026-04-05T15:15:50.816Z</time></trkpt><trkpt lat="45.8247317" lon="9.0683817"><ele>224.0</ele><time>2026-04-05T15:15:51.815Z</time></trkpt><trkpt lat="45.82483" lon="9.0683983"><ele>218.0</ele><time>2026-04-05T15:15:52.815Z</time></trkpt><trkpt lat="45.8249233" lon="9.06841"><ele>212.0</ele><time>2026-04-05T15:15:53.815Z</time></trkpt><trkpt lat="45.8250283" lon="9.068415"><ele>212.0</ele><time>2026-04-05T15:15:54.815Z</time></trkpt><trkpt lat="45.825125" lon="9.068415"><ele>212.0</ele><time>2026-04-05T15:15:55.816Z</time></trkpt><trkpt lat="45.82522" lon="9.06842"><ele>212.0</ele><time>2026-04-05T15:15:56.815Z</time></trkpt><trkpt lat="45.82531" lon="9.0684267"><ele>212.0</ele><time>2026-04-05T15:15:57.816Z</time></trkpt><trkpt lat="45.8253933" lon="9.0684317"><ele>212.0</ele><time>2026-04-05T15:15:58.815Z</time></trkpt><trkpt lat="45.8254783" lon="9.0684317"><ele>213.2</ele><time>2026-04-05T15:15:59.815Z</time></trkpt><trkpt lat="45.8255583" lon="9.0684283"><ele>214.39999999999998</ele><time>2026-04-05T15:16:00.815Z</time></trkpt><trkpt lat="45.8256483" lon="9.06843"><ele>215.60000000000002</ele><time>2026-04-05T15:16:01.816Z</time></trkpt><trkpt lat="45.8257483" lon="9.06845"><ele>216.8</ele><time>2026-04-05T15:16:02.815Z</time></trkpt><trkpt lat="45.8258533" lon="9.0684833"><ele>218.0</ele><time>2026-04-05T15:16:03.815Z</time></trkpt><trkpt lat="45.8259633" lon="9.068535"><ele>225.0</ele><time>2026-04-05T15:16:04.815Z</time></trkpt><trkpt lat="45.8260767" lon="9.068605"><ele>232.0</ele><time>2026-04-05T15:16:05.815Z</time></trkpt><trkpt lat="45.8261883" lon="9.0687"><ele>239.0</ele><time>2026-04-05T15:16:06.815Z</time></trkpt><trkpt lat="45.8262967" lon="9.0687917"><ele>246.0</ele><time>2026-04-05T15:16:07.815Z</time></trkpt><trkpt lat="45.8264" lon="9.0688867"><ele>246.0</ele><time>2026-04-05T15:16:08.816Z</time></trkpt><trkpt lat="45.8265033" lon="9.0689667"><ele>246.0</ele><time>2026-04-05T15:16:09.815Z</time></trkpt><trkpt lat="45.8266033" lon="9.0690517"><ele>246.0</ele><time>2026-04-05T15:16:10.815Z</time></trkpt><trkpt lat="45.8267" lon="9.0691367"><ele>246.0</ele><time>2026-04-05T15:16:11.816Z</time></trkpt><trkpt lat="45.8267933" lon="9.0692283"><ele>245.0</ele><time>2026-04-05T15:16:12.815Z</time></trkpt><trkpt lat="45.82689" lon="9.06931"><ele>244.00000000000003</ele><time>2026-04-05T15:16:13.815Z</time></trkpt><trkpt lat="45.8269783" lon="9.0693867"><ele>243.00000000000003</ele><time>2026-04-05T15:16:14.815Z</time></trkpt><trkpt lat="45.8270733" lon="9.0694617"><ele>242.0</ele><time>2026-04-05T15:16:15.815Z</time></trkpt><trkpt lat="45.82716" lon="9.0695317"><ele>241.0</ele><time>2026-04-05T15:16:16.815Z</time></trkpt><trkpt lat="45.82724" lon="9.0696033"><ele>241.0</ele><time>2026-04-05T15:16:17.815Z</time></trkpt><trkpt lat="45.8273233" lon="9.06966"><ele>241.00000000000003</ele><time>2026-04-05T15:16:18.816Z</time></trkpt><trkpt lat="45.8274067" lon="9.0697267"><ele>241.00000000000003</ele><time>2026-04-05T15:16:19.816Z</time></trkpt><trkpt lat="45.8274833" lon="9.0697883"><ele>241.0</ele><time>2026-04-05T15:16:20.816Z</time></trkpt><trkpt lat="45.8275633" lon="9.06986"><ele>241.0</ele><time>2026-04-05T15:16:21.816Z</time></trkpt><trkpt lat="45.8276617" lon="9.0699117"><ele>236.75</ele><time>2026-04-05T15:16:22.815Z</time></trkpt><trkpt lat="45.8277733" lon="9.0699583"><ele>232.5</ele><time>2026-04-05T15:16:23.815Z</time></trkpt><trkpt lat="45.8278983" lon="9.069985"><ele>228.25</ele><time>2026-04-05T15:16:24.815Z</time></trkpt><trkpt lat="45.82802" lon="9.0699967"><ele>224.0</ele><time>2026-04-05T15:16:25.815Z</time></trkpt><trkpt lat="45.8281433" lon="9.069985"><ele>224.0</ele><time>2026-04-05T15:16:26.816Z</time></trkpt><trkpt lat="45.8282583" lon="9.0699683"><ele>223.99999999999997</ele><time>2026-04-05T15:16:27.815Z</time></trkpt><trkpt lat="45.82835" lon="9.06996"><ele>223.99999999999997</ele><time>2026-04-05T15:16:28.816Z</time></trkpt><trkpt lat="45.8284483" lon="9.069975"><ele>224.0</ele><time>2026-04-05T15:16:29.815Z</time></trkpt><trkpt lat="45.8285383" lon="9.0699883"><ele>224.0</ele><time>2026-04-05T15:16:30.815Z</time></trkpt><trkpt lat="45.8286367" lon="9.0700117"><ele>229.5</ele><time>2026-04-05T15:16:31.815Z</time></trkpt><trkpt lat="45.8287467" lon="9.070105"><ele>235.0</ele><time>2026-04-05T15:16:32.816Z</time></trkpt><trkpt lat="45.828845" lon="9.070235"><ele>240.5</ele><time>2026-04-05T15:16:33.815Z</time></trkpt><trkpt lat="45.8289417" lon="9.0703817"><ele>246.0</ele><time>2026-04-05T15:16:34.815Z</time></trkpt><trkpt lat="45.8290233" lon="9.0705367"><ele>246.0</ele><time>2026-04-05T15:16:35.816Z</time></trkpt><trkpt lat="45.8291083" lon="9.0706783"><ele>246.0</ele><time>2026-04-05T15:16:36.815Z</time></trkpt><trkpt lat="45.82919" lon="9.0708183"><ele>246.0</ele><time>2026-04-05T15:16:37.815Z</time></trkpt><trkpt lat="45.829275" lon="9.0709467"><ele>246.0</ele><time>2026-04-05T15:16:38.815Z</time></trkpt><trkpt lat="45.829365" lon="9.07105"><ele>243.75</ele><time>2026-04-05T15:16:39.815Z</time></trkpt><trkpt lat="45.8294583" lon="9.0711683"><ele>241.5</ele><time>2026-04-05T15:16:40.815Z</time></trkpt><trkpt lat="45.8295583" lon="9.07127"><ele>239.25</ele><time>2026-04-05T15:16:41.815Z</time></trkpt><trkpt lat="45.8296683" lon="9.071365"><ele>237.0</ele><time>2026-04-05T15:16:42.815Z</time></trkpt><trkpt lat="45.829775" lon="9.071435"><ele>237.0</ele><time>2026-04-05T15:16:43.815Z</time></trkpt><trkpt lat="45.8298783" lon="9.0715067"><ele>237.0</ele><time>2026-04-05T15:16:44.815Z</time></trkpt><trkpt lat="45.82999" lon="9.0715783"><ele>237.0</ele><time>2026-04-05T15:16:45.816Z</time></trkpt><trkpt lat="45.8301067" lon="9.0716183"><ele>237.0</ele><time>2026-04-05T15:16:46.815Z</time></trkpt><trkpt lat="45.8302183" lon="9.071715"><ele>230.75</ele><time>2026-04-05T15:16:47.816Z</time></trkpt><trkpt lat="45.830335" lon="9.0718033"><ele>224.5</ele><time>2026-04-05T15:16:48.816Z</time></trkpt><trkpt lat="45.830465" lon="9.0718767"><ele>218.25</ele><time>2026-04-05T15:16:49.815Z</time></trkpt><trkpt lat="45.8305933" lon="9.0719367"><ele>212.0</ele><time>2026-04-05T15:16:50.815Z</time></trkpt><trkpt lat="45.8307233" lon="9.07199"><ele>212.0</ele><time>2026-04-05T15:16:51.815Z</time></trkpt><trkpt lat="45.830845" lon="9.0720117"><ele>212.0</ele><time>2026-04-05T15:16:52.815Z</time></trkpt><trkpt lat="45.8309533" lon="9.07202"><ele>212.0</ele><time>2026-04-05T15:16:53.815Z</time></trkpt><trkpt lat="45.8310617" lon="9.07201"><ele>212.0</ele><time>2026-04-05T15:16:54.815Z</time></trkpt><trkpt lat="45.831165" lon="9.0719933"><ele>212.0</ele><time>2026-04-05T15:16:55.815Z</time></trkpt><trkpt lat="45.831265" lon="9.0719833"><ele>210.0</ele><time>2026-04-05T15:16:56.816Z</time></trkpt><trkpt lat="45.8313583" lon="9.0719733"><ele>208.0</ele><time>2026-04-05T15:16:57.815Z</time></trkpt><trkpt lat="45.83145" lon="9.0719667"><ele>206.0</ele><time>2026-04-05T15:16:58.815Z</time></trkpt><trkpt lat="45.831545" lon="9.0719483"><ele>204.0</ele><time>2026-04-05T15:16:59.815Z</time></trkpt><trkpt lat="45.83164" lon="9.071925"><ele>202.0</ele><time>2026-04-05T15:17:00.816Z</time></trkpt><trkpt lat="45.8317417" lon="9.0719117"><ele>202.6</ele><time>2026-04-05T15:17:01.815Z</time></trkpt><trkpt lat="45.8318483" lon="9.0718933"><ele>203.2</ele><time>2026-04-05T15:17:02.815Z</time></trkpt><trkpt lat="45.8319633" lon="9.0718917"><ele>203.8</ele><time>2026-04-05T15:17:03.815Z</time></trkpt><trkpt lat="45.8320617" lon="9.0718867"><ele>204.4</ele><time>2026-04-05T15:17:04.816Z</time></trkpt><trkpt lat="45.83215" lon="9.07188"><ele>205.0</ele><time>2026-04-05T15:17:05.815Z</time></trkpt><trkpt lat="45.83223" lon="9.0718833"><ele>204.99999999999997</ele><time>2026-04-05T15:17:06.816Z</time></trkpt><trkpt lat="45.8323133" lon="9.0719017"><ele>205.0</ele><time>2026-04-05T15:17:07.815Z</time></trkpt><trkpt lat="45.8323917" lon="9.0719233"><ele>205.0</ele><time>2026-04-05T15:17:08.816Z</time></trkpt><trkpt lat="45.83246" lon="9.0719433"><ele>205.0</ele><time>2026-04-05T15:17:09.815Z</time></trkpt><trkpt lat="45.83256" lon="9.0719917"><ele>204.99999999999997</ele><time>2026-04-05T15:17:11.815Z</time></trkpt><trkpt lat="45.8326283" lon="9.0720383"><ele>205.0</ele><time>2026-04-05T15:17:14.815Z</time></trkpt><trkpt lat="45.8327217" lon="9.0720733"><ele>205.0</ele><time>2026-04-05T15:17:32.815Z</time></trkpt><trkpt lat="45.8327983" lon="9.0720817"><ele>205.0</ele><time>2026-04-05T15:17:33.816Z</time></trkpt><trkpt lat="45.8328867" lon="9.0720933"><ele>205.0</ele><time>2026-04-05T15:17:34.815Z</time></trkpt><trkpt lat="45.8329833" lon="9.0721167"><ele>205.0</ele><time>2026-04-05T15:17:35.816Z</time></trkpt><trkpt lat="45.83308" lon="9.0721433"><ele>205.0</ele><time>2026-04-05T15:17:36.816Z</time></trkpt><trkpt lat="45.8331733" lon="9.0721817"><ele>205.0</ele><time>2026-04-05T15:17:37.815Z</time></trkpt><trkpt lat="45.8332617" lon="9.07222"><ele>205.0</ele><time>2026-04-05T15:17:38.815Z</time></trkpt><trkpt lat="45.8333633" lon="9.0722583"><ele>205.0</ele><time>2026-04-05T15:17:39.815Z</time></trkpt><trkpt lat="45.83347" lon="9.0722983"><ele>205.0</ele><time>2026-04-05T15:17:40.816Z</time></trkpt><trkpt lat="45.8335783" lon="9.0723483"><ele>205.0</ele><time>2026-04-05T15:17:41.815Z</time></trkpt><trkpt lat="45.8337017" lon="9.0724033"><ele>205.0</ele><time>2026-04-05T15:17:42.815Z</time></trkpt><trkpt lat="45.8338167" lon="9.072445"><ele>205.0</ele><time>2026-04-05T15:17:43.815Z</time></trkpt><trkpt lat="45.833935" lon="9.07248"><ele>205.0</ele><time>2026-04-05T15:17:44.816Z</time></trkpt><trkpt lat="45.8340433" lon="9.0725133"><ele>205.0</ele><time>2026-04-05T15:17:45.815Z</time></trkpt><trkpt lat="45.8341483" lon="9.072545"><ele>205.0</ele><time>2026-04-05T15:17:46.815Z</time></trkpt><trkpt lat="45.834245" lon="9.07258"><ele>205.0</ele><time>2026-04-05T15:17:47.815Z</time></trkpt><trkpt lat="45.834345" lon="9.0726083"><ele>205.0</ele><time>2026-04-05T15:17:48.815Z</time></trkpt><trkpt lat="45.834445" lon="9.0726383"><ele>205.0</ele><time>2026-04-05T15:17:49.816Z</time></trkpt><trkpt lat="45.83455" lon="9.0726767"><ele>205.0</ele><time>2026-04-05T15:17:50.815Z</time></trkpt><trkpt lat="45.834655" lon="9.0727217"><ele>204.6</ele><time>2026-04-05T15:17:51.815Z</time></trkpt><trkpt lat="45.834755" lon="9.0727783"><ele>204.2</ele><time>2026-04-05T15:17:52.815Z</time></trkpt><trkpt lat="45.8348467" lon="9.0728267"><ele>203.8</ele><time>2026-04-05T15:17:53.815Z</time></trkpt><trkpt lat="45.8349417" lon="9.0728667"><ele>203.4</ele><time>2026-04-05T15:17:54.816Z</time></trkpt><trkpt lat="45.83503" lon="9.072905"><ele>203.0</ele><time>2026-04-05T15:17:55.815Z</time></trkpt><trkpt lat="45.835115" lon="9.0729467"><ele>202.8</ele><time>2026-04-05T15:17:56.815Z</time></trkpt><trkpt lat="45.835195" lon="9.0729683"><ele>202.60000000000002</ele><time>2026-04-05T15:17:57.816Z</time></trkpt><trkpt lat="45.83526" lon="9.0729883"><ele>202.39999999999998</ele><time>2026-04-05T15:17:58.815Z</time></trkpt><trkpt lat="45.8353583" lon="9.07302"><ele>202.2</ele><time>2026-04-05T15:18:00.815Z</time></trkpt><trkpt lat="45.83545" lon="9.0730433"><ele>202.0</ele><time>2026-04-05T15:18:02.816Z</time></trkpt><trkpt lat="45.8355833" lon="9.073095"><ele>202.0</ele><time>2026-04-05T15:18:04.815Z</time></trkpt><trkpt lat="45.8356667" lon="9.073135"><ele>202.0</ele><time>2026-04-05T15:18:05.815Z</time></trkpt><trkpt lat="45.8357533" lon="9.073175"><ele>202.0</ele><time>2026-04-05T15:18:06.816Z</time></trkpt><trkpt lat="45.835845" lon="9.0732117"><ele>202.0</ele><time>2026-04-05T15:18:07.815Z</time></trkpt><trkpt lat="45.8359417" lon="9.0732467"><ele>202.0</ele><time>2026-04-05T15:18:08.816Z</time></trkpt><trkpt lat="45.8360367" lon="9.0732833"><ele>203.39999999999998</ele><time>2026-04-05T15:18:09.815Z</time></trkpt><trkpt lat="45.8361433" lon="9.0733283"><ele>204.79999999999998</ele><time>2026-04-05T15:18:10.816Z</time></trkpt><trkpt lat="45.8362467" lon="9.073365"><ele>206.2</ele><time>2026-04-05T15:18:11.815Z</time></trkpt><trkpt lat="45.836345" lon="9.0734167"><ele>207.6</ele><time>2026-04-05T15:18:12.815Z</time></trkpt><trkpt lat="45.8364367" lon="9.0734567"><ele>209.0</ele><time>2026-04-05T15:18:13.815Z</time></trkpt><trkpt lat="45.8365283" lon="9.0734867"><ele>209.0</ele><time>2026-04-05T15:18:14.815Z</time></trkpt><trkpt lat="45.836625" lon="9.0735167"><ele>209.0</ele><time>2026-04-05T15:18:15.816Z</time></trkpt><trkpt lat="45.8367117" lon="9.0735433"><ele>209.0</ele><time>2026-04-05T15:18:16.816Z</time></trkpt><trkpt lat="45.8367983" lon="9.0735717"><ele>209.0</ele><time>2026-04-05T15:18:17.815Z</time></trkpt><trkpt lat="45.8368883" lon="9.0736167"><ele>209.0</ele><time>2026-04-05T15:18:18.815Z</time></trkpt><trkpt lat="45.83699" lon="9.0736417"><ele>208.79999999999998</ele><time>2026-04-05T15:18:19.815Z</time></trkpt><trkpt lat="45.8371017" lon="9.0736867"><ele>208.6</ele><time>2026-04-05T15:18:20.815Z</time></trkpt><trkpt lat="45.8372133" lon="9.0737283"><ele>208.4</ele><time>2026-04-05T15:18:21.816Z</time></trkpt><trkpt lat="45.8373167" lon="9.0737667"><ele>208.2</ele><time>2026-04-05T15:18:22.816Z</time></trkpt><trkpt lat="45.8374233" lon="9.073805"><ele>208.0</ele><time>2026-04-05T15:18:23.815Z</time></trkpt><trkpt lat="45.8375233" lon="9.0738433"><ele>208.0</ele><time>2026-04-05T15:18:24.815Z</time></trkpt><trkpt lat="45.8376283" lon="9.0738833"><ele>208.0</ele><time>2026-04-05T15:18:25.815Z</time></trkpt><trkpt lat="45.8377317" lon="9.0739233"><ele>208.0</ele><time>2026-04-05T15:18:26.815Z</time></trkpt><trkpt lat="45.8378283" lon="9.0739617"><ele>208.0</ele><time>2026-04-05T15:18:27.816Z</time></trkpt><trkpt lat="45.8379233" lon="9.0740083"><ele>208.0</ele><time>2026-04-05T15:18:28.815Z</time></trkpt><trkpt lat="45.838025" lon="9.0740433"><ele>208.0</ele><time>2026-04-05T15:18:29.815Z</time></trkpt><trkpt lat="45.838125" lon="9.0740767"><ele>208.0</ele><time>2026-04-05T15:18:30.815Z</time></trkpt><trkpt lat="45.83822" lon="9.0741167"><ele>208.0</ele><time>2026-04-05T15:18:31.816Z</time></trkpt><trkpt lat="45.8383067" lon="9.0741467"><ele>208.0</ele><time>2026-04-05T15:18:32.815Z</time></trkpt><trkpt lat="45.8383983" lon="9.07418"><ele>208.0</ele><time>2026-04-05T15:18:33.815Z</time></trkpt><trkpt lat="45.83849" lon="9.0742083"><ele>207.99999999999997</ele><time>2026-04-05T15:18:34.815Z</time></trkpt><trkpt lat="45.8385783" lon="9.0742383"><ele>208.0</ele><time>2026-04-05T15:18:35.815Z</time></trkpt><trkpt lat="45.8386617" lon="9.07428"><ele>208.0</ele><time>2026-04-05T15:18:36.815Z</time></trkpt><trkpt lat="45.8387433" lon="9.0743117"><ele>208.0</ele><time>2026-04-05T15:18:37.815Z</time></trkpt><trkpt lat="45.8388167" lon="9.0743333"><ele>207.99999999999997</ele><time>2026-04-05T15:18:38.815Z</time></trkpt><trkpt lat="45.83889" lon="9.0743583"><ele>208.0</ele><time>2026-04-05T15:18:39.815Z</time></trkpt><trkpt lat="45.8389617" lon="9.0743867"><ele>207.99999999999997</ele><time>2026-04-05T15:18:40.815Z</time></trkpt><trkpt lat="45.8390383" lon="9.0744233"><ele>208.0</ele><time>2026-04-05T15:18:41.815Z</time></trkpt><trkpt lat="45.8391167" lon="9.074465"><ele>208.0</ele><time>2026-04-05T15:18:42.815Z</time></trkpt><trkpt lat="45.839195" lon="9.07451"><ele>208.0</ele><time>2026-04-05T15:18:43.815Z</time></trkpt><trkpt lat="45.8392783" lon="9.0745467"><ele>207.99999999999997</ele><time>2026-04-05T15:18:44.815Z</time></trkpt><trkpt lat="45.8393583" lon="9.074555"><ele>208.0</ele><time>2026-04-05T15:18:45.815Z</time></trkpt><trkpt lat="45.83945" lon="9.074565"><ele>208.2</ele><time>2026-04-05T15:18:46.815Z</time></trkpt><trkpt lat="45.8395383" lon="9.0745917"><ele>208.4</ele><time>2026-04-05T15:18:47.815Z</time></trkpt><trkpt lat="45.8396267" lon="9.074635"><ele>208.6</ele><time>2026-04-05T15:18:48.815Z</time></trkpt><trkpt lat="45.8397167" lon="9.0746683"><ele>208.79999999999998</ele><time>2026-04-05T15:18:49.815Z</time></trkpt><trkpt lat="45.8398067" lon="9.0746933"><ele>209.0</ele><time>2026-04-05T15:18:50.815Z</time></trkpt><trkpt lat="45.8398917" lon="9.07472"><ele>209.0</ele><time>2026-04-05T15:18:51.815Z</time></trkpt><trkpt lat="45.8399617" lon="9.074765"><ele>209.0</ele><time>2026-04-05T15:18:52.815Z</time></trkpt><trkpt lat="45.840025" lon="9.07482"><ele>209.0</ele><time>2026-04-05T15:18:53.816Z</time></trkpt><trkpt lat="45.8401317" lon="9.0749667"><ele>209.0</ele><time>2026-04-05T15:18:55.815Z</time></trkpt><trkpt lat="45.8402083" lon="9.075075"><ele>209.0</ele><time>2026-04-05T15:18:57.815Z</time></trkpt><trkpt lat="45.8402633" lon="9.0751683"><ele>209.83333333333334</ele><time>2026-04-05T15:19:00.816Z</time></trkpt><trkpt lat="45.8403133" lon="9.0752517"><ele>210.66666666666669</ele><time>2026-04-05T15:19:02.815Z</time></trkpt><trkpt lat="45.84037" lon="9.0753383"><ele>211.5</ele><time>2026-04-05T15:19:04.816Z</time></trkpt><trkpt lat="45.8404217" lon="9.07543"><ele>212.33333333333331</ele><time>2026-04-05T15:19:07.815Z</time></trkpt><trkpt lat="45.8404633" lon="9.075515"><ele>213.16666666666666</ele><time>2026-04-05T15:19:10.815Z</time></trkpt><trkpt lat="45.840515" lon="9.0755883"><ele>214.0</ele><time>2026-04-05T15:19:12.815Z</time></trkpt><trkpt lat="45.8405717" lon="9.0756767"><ele>214.0</ele><time>2026-04-05T15:19:15.816Z</time></trkpt><trkpt lat="45.8406317" lon="9.075765"><ele>213.99999999999997</ele><time>2026-04-05T15:19:18.815Z</time></trkpt><trkpt lat="45.8406783" lon="9.0758883"><ele>213.99999999999997</ele><time>2026-04-05T15:19:26.815Z</time></trkpt><trkpt lat="45.8407417" lon="9.0759733"><ele>214.0</ele><time>2026-04-05T15:19:28.815Z</time></trkpt><trkpt lat="45.8408067" lon="9.076075"><ele>214.0</ele><time>2026-04-05T15:19:30.815Z</time></trkpt><trkpt lat="45.84088" lon="9.07617"><ele>213.83333333333331</ele><time>2026-04-05T15:19:32.815Z</time></trkpt><trkpt lat="45.84095" lon="9.0762767"><ele>213.66666666666666</ele><time>2026-04-05T15:19:35.815Z</time></trkpt><trkpt lat="45.841005" lon="9.076345"><ele>213.5</ele><time>2026-04-05T15:19:36.815Z</time></trkpt><trkpt lat="45.841065" lon="9.0764217"><ele>213.33333333333331</ele><time>2026-04-05T15:19:37.815Z</time></trkpt><trkpt lat="45.84113" lon="9.0764933"><ele>213.16666666666666</ele><time>2026-04-05T15:19:38.816Z</time></trkpt><trkpt lat="45.8412" lon="9.076565"><ele>213.0</ele><time>2026-04-05T15:19:39.815Z</time></trkpt><trkpt lat="45.84127" lon="9.0766367"><ele>213.0</ele><time>2026-04-05T15:19:40.816Z</time></trkpt><trkpt lat="45.8413417" lon="9.0767017"><ele>213.0</ele><time>2026-04-05T15:19:41.815Z</time></trkpt><trkpt lat="45.8414267" lon="9.0767617"><ele>213.0</ele><time>2026-04-05T15:19:42.815Z</time></trkpt><trkpt lat="45.8415067" lon="9.076825"><ele>213.0</ele><time>2026-04-05T15:19:43.816Z</time></trkpt><trkpt lat="45.841585" lon="9.0768983"><ele>213.0</ele><time>2026-04-05T15:19:44.815Z</time></trkpt><trkpt lat="45.8416683" lon="9.0769767"><ele>213.0</ele><time>2026-04-05T15:19:45.815Z</time></trkpt><trkpt lat="45.8417483" lon="9.077065"><ele>213.0</ele><time>2026-04-05T15:19:46.816Z</time></trkpt><trkpt lat="45.8418367" lon="9.0771483"><ele>213.0</ele><time>2026-04-05T15:19:47.815Z</time></trkpt><trkpt lat="45.8419167" lon="9.0772167"><ele>213.0</ele><time>2026-04-05T15:19:48.815Z</time></trkpt><trkpt lat="45.841985" lon="9.0772833"><ele>213.0</ele><time>2026-04-05T15:19:49.816Z</time></trkpt><trkpt lat="45.842055" lon="9.0773517"><ele>213.0</ele><time>2026-04-05T15:19:50.815Z</time></trkpt><trkpt lat="45.8421283" lon="9.0774133"><ele>213.0</ele><time>2026-04-05T15:19:51.815Z</time></trkpt><trkpt lat="45.8422117" lon="9.0774433"><ele>213.0</ele><time>2026-04-05T15:19:52.815Z</time></trkpt><trkpt lat="45.84227" lon="9.07752"><ele>213.0</ele><time>2026-04-05T15:19:53.815Z</time></trkpt><trkpt lat="45.8423417" lon="9.077565"><ele>213.0</ele><time>2026-04-05T15:19:54.815Z</time></trkpt><trkpt lat="45.8424233" lon="9.0776033"><ele>213.0</ele><time>2026-04-05T15:19:55.815Z</time></trkpt><trkpt lat="45.8425" lon="9.0776333"><ele>213.0</ele><time>2026-04-05T15:19:56.815Z</time></trkpt><trkpt lat="45.8425833" lon="9.0776567"><ele>213.0</ele><time>2026-04-05T15:19:57.816Z</time></trkpt><trkpt lat="45.8426633" lon="9.0776867"><ele>213.0</ele><time>2026-04-05T15:19:58.815Z</time></trkpt><trkpt lat="45.842745" lon="9.0777033"><ele>213.0</ele><time>2026-04-05T15:19:59.815Z</time></trkpt><trkpt lat="45.84282" lon="9.0777183"><ele>213.0</ele><time>2026-04-05T15:20:00.815Z</time></trkpt><trkpt lat="45.8428883" lon="9.0777383"><ele>213.0</ele><time>2026-04-05T15:20:01.815Z</time></trkpt><trkpt lat="45.842955" lon="9.07776"><ele>213.5</ele><time>2026-04-05T15:20:02.815Z</time></trkpt><trkpt lat="45.8430617" lon="9.077805"><ele>214.0</ele><time>2026-04-05T15:20:04.816Z</time></trkpt><trkpt lat="45.8431283" lon="9.07784"><ele>214.5</ele><time>2026-04-05T15:20:06.816Z</time></trkpt><trkpt lat="45.8432017" lon="9.0778533"><ele>215.0</ele><time>2026-04-05T15:20:09.815Z</time></trkpt><trkpt lat="45.843275" lon="9.077865"><ele>215.5</ele><time>2026-04-05T15:20:11.815Z</time></trkpt><trkpt lat="45.8433833" lon="9.0779"><ele>216.0</ele><time>2026-04-05T15:20:13.816Z</time></trkpt><trkpt lat="45.843495" lon="9.07793"><ele>217.0</ele><time>2026-04-05T15:20:15.815Z</time></trkpt><trkpt lat="45.8435617" lon="9.077945"><ele>218.0</ele><time>2026-04-05T15:20:16.815Z</time></trkpt><trkpt lat="45.8436383" lon="9.0779617"><ele>219.0</ele><time>2026-04-05T15:20:17.815Z</time></trkpt><trkpt lat="45.8437033" lon="9.077995"><ele>220.0</ele><time>2026-04-05T15:20:18.815Z</time></trkpt><trkpt lat="45.8437883" lon="9.078025"><ele>221.0</ele><time>2026-04-05T15:20:19.816Z</time></trkpt><trkpt lat="45.8438717" lon="9.0780533"><ele>222.0</ele><time>2026-04-05T15:20:20.815Z</time></trkpt><trkpt lat="45.8439567" lon="9.078075"><ele>222.0</ele><time>2026-04-05T15:20:21.815Z</time></trkpt><trkpt lat="45.8440333" lon="9.078095"><ele>222.0</ele><time>2026-04-05T15:20:22.815Z</time></trkpt><trkpt lat="45.8440967" lon="9.0781133"><ele>222.0</ele><time>2026-04-05T15:20:23.816Z</time></trkpt><trkpt lat="45.8441583" lon="9.0781367"><ele>222.0</ele><time>2026-04-05T15:20:24.815Z</time></trkpt><trkpt lat="45.844225" lon="9.0781667"><ele>222.0</ele><time>2026-04-05T15:20:25.815Z</time></trkpt><trkpt lat="45.84429" lon="9.0782067"><ele>222.0</ele><time>2026-04-05T15:20:26.816Z</time></trkpt><trkpt lat="45.844365" lon="9.0782667"><ele>222.0</ele><time>2026-04-05T15:20:27.815Z</time></trkpt><trkpt lat="45.8444317" lon="9.078335"><ele>221.0</ele><time>2026-04-05T15:20:28.815Z</time></trkpt><trkpt lat="45.8444917" lon="9.0783817"><ele>220.0</ele><time>2026-04-05T15:20:29.815Z</time></trkpt><trkpt lat="45.8445517" lon="9.0784233"><ele>219.0</ele><time>2026-04-05T15:20:30.816Z</time></trkpt><trkpt lat="45.8446167" lon="9.0784683"><ele>218.0</ele><time>2026-04-05T15:20:31.815Z</time></trkpt><trkpt lat="45.8446983" lon="9.07851"><ele>217.0</ele><time>2026-04-05T15:20:32.815Z</time></trkpt><trkpt lat="45.8447967" lon="9.0785417"><ele>216.0</ele><time>2026-04-05T15:20:33.815Z</time></trkpt><trkpt lat="45.8449067" lon="9.0785817"><ele>216.0</ele><time>2026-04-05T15:20:34.816Z</time></trkpt><trkpt lat="45.845015" lon="9.0786083"><ele>216.00000000000003</ele><time>2026-04-05T15:20:35.815Z</time></trkpt><trkpt lat="45.8451183" lon="9.078635"><ele>216.00000000000003</ele><time>2026-04-05T15:20:36.816Z</time></trkpt><trkpt lat="45.84522" lon="9.0786533"><ele>216.0</ele><time>2026-04-05T15:20:37.815Z</time></trkpt><trkpt lat="45.8453133" lon="9.0786817"><ele>216.0</ele><time>2026-04-05T15:20:38.815Z</time></trkpt><trkpt lat="45.845415" lon="9.0787067"><ele>217.60000000000002</ele><time>2026-04-05T15:20:39.815Z</time></trkpt><trkpt lat="45.8455033" lon="9.0787333"><ele>219.20000000000002</ele><time>2026-04-05T15:20:40.815Z</time></trkpt><trkpt lat="45.8455967" lon="9.078765"><ele>220.79999999999998</ele><time>2026-04-05T15:20:41.815Z</time></trkpt><trkpt lat="45.845685" lon="9.078795"><ele>222.39999999999998</ele><time>2026-04-05T15:20:42.815Z</time></trkpt><trkpt lat="45.8457633" lon="9.0788433"><ele>224.0</ele><time>2026-04-05T15:20:43.815Z</time></trkpt><trkpt lat="45.8458533" lon="9.0789017"><ele>224.0</ele><time>2026-04-05T15:20:44.816Z</time></trkpt><trkpt lat="45.8459383" lon="9.07897"><ele>224.0</ele><time>2026-04-05T15:20:45.815Z</time></trkpt><trkpt lat="45.846035" lon="9.079065"><ele>224.0</ele><time>2026-04-05T15:20:46.815Z</time></trkpt><trkpt lat="45.8461267" lon="9.0791817"><ele>224.0</ele><time>2026-04-05T15:20:47.815Z</time></trkpt><trkpt lat="45.8461967" lon="9.0793217"><ele>228.6</ele><time>2026-04-05T15:20:48.816Z</time></trkpt><trkpt lat="45.8462483" lon="9.07947"><ele>233.2</ele><time>2026-04-05T15:20:49.815Z</time></trkpt><trkpt lat="45.8462867" lon="9.0796217"><ele>237.79999999999998</ele><time>2026-04-05T15:20:50.816Z</time></trkpt><trkpt lat="45.84631" lon="9.0797717"><ele>242.39999999999998</ele><time>2026-04-05T15:20:51.816Z</time></trkpt><trkpt lat="45.84632" lon="9.07993"><ele>247.0</ele><time>2026-04-05T15:20:52.815Z</time></trkpt><trkpt lat="45.846325" lon="9.08008"><ele>247.0</ele><time>2026-04-05T15:20:53.815Z</time></trkpt><trkpt lat="45.8463367" lon="9.0802317"><ele>247.0</ele><time>2026-04-05T15:20:54.815Z</time></trkpt><trkpt lat="45.8463567" lon="9.0803917"><ele>247.0</ele><time>2026-04-05T15:20:55.815Z</time></trkpt><trkpt lat="45.8463733" lon="9.080565"><ele>247.0</ele><time>2026-04-05T15:20:56.815Z</time></trkpt><trkpt lat="45.8464" lon="9.0807467"><ele>246.25</ele><time>2026-04-05T15:20:57.815Z</time></trkpt><trkpt lat="45.84642" lon="9.0809367"><ele>245.5</ele><time>2026-04-05T15:20:58.815Z</time></trkpt><trkpt lat="45.8464317" lon="9.081135"><ele>244.75</ele><time>2026-04-05T15:20:59.816Z</time></trkpt><trkpt lat="45.8464383" lon="9.081335"><ele>244.0</ele><time>2026-04-05T15:21:00.815Z</time></trkpt><trkpt lat="45.846455" lon="9.0815333"><ele>241.0</ele><time>2026-04-05T15:21:01.815Z</time></trkpt><trkpt lat="45.8464917" lon="9.0817283"><ele>238.0</ele><time>2026-04-05T15:21:02.816Z</time></trkpt><trkpt lat="45.8465083" lon="9.0819167"><ele>235.0</ele><time>2026-04-05T15:21:03.815Z</time></trkpt><trkpt lat="45.8465117" lon="9.082105"><ele>232.0</ele><time>2026-04-05T15:21:04.816Z</time></trkpt><trkpt lat="45.8465283" lon="9.082305"><ele>233.75</ele><time>2026-04-05T15:21:05.816Z</time></trkpt><trkpt lat="45.8465517" lon="9.0825167"><ele>235.5</ele><time>2026-04-05T15:21:06.815Z</time></trkpt><trkpt lat="45.8465517" lon="9.082715"><ele>237.25</ele><time>2026-04-05T15:21:07.815Z</time></trkpt><trkpt lat="45.8465617" lon="9.082935"><ele>239.0</ele><time>2026-04-05T15:21:08.816Z</time></trkpt><trkpt lat="45.846575" lon="9.083155"><ele>232.33333333333334</ele><time>2026-04-05T15:21:09.816Z</time></trkpt><trkpt lat="45.8465917" lon="9.0833817"><ele>225.66666666666669</ele><time>2026-04-05T15:21:10.815Z</time></trkpt><trkpt lat="45.84661" lon="9.083605"><ele>219.0</ele><time>2026-04-05T15:21:11.816Z</time></trkpt><trkpt lat="45.8466167" lon="9.08383"><ele>219.0</ele><time>2026-04-05T15:21:12.815Z</time></trkpt><trkpt lat="45.8465933" lon="9.0840567"><ele>219.0</ele><time>2026-04-05T15:21:13.815Z</time></trkpt><trkpt lat="45.846565" lon="9.0842717"><ele>219.0</ele><time>2026-04-05T15:21:14.816Z</time></trkpt><trkpt lat="45.84653" lon="9.0844817"><ele>222.5</ele><time>2026-04-05T15:21:15.816Z</time></trkpt><trkpt lat="45.8464967" lon="9.084685"><ele>226.0</ele><time>2026-04-05T15:21:16.815Z</time></trkpt><trkpt lat="45.8464667" lon="9.084885"><ele>229.5</ele><time>2026-04-05T15:21:17.815Z</time></trkpt><trkpt lat="45.8464283" lon="9.0850817"><ele>233.0</ele><time>2026-04-05T15:21:18.816Z</time></trkpt><trkpt lat="45.8463817" lon="9.085285"><ele>235.66666666666669</ele><time>2026-04-05T15:21:19.815Z</time></trkpt><trkpt lat="45.8463283" lon="9.0854867"><ele>238.33333333333331</ele><time>2026-04-05T15:21:20.815Z</time></trkpt><trkpt lat="45.84627" lon="9.0856867"><ele>241.0</ele><time>2026-04-05T15:21:21.815Z</time></trkpt><trkpt lat="45.846195" lon="9.0858733"><ele>242.75</ele><time>2026-04-05T15:21:22.815Z</time></trkpt><trkpt lat="45.8461233" lon="9.08606"><ele>244.5</ele><time>2026-04-05T15:21:23.815Z</time></trkpt><trkpt lat="45.8460683" lon="9.0862433"><ele>246.25</ele><time>2026-04-05T15:21:24.815Z</time></trkpt><trkpt lat="45.8460067" lon="9.0864133"><ele>248.0</ele><time>2026-04-05T15:21:25.816Z</time></trkpt><trkpt lat="45.8459767" lon="9.0865783"><ele>249.0</ele><time>2026-04-05T15:21:26.815Z</time></trkpt><trkpt lat="45.845975" lon="9.0867467"><ele>250.0</ele><time>2026-04-05T15:21:27.815Z</time></trkpt><trkpt lat="45.845995" lon="9.086915"><ele>251.0</ele><time>2026-04-05T15:21:28.815Z</time></trkpt><trkpt lat="45.84604" lon="9.0870883"><ele>252.0</ele><time>2026-04-05T15:21:29.815Z</time></trkpt><trkpt lat="45.8461083" lon="9.0872633"><ele>251.66666666666669</ele><time>2026-04-05T15:21:30.815Z</time></trkpt><trkpt lat="45.8461767" lon="9.0874467"><ele>251.33333333333334</ele><time>2026-04-05T15:21:31.815Z</time></trkpt><trkpt lat="45.8462483" lon="9.0876333"><ele>251.0</ele><time>2026-04-05T15:21:32.815Z</time></trkpt><trkpt lat="45.8463333" lon="9.0878283"><ele>251.0</ele><time>2026-04-05T15:21:33.815Z</time></trkpt><trkpt lat="45.846415" lon="9.0880217"><ele>251.0</ele><time>2026-04-05T15:21:34.815Z</time></trkpt><trkpt lat="45.8464917" lon="9.0882033"><ele>251.0</ele><time>2026-04-05T15:21:35.816Z</time></trkpt><trkpt lat="45.846575" lon="9.08835"><ele>251.0</ele><time>2026-04-05T15:21:36.815Z</time></trkpt><trkpt lat="45.846665" lon="9.0885"><ele>248.75</ele><time>2026-04-05T15:21:37.816Z</time></trkpt><trkpt lat="45.846765" lon="9.08862"><ele>246.5</ele><time>2026-04-05T15:21:38.815Z</time></trkpt><trkpt lat="45.8468733" lon="9.0887417"><ele>244.25</ele><time>2026-04-05T15:21:39.815Z</time></trkpt><trkpt lat="45.8469783" lon="9.0888417"><ele>242.0</ele><time>2026-04-05T15:21:40.815Z</time></trkpt><trkpt lat="45.8471033" lon="9.0889133"><ele>247.5</ele><time>2026-04-05T15:21:41.815Z</time></trkpt><trkpt lat="45.8472433" lon="9.088955"><ele>253.0</ele><time>2026-04-05T15:21:42.816Z</time></trkpt><trkpt lat="45.8473833" lon="9.0889833"><ele>258.5</ele><time>2026-04-05T15:21:43.815Z</time></trkpt><trkpt lat="45.8475233" lon="9.0889867"><ele>264.0</ele><time>2026-04-05T15:21:44.815Z</time></trkpt><trkpt lat="45.8476683" lon="9.0889767"><ele>266.25</ele><time>2026-04-05T15:21:45.815Z</time></trkpt><trkpt lat="45.8478017" lon="9.0889717"><ele>268.5</ele><time>2026-04-05T15:21:46.815Z</time></trkpt><trkpt lat="45.8479367" lon="9.088965"><ele>270.75</ele><time>2026-04-05T15:21:47.815Z</time></trkpt><trkpt lat="45.8480717" lon="9.0889517"><ele>273.0</ele><time>2026-04-05T15:21:48.816Z</time></trkpt><trkpt lat="45.8482017" lon="9.0889383"><ele>273.0</ele><time>2026-04-05T15:21:49.815Z</time></trkpt><trkpt lat="45.84833" lon="9.08892"><ele>273.0</ele><time>2026-04-05T15:21:50.815Z</time></trkpt><trkpt lat="45.8484533" lon="9.088905"><ele>273.0</ele><time>2026-04-05T15:21:51.815Z</time></trkpt><trkpt lat="45.8485683" lon="9.0888967"><ele>273.0</ele><time>2026-04-05T15:21:52.815Z</time></trkpt><trkpt lat="45.8486883" lon="9.08888"><ele>275.25</ele><time>2026-04-05T15:21:53.816Z</time></trkpt><trkpt lat="45.848805" lon="9.0888733"><ele>277.5</ele><time>2026-04-05T15:21:54.816Z</time></trkpt><trkpt lat="45.8489283" lon="9.0888567"><ele>279.75</ele><time>2026-04-05T15:21:55.815Z</time></trkpt><trkpt lat="45.8490683" lon="9.0888567"><ele>282.0</ele><time>2026-04-05T15:21:56.815Z</time></trkpt><trkpt lat="45.8492067" lon="9.0888583"><ele>284.0</ele><time>2026-04-05T15:21:57.815Z</time></trkpt><trkpt lat="45.8493483" lon="9.08886"><ele>286.0</ele><time>2026-04-05T15:21:58.815Z</time></trkpt><trkpt lat="45.8494817" lon="9.088865"><ele>288.0</ele><time>2026-04-05T15:21:59.815Z</time></trkpt><trkpt lat="45.8496067" lon="9.088875"><ele>290.0</ele><time>2026-04-05T15:22:00.815Z</time></trkpt><trkpt lat="45.8497333" lon="9.0888983"><ele>290.0</ele><time>2026-04-05T15:22:01.816Z</time></trkpt><trkpt lat="45.8498683" lon="9.0889433"><ele>290.0</ele><time>2026-04-05T15:22:02.816Z</time></trkpt><trkpt lat="45.85" lon="9.0890083"><ele>290.0</ele><time>2026-04-05T15:22:03.815Z</time></trkpt><trkpt lat="45.8501283" lon="9.0890517"><ele>290.0</ele><time>2026-04-05T15:22:04.816Z</time></trkpt><trkpt lat="45.8502633" lon="9.0891033"><ele>279.75</ele><time>2026-04-05T15:22:05.814Z</time></trkpt><trkpt lat="45.8504033" lon="9.0891467"><ele>269.5</ele><time>2026-04-05T15:22:06.814Z</time></trkpt><trkpt lat="45.85054" lon="9.0891567"><ele>259.25</ele><time>2026-04-05T15:22:07.814Z</time></trkpt><trkpt lat="45.8506867" lon="9.0891533"><ele>249.0</ele><time>2026-04-05T15:22:08.815Z</time></trkpt><trkpt lat="45.8508217" lon="9.0891183"><ele>260.5</ele><time>2026-04-05T15:22:09.815Z</time></trkpt><trkpt lat="45.8509633" lon="9.0890783"><ele>272.0</ele><time>2026-04-05T15:22:10.814Z</time></trkpt><trkpt lat="45.8510833" lon="9.089035"><ele>283.5</ele><time>2026-04-05T15:22:11.815Z</time></trkpt><trkpt lat="45.851185" lon="9.089005"><ele>295.0</ele><time>2026-04-05T15:22:12.814Z</time></trkpt><trkpt lat="45.851265" lon="9.0889867"><ele>295.0</ele><time>2026-04-05T15:22:13.815Z</time></trkpt><trkpt lat="45.851335" lon="9.088985"><ele>295.0</ele><time>2026-04-05T15:22:14.814Z</time></trkpt><trkpt lat="45.8514467" lon="9.08902"><ele>295.0</ele><time>2026-04-05T15:22:16.814Z</time></trkpt><trkpt lat="45.8515433" lon="9.0891017"><ele>295.0</ele><time>2026-04-05T15:22:18.815Z</time></trkpt><trkpt lat="45.8516367" lon="9.0891717"><ele>295.0</ele><time>2026-04-05T15:22:20.814Z</time></trkpt><trkpt lat="45.85172" lon="9.0892417"><ele>295.0</ele><time>2026-04-05T15:22:22.814Z</time></trkpt><trkpt lat="45.851655" lon="9.0891517"><ele>295.0</ele><time>2026-04-05T15:29:27.813Z</time></trkpt><trkpt lat="45.8515233" lon="9.0890517"><ele>295.0</ele><time>2026-04-05T15:30:10.814Z</time></trkpt><trkpt lat="45.85145" lon="9.0889817"><ele>295.0</ele><time>2026-04-05T15:30:12.814Z</time></trkpt><trkpt lat="45.85133" lon="9.0889033"><ele>295.0</ele><time>2026-04-05T15:30:14.813Z</time></trkpt><trkpt lat="45.8512117" lon="9.08891"><ele>295.0</ele><time>2026-04-05T15:30:16.813Z</time></trkpt><trkpt lat="45.8510967" lon="9.0889833"><ele>295.0</ele><time>2026-04-05T15:30:18.814Z</time></trkpt><trkpt lat="45.850985" lon="9.0890467"><ele>295.0</ele><time>2026-04-05T15:30:20.813Z</time></trkpt><trkpt lat="45.8508667" lon="9.089105"><ele>294.3333333333333</ele><time>2026-04-05T15:30:22.814Z</time></trkpt><trkpt lat="45.8507983" lon="9.0891283"><ele>293.66666666666663</ele><time>2026-04-05T15:30:23.813Z</time></trkpt><trkpt lat="45.8507217" lon="9.0891467"><ele>293.0</ele><time>2026-04-05T15:30:24.813Z</time></trkpt><trkpt lat="45.8506233" lon="9.0891533"><ele>292.3333333333333</ele><time>2026-04-05T15:30:25.813Z</time></trkpt><trkpt lat="45.8505317" lon="9.0891317"><ele>291.6666666666667</ele><time>2026-04-05T15:30:26.813Z</time></trkpt><trkpt lat="45.8504267" lon="9.089095"><ele>291.0</ele><time>2026-04-05T15:30:27.813Z</time></trkpt><trkpt lat="45.850315" lon="9.0890633"><ele>291.0</ele><time>2026-04-05T15:30:28.813Z</time></trkpt><trkpt lat="45.8502133" lon="9.0890233"><ele>291.0</ele><time>2026-04-05T15:30:29.813Z</time></trkpt><trkpt lat="45.8501033" lon="9.088995"><ele>291.0</ele><time>2026-04-05T15:30:30.814Z</time></trkpt><trkpt lat="45.850005" lon="9.0889717"><ele>291.0</ele><time>2026-04-05T15:30:31.813Z</time></trkpt><trkpt lat="45.8499" lon="9.08894"><ele>291.0</ele><time>2026-04-05T15:30:32.813Z</time></trkpt><trkpt lat="45.849795" lon="9.0889117"><ele>290.75</ele><time>2026-04-05T15:30:33.813Z</time></trkpt><trkpt lat="45.8496883" lon="9.0888833"><ele>290.5</ele><time>2026-04-05T15:30:34.813Z</time></trkpt><trkpt lat="45.8495767" lon="9.0888517"><ele>290.25</ele><time>2026-04-05T15:30:35.814Z</time></trkpt><trkpt lat="45.8494617" lon="9.08882"><ele>290.0</ele><time>2026-04-05T15:30:36.813Z</time></trkpt><trkpt lat="45.8493467" lon="9.0888167"><ele>288.0</ele><time>2026-04-05T15:30:37.813Z</time></trkpt><trkpt lat="45.8492267" lon="9.088815"><ele>286.0</ele><time>2026-04-05T15:30:38.813Z</time></trkpt><trkpt lat="45.8491017" lon="9.0888083"><ele>284.0</ele><time>2026-04-05T15:30:39.813Z</time></trkpt><trkpt lat="45.84899" lon="9.0888133"><ele>282.0</ele><time>2026-04-05T15:30:40.814Z</time></trkpt><trkpt lat="45.8488767" lon="9.0888233"><ele>282.0</ele><time>2026-04-05T15:30:41.813Z</time></trkpt><trkpt lat="45.8487717" lon="9.08882"><ele>282.0</ele><time>2026-04-05T15:30:42.813Z</time></trkpt><trkpt lat="45.8486617" lon="9.08882"><ele>282.0</ele><time>2026-04-05T15:30:43.813Z</time></trkpt><trkpt lat="45.8485467" lon="9.0888283"><ele>282.0</ele><time>2026-04-05T15:30:44.813Z</time></trkpt><trkpt lat="45.848425" lon="9.0888367"><ele>279.75</ele><time>2026-04-05T15:30:45.813Z</time></trkpt><trkpt lat="45.8482983" lon="9.0888533"><ele>277.5</ele><time>2026-04-05T15:30:46.814Z</time></trkpt><trkpt lat="45.8481767" lon="9.0888367"><ele>275.25</ele><time>2026-04-05T15:30:47.814Z</time></trkpt><trkpt lat="45.8480433" lon="9.0888383"><ele>273.0</ele><time>2026-04-05T15:30:48.813Z</time></trkpt><trkpt lat="45.8479" lon="9.088855"><ele>273.0</ele><time>2026-04-05T15:30:49.814Z</time></trkpt><trkpt lat="45.8477533" lon="9.08888"><ele>273.0</ele><time>2026-04-05T15:30:50.814Z</time></trkpt><trkpt lat="45.847615" lon="9.0888917"><ele>273.0</ele><time>2026-04-05T15:30:51.813Z</time></trkpt><trkpt lat="45.8474833" lon="9.0889067"><ele>273.0</ele><time>2026-04-05T15:30:52.814Z</time></trkpt><trkpt lat="45.8473583" lon="9.088925"><ele>270.75</ele><time>2026-04-05T15:30:53.813Z</time></trkpt><trkpt lat="45.84724" lon="9.0889117"><ele>268.5</ele><time>2026-04-05T15:30:54.813Z</time></trkpt><trkpt lat="45.847135" lon="9.0888883"><ele>266.25</ele><time>2026-04-05T15:30:55.813Z</time></trkpt><trkpt lat="45.8470167" lon="9.08883"><ele>264.0</ele><time>2026-04-05T15:30:56.813Z</time></trkpt><trkpt lat="45.84689" lon="9.0887467"><ele>260.75</ele><time>2026-04-05T15:30:57.813Z</time></trkpt><trkpt lat="45.846775" lon="9.0886417"><ele>257.5</ele><time>2026-04-05T15:30:58.814Z</time></trkpt><trkpt lat="45.8466667" lon="9.0885283"><ele>254.25</ele><time>2026-04-05T15:30:59.814Z</time></trkpt><trkpt lat="45.8465717" lon="9.0883917"><ele>251.0</ele><time>2026-04-05T15:31:00.813Z</time></trkpt><trkpt lat="45.846505" lon="9.0882167"><ele>251.0</ele><time>2026-04-05T15:31:01.813Z</time></trkpt><trkpt lat="45.8464383" lon="9.0880683"><ele>251.0</ele><time>2026-04-05T15:31:02.813Z</time></trkpt><trkpt lat="45.846385" lon="9.087905"><ele>251.0</ele><time>2026-04-05T15:31:03.814Z</time></trkpt><trkpt lat="45.8463283" lon="9.0877583"><ele>251.0</ele><time>2026-04-05T15:31:04.813Z</time></trkpt><trkpt lat="45.84628" lon="9.08761"><ele>251.0</ele><time>2026-04-05T15:31:05.813Z</time></trkpt><trkpt lat="45.8462317" lon="9.08747"><ele>251.00000000000003</ele><time>2026-04-05T15:31:06.813Z</time></trkpt><trkpt lat="45.8461833" lon="9.0873233"><ele>251.00000000000003</ele><time>2026-04-05T15:31:07.813Z</time></trkpt><trkpt lat="45.84613" lon="9.0871833"><ele>251.0</ele><time>2026-04-05T15:31:08.814Z</time></trkpt><trkpt lat="45.846085" lon="9.0870417"><ele>251.0</ele><time>2026-04-05T15:31:09.813Z</time></trkpt><trkpt lat="45.8460467" lon="9.0869033"><ele>251.20000000000002</ele><time>2026-04-05T15:31:10.813Z</time></trkpt><trkpt lat="45.846015" lon="9.0867583"><ele>251.40000000000003</ele><time>2026-04-05T15:31:11.813Z</time></trkpt><trkpt lat="45.8460117" lon="9.0866083"><ele>251.6</ele><time>2026-04-05T15:31:12.814Z</time></trkpt><trkpt lat="45.84603" lon="9.0864583"><ele>251.8</ele><time>2026-04-05T15:31:13.813Z</time></trkpt><trkpt lat="45.8460667" lon="9.0863117"><ele>252.0</ele><time>2026-04-05T15:31:14.813Z</time></trkpt><trkpt lat="45.8461217" lon="9.08617"><ele>251.0</ele><time>2026-04-05T15:31:15.813Z</time></trkpt><trkpt lat="45.8461767" lon="9.0860233"><ele>250.0</ele><time>2026-04-05T15:31:16.814Z</time></trkpt><trkpt lat="45.84623" lon="9.0858667"><ele>249.0</ele><time>2026-04-05T15:31:17.813Z</time></trkpt><trkpt lat="45.8462883" lon="9.0856967"><ele>248.0</ele><time>2026-04-05T15:31:18.814Z</time></trkpt><trkpt lat="45.846345" lon="9.0855233"><ele>245.66666666666669</ele><time>2026-04-05T15:31:19.813Z</time></trkpt><trkpt lat="45.846415" lon="9.0853317"><ele>243.33333333333331</ele><time>2026-04-05T15:31:20.813Z</time></trkpt><trkpt lat="45.8464617" lon="9.0851267"><ele>241.0</ele><time>2026-04-05T15:31:21.813Z</time></trkpt><trkpt lat="45.8465033" lon="9.0849133"><ele>238.33333333333331</ele><time>2026-04-05T15:31:22.813Z</time></trkpt><trkpt lat="45.8465317" lon="9.0846933"><ele>235.66666666666669</ele><time>2026-04-05T15:31:23.814Z</time></trkpt><trkpt lat="45.84655" lon="9.0844683"><ele>233.0</ele><time>2026-04-05T15:31:24.814Z</time></trkpt><trkpt lat="45.8465833" lon="9.0842533"><ele>229.5</ele><time>2026-04-05T15:31:25.813Z</time></trkpt><trkpt lat="45.8466133" lon="9.0840417"><ele>226.0</ele><time>2026-04-05T15:31:26.814Z</time></trkpt><trkpt lat="45.8466283" lon="9.0838333"><ele>222.5</ele><time>2026-04-05T15:31:27.813Z</time></trkpt><trkpt lat="45.84664" lon="9.083625"><ele>219.0</ele><time>2026-04-05T15:31:28.813Z</time></trkpt><trkpt lat="45.8466383" lon="9.0834217"><ele>225.66666666666669</ele><time>2026-04-05T15:31:29.814Z</time></trkpt><trkpt lat="45.8466283" lon="9.0831917"><ele>232.33333333333334</ele><time>2026-04-05T15:31:30.813Z</time></trkpt><trkpt lat="45.84659" lon="9.0829667"><ele>239.0</ele><time>2026-04-05T15:31:31.813Z</time></trkpt><trkpt lat="45.8465683" lon="9.0827183"><ele>239.0</ele><time>2026-04-05T15:31:32.813Z</time></trkpt><trkpt lat="45.846545" lon="9.0824967"><ele>239.0</ele><time>2026-04-05T15:31:33.813Z</time></trkpt><trkpt lat="45.8465267" lon="9.08228"><ele>239.0</ele><time>2026-04-05T15:31:34.813Z</time></trkpt><trkpt lat="45.8465133" lon="9.0820583"><ele>240.66666666666669</ele><time>2026-04-05T15:31:35.813Z</time></trkpt><trkpt lat="45.8464983" lon="9.08184"><ele>242.33333333333331</ele><time>2026-04-05T15:31:36.813Z</time></trkpt><trkpt lat="45.8464933" lon="9.0816117"><ele>244.0</ele><time>2026-04-05T15:31:37.813Z</time></trkpt><trkpt lat="45.8464683" lon="9.0813767"><ele>244.0</ele><time>2026-04-05T15:31:38.813Z</time></trkpt><trkpt lat="45.8464467" lon="9.081135"><ele>244.0</ele><time>2026-04-05T15:31:39.813Z</time></trkpt><trkpt lat="45.8464333" lon="9.0808983"><ele>244.0</ele><time>2026-04-05T15:31:40.813Z</time></trkpt><trkpt lat="45.8464267" lon="9.0806733"><ele>244.75</ele><time>2026-04-05T15:31:41.813Z</time></trkpt><trkpt lat="45.846415" lon="9.0804683"><ele>245.5</ele><time>2026-04-05T15:31:42.813Z</time></trkpt><trkpt lat="45.8463883" lon="9.0802767"><ele>246.25</ele><time>2026-04-05T15:31:43.813Z</time></trkpt><trkpt lat="45.84637" lon="9.08009"><ele>247.0</ele><time>2026-04-05T15:31:44.813Z</time></trkpt><trkpt lat="45.846345" lon="9.079905"><ele>247.5</ele><time>2026-04-05T15:31:45.814Z</time></trkpt><trkpt lat="45.8463233" lon="9.0797283"><ele>248.0</ele><time>2026-04-05T15:31:46.814Z</time></trkpt><trkpt lat="45.8462967" lon="9.0795733"><ele>248.5</ele><time>2026-04-05T15:31:47.814Z</time></trkpt><trkpt lat="45.8462417" lon="9.07941"><ele>249.0</ele><time>2026-04-05T15:31:48.813Z</time></trkpt><trkpt lat="45.8461783" lon="9.0792517"><ele>249.0</ele><time>2026-04-05T15:31:49.813Z</time></trkpt><trkpt lat="45.8461067" lon="9.07911"><ele>249.0</ele><time>2026-04-05T15:31:50.813Z</time></trkpt><trkpt lat="45.84601" lon="9.0789533"><ele>249.0</ele><time>2026-04-05T15:31:51.813Z</time></trkpt><trkpt lat="45.8458767" lon="9.078825"><ele>249.0</ele><time>2026-04-05T15:31:52.814Z</time></trkpt><trkpt lat="45.84573" lon="9.0787283"><ele>240.66666666666669</ele><time>2026-04-05T15:31:53.813Z</time></trkpt><trkpt lat="45.8455517" lon="9.078655"><ele>232.33333333333334</ele><time>2026-04-05T15:31:54.813Z</time></trkpt><trkpt lat="45.8453633" lon="9.0785983"><ele>224.0</ele><time>2026-04-05T15:31:55.814Z</time></trkpt><trkpt lat="45.8451717" lon="9.0785733"><ele>221.33333333333334</ele><time>2026-04-05T15:31:56.813Z</time></trkpt><trkpt lat="45.8449983" lon="9.078525"><ele>218.66666666666669</ele><time>2026-04-05T15:31:57.813Z</time></trkpt><trkpt lat="45.8448367" lon="9.0784867"><ele>216.0</ele><time>2026-04-05T15:31:58.813Z</time></trkpt><trkpt lat="45.8446967" lon="9.0784517"><ele>216.0</ele><time>2026-04-05T15:31:59.814Z</time></trkpt><trkpt lat="45.8445783" lon="9.07841"><ele>216.0</ele><time>2026-04-05T15:32:00.813Z</time></trkpt><trkpt lat="45.844485" lon="9.0783633"><ele>216.0</ele><time>2026-04-05T15:32:01.813Z</time></trkpt><trkpt lat="45.8444217" lon="9.0783067"><ele>216.0</ele><time>2026-04-05T15:32:02.813Z</time></trkpt><trkpt lat="45.8443683" lon="9.0782583"><ele>216.0</ele><time>2026-04-05T15:32:03.814Z</time></trkpt><trkpt lat="45.8443083" lon="9.0782167"><ele>216.0</ele><time>2026-04-05T15:32:04.813Z</time></trkpt><trkpt lat="45.844185" lon="9.07815"><ele>217.0</ele><time>2026-04-05T15:32:06.813Z</time></trkpt><trkpt lat="45.844115" lon="9.0781233"><ele>218.0</ele><time>2026-04-05T15:32:07.813Z</time></trkpt><trkpt lat="45.8440383" lon="9.0780933"><ele>219.0</ele><time>2026-04-05T15:32:08.813Z</time></trkpt><trkpt lat="45.8439483" lon="9.0780617"><ele>220.0</ele><time>2026-04-05T15:32:09.813Z</time></trkpt><trkpt lat="45.843855" lon="9.0780317"><ele>221.0</ele><time>2026-04-05T15:32:10.813Z</time></trkpt><trkpt lat="45.8437483" lon="9.0780017"><ele>222.0</ele><time>2026-04-05T15:32:11.813Z</time></trkpt><trkpt lat="45.8436467" lon="9.0779617"><ele>222.0</ele><time>2026-04-05T15:32:12.813Z</time></trkpt><trkpt lat="45.8435567" lon="9.0779283"><ele>222.0</ele><time>2026-04-05T15:32:13.814Z</time></trkpt><trkpt lat="45.8434683" lon="9.0779017"><ele>222.0</ele><time>2026-04-05T15:32:14.814Z</time></trkpt><trkpt lat="45.8433917" lon="9.0778783"><ele>222.0</ele><time>2026-04-05T15:32:15.813Z</time></trkpt><trkpt lat="45.84332" lon="9.0778583"><ele>222.0</ele><time>2026-04-05T15:32:16.813Z</time></trkpt><trkpt lat="45.84323" lon="9.0778217"><ele>222.0</ele><time>2026-04-05T15:32:18.813Z</time></trkpt><trkpt lat="45.8430967" lon="9.0778"><ele>220.8</ele><time>2026-04-05T15:32:58.813Z</time></trkpt><trkpt lat="45.84299" lon="9.07777"><ele>219.6</ele><time>2026-04-05T15:33:08.814Z</time></trkpt><trkpt lat="45.8428833" lon="9.0777383"><ele>218.40000000000003</ele><time>2026-04-05T15:33:10.813Z</time></trkpt><trkpt lat="45.8427933" lon="9.077715"><ele>217.20000000000002</ele><time>2026-04-05T15:33:12.813Z</time></trkpt><trkpt lat="45.84272" lon="9.0776783"><ele>216.0</ele><time>2026-04-05T15:33:14.813Z</time></trkpt><trkpt lat="45.8426517" lon="9.0776483"><ele>215.66666666666666</ele><time>2026-04-05T15:33:16.813Z</time></trkpt><trkpt lat="45.8425717" lon="9.0776133"><ele>215.33333333333331</ele><time>2026-04-05T15:33:18.813Z</time></trkpt><trkpt lat="45.8425033" lon="9.0775733"><ele>215.0</ele><time>2026-04-05T15:33:20.813Z</time></trkpt><trkpt lat="45.8424283" lon="9.0775467"><ele>214.66666666666666</ele><time>2026-04-05T15:33:22.814Z</time></trkpt><trkpt lat="45.8423583" lon="9.07752"><ele>214.33333333333331</ele><time>2026-04-05T15:33:24.813Z</time></trkpt><trkpt lat="45.8422767" lon="9.077465"><ele>214.0</ele><time>2026-04-05T15:33:26.814Z</time></trkpt><trkpt lat="45.8421883" lon="9.0774"><ele>214.0</ele><time>2026-04-05T15:33:28.813Z</time></trkpt><trkpt lat="45.8420817" lon="9.0773217"><ele>213.99999999999997</ele><time>2026-04-05T15:33:30.813Z</time></trkpt><trkpt lat="45.84197" lon="9.0772617"><ele>213.99999999999997</ele><time>2026-04-05T15:33:32.814Z</time></trkpt><trkpt lat="45.841875" lon="9.0771883"><ele>214.0</ele><time>2026-04-05T15:33:34.813Z</time></trkpt><trkpt lat="45.8417983" lon="9.0771083"><ele>214.0</ele><time>2026-04-05T15:33:36.813Z</time></trkpt><trkpt lat="45.8417333" lon="9.077035"><ele>213.83333333333331</ele><time>2026-04-05T15:33:38.813Z</time></trkpt><trkpt lat="45.84167" lon="9.076955"><ele>213.66666666666666</ele><time>2026-04-05T15:33:41.813Z</time></trkpt><trkpt lat="45.8416133" lon="9.0768833"><ele>213.5</ele><time>2026-04-05T15:33:44.813Z</time></trkpt><trkpt lat="45.8415583" lon="9.07682"><ele>213.33333333333331</ele><time>2026-04-05T15:33:46.813Z</time></trkpt><trkpt lat="45.8414933" lon="9.0767283"><ele>213.16666666666666</ele><time>2026-04-05T15:33:48.813Z</time></trkpt><trkpt lat="45.84141" lon="9.076695"><ele>213.0</ele><time>2026-04-05T15:33:51.813Z</time></trkpt><trkpt lat="45.84133" lon="9.0766417"><ele>213.0</ele><time>2026-04-05T15:33:55.814Z</time></trkpt><trkpt lat="45.8412667" lon="9.0765917"><ele>213.0</ele><time>2026-04-05T15:33:57.813Z</time></trkpt><trkpt lat="45.8412" lon="9.076555"><ele>213.0</ele><time>2026-04-05T15:34:00.813Z</time></trkpt><trkpt lat="45.84114" lon="9.0764817"><ele>213.0</ele><time>2026-04-05T15:34:04.814Z</time></trkpt><trkpt lat="45.8410667" lon="9.076375"><ele>213.0</ele><time>2026-04-05T15:34:06.813Z</time></trkpt><trkpt lat="45.840985" lon="9.0762267"><ele>213.16666666666666</ele><time>2026-04-05T15:34:08.814Z</time></trkpt><trkpt lat="45.8409217" lon="9.0761533"><ele>213.33333333333331</ele><time>2026-04-05T15:34:09.813Z</time></trkpt><trkpt lat="45.8408617" lon="9.0760683"><ele>213.5</ele><time>2026-04-05T15:34:10.814Z</time></trkpt><trkpt lat="45.8408033" lon="9.0759833"><ele>213.66666666666666</ele><time>2026-04-05T15:34:11.813Z</time></trkpt><trkpt lat="45.8407333" lon="9.0759117"><ele>213.83333333333331</ele><time>2026-04-05T15:34:12.813Z</time></trkpt><trkpt lat="45.8406717" lon="9.0758333"><ele>214.0</ele><time>2026-04-05T15:34:13.813Z</time></trkpt><trkpt lat="45.8406117" lon="9.07576"><ele>213.99999999999997</ele><time>2026-04-05T15:34:14.813Z</time></trkpt><trkpt lat="45.8405617" lon="9.07569"><ele>214.0</ele><time>2026-04-05T15:34:15.813Z</time></trkpt><trkpt lat="45.84048" lon="9.0755717"><ele>214.0</ele><time>2026-04-05T15:34:17.813Z</time></trkpt><trkpt lat="45.8404433" lon="9.0754583"><ele>214.0</ele><time>2026-04-05T15:34:19.813Z</time></trkpt><trkpt lat="45.8404617" lon="9.075315"><ele>213.99999999999997</ele><time>2026-04-05T15:34:21.813Z</time></trkpt><trkpt lat="45.840495" lon="9.0752383"><ele>214.0</ele><time>2026-04-05T15:34:22.814Z</time></trkpt><trkpt lat="45.8405933" lon="9.0751167"><ele>213.99999999999997</ele><time>2026-04-05T15:34:24.813Z</time></trkpt><trkpt lat="45.8406567" lon="9.0750483"><ele>214.0</ele><time>2026-04-05T15:34:25.813Z</time></trkpt><trkpt lat="45.84073" lon="9.0749817"><ele>214.0</ele><time>2026-04-05T15:34:26.813Z</time></trkpt><trkpt lat="45.8408017" lon="9.0749167"><ele>214.0</ele><time>2026-04-05T15:34:27.813Z</time></trkpt><trkpt lat="45.8408717" lon="9.0748633"><ele>213.99999999999997</ele><time>2026-04-05T15:34:28.813Z</time></trkpt><trkpt lat="45.84096" lon="9.0747667"><ele>214.0</ele><time>2026-04-05T15:34:30.813Z</time></trkpt><trkpt lat="45.8410333" lon="9.0746583"><ele>214.66666666666666</ele><time>2026-04-05T15:34:32.814Z</time></trkpt><trkpt lat="45.8410833" lon="9.0746"><ele>215.33333333333331</ele><time>2026-04-05T15:34:33.813Z</time></trkpt><trkpt lat="45.8411417" lon="9.0745533"><ele>216.0</ele><time>2026-04-05T15:34:34.813Z</time></trkpt><trkpt lat="45.8412483" lon="9.0744767"><ele>216.66666666666669</ele><time>2026-04-05T15:34:36.814Z</time></trkpt><trkpt lat="45.8413267" lon="9.0744633"><ele>217.33333333333334</ele><time>2026-04-05T15:34:37.814Z</time></trkpt><trkpt lat="45.8414117" lon="9.0744417"><ele>218.0</ele><time>2026-04-05T15:34:38.814Z</time></trkpt><trkpt lat="45.8415033" lon="9.0743983"><ele>218.0</ele><time>2026-04-05T15:34:39.814Z</time></trkpt><trkpt lat="45.8415983" lon="9.0743517"><ele>218.0</ele><time>2026-04-05T15:34:40.813Z</time></trkpt><trkpt lat="45.8416933" lon="9.0742983"><ele>218.0</ele><time>2026-04-05T15:34:41.813Z</time></trkpt><trkpt lat="45.8417867" lon="9.07424"><ele>218.0</ele><time>2026-04-05T15:34:42.813Z</time></trkpt><trkpt lat="45.8418833" lon="9.0741783"><ele>218.0</ele><time>2026-04-05T15:34:43.814Z</time></trkpt><trkpt lat="45.84198" lon="9.07409"><ele>220.25</ele><time>2026-04-05T15:34:44.813Z</time></trkpt><trkpt lat="45.8420817" lon="9.0739933"><ele>222.5</ele><time>2026-04-05T15:34:45.813Z</time></trkpt><trkpt lat="45.8421883" lon="9.0739183"><ele>224.75</ele><time>2026-04-05T15:34:46.813Z</time></trkpt><trkpt lat="45.84229" lon="9.073845"><ele>227.0</ele><time>2026-04-05T15:34:47.814Z</time></trkpt><trkpt lat="45.8423933" lon="9.0737733"><ele>227.0</ele><time>2026-04-05T15:34:48.813Z</time></trkpt><trkpt lat="45.8424917" lon="9.073695"><ele>227.0</ele><time>2026-04-05T15:34:49.813Z</time></trkpt><trkpt lat="45.8425883" lon="9.07363"><ele>227.0</ele><time>2026-04-05T15:34:50.813Z</time></trkpt><trkpt lat="45.8426767" lon="9.0735767"><ele>227.0</ele><time>2026-04-05T15:34:51.813Z</time></trkpt><trkpt lat="45.8427667" lon="9.0735183"><ele>227.0</ele><time>2026-04-05T15:34:52.813Z</time></trkpt><trkpt lat="45.8428583" lon="9.073475"><ele>227.39999999999998</ele><time>2026-04-05T15:34:53.813Z</time></trkpt><trkpt lat="45.84295" lon="9.0734383"><ele>227.79999999999998</ele><time>2026-04-05T15:34:54.813Z</time></trkpt><trkpt lat="45.84304" lon="9.0734183"><ele>228.2</ele><time>2026-04-05T15:34:55.814Z</time></trkpt><trkpt lat="45.8431267" lon="9.0733917"><ele>228.6</ele><time>2026-04-05T15:34:56.814Z</time></trkpt><trkpt lat="45.843215" lon="9.0733667"><ele>229.0</ele><time>2026-04-05T15:34:57.813Z</time></trkpt><trkpt lat="45.8433183" lon="9.073355"><ele>229.0</ele><time>2026-04-05T15:34:58.813Z</time></trkpt><trkpt lat="45.8434233" lon="9.07333"><ele>228.99999999999997</ele><time>2026-04-05T15:34:59.813Z</time></trkpt><trkpt lat="45.8435317" lon="9.0733033"><ele>228.99999999999997</ele><time>2026-04-05T15:35:00.813Z</time></trkpt><trkpt lat="45.84364" lon="9.07329"><ele>229.0</ele><time>2026-04-05T15:35:01.814Z</time></trkpt><trkpt lat="45.84374" lon="9.07328"><ele>229.0</ele><time>2026-04-05T15:35:02.813Z</time></trkpt><trkpt lat="45.8438283" lon="9.0732633"><ele>230.66666666666666</ele><time>2026-04-05T15:35:03.813Z</time></trkpt><trkpt lat="45.8438983" lon="9.0732467"><ele>232.33333333333331</ele><time>2026-04-05T15:35:04.813Z</time></trkpt><trkpt lat="45.8439917" lon="9.073285"><ele>234.0</ele><time>2026-04-05T15:35:06.813Z</time></trkpt><trkpt lat="45.8440467" lon="9.0734383"><ele>235.66666666666669</ele><time>2026-04-05T15:35:08.813Z</time></trkpt><trkpt lat="45.8440417" lon="9.07354"><ele>237.33333333333334</ele><time>2026-04-05T15:35:09.813Z</time></trkpt><trkpt lat="45.8440267" lon="9.073655"><ele>239.0</ele><time>2026-04-05T15:35:10.813Z</time></trkpt><trkpt lat="45.84402" lon="9.0737467"><ele>239.00000000000003</ele><time>2026-04-05T15:35:11.813Z</time></trkpt><trkpt lat="45.8440183" lon="9.0738683"><ele>239.0</ele><time>2026-04-05T15:35:13.813Z</time></trkpt><trkpt lat="45.843995" lon="9.0740033"><ele>239.0</ele><time>2026-04-05T15:35:15.813Z</time></trkpt><trkpt lat="45.843985" lon="9.0741"><ele>239.0</ele><time>2026-04-05T15:35:16.813Z</time></trkpt><trkpt lat="45.843975" lon="9.0742217"><ele>239.00000000000003</ele><time>2026-04-05T15:35:17.813Z</time></trkpt><trkpt lat="45.8439733" lon="9.074355"><ele>239.0</ele><time>2026-04-05T15:35:18.814Z</time></trkpt><trkpt lat="45.8439767" lon="9.0745"><ele>239.33333333333334</ele><time>2026-04-05T15:35:19.813Z</time></trkpt><trkpt lat="45.8439817" lon="9.07463"><ele>239.66666666666669</ele><time>2026-04-05T15:35:20.813Z</time></trkpt><trkpt lat="45.8439817" lon="9.07474"><ele>240.0</ele><time>2026-04-05T15:35:21.813Z</time></trkpt><trkpt lat="45.843985" lon="9.0748367"><ele>240.33333333333331</ele><time>2026-04-05T15:35:22.813Z</time></trkpt><trkpt lat="45.844" lon="9.0749883"><ele>240.66666666666666</ele><time>2026-04-05T15:35:24.813Z</time></trkpt><trkpt lat="45.8440367" lon="9.0751067"><ele>241.0</ele><time>2026-04-05T15:35:26.813Z</time></trkpt><trkpt lat="45.8441167" lon="9.0752367"><ele>240.99999999999997</ele><time>2026-04-05T15:35:28.814Z</time></trkpt><trkpt lat="45.844175" lon="9.0753"><ele>241.0</ele><time>2026-04-05T15:35:29.813Z</time></trkpt><trkpt lat="45.8442283" lon="9.0753633"><ele>241.0</ele><time>2026-04-05T15:35:30.813Z</time></trkpt><trkpt lat="45.8443117" lon="9.0754617"><ele>241.0</ele><time>2026-04-05T15:35:32.814Z</time></trkpt><trkpt lat="45.8443983" lon="9.075515"><ele>240.99999999999997</ele><time>2026-04-05T15:35:34.813Z</time></trkpt><trkpt lat="45.84449" lon="9.0754633"><ele>241.0</ele><time>2026-04-05T15:35:36.813Z</time></trkpt><trkpt lat="45.8445683" lon="9.0753433"><ele>244.60000000000002</ele><time>2026-04-05T15:35:38.814Z</time></trkpt><trkpt lat="45.8446683" lon="9.0752667"><ele>248.20000000000002</ele><time>2026-04-05T15:35:40.813Z</time></trkpt><trkpt lat="45.8447333" lon="9.0752617"><ele>251.79999999999998</ele><time>2026-04-05T15:35:41.813Z</time></trkpt><trkpt lat="45.84485" lon="9.07525"><ele>255.39999999999998</ele><time>2026-04-05T15:35:43.813Z</time></trkpt><trkpt lat="45.8449133" lon="9.0752417"><ele>259.0</ele><time>2026-04-05T15:35:44.814Z</time></trkpt><trkpt lat="45.8450267" lon="9.0752617"><ele>259.0</ele><time>2026-04-05T15:35:46.813Z</time></trkpt><trkpt lat="45.8450783" lon="9.0753217"><ele>259.0</ele><time>2026-04-05T15:35:47.814Z</time></trkpt><trkpt lat="45.84512" lon="9.0754067"><ele>259.0</ele><time>2026-04-05T15:35:48.813Z</time></trkpt><trkpt lat="45.8451583" lon="9.0755"><ele>259.0</ele><time>2026-04-05T15:35:49.813Z</time></trkpt><trkpt lat="45.8452" lon="9.07558"><ele>259.0</ele><time>2026-04-05T15:35:50.813Z</time></trkpt><trkpt lat="45.8452483" lon="9.07564"><ele>259.0</ele><time>2026-04-05T15:35:51.813Z</time></trkpt><trkpt lat="45.8453033" lon="9.07569"><ele>259.0</ele><time>2026-04-05T15:35:52.814Z</time></trkpt><trkpt lat="45.8453583" lon="9.075735"><ele>258.3333333333333</ele><time>2026-04-05T15:35:53.813Z</time></trkpt><trkpt lat="45.8454267" lon="9.0757817"><ele>257.66666666666663</ele><time>2026-04-05T15:35:54.813Z</time></trkpt><trkpt lat="45.845495" lon="9.0758067"><ele>257.0</ele><time>2026-04-05T15:35:55.813Z</time></trkpt><trkpt lat="45.845565" lon="9.075825"><ele>256.3333333333333</ele><time>2026-04-05T15:35:56.813Z</time></trkpt><trkpt lat="45.8456483" lon="9.0758217"><ele>255.66666666666666</ele><time>2026-04-05T15:35:57.813Z</time></trkpt><trkpt lat="45.8457467" lon="9.0757867"><ele>255.0</ele><time>2026-04-05T15:35:58.814Z</time></trkpt><trkpt lat="45.84585" lon="9.0757467"><ele>258.8</ele><time>2026-04-05T15:35:59.814Z</time></trkpt><trkpt lat="45.8459483" lon="9.07568"><ele>262.6</ele><time>2026-04-05T15:36:00.813Z</time></trkpt><trkpt lat="45.8460317" lon="9.0756283"><ele>266.4</ele><time>2026-04-05T15:36:01.813Z</time></trkpt><trkpt lat="45.84612" lon="9.07558"><ele>270.2</ele><time>2026-04-05T15:36:02.813Z</time></trkpt><trkpt lat="45.8462" lon="9.0755583"><ele>274.0</ele><time>2026-04-05T15:36:03.813Z</time></trkpt><trkpt lat="45.846285" lon="9.07555"><ele>274.2</ele><time>2026-04-05T15:36:04.813Z</time></trkpt><trkpt lat="45.8463667" lon="9.07557"><ele>274.4</ele><time>2026-04-05T15:36:05.813Z</time></trkpt><trkpt lat="45.8464367" lon="9.0756017"><ele>274.6</ele><time>2026-04-05T15:36:06.813Z</time></trkpt><trkpt lat="45.846535" lon="9.0756817"><ele>274.8</ele><time>2026-04-05T15:36:08.813Z</time></trkpt><trkpt lat="45.8466267" lon="9.0757333"><ele>275.0</ele><time>2026-04-05T15:36:10.813Z</time></trkpt><trkpt lat="45.8467217" lon="9.0757133"><ele>275.0</ele><time>2026-04-05T15:36:12.814Z</time></trkpt><trkpt lat="45.8467483" lon="9.0755733"><ele>275.0</ele><time>2026-04-05T15:36:14.814Z</time></trkpt><trkpt lat="45.8467083" lon="9.075485"><ele>275.0</ele><time>2026-04-05T15:36:15.814Z</time></trkpt><trkpt lat="45.84665" lon="9.0753767"><ele>275.0</ele><time>2026-04-05T15:36:16.813Z</time></trkpt><trkpt lat="45.846585" lon="9.0752617"><ele>275.0</ele><time>2026-04-05T15:36:17.814Z</time></trkpt><trkpt lat="45.84652" lon="9.07517"><ele>275.0</ele><time>2026-04-05T15:36:18.813Z</time></trkpt><trkpt lat="45.8464517" lon="9.0751"><ele>275.0</ele><time>2026-04-05T15:36:19.814Z</time></trkpt><trkpt lat="45.846375" lon="9.0750533"><ele>275.0</ele><time>2026-04-05T15:36:20.813Z</time></trkpt><trkpt lat="45.8462983" lon="9.0750467"><ele>275.0</ele><time>2026-04-05T15:36:21.813Z</time></trkpt><trkpt lat="45.8462167" lon="9.07508"><ele>275.0</ele><time>2026-04-05T15:36:22.814Z</time></trkpt><trkpt lat="45.84615" lon="9.0751283"><ele>275.0</ele><time>2026-04-05T15:36:23.813Z</time></trkpt><trkpt lat="45.8460967" lon="9.0751833"><ele>275.0</ele><time>2026-04-05T15:36:24.813Z</time></trkpt><trkpt lat="45.8460283" lon="9.0752917"><ele>275.0</ele><time>2026-04-05T15:36:26.813Z</time></trkpt><trkpt lat="45.845945" lon="9.075365"><ele>275.0</ele><time>2026-04-05T15:36:28.813Z</time></trkpt><trkpt lat="45.8458867" lon="9.0754"><ele>275.0</ele><time>2026-04-05T15:36:30.813Z</time></trkpt><trkpt lat="45.8458233" lon="9.0754417"><ele>275.0</ele><time>2026-04-05T15:36:32.813Z</time></trkpt><trkpt lat="45.8457633" lon="9.0754033"><ele>275.0</ele><time>2026-04-05T15:36:34.812Z</time></trkpt><trkpt lat="45.8457917" lon="9.0753133"><ele>275.0</ele><time>2026-04-05T15:36:36.813Z</time></trkpt><trkpt lat="45.8459017" lon="9.0752833"><ele>275.0</ele><time>2026-04-05T15:36:38.812Z</time></trkpt><trkpt lat="45.8460167" lon="9.075195"><ele>275.0</ele><time>2026-04-05T15:36:40.812Z</time></trkpt><trkpt lat="45.8460667" lon="9.0751167"><ele>275.0</ele><time>2026-04-05T15:36:41.812Z</time></trkpt><trkpt lat="45.8461217" lon="9.0750017"><ele>275.0</ele><time>2026-04-05T15:36:42.812Z</time></trkpt><trkpt lat="45.8462017" lon="9.0748467"><ele>278.4</ele><time>2026-04-05T15:36:43.812Z</time></trkpt><trkpt lat="45.8462717" lon="9.0747083"><ele>281.8</ele><time>2026-04-05T15:36:44.812Z</time></trkpt><trkpt lat="45.8463383" lon="9.0746033"><ele>285.2</ele><time>2026-04-05T15:36:45.812Z</time></trkpt><trkpt lat="45.8463967" lon="9.0745317"><ele>288.6</ele><time>2026-04-05T15:36:46.812Z</time></trkpt><trkpt lat="45.8464583" lon="9.0744933"><ele>292.0</ele><time>2026-04-05T15:36:47.812Z</time></trkpt><trkpt lat="45.8465483" lon="9.0745233"><ele>292.0</ele><time>2026-04-05T15:36:49.812Z</time></trkpt><trkpt lat="45.8466533" lon="9.0745967"><ele>292.0</ele><time>2026-04-05T15:36:51.812Z</time></trkpt><trkpt lat="45.8467117" lon="9.0746417"><ele>292.0</ele><time>2026-04-05T15:36:52.812Z</time></trkpt><trkpt lat="45.8467767" lon="9.0747"><ele>292.0</ele><time>2026-04-05T15:36:53.812Z</time></trkpt><trkpt lat="45.84684" lon="9.0747567"><ele>292.0</ele><time>2026-04-05T15:36:54.812Z</time></trkpt><trkpt lat="45.8469133" lon="9.0748233"><ele>292.0</ele><time>2026-04-05T15:36:55.812Z</time></trkpt><trkpt lat="45.8469867" lon="9.074885"><ele>292.2857142857143</ele><time>2026-04-05T15:36:56.812Z</time></trkpt><trkpt lat="45.8470533" lon="9.0749383"><ele>292.57142857142856</ele><time>2026-04-05T15:36:57.812Z</time></trkpt><trkpt lat="45.8471167" lon="9.0749917"><ele>292.8571428571429</ele><time>2026-04-05T15:36:58.813Z</time></trkpt><trkpt lat="45.8471833" lon="9.0750433"><ele>293.1428571428571</ele><time>2026-04-05T15:36:59.812Z</time></trkpt><trkpt lat="45.8472533" lon="9.0750767"><ele>293.42857142857144</ele><time>2026-04-05T15:37:00.812Z</time></trkpt><trkpt lat="45.847325" lon="9.0750917"><ele>293.7142857142857</ele><time>2026-04-05T15:37:01.812Z</time></trkpt><trkpt lat="45.8473983" lon="9.0750767"><ele>294.0</ele><time>2026-04-05T15:37:02.813Z</time></trkpt><trkpt lat="45.847505" lon="9.0750383"><ele>294.0</ele><time>2026-04-05T15:37:04.812Z</time></trkpt><trkpt lat="45.8475967" lon="9.075085"><ele>294.0</ele><time>2026-04-05T15:37:06.812Z</time></trkpt><trkpt lat="45.8476417" lon="9.0751517"><ele>294.0</ele><time>2026-04-05T15:37:07.812Z</time></trkpt><trkpt lat="45.8476833" lon="9.0752383"><ele>294.0</ele><time>2026-04-05T15:37:08.812Z</time></trkpt><trkpt lat="45.847725" lon="9.0753367"><ele>294.0</ele><time>2026-04-05T15:37:09.812Z</time></trkpt><trkpt lat="45.8477683" lon="9.0754483"><ele>294.0</ele><time>2026-04-05T15:37:10.812Z</time></trkpt><trkpt lat="45.8477983" lon="9.0755733"><ele>299.0</ele><time>2026-04-05T15:37:11.812Z</time></trkpt><trkpt lat="45.8478017" lon="9.0757133"><ele>304.0</ele><time>2026-04-05T15:37:12.813Z</time></trkpt><trkpt lat="45.847795" lon="9.075865"><ele>309.0</ele><time>2026-04-05T15:37:13.812Z</time></trkpt><trkpt lat="45.8477767" lon="9.0760067"><ele>314.0</ele><time>2026-04-05T15:37:14.812Z</time></trkpt><trkpt lat="45.8477633" lon="9.076155"><ele>319.0</ele><time>2026-04-05T15:37:15.812Z</time></trkpt><trkpt lat="45.8477483" lon="9.0763"><ele>320.4</ele><time>2026-04-05T15:37:16.812Z</time></trkpt><trkpt lat="45.8477367" lon="9.0764333"><ele>321.79999999999995</ele><time>2026-04-05T15:37:17.812Z</time></trkpt><trkpt lat="45.8477267" lon="9.0765783"><ele>323.20000000000005</ele><time>2026-04-05T15:37:18.812Z</time></trkpt><trkpt lat="45.84772" lon="9.0767267"><ele>324.6</ele><time>2026-04-05T15:37:19.812Z</time></trkpt><trkpt lat="45.8477183" lon="9.0768883"><ele>326.0</ele><time>2026-04-05T15:37:20.813Z</time></trkpt><trkpt lat="45.8477083" lon="9.0770633"><ele>327.0</ele><time>2026-04-05T15:37:21.812Z</time></trkpt><trkpt lat="45.84769" lon="9.077245"><ele>328.0</ele><time>2026-04-05T15:37:22.812Z</time></trkpt><trkpt lat="45.847675" lon="9.0774117"><ele>329.0</ele><time>2026-04-05T15:37:23.812Z</time></trkpt><trkpt lat="45.8476567" lon="9.0775667"><ele>330.0</ele><time>2026-04-05T15:37:24.812Z</time></trkpt><trkpt lat="45.8476483" lon="9.0777233"><ele>330.8</ele><time>2026-04-05T15:37:25.812Z</time></trkpt><trkpt lat="45.8476333" lon="9.0778783"><ele>331.6</ele><time>2026-04-05T15:37:26.812Z</time></trkpt><trkpt lat="45.847625" lon="9.0780383"><ele>332.4</ele><time>2026-04-05T15:37:27.812Z</time></trkpt><trkpt lat="45.8476133" lon="9.0781933"><ele>333.2</ele><time>2026-04-05T15:37:28.812Z</time></trkpt><trkpt lat="45.8475983" lon="9.0783483"><ele>334.0</ele><time>2026-04-05T15:37:29.812Z</time></trkpt><trkpt lat="45.8475617" lon="9.078495"><ele>328.2</ele><time>2026-04-05T15:37:30.812Z</time></trkpt><trkpt lat="45.8475183" lon="9.07863"><ele>322.4</ele><time>2026-04-05T15:37:31.812Z</time></trkpt><trkpt lat="45.8474867" lon="9.0787717"><ele>316.6</ele><time>2026-04-05T15:37:32.812Z</time></trkpt><trkpt lat="45.84746" lon="9.0789167"><ele>310.8</ele><time>2026-04-05T15:37:33.813Z</time></trkpt><trkpt lat="45.8474433" lon="9.0790817"><ele>305.0</ele><time>2026-04-05T15:37:34.812Z</time></trkpt><trkpt lat="45.8474433" lon="9.0792617"><ele>305.0</ele><time>2026-04-05T15:37:35.812Z</time></trkpt><trkpt lat="45.84744" lon="9.079435"><ele>305.0</ele><time>2026-04-05T15:37:36.812Z</time></trkpt><trkpt lat="45.8474417" lon="9.079605"><ele>305.0</ele><time>2026-04-05T15:37:37.812Z</time></trkpt><trkpt lat="45.8474467" lon="9.0797633"><ele>305.0</ele><time>2026-04-05T15:37:38.812Z</time></trkpt><trkpt lat="45.8474533" lon="9.0799067"><ele>305.4</ele><time>2026-04-05T15:37:39.812Z</time></trkpt><trkpt lat="45.847455" lon="9.080045"><ele>305.8</ele><time>2026-04-05T15:37:40.813Z</time></trkpt><trkpt lat="45.847455" lon="9.0801833"><ele>306.2</ele><time>2026-04-05T15:37:41.813Z</time></trkpt><trkpt lat="45.847455" lon="9.080315"><ele>306.6</ele><time>2026-04-05T15:37:42.812Z</time></trkpt><trkpt lat="45.8474533" lon="9.0804383"><ele>307.0</ele><time>2026-04-05T15:37:43.812Z</time></trkpt><trkpt lat="45.847445" lon="9.0805583"><ele>307.0</ele><time>2026-04-05T15:37:44.812Z</time></trkpt><trkpt lat="45.8474383" lon="9.0806667"><ele>307.0</ele><time>2026-04-05T15:37:45.812Z</time></trkpt><trkpt lat="45.8474367" lon="9.0807683"><ele>307.0</ele><time>2026-04-05T15:37:46.813Z</time></trkpt><trkpt lat="45.8474433" lon="9.0808617"><ele>307.0</ele><time>2026-04-05T15:37:47.812Z</time></trkpt><trkpt lat="45.84745" lon="9.0809933"><ele>307.0</ele><time>2026-04-05T15:37:49.812Z</time></trkpt><trkpt lat="45.8475117" lon="9.0810467"><ele>307.0</ele><time>2026-04-05T15:37:52.813Z</time></trkpt><trkpt lat="45.8475367" lon="9.0809233"><ele>307.0</ele><time>2026-04-05T15:37:54.812Z</time></trkpt><trkpt lat="45.84753" lon="9.0808167"><ele>307.0</ele><time>2026-04-05T15:37:55.812Z</time></trkpt><trkpt lat="45.8475217" lon="9.0806967"><ele>307.0</ele><time>2026-04-05T15:37:56.813Z</time></trkpt><trkpt lat="45.84754" lon="9.0805417"><ele>307.0</ele><time>2026-04-05T15:37:57.813Z</time></trkpt><trkpt lat="45.8475683" lon="9.080375"><ele>307.0</ele><time>2026-04-05T15:37:58.812Z</time></trkpt><trkpt lat="45.8476017" lon="9.0802083"><ele>313.8333333333333</ele><time>2026-04-05T15:37:59.812Z</time></trkpt><trkpt lat="45.8476283" lon="9.08005"><ele>320.66666666666663</ele><time>2026-04-05T15:38:00.812Z</time></trkpt><trkpt lat="45.8476417" lon="9.0799167"><ele>327.5</ele><time>2026-04-05T15:38:01.812Z</time></trkpt><trkpt lat="45.8476483" lon="9.079795"><ele>334.3333333333333</ele><time>2026-04-05T15:38:02.813Z</time></trkpt><trkpt lat="45.8476633" lon="9.0796817"><ele>341.1666666666667</ele><time>2026-04-05T15:38:03.813Z</time></trkpt><trkpt lat="45.8476883" lon="9.0795867"><ele>348.0</ele><time>2026-04-05T15:38:04.813Z</time></trkpt><trkpt lat="45.847725" lon="9.0794933"><ele>348.0</ele><time>2026-04-05T15:38:05.812Z</time></trkpt><trkpt lat="45.8477583" lon="9.0793917"><ele>348.0</ele><time>2026-04-05T15:38:06.812Z</time></trkpt><trkpt lat="45.847795" lon="9.0792867"><ele>348.0</ele><time>2026-04-05T15:38:07.812Z</time></trkpt><trkpt lat="45.8478317" lon="9.079185"><ele>348.0</ele><time>2026-04-05T15:38:08.812Z</time></trkpt><trkpt lat="45.84787" lon="9.0791017"><ele>348.0</ele><time>2026-04-05T15:38:09.813Z</time></trkpt><trkpt lat="45.847905" lon="9.0789667"><ele>348.0</ele><time>2026-04-05T15:38:11.813Z</time></trkpt><trkpt lat="45.8479317" lon="9.0788517"><ele>346.57142857142856</ele><time>2026-04-05T15:38:13.813Z</time></trkpt><trkpt lat="45.8479567" lon="9.0787367"><ele>345.14285714285717</ele><time>2026-04-05T15:38:16.812Z</time></trkpt><trkpt lat="45.8480033" lon="9.0786733"><ele>343.7142857142857</ele><time>2026-04-05T15:38:19.812Z</time></trkpt><trkpt lat="45.848065" lon="9.0785817"><ele>342.2857142857143</ele><time>2026-04-05T15:38:25.812Z</time></trkpt><trkpt lat="45.8481133" lon="9.0785233"><ele>340.85714285714283</ele><time>2026-04-05T15:38:27.812Z</time></trkpt><trkpt lat="45.8481833" lon="9.078495"><ele>339.42857142857144</ele><time>2026-04-05T15:38:30.813Z</time></trkpt><trkpt lat="45.848185" lon="9.0785867"><ele>338.0</ele><time>2026-04-05T15:38:42.812Z</time></trkpt><trkpt lat="45.8480933" lon="9.0786717"><ele>338.0</ele><time>2026-04-05T15:38:44.812Z</time></trkpt><trkpt lat="45.8480367" lon="9.0787467"><ele>338.0</ele><time>2026-04-05T15:38:45.812Z</time></trkpt><trkpt lat="45.8480033" lon="9.0788567"><ele>338.0</ele><time>2026-04-05T15:38:46.812Z</time></trkpt><trkpt lat="45.8480067" lon="9.078995"><ele>338.0</ele><time>2026-04-05T15:38:47.813Z</time></trkpt><trkpt lat="45.848015" lon="9.07915"><ele>338.0</ele><time>2026-04-05T15:38:48.812Z</time></trkpt><trkpt lat="45.8480167" lon="9.0793033"><ele>340.0</ele><time>2026-04-05T15:38:49.812Z</time></trkpt><trkpt lat="45.8480183" lon="9.0794417"><ele>342.0</ele><time>2026-04-05T15:38:50.813Z</time></trkpt><trkpt lat="45.84802" lon="9.0795867"><ele>344.0</ele><time>2026-04-05T15:38:51.812Z</time></trkpt><trkpt lat="45.8480183" lon="9.07973"><ele>346.0</ele><time>2026-04-05T15:38:52.812Z</time></trkpt><trkpt lat="45.84801" lon="9.0798583"><ele>348.0</ele><time>2026-04-05T15:38:53.812Z</time></trkpt><trkpt lat="45.8479967" lon="9.07997"><ele>349.0</ele><time>2026-04-05T15:38:54.813Z</time></trkpt><trkpt lat="45.8479817" lon="9.0800733"><ele>350.0</ele><time>2026-04-05T15:38:55.812Z</time></trkpt><trkpt lat="45.8479717" lon="9.0801733"><ele>351.0</ele><time>2026-04-05T15:38:56.812Z</time></trkpt><trkpt lat="45.847965" lon="9.0802717"><ele>352.0</ele><time>2026-04-05T15:38:57.813Z</time></trkpt><trkpt lat="45.847965" lon="9.0803667"><ele>353.0</ele><time>2026-04-05T15:38:58.813Z</time></trkpt><trkpt lat="45.8479533" lon="9.0804733"><ele>354.0</ele><time>2026-04-05T15:38:59.812Z</time></trkpt><trkpt lat="45.847945" lon="9.0805717"><ele>355.0</ele><time>2026-04-05T15:39:00.813Z</time></trkpt><trkpt lat="45.8479467" lon="9.0806633"><ele>355.0</ele><time>2026-04-05T15:39:01.812Z</time></trkpt><trkpt lat="45.8479267" lon="9.0808167"><ele>355.0</ele><time>2026-04-05T15:39:03.813Z</time></trkpt><trkpt lat="45.847895" lon="9.0809633"><ele>355.0</ele><time>2026-04-05T15:39:06.813Z</time></trkpt><trkpt lat="45.8479367" lon="9.081045"><ele>355.0</ele><time>2026-04-05T15:39:09.812Z</time></trkpt><trkpt lat="45.8479833" lon="9.0809633"><ele>355.0</ele><time>2026-04-05T15:39:11.812Z</time></trkpt><trkpt lat="45.8479917" lon="9.080865"><ele>355.0</ele><time>2026-04-05T15:39:12.812Z</time></trkpt><trkpt lat="45.8480083" lon="9.0807417"><ele>355.0</ele><time>2026-04-05T15:39:13.813Z</time></trkpt><trkpt lat="45.8480417" lon="9.0806033"><ele>355.0</ele><time>2026-04-05T15:39:14.812Z</time></trkpt><trkpt lat="45.848095" lon="9.0804317"><ele>355.0</ele><time>2026-04-05T15:39:15.812Z</time></trkpt><trkpt lat="45.8481717" lon="9.080255"><ele>355.0</ele><time>2026-04-05T15:39:16.813Z</time></trkpt><trkpt lat="45.84825" lon="9.0800783"><ele>353.25</ele><time>2026-04-05T15:39:17.813Z</time></trkpt><trkpt lat="45.848315" lon="9.079895"><ele>351.5</ele><time>2026-04-05T15:39:18.812Z</time></trkpt><trkpt lat="45.8483583" lon="9.0797033"><ele>349.75</ele><time>2026-04-05T15:39:19.812Z</time></trkpt><trkpt lat="45.8483667" lon="9.0795183"><ele>348.0</ele><time>2026-04-05T15:39:20.813Z</time></trkpt><trkpt lat="45.84837" lon="9.079355"><ele>348.0</ele><time>2026-04-05T15:39:21.812Z</time></trkpt><trkpt lat="45.8483917" lon="9.079215"><ele>348.0</ele><time>2026-04-05T15:39:22.812Z</time></trkpt><trkpt lat="45.84844" lon="9.079095"><ele>348.0</ele><time>2026-04-05T15:39:23.812Z</time></trkpt><trkpt lat="45.8485" lon="9.0789633"><ele>348.0</ele><time>2026-04-05T15:39:24.812Z</time></trkpt><trkpt lat="45.8485633" lon="9.0788283"><ele>348.0</ele><time>2026-04-05T15:39:25.813Z</time></trkpt><trkpt lat="45.8486167" lon="9.0786967"><ele>352.3333333333333</ele><time>2026-04-05T15:39:26.813Z</time></trkpt><trkpt lat="45.8486667" lon="9.07858"><ele>356.6666666666667</ele><time>2026-04-05T15:39:27.812Z</time></trkpt><trkpt lat="45.84871" lon="9.0784933"><ele>361.0</ele><time>2026-04-05T15:39:28.812Z</time></trkpt><trkpt lat="45.8487717" lon="9.0784133"><ele>365.33333333333337</ele><time>2026-04-05T15:39:30.812Z</time></trkpt><trkpt lat="45.8488133" lon="9.0783233"><ele>369.6666666666667</ele><time>2026-04-05T15:39:33.812Z</time></trkpt><trkpt lat="45.8488133" lon="9.078435"><ele>374.0</ele><time>2026-04-05T15:39:37.813Z</time></trkpt><trkpt lat="45.8487267" lon="9.0785783"><ele>374.0</ele><time>2026-04-05T15:39:39.812Z</time></trkpt><trkpt lat="45.8486867" lon="9.0786883"><ele>374.0</ele><time>2026-04-05T15:39:40.812Z</time></trkpt><trkpt lat="45.8486433" lon="9.078815"><ele>374.0</ele><time>2026-04-05T15:39:41.812Z</time></trkpt><trkpt lat="45.8486083" lon="9.0789683"><ele>374.0</ele><time>2026-04-05T15:39:42.812Z</time></trkpt><trkpt lat="45.8485817" lon="9.0791283"><ele>374.0</ele><time>2026-04-05T15:39:43.813Z</time></trkpt><trkpt lat="45.8485633" lon="9.0792917"><ele>378.0</ele><time>2026-04-05T15:39:44.812Z</time></trkpt><trkpt lat="45.8485533" lon="9.079455"><ele>382.0</ele><time>2026-04-05T15:39:45.812Z</time></trkpt><trkpt lat="45.848555" lon="9.0796133"><ele>386.0</ele><time>2026-04-05T15:39:46.812Z</time></trkpt><trkpt lat="45.8485667" lon="9.07978"><ele>390.0</ele><time>2026-04-05T15:39:47.812Z</time></trkpt><trkpt lat="45.8485883" lon="9.0799517"><ele>391.6</ele><time>2026-04-05T15:39:48.812Z</time></trkpt><trkpt lat="45.8486233" lon="9.0801183"><ele>393.2</ele><time>2026-04-05T15:39:49.812Z</time></trkpt><trkpt lat="45.8486467" lon="9.0802817"><ele>394.79999999999995</ele><time>2026-04-05T15:39:50.812Z</time></trkpt><trkpt lat="45.8486483" lon="9.0804233"><ele>396.4</ele><time>2026-04-05T15:39:51.813Z</time></trkpt><trkpt lat="45.8486317" lon="9.0805417"><ele>398.0</ele><time>2026-04-05T15:39:52.812Z</time></trkpt><trkpt lat="45.8486133" lon="9.0806283"><ele>397.99999999999994</ele><time>2026-04-05T15:39:53.812Z</time></trkpt><trkpt lat="45.8485933" lon="9.0807367"><ele>398.0</ele><time>2026-04-05T15:39:55.812Z</time></trkpt><trkpt lat="45.84858" lon="9.080835"><ele>398.0</ele><time>2026-04-05T15:40:01.812Z</time></trkpt><trkpt lat="45.8485833" lon="9.08099"><ele>398.0</ele><time>2026-04-05T15:40:03.812Z</time></trkpt><trkpt lat="45.8485767" lon="9.0810883"><ele>397.99999999999994</ele><time>2026-04-05T15:40:04.812Z</time></trkpt><trkpt lat="45.8485733" lon="9.0812"><ele>398.0</ele><time>2026-04-05T15:40:05.812Z</time></trkpt><trkpt lat="45.8485717" lon="9.0813267"><ele>400.0</ele><time>2026-04-05T15:40:06.812Z</time></trkpt><trkpt lat="45.8485683" lon="9.0814783"><ele>402.0</ele><time>2026-04-05T15:40:07.812Z</time></trkpt><trkpt lat="45.848555" lon="9.0816583"><ele>404.0</ele><time>2026-04-05T15:40:08.812Z</time></trkpt><trkpt lat="45.84854" lon="9.0818417"><ele>406.0</ele><time>2026-04-05T15:40:09.812Z</time></trkpt><trkpt lat="45.8485267" lon="9.0820183"><ele>408.0</ele><time>2026-04-05T15:40:10.812Z</time></trkpt><trkpt lat="45.8484967" lon="9.0822017"><ele>410.0</ele><time>2026-04-05T15:40:11.812Z</time></trkpt><trkpt lat="45.84848" lon="9.0823817"><ele>412.0</ele><time>2026-04-05T15:40:12.812Z</time></trkpt><trkpt lat="45.8484517" lon="9.0825483"><ele>414.0</ele><time>2026-04-05T15:40:13.812Z</time></trkpt><trkpt lat="45.8484383" lon="9.0826917"><ele>414.6666666666667</ele><time>2026-04-05T15:40:14.812Z</time></trkpt><trkpt lat="45.84841" lon="9.0828133"><ele>415.33333333333337</ele><time>2026-04-05T15:40:15.812Z</time></trkpt><trkpt lat="45.8483867" lon="9.0828983"><ele>416.0</ele><time>2026-04-05T15:40:16.812Z</time></trkpt><trkpt lat="45.8483917" lon="9.083005"><ele>416.6666666666667</ele><time>2026-04-05T15:40:18.812Z</time></trkpt><trkpt lat="45.8484667" lon="9.0829467"><ele>417.33333333333337</ele><time>2026-04-05T15:40:20.812Z</time></trkpt><trkpt lat="45.8485133" lon="9.08277"><ele>418.0</ele><time>2026-04-05T15:40:22.812Z</time></trkpt><trkpt lat="45.8485483" lon="9.08264"><ele>418.0</ele><time>2026-04-05T15:40:23.812Z</time></trkpt><trkpt lat="45.848595" lon="9.08249"><ele>418.0</ele><time>2026-04-05T15:40:24.812Z</time></trkpt><trkpt lat="45.8486583" lon="9.0823433"><ele>418.0</ele><time>2026-04-05T15:40:25.812Z</time></trkpt><trkpt lat="45.848725" lon="9.0821933"><ele>418.0</ele><time>2026-04-05T15:40:26.812Z</time></trkpt><trkpt lat="45.84878" lon="9.0820583"><ele>417.0</ele><time>2026-04-05T15:40:27.812Z</time></trkpt><trkpt lat="45.8488317" lon="9.0819283"><ele>416.0</ele><time>2026-04-05T15:40:28.812Z</time></trkpt><trkpt lat="45.8488633" lon="9.0817783"><ele>415.0</ele><time>2026-04-05T15:40:29.812Z</time></trkpt><trkpt lat="45.848885" lon="9.0816083"><ele>414.0</ele><time>2026-04-05T15:40:30.813Z</time></trkpt><trkpt lat="45.848905" lon="9.0814317"><ele>412.0</ele><time>2026-04-05T15:40:31.812Z</time></trkpt><trkpt lat="45.84892" lon="9.0812633"><ele>410.0</ele><time>2026-04-05T15:40:32.812Z</time></trkpt><trkpt lat="45.8489333" lon="9.0811083"><ele>408.0</ele><time>2026-04-05T15:40:33.812Z</time></trkpt><trkpt lat="45.8489667" lon="9.0809533"><ele>406.0</ele><time>2026-04-05T15:40:34.812Z</time></trkpt><trkpt lat="45.8490217" lon="9.080785"><ele>404.0</ele><time>2026-04-05T15:40:35.813Z</time></trkpt><trkpt lat="45.8490667" lon="9.0806117"><ele>402.0</ele><time>2026-04-05T15:40:36.813Z</time></trkpt><trkpt lat="45.849105" lon="9.0804167"><ele>400.0</ele><time>2026-04-05T15:40:37.812Z</time></trkpt><trkpt lat="45.84917" lon="9.0802217"><ele>398.0</ele><time>2026-04-05T15:40:38.813Z</time></trkpt><trkpt lat="45.8492417" lon="9.0800517"><ele>402.5</ele><time>2026-04-05T15:40:39.812Z</time></trkpt><trkpt lat="45.8493" lon="9.07987"><ele>407.0</ele><time>2026-04-05T15:40:40.812Z</time></trkpt><trkpt lat="45.84935" lon="9.0796733"><ele>411.5</ele><time>2026-04-05T15:40:41.812Z</time></trkpt><trkpt lat="45.8493917" lon="9.0795"><ele>416.0</ele><time>2026-04-05T15:40:42.812Z</time></trkpt><trkpt lat="45.8494033" lon="9.0793667"><ele>416.0</ele><time>2026-04-05T15:40:43.812Z</time></trkpt><trkpt lat="45.84941" lon="9.0792667"><ele>416.0</ele><time>2026-04-05T15:40:44.812Z</time></trkpt><trkpt lat="45.84946" lon="9.0791983"><ele>416.0</ele><time>2026-04-05T15:40:46.812Z</time></trkpt><trkpt lat="45.84951" lon="9.0793183"><ele>416.0</ele><time>2026-04-05T15:40:48.812Z</time></trkpt><trkpt lat="45.8495367" lon="9.0794683"><ele>416.0</ele><time>2026-04-05T15:40:49.813Z</time></trkpt><trkpt lat="45.8495533" lon="9.0796767"><ele>416.0</ele><time>2026-04-05T15:40:50.813Z</time></trkpt><trkpt lat="45.8495533" lon="9.0798817"><ele>416.0</ele><time>2026-04-05T15:40:51.813Z</time></trkpt><trkpt lat="45.84954" lon="9.08006"><ele>416.0</ele><time>2026-04-05T15:40:52.812Z</time></trkpt><trkpt lat="45.84949" lon="9.080235"><ele>416.0</ele><time>2026-04-05T15:40:53.812Z</time></trkpt><trkpt lat="45.8494233" lon="9.0804033"><ele>413.5</ele><time>2026-04-05T15:40:54.812Z</time></trkpt><trkpt lat="45.849365" lon="9.0805617"><ele>411.0</ele><time>2026-04-05T15:40:55.812Z</time></trkpt><trkpt lat="45.8493083" lon="9.0806933"><ele>408.5</ele><time>2026-04-05T15:40:56.812Z</time></trkpt><trkpt lat="45.84928" lon="9.08084"><ele>406.0</ele><time>2026-04-05T15:40:57.812Z</time></trkpt><trkpt lat="45.8492583" lon="9.0810083"><ele>406.0</ele><time>2026-04-05T15:40:58.813Z</time></trkpt><trkpt lat="45.8492433" lon="9.08118"><ele>406.0</ele><time>2026-04-05T15:40:59.813Z</time></trkpt><trkpt lat="45.8492283" lon="9.0813717"><ele>406.0</ele><time>2026-04-05T15:41:00.813Z</time></trkpt><trkpt lat="45.8492183" lon="9.08159"><ele>406.0</ele><time>2026-04-05T15:41:01.813Z</time></trkpt><trkpt lat="45.8492167" lon="9.0818267"><ele>408.6666666666667</ele><time>2026-04-05T15:41:02.812Z</time></trkpt><trkpt lat="45.8492033" lon="9.0820533"><ele>411.33333333333337</ele><time>2026-04-05T15:41:03.812Z</time></trkpt><trkpt lat="45.84919" lon="9.0822933"><ele>414.0</ele><time>2026-04-05T15:41:04.813Z</time></trkpt><trkpt lat="45.8491783" lon="9.08251"><ele>415.0</ele><time>2026-04-05T15:41:05.812Z</time></trkpt><trkpt lat="45.8491683" lon="9.08271"><ele>416.0</ele><time>2026-04-05T15:41:06.812Z</time></trkpt><trkpt lat="45.8491533" lon="9.0828867"><ele>417.0</ele><time>2026-04-05T15:41:07.812Z</time></trkpt><trkpt lat="45.849145" lon="9.0830517"><ele>418.0</ele><time>2026-04-05T15:41:08.812Z</time></trkpt><trkpt lat="45.8491517" lon="9.0832233"><ele>419.0</ele><time>2026-04-05T15:41:09.812Z</time></trkpt><trkpt lat="45.8491783" lon="9.08339"><ele>420.0</ele><time>2026-04-05T15:41:10.812Z</time></trkpt><trkpt lat="45.8492183" lon="9.0835517"><ele>421.0</ele><time>2026-04-05T15:41:11.812Z</time></trkpt><trkpt lat="45.849265" lon="9.083695"><ele>422.0</ele><time>2026-04-05T15:41:12.812Z</time></trkpt><trkpt lat="45.84933" lon="9.0838433"><ele>424.75</ele><time>2026-04-05T15:41:13.812Z</time></trkpt><trkpt lat="45.849405" lon="9.0839867"><ele>427.5</ele><time>2026-04-05T15:41:14.813Z</time></trkpt><trkpt lat="45.8494833" lon="9.0841167"><ele>430.25</ele><time>2026-04-05T15:41:15.813Z</time></trkpt><trkpt lat="45.849565" lon="9.084215"><ele>433.0</ele><time>2026-04-05T15:41:16.812Z</time></trkpt><trkpt lat="45.8496517" lon="9.084305"><ele>433.0</ele><time>2026-04-05T15:41:17.812Z</time></trkpt><trkpt lat="45.8497367" lon="9.084365"><ele>432.99999999999994</ele><time>2026-04-05T15:41:18.812Z</time></trkpt><trkpt lat="45.84984" lon="9.0844017"><ele>432.99999999999994</ele><time>2026-04-05T15:41:19.813Z</time></trkpt><trkpt lat="45.8499367" lon="9.0844133"><ele>433.0</ele><time>2026-04-05T15:41:20.812Z</time></trkpt><trkpt lat="45.8500317" lon="9.0844067"><ele>433.0</ele><time>2026-04-05T15:41:21.812Z</time></trkpt><trkpt lat="45.8501183" lon="9.084375"><ele>434.0</ele><time>2026-04-05T15:41:22.812Z</time></trkpt><trkpt lat="45.8501867" lon="9.0843117"><ele>434.99999999999994</ele><time>2026-04-05T15:41:23.812Z</time></trkpt><trkpt lat="45.8502317" lon="9.0842117"><ele>435.99999999999994</ele><time>2026-04-05T15:41:24.812Z</time></trkpt><trkpt lat="45.8502733" lon="9.0840767"><ele>437.0</ele><time>2026-04-05T15:41:25.812Z</time></trkpt><trkpt lat="45.8503217" lon="9.0839383"><ele>438.0</ele><time>2026-04-05T15:41:26.812Z</time></trkpt><trkpt lat="45.850375" lon="9.0837933"><ele>439.2</ele><time>2026-04-05T15:41:27.813Z</time></trkpt><trkpt lat="45.8504417" lon="9.083645"><ele>440.4</ele><time>2026-04-05T15:41:28.813Z</time></trkpt><trkpt lat="45.8505033" lon="9.0835"><ele>441.59999999999997</ele><time>2026-04-05T15:41:29.812Z</time></trkpt><trkpt lat="45.8505617" lon="9.0833833"><ele>442.79999999999995</ele><time>2026-04-05T15:41:30.812Z</time></trkpt><trkpt lat="45.8506233" lon="9.0832983"><ele>444.0</ele><time>2026-04-05T15:41:31.813Z</time></trkpt><trkpt lat="45.8506983" lon="9.083245"><ele>444.0</ele><time>2026-04-05T15:41:32.812Z</time></trkpt><trkpt lat="45.85078" lon="9.08324"><ele>444.0</ele><time>2026-04-05T15:41:33.812Z</time></trkpt><trkpt lat="45.850865" lon="9.0832817"><ele>444.0</ele><time>2026-04-05T15:41:34.812Z</time></trkpt><trkpt lat="45.8509517" lon="9.0833383"><ele>444.0</ele><time>2026-04-05T15:41:35.813Z</time></trkpt><trkpt lat="45.8510433" lon="9.0834233"><ele>444.0</ele><time>2026-04-05T15:41:36.812Z</time></trkpt><trkpt lat="45.851125" lon="9.0835167"><ele>446.0</ele><time>2026-04-05T15:41:37.812Z</time></trkpt><trkpt lat="45.8512117" lon="9.083605"><ele>448.0</ele><time>2026-04-05T15:41:38.812Z</time></trkpt><trkpt lat="45.851295" lon="9.0836983"><ele>450.0</ele><time>2026-04-05T15:41:39.812Z</time></trkpt><trkpt lat="45.851375" lon="9.08379"><ele>452.0</ele><time>2026-04-05T15:41:40.812Z</time></trkpt><trkpt lat="45.8514567" lon="9.0838833"><ele>454.0</ele><time>2026-04-05T15:41:41.812Z</time></trkpt><trkpt lat="45.8515367" lon="9.0839683"><ele>454.0</ele><time>2026-04-05T15:41:42.812Z</time></trkpt><trkpt lat="45.851615" lon="9.0840517"><ele>454.0</ele><time>2026-04-05T15:41:43.812Z</time></trkpt><trkpt lat="45.8516967" lon="9.08413"><ele>454.0</ele><time>2026-04-05T15:41:44.812Z</time></trkpt><trkpt lat="45.8517833" lon="9.0841917"><ele>454.0</ele><time>2026-04-05T15:41:45.812Z</time></trkpt><trkpt lat="45.8518817" lon="9.0842533"><ele>454.0</ele><time>2026-04-05T15:41:46.812Z</time></trkpt><trkpt lat="45.85199" lon="9.0843017"><ele>456.4</ele><time>2026-04-05T15:41:47.813Z</time></trkpt><trkpt lat="45.8521017" lon="9.0843617"><ele>458.79999999999995</ele><time>2026-04-05T15:41:48.813Z</time></trkpt><trkpt lat="45.85221" lon="9.0844233"><ele>461.20000000000005</ele><time>2026-04-05T15:41:49.812Z</time></trkpt><trkpt lat="45.8523067" lon="9.0844933"><ele>463.6</ele><time>2026-04-05T15:41:50.813Z</time></trkpt><trkpt lat="45.8523867" lon="9.08457"><ele>466.0</ele><time>2026-04-05T15:41:51.812Z</time></trkpt><trkpt lat="45.8524483" lon="9.08464"><ele>466.0</ele><time>2026-04-05T15:41:52.812Z</time></trkpt><trkpt lat="45.852505" lon="9.0846983"><ele>466.0</ele><time>2026-04-05T15:41:53.813Z</time></trkpt><trkpt lat="45.852605" lon="9.084755"><ele>466.0</ele><time>2026-04-05T15:41:55.813Z</time></trkpt><trkpt lat="45.8526683" lon="9.08467"><ele>466.0</ele><time>2026-04-05T15:41:57.813Z</time></trkpt><trkpt lat="45.8526333" lon="9.084525"><ele>466.0</ele><time>2026-04-05T15:41:59.813Z</time></trkpt><trkpt lat="45.852565" lon="9.084415"><ele>466.0</ele><time>2026-04-05T15:42:00.812Z</time></trkpt><trkpt lat="45.8524767" lon="9.0842867"><ele>466.0</ele><time>2026-04-05T15:42:01.813Z</time></trkpt><trkpt lat="45.8523917" lon="9.0841483"><ele>466.0</ele><time>2026-04-05T15:42:02.812Z</time></trkpt><trkpt lat="45.8523183" lon="9.084015"><ele>466.0</ele><time>2026-04-05T15:42:03.812Z</time></trkpt><trkpt lat="45.852265" lon="9.083885"><ele>467.20000000000005</ele><time>2026-04-05T15:42:04.812Z</time></trkpt><trkpt lat="45.8522367" lon="9.0837733"><ele>468.40000000000003</ele><time>2026-04-05T15:42:05.813Z</time></trkpt><trkpt lat="45.85222" lon="9.0836467"><ele>469.6</ele><time>2026-04-05T15:42:06.812Z</time></trkpt><trkpt lat="45.8522233" lon="9.0834933"><ele>470.8</ele><time>2026-04-05T15:42:07.813Z</time></trkpt><trkpt lat="45.8522333" lon="9.0833317"><ele>472.0</ele><time>2026-04-05T15:42:08.812Z</time></trkpt><trkpt lat="45.8522433" lon="9.0831617"><ele>473.0</ele><time>2026-04-05T15:42:09.812Z</time></trkpt><trkpt lat="45.85225" lon="9.0829933"><ele>474.00000000000006</ele><time>2026-04-05T15:42:10.812Z</time></trkpt><trkpt lat="45.8522517" lon="9.08282"><ele>475.00000000000006</ele><time>2026-04-05T15:42:11.812Z</time></trkpt><trkpt lat="45.8522467" lon="9.0826717"><ele>476.0</ele><time>2026-04-05T15:42:12.813Z</time></trkpt><trkpt lat="45.8522383" lon="9.0825667"><ele>477.0</ele><time>2026-04-05T15:42:13.812Z</time></trkpt><trkpt lat="45.8522233" lon="9.08244"><ele>479.40000000000003</ele><time>2026-04-05T15:42:16.813Z</time></trkpt><trkpt lat="45.85221" lon="9.0823117"><ele>481.80000000000007</ele><time>2026-04-05T15:42:18.812Z</time></trkpt><trkpt lat="45.85221" lon="9.0821483"><ele>484.2</ele><time>2026-04-05T15:42:20.812Z</time></trkpt><trkpt lat="45.8522517" lon="9.0820317"><ele>486.6</ele><time>2026-04-05T15:42:22.813Z</time></trkpt><trkpt lat="45.8523483" lon="9.0820633"><ele>489.0</ele><time>2026-04-05T15:42:24.812Z</time></trkpt><trkpt lat="45.8524067" lon="9.0821417"><ele>489.0</ele><time>2026-04-05T15:42:25.813Z</time></trkpt><trkpt lat="45.8524767" lon="9.08225"><ele>489.0</ele><time>2026-04-05T15:42:26.812Z</time></trkpt><trkpt lat="45.8525483" lon="9.0823633"><ele>489.0</ele><time>2026-04-05T15:42:27.813Z</time></trkpt><trkpt lat="45.8526217" lon="9.0824717"><ele>489.0</ele><time>2026-04-05T15:42:28.812Z</time></trkpt><trkpt lat="45.8526983" lon="9.0825833"><ele>489.0</ele><time>2026-04-05T15:42:29.812Z</time></trkpt><trkpt lat="45.8527733" lon="9.0826933"><ele>495.5</ele><time>2026-04-05T15:42:30.812Z</time></trkpt><trkpt lat="45.8528483" lon="9.082805"><ele>502.0</ele><time>2026-04-05T15:42:31.812Z</time></trkpt><trkpt lat="45.85293" lon="9.0829283"><ele>508.5</ele><time>2026-04-05T15:42:32.812Z</time></trkpt><trkpt lat="45.8530117" lon="9.08306"><ele>515.0</ele><time>2026-04-05T15:42:33.812Z</time></trkpt><trkpt lat="45.85309" lon="9.0832033"><ele>512.0</ele><time>2026-04-05T15:42:34.812Z</time></trkpt><trkpt lat="45.85316" lon="9.083345"><ele>509.0</ele><time>2026-04-05T15:42:35.813Z</time></trkpt><trkpt lat="45.8532167" lon="9.08349"><ele>506.0</ele><time>2026-04-05T15:42:36.812Z</time></trkpt><trkpt lat="45.8532633" lon="9.0836267"><ele>503.0</ele><time>2026-04-05T15:42:37.812Z</time></trkpt><trkpt lat="45.85331" lon="9.0837633"><ele>500.0</ele><time>2026-04-05T15:42:38.812Z</time></trkpt><trkpt lat="45.8533533" lon="9.0838933"><ele>499.99999999999994</ele><time>2026-04-05T15:42:39.812Z</time></trkpt><trkpt lat="45.8534033" lon="9.0840167"><ele>500.0</ele><time>2026-04-05T15:42:40.812Z</time></trkpt><trkpt lat="45.853455" lon="9.0841267"><ele>500.0</ele><time>2026-04-05T15:42:41.812Z</time></trkpt><trkpt lat="45.8535033" lon="9.0842233"><ele>500.0</ele><time>2026-04-05T15:42:42.812Z</time></trkpt><trkpt lat="45.8535417" lon="9.084305"><ele>499.99999999999994</ele><time>2026-04-05T15:42:43.813Z</time></trkpt><trkpt lat="45.8536083" lon="9.0844167"><ele>500.0</ele><time>2026-04-05T15:42:45.812Z</time></trkpt><trkpt lat="45.8536783" lon="9.0843733"><ele>507.25</ele><time>2026-04-05T15:42:48.813Z</time></trkpt><trkpt lat="45.8536617" lon="9.084215"><ele>514.5</ele><time>2026-04-05T15:42:50.812Z</time></trkpt><trkpt lat="45.8536183" lon="9.0840867"><ele>521.75</ele><time>2026-04-05T15:42:51.812Z</time></trkpt><trkpt lat="45.8535883" lon="9.0839433"><ele>529.0</ele><time>2026-04-05T15:42:52.813Z</time></trkpt><trkpt lat="45.8535517" lon="9.0837417"><ele>533.0</ele><time>2026-04-05T15:42:53.813Z</time></trkpt><trkpt lat="45.85353" lon="9.083495"><ele>537.0</ele><time>2026-04-05T15:42:54.812Z</time></trkpt><trkpt lat="45.8535033" lon="9.083255"><ele>541.0</ele><time>2026-04-05T15:42:55.812Z</time></trkpt><trkpt lat="45.85347" lon="9.0830133"><ele>539.25</ele><time>2026-04-05T15:42:56.813Z</time></trkpt><trkpt lat="45.8534333" lon="9.08279"><ele>537.5</ele><time>2026-04-05T15:42:57.812Z</time></trkpt><trkpt lat="45.853395" lon="9.0826183"><ele>535.75</ele><time>2026-04-05T15:42:58.813Z</time></trkpt><trkpt lat="45.8533583" lon="9.082485"><ele>534.0</ele><time>2026-04-05T15:42:59.812Z</time></trkpt><trkpt lat="45.85333" lon="9.0823933"><ele>534.0</ele><time>2026-04-05T15:43:00.813Z</time></trkpt><trkpt lat="45.853325" lon="9.0822717"><ele>534.0</ele><time>2026-04-05T15:43:02.813Z</time></trkpt><trkpt lat="45.853405" lon="9.0822833"><ele>534.0</ele><time>2026-04-05T15:43:04.812Z</time></trkpt><trkpt lat="45.8534667" lon="9.082345"><ele>534.0</ele><time>2026-04-05T15:43:05.812Z</time></trkpt><trkpt lat="45.8535167" lon="9.08245"><ele>534.0</ele><time>2026-04-05T15:43:06.812Z</time></trkpt><trkpt lat="45.853575" lon="9.08257"><ele>534.0</ele><time>2026-04-05T15:43:07.812Z</time></trkpt><trkpt lat="45.8536233" lon="9.0827517"><ele>536.3333333333334</ele><time>2026-04-05T15:43:08.812Z</time></trkpt><trkpt lat="45.853665" lon="9.0829567"><ele>538.6666666666667</ele><time>2026-04-05T15:43:09.812Z</time></trkpt><trkpt lat="45.85372" lon="9.0831667"><ele>541.0</ele><time>2026-04-05T15:43:10.812Z</time></trkpt><trkpt lat="45.8537683" lon="9.083365"><ele>541.0</ele><time>2026-04-05T15:43:11.812Z</time></trkpt><trkpt lat="45.85383" lon="9.0835583"><ele>541.0</ele><time>2026-04-05T15:43:12.812Z</time></trkpt><trkpt lat="45.853905" lon="9.083735"><ele>541.0</ele><time>2026-04-05T15:43:13.812Z</time></trkpt><trkpt lat="45.8539933" lon="9.0839167"><ele>541.0</ele><time>2026-04-05T15:43:14.812Z</time></trkpt><trkpt lat="45.85408" lon="9.08407"><ele>538.6</ele><time>2026-04-05T15:43:15.812Z</time></trkpt><trkpt lat="45.8541467" lon="9.0841967"><ele>536.2</ele><time>2026-04-05T15:43:16.812Z</time></trkpt><trkpt lat="45.8542017" lon="9.084285"><ele>533.8</ele><time>2026-04-05T15:43:17.813Z</time></trkpt><trkpt lat="45.854305" lon="9.0843417"><ele>531.4</ele><time>2026-04-05T15:43:19.812Z</time></trkpt><trkpt lat="45.85436" lon="9.0842583"><ele>529.0</ele><time>2026-04-05T15:43:21.811Z</time></trkpt><trkpt lat="45.8543467" lon="9.0841167"><ele>531.4</ele><time>2026-04-05T15:43:23.811Z</time></trkpt><trkpt lat="45.8543133" lon="9.0840083"><ele>533.8</ele><time>2026-04-05T15:43:24.811Z</time></trkpt><trkpt lat="45.85426" lon="9.083885"><ele>536.2</ele><time>2026-04-05T15:43:25.811Z</time></trkpt><trkpt lat="45.854225" lon="9.0837367"><ele>538.6</ele><time>2026-04-05T15:43:26.812Z</time></trkpt><trkpt lat="45.8541567" lon="9.0836017"><ele>541.0</ele><time>2026-04-05T15:43:27.811Z</time></trkpt><trkpt lat="45.8540717" lon="9.08353"><ele>541.0</ele><time>2026-04-05T15:43:28.811Z</time></trkpt><trkpt lat="45.8540167" lon="9.0834317"><ele>541.0</ele><time>2026-04-05T15:43:30.811Z</time></trkpt><trkpt lat="45.8541017" lon="9.0834767"><ele>541.0</ele><time>2026-04-05T15:43:33.811Z</time></trkpt><trkpt lat="45.8541583" lon="9.08356"><ele>541.0</ele><time>2026-04-05T15:43:34.811Z</time></trkpt><trkpt lat="45.85423" lon="9.0836517"><ele>541.0</ele><time>2026-04-05T15:43:35.812Z</time></trkpt><trkpt lat="45.854315" lon="9.0837683"><ele>548.5</ele><time>2026-04-05T15:43:36.811Z</time></trkpt><trkpt lat="45.8544033" lon="9.0838833"><ele>556.0</ele><time>2026-04-05T15:43:37.812Z</time></trkpt><trkpt lat="45.85449" lon="9.0839933"><ele>563.5</ele><time>2026-04-05T15:43:38.811Z</time></trkpt><trkpt lat="45.854565" lon="9.08413"><ele>571.0</ele><time>2026-04-05T15:43:39.811Z</time></trkpt><trkpt lat="45.854625" lon="9.0842683"><ele>571.0</ele><time>2026-04-05T15:43:40.811Z</time></trkpt><trkpt lat="45.854665" lon="9.0844217"><ele>571.0</ele><time>2026-04-05T15:43:41.811Z</time></trkpt><trkpt lat="45.85469" lon="9.0845817"><ele>571.0</ele><time>2026-04-05T15:43:42.812Z</time></trkpt><trkpt lat="45.854725" lon="9.0847583"><ele>571.0</ele><time>2026-04-05T15:43:43.811Z</time></trkpt><trkpt lat="45.8547517" lon="9.0849267"><ele>567.0</ele><time>2026-04-05T15:43:44.811Z</time></trkpt><trkpt lat="45.8547917" lon="9.0851117"><ele>563.0</ele><time>2026-04-05T15:43:45.812Z</time></trkpt><trkpt lat="45.8548333" lon="9.085285"><ele>559.0</ele><time>2026-04-05T15:43:46.811Z</time></trkpt><trkpt lat="45.8548633" lon="9.0854433"><ele>555.0</ele><time>2026-04-05T15:43:47.811Z</time></trkpt><trkpt lat="45.8548967" lon="9.0855867"><ele>555.0</ele><time>2026-04-05T15:43:48.811Z</time></trkpt><trkpt lat="45.8549283" lon="9.0857133"><ele>555.0</ele><time>2026-04-05T15:43:49.811Z</time></trkpt><trkpt lat="45.85497" lon="9.0858183"><ele>555.0</ele><time>2026-04-05T15:43:50.811Z</time></trkpt><trkpt lat="45.85503" lon="9.0859033"><ele>555.0</ele><time>2026-04-05T15:43:51.811Z</time></trkpt><trkpt lat="45.8551233" lon="9.085975"><ele>555.0</ele><time>2026-04-05T15:43:52.812Z</time></trkpt><trkpt lat="45.8552483" lon="9.0860467"><ele>558.5</ele><time>2026-04-05T15:43:53.812Z</time></trkpt><trkpt lat="45.85537" lon="9.08611"><ele>562.0</ele><time>2026-04-05T15:43:54.812Z</time></trkpt><trkpt lat="45.8554817" lon="9.0861867"><ele>565.5</ele><time>2026-04-05T15:43:55.811Z</time></trkpt><trkpt lat="45.85558" lon="9.08626"><ele>569.0</ele><time>2026-04-05T15:43:56.811Z</time></trkpt><trkpt lat="45.8556783" lon="9.086335"><ele>569.0</ele><time>2026-04-05T15:43:57.812Z</time></trkpt><trkpt lat="45.8557867" lon="9.0864083"><ele>569.0</ele><time>2026-04-05T15:43:58.811Z</time></trkpt><trkpt lat="45.8558917" lon="9.0864817"><ele>569.0</ele><time>2026-04-05T15:43:59.811Z</time></trkpt><trkpt lat="45.855985" lon="9.08655"><ele>569.0</ele><time>2026-04-05T15:44:00.811Z</time></trkpt><trkpt lat="45.8560717" lon="9.0865917"><ele>569.0</ele><time>2026-04-05T15:44:01.811Z</time></trkpt><trkpt lat="45.8561517" lon="9.0866017"><ele>572.0</ele><time>2026-04-05T15:44:02.811Z</time></trkpt><trkpt lat="45.85624" lon="9.0865783"><ele>575.0</ele><time>2026-04-05T15:44:03.811Z</time></trkpt><trkpt lat="45.8563167" lon="9.0865267"><ele>578.0</ele><time>2026-04-05T15:44:04.812Z</time></trkpt><trkpt lat="45.8563983" lon="9.0864567"><ele>581.0</ele><time>2026-04-05T15:44:05.811Z</time></trkpt><trkpt lat="45.8564833" lon="9.0863683"><ele>584.0</ele><time>2026-04-05T15:44:06.811Z</time></trkpt><trkpt lat="45.856575" lon="9.0862933"><ele>584.0</ele><time>2026-04-05T15:44:07.811Z</time></trkpt><trkpt lat="45.8566617" lon="9.086235"><ele>584.0</ele><time>2026-04-05T15:44:08.812Z</time></trkpt><trkpt lat="45.8567533" lon="9.0862117"><ele>584.0</ele><time>2026-04-05T15:44:09.811Z</time></trkpt><trkpt lat="45.8568517" lon="9.0862183"><ele>584.0</ele><time>2026-04-05T15:44:10.812Z</time></trkpt><trkpt lat="45.85696" lon="9.0862567"><ele>584.0</ele><time>2026-04-05T15:44:11.812Z</time></trkpt><trkpt lat="45.8570633" lon="9.0863083"><ele>583.2</ele><time>2026-04-05T15:44:12.811Z</time></trkpt><trkpt lat="45.8571533" lon="9.0863667"><ele>582.4</ele><time>2026-04-05T15:44:13.811Z</time></trkpt><trkpt lat="45.8572417" lon="9.0864417"><ele>581.6</ele><time>2026-04-05T15:44:14.811Z</time></trkpt><trkpt lat="45.8573167" lon="9.08654"><ele>580.8</ele><time>2026-04-05T15:44:15.811Z</time></trkpt><trkpt lat="45.8573617" lon="9.0866567"><ele>580.0</ele><time>2026-04-05T15:44:16.812Z</time></trkpt><trkpt lat="45.8574083" lon="9.0867667"><ele>580.0</ele><time>2026-04-05T15:44:17.811Z</time></trkpt><trkpt lat="45.8574683" lon="9.0868817"><ele>580.0</ele><time>2026-04-05T15:44:18.812Z</time></trkpt><trkpt lat="45.8575483" lon="9.0869817"><ele>580.0</ele><time>2026-04-05T15:44:19.812Z</time></trkpt><trkpt lat="45.85765" lon="9.087065"><ele>580.0</ele><time>2026-04-05T15:44:20.811Z</time></trkpt><trkpt lat="45.8577717" lon="9.0871183"><ele>587.5</ele><time>2026-04-05T15:44:21.812Z</time></trkpt><trkpt lat="45.8579083" lon="9.0871617"><ele>595.0</ele><time>2026-04-05T15:44:22.811Z</time></trkpt><trkpt lat="45.858045" lon="9.0871917"><ele>602.5</ele><time>2026-04-05T15:44:23.812Z</time></trkpt><trkpt lat="45.8581667" lon="9.0872267"><ele>610.0</ele><time>2026-04-05T15:44:24.811Z</time></trkpt><trkpt lat="45.858275" lon="9.0872817"><ele>610.0</ele><time>2026-04-05T15:44:25.812Z</time></trkpt><trkpt lat="45.8583667" lon="9.0873433"><ele>610.0</ele><time>2026-04-05T15:44:26.811Z</time></trkpt><trkpt lat="45.858455" lon="9.0874067"><ele>610.0</ele><time>2026-04-05T15:44:27.811Z</time></trkpt><trkpt lat="45.8585433" lon="9.0874767"><ele>610.0</ele><time>2026-04-05T15:44:28.812Z</time></trkpt><trkpt lat="45.8586367" lon="9.0875617"><ele>610.0</ele><time>2026-04-05T15:44:29.811Z</time></trkpt><trkpt lat="45.8587183" lon="9.087635"><ele>609.1666666666667</ele><time>2026-04-05T15:44:30.811Z</time></trkpt><trkpt lat="45.8587967" lon="9.0877017"><ele>608.3333333333334</ele><time>2026-04-05T15:44:31.812Z</time></trkpt><trkpt lat="45.8588683" lon="9.0877767"><ele>607.5</ele><time>2026-04-05T15:44:32.811Z</time></trkpt><trkpt lat="45.8589333" lon="9.0878467"><ele>606.6666666666666</ele><time>2026-04-05T15:44:33.811Z</time></trkpt><trkpt lat="45.85898" lon="9.087945"><ele>605.8333333333333</ele><time>2026-04-05T15:44:34.811Z</time></trkpt><trkpt lat="45.8590283" lon="9.0880533"><ele>605.0</ele><time>2026-04-05T15:44:35.811Z</time></trkpt><trkpt lat="45.85909" lon="9.0881467"><ele>605.0</ele><time>2026-04-05T15:44:36.811Z</time></trkpt><trkpt lat="45.859185" lon="9.088225"><ele>605.0</ele><time>2026-04-05T15:44:37.811Z</time></trkpt><trkpt lat="45.8592933" lon="9.0882917"><ele>605.0</ele><time>2026-04-05T15:44:38.811Z</time></trkpt><trkpt lat="45.8594117" lon="9.0883467"><ele>605.0</ele><time>2026-04-05T15:44:39.811Z</time></trkpt><trkpt lat="45.859535" lon="9.088415"><ele>606.25</ele><time>2026-04-05T15:44:40.811Z</time></trkpt><trkpt lat="45.85966" lon="9.0884933"><ele>607.5</ele><time>2026-04-05T15:44:41.812Z</time></trkpt><trkpt lat="45.8597933" lon="9.0885917"><ele>608.75</ele><time>2026-04-05T15:44:42.811Z</time></trkpt><trkpt lat="45.859925" lon="9.0886983"><ele>610.0</ele><time>2026-04-05T15:44:43.811Z</time></trkpt><trkpt lat="45.860035" lon="9.0888083"><ele>614.75</ele><time>2026-04-05T15:44:44.811Z</time></trkpt><trkpt lat="45.8601267" lon="9.0889317"><ele>619.5</ele><time>2026-04-05T15:44:45.812Z</time></trkpt><trkpt lat="45.8601983" lon="9.0890783"><ele>624.25</ele><time>2026-04-05T15:44:46.812Z</time></trkpt><trkpt lat="45.8602533" lon="9.0892083"><ele>629.0</ele><time>2026-04-05T15:44:47.811Z</time></trkpt><trkpt lat="45.8603083" lon="9.0893183"><ele>629.0</ele><time>2026-04-05T15:44:48.811Z</time></trkpt><trkpt lat="45.8603833" lon="9.0894183"><ele>629.0</ele><time>2026-04-05T15:44:49.812Z</time></trkpt><trkpt lat="45.8604717" lon="9.0895067"><ele>629.0</ele><time>2026-04-05T15:44:50.811Z</time></trkpt><trkpt lat="45.8605783" lon="9.0895917"><ele>629.0</ele><time>2026-04-05T15:44:51.811Z</time></trkpt><trkpt lat="45.8606917" lon="9.089665"><ele>629.0</ele><time>2026-04-05T15:44:52.812Z</time></trkpt><trkpt lat="45.8607967" lon="9.08975"><ele>629.0</ele><time>2026-04-05T15:44:53.811Z</time></trkpt><trkpt lat="45.86091" lon="9.08983"><ele>629.0</ele><time>2026-04-05T15:44:54.812Z</time></trkpt><trkpt lat="45.86103" lon="9.0899"><ele>629.0</ele><time>2026-04-05T15:44:55.812Z</time></trkpt><trkpt lat="45.8611633" lon="9.0899617"><ele>627.75</ele><time>2026-04-05T15:44:56.811Z</time></trkpt><trkpt lat="45.8612883" lon="9.0900333"><ele>626.5</ele><time>2026-04-05T15:44:57.811Z</time></trkpt><trkpt lat="45.8614017" lon="9.090095"><ele>625.25</ele><time>2026-04-05T15:44:58.811Z</time></trkpt><trkpt lat="45.86151" lon="9.09013"><ele>624.0</ele><time>2026-04-05T15:44:59.811Z</time></trkpt><trkpt lat="45.861615" lon="9.0901267"><ele>624.0</ele><time>2026-04-05T15:45:00.811Z</time></trkpt><trkpt lat="45.8617333" lon="9.0901117"><ele>624.0</ele><time>2026-04-05T15:45:01.812Z</time></trkpt><trkpt lat="45.8618517" lon="9.09011"><ele>624.0</ele><time>2026-04-05T15:45:02.811Z</time></trkpt><trkpt lat="45.8619783" lon="9.0901183"><ele>624.0</ele><time>2026-04-05T15:45:03.812Z</time></trkpt><trkpt lat="45.8620967" lon="9.0901383"><ele>623.8</ele><time>2026-04-05T15:45:04.811Z</time></trkpt><trkpt lat="45.8622217" lon="9.09016"><ele>623.5999999999999</ele><time>2026-04-05T15:45:05.811Z</time></trkpt><trkpt lat="45.8623283" lon="9.090165"><ele>623.4</ele><time>2026-04-05T15:45:06.811Z</time></trkpt><trkpt lat="45.8624233" lon="9.0901717"><ele>623.1999999999999</ele><time>2026-04-05T15:45:07.811Z</time></trkpt><trkpt lat="45.8625083" lon="9.0901817"><ele>623.0</ele><time>2026-04-05T15:45:08.811Z</time></trkpt><trkpt lat="45.862575" lon="9.0901833"><ele>623.0</ele><time>2026-04-05T15:45:09.811Z</time></trkpt><trkpt lat="45.8626667" lon="9.0901133"><ele>623.0</ele><time>2026-04-05T15:45:11.811Z</time></trkpt><trkpt lat="45.8626567" lon="9.09"><ele>623.0</ele><time>2026-04-05T15:45:13.811Z</time></trkpt><trkpt lat="45.8625633" lon="9.089955"><ele>623.0</ele><time>2026-04-05T15:45:15.811Z</time></trkpt><trkpt lat="45.8624717" lon="9.0899567"><ele>623.0</ele><time>2026-04-05T15:45:16.811Z</time></trkpt><trkpt lat="45.8623583" lon="9.0899633"><ele>623.0</ele><time>2026-04-05T15:45:17.811Z</time></trkpt><trkpt lat="45.8622317" lon="9.0899533"><ele>623.0</ele><time>2026-04-05T15:45:18.811Z</time></trkpt><trkpt lat="45.8621083" lon="9.0899033"><ele>623.0</ele><time>2026-04-05T15:45:19.811Z</time></trkpt><trkpt lat="45.8619967" lon="9.0898267"><ele>623.0</ele><time>2026-04-05T15:45:20.811Z</time></trkpt><trkpt lat="45.8618817" lon="9.0897417"><ele>629.5999999999999</ele><time>2026-04-05T15:45:21.811Z</time></trkpt><trkpt lat="45.8617683" lon="9.0896833"><ele>636.1999999999999</ele><time>2026-04-05T15:45:22.812Z</time></trkpt><trkpt lat="45.8616617" lon="9.0896517"><ele>642.8</ele><time>2026-04-05T15:45:23.811Z</time></trkpt><trkpt lat="45.8615683" lon="9.08962"><ele>649.4</ele><time>2026-04-05T15:45:24.811Z</time></trkpt><trkpt lat="45.86149" lon="9.089575"><ele>656.0</ele><time>2026-04-05T15:45:25.811Z</time></trkpt><trkpt lat="45.8614167" lon="9.0895017"><ele>656.0</ele><time>2026-04-05T15:45:26.811Z</time></trkpt><trkpt lat="45.8613317" lon="9.0894183"><ele>656.0</ele><time>2026-04-05T15:45:27.811Z</time></trkpt><trkpt lat="45.8612483" lon="9.0893"><ele>656.0</ele><time>2026-04-05T15:45:28.811Z</time></trkpt><trkpt lat="45.8611733" lon="9.089185"><ele>656.0</ele><time>2026-04-05T15:45:29.812Z</time></trkpt><trkpt lat="45.86111" lon="9.08905"><ele>656.0</ele><time>2026-04-05T15:45:30.811Z</time></trkpt><trkpt lat="45.8610533" lon="9.088905"><ele>655.8</ele><time>2026-04-05T15:45:31.811Z</time></trkpt><trkpt lat="45.86099" lon="9.088755"><ele>655.5999999999999</ele><time>2026-04-05T15:45:32.812Z</time></trkpt><trkpt lat="45.8609383" lon="9.088625"><ele>655.4</ele><time>2026-04-05T15:45:33.811Z</time></trkpt><trkpt lat="45.8609" lon="9.0884867"><ele>655.2</ele><time>2026-04-05T15:45:34.811Z</time></trkpt><trkpt lat="45.86087" lon="9.0883483"><ele>655.0</ele><time>2026-04-05T15:45:35.811Z</time></trkpt><trkpt lat="45.8608517" lon="9.088195"><ele>655.0</ele><time>2026-04-05T15:45:36.812Z</time></trkpt><trkpt lat="45.86083" lon="9.08803"><ele>655.0</ele><time>2026-04-05T15:45:37.812Z</time></trkpt><trkpt lat="45.8607917" lon="9.0878583"><ele>655.0</ele><time>2026-04-05T15:45:38.811Z</time></trkpt><trkpt lat="45.8607417" lon="9.0876733"><ele>655.0</ele><time>2026-04-05T15:45:39.812Z</time></trkpt><trkpt lat="45.8606867" lon="9.0875067"><ele>661.5</ele><time>2026-04-05T15:45:40.812Z</time></trkpt><trkpt lat="45.8606167" lon="9.0873483"><ele>668.0</ele><time>2026-04-05T15:45:41.811Z</time></trkpt><trkpt lat="45.8605267" lon="9.0872117"><ele>674.5</ele><time>2026-04-05T15:45:42.811Z</time></trkpt><trkpt lat="45.8604433" lon="9.0870633"><ele>681.0</ele><time>2026-04-05T15:45:43.811Z</time></trkpt><trkpt lat="45.8603583" lon="9.0869033"><ele>681.0</ele><time>2026-04-05T15:45:44.811Z</time></trkpt><trkpt lat="45.8602833" lon="9.08674"><ele>681.0</ele><time>2026-04-05T15:45:45.811Z</time></trkpt><trkpt lat="45.8602117" lon="9.0866067"><ele>681.0</ele><time>2026-04-05T15:45:46.811Z</time></trkpt><trkpt lat="45.8601433" lon="9.0864967"><ele>681.0</ele><time>2026-04-05T15:45:47.811Z</time></trkpt><trkpt lat="45.860085" lon="9.0864033"><ele>681.0</ele><time>2026-04-05T15:45:48.811Z</time></trkpt><trkpt lat="45.8600233" lon="9.08631"><ele>681.5999999999999</ele><time>2026-04-05T15:45:49.811Z</time></trkpt><trkpt lat="45.8599567" lon="9.0862183"><ele>682.2</ele><time>2026-04-05T15:45:50.811Z</time></trkpt><trkpt lat="45.859875" lon="9.0861317"><ele>682.8</ele><time>2026-04-05T15:45:51.811Z</time></trkpt><trkpt lat="45.859785" lon="9.08605"><ele>683.4000000000001</ele><time>2026-04-05T15:45:52.811Z</time></trkpt><trkpt lat="45.8596933" lon="9.08596"><ele>684.0</ele><time>2026-04-05T15:45:53.812Z</time></trkpt><trkpt lat="45.8596033" lon="9.08588"><ele>684.0</ele><time>2026-04-05T15:45:54.811Z</time></trkpt><trkpt lat="45.8595317" lon="9.0858017"><ele>684.0</ele><time>2026-04-05T15:45:55.811Z</time></trkpt><trkpt lat="45.85947" lon="9.08573"><ele>684.0</ele><time>2026-04-05T15:45:56.811Z</time></trkpt><trkpt lat="45.8594067" lon="9.0856067"><ele>684.0</ele><time>2026-04-05T15:45:58.812Z</time></trkpt><trkpt lat="45.859495" lon="9.0855467"><ele>684.0</ele><time>2026-04-05T15:46:01.811Z</time></trkpt><trkpt lat="45.85955" lon="9.0855917"><ele>684.0</ele><time>2026-04-05T15:46:02.811Z</time></trkpt><trkpt lat="45.8596133" lon="9.0856617"><ele>683.9999999999999</ele><time>2026-04-05T15:46:03.811Z</time></trkpt><trkpt lat="45.8596833" lon="9.0857183"><ele>684.0</ele><time>2026-04-05T15:46:04.811Z</time></trkpt><trkpt lat="45.8597517" lon="9.0857717"><ele>684.0</ele><time>2026-04-05T15:46:05.811Z</time></trkpt><trkpt lat="45.8598133" lon="9.0858017"><ele>684.0</ele><time>2026-04-05T15:46:06.812Z</time></trkpt><trkpt lat="45.8598783" lon="9.0858233"><ele>684.0</ele><time>2026-04-05T15:46:07.811Z</time></trkpt><trkpt lat="45.859945" lon="9.085835"><ele>683.9999999999999</ele><time>2026-04-05T15:46:08.811Z</time></trkpt><trkpt lat="45.8600267" lon="9.0858633"><ele>684.0</ele><time>2026-04-05T15:46:09.811Z</time></trkpt><trkpt lat="45.8601117" lon="9.085915"><ele>689.6</ele><time>2026-04-05T15:46:10.811Z</time></trkpt><trkpt lat="45.8601917" lon="9.0859933"><ele>695.2</ele><time>2026-04-05T15:46:11.812Z</time></trkpt><trkpt lat="45.8602833" lon="9.08609"><ele>700.8000000000001</ele><time>2026-04-05T15:46:12.811Z</time></trkpt><trkpt lat="45.8603733" lon="9.0861933"><ele>706.4000000000001</ele><time>2026-04-05T15:46:13.811Z</time></trkpt><trkpt lat="45.8604467" lon="9.086295"><ele>712.0</ele><time>2026-04-05T15:46:14.811Z</time></trkpt><trkpt lat="45.86052" lon="9.0863767"><ele>712.0</ele><time>2026-04-05T15:46:15.811Z</time></trkpt><trkpt lat="45.8605883" lon="9.08644"><ele>712.0</ele><time>2026-04-05T15:46:16.811Z</time></trkpt><trkpt lat="45.8606667" lon="9.0864867"><ele>712.0</ele><time>2026-04-05T15:46:17.812Z</time></trkpt><trkpt lat="45.86076" lon="9.08651"><ele>712.0</ele><time>2026-04-05T15:46:18.811Z</time></trkpt><trkpt lat="45.8608617" lon="9.0865383"><ele>712.0</ele><time>2026-04-05T15:46:19.812Z</time></trkpt><trkpt lat="45.8609617" lon="9.08657"><ele>709.8</ele><time>2026-04-05T15:46:20.811Z</time></trkpt><trkpt lat="45.8610533" lon="9.08662"><ele>707.6</ele><time>2026-04-05T15:46:21.811Z</time></trkpt><trkpt lat="45.8611533" lon="9.0866717"><ele>705.4</ele><time>2026-04-05T15:46:22.811Z</time></trkpt><trkpt lat="45.86125" lon="9.08674"><ele>703.1999999999999</ele><time>2026-04-05T15:46:23.811Z</time></trkpt><trkpt lat="45.8613583" lon="9.0868083"><ele>701.0</ele><time>2026-04-05T15:46:24.811Z</time></trkpt><trkpt lat="45.8614683" lon="9.086885"><ele>701.0</ele><time>2026-04-05T15:46:25.812Z</time></trkpt><trkpt lat="45.86157" lon="9.0869483"><ele>701.0</ele><time>2026-04-05T15:46:26.811Z</time></trkpt><trkpt lat="45.8616583" lon="9.087"><ele>701.0</ele><time>2026-04-05T15:46:27.811Z</time></trkpt><trkpt lat="45.861735" lon="9.087035"><ele>701.0</ele><time>2026-04-05T15:46:28.811Z</time></trkpt><trkpt lat="45.86184" lon="9.0870633"><ele>701.0</ele><time>2026-04-05T15:46:30.811Z</time></trkpt><trkpt lat="45.8618683" lon="9.0869567"><ele>701.0</ele><time>2026-04-05T15:46:33.812Z</time></trkpt><trkpt lat="45.861815" lon="9.0869033"><ele>701.0</ele><time>2026-04-05T15:46:34.811Z</time></trkpt><trkpt lat="45.8617317" lon="9.0868433"><ele>701.0</ele><time>2026-04-05T15:46:35.811Z</time></trkpt><trkpt lat="45.8616283" lon="9.08676"><ele>701.0</ele><time>2026-04-05T15:46:36.811Z</time></trkpt><trkpt lat="45.86151" lon="9.0866583"><ele>701.0</ele><time>2026-04-05T15:46:37.811Z</time></trkpt><trkpt lat="45.8613933" lon="9.0865433"><ele>703.75</ele><time>2026-04-05T15:46:38.811Z</time></trkpt><trkpt lat="45.86128" lon="9.0864217"><ele>706.5</ele><time>2026-04-05T15:46:39.811Z</time></trkpt><trkpt lat="45.8611567" lon="9.086305"><ele>709.25</ele><time>2026-04-05T15:46:40.811Z</time></trkpt><trkpt lat="45.8610383" lon="9.0861917"><ele>712.0</ele><time>2026-04-05T15:46:41.811Z</time></trkpt><trkpt lat="45.8609217" lon="9.0860833"><ele>712.0</ele><time>2026-04-05T15:46:42.811Z</time></trkpt><trkpt lat="45.8608083" lon="9.0859633"><ele>712.0</ele><time>2026-04-05T15:46:43.811Z</time></trkpt><trkpt lat="45.8607067" lon="9.0858283"><ele>712.0</ele><time>2026-04-05T15:46:44.811Z</time></trkpt><trkpt lat="45.8605967" lon="9.0856833"><ele>712.0</ele><time>2026-04-05T15:46:45.811Z</time></trkpt><trkpt lat="45.860495" lon="9.0855267"><ele>720.5</ele><time>2026-04-05T15:46:46.811Z</time></trkpt><trkpt lat="45.860405" lon="9.0853733"><ele>729.0</ele><time>2026-04-05T15:46:47.812Z</time></trkpt><trkpt lat="45.8603267" lon="9.0852383"><ele>737.5</ele><time>2026-04-05T15:46:48.811Z</time></trkpt><trkpt lat="45.86026" lon="9.08508"><ele>746.0</ele><time>2026-04-05T15:46:49.811Z</time></trkpt><trkpt lat="45.8602017" lon="9.0849083"><ele>741.5</ele><time>2026-04-05T15:46:50.811Z</time></trkpt><trkpt lat="45.8601433" lon="9.0847233"><ele>737.0</ele><time>2026-04-05T15:46:51.812Z</time></trkpt><trkpt lat="45.8600833" lon="9.0845317"><ele>732.5</ele><time>2026-04-05T15:46:52.812Z</time></trkpt><trkpt lat="45.860025" lon="9.0843417"><ele>728.0</ele><time>2026-04-05T15:46:53.812Z</time></trkpt><trkpt lat="45.85997" lon="9.084175"><ele>732.5999999999999</ele><time>2026-04-05T15:46:54.811Z</time></trkpt><trkpt lat="45.8599" lon="9.0840533"><ele>737.1999999999999</ele><time>2026-04-05T15:46:55.811Z</time></trkpt><trkpt lat="45.8598417" lon="9.0839517"><ele>741.8</ele><time>2026-04-05T15:46:56.811Z</time></trkpt><trkpt lat="45.8597933" lon="9.0838483"><ele>746.4</ele><time>2026-04-05T15:46:57.811Z</time></trkpt><trkpt lat="45.85976" lon="9.0837383"><ele>751.0</ele><time>2026-04-05T15:46:58.811Z</time></trkpt><trkpt lat="45.85973" lon="9.083595"><ele>751.0</ele><time>2026-04-05T15:46:59.811Z</time></trkpt><trkpt lat="45.8597033" lon="9.08345"><ele>751.0</ele><time>2026-04-05T15:47:00.811Z</time></trkpt><trkpt lat="45.85967" lon="9.0833417"><ele>751.0</ele><time>2026-04-05T15:47:01.811Z</time></trkpt><trkpt lat="45.8596317" lon="9.0832533"><ele>751.0</ele><time>2026-04-05T15:47:02.812Z</time></trkpt><trkpt lat="45.8595667" lon="9.0831783"><ele>751.0</ele><time>2026-04-05T15:47:03.812Z</time></trkpt><trkpt lat="45.8594767" lon="9.0831233"><ele>751.0</ele><time>2026-04-05T15:47:04.811Z</time></trkpt><trkpt lat="45.8593817" lon="9.0830933"><ele>751.5999999999999</ele><time>2026-04-05T15:47:05.811Z</time></trkpt><trkpt lat="45.8593017" lon="9.0830633"><ele>752.2</ele><time>2026-04-05T15:47:06.811Z</time></trkpt><trkpt lat="45.8592217" lon="9.0830067"><ele>752.8</ele><time>2026-04-05T15:47:07.811Z</time></trkpt><trkpt lat="45.85916" lon="9.0829217"><ele>753.4000000000001</ele><time>2026-04-05T15:47:08.811Z</time></trkpt><trkpt lat="45.8591033" lon="9.082805"><ele>754.0</ele><time>2026-04-05T15:47:09.811Z</time></trkpt><trkpt lat="45.859035" lon="9.08267"><ele>754.0</ele><time>2026-04-05T15:47:10.811Z</time></trkpt><trkpt lat="45.858955" lon="9.0825183"><ele>754.0</ele><time>2026-04-05T15:47:11.811Z</time></trkpt><trkpt lat="45.8588733" lon="9.082385"><ele>754.0</ele><time>2026-04-05T15:47:12.811Z</time></trkpt><trkpt lat="45.8587933" lon="9.08227"><ele>754.0</ele><time>2026-04-05T15:47:13.811Z</time></trkpt><trkpt lat="45.8587183" lon="9.0821633"><ele>757.0</ele><time>2026-04-05T15:47:14.811Z</time></trkpt><trkpt lat="45.8586517" lon="9.0820867"><ele>760.0</ele><time>2026-04-05T15:47:15.811Z</time></trkpt><trkpt lat="45.85859" lon="9.0820233"><ele>763.0</ele><time>2026-04-05T15:47:16.811Z</time></trkpt><trkpt lat="45.8585333" lon="9.0819833"><ele>766.0</ele><time>2026-04-05T15:47:17.812Z</time></trkpt><trkpt lat="45.8584667" lon="9.0819667"><ele>768.9999999999999</ele><time>2026-04-05T15:47:18.811Z</time></trkpt><trkpt lat="45.85838" lon="9.0819883"><ele>772.0</ele><time>2026-04-05T15:47:19.812Z</time></trkpt><trkpt lat="45.858285" lon="9.08203"><ele>772.0</ele><time>2026-04-05T15:47:20.812Z</time></trkpt><trkpt lat="45.8581783" lon="9.08207"><ele>772.0</ele><time>2026-04-05T15:47:21.811Z</time></trkpt><trkpt lat="45.8580733" lon="9.0821017"><ele>772.0</ele><time>2026-04-05T15:47:22.811Z</time></trkpt><trkpt lat="45.8579717" lon="9.0821167"><ele>772.0</ele><time>2026-04-05T15:47:23.811Z</time></trkpt><trkpt lat="45.8578683" lon="9.0821067"><ele>772.0</ele><time>2026-04-05T15:47:24.811Z</time></trkpt><trkpt lat="45.8577767" lon="9.082075"><ele>772.0</ele><time>2026-04-05T15:47:25.811Z</time></trkpt><trkpt lat="45.8576833" lon="9.0820317"><ele>772.0</ele><time>2026-04-05T15:47:26.812Z</time></trkpt><trkpt lat="45.8575817" lon="9.08197"><ele>772.0</ele><time>2026-04-05T15:47:27.812Z</time></trkpt><trkpt lat="45.85748" lon="9.0819117"><ele>772.0</ele><time>2026-04-05T15:47:28.812Z</time></trkpt><trkpt lat="45.857385" lon="9.081815"><ele>772.0</ele><time>2026-04-05T15:47:29.811Z</time></trkpt><trkpt lat="45.8573017" lon="9.0817467"><ele>769.0</ele><time>2026-04-05T15:47:30.811Z</time></trkpt><trkpt lat="45.8572183" lon="9.081675"><ele>766.0</ele><time>2026-04-05T15:47:31.811Z</time></trkpt><trkpt lat="45.8571383" lon="9.0815683"><ele>763.0</ele><time>2026-04-05T15:47:32.811Z</time></trkpt><trkpt lat="45.85706" lon="9.0814383"><ele>760.0</ele><time>2026-04-05T15:47:33.811Z</time></trkpt><trkpt lat="45.8569783" lon="9.08132"><ele>757.0</ele><time>2026-04-05T15:47:34.812Z</time></trkpt><trkpt lat="45.8568967" lon="9.0812017"><ele>755.75</ele><time>2026-04-05T15:47:35.811Z</time></trkpt><trkpt lat="45.856815" lon="9.0810667"><ele>754.5</ele><time>2026-04-05T15:47:36.811Z</time></trkpt><trkpt lat="45.85673" lon="9.0809367"><ele>753.25</ele><time>2026-04-05T15:47:37.811Z</time></trkpt><trkpt lat="45.85665" lon="9.0808117"><ele>752.0</ele><time>2026-04-05T15:47:38.812Z</time></trkpt><trkpt lat="45.856585" lon="9.0806883"><ele>757.0</ele><time>2026-04-05T15:47:39.811Z</time></trkpt><trkpt lat="45.8565333" lon="9.0805617"><ele>762.0</ele><time>2026-04-05T15:47:40.811Z</time></trkpt><trkpt lat="45.8564967" lon="9.0804333"><ele>767.0</ele><time>2026-04-05T15:47:41.811Z</time></trkpt><trkpt lat="45.8564683" lon="9.080295"><ele>772.0</ele><time>2026-04-05T15:47:42.811Z</time></trkpt><trkpt lat="45.85644" lon="9.080145"><ele>777.0</ele><time>2026-04-05T15:47:43.811Z</time></trkpt><trkpt lat="45.8564133" lon="9.07999"><ele>783.75</ele><time>2026-04-05T15:47:44.811Z</time></trkpt><trkpt lat="45.8563883" lon="9.0798267"><ele>790.5</ele><time>2026-04-05T15:47:45.811Z</time></trkpt><trkpt lat="45.8563567" lon="9.0796617"><ele>797.25</ele><time>2026-04-05T15:47:46.811Z</time></trkpt><trkpt lat="45.8563217" lon="9.0794917"><ele>804.0</ele><time>2026-04-05T15:47:47.811Z</time></trkpt><trkpt lat="45.8562767" lon="9.0793167"><ele>804.0</ele><time>2026-04-05T15:47:48.811Z</time></trkpt><trkpt lat="45.8562267" lon="9.07915"><ele>804.0</ele><time>2026-04-05T15:47:49.811Z</time></trkpt><trkpt lat="45.8561817" lon="9.0789983"><ele>804.0</ele><time>2026-04-05T15:47:50.811Z</time></trkpt><trkpt lat="45.8561383" lon="9.0788633"><ele>804.0</ele><time>2026-04-05T15:47:51.811Z</time></trkpt><trkpt lat="45.8561" lon="9.078745"><ele>804.0</ele><time>2026-04-05T15:47:52.811Z</time></trkpt><trkpt lat="45.8560617" lon="9.0786333"><ele>800.0</ele><time>2026-04-05T15:47:53.812Z</time></trkpt><trkpt lat="45.8560183" lon="9.078515"><ele>796.0</ele><time>2026-04-05T15:47:54.811Z</time></trkpt><trkpt lat="45.8559817" lon="9.0783883"><ele>792.0</ele><time>2026-04-05T15:47:55.811Z</time></trkpt><trkpt lat="45.8559317" lon="9.0782517"><ele>788.0</ele><time>2026-04-05T15:47:56.812Z</time></trkpt><trkpt lat="45.8558867" lon="9.0781033"><ele>784.0</ele><time>2026-04-05T15:47:57.811Z</time></trkpt><trkpt lat="45.8558433" lon="9.0779467"><ele>784.0</ele><time>2026-04-05T15:47:58.811Z</time></trkpt><trkpt lat="45.85579" lon="9.07779"><ele>784.0</ele><time>2026-04-05T15:47:59.811Z</time></trkpt><trkpt lat="45.8557367" lon="9.0776383"><ele>784.0</ele><time>2026-04-05T15:48:00.811Z</time></trkpt><trkpt lat="45.8556983" lon="9.0774933"><ele>784.0</ele><time>2026-04-05T15:48:01.811Z</time></trkpt><trkpt lat="45.8556633" lon="9.0773533"><ele>786.6</ele><time>2026-04-05T15:48:02.811Z</time></trkpt><trkpt lat="45.8556367" lon="9.07721"><ele>789.2</ele><time>2026-04-05T15:48:03.811Z</time></trkpt><trkpt lat="45.8556117" lon="9.0770667"><ele>791.8000000000001</ele><time>2026-04-05T15:48:04.811Z</time></trkpt><trkpt lat="45.8555933" lon="9.0769133"><ele>794.4000000000001</ele><time>2026-04-05T15:48:05.811Z</time></trkpt><trkpt lat="45.8555733" lon="9.076745"><ele>797.0</ele><time>2026-04-05T15:48:06.812Z</time></trkpt><trkpt lat="45.8555617" lon="9.07656"><ele>798.0</ele><time>2026-04-05T15:48:07.811Z</time></trkpt><trkpt lat="45.855555" lon="9.0763717"><ele>799.0</ele><time>2026-04-05T15:48:08.811Z</time></trkpt><trkpt lat="45.855545" lon="9.0762033"><ele>800.0</ele><time>2026-04-05T15:48:09.811Z</time></trkpt><trkpt lat="45.855535" lon="9.076035"><ele>801.0</ele><time>2026-04-05T15:48:10.811Z</time></trkpt><trkpt lat="45.8555367" lon="9.0758817"><ele>798.5</ele><time>2026-04-05T15:48:11.811Z</time></trkpt><trkpt lat="45.8555383" lon="9.0757417"><ele>796.0</ele><time>2026-04-05T15:48:12.811Z</time></trkpt><trkpt lat="45.8555367" lon="9.075615"><ele>793.5</ele><time>2026-04-05T15:48:13.811Z</time></trkpt><trkpt lat="45.8555283" lon="9.07551"><ele>791.0</ele><time>2026-04-05T15:48:14.811Z</time></trkpt><trkpt lat="45.855515" lon="9.075375"><ele>788.5</ele><time>2026-04-05T15:48:16.811Z</time></trkpt><trkpt lat="45.855595" lon="9.0753833"><ele>786.0</ele><time>2026-04-05T15:48:19.811Z</time></trkpt><trkpt lat="45.8556333" lon="9.0755367"><ele>786.0</ele><time>2026-04-05T15:48:21.811Z</time></trkpt><trkpt lat="45.8556417" lon="9.0756733"><ele>786.0</ele><time>2026-04-05T15:48:22.812Z</time></trkpt><trkpt lat="45.8556517" lon="9.0758517"><ele>786.0</ele><time>2026-04-05T15:48:23.811Z</time></trkpt><trkpt lat="45.855675" lon="9.0760733"><ele>786.0</ele><time>2026-04-05T15:48:24.811Z</time></trkpt><trkpt lat="45.8557017" lon="9.076295"><ele>788.1999999999999</ele><time>2026-04-05T15:48:25.811Z</time></trkpt><trkpt lat="45.8557217" lon="9.07648"><ele>790.4</ele><time>2026-04-05T15:48:26.811Z</time></trkpt><trkpt lat="45.855735" lon="9.0766267"><ele>792.6</ele><time>2026-04-05T15:48:27.811Z</time></trkpt><trkpt lat="45.8557533" lon="9.076765"><ele>794.8</ele><time>2026-04-05T15:48:28.811Z</time></trkpt><trkpt lat="45.8557733" lon="9.076895"><ele>797.0</ele><time>2026-04-05T15:48:29.811Z</time></trkpt><trkpt lat="45.8558083" lon="9.0770167"><ele>797.0000000000001</ele><time>2026-04-05T15:48:30.812Z</time></trkpt><trkpt lat="45.85586" lon="9.0771417"><ele>797.0</ele><time>2026-04-05T15:48:31.811Z</time></trkpt><trkpt lat="45.8559083" lon="9.07726"><ele>797.0</ele><time>2026-04-05T15:48:32.811Z</time></trkpt><trkpt lat="45.855945" lon="9.0773483"><ele>797.0</ele><time>2026-04-05T15:48:33.812Z</time></trkpt><trkpt lat="45.8559967" lon="9.077435"><ele>797.0000000000001</ele><time>2026-04-05T15:48:35.811Z</time></trkpt><trkpt lat="45.8560533" lon="9.0773683"><ele>797.0</ele><time>2026-04-05T15:48:38.812Z</time></trkpt><trkpt lat="45.8560317" lon="9.0772817"><ele>797.0</ele><time>2026-04-05T15:48:40.811Z</time></trkpt><trkpt lat="45.855985" lon="9.0771917"><ele>797.0</ele><time>2026-04-05T15:48:41.811Z</time></trkpt><trkpt lat="45.8559317" lon="9.07707"><ele>797.0</ele><time>2026-04-05T15:48:42.811Z</time></trkpt><trkpt lat="45.8558883" lon="9.0769417"><ele>797.0</ele><time>2026-04-05T15:48:43.811Z</time></trkpt><trkpt lat="45.8558567" lon="9.0768183"><ele>797.0</ele><time>2026-04-05T15:48:44.812Z</time></trkpt><trkpt lat="45.855835" lon="9.0766917"><ele>797.8</ele><time>2026-04-05T15:48:45.811Z</time></trkpt><trkpt lat="45.8558267" lon="9.076555"><ele>798.6</ele><time>2026-04-05T15:48:46.811Z</time></trkpt><trkpt lat="45.85583" lon="9.0764"><ele>799.4</ele><time>2026-04-05T15:48:47.812Z</time></trkpt><trkpt lat="45.8558333" lon="9.0762567"><ele>800.1999999999999</ele><time>2026-04-05T15:48:48.812Z</time></trkpt><trkpt lat="45.855835" lon="9.0761283"><ele>801.0</ele><time>2026-04-05T15:48:49.811Z</time></trkpt><trkpt lat="45.8558467" lon="9.0760033"><ele>801.0</ele><time>2026-04-05T15:48:50.811Z</time></trkpt><trkpt lat="45.85586" lon="9.0758667"><ele>801.0</ele><time>2026-04-05T15:48:51.811Z</time></trkpt><trkpt lat="45.8558867" lon="9.0757167"><ele>801.0</ele><time>2026-04-05T15:48:52.812Z</time></trkpt><trkpt lat="45.85591" lon="9.0755633"><ele>801.0</ele><time>2026-04-05T15:48:53.811Z</time></trkpt><trkpt lat="45.8559283" lon="9.07542"><ele>801.0</ele><time>2026-04-05T15:48:54.811Z</time></trkpt><trkpt lat="45.8559433" lon="9.0752983"><ele>802.5999999999999</ele><time>2026-04-05T15:48:55.811Z</time></trkpt><trkpt lat="45.8559717" lon="9.0751733"><ele>804.2</ele><time>2026-04-05T15:48:57.811Z</time></trkpt><trkpt lat="45.8560383" lon="9.0752733"><ele>805.8</ele><time>2026-04-05T15:49:00.811Z</time></trkpt><trkpt lat="45.8560383" lon="9.0753917"><ele>807.4000000000001</ele><time>2026-04-05T15:49:01.811Z</time></trkpt><trkpt lat="45.8560233" lon="9.0755383"><ele>809.0</ele><time>2026-04-05T15:49:02.811Z</time></trkpt><trkpt lat="45.8560017" lon="9.0757083"><ele>814.0</ele><time>2026-04-05T15:49:03.811Z</time></trkpt><trkpt lat="45.8559833" lon="9.0758733"><ele>819.0</ele><time>2026-04-05T15:49:04.811Z</time></trkpt><trkpt lat="45.8559733" lon="9.0760333"><ele>824.0</ele><time>2026-04-05T15:49:05.811Z</time></trkpt><trkpt lat="45.8559683" lon="9.0761617"><ele>829.0</ele><time>2026-04-05T15:49:06.811Z</time></trkpt><trkpt lat="45.8559583" lon="9.0762633"><ele>834.0</ele><time>2026-04-05T15:49:07.811Z</time></trkpt><trkpt lat="45.855975" lon="9.0763967"><ele>834.0</ele><time>2026-04-05T15:49:09.811Z</time></trkpt><trkpt lat="45.8560383" lon="9.0764117"><ele>834.0</ele><time>2026-04-05T15:49:11.811Z</time></trkpt><trkpt lat="45.8560617" lon="9.0763"><ele>834.0</ele><time>2026-04-05T15:49:13.812Z</time></trkpt><trkpt lat="45.8560683" lon="9.076195"><ele>834.0</ele><time>2026-04-05T15:49:14.811Z</time></trkpt><trkpt lat="45.8560717" lon="9.0760667"><ele>834.0</ele><time>2026-04-05T15:49:15.812Z</time></trkpt><trkpt lat="45.8560967" lon="9.075915"><ele>834.0</ele><time>2026-04-05T15:49:16.811Z</time></trkpt><trkpt lat="45.8561183" lon="9.0757767"><ele>829.8333333333334</ele><time>2026-04-05T15:49:17.811Z</time></trkpt><trkpt lat="45.8561467" lon="9.07566"><ele>825.6666666666667</ele><time>2026-04-05T15:49:18.811Z</time></trkpt><trkpt lat="45.8561817" lon="9.075575"><ele>821.5</ele><time>2026-04-05T15:49:19.811Z</time></trkpt><trkpt lat="45.8562333" lon="9.0755167"><ele>817.3333333333334</ele><time>2026-04-05T15:49:20.811Z</time></trkpt><trkpt lat="45.8562983" lon="9.075475"><ele>813.1666666666667</ele><time>2026-04-05T15:49:21.811Z</time></trkpt><trkpt lat="45.85638" lon="9.0754517"><ele>809.0</ele><time>2026-04-05T15:49:22.811Z</time></trkpt><trkpt lat="45.8564617" lon="9.0754233"><ele>809.0</ele><time>2026-04-05T15:49:23.811Z</time></trkpt><trkpt lat="45.856545" lon="9.0753917"><ele>809.0</ele><time>2026-04-05T15:49:24.811Z</time></trkpt><trkpt lat="45.8566333" lon="9.075345"><ele>809.0</ele><time>2026-04-05T15:49:25.811Z</time></trkpt><trkpt lat="45.8567233" lon="9.0752617"><ele>809.0</ele><time>2026-04-05T15:49:26.812Z</time></trkpt><trkpt lat="45.8567883" lon="9.0751833"><ele>809.0</ele><time>2026-04-05T15:49:27.811Z</time></trkpt><trkpt lat="45.8568833" lon="9.0751133"><ele>809.0000000000001</ele><time>2026-04-05T15:49:29.811Z</time></trkpt><trkpt lat="45.8569517" lon="9.0751833"><ele>809.0</ele><time>2026-04-05T15:49:31.811Z</time></trkpt><trkpt lat="45.856935" lon="9.0753067"><ele>809.0</ele><time>2026-04-05T15:49:33.811Z</time></trkpt><trkpt lat="45.8568867" lon="9.075375"><ele>809.0</ele><time>2026-04-05T15:49:34.811Z</time></trkpt><trkpt lat="45.85682" lon="9.07545"><ele>809.0000000000001</ele><time>2026-04-05T15:49:35.812Z</time></trkpt><trkpt lat="45.8567467" lon="9.0755167"><ele>809.0</ele><time>2026-04-05T15:49:36.811Z</time></trkpt><trkpt lat="45.8566633" lon="9.0756067"><ele>809.0</ele><time>2026-04-05T15:49:38.811Z</time></trkpt><trkpt lat="45.8567083" lon="9.0756867"><ele>809.0</ele><time>2026-04-05T15:49:41.811Z</time></trkpt><trkpt lat="45.8568433" lon="9.0755867"><ele>809.0</ele><time>2026-04-05T15:49:43.811Z</time></trkpt><trkpt lat="45.85695" lon="9.0754767"><ele>809.0</ele><time>2026-04-05T15:49:44.811Z</time></trkpt><trkpt lat="45.8570633" lon="9.0753683"><ele>813.2</ele><time>2026-04-05T15:49:45.811Z</time></trkpt><trkpt lat="45.85716" lon="9.07527"><ele>817.4000000000001</ele><time>2026-04-05T15:49:46.811Z</time></trkpt><trkpt lat="45.8572317" lon="9.0751933"><ele>821.6</ele><time>2026-04-05T15:49:47.811Z</time></trkpt><trkpt lat="45.8573167" lon="9.07514"><ele>825.8</ele><time>2026-04-05T15:49:48.812Z</time></trkpt><trkpt lat="45.8574117" lon="9.0751033"><ele>830.0</ele><time>2026-04-05T15:49:49.812Z</time></trkpt><trkpt lat="45.85752" lon="9.0750617"><ele>837.4</ele><time>2026-04-05T15:49:50.811Z</time></trkpt><trkpt lat="45.8576267" lon="9.0750333"><ele>844.8</ele><time>2026-04-05T15:49:51.812Z</time></trkpt><trkpt lat="45.8577283" lon="9.075015"><ele>852.2</ele><time>2026-04-05T15:49:52.811Z</time></trkpt><trkpt lat="45.85781" lon="9.0750017"><ele>859.6</ele><time>2026-04-05T15:49:53.812Z</time></trkpt><trkpt lat="45.85788" lon="9.0749883"><ele>867.0</ele><time>2026-04-05T15:49:54.811Z</time></trkpt><trkpt lat="45.8579867" lon="9.0748983"><ele>867.0</ele><time>2026-04-05T15:49:56.811Z</time></trkpt><trkpt lat="45.858025" lon="9.07474"><ele>867.0</ele><time>2026-04-05T15:49:58.811Z</time></trkpt><trkpt lat="45.8580467" lon="9.0746117"><ele>867.0</ele><time>2026-04-05T15:50:00.811Z</time></trkpt><trkpt lat="45.8580617" lon="9.0744867"><ele>867.0</ele><time>2026-04-05T15:50:03.812Z</time></trkpt><trkpt lat="45.8580767" lon="9.07438"><ele>867.0</ele><time>2026-04-05T15:50:05.811Z</time></trkpt><trkpt lat="45.8581133" lon="9.0742267"><ele>867.0</ele><time>2026-04-05T15:50:07.812Z</time></trkpt><trkpt lat="45.8581317" lon="9.0741383"><ele>867.0</ele><time>2026-04-05T15:50:08.811Z</time></trkpt><trkpt lat="45.858125" lon="9.0739783"><ele>867.0</ele><time>2026-04-05T15:50:10.811Z</time></trkpt><trkpt lat="45.8581083" lon="9.07389"><ele>867.0</ele><time>2026-04-05T15:50:11.811Z</time></trkpt><trkpt lat="45.858095" lon="9.0737917"><ele>867.0</ele><time>2026-04-05T15:50:12.811Z</time></trkpt><trkpt lat="45.8580867" lon="9.0736917"><ele>867.0</ele><time>2026-04-05T15:50:13.811Z</time></trkpt><trkpt lat="45.8580783" lon="9.0735917"><ele>865.8333333333334</ele><time>2026-04-05T15:50:14.811Z</time></trkpt><trkpt lat="45.85807" lon="9.0734767"><ele>864.6666666666667</ele><time>2026-04-05T15:50:15.811Z</time></trkpt><trkpt lat="45.8580683" lon="9.0733633"><ele>863.5</ele><time>2026-04-05T15:50:16.811Z</time></trkpt><trkpt lat="45.8580583" lon="9.073255"><ele>862.3333333333334</ele><time>2026-04-05T15:50:17.811Z</time></trkpt><trkpt lat="45.8580467" lon="9.0731517"><ele>861.1666666666667</ele><time>2026-04-05T15:50:18.811Z</time></trkpt><trkpt lat="45.858045" lon="9.073055"><ele>860.0</ele><time>2026-04-05T15:50:19.811Z</time></trkpt><trkpt lat="45.8580467" lon="9.072925"><ele>856.0000000000001</ele><time>2026-04-05T15:50:21.812Z</time></trkpt><trkpt lat="45.8580983" lon="9.07282"><ele>852.0</ele><time>2026-04-05T15:50:23.812Z</time></trkpt><trkpt lat="45.858205" lon="9.072745"><ele>848.0</ele><time>2026-04-05T15:50:25.811Z</time></trkpt><trkpt lat="45.8582733" lon="9.0727383"><ele>844.0</ele><time>2026-04-05T15:50:26.811Z</time></trkpt><trkpt lat="45.8583517" lon="9.0727617"><ele>840.0000000000001</ele><time>2026-04-05T15:50:27.811Z</time></trkpt><trkpt lat="45.8584283" lon="9.0727767"><ele>836.0</ele><time>2026-04-05T15:50:28.811Z</time></trkpt><trkpt lat="45.8584917" lon="9.0727933"><ele>836.0</ele><time>2026-04-05T15:50:29.811Z</time></trkpt><trkpt lat="45.85861" lon="9.0728433"><ele>836.0</ele><time>2026-04-05T15:53:15.812Z</time></trkpt><trkpt lat="45.858735" lon="9.07288"><ele>836.0</ele><time>2026-04-05T15:53:17.811Z</time></trkpt><trkpt lat="45.8588083" lon="9.072895"><ele>836.0</ele><time>2026-04-05T15:53:18.812Z</time></trkpt><trkpt lat="45.8588833" lon="9.0729183"><ele>836.0</ele><time>2026-04-05T15:53:19.811Z</time></trkpt><trkpt lat="45.8589633" lon="9.0729417"><ele>836.0</ele><time>2026-04-05T15:53:20.811Z</time></trkpt><trkpt lat="45.859045" lon="9.0729633"><ele>836.0</ele><time>2026-04-05T15:53:21.811Z</time></trkpt><trkpt lat="45.8591283" lon="9.0729867"><ele>836.0</ele><time>2026-04-05T15:53:22.811Z</time></trkpt><trkpt lat="45.8592217" lon="9.0730167"><ele>836.0</ele><time>2026-04-05T15:53:23.811Z</time></trkpt><trkpt lat="45.8593233" lon="9.0730533"><ele>836.0</ele><time>2026-04-05T15:53:24.811Z</time></trkpt><trkpt lat="45.8594217" lon="9.0730883"><ele>836.1999999999999</ele><time>2026-04-05T15:53:25.811Z</time></trkpt><trkpt lat="45.85952" lon="9.0731117"><ele>836.4</ele><time>2026-04-05T15:53:26.811Z</time></trkpt><trkpt lat="45.859615" lon="9.0731283"><ele>836.6</ele><time>2026-04-05T15:53:27.812Z</time></trkpt><trkpt lat="45.859705" lon="9.0731383"><ele>836.8</ele><time>2026-04-05T15:53:28.811Z</time></trkpt><trkpt lat="45.8597933" lon="9.0731417"><ele>837.0</ele><time>2026-04-05T15:53:29.811Z</time></trkpt><trkpt lat="45.85987" lon="9.07314"><ele>837.0</ele><time>2026-04-05T15:53:30.81Z</time></trkpt><trkpt lat="45.859935" lon="9.0731333"><ele>837.0</ele><time>2026-04-05T15:53:31.81Z</time></trkpt><trkpt lat="45.8599983" lon="9.073165"><ele>837.0</ele><time>2026-04-05T15:53:33.81Z</time></trkpt><trkpt lat="45.8598933" lon="9.07323"><ele>837.0</ele><time>2026-04-05T15:53:36.81Z</time></trkpt><trkpt lat="45.8598033" lon="9.07322"><ele>837.0</ele><time>2026-04-05T15:53:37.81Z</time></trkpt><trkpt lat="45.8596917" lon="9.0732133"><ele>837.0</ele><time>2026-04-05T15:53:38.811Z</time></trkpt><trkpt lat="45.85957" lon="9.07322"><ele>837.0</ele><time>2026-04-05T15:53:39.811Z</time></trkpt><trkpt lat="45.8594283" lon="9.073235"><ele>837.0</ele><time>2026-04-05T15:53:40.81Z</time></trkpt><trkpt lat="45.859295" lon="9.073245"><ele>837.0</ele><time>2026-04-05T15:53:41.81Z</time></trkpt><trkpt lat="45.8591783" lon="9.0732683"><ele>837.0</ele><time>2026-04-05T15:53:42.81Z</time></trkpt><trkpt lat="45.8590717" lon="9.0732833"><ele>843.6666666666666</ele><time>2026-04-05T15:53:43.81Z</time></trkpt><trkpt lat="45.85897" lon="9.0733033"><ele>850.3333333333333</ele><time>2026-04-05T15:53:44.81Z</time></trkpt><trkpt lat="45.8588767" lon="9.0733267"><ele>857.0</ele><time>2026-04-05T15:53:45.81Z</time></trkpt><trkpt lat="45.8587933" lon="9.07336"><ele>863.6666666666666</ele><time>2026-04-05T15:53:46.811Z</time></trkpt><trkpt lat="45.8587233" lon="9.0734033"><ele>870.3333333333333</ele><time>2026-04-05T15:53:47.81Z</time></trkpt><trkpt lat="45.85867" lon="9.0734617"><ele>877.0</ele><time>2026-04-05T15:53:48.81Z</time></trkpt><trkpt lat="45.8586483" lon="9.0735917"><ele>877.0</ele><time>2026-04-05T15:53:50.811Z</time></trkpt><trkpt lat="45.8587233" lon="9.0736083"><ele>877.0</ele><time>2026-04-05T15:53:52.81Z</time></trkpt><trkpt lat="45.85881" lon="9.073555"><ele>877.0</ele><time>2026-04-05T15:53:53.81Z</time></trkpt><trkpt lat="45.8589183" lon="9.0734983"><ele>877.0</ele><time>2026-04-05T15:53:54.811Z</time></trkpt><trkpt lat="45.85903" lon="9.07347"><ele>877.0</ele><time>2026-04-05T15:53:55.81Z</time></trkpt><trkpt lat="45.8591617" lon="9.07347"><ele>877.5</ele><time>2026-04-05T15:53:56.81Z</time></trkpt><trkpt lat="45.859295" lon="9.073505"><ele>878.0</ele><time>2026-04-05T15:53:57.81Z</time></trkpt><trkpt lat="45.8594217" lon="9.0735367"><ele>878.5</ele><time>2026-04-05T15:53:58.81Z</time></trkpt><trkpt lat="45.85955" lon="9.0735617"><ele>879.0</ele><time>2026-04-05T15:53:59.811Z</time></trkpt><trkpt lat="45.859675" lon="9.07359"><ele>879.0</ele><time>2026-04-05T15:54:00.81Z</time></trkpt><trkpt lat="45.859795" lon="9.0736167"><ele>879.0</ele><time>2026-04-05T15:54:01.811Z</time></trkpt><trkpt lat="45.859915" lon="9.0736483"><ele>879.0</ele><time>2026-04-05T15:54:02.811Z</time></trkpt><trkpt lat="45.8600283" lon="9.0736717"><ele>879.0</ele><time>2026-04-05T15:54:03.81Z</time></trkpt><trkpt lat="45.8601417" lon="9.0736917"><ele>879.2</ele><time>2026-04-05T15:54:04.81Z</time></trkpt><trkpt lat="45.8602467" lon="9.0737083"><ele>879.4000000000001</ele><time>2026-04-05T15:54:05.811Z</time></trkpt><trkpt lat="45.8603517" lon="9.07372"><ele>879.6</ele><time>2026-04-05T15:54:06.81Z</time></trkpt><trkpt lat="45.8604583" lon="9.0737317"><ele>879.8</ele><time>2026-04-05T15:54:07.81Z</time></trkpt><trkpt lat="45.8605683" lon="9.0737467"><ele>880.0</ele><time>2026-04-05T15:54:08.81Z</time></trkpt><trkpt lat="45.860685" lon="9.0737633"><ele>880.0</ele><time>2026-04-05T15:54:09.811Z</time></trkpt><trkpt lat="45.8608033" lon="9.0737767"><ele>880.0</ele><time>2026-04-05T15:54:10.81Z</time></trkpt><trkpt lat="45.8609283" lon="9.07378"><ele>880.0</ele><time>2026-04-05T15:54:11.81Z</time></trkpt><trkpt lat="45.86106" lon="9.07378"><ele>880.0</ele><time>2026-04-05T15:54:12.81Z</time></trkpt><trkpt lat="45.8611967" lon="9.0737833"><ele>880.5</ele><time>2026-04-05T15:54:13.81Z</time></trkpt><trkpt lat="45.8613333" lon="9.073795"><ele>881.0</ele><time>2026-04-05T15:54:14.81Z</time></trkpt><trkpt lat="45.8614667" lon="9.0738133"><ele>881.5</ele><time>2026-04-05T15:54:15.811Z</time></trkpt><trkpt lat="45.8615933" lon="9.0738317"><ele>882.0</ele><time>2026-04-05T15:54:16.81Z</time></trkpt><trkpt lat="45.8617017" lon="9.073845"><ele>882.0</ele><time>2026-04-05T15:54:17.811Z</time></trkpt><trkpt lat="45.861785" lon="9.07386"><ele>882.0</ele><time>2026-04-05T15:54:18.81Z</time></trkpt><trkpt lat="45.86186" lon="9.073925"><ele>882.0</ele><time>2026-04-05T15:54:20.81Z</time></trkpt><trkpt lat="45.8618117" lon="9.0740067"><ele>882.0</ele><time>2026-04-05T15:54:22.81Z</time></trkpt><trkpt lat="45.8616783" lon="9.074005"><ele>882.0</ele><time>2026-04-05T15:54:24.81Z</time></trkpt><trkpt lat="45.861575" lon="9.0739933"><ele>882.0</ele><time>2026-04-05T15:54:25.81Z</time></trkpt><trkpt lat="45.8614517" lon="9.07398"><ele>882.0</ele><time>2026-04-05T15:54:26.81Z</time></trkpt><trkpt lat="45.8613233" lon="9.0739783"><ele>882.0</ele><time>2026-04-05T15:54:27.81Z</time></trkpt><trkpt lat="45.86118" lon="9.074005"><ele>882.0</ele><time>2026-04-05T15:54:28.81Z</time></trkpt><trkpt lat="45.8610283" lon="9.0740533"><ele>894.0</ele><time>2026-04-05T15:54:29.81Z</time></trkpt><trkpt lat="45.8608733" lon="9.07411"><ele>906.0</ele><time>2026-04-05T15:54:30.811Z</time></trkpt><trkpt lat="45.86072" lon="9.0741567"><ele>918.0</ele><time>2026-04-05T15:54:31.81Z</time></trkpt><trkpt lat="45.8605683" lon="9.0741983"><ele>918.0</ele><time>2026-04-05T15:54:32.811Z</time></trkpt><trkpt lat="45.8604167" lon="9.0742283"><ele>918.0</ele><time>2026-04-05T15:54:33.811Z</time></trkpt><trkpt lat="45.8602683" lon="9.0742433"><ele>918.0</ele><time>2026-04-05T15:54:34.81Z</time></trkpt><trkpt lat="45.8601233" lon="9.074255"><ele>918.0</ele><time>2026-04-05T15:54:35.81Z</time></trkpt><trkpt lat="45.8599983" lon="9.0742817"><ele>918.75</ele><time>2026-04-05T15:54:36.81Z</time></trkpt><trkpt lat="45.8598733" lon="9.0743217"><ele>919.5</ele><time>2026-04-05T15:54:37.81Z</time></trkpt><trkpt lat="45.8597417" lon="9.074375"><ele>920.25</ele><time>2026-04-05T15:54:38.81Z</time></trkpt><trkpt lat="45.8596133" lon="9.07441"><ele>921.0</ele><time>2026-04-05T15:54:39.81Z</time></trkpt><trkpt lat="45.8595017" lon="9.0744667"><ele>921.0</ele><time>2026-04-05T15:54:40.81Z</time></trkpt><trkpt lat="45.85941" lon="9.0745233"><ele>921.0</ele><time>2026-04-05T15:54:41.81Z</time></trkpt><trkpt lat="45.859345" lon="9.0746033"><ele>921.0</ele><time>2026-04-05T15:54:42.811Z</time></trkpt><trkpt lat="45.8592967" lon="9.074685"><ele>921.0</ele><time>2026-04-05T15:54:43.811Z</time></trkpt><trkpt lat="45.859265" lon="9.07477"><ele>921.0</ele><time>2026-04-05T15:54:44.81Z</time></trkpt><trkpt lat="45.85926" lon="9.0748733"><ele>921.0</ele><time>2026-04-05T15:54:46.81Z</time></trkpt><trkpt lat="45.85934" lon="9.0748567"><ele>921.0</ele><time>2026-04-05T15:54:48.811Z</time></trkpt><trkpt lat="45.8593983" lon="9.07478"><ele>920.9999999999999</ele><time>2026-04-05T15:54:49.81Z</time></trkpt><trkpt lat="45.8594733" lon="9.074685"><ele>920.9999999999999</ele><time>2026-04-05T15:54:50.81Z</time></trkpt><trkpt lat="45.8595617" lon="9.0746183"><ele>921.0</ele><time>2026-04-05T15:54:51.811Z</time></trkpt><trkpt lat="45.8596583" lon="9.07458"><ele>921.0</ele><time>2026-04-05T15:54:52.81Z</time></trkpt><trkpt lat="45.859765" lon="9.0745683"><ele>921.0</ele><time>2026-04-05T15:54:53.81Z</time></trkpt><trkpt lat="45.8598817" lon="9.0745767"><ele>921.0</ele><time>2026-04-05T15:54:54.811Z</time></trkpt><trkpt lat="45.8600117" lon="9.0746083"><ele>921.0</ele><time>2026-04-05T15:54:55.81Z</time></trkpt><trkpt lat="45.8601383" lon="9.0746317"><ele>921.0</ele><time>2026-04-05T15:54:56.811Z</time></trkpt><trkpt lat="45.86027" lon="9.07465"><ele>920.25</ele><time>2026-04-05T15:54:57.811Z</time></trkpt><trkpt lat="45.860405" lon="9.07468"><ele>919.5</ele><time>2026-04-05T15:54:58.81Z</time></trkpt><trkpt lat="45.8605367" lon="9.0747067"><ele>918.75</ele><time>2026-04-05T15:54:59.811Z</time></trkpt><trkpt lat="45.8606733" lon="9.0747417"><ele>918.0</ele><time>2026-04-05T15:55:00.811Z</time></trkpt><trkpt lat="45.8608183" lon="9.0747733"><ele>917.3333333333333</ele><time>2026-04-05T15:55:01.811Z</time></trkpt><trkpt lat="45.8609733" lon="9.0748083"><ele>916.6666666666666</ele><time>2026-04-05T15:55:02.811Z</time></trkpt><trkpt lat="45.8611233" lon="9.0748433"><ele>916.0</ele><time>2026-04-05T15:55:03.81Z</time></trkpt><trkpt lat="45.8612667" lon="9.0748567"><ele>916.0</ele><time>2026-04-05T15:55:04.81Z</time></trkpt><trkpt lat="45.8613883" lon="9.0748833"><ele>915.9999999999999</ele><time>2026-04-05T15:55:05.811Z</time></trkpt><trkpt lat="45.8614883" lon="9.0748983"><ele>915.9999999999999</ele><time>2026-04-05T15:55:06.81Z</time></trkpt><trkpt lat="45.86156" lon="9.0748967"><ele>916.0</ele><time>2026-04-05T15:55:07.81Z</time></trkpt><trkpt lat="45.86165" lon="9.0749317"><ele>916.0</ele><time>2026-04-05T15:55:09.81Z</time></trkpt><trkpt lat="45.8616033" lon="9.075025"><ele>925.0</ele><time>2026-04-05T15:55:12.811Z</time></trkpt><trkpt lat="45.8614717" lon="9.0750167"><ele>934.0</ele><time>2026-04-05T15:55:14.81Z</time></trkpt><trkpt lat="45.86138" lon="9.0750267"><ele>943.0</ele><time>2026-04-05T15:55:15.81Z</time></trkpt><trkpt lat="45.8612567" lon="9.07505"><ele>952.0</ele><time>2026-04-05T15:55:16.81Z</time></trkpt><trkpt lat="45.861125" lon="9.0750967"><ele>952.0</ele><time>2026-04-05T15:55:17.81Z</time></trkpt><trkpt lat="45.8609933" lon="9.0751583"><ele>952.0</ele><time>2026-04-05T15:55:18.81Z</time></trkpt><trkpt lat="45.860885" lon="9.0752033"><ele>952.0</ele><time>2026-04-05T15:55:19.81Z</time></trkpt><trkpt lat="45.8607717" lon="9.0752267"><ele>952.0</ele><time>2026-04-05T15:55:20.81Z</time></trkpt><trkpt lat="45.8606433" lon="9.0752417"><ele>952.0</ele><time>2026-04-05T15:55:21.81Z</time></trkpt><trkpt lat="45.8605133" lon="9.0752583"><ele>952.0</ele><time>2026-04-05T15:55:22.81Z</time></trkpt><trkpt lat="45.86039" lon="9.0752733"><ele>952.0</ele><time>2026-04-05T15:55:23.81Z</time></trkpt><trkpt lat="45.8602867" lon="9.0752867"><ele>952.0</ele><time>2026-04-05T15:55:24.81Z</time></trkpt><trkpt lat="45.8602017" lon="9.0753017"><ele>952.0</ele><time>2026-04-05T15:55:25.81Z</time></trkpt><trkpt lat="45.8601183" lon="9.0753317"><ele>951.6</ele><time>2026-04-05T15:55:26.811Z</time></trkpt><trkpt lat="45.8600383" lon="9.0753817"><ele>951.2</ele><time>2026-04-05T15:55:27.81Z</time></trkpt><trkpt lat="45.85996" lon="9.075475"><ele>950.8</ele><time>2026-04-05T15:55:28.81Z</time></trkpt><trkpt lat="45.8598933" lon="9.0755933"><ele>950.4</ele><time>2026-04-05T15:55:29.81Z</time></trkpt><trkpt lat="45.85983" lon="9.075725"><ele>950.0</ele><time>2026-04-05T15:55:30.81Z</time></trkpt><trkpt lat="45.8597833" lon="9.0758917"><ele>955.25</ele><time>2026-04-05T15:55:31.81Z</time></trkpt><trkpt lat="45.85975" lon="9.076085"><ele>960.5</ele><time>2026-04-05T15:55:32.81Z</time></trkpt><trkpt lat="45.8596983" lon="9.0762933"><ele>965.75</ele><time>2026-04-05T15:55:33.81Z</time></trkpt><trkpt lat="45.8596367" lon="9.0764983"><ele>971.0</ele><time>2026-04-05T15:55:34.81Z</time></trkpt><trkpt lat="45.85957" lon="9.0767017"><ele>975.5</ele><time>2026-04-05T15:55:35.81Z</time></trkpt><trkpt lat="45.8594967" lon="9.0768833"><ele>980.0</ele><time>2026-04-05T15:55:36.81Z</time></trkpt><trkpt lat="45.8594317" lon="9.0770367"><ele>984.5</ele><time>2026-04-05T15:55:37.811Z</time></trkpt><trkpt lat="45.859385" lon="9.0771667"><ele>989.0</ele><time>2026-04-05T15:55:38.81Z</time></trkpt><trkpt lat="45.85934" lon="9.07728"><ele>989.0000000000001</ele><time>2026-04-05T15:55:39.81Z</time></trkpt><trkpt lat="45.8593133" lon="9.077385"><ele>989.0</ele><time>2026-04-05T15:55:40.81Z</time></trkpt><trkpt lat="45.85931" lon="9.0774967"><ele>989.0</ele><time>2026-04-05T15:55:41.811Z</time></trkpt><trkpt lat="45.8593283" lon="9.077605"><ele>989.0</ele><time>2026-04-05T15:55:42.81Z</time></trkpt><trkpt lat="45.85935" lon="9.077705"><ele>989.0000000000001</ele><time>2026-04-05T15:55:43.81Z</time></trkpt><trkpt lat="45.8594067" lon="9.0778383"><ele>989.0</ele><time>2026-04-05T15:55:45.81Z</time></trkpt><trkpt lat="45.859485" lon="9.077855"><ele>989.0</ele><time>2026-04-05T15:55:47.81Z</time></trkpt><trkpt lat="45.8595067" lon="9.0777367"><ele>989.0000000000001</ele><time>2026-04-05T15:55:49.81Z</time></trkpt><trkpt lat="45.85948" lon="9.07763"><ele>989.0000000000001</ele><time>2026-04-05T15:55:50.81Z</time></trkpt><trkpt lat="45.8594633" lon="9.0775"><ele>989.0</ele><time>2026-04-05T15:55:51.811Z</time></trkpt><trkpt lat="45.85948" lon="9.0773667"><ele>989.0</ele><time>2026-04-05T15:55:52.81Z</time></trkpt><trkpt lat="45.8595217" lon="9.0772283"><ele>989.0</ele><time>2026-04-05T15:55:53.81Z</time></trkpt><trkpt lat="45.85959" lon="9.077095"><ele>989.0</ele><time>2026-04-05T15:55:54.81Z</time></trkpt><trkpt lat="45.859685" lon="9.07699"><ele>989.0</ele><time>2026-04-05T15:55:55.81Z</time></trkpt><trkpt lat="45.859775" lon="9.076895"><ele>989.0</ele><time>2026-04-05T15:55:56.81Z</time></trkpt><trkpt lat="45.8598617" lon="9.0767983"><ele>989.0</ele><time>2026-04-05T15:55:57.81Z</time></trkpt><trkpt lat="45.8599433" lon="9.07671"><ele>989.0000000000001</ele><time>2026-04-05T15:55:58.81Z</time></trkpt><trkpt lat="45.8600267" lon="9.0766283"><ele>989.0000000000001</ele><time>2026-04-05T15:55:59.811Z</time></trkpt><trkpt lat="45.8601083" lon="9.0765567"><ele>989.0</ele><time>2026-04-05T15:56:00.81Z</time></trkpt><trkpt lat="45.86019" lon="9.0765"><ele>989.0</ele><time>2026-04-05T15:56:01.81Z</time></trkpt><trkpt lat="45.860275" lon="9.076465"><ele>986.8000000000001</ele><time>2026-04-05T15:56:02.81Z</time></trkpt><trkpt lat="45.8603683" lon="9.0764533"><ele>984.6000000000001</ele><time>2026-04-05T15:56:03.81Z</time></trkpt><trkpt lat="45.86047" lon="9.076465"><ele>982.4</ele><time>2026-04-05T15:56:04.81Z</time></trkpt><trkpt lat="45.8605817" lon="9.0764933"><ele>980.2</ele><time>2026-04-05T15:56:05.811Z</time></trkpt><trkpt lat="45.8607033" lon="9.076525"><ele>978.0</ele><time>2026-04-05T15:56:06.811Z</time></trkpt><trkpt lat="45.8608367" lon="9.0765533"><ele>979.25</ele><time>2026-04-05T15:56:07.811Z</time></trkpt><trkpt lat="45.8609783" lon="9.076565"><ele>980.5</ele><time>2026-04-05T15:56:08.81Z</time></trkpt><trkpt lat="45.86112" lon="9.076565"><ele>981.75</ele><time>2026-04-05T15:56:09.811Z</time></trkpt><trkpt lat="45.86126" lon="9.07658"><ele>983.0</ele><time>2026-04-05T15:56:10.81Z</time></trkpt><trkpt lat="45.8614017" lon="9.0765867"><ele>983.0</ele><time>2026-04-05T15:56:11.81Z</time></trkpt><trkpt lat="45.8615433" lon="9.076595"><ele>983.0</ele><time>2026-04-05T15:56:12.81Z</time></trkpt><trkpt lat="45.8616883" lon="9.0765983"><ele>983.0</ele><time>2026-04-05T15:56:13.81Z</time></trkpt><trkpt lat="45.8618317" lon="9.076595"><ele>983.0</ele><time>2026-04-05T15:56:14.81Z</time></trkpt><trkpt lat="45.8619767" lon="9.076595"><ele>993.0</ele><time>2026-04-05T15:56:15.811Z</time></trkpt><trkpt lat="45.8621217" lon="9.0766033"><ele>1003.0</ele><time>2026-04-05T15:56:16.81Z</time></trkpt><trkpt lat="45.8622683" lon="9.07662"><ele>1013.0</ele><time>2026-04-05T15:56:17.811Z</time></trkpt><trkpt lat="45.8624283" lon="9.07665"><ele>1013.0</ele><time>2026-04-05T15:56:18.81Z</time></trkpt><trkpt lat="45.8625833" lon="9.076685"><ele>1013.0</ele><time>2026-04-05T15:56:19.81Z</time></trkpt><trkpt lat="45.8627333" lon="9.0767367"><ele>1013.0</ele><time>2026-04-05T15:56:20.81Z</time></trkpt><trkpt lat="45.862875" lon="9.076805"><ele>1013.5</ele><time>2026-04-05T15:56:21.81Z</time></trkpt><trkpt lat="45.8630033" lon="9.0768633"><ele>1014.0</ele><time>2026-04-05T15:56:22.81Z</time></trkpt><trkpt lat="45.86313" lon="9.0769167"><ele>1014.5</ele><time>2026-04-05T15:56:23.811Z</time></trkpt><trkpt lat="45.8632517" lon="9.0769617"><ele>1015.0</ele><time>2026-04-05T15:56:24.811Z</time></trkpt><trkpt lat="45.8633867" lon="9.0770017"><ele>1015.5</ele><time>2026-04-05T15:56:25.81Z</time></trkpt><trkpt lat="45.8635367" lon="9.07704"><ele>1016.0</ele><time>2026-04-05T15:56:26.811Z</time></trkpt><trkpt lat="45.8636667" lon="9.0770567"><ele>1016.5</ele><time>2026-04-05T15:56:27.81Z</time></trkpt><trkpt lat="45.8638167" lon="9.077085"><ele>1017.0</ele><time>2026-04-05T15:56:28.811Z</time></trkpt><trkpt lat="45.8639583" lon="9.077105"><ele>1017.0</ele><time>2026-04-05T15:56:29.81Z</time></trkpt><trkpt lat="45.8641033" lon="9.07712"><ele>1017.0</ele><time>2026-04-05T15:56:30.81Z</time></trkpt><trkpt lat="45.8642433" lon="9.0771083"><ele>1017.0</ele><time>2026-04-05T15:56:31.81Z</time></trkpt><trkpt lat="45.8643933" lon="9.077095"><ele>1017.0</ele><time>2026-04-05T15:56:32.81Z</time></trkpt><trkpt lat="45.86454" lon="9.0770667"><ele>1017.75</ele><time>2026-04-05T15:56:33.81Z</time></trkpt><trkpt lat="45.8646667" lon="9.0770383"><ele>1018.5</ele><time>2026-04-05T15:56:34.811Z</time></trkpt><trkpt lat="45.8647883" lon="9.07701"><ele>1019.25</ele><time>2026-04-05T15:56:35.811Z</time></trkpt><trkpt lat="45.864905" lon="9.0769817"><ele>1020.0</ele><time>2026-04-05T15:56:36.811Z</time></trkpt><trkpt lat="45.865015" lon="9.076965"><ele>1020.75</ele><time>2026-04-05T15:56:37.81Z</time></trkpt><trkpt lat="45.8651333" lon="9.0769567"><ele>1021.5</ele><time>2026-04-05T15:56:38.81Z</time></trkpt><trkpt lat="45.8652567" lon="9.0769783"><ele>1022.25</ele><time>2026-04-05T15:56:39.81Z</time></trkpt><trkpt lat="45.8653933" lon="9.0770083"><ele>1023.0</ele><time>2026-04-05T15:56:40.811Z</time></trkpt><trkpt lat="45.8655183" lon="9.07702"><ele>1023.0</ele><time>2026-04-05T15:56:41.81Z</time></trkpt><trkpt lat="45.8656633" lon="9.0770433"><ele>1023.0</ele><time>2026-04-05T15:56:42.81Z</time></trkpt><trkpt lat="45.8658033" lon="9.077045"><ele>1023.0</ele><time>2026-04-05T15:56:43.81Z</time></trkpt><trkpt lat="45.8659433" lon="9.0770317"><ele>1023.0</ele><time>2026-04-05T15:56:44.81Z</time></trkpt><trkpt lat="45.866075" lon="9.0770233"><ele>1024.6</ele><time>2026-04-05T15:56:45.811Z</time></trkpt><trkpt lat="45.8662017" lon="9.077005"><ele>1026.1999999999998</ele><time>2026-04-05T15:56:46.811Z</time></trkpt><trkpt lat="45.86632" lon="9.0769883"><ele>1027.8</ele><time>2026-04-05T15:56:47.81Z</time></trkpt><trkpt lat="45.8664283" lon="9.0769883"><ele>1029.3999999999999</ele><time>2026-04-05T15:56:48.81Z</time></trkpt><trkpt lat="45.8665167" lon="9.0769867"><ele>1031.0</ele><time>2026-04-05T15:56:49.811Z</time></trkpt><trkpt lat="45.8665833" lon="9.0769883"><ele>1031.0</ele><time>2026-04-05T15:56:50.81Z</time></trkpt><trkpt lat="45.86667" lon="9.0770067"><ele>1031.0</ele><time>2026-04-05T15:56:52.81Z</time></trkpt><trkpt lat="45.8667383" lon="9.0770017"><ele>1031.0</ele><time>2026-04-05T15:57:11.81Z</time></trkpt><trkpt lat="45.8668133" lon="9.077"><ele>1031.0</ele><time>2026-04-05T15:57:17.81Z</time></trkpt><trkpt lat="45.8669083" lon="9.077015"><ele>1031.0</ele><time>2026-04-05T15:57:19.81Z</time></trkpt><trkpt lat="45.8669717" lon="9.077035"><ele>1031.0</ele><time>2026-04-05T15:57:20.81Z</time></trkpt><trkpt lat="45.867045" lon="9.077065"><ele>1030.3999999999999</ele><time>2026-04-05T15:57:21.81Z</time></trkpt><trkpt lat="45.8671283" lon="9.0770933"><ele>1029.8</ele><time>2026-04-05T15:57:22.811Z</time></trkpt><trkpt lat="45.8672217" lon="9.0771267"><ele>1029.1999999999998</ele><time>2026-04-05T15:57:23.81Z</time></trkpt><trkpt lat="45.86732" lon="9.0771733"><ele>1028.6</ele><time>2026-04-05T15:57:24.81Z</time></trkpt><trkpt lat="45.8674233" lon="9.077225"><ele>1028.0</ele><time>2026-04-05T15:57:25.81Z</time></trkpt><trkpt lat="45.86753" lon="9.0772683"><ele>1028.6</ele><time>2026-04-05T15:57:26.81Z</time></trkpt><trkpt lat="45.8676267" lon="9.0772967"><ele>1029.1999999999998</ele><time>2026-04-05T15:57:27.811Z</time></trkpt><trkpt lat="45.8677267" lon="9.0773233"><ele>1029.8</ele><time>2026-04-05T15:57:28.81Z</time></trkpt><trkpt lat="45.867825" lon="9.0773433"><ele>1030.3999999999999</ele><time>2026-04-05T15:57:29.81Z</time></trkpt><trkpt lat="45.867915" lon="9.07736"><ele>1031.0</ele><time>2026-04-05T15:57:30.81Z</time></trkpt><trkpt lat="45.868005" lon="9.0773717"><ele>1031.0</ele><time>2026-04-05T15:57:31.81Z</time></trkpt><trkpt lat="45.8681033" lon="9.0773767"><ele>1031.0</ele><time>2026-04-05T15:57:32.81Z</time></trkpt><trkpt lat="45.8682033" lon="9.07738"><ele>1031.0</ele><time>2026-04-05T15:57:33.81Z</time></trkpt><trkpt lat="45.868305" lon="9.0773983"><ele>1031.0</ele><time>2026-04-05T15:57:34.81Z</time></trkpt><trkpt lat="45.86841" lon="9.0774167"><ele>1031.0</ele><time>2026-04-05T15:57:35.81Z</time></trkpt><trkpt lat="45.86851" lon="9.0774133"><ele>1036.0</ele><time>2026-04-05T15:57:36.81Z</time></trkpt><trkpt lat="45.8686033" lon="9.077385"><ele>1041.0</ele><time>2026-04-05T15:57:37.81Z</time></trkpt><trkpt lat="45.8686967" lon="9.07734"><ele>1046.0</ele><time>2026-04-05T15:57:38.811Z</time></trkpt><trkpt lat="45.86878" lon="9.07728"><ele>1051.0</ele><time>2026-04-05T15:57:39.81Z</time></trkpt><trkpt lat="45.86886" lon="9.0772083"><ele>1056.0</ele><time>2026-04-05T15:57:40.81Z</time></trkpt><trkpt lat="45.8689383" lon="9.0771217"><ele>1056.0</ele><time>2026-04-05T15:57:41.811Z</time></trkpt><trkpt lat="45.8690033" lon="9.0770283"><ele>1056.0</ele><time>2026-04-05T15:57:42.811Z</time></trkpt><trkpt lat="45.8690667" lon="9.0769367"><ele>1056.0</ele><time>2026-04-05T15:57:43.81Z</time></trkpt><trkpt lat="45.8691217" lon="9.076855"><ele>1056.0</ele><time>2026-04-05T15:57:44.81Z</time></trkpt><trkpt lat="45.86919" lon="9.0768"><ele>1056.0</ele><time>2026-04-05T15:57:45.81Z</time></trkpt><trkpt lat="45.8692667" lon="9.0767817"><ele>1056.0</ele><time>2026-04-05T15:57:46.811Z</time></trkpt><trkpt lat="45.8693517" lon="9.0767883"><ele>1059.0</ele><time>2026-04-05T15:57:47.81Z</time></trkpt><trkpt lat="45.8694433" lon="9.0768183"><ele>1062.0</ele><time>2026-04-05T15:57:48.81Z</time></trkpt><trkpt lat="45.8695433" lon="9.0768433"><ele>1065.0</ele><time>2026-04-05T15:57:49.81Z</time></trkpt><trkpt lat="45.8696433" lon="9.0768683"><ele>1068.0</ele><time>2026-04-05T15:57:50.81Z</time></trkpt><trkpt lat="45.86974" lon="9.07688"><ele>1071.0</ele><time>2026-04-05T15:57:51.811Z</time></trkpt><trkpt lat="45.8698483" lon="9.07688"><ele>1071.0</ele><time>2026-04-05T15:57:52.81Z</time></trkpt><trkpt lat="45.8699567" lon="9.0768733"><ele>1071.0</ele><time>2026-04-05T15:57:53.811Z</time></trkpt><trkpt lat="45.8700717" lon="9.0768567"><ele>1071.0</ele><time>2026-04-05T15:57:54.81Z</time></trkpt><trkpt lat="45.87019" lon="9.0768333"><ele>1071.0</ele><time>2026-04-05T15:57:55.81Z</time></trkpt><trkpt lat="45.8703033" lon="9.0767933"><ele>1068.75</ele><time>2026-04-05T15:57:56.81Z</time></trkpt><trkpt lat="45.8704067" lon="9.0767233"><ele>1066.5</ele><time>2026-04-05T15:57:57.811Z</time></trkpt><trkpt lat="45.8705183" lon="9.0766367"><ele>1064.25</ele><time>2026-04-05T15:57:58.81Z</time></trkpt><trkpt lat="45.870625" lon="9.0765517"><ele>1062.0</ele><time>2026-04-05T15:57:59.81Z</time></trkpt><trkpt lat="45.8707283" lon="9.0764617"><ele>1062.0</ele><time>2026-04-05T15:58:00.81Z</time></trkpt><trkpt lat="45.8708517" lon="9.0763767"><ele>1062.0</ele><time>2026-04-05T15:58:01.811Z</time></trkpt><trkpt lat="45.870975" lon="9.0762983"><ele>1062.0</ele><time>2026-04-05T15:58:02.81Z</time></trkpt><trkpt lat="45.8710983" lon="9.076235"><ele>1062.0</ele><time>2026-04-05T15:58:03.811Z</time></trkpt><trkpt lat="45.871205" lon="9.0761833"><ele>1065.5</ele><time>2026-04-05T15:58:04.811Z</time></trkpt><trkpt lat="45.8712983" lon="9.0761383"><ele>1069.0</ele><time>2026-04-05T15:58:05.81Z</time></trkpt><trkpt lat="45.8713683" lon="9.0760883"><ele>1072.5</ele><time>2026-04-05T15:58:06.81Z</time></trkpt><trkpt lat="45.8714217" lon="9.07603"><ele>1076.0</ele><time>2026-04-05T15:58:07.81Z</time></trkpt><trkpt lat="45.87147" lon="9.07595"><ele>1079.5</ele><time>2026-04-05T15:58:08.81Z</time></trkpt><trkpt lat="45.8715183" lon="9.0758467"><ele>1083.0</ele><time>2026-04-05T15:58:09.81Z</time></trkpt><trkpt lat="45.8715583" lon="9.0757367"><ele>1083.0</ele><time>2026-04-05T15:58:10.81Z</time></trkpt><trkpt lat="45.8715833" lon="9.0756267"><ele>1083.0</ele><time>2026-04-05T15:58:11.811Z</time></trkpt><trkpt lat="45.871615" lon="9.07546"><ele>1083.0</ele><time>2026-04-05T15:58:13.811Z</time></trkpt><trkpt lat="45.87168" lon="9.0753117"><ele>1083.0</ele><time>2026-04-05T15:58:15.81Z</time></trkpt><trkpt lat="45.871745" lon="9.0752333"><ele>1083.0</ele><time>2026-04-05T15:58:16.811Z</time></trkpt><trkpt lat="45.8718183" lon="9.07514"><ele>1090.8</ele><time>2026-04-05T15:58:17.81Z</time></trkpt><trkpt lat="45.8719167" lon="9.07505"><ele>1098.6</ele><time>2026-04-05T15:58:18.81Z</time></trkpt><trkpt lat="45.872" lon="9.07495"><ele>1106.4</ele><time>2026-04-05T15:58:19.81Z</time></trkpt><trkpt lat="45.8720783" lon="9.0748617"><ele>1114.2</ele><time>2026-04-05T15:58:20.81Z</time></trkpt><trkpt lat="45.87215" lon="9.074785"><ele>1122.0</ele><time>2026-04-05T15:58:21.81Z</time></trkpt><trkpt lat="45.8721983" lon="9.074725"><ele>1122.0</ele><time>2026-04-05T15:58:22.811Z</time></trkpt><trkpt lat="45.8722567" lon="9.0746417"><ele>1122.0</ele><time>2026-04-05T15:58:24.81Z</time></trkpt><trkpt lat="45.8723017" lon="9.074485"><ele>1122.0</ele><time>2026-04-05T15:58:27.81Z</time></trkpt><trkpt lat="45.8723" lon="9.0743767"><ele>1122.0</ele><time>2026-04-05T15:58:28.811Z</time></trkpt><trkpt lat="45.8723033" lon="9.0742517"><ele>1122.0</ele><time>2026-04-05T15:58:29.81Z</time></trkpt><trkpt lat="45.8723067" lon="9.0741267"><ele>1124.0</ele><time>2026-04-05T15:58:30.81Z</time></trkpt><trkpt lat="45.8723233" lon="9.0739983"><ele>1126.0</ele><time>2026-04-05T15:58:31.81Z</time></trkpt><trkpt lat="45.8723383" lon="9.0738783"><ele>1128.0</ele><time>2026-04-05T15:58:32.811Z</time></trkpt><trkpt lat="45.8723583" lon="9.0737467"><ele>1130.0</ele><time>2026-04-05T15:58:33.81Z</time></trkpt><trkpt lat="45.8723783" lon="9.0736033"><ele>1132.0</ele><time>2026-04-05T15:58:34.81Z</time></trkpt><trkpt lat="45.8724" lon="9.073475"><ele>1132.0</ele><time>2026-04-05T15:58:35.81Z</time></trkpt><trkpt lat="45.8724383" lon="9.0733433"><ele>1132.0</ele><time>2026-04-05T15:58:36.81Z</time></trkpt><trkpt lat="45.8724933" lon="9.073205"><ele>1132.0</ele><time>2026-04-05T15:58:37.81Z</time></trkpt><trkpt lat="45.872535" lon="9.07308"><ele>1132.0</ele><time>2026-04-05T15:58:38.81Z</time></trkpt><trkpt lat="45.8725667" lon="9.07298"><ele>1132.0</ele><time>2026-04-05T15:58:39.811Z</time></trkpt><trkpt lat="45.8725783" lon="9.0728667"><ele>1134.8</ele><time>2026-04-05T15:58:40.81Z</time></trkpt><trkpt lat="45.87259" lon="9.0727633"><ele>1137.6</ele><time>2026-04-05T15:58:41.81Z</time></trkpt><trkpt lat="45.8725417" lon="9.0726133"><ele>1140.3999999999999</ele><time>2026-04-05T15:58:43.81Z</time></trkpt><trkpt lat="45.87248" lon="9.0725367"><ele>1143.2</ele><time>2026-04-05T15:58:44.811Z</time></trkpt><trkpt lat="45.87239" lon="9.0724683"><ele>1146.0</ele><time>2026-04-05T15:58:45.811Z</time></trkpt><trkpt lat="45.8722967" lon="9.0723933"><ele>1149.8</ele><time>2026-04-05T15:58:46.81Z</time></trkpt><trkpt lat="45.8722033" lon="9.0723133"><ele>1153.6</ele><time>2026-04-05T15:58:47.811Z</time></trkpt><trkpt lat="45.8721167" lon="9.0722333"><ele>1157.4</ele><time>2026-04-05T15:58:48.811Z</time></trkpt><trkpt lat="45.8720417" lon="9.0721583"><ele>1161.2</ele><time>2026-04-05T15:58:49.81Z</time></trkpt><trkpt lat="45.871965" lon="9.07208"><ele>1165.0</ele><time>2026-04-05T15:58:50.81Z</time></trkpt><trkpt lat="45.8719067" lon="9.072"><ele>1165.0</ele><time>2026-04-05T15:58:51.81Z</time></trkpt><trkpt lat="45.8718633" lon="9.07191"><ele>1165.0</ele><time>2026-04-05T15:58:52.81Z</time></trkpt><trkpt lat="45.8718433" lon="9.071805"><ele>1165.0</ele><time>2026-04-05T15:58:53.81Z</time></trkpt><trkpt lat="45.8718333" lon="9.07168"><ele>1165.0</ele><time>2026-04-05T15:58:54.811Z</time></trkpt><trkpt lat="45.8718283" lon="9.07154"><ele>1165.0</ele><time>2026-04-05T15:58:55.811Z</time></trkpt><trkpt lat="45.8718367" lon="9.0713917"><ele>1165.0</ele><time>2026-04-05T15:58:56.81Z</time></trkpt><trkpt lat="45.87185" lon="9.071245"><ele>1168.2</ele><time>2026-04-05T15:58:57.81Z</time></trkpt><trkpt lat="45.8718617" lon="9.071085"><ele>1171.4</ele><time>2026-04-05T15:58:58.81Z</time></trkpt><trkpt lat="45.8718717" lon="9.070925"><ele>1174.6</ele><time>2026-04-05T15:58:59.81Z</time></trkpt><trkpt lat="45.871875" lon="9.070765"><ele>1177.8</ele><time>2026-04-05T15:59:00.81Z</time></trkpt><trkpt lat="45.871875" lon="9.0706133"><ele>1181.0</ele><time>2026-04-05T15:59:01.811Z</time></trkpt><trkpt lat="45.8718783" lon="9.0704733"><ele>1185.6</ele><time>2026-04-05T15:59:02.81Z</time></trkpt><trkpt lat="45.8718683" lon="9.0703717"><ele>1190.1999999999998</ele><time>2026-04-05T15:59:03.81Z</time></trkpt><trkpt lat="45.8718217" lon="9.07025"><ele>1194.8000000000002</ele><time>2026-04-05T15:59:05.81Z</time></trkpt><trkpt lat="45.87171" lon="9.0701267"><ele>1199.4</ele><time>2026-04-05T15:59:07.81Z</time></trkpt><trkpt lat="45.871635" lon="9.0700633"><ele>1204.0</ele><time>2026-04-05T15:59:08.81Z</time></trkpt><trkpt lat="45.8715633" lon="9.0699917"><ele>1198.3333333333333</ele><time>2026-04-05T15:59:09.811Z</time></trkpt><trkpt lat="45.871515" lon="9.0699083"><ele>1192.6666666666665</ele><time>2026-04-05T15:59:10.81Z</time></trkpt><trkpt lat="45.8714833" lon="9.069805"><ele>1187.0</ele><time>2026-04-05T15:59:11.811Z</time></trkpt><trkpt lat="45.8714583" lon="9.0696667"><ele>1181.3333333333333</ele><time>2026-04-05T15:59:12.81Z</time></trkpt><trkpt lat="45.8714417" lon="9.069525"><ele>1175.6666666666667</ele><time>2026-04-05T15:59:13.81Z</time></trkpt><trkpt lat="45.871435" lon="9.0693883"><ele>1170.0</ele><time>2026-04-05T15:59:14.81Z</time></trkpt><trkpt lat="45.87144" lon="9.06925"><ele>1170.0</ele><time>2026-04-05T15:59:15.81Z</time></trkpt><trkpt lat="45.871455" lon="9.0691217"><ele>1170.0</ele><time>2026-04-05T15:59:16.81Z</time></trkpt><trkpt lat="45.8714633" lon="9.0689983"><ele>1170.0</ele><time>2026-04-05T15:59:17.81Z</time></trkpt><trkpt lat="45.871475" lon="9.0688933"><ele>1170.0</ele><time>2026-04-05T15:59:18.811Z</time></trkpt><trkpt lat="45.8714367" lon="9.06872"><ele>1170.0</ele><time>2026-04-05T15:59:20.81Z</time></trkpt><trkpt lat="45.8713683" lon="9.0686333"><ele>1173.5</ele><time>2026-04-05T15:59:21.81Z</time></trkpt><trkpt lat="45.87128" lon="9.068565"><ele>1177.0</ele><time>2026-04-05T15:59:22.81Z</time></trkpt><trkpt lat="45.8711783" lon="9.0685033"><ele>1180.5</ele><time>2026-04-05T15:59:23.811Z</time></trkpt><trkpt lat="45.87106" lon="9.06846"><ele>1184.0</ele><time>2026-04-05T15:59:24.81Z</time></trkpt><trkpt lat="45.87092" lon="9.068455"><ele>1177.0</ele><time>2026-04-05T15:59:25.81Z</time></trkpt><trkpt lat="45.8707667" lon="9.0684617"><ele>1170.0</ele><time>2026-04-05T15:59:26.81Z</time></trkpt><trkpt lat="45.8706267" lon="9.0684733"><ele>1163.0</ele><time>2026-04-05T15:59:27.81Z</time></trkpt><trkpt lat="45.8704833" lon="9.0685533"><ele>1156.0</ele><time>2026-04-05T15:59:28.811Z</time></trkpt><trkpt lat="45.8703633" lon="9.0685667"><ele>1156.0</ele><time>2026-04-05T15:59:29.81Z</time></trkpt><trkpt lat="45.8702567" lon="9.0685767"><ele>1156.0</ele><time>2026-04-05T15:59:30.81Z</time></trkpt><trkpt lat="45.8701617" lon="9.0685833"><ele>1156.0</ele><time>2026-04-05T15:59:31.81Z</time></trkpt><trkpt lat="45.870085" lon="9.0685967"><ele>1156.0</ele><time>2026-04-05T15:59:32.811Z</time></trkpt><trkpt lat="45.870005" lon="9.0686"><ele>1156.0</ele><time>2026-04-05T15:59:33.811Z</time></trkpt><trkpt lat="45.8699217" lon="9.0685917"><ele>1156.0</ele><time>2026-04-05T15:59:34.81Z</time></trkpt><trkpt lat="45.86983" lon="9.0685783"><ele>1156.5</ele><time>2026-04-05T15:59:35.811Z</time></trkpt><trkpt lat="45.8697467" lon="9.0685467"><ele>1157.0</ele><time>2026-04-05T15:59:36.81Z</time></trkpt><trkpt lat="45.86968" lon="9.0685267"><ele>1157.5</ele><time>2026-04-05T15:59:37.81Z</time></trkpt><trkpt lat="45.869635" lon="9.068445"><ele>1158.0</ele><time>2026-04-05T15:59:39.81Z</time></trkpt><trkpt lat="45.8696933" lon="9.06838"><ele>1158.5</ele><time>2026-04-05T15:59:41.81Z</time></trkpt><trkpt lat="45.8697683" lon="9.06839"><ele>1159.0</ele><time>2026-04-05T15:59:42.81Z</time></trkpt><trkpt lat="45.8698483" lon="9.0684017"><ele>1159.0</ele><time>2026-04-05T15:59:43.81Z</time></trkpt><trkpt lat="45.8699367" lon="9.068405"><ele>1159.0</ele><time>2026-04-05T15:59:44.811Z</time></trkpt><trkpt lat="45.8700367" lon="9.0684017"><ele>1159.0</ele><time>2026-04-05T15:59:45.81Z</time></trkpt><trkpt lat="45.8701567" lon="9.0683617"><ele>1159.0</ele><time>2026-04-05T15:59:46.81Z</time></trkpt><trkpt lat="45.8702767" lon="9.0683217"><ele>1159.0</ele><time>2026-04-05T15:59:47.811Z</time></trkpt><trkpt lat="45.8703833" lon="9.0682717"><ele>1166.0</ele><time>2026-04-05T15:59:48.81Z</time></trkpt><trkpt lat="45.8704783" lon="9.0682183"><ele>1173.0</ele><time>2026-04-05T15:59:49.811Z</time></trkpt><trkpt lat="45.8705583" lon="9.0681733"><ele>1180.0</ele><time>2026-04-05T15:59:50.81Z</time></trkpt><trkpt lat="45.8706433" lon="9.0681233"><ele>1187.0</ele><time>2026-04-05T15:59:51.81Z</time></trkpt><trkpt lat="45.87072" lon="9.068095"><ele>1194.0</ele><time>2026-04-05T15:59:52.811Z</time></trkpt><trkpt lat="45.8708" lon="9.0680617"><ele>1201.0</ele><time>2026-04-05T15:59:53.81Z</time></trkpt><trkpt lat="45.8708967" lon="9.0680333"><ele>1205.5</ele><time>2026-04-05T15:59:54.81Z</time></trkpt><trkpt lat="45.8710083" lon="9.0680033"><ele>1210.0</ele><time>2026-04-05T15:59:55.81Z</time></trkpt><trkpt lat="45.8711183" lon="9.0679783"><ele>1214.5</ele><time>2026-04-05T15:59:56.81Z</time></trkpt><trkpt lat="45.87123" lon="9.06797"><ele>1219.0</ele><time>2026-04-05T15:59:57.811Z</time></trkpt><trkpt lat="45.8713483" lon="9.0679767"><ele>1219.0</ele><time>2026-04-05T15:59:58.81Z</time></trkpt><trkpt lat="45.8714683" lon="9.0680017"><ele>1219.0</ele><time>2026-04-05T15:59:59.81Z</time></trkpt><trkpt lat="45.8715867" lon="9.0680417"><ele>1219.0</ele><time>2026-04-05T16:00:00.81Z</time></trkpt><trkpt lat="45.87169" lon="9.0681017"><ele>1219.0</ele><time>2026-04-05T16:00:01.811Z</time></trkpt><trkpt lat="45.87178" lon="9.06821"><ele>1221.8</ele><time>2026-04-05T16:00:02.81Z</time></trkpt><trkpt lat="45.8718633" lon="9.0683167"><ele>1224.6000000000001</ele><time>2026-04-05T16:00:03.81Z</time></trkpt><trkpt lat="45.871935" lon="9.0684233"><ele>1227.4</ele><time>2026-04-05T16:00:04.81Z</time></trkpt><trkpt lat="45.872005" lon="9.0685183"><ele>1230.2</ele><time>2026-04-05T16:00:05.81Z</time></trkpt><trkpt lat="45.8720533" lon="9.0686133"><ele>1233.0</ele><time>2026-04-05T16:00:06.81Z</time></trkpt><trkpt lat="45.8720833" lon="9.0687283"><ele>1233.0</ele><time>2026-04-05T16:00:07.81Z</time></trkpt><trkpt lat="45.8720917" lon="9.068855"><ele>1233.0</ele><time>2026-04-05T16:00:08.81Z</time></trkpt><trkpt lat="45.8720867" lon="9.0689917"><ele>1233.0</ele><time>2026-04-05T16:00:09.81Z</time></trkpt><trkpt lat="45.8720917" lon="9.0691183"><ele>1233.0</ele><time>2026-04-05T16:00:10.81Z</time></trkpt><trkpt lat="45.8720967" lon="9.0692267"><ele>1233.0</ele><time>2026-04-05T16:00:11.81Z</time></trkpt><trkpt lat="45.8721167" lon="9.0693267"><ele>1233.0</ele><time>2026-04-05T16:00:12.81Z</time></trkpt><trkpt lat="45.872145" lon="9.0694167"><ele>1231.0</ele><time>2026-04-05T16:00:13.81Z</time></trkpt><trkpt lat="45.8721917" lon="9.069485"><ele>1229.0</ele><time>2026-04-05T16:00:14.81Z</time></trkpt><trkpt lat="45.8722633" lon="9.0695467"><ele>1227.0</ele><time>2026-04-05T16:00:15.81Z</time></trkpt><trkpt lat="45.872355" lon="9.0696067"><ele>1225.0</ele><time>2026-04-05T16:00:16.81Z</time></trkpt><trkpt lat="45.872445" lon="9.06968"><ele>1223.0</ele><time>2026-04-05T16:00:17.81Z</time></trkpt><trkpt lat="45.8725233" lon="9.069765"><ele>1223.0</ele><time>2026-04-05T16:00:18.81Z</time></trkpt><trkpt lat="45.8725817" lon="9.0698717"><ele>1223.0</ele><time>2026-04-05T16:00:19.81Z</time></trkpt><trkpt lat="45.8726267" lon="9.07"><ele>1223.0</ele><time>2026-04-05T16:00:20.81Z</time></trkpt><trkpt lat="45.872655" lon="9.0701567"><ele>1223.0</ele><time>2026-04-05T16:00:21.81Z</time></trkpt><trkpt lat="45.8726833" lon="9.0703417"><ele>1223.0</ele><time>2026-04-05T16:00:22.81Z</time></trkpt><trkpt lat="45.8727067" lon="9.0705133"><ele>1224.4</ele><time>2026-04-05T16:00:23.81Z</time></trkpt><trkpt lat="45.872745" lon="9.0706633"><ele>1225.8</ele><time>2026-04-05T16:00:24.81Z</time></trkpt><trkpt lat="45.8727933" lon="9.0707967"><ele>1227.2</ele><time>2026-04-05T16:00:25.81Z</time></trkpt><trkpt lat="45.8728483" lon="9.0709017"><ele>1228.6</ele><time>2026-04-05T16:00:26.811Z</time></trkpt><trkpt lat="45.87291" lon="9.0709833"><ele>1230.0</ele><time>2026-04-05T16:00:27.81Z</time></trkpt><trkpt lat="45.8729833" lon="9.07106"><ele>1230.0</ele><time>2026-04-05T16:00:28.81Z</time></trkpt><trkpt lat="45.8730767" lon="9.0711267"><ele>1230.0</ele><time>2026-04-05T16:00:29.81Z</time></trkpt><trkpt lat="45.873175" lon="9.0712017"><ele>1230.0</ele><time>2026-04-05T16:00:30.81Z</time></trkpt><trkpt lat="45.8732683" lon="9.071265"><ele>1230.0</ele><time>2026-04-05T16:00:31.81Z</time></trkpt><trkpt lat="45.873355" lon="9.07133"><ele>1230.0</ele><time>2026-04-05T16:00:32.81Z</time></trkpt><trkpt lat="45.8734383" lon="9.0713817"><ele>1231.4</ele><time>2026-04-05T16:00:33.81Z</time></trkpt><trkpt lat="45.8735267" lon="9.0714467"><ele>1232.8</ele><time>2026-04-05T16:00:34.811Z</time></trkpt><trkpt lat="45.873605" lon="9.0715183"><ele>1234.2</ele><time>2026-04-05T16:00:35.81Z</time></trkpt><trkpt lat="45.87368" lon="9.0715967"><ele>1235.6</ele><time>2026-04-05T16:00:36.811Z</time></trkpt><trkpt lat="45.8737483" lon="9.0716917"><ele>1237.0</ele><time>2026-04-05T16:00:37.81Z</time></trkpt><trkpt lat="45.87382" lon="9.0717917"><ele>1237.0</ele><time>2026-04-05T16:00:38.81Z</time></trkpt><trkpt lat="45.8738783" lon="9.0718967"><ele>1237.0</ele><time>2026-04-05T16:00:39.81Z</time></trkpt><trkpt lat="45.8739283" lon="9.072025"><ele>1237.0</ele><time>2026-04-05T16:00:40.81Z</time></trkpt><trkpt lat="45.8739683" lon="9.0721667"><ele>1237.0</ele><time>2026-04-05T16:00:41.81Z</time></trkpt><trkpt lat="45.873995" lon="9.0723317"><ele>1237.0</ele><time>2026-04-05T16:00:42.81Z</time></trkpt><trkpt lat="45.87402" lon="9.0724883"><ele>1235.4</ele><time>2026-04-05T16:00:43.811Z</time></trkpt><trkpt lat="45.8740383" lon="9.0726417"><ele>1233.8000000000002</ele><time>2026-04-05T16:00:44.81Z</time></trkpt><trkpt lat="45.874055" lon="9.0727933"><ele>1232.2</ele><time>2026-04-05T16:00:45.811Z</time></trkpt><trkpt lat="45.874065" lon="9.07295"><ele>1230.6000000000001</ele><time>2026-04-05T16:00:46.81Z</time></trkpt><trkpt lat="45.8740733" lon="9.0731033"><ele>1229.0</ele><time>2026-04-05T16:00:47.81Z</time></trkpt><trkpt lat="45.87409" lon="9.0732433"><ele>1228.2</ele><time>2026-04-05T16:00:48.81Z</time></trkpt><trkpt lat="45.8740983" lon="9.073395"><ele>1227.4</ele><time>2026-04-05T16:00:49.81Z</time></trkpt><trkpt lat="45.8741" lon="9.0735317"><ele>1226.6</ele><time>2026-04-05T16:00:50.81Z</time></trkpt><trkpt lat="45.8740917" lon="9.073665"><ele>1225.8</ele><time>2026-04-05T16:00:51.81Z</time></trkpt><trkpt lat="45.8740917" lon="9.0737917"><ele>1225.0</ele><time>2026-04-05T16:00:52.81Z</time></trkpt><trkpt lat="45.87408" lon="9.0739033"><ele>1225.0</ele><time>2026-04-05T16:00:53.811Z</time></trkpt><trkpt lat="45.874065" lon="9.0740667"><ele>1225.0</ele><time>2026-04-05T16:00:55.81Z</time></trkpt><trkpt lat="45.8741067" lon="9.0741417"><ele>1225.0</ele><time>2026-04-05T16:00:58.81Z</time></trkpt><trkpt lat="45.8741433" lon="9.074005"><ele>1225.0</ele><time>2026-04-05T16:01:01.81Z</time></trkpt><trkpt lat="45.8741433" lon="9.0738217"><ele>1225.0</ele><time>2026-04-05T16:01:03.81Z</time></trkpt><trkpt lat="45.8741467" lon="9.07371"><ele>1225.0</ele><time>2026-04-05T16:01:04.81Z</time></trkpt><trkpt lat="45.8741583" lon="9.0735783"><ele>1225.0</ele><time>2026-04-05T16:01:05.81Z</time></trkpt><trkpt lat="45.8741833" lon="9.07341"><ele>1225.0</ele><time>2026-04-05T16:01:06.81Z</time></trkpt><trkpt lat="45.8742033" lon="9.07325"><ele>1225.0</ele><time>2026-04-05T16:01:07.811Z</time></trkpt><trkpt lat="45.874215" lon="9.0731067"><ele>1225.0</ele><time>2026-04-05T16:01:08.81Z</time></trkpt><trkpt lat="45.87422" lon="9.0729667"><ele>1225.8</ele><time>2026-04-05T16:01:09.81Z</time></trkpt><trkpt lat="45.87422" lon="9.0728283"><ele>1226.6</ele><time>2026-04-05T16:01:10.81Z</time></trkpt><trkpt lat="45.8742283" lon="9.072695"><ele>1227.4</ele><time>2026-04-05T16:01:11.81Z</time></trkpt><trkpt lat="45.874235" lon="9.0725567"><ele>1228.2</ele><time>2026-04-05T16:01:12.81Z</time></trkpt><trkpt lat="45.874245" lon="9.07241"><ele>1229.0</ele><time>2026-04-05T16:01:13.81Z</time></trkpt><trkpt lat="45.8742517" lon="9.0722467"><ele>1229.0</ele><time>2026-04-05T16:01:14.81Z</time></trkpt><trkpt lat="45.8742717" lon="9.0720783"><ele>1229.0</ele><time>2026-04-05T16:01:15.811Z</time></trkpt><trkpt lat="45.8742917" lon="9.0719117"><ele>1229.0</ele><time>2026-04-05T16:01:16.81Z</time></trkpt><trkpt lat="45.8743133" lon="9.0717633"><ele>1229.0</ele><time>2026-04-05T16:01:17.81Z</time></trkpt><trkpt lat="45.8743233" lon="9.07163"><ele>1229.0</ele><time>2026-04-05T16:01:18.811Z</time></trkpt><trkpt lat="45.8743117" lon="9.0715033"><ele>1228.6666666666667</ele><time>2026-04-05T16:01:19.81Z</time></trkpt><trkpt lat="45.8742867" lon="9.0714033"><ele>1228.3333333333335</ele><time>2026-04-05T16:01:20.81Z</time></trkpt><trkpt lat="45.874245" lon="9.0713133"><ele>1228.0</ele><time>2026-04-05T16:01:21.811Z</time></trkpt><trkpt lat="45.87419" lon="9.071235"><ele>1227.6666666666667</ele><time>2026-04-05T16:01:22.81Z</time></trkpt><trkpt lat="45.8741283" lon="9.07115"><ele>1227.3333333333333</ele><time>2026-04-05T16:01:23.81Z</time></trkpt><trkpt lat="45.874055" lon="9.0710433"><ele>1227.0</ele><time>2026-04-05T16:01:24.81Z</time></trkpt><trkpt lat="45.8739717" lon="9.070935"><ele>1232.4</ele><time>2026-04-05T16:01:25.81Z</time></trkpt><trkpt lat="45.873885" lon="9.0708233"><ele>1237.8000000000002</ele><time>2026-04-05T16:01:26.81Z</time></trkpt><trkpt lat="45.8737967" lon="9.07071"><ele>1243.2</ele><time>2026-04-05T16:01:27.81Z</time></trkpt><trkpt lat="45.8737183" lon="9.0706033"><ele>1248.6000000000001</ele><time>2026-04-05T16:01:28.811Z</time></trkpt><trkpt lat="45.8736417" lon="9.0705067"><ele>1254.0</ele><time>2026-04-05T16:01:29.81Z</time></trkpt><trkpt lat="45.8735783" lon="9.0704133"><ele>1253.4</ele><time>2026-04-05T16:01:30.81Z</time></trkpt><trkpt lat="45.8735133" lon="9.070325"><ele>1252.8000000000002</ele><time>2026-04-05T16:01:31.81Z</time></trkpt><trkpt lat="45.8734567" lon="9.0702367"><ele>1252.1999999999998</ele><time>2026-04-05T16:01:32.811Z</time></trkpt><trkpt lat="45.87341" lon="9.0701383"><ele>1251.6</ele><time>2026-04-05T16:01:33.81Z</time></trkpt><trkpt lat="45.87337" lon="9.07002"><ele>1251.0</ele><time>2026-04-05T16:01:34.81Z</time></trkpt><trkpt lat="45.8733367" lon="9.0698783"><ele>1255.3999999999999</ele><time>2026-04-05T16:01:35.81Z</time></trkpt><trkpt lat="45.87331" lon="9.0697233"><ele>1259.8</ele><time>2026-04-05T16:01:36.811Z</time></trkpt><trkpt lat="45.8732883" lon="9.069565"><ele>1264.1999999999998</ele><time>2026-04-05T16:01:37.81Z</time></trkpt><trkpt lat="45.873265" lon="9.069415"><ele>1268.6</ele><time>2026-04-05T16:01:38.81Z</time></trkpt><trkpt lat="45.8732367" lon="9.0692817"><ele>1273.0</ele><time>2026-04-05T16:01:39.81Z</time></trkpt><trkpt lat="45.8732017" lon="9.0691667"><ele>1275.6</ele><time>2026-04-05T16:01:40.81Z</time></trkpt><trkpt lat="45.8731533" lon="9.06905"><ele>1278.1999999999998</ele><time>2026-04-05T16:01:41.81Z</time></trkpt><trkpt lat="45.87311" lon="9.0689433"><ele>1280.8</ele><time>2026-04-05T16:01:42.81Z</time></trkpt><trkpt lat="45.87308" lon="9.068825"><ele>1283.3999999999999</ele><time>2026-04-05T16:01:43.811Z</time></trkpt><trkpt lat="45.8730633" lon="9.06869"><ele>1286.0</ele><time>2026-04-05T16:01:44.81Z</time></trkpt><trkpt lat="45.873055" lon="9.0685433"><ele>1286.0</ele><time>2026-04-05T16:01:45.811Z</time></trkpt><trkpt lat="45.8730533" lon="9.0683867"><ele>1286.0</ele><time>2026-04-05T16:01:46.81Z</time></trkpt><trkpt lat="45.8730567" lon="9.0682367"><ele>1286.0</ele><time>2026-04-05T16:01:47.81Z</time></trkpt><trkpt lat="45.8730567" lon="9.0680933"><ele>1286.0</ele><time>2026-04-05T16:01:48.81Z</time></trkpt><trkpt lat="45.8730333" lon="9.067965"><ele>1286.0</ele><time>2026-04-05T16:01:49.81Z</time></trkpt><trkpt lat="45.8730033" lon="9.067835"><ele>1289.75</ele><time>2026-04-05T16:01:50.811Z</time></trkpt><trkpt lat="45.8729367" lon="9.0676933"><ele>1293.5</ele><time>2026-04-05T16:01:51.81Z</time></trkpt><trkpt lat="45.8728667" lon="9.0675533"><ele>1297.25</ele><time>2026-04-05T16:01:52.811Z</time></trkpt><trkpt lat="45.87278" lon="9.0674117"><ele>1301.0</ele><time>2026-04-05T16:01:53.81Z</time></trkpt><trkpt lat="45.872695" lon="9.067275"><ele>1297.5</ele><time>2026-04-05T16:01:54.81Z</time></trkpt><trkpt lat="45.8725883" lon="9.0671433"><ele>1294.0</ele><time>2026-04-05T16:01:55.81Z</time></trkpt><trkpt lat="45.8725067" lon="9.0670167"><ele>1290.5</ele><time>2026-04-05T16:01:56.81Z</time></trkpt><trkpt lat="45.8724333" lon="9.0669"><ele>1287.0</ele><time>2026-04-05T16:01:57.81Z</time></trkpt><trkpt lat="45.87236" lon="9.0667833"><ele>1287.0</ele><time>2026-04-05T16:01:58.81Z</time></trkpt><trkpt lat="45.8722767" lon="9.066655"><ele>1287.0</ele><time>2026-04-05T16:01:59.811Z</time></trkpt><trkpt lat="45.872195" lon="9.06654"><ele>1287.0</ele><time>2026-04-05T16:02:00.81Z</time></trkpt><trkpt lat="45.872105" lon="9.066435"><ele>1287.0</ele><time>2026-04-05T16:02:01.81Z</time></trkpt><trkpt lat="45.8720167" lon="9.0663417"><ele>1288.6</ele><time>2026-04-05T16:02:02.81Z</time></trkpt><trkpt lat="45.8719283" lon="9.066265"><ele>1290.1999999999998</ele><time>2026-04-05T16:02:03.81Z</time></trkpt><trkpt lat="45.87184" lon="9.066185"><ele>1291.8</ele><time>2026-04-05T16:02:04.81Z</time></trkpt><trkpt lat="45.871755" lon="9.066105"><ele>1293.4</ele><time>2026-04-05T16:02:05.81Z</time></trkpt><trkpt lat="45.8716683" lon="9.0660483"><ele>1295.0</ele><time>2026-04-05T16:02:06.81Z</time></trkpt><trkpt lat="45.871595" lon="9.066"><ele>1290.5</ele><time>2026-04-05T16:02:07.81Z</time></trkpt><trkpt lat="45.871535" lon="9.0659683"><ele>1286.0</ele><time>2026-04-05T16:02:08.811Z</time></trkpt><trkpt lat="45.871495" lon="9.0658883"><ele>1281.5</ele><time>2026-04-05T16:02:10.81Z</time></trkpt><trkpt lat="45.8715517" lon="9.06584"><ele>1277.0</ele><time>2026-04-05T16:02:12.811Z</time></trkpt><trkpt lat="45.8716533" lon="9.065925"><ele>1272.5</ele><time>2026-04-05T16:02:14.81Z</time></trkpt><trkpt lat="45.8717117" lon="9.06598"><ele>1268.0</ele><time>2026-04-05T16:02:15.81Z</time></trkpt><trkpt lat="45.8717683" lon="9.06603"><ele>1273.4</ele><time>2026-04-05T16:02:16.81Z</time></trkpt><trkpt lat="45.8718833" lon="9.066105"><ele>1278.8</ele><time>2026-04-05T16:02:18.81Z</time></trkpt><trkpt lat="45.8719533" lon="9.0661383"><ele>1284.2</ele><time>2026-04-05T16:02:19.811Z</time></trkpt><trkpt lat="45.872045" lon="9.0661783"><ele>1289.6</ele><time>2026-04-05T16:02:20.81Z</time></trkpt><trkpt lat="45.8721417" lon="9.0662333"><ele>1295.0</ele><time>2026-04-05T16:02:21.811Z</time></trkpt><trkpt lat="45.8722467" lon="9.0662967"><ele>1295.0</ele><time>2026-04-05T16:02:22.81Z</time></trkpt><trkpt lat="45.872345" lon="9.066365"><ele>1295.0</ele><time>2026-04-05T16:02:23.81Z</time></trkpt><trkpt lat="45.872435" lon="9.0664433"><ele>1295.0</ele><time>2026-04-05T16:02:24.81Z</time></trkpt><trkpt lat="45.8725317" lon="9.06653"><ele>1295.0</ele><time>2026-04-05T16:02:25.811Z</time></trkpt><trkpt lat="45.8726217" lon="9.0666267"><ele>1295.0</ele><time>2026-04-05T16:02:26.81Z</time></trkpt><trkpt lat="45.8727067" lon="9.0667317"><ele>1300.0</ele><time>2026-04-05T16:02:27.81Z</time></trkpt><trkpt lat="45.8727967" lon="9.0668417"><ele>1305.0</ele><time>2026-04-05T16:02:28.81Z</time></trkpt><trkpt lat="45.8728983" lon="9.0669583"><ele>1310.0</ele><time>2026-04-05T16:02:29.81Z</time></trkpt><trkpt lat="45.873005" lon="9.0670783"><ele>1315.0</ele><time>2026-04-05T16:02:30.81Z</time></trkpt><trkpt lat="45.8731017" lon="9.0672017"><ele>1315.0</ele><time>2026-04-05T16:02:31.81Z</time></trkpt><trkpt lat="45.8731867" lon="9.0673183"><ele>1315.0</ele><time>2026-04-05T16:02:32.81Z</time></trkpt><trkpt lat="45.8732683" lon="9.0674233"><ele>1315.0</ele><time>2026-04-05T16:02:33.811Z</time></trkpt><trkpt lat="45.8733467" lon="9.0675417"><ele>1315.0</ele><time>2026-04-05T16:02:34.81Z</time></trkpt><trkpt lat="45.8734217" lon="9.067655"><ele>1311.2</ele><time>2026-04-05T16:02:35.81Z</time></trkpt><trkpt lat="45.8734867" lon="9.0677967"><ele>1307.4</ele><time>2026-04-05T16:02:36.811Z</time></trkpt><trkpt lat="45.8735267" lon="9.0679383"><ele>1303.6</ele><time>2026-04-05T16:02:37.81Z</time></trkpt><trkpt lat="45.8735533" lon="9.0680883"><ele>1299.8</ele><time>2026-04-05T16:02:38.81Z</time></trkpt><trkpt lat="45.873575" lon="9.0682317"><ele>1296.0</ele><time>2026-04-05T16:02:39.81Z</time></trkpt><trkpt lat="45.8735933" lon="9.06835"><ele>1293.6666666666667</ele><time>2026-04-05T16:02:40.811Z</time></trkpt><trkpt lat="45.8736333" lon="9.0684533"><ele>1291.3333333333333</ele><time>2026-04-05T16:02:41.81Z</time></trkpt><trkpt lat="45.8736833" lon="9.0685533"><ele>1289.0</ele><time>2026-04-05T16:02:42.811Z</time></trkpt><trkpt lat="45.8737333" lon="9.0686567"><ele>1286.6666666666665</ele><time>2026-04-05T16:02:43.81Z</time></trkpt><trkpt lat="45.87377" lon="9.068735"><ele>1284.3333333333333</ele><time>2026-04-05T16:02:44.81Z</time></trkpt><trkpt lat="45.8737983" lon="9.0688183"><ele>1282.0</ele><time>2026-04-05T16:02:45.811Z</time></trkpt><trkpt lat="45.8738433" lon="9.0689"><ele>1282.0</ele><time>2026-04-05T16:02:47.81Z</time></trkpt><trkpt lat="45.8739" lon="9.0688217"><ele>1282.0</ele><time>2026-04-05T16:02:56.81Z</time></trkpt><trkpt lat="45.873865" lon="9.0687267"><ele>1282.0</ele><time>2026-04-05T16:02:58.811Z</time></trkpt><trkpt lat="45.8738" lon="9.068615"><ele>1282.0</ele><time>2026-04-05T16:03:00.81Z</time></trkpt><trkpt lat="45.8737417" lon="9.0684633"><ele>1282.0</ele><time>2026-04-05T16:03:02.81Z</time></trkpt><trkpt lat="45.8737167" lon="9.06837"><ele>1282.0</ele><time>2026-04-05T16:03:03.811Z</time></trkpt><trkpt lat="45.8736933" lon="9.068255"><ele>1284.8</ele><time>2026-04-05T16:03:04.811Z</time></trkpt><trkpt lat="45.8736733" lon="9.0681167"><ele>1287.6</ele><time>2026-04-05T16:03:05.81Z</time></trkpt><trkpt lat="45.8736583" lon="9.0679717"><ele>1290.3999999999999</ele><time>2026-04-05T16:03:06.81Z</time></trkpt><trkpt lat="45.8736483" lon="9.0678317"><ele>1293.1999999999998</ele><time>2026-04-05T16:03:07.81Z</time></trkpt><trkpt lat="45.873625" lon="9.06769"><ele>1296.0</ele><time>2026-04-05T16:03:08.81Z</time></trkpt><trkpt lat="45.87359" lon="9.067545"><ele>1299.0</ele><time>2026-04-05T16:03:09.811Z</time></trkpt><trkpt lat="45.87354" lon="9.0674067"><ele>1302.0</ele><time>2026-04-05T16:03:10.81Z</time></trkpt><trkpt lat="45.8734767" lon="9.0672633"><ele>1305.0</ele><time>2026-04-05T16:03:11.81Z</time></trkpt><trkpt lat="45.8734167" lon="9.0671283"><ele>1308.0</ele><time>2026-04-05T16:03:12.81Z</time></trkpt><trkpt lat="45.8733517" lon="9.066985"><ele>1307.4</ele><time>2026-04-05T16:03:13.81Z</time></trkpt><trkpt lat="45.8732917" lon="9.0668467"><ele>1306.8000000000002</ele><time>2026-04-05T16:03:14.81Z</time></trkpt><trkpt lat="45.8732317" lon="9.0667233"><ele>1306.2</ele><time>2026-04-05T16:03:15.81Z</time></trkpt><trkpt lat="45.873175" lon="9.066605"><ele>1305.6</ele><time>2026-04-05T16:03:16.81Z</time></trkpt><trkpt lat="45.87313" lon="9.066485"><ele>1305.0</ele><time>2026-04-05T16:03:17.81Z</time></trkpt><trkpt lat="45.8730783" lon="9.0663733"><ele>1305.0</ele><time>2026-04-05T16:03:18.81Z</time></trkpt><trkpt lat="45.873035" lon="9.0662617"><ele>1305.0</ele><time>2026-04-05T16:03:19.81Z</time></trkpt><trkpt lat="45.8729983" lon="9.066165"><ele>1305.0</ele><time>2026-04-05T16:03:20.81Z</time></trkpt><trkpt lat="45.87296" lon="9.06608"><ele>1305.0</ele><time>2026-04-05T16:03:21.811Z</time></trkpt><trkpt lat="45.8729117" lon="9.065925"><ele>1305.0</ele><time>2026-04-05T16:03:23.81Z</time></trkpt><trkpt lat="45.8728933" lon="9.06581"><ele>1305.0</ele><time>2026-04-05T16:03:25.811Z</time></trkpt></trkseg><trkseg><trkpt lat="45.8727167" lon="9.0659683"><ele>1305.0</ele><time>2026-04-05T16:20:28.382Z</time></trkpt><trkpt lat="45.8730583" lon="9.0663"><ele>1305.0</ele><time>2026-04-05T16:20:33.382Z</time></trkpt><trkpt lat="45.873295" lon="9.0665017"><ele>1302.8</ele><time>2026-04-05T16:20:51.383Z</time></trkpt><trkpt lat="45.8734633" lon="9.0665583"><ele>1300.6</ele><time>2026-04-05T16:21:10.811Z</time></trkpt><trkpt lat="45.87355" lon="9.0665783"><ele>1298.4</ele><time>2026-04-05T16:22:26.811Z</time></trkpt><trkpt lat="45.8736567" lon="9.066555"><ele>1296.2</ele><time>2026-04-05T16:22:56.811Z</time></trkpt><trkpt lat="45.8735883" lon="9.0665"><ele>1294.0</ele><time>2026-04-05T16:23:40.811Z</time></trkpt><trkpt lat="45.8735233" lon="9.0664583"><ele>1294.0</ele><time>2026-04-05T16:23:48.811Z</time></trkpt><trkpt lat="45.8735883" lon="9.0665067"><ele>1294.0</ele><time>2026-04-05T16:24:44.812Z</time></trkpt><trkpt lat="45.8735367" lon="9.06642"><ele>1294.0</ele><time>2026-04-05T16:24:47.811Z</time></trkpt><trkpt lat="45.8734717" lon="9.0664317"><ele>1294.0</ele><time>2026-04-05T16:27:34.811Z</time></trkpt><trkpt lat="45.8735517" lon="9.0664633"><ele>1294.0</ele><time>2026-04-05T16:27:51.811Z</time></trkpt><trkpt lat="45.8736183" lon="9.0664317"><ele>1294.0</ele><time>2026-04-05T16:28:06.811Z</time></trkpt><trkpt lat="45.87367" lon="9.0663733"><ele>1294.0</ele><time>2026-04-05T16:28:14.81Z</time></trkpt><trkpt lat="45.87377" lon="9.066425"><ele>1294.0</ele><time>2026-04-05T16:28:51.81Z</time></trkpt><trkpt lat="45.8738117" lon="9.0665067"><ele>1294.0</ele><time>2026-04-05T16:29:03.81Z</time></trkpt><trkpt lat="45.8738517" lon="9.06658"><ele>1294.0</ele><time>2026-04-05T16:29:10.81Z</time></trkpt><trkpt lat="45.873785" lon="9.0666033"><ele>1294.0</ele><time>2026-04-05T16:31:10.81Z</time></trkpt><trkpt lat="45.8737107" lon="9.0666271"><ele>1294.0</ele><time>2026-04-05T16:31:16.789Z</time></trkpt><trkpt lat="45.8736403" lon="9.0666753"><ele>1294.0</ele><time>2026-04-05T16:31:22.811Z</time></trkpt><trkpt lat="45.8735736" lon="9.0667036"><ele>1294.0</ele><time>2026-04-05T16:31:29.889Z</time></trkpt><trkpt lat="45.8735012" lon="9.0667155"><ele>1294.0</ele><time>2026-04-05T16:31:37.812Z</time></trkpt><trkpt lat="45.8734898" lon="9.0666221"><ele>1294.0</ele><time>2026-04-05T16:31:44.749Z</time></trkpt><trkpt lat="45.8734611" lon="9.0665334"><ele>1294.0</ele><time>2026-04-05T16:31:51.874Z</time></trkpt><trkpt lat="45.873445" lon="9.0664335"><ele>1294.0</ele><time>2026-04-05T16:31:57.81Z</time></trkpt><trkpt lat="45.8734291" lon="9.0663339"><ele>1294.0</ele><time>2026-04-05T16:32:04.829Z</time></trkpt><trkpt lat="45.8734744" lon="9.0662708"><ele>1294.0</ele><time>2026-04-05T16:32:12.868Z</time></trkpt><trkpt lat="45.8734514" lon="9.0661696"><ele>1294.0</ele><time>2026-04-05T16:32:24.768Z</time></trkpt><trkpt lat="45.8733974" lon="9.0661173"><ele>1295.5714285714284</ele><time>2026-04-05T16:32:30.729Z</time></trkpt><trkpt lat="45.8733297" lon="9.0661144"><ele>1297.142857142857</ele><time>2026-04-05T16:32:37.88Z</time></trkpt><trkpt lat="45.8732656" lon="9.0660946"><ele>1298.7142857142858</ele><time>2026-04-05T16:32:47.824Z</time></trkpt><trkpt lat="45.8732078" lon="9.0660404"><ele>1300.2857142857142</ele><time>2026-04-05T16:32:55.861Z</time></trkpt><trkpt lat="45.8731483" lon="9.0660058"><ele>1301.857142857143</ele><time>2026-04-05T16:33:02.892Z</time></trkpt><trkpt lat="45.8730929" lon="9.0659505"><ele>1303.4285714285713</ele><time>2026-04-05T16:33:09.824Z</time></trkpt><trkpt lat="45.8730484" lon="9.065871"><ele>1305.0</ele><time>2026-04-05T16:33:15.832Z</time></trkpt><trkpt lat="45.8729967" lon="9.0658163"><ele>1305.0</ele><time>2026-04-05T16:33:28.811Z</time></trkpt><trkpt lat="45.872936" lon="9.0657753"><ele>1305.0</ele><time>2026-04-05T16:33:36.845Z</time></trkpt><trkpt lat="45.8728683" lon="9.0658"><ele>1305.0</ele><time>2026-04-05T16:38:27.809Z</time></trkpt><trkpt lat="45.87285" lon="9.06589"><ele>1305.0</ele><time>2026-04-05T16:38:31.81Z</time></trkpt><trkpt lat="45.8728983" lon="9.0660267"><ele>1305.0</ele><time>2026-04-05T16:38:50.809Z</time></trkpt><trkpt lat="45.872965" lon="9.0661383"><ele>1305.0</ele><time>2026-04-05T16:38:52.809Z</time></trkpt><trkpt lat="45.87303" lon="9.0662783"><ele>1305.0</ele><time>2026-04-05T16:38:54.81Z</time></trkpt><trkpt lat="45.87309" lon="9.0664467"><ele>1305.0</ele><time>2026-04-05T16:38:56.81Z</time></trkpt><trkpt lat="45.8731283" lon="9.0665383"><ele>1305.0</ele><time>2026-04-05T16:38:57.809Z</time></trkpt><trkpt lat="45.8731717" lon="9.0666233"><ele>1305.0</ele><time>2026-04-05T16:38:58.809Z</time></trkpt><trkpt lat="45.8732083" lon="9.0667133"><ele>1305.0</ele><time>2026-04-05T16:38:59.809Z</time></trkpt><trkpt lat="45.873245" lon="9.0667933"><ele>1305.0</ele><time>2026-04-05T16:39:00.81Z</time></trkpt><trkpt lat="45.8732883" lon="9.0668883"><ele>1305.5</ele><time>2026-04-05T16:39:01.809Z</time></trkpt><trkpt lat="45.87333" lon="9.0669783"><ele>1306.0</ele><time>2026-04-05T16:39:02.81Z</time></trkpt><trkpt lat="45.8733767" lon="9.06708"><ele>1306.5</ele><time>2026-04-05T16:39:03.81Z</time></trkpt><trkpt lat="45.873425" lon="9.0671833"><ele>1307.0</ele><time>2026-04-05T16:39:04.809Z</time></trkpt><trkpt lat="45.8734733" lon="9.06729"><ele>1307.5</ele><time>2026-04-05T16:39:05.809Z</time></trkpt><trkpt lat="45.8735183" lon="9.0673917"><ele>1308.0</ele><time>2026-04-05T16:39:06.809Z</time></trkpt><trkpt lat="45.87356" lon="9.0674933"><ele>1306.0</ele><time>2026-04-05T16:39:07.809Z</time></trkpt><trkpt lat="45.8735933" lon="9.0675967"><ele>1304.0</ele><time>2026-04-05T16:39:08.809Z</time></trkpt><trkpt lat="45.87362" lon="9.0677033"><ele>1302.0</ele><time>2026-04-05T16:39:09.81Z</time></trkpt><trkpt lat="45.87364" lon="9.0678217"><ele>1300.0</ele><time>2026-04-05T16:39:10.81Z</time></trkpt><trkpt lat="45.8736533" lon="9.0679417"><ele>1298.0</ele><time>2026-04-05T16:39:11.809Z</time></trkpt><trkpt lat="45.8736667" lon="9.068065"><ele>1296.0</ele><time>2026-04-05T16:39:12.809Z</time></trkpt><trkpt lat="45.8736833" lon="9.068185"><ele>1293.6666666666667</ele><time>2026-04-05T16:39:13.809Z</time></trkpt><trkpt lat="45.8737017" lon="9.068305"><ele>1291.3333333333333</ele><time>2026-04-05T16:39:14.809Z</time></trkpt><trkpt lat="45.8737283" lon="9.068415"><ele>1289.0</ele><time>2026-04-05T16:39:15.809Z</time></trkpt><trkpt lat="45.8737617" lon="9.0685133"><ele>1286.6666666666665</ele><time>2026-04-05T16:39:16.809Z</time></trkpt><trkpt lat="45.8738033" lon="9.0685967"><ele>1284.3333333333333</ele><time>2026-04-05T16:39:17.809Z</time></trkpt><trkpt lat="45.8738483" lon="9.0686633"><ele>1282.0</ele><time>2026-04-05T16:39:18.81Z</time></trkpt><trkpt lat="45.87391" lon="9.06875"><ele>1282.0</ele><time>2026-04-05T16:39:20.809Z</time></trkpt><trkpt lat="45.8738783" lon="9.068845"><ele>1282.0</ele><time>2026-04-05T16:39:23.809Z</time></trkpt><trkpt lat="45.8738283" lon="9.068785"><ele>1282.0</ele><time>2026-04-05T16:39:25.809Z</time></trkpt><trkpt lat="45.8737633" lon="9.0686683"><ele>1282.0</ele><time>2026-04-05T16:39:27.809Z</time></trkpt><trkpt lat="45.8737067" lon="9.0685883"><ele>1282.0</ele><time>2026-04-05T16:39:28.809Z</time></trkpt><trkpt lat="45.8736567" lon="9.0684917"><ele>1282.0</ele><time>2026-04-05T16:39:29.809Z</time></trkpt><trkpt lat="45.87361" lon="9.0683883"><ele>1282.0</ele><time>2026-04-05T16:39:30.809Z</time></trkpt><trkpt lat="45.8735683" lon="9.0682767"><ele>1282.0</ele><time>2026-04-05T16:39:31.809Z</time></trkpt><trkpt lat="45.8735333" lon="9.0681583"><ele>1282.0</ele><time>2026-04-05T16:39:32.81Z</time></trkpt><trkpt lat="45.873505" lon="9.0680283"><ele>1282.0</ele><time>2026-04-05T16:39:33.809Z</time></trkpt><trkpt lat="45.873475" lon="9.0679017"><ele>1282.0</ele><time>2026-04-05T16:39:34.809Z</time></trkpt><trkpt lat="45.87344" lon="9.0677833"><ele>1285.8</ele><time>2026-04-05T16:39:35.809Z</time></trkpt><trkpt lat="45.8733933" lon="9.067665"><ele>1289.6</ele><time>2026-04-05T16:39:36.809Z</time></trkpt><trkpt lat="45.8733367" lon="9.067555"><ele>1293.3999999999999</ele><time>2026-04-05T16:39:37.809Z</time></trkpt><trkpt lat="45.8732683" lon="9.067445"><ele>1297.1999999999998</ele><time>2026-04-05T16:39:38.809Z</time></trkpt><trkpt lat="45.8731883" lon="9.0673317"><ele>1301.0</ele><time>2026-04-05T16:39:39.809Z</time></trkpt><trkpt lat="45.8731117" lon="9.0672233"><ele>1303.8</ele><time>2026-04-05T16:39:40.809Z</time></trkpt><trkpt lat="45.8730367" lon="9.0671183"><ele>1306.6</ele><time>2026-04-05T16:39:41.81Z</time></trkpt><trkpt lat="45.872955" lon="9.0670083"><ele>1309.4</ele><time>2026-04-05T16:39:42.809Z</time></trkpt><trkpt lat="45.8728717" lon="9.0668967"><ele>1312.2</ele><time>2026-04-05T16:39:43.81Z</time></trkpt><trkpt lat="45.8727867" lon="9.0668017"><ele>1315.0</ele><time>2026-04-05T16:39:44.809Z</time></trkpt><trkpt lat="45.8727" lon="9.0667017"><ele>1315.0</ele><time>2026-04-05T16:39:45.809Z</time></trkpt><trkpt lat="45.87262" lon="9.0666117"><ele>1315.0</ele><time>2026-04-05T16:39:46.809Z</time></trkpt><trkpt lat="45.8725367" lon="9.0665283"><ele>1315.0</ele><time>2026-04-05T16:39:47.809Z</time></trkpt><trkpt lat="45.87245" lon="9.0664433"><ele>1315.0</ele><time>2026-04-05T16:39:48.809Z</time></trkpt><trkpt lat="45.8723633" lon="9.06637"><ele>1315.0</ele><time>2026-04-05T16:39:49.809Z</time></trkpt><trkpt lat="45.8722733" lon="9.0663"><ele>1311.0</ele><time>2026-04-05T16:39:50.809Z</time></trkpt><trkpt lat="45.8721783" lon="9.06624"><ele>1307.0</ele><time>2026-04-05T16:39:51.809Z</time></trkpt><trkpt lat="45.8720833" lon="9.0661917"><ele>1303.0</ele><time>2026-04-05T16:39:52.81Z</time></trkpt><trkpt lat="45.87199" lon="9.0661483"><ele>1299.0</ele><time>2026-04-05T16:39:53.809Z</time></trkpt><trkpt lat="45.87189" lon="9.0660933"><ele>1295.0</ele><time>2026-04-05T16:39:54.809Z</time></trkpt><trkpt lat="45.8718" lon="9.0660383"><ele>1290.5</ele><time>2026-04-05T16:39:55.809Z</time></trkpt><trkpt lat="45.8717217" lon="9.0659783"><ele>1286.0</ele><time>2026-04-05T16:39:56.809Z</time></trkpt><trkpt lat="45.8716617" lon="9.0659167"><ele>1281.5</ele><time>2026-04-05T16:39:57.809Z</time></trkpt><trkpt lat="45.87161" lon="9.0658517"><ele>1277.0</ele><time>2026-04-05T16:39:58.81Z</time></trkpt><trkpt lat="45.871545" lon="9.065855"><ele>1272.5</ele><time>2026-04-05T16:40:00.809Z</time></trkpt><trkpt lat="45.8715867" lon="9.0660033"><ele>1268.0</ele><time>2026-04-05T16:40:03.81Z</time></trkpt><trkpt lat="45.8716467" lon="9.06606"><ele>1268.0</ele><time>2026-04-05T16:40:04.809Z</time></trkpt><trkpt lat="45.871725" lon="9.0661283"><ele>1268.0</ele><time>2026-04-05T16:40:05.809Z</time></trkpt><trkpt lat="45.8718067" lon="9.06619"><ele>1268.0</ele><time>2026-04-05T16:40:06.809Z</time></trkpt><trkpt lat="45.871895" lon="9.0662567"><ele>1268.0</ele><time>2026-04-05T16:40:07.809Z</time></trkpt><trkpt lat="45.8719817" lon="9.06633"><ele>1268.0</ele><time>2026-04-05T16:40:08.809Z</time></trkpt><trkpt lat="45.8720633" lon="9.0664083"><ele>1271.8</ele><time>2026-04-05T16:40:09.809Z</time></trkpt><trkpt lat="45.872145" lon="9.066495"><ele>1275.6</ele><time>2026-04-05T16:40:10.809Z</time></trkpt><trkpt lat="45.8722233" lon="9.0665933"><ele>1279.3999999999999</ele><time>2026-04-05T16:40:11.809Z</time></trkpt><trkpt lat="45.8722983" lon="9.066685"><ele>1283.1999999999998</ele><time>2026-04-05T16:40:12.81Z</time></trkpt><trkpt lat="45.8723683" lon="9.06679"><ele>1287.0</ele><time>2026-04-05T16:40:13.809Z</time></trkpt><trkpt lat="45.8724433" lon="9.0669067"><ele>1287.0</ele><time>2026-04-05T16:40:14.809Z</time></trkpt><trkpt lat="45.8725217" lon="9.067025"><ele>1287.0</ele><time>2026-04-05T16:40:15.809Z</time></trkpt><trkpt lat="45.8725883" lon="9.0671467"><ele>1287.0</ele><time>2026-04-05T16:40:16.809Z</time></trkpt><trkpt lat="45.872655" lon="9.06726"><ele>1287.0</ele><time>2026-04-05T16:40:17.809Z</time></trkpt><trkpt lat="45.8727133" lon="9.0673617"><ele>1287.0</ele><time>2026-04-05T16:40:18.809Z</time></trkpt><trkpt lat="45.8727767" lon="9.06747"><ele>1289.8</ele><time>2026-04-05T16:40:19.809Z</time></trkpt><trkpt lat="45.87283" lon="9.0675767"><ele>1292.6</ele><time>2026-04-05T16:40:20.81Z</time></trkpt><trkpt lat="45.8728817" lon="9.06769"><ele>1295.3999999999999</ele><time>2026-04-05T16:40:21.809Z</time></trkpt><trkpt lat="45.87293" lon="9.06781"><ele>1298.1999999999998</ele><time>2026-04-05T16:40:22.809Z</time></trkpt><trkpt lat="45.8729817" lon="9.0679417"><ele>1301.0</ele><time>2026-04-05T16:40:23.809Z</time></trkpt><trkpt lat="45.87301" lon="9.068075"><ele>1301.0</ele><time>2026-04-05T16:40:24.809Z</time></trkpt><trkpt lat="45.8730217" lon="9.0681967"><ele>1301.0</ele><time>2026-04-05T16:40:25.809Z</time></trkpt><trkpt lat="45.8730217" lon="9.0683167"><ele>1301.0</ele><time>2026-04-05T16:40:26.809Z</time></trkpt><trkpt lat="45.8730117" lon="9.06845"><ele>1301.0</ele><time>2026-04-05T16:40:27.81Z</time></trkpt><trkpt lat="45.8730067" lon="9.06858"><ele>1301.0</ele><time>2026-04-05T16:40:28.809Z</time></trkpt><trkpt lat="45.873015" lon="9.06871"><ele>1301.0</ele><time>2026-04-05T16:40:29.81Z</time></trkpt><trkpt lat="45.8730417" lon="9.0688317"><ele>1298.0</ele><time>2026-04-05T16:40:30.81Z</time></trkpt><trkpt lat="45.8730817" lon="9.06895"><ele>1295.0</ele><time>2026-04-05T16:40:31.81Z</time></trkpt><trkpt lat="45.8731333" lon="9.0690633"><ele>1292.0</ele><time>2026-04-05T16:40:32.809Z</time></trkpt><trkpt lat="45.8731817" lon="9.06919"><ele>1289.0</ele><time>2026-04-05T16:40:33.809Z</time></trkpt><trkpt lat="45.8732183" lon="9.0693167"><ele>1286.0</ele><time>2026-04-05T16:40:34.809Z</time></trkpt><trkpt lat="45.8732383" lon="9.0694467"><ele>1283.8333333333335</ele><time>2026-04-05T16:40:35.81Z</time></trkpt><trkpt lat="45.8732467" lon="9.06957"><ele>1281.6666666666667</ele><time>2026-04-05T16:40:36.809Z</time></trkpt><trkpt lat="45.8732617" lon="9.0696833"><ele>1279.5</ele><time>2026-04-05T16:40:37.809Z</time></trkpt><trkpt lat="45.873275" lon="9.0697833"><ele>1277.3333333333333</ele><time>2026-04-05T16:40:38.809Z</time></trkpt><trkpt lat="45.87329" lon="9.0698733"><ele>1275.1666666666665</ele><time>2026-04-05T16:40:39.809Z</time></trkpt><trkpt lat="45.873335" lon="9.0700433"><ele>1273.0</ele><time>2026-04-05T16:40:41.81Z</time></trkpt><trkpt lat="45.87337" lon="9.07014"><ele>1272.6</ele><time>2026-04-05T16:40:42.809Z</time></trkpt><trkpt lat="45.873425" lon="9.0702383"><ele>1272.1999999999998</ele><time>2026-04-05T16:40:43.809Z</time></trkpt><trkpt lat="45.8734917" lon="9.0703467"><ele>1271.8</ele><time>2026-04-05T16:40:44.809Z</time></trkpt><trkpt lat="45.87357" lon="9.0704583"><ele>1271.3999999999999</ele><time>2026-04-05T16:40:45.81Z</time></trkpt><trkpt lat="45.87366" lon="9.070575"><ele>1271.0</ele><time>2026-04-05T16:40:46.809Z</time></trkpt><trkpt lat="45.8737533" lon="9.0706917"><ele>1266.75</ele><time>2026-04-05T16:40:47.81Z</time></trkpt><trkpt lat="45.8738433" lon="9.0708117"><ele>1262.5</ele><time>2026-04-05T16:40:48.81Z</time></trkpt><trkpt lat="45.8739333" lon="9.0709267"><ele>1258.25</ele><time>2026-04-05T16:40:49.809Z</time></trkpt><trkpt lat="45.8740183" lon="9.07104"><ele>1254.0</ele><time>2026-04-05T16:40:50.81Z</time></trkpt><trkpt lat="45.8741083" lon="9.0711533"><ele>1254.0</ele><time>2026-04-05T16:40:51.809Z</time></trkpt><trkpt lat="45.8741867" lon="9.0712633"><ele>1254.0</ele><time>2026-04-05T16:40:52.809Z</time></trkpt><trkpt lat="45.8742417" lon="9.071355"><ele>1254.0</ele><time>2026-04-05T16:40:53.81Z</time></trkpt><trkpt lat="45.8742833" lon="9.0714483"><ele>1254.0</ele><time>2026-04-05T16:40:54.809Z</time></trkpt><trkpt lat="45.8743083" lon="9.0715433"><ele>1254.0</ele><time>2026-04-05T16:40:55.809Z</time></trkpt><trkpt lat="45.8743167" lon="9.07165"><ele>1254.0</ele><time>2026-04-05T16:40:56.809Z</time></trkpt><trkpt lat="45.87431" lon="9.0717817"><ele>1249.75</ele><time>2026-04-05T16:40:57.809Z</time></trkpt><trkpt lat="45.8742817" lon="9.071925"><ele>1245.5</ele><time>2026-04-05T16:40:58.809Z</time></trkpt><trkpt lat="45.8742483" lon="9.0721033"><ele>1241.25</ele><time>2026-04-05T16:40:59.809Z</time></trkpt><trkpt lat="45.8742217" lon="9.0722767"><ele>1237.0</ele><time>2026-04-05T16:41:00.809Z</time></trkpt><trkpt lat="45.8742" lon="9.0724633"><ele>1235.0</ele><time>2026-04-05T16:41:01.809Z</time></trkpt><trkpt lat="45.8741817" lon="9.072655"><ele>1233.0</ele><time>2026-04-05T16:41:02.809Z</time></trkpt><trkpt lat="45.8741767" lon="9.072835"><ele>1231.0</ele><time>2026-04-05T16:41:03.809Z</time></trkpt><trkpt lat="45.8741733" lon="9.0730033"><ele>1229.0</ele><time>2026-04-05T16:41:04.809Z</time></trkpt><trkpt lat="45.8741617" lon="9.0731667"><ele>1228.3333333333335</ele><time>2026-04-05T16:41:05.809Z</time></trkpt><trkpt lat="45.8741533" lon="9.07332"><ele>1227.6666666666667</ele><time>2026-04-05T16:41:06.81Z</time></trkpt><trkpt lat="45.87414" lon="9.0734533"><ele>1227.0</ele><time>2026-04-05T16:41:07.81Z</time></trkpt><trkpt lat="45.8741283" lon="9.073575"><ele>1226.3333333333333</ele><time>2026-04-05T16:41:08.81Z</time></trkpt><trkpt lat="45.8741083" lon="9.0737"><ele>1225.6666666666665</ele><time>2026-04-05T16:41:09.809Z</time></trkpt><trkpt lat="45.8741033" lon="9.0737967"><ele>1225.0</ele><time>2026-04-05T16:41:10.809Z</time></trkpt><trkpt lat="45.874105" lon="9.0738917"><ele>1225.0</ele><time>2026-04-05T16:41:11.809Z</time></trkpt><trkpt lat="45.8741067" lon="9.0740283"><ele>1225.0</ele><time>2026-04-05T16:41:13.809Z</time></trkpt><trkpt lat="45.8740367" lon="9.07404"><ele>1225.0</ele><time>2026-04-05T16:41:16.809Z</time></trkpt><trkpt lat="45.8740317" lon="9.0738933"><ele>1225.0</ele><time>2026-04-05T16:41:19.809Z</time></trkpt><trkpt lat="45.87404" lon="9.0737217"><ele>1225.0</ele><time>2026-04-05T16:41:21.809Z</time></trkpt><trkpt lat="45.874045" lon="9.0736183"><ele>1225.0</ele><time>2026-04-05T16:41:22.809Z</time></trkpt><trkpt lat="45.874045" lon="9.0735033"><ele>1225.0</ele><time>2026-04-05T16:41:23.81Z</time></trkpt><trkpt lat="45.8740417" lon="9.0733783"><ele>1225.0</ele><time>2026-04-05T16:41:24.809Z</time></trkpt><trkpt lat="45.8740267" lon="9.0732467"><ele>1225.0</ele><time>2026-04-05T16:41:25.809Z</time></trkpt><trkpt lat="45.87401" lon="9.0731217"><ele>1225.0</ele><time>2026-04-05T16:41:26.809Z</time></trkpt><trkpt lat="45.874" lon="9.0729833"><ele>1225.0</ele><time>2026-04-05T16:41:27.81Z</time></trkpt><trkpt lat="45.8739933" lon="9.07283"><ele>1225.8</ele><time>2026-04-05T16:41:28.809Z</time></trkpt><trkpt lat="45.8739767" lon="9.0726667"><ele>1226.6</ele><time>2026-04-05T16:41:29.809Z</time></trkpt><trkpt lat="45.873965" lon="9.0725117"><ele>1227.4</ele><time>2026-04-05T16:41:30.809Z</time></trkpt><trkpt lat="45.8739483" lon="9.0723583"><ele>1228.2</ele><time>2026-04-05T16:41:31.809Z</time></trkpt><trkpt lat="45.8739317" lon="9.0722183"><ele>1229.0</ele><time>2026-04-05T16:41:32.81Z</time></trkpt><trkpt lat="45.873905" lon="9.0720783"><ele>1230.6000000000001</ele><time>2026-04-05T16:41:33.81Z</time></trkpt><trkpt lat="45.8738767" lon="9.0719433"><ele>1232.2</ele><time>2026-04-05T16:41:34.809Z</time></trkpt><trkpt lat="45.8738333" lon="9.0718117"><ele>1233.8000000000002</ele><time>2026-04-05T16:41:35.81Z</time></trkpt><trkpt lat="45.8737733" lon="9.0716933"><ele>1235.4</ele><time>2026-04-05T16:41:36.809Z</time></trkpt><trkpt lat="45.8736933" lon="9.07159"><ele>1237.0</ele><time>2026-04-05T16:41:37.809Z</time></trkpt><trkpt lat="45.873605" lon="9.0714933"><ele>1235.6</ele><time>2026-04-05T16:41:38.809Z</time></trkpt><trkpt lat="45.8735067" lon="9.07141"><ele>1234.2</ele><time>2026-04-05T16:41:39.809Z</time></trkpt><trkpt lat="45.8734108" lon="9.0713297"><ele>1232.8</ele><time>2026-04-05T16:41:40.809Z</time></trkpt><trkpt lat="45.8733143" lon="9.0712547"><ele>1231.4</ele><time>2026-04-05T16:41:41.809Z</time></trkpt><trkpt lat="45.8732146" lon="9.0711795"><ele>1230.0</ele><time>2026-04-05T16:41:42.809Z</time></trkpt><trkpt lat="45.8731173" lon="9.0711122"><ele>1230.0</ele><time>2026-04-05T16:41:43.809Z</time></trkpt><trkpt lat="45.8730243" lon="9.0710421"><ele>1230.0</ele><time>2026-04-05T16:41:44.809Z</time></trkpt><trkpt lat="45.8729382" lon="9.070959"><ele>1230.0</ele><time>2026-04-05T16:41:45.81Z</time></trkpt><trkpt lat="45.8728654" lon="9.0708589"><ele>1230.0</ele><time>2026-04-05T16:41:46.809Z</time></trkpt><trkpt lat="45.8728088" lon="9.0707508"><ele>1230.0</ele><time>2026-04-05T16:41:47.809Z</time></trkpt><trkpt lat="45.8727548" lon="9.0706346"><ele>1235.25</ele><time>2026-04-05T16:41:48.809Z</time></trkpt><trkpt lat="45.8727064" lon="9.0704976"><ele>1240.5</ele><time>2026-04-05T16:41:49.809Z</time></trkpt><trkpt lat="45.8726624" lon="9.0703419"><ele>1245.75</ele><time>2026-04-05T16:41:50.81Z</time></trkpt><trkpt lat="45.8726241" lon="9.0701764"><ele>1251.0</ele><time>2026-04-05T16:41:51.809Z</time></trkpt><trkpt lat="45.8725941" lon="9.0700088"><ele>1245.3999999999999</ele><time>2026-04-05T16:41:52.809Z</time></trkpt><trkpt lat="45.872565" lon="9.0698678"><ele>1239.8</ele><time>2026-04-05T16:41:53.809Z</time></trkpt><trkpt lat="45.8725239" lon="9.0697547"><ele>1234.1999999999998</ele><time>2026-04-05T16:41:54.809Z</time></trkpt><trkpt lat="45.8724673" lon="9.0696624"><ele>1228.6</ele><time>2026-04-05T16:41:55.809Z</time></trkpt><trkpt lat="45.8723912" lon="9.0695821"><ele>1223.0</ele><time>2026-04-05T16:41:56.809Z</time></trkpt><trkpt lat="45.8723074" lon="9.06951"><ele>1223.0</ele><time>2026-04-05T16:41:57.809Z</time></trkpt><trkpt lat="45.8722306" lon="9.0694461"><ele>1223.0</ele><time>2026-04-05T16:41:58.809Z</time></trkpt><trkpt lat="45.8721624" lon="9.0693838"><ele>1223.0</ele><time>2026-04-05T16:41:59.809Z</time></trkpt><trkpt lat="45.8721057" lon="9.0693101"><ele>1223.0</ele><time>2026-04-05T16:42:00.809Z</time></trkpt><trkpt lat="45.8720648" lon="9.0692164"><ele>1223.0</ele><time>2026-04-05T16:42:01.81Z</time></trkpt><trkpt lat="45.8720438" lon="9.0690945"><ele>1223.0</ele><time>2026-04-05T16:42:02.81Z</time></trkpt><trkpt lat="45.8720417" lon="9.0689495"><ele>1224.6666666666667</ele><time>2026-04-05T16:42:03.809Z</time></trkpt><trkpt lat="45.8720473" lon="9.0688062"><ele>1226.3333333333335</ele><time>2026-04-05T16:42:04.809Z</time></trkpt><trkpt lat="45.8720447" lon="9.0686746"><ele>1228.0</ele><time>2026-04-05T16:42:05.809Z</time></trkpt><trkpt lat="45.872025" lon="9.06856"><ele>1229.6666666666667</ele><time>2026-04-05T16:42:06.81Z</time></trkpt><trkpt lat="45.8719824" lon="9.068459"><ele>1231.3333333333333</ele><time>2026-04-05T16:42:07.81Z</time></trkpt><trkpt lat="45.8719186" lon="9.0683673"><ele>1233.0</ele><time>2026-04-05T16:42:08.809Z</time></trkpt><trkpt lat="45.8718328" lon="9.0682751"><ele>1230.2</ele><time>2026-04-05T16:42:09.809Z</time></trkpt><trkpt lat="45.871739" lon="9.0681849"><ele>1227.4</ele><time>2026-04-05T16:42:10.809Z</time></trkpt><trkpt lat="45.8716435" lon="9.0681087"><ele>1224.6000000000001</ele><time>2026-04-05T16:42:11.809Z</time></trkpt><trkpt lat="45.8715399" lon="9.06805"><ele>1221.8</ele><time>2026-04-05T16:42:12.81Z</time></trkpt><trkpt lat="45.8714283" lon="9.068025"><ele>1219.0</ele><time>2026-04-05T16:42:13.809Z</time></trkpt><trkpt lat="45.871325" lon="9.068005"><ele>1219.0</ele><time>2026-04-05T16:42:14.809Z</time></trkpt><trkpt lat="45.87121" lon="9.068"><ele>1219.0</ele><time>2026-04-05T16:42:15.81Z</time></trkpt><trkpt lat="45.8710867" lon="9.0680033"><ele>1219.0</ele><time>2026-04-05T16:42:16.809Z</time></trkpt><trkpt lat="45.87096" lon="9.0680267"><ele>1219.0</ele><time>2026-04-05T16:42:17.809Z</time></trkpt><trkpt lat="45.87083" lon="9.0680767"><ele>1214.5</ele><time>2026-04-05T16:42:18.809Z</time></trkpt><trkpt lat="45.870705" lon="9.068115"><ele>1210.0</ele><time>2026-04-05T16:42:19.809Z</time></trkpt><trkpt lat="45.8705983" lon="9.0681483"><ele>1205.5</ele><time>2026-04-05T16:42:20.809Z</time></trkpt><trkpt lat="45.8704917" lon="9.0681683"><ele>1201.0</ele><time>2026-04-05T16:42:21.809Z</time></trkpt><trkpt lat="45.87039" lon="9.06822"><ele>1190.5</ele><time>2026-04-05T16:42:22.81Z</time></trkpt><trkpt lat="45.8702883" lon="9.0682783"><ele>1180.0</ele><time>2026-04-05T16:42:23.809Z</time></trkpt><trkpt lat="45.8701833" lon="9.0683333"><ele>1169.5</ele><time>2026-04-05T16:42:24.809Z</time></trkpt><trkpt lat="45.8700633" lon="9.0683667"><ele>1159.0</ele><time>2026-04-05T16:42:25.809Z</time></trkpt><trkpt lat="45.8699567" lon="9.0683983"><ele>1159.0</ele><time>2026-04-05T16:42:26.809Z</time></trkpt><trkpt lat="45.8698517" lon="9.0683983"><ele>1159.0</ele><time>2026-04-05T16:42:27.809Z</time></trkpt><trkpt lat="45.8697733" lon="9.0683983"><ele>1159.0</ele><time>2026-04-05T16:42:28.81Z</time></trkpt><trkpt lat="45.869705" lon="9.0684017"><ele>1159.0</ele><time>2026-04-05T16:42:29.808Z</time></trkpt><trkpt lat="45.869635" lon="9.0684033"><ele>1159.0</ele><time>2026-04-05T16:42:31.808Z</time></trkpt><trkpt lat="45.86968" lon="9.0685067"><ele>1159.0</ele><time>2026-04-05T16:42:34.808Z</time></trkpt><trkpt lat="45.8697483" lon="9.0685217"><ele>1159.0</ele><time>2026-04-05T16:42:35.808Z</time></trkpt><trkpt lat="45.8698417" lon="9.068525"><ele>1159.0</ele><time>2026-04-05T16:42:36.808Z</time></trkpt><trkpt lat="45.8699483" lon="9.0685333"><ele>1159.0</ele><time>2026-04-05T16:42:37.808Z</time></trkpt><trkpt lat="45.870065" lon="9.0685367"><ele>1159.0</ele><time>2026-04-05T16:42:38.808Z</time></trkpt><trkpt lat="45.8701917" lon="9.0685267"><ele>1159.0</ele><time>2026-04-05T16:42:39.808Z</time></trkpt><trkpt lat="45.8703067" lon="9.0685067"><ele>1158.25</ele><time>2026-04-05T16:42:40.808Z</time></trkpt><trkpt lat="45.870425" lon="9.0684833"><ele>1157.5</ele><time>2026-04-05T16:42:41.808Z</time></trkpt><trkpt lat="45.8705383" lon="9.0684667"><ele>1156.75</ele><time>2026-04-05T16:42:42.809Z</time></trkpt><trkpt lat="45.8706617" lon="9.0684517"><ele>1156.0</ele><time>2026-04-05T16:42:43.808Z</time></trkpt><trkpt lat="45.8707967" lon="9.068455"><ele>1156.0</ele><time>2026-04-05T16:42:44.808Z</time></trkpt><trkpt lat="45.8709317" lon="9.06845"><ele>1156.0</ele><time>2026-04-05T16:42:45.808Z</time></trkpt><trkpt lat="45.8710567" lon="9.0684567"><ele>1156.0</ele><time>2026-04-05T16:42:46.809Z</time></trkpt><trkpt lat="45.87116" lon="9.0684683"><ele>1156.0</ele><time>2026-04-05T16:42:47.808Z</time></trkpt><trkpt lat="45.8712533" lon="9.0684933"><ele>1160.6666666666665</ele><time>2026-04-05T16:42:48.808Z</time></trkpt><trkpt lat="45.8713317" lon="9.0685333"><ele>1165.3333333333333</ele><time>2026-04-05T16:42:49.808Z</time></trkpt><trkpt lat="45.87139" lon="9.0686"><ele>1170.0</ele><time>2026-04-05T16:42:50.808Z</time></trkpt><trkpt lat="45.8714367" lon="9.0687"><ele>1174.6666666666667</ele><time>2026-04-05T16:42:51.808Z</time></trkpt><trkpt lat="45.87147" lon="9.068805"><ele>1179.3333333333335</ele><time>2026-04-05T16:42:52.808Z</time></trkpt><trkpt lat="45.8714817" lon="9.068905"><ele>1184.0</ele><time>2026-04-05T16:42:53.808Z</time></trkpt><trkpt lat="45.8714833" lon="9.069015"><ele>1181.2</ele><time>2026-04-05T16:42:54.808Z</time></trkpt><trkpt lat="45.8714683" lon="9.0691533"><ele>1178.4</ele><time>2026-04-05T16:42:55.808Z</time></trkpt><trkpt lat="45.8714667" lon="9.069325"><ele>1175.6</ele><time>2026-04-05T16:42:56.809Z</time></trkpt><trkpt lat="45.8714717" lon="9.069495"><ele>1172.8</ele><time>2026-04-05T16:42:57.809Z</time></trkpt><trkpt lat="45.8714633" lon="9.0696417"><ele>1170.0</ele><time>2026-04-05T16:42:58.809Z</time></trkpt><trkpt lat="45.871465" lon="9.0697883"><ele>1170.0</ele><time>2026-04-05T16:42:59.808Z</time></trkpt><trkpt lat="45.8714883" lon="9.0699033"><ele>1170.0</ele><time>2026-04-05T16:43:00.808Z</time></trkpt><trkpt lat="45.8715367" lon="9.07"><ele>1170.0</ele><time>2026-04-05T16:43:01.809Z</time></trkpt><trkpt lat="45.8716017" lon="9.0700883"><ele>1170.0</ele><time>2026-04-05T16:43:02.809Z</time></trkpt><trkpt lat="45.871685" lon="9.07016"><ele>1170.0</ele><time>2026-04-05T16:43:03.809Z</time></trkpt><trkpt lat="45.871755" lon="9.0702317"><ele>1170.0</ele><time>2026-04-05T16:43:04.809Z</time></trkpt><trkpt lat="45.87181" lon="9.070305"><ele>1171.8333333333333</ele><time>2026-04-05T16:43:05.808Z</time></trkpt><trkpt lat="45.8718517" lon="9.07038"><ele>1173.6666666666667</ele><time>2026-04-05T16:43:06.809Z</time></trkpt><trkpt lat="45.87188" lon="9.0704733"><ele>1175.5</ele><time>2026-04-05T16:43:07.808Z</time></trkpt><trkpt lat="45.871885" lon="9.0705933"><ele>1177.3333333333335</ele><time>2026-04-05T16:43:08.808Z</time></trkpt><trkpt lat="45.8718817" lon="9.0707383"><ele>1179.1666666666667</ele><time>2026-04-05T16:43:09.808Z</time></trkpt><trkpt lat="45.8718717" lon="9.0708983"><ele>1181.0</ele><time>2026-04-05T16:43:10.808Z</time></trkpt><trkpt lat="45.8718617" lon="9.0710583"><ele>1181.0</ele><time>2026-04-05T16:43:11.808Z</time></trkpt><trkpt lat="45.8718483" lon="9.0712167"><ele>1181.0</ele><time>2026-04-05T16:43:12.808Z</time></trkpt><trkpt lat="45.8718367" lon="9.0713667"><ele>1181.0</ele><time>2026-04-05T16:43:13.808Z</time></trkpt><trkpt lat="45.871825" lon="9.0715117"><ele>1181.0</ele><time>2026-04-05T16:43:14.808Z</time></trkpt><trkpt lat="45.8718217" lon="9.0716517"><ele>1181.0</ele><time>2026-04-05T16:43:15.808Z</time></trkpt><trkpt lat="45.871825" lon="9.07178"><ele>1178.3333333333335</ele><time>2026-04-05T16:43:16.809Z</time></trkpt><trkpt lat="45.8718417" lon="9.07189"><ele>1175.6666666666667</ele><time>2026-04-05T16:43:17.809Z</time></trkpt><trkpt lat="45.8718683" lon="9.0719883"><ele>1173.0</ele><time>2026-04-05T16:43:18.809Z</time></trkpt><trkpt lat="45.8719083" lon="9.0720783"><ele>1170.3333333333333</ele><time>2026-04-05T16:43:19.809Z</time></trkpt><trkpt lat="45.8719583" lon="9.0721733"><ele>1167.6666666666665</ele><time>2026-04-05T16:43:20.808Z</time></trkpt><trkpt lat="45.8720317" lon="9.0722683"><ele>1165.0</ele><time>2026-04-05T16:43:21.808Z</time></trkpt><trkpt lat="45.872115" lon="9.0723633"><ele>1161.2</ele><time>2026-04-05T16:43:22.808Z</time></trkpt><trkpt lat="45.8722" lon="9.0724467"><ele>1157.4</ele><time>2026-04-05T16:43:23.808Z</time></trkpt><trkpt lat="45.8722917" lon="9.0725167"><ele>1153.6</ele><time>2026-04-05T16:43:24.808Z</time></trkpt><trkpt lat="45.8723867" lon="9.0725783"><ele>1149.8</ele><time>2026-04-05T16:43:25.809Z</time></trkpt><trkpt lat="45.87247" lon="9.0726517"><ele>1146.0</ele><time>2026-04-05T16:43:26.808Z</time></trkpt><trkpt lat="45.87253" lon="9.0727367"><ele>1146.0</ele><time>2026-04-05T16:43:27.808Z</time></trkpt><trkpt lat="45.8725683" lon="9.0728167"><ele>1146.0</ele><time>2026-04-05T16:43:28.808Z</time></trkpt><trkpt lat="45.8725867" lon="9.0729217"><ele>1146.0</ele><time>2026-04-05T16:43:29.809Z</time></trkpt><trkpt lat="45.8725817" lon="9.0730433"><ele>1146.0</ele><time>2026-04-05T16:43:30.809Z</time></trkpt><trkpt lat="45.8725583" lon="9.0731733"><ele>1146.0</ele><time>2026-04-05T16:43:31.808Z</time></trkpt><trkpt lat="45.8725133" lon="9.073325"><ele>1146.0</ele><time>2026-04-05T16:43:32.809Z</time></trkpt><trkpt lat="45.87245" lon="9.07349"><ele>1142.5</ele><time>2026-04-05T16:43:33.808Z</time></trkpt><trkpt lat="45.8723967" lon="9.073665"><ele>1139.0</ele><time>2026-04-05T16:43:34.808Z</time></trkpt><trkpt lat="45.8723467" lon="9.0738317"><ele>1135.5</ele><time>2026-04-05T16:43:35.808Z</time></trkpt><trkpt lat="45.8723117" lon="9.074"><ele>1132.0</ele><time>2026-04-05T16:43:36.809Z</time></trkpt><trkpt lat="45.8722817" lon="9.074155"><ele>1130.0</ele><time>2026-04-05T16:43:37.808Z</time></trkpt><trkpt lat="45.8722733" lon="9.0743167"><ele>1128.0</ele><time>2026-04-05T16:43:38.809Z</time></trkpt><trkpt lat="45.8722717" lon="9.07447"><ele>1126.0</ele><time>2026-04-05T16:43:39.808Z</time></trkpt><trkpt lat="45.87226" lon="9.0745917"><ele>1124.0</ele><time>2026-04-05T16:43:40.809Z</time></trkpt><trkpt lat="45.8722317" lon="9.0747033"><ele>1122.0</ele><time>2026-04-05T16:43:41.808Z</time></trkpt><trkpt lat="45.8721817" lon="9.0747867"><ele>1122.0</ele><time>2026-04-05T16:43:42.808Z</time></trkpt><trkpt lat="45.8721133" lon="9.0748633"><ele>1122.0</ele><time>2026-04-05T16:43:43.808Z</time></trkpt><trkpt lat="45.87202" lon="9.0749467"><ele>1122.0</ele><time>2026-04-05T16:43:44.809Z</time></trkpt><trkpt lat="45.871925" lon="9.0750383"><ele>1122.0</ele><time>2026-04-05T16:43:45.809Z</time></trkpt><trkpt lat="45.8718333" lon="9.0751317"><ele>1122.0</ele><time>2026-04-05T16:43:46.808Z</time></trkpt><trkpt lat="45.8717517" lon="9.0752333"><ele>1117.4</ele><time>2026-04-05T16:43:47.809Z</time></trkpt><trkpt lat="45.8716783" lon="9.07534"><ele>1112.8000000000002</ele><time>2026-04-05T16:43:48.808Z</time></trkpt><trkpt lat="45.8716167" lon="9.0754517"><ele>1108.2</ele><time>2026-04-05T16:43:49.808Z</time></trkpt><trkpt lat="45.8715633" lon="9.0755767"><ele>1103.6000000000001</ele><time>2026-04-05T16:43:50.808Z</time></trkpt><trkpt lat="45.871515" lon="9.075715"><ele>1099.0</ele><time>2026-04-05T16:43:51.808Z</time></trkpt><trkpt lat="45.8714683" lon="9.0758567"><ele>1099.0</ele><time>2026-04-05T16:43:52.808Z</time></trkpt><trkpt lat="45.87142" lon="9.0759783"><ele>1099.0</ele><time>2026-04-05T16:43:53.808Z</time></trkpt><trkpt lat="45.8713667" lon="9.076075"><ele>1099.0</ele><time>2026-04-05T16:43:54.808Z</time></trkpt><trkpt lat="45.8713083" lon="9.0761417"><ele>1099.0</ele><time>2026-04-05T16:43:55.808Z</time></trkpt><trkpt lat="45.8712367" lon="9.0761983"><ele>1099.0</ele><time>2026-04-05T16:43:56.809Z</time></trkpt><trkpt lat="45.8711417" lon="9.076245"><ele>1099.0</ele><time>2026-04-05T16:43:57.809Z</time></trkpt><trkpt lat="45.87102" lon="9.0763067"><ele>1086.6666666666665</ele><time>2026-04-05T16:43:58.808Z</time></trkpt><trkpt lat="45.87088" lon="9.0763867"><ele>1074.3333333333333</ele><time>2026-04-05T16:43:59.809Z</time></trkpt><trkpt lat="45.870735" lon="9.0764767"><ele>1062.0</ele><time>2026-04-05T16:44:00.808Z</time></trkpt><trkpt lat="45.870605" lon="9.0765567"><ele>1069.75</ele><time>2026-04-05T16:44:01.808Z</time></trkpt><trkpt lat="45.8704783" lon="9.0766317"><ele>1077.5</ele><time>2026-04-05T16:44:02.809Z</time></trkpt><trkpt lat="45.8703617" lon="9.0767117"><ele>1085.25</ele><time>2026-04-05T16:44:03.808Z</time></trkpt><trkpt lat="45.870235" lon="9.0767583"><ele>1093.0</ele><time>2026-04-05T16:44:04.808Z</time></trkpt><trkpt lat="45.8701267" lon="9.07679"><ele>1087.5</ele><time>2026-04-05T16:44:05.808Z</time></trkpt><trkpt lat="45.8700017" lon="9.076815"><ele>1082.0</ele><time>2026-04-05T16:44:06.808Z</time></trkpt><trkpt lat="45.8698817" lon="9.0768183"><ele>1076.5</ele><time>2026-04-05T16:44:07.808Z</time></trkpt><trkpt lat="45.8697583" lon="9.0768167"><ele>1071.0</ele><time>2026-04-05T16:44:08.808Z</time></trkpt><trkpt lat="45.86964" lon="9.0768067"><ele>1071.0</ele><time>2026-04-05T16:44:09.809Z</time></trkpt><trkpt lat="45.86953" lon="9.076795"><ele>1071.0</ele><time>2026-04-05T16:44:10.808Z</time></trkpt><trkpt lat="45.869425" lon="9.0767783"><ele>1071.0</ele><time>2026-04-05T16:44:11.808Z</time></trkpt><trkpt lat="45.869325" lon="9.07676"><ele>1071.0</ele><time>2026-04-05T16:44:12.808Z</time></trkpt><trkpt lat="45.86924" lon="9.0767517"><ele>1071.0</ele><time>2026-04-05T16:44:13.808Z</time></trkpt><trkpt lat="45.8691517" lon="9.0767733"><ele>1068.0</ele><time>2026-04-05T16:44:14.808Z</time></trkpt><trkpt lat="45.8690733" lon="9.0768083"><ele>1065.0</ele><time>2026-04-05T16:44:15.808Z</time></trkpt><trkpt lat="45.8689967" lon="9.0768883"><ele>1062.0</ele><time>2026-04-05T16:44:16.808Z</time></trkpt><trkpt lat="45.8689183" lon="9.0769917"><ele>1059.0</ele><time>2026-04-05T16:44:17.808Z</time></trkpt><trkpt lat="45.8688333" lon="9.0771117"><ele>1056.0</ele><time>2026-04-05T16:44:18.808Z</time></trkpt><trkpt lat="45.8687583" lon="9.0772233"><ele>1056.0</ele><time>2026-04-05T16:44:19.808Z</time></trkpt><trkpt lat="45.8686633" lon="9.0773067"><ele>1056.0</ele><time>2026-04-05T16:44:20.808Z</time></trkpt><trkpt lat="45.8685767" lon="9.0773617"><ele>1056.0</ele><time>2026-04-05T16:44:21.808Z</time></trkpt><trkpt lat="45.8684883" lon="9.0774083"><ele>1056.0</ele><time>2026-04-05T16:44:22.808Z</time></trkpt><trkpt lat="45.8683883" lon="9.07742"><ele>1056.0</ele><time>2026-04-05T16:44:23.809Z</time></trkpt><trkpt lat="45.8682733" lon="9.0774133"><ele>1049.75</ele><time>2026-04-05T16:44:24.808Z</time></trkpt><trkpt lat="45.868145" lon="9.07739"><ele>1043.5</ele><time>2026-04-05T16:44:25.808Z</time></trkpt><trkpt lat="45.8680117" lon="9.07737"><ele>1037.25</ele><time>2026-04-05T16:44:26.808Z</time></trkpt><trkpt lat="45.8678833" lon="9.07736"><ele>1031.0</ele><time>2026-04-05T16:44:27.808Z</time></trkpt><trkpt lat="45.8677617" lon="9.0773417"><ele>1031.0</ele><time>2026-04-05T16:44:28.808Z</time></trkpt><trkpt lat="45.86764" lon="9.0773117"><ele>1031.0</ele><time>2026-04-05T16:44:29.808Z</time></trkpt><trkpt lat="45.8675167" lon="9.07727"><ele>1031.0</ele><time>2026-04-05T16:44:30.808Z</time></trkpt><trkpt lat="45.8673967" lon="9.07723"><ele>1031.0</ele><time>2026-04-05T16:44:31.808Z</time></trkpt><trkpt lat="45.8672883" lon="9.0771883"><ele>1031.0</ele><time>2026-04-05T16:44:32.808Z</time></trkpt><trkpt lat="45.86718" lon="9.0771467"><ele>1031.0</ele><time>2026-04-05T16:44:33.808Z</time></trkpt><trkpt lat="45.8670733" lon="9.0771033"><ele>1031.0</ele><time>2026-04-05T16:44:34.808Z</time></trkpt><trkpt lat="45.8669667" lon="9.0770633"><ele>1031.0</ele><time>2026-04-05T16:44:35.809Z</time></trkpt><trkpt lat="45.8668633" lon="9.077025"><ele>1031.0</ele><time>2026-04-05T16:44:36.809Z</time></trkpt><trkpt lat="45.8667617" lon="9.07699"><ele>1031.0</ele><time>2026-04-05T16:44:37.809Z</time></trkpt><trkpt lat="45.866655" lon="9.076945"><ele>1031.0</ele><time>2026-04-05T16:44:38.808Z</time></trkpt><trkpt lat="45.8665433" lon="9.0769233"><ele>1031.0</ele><time>2026-04-05T16:44:39.808Z</time></trkpt><trkpt lat="45.8664267" lon="9.0769183"><ele>1031.0</ele><time>2026-04-05T16:44:40.808Z</time></trkpt><trkpt lat="45.8662967" lon="9.07692"><ele>1031.0</ele><time>2026-04-05T16:44:41.808Z</time></trkpt><trkpt lat="45.8661567" lon="9.0769433"><ele>1031.0</ele><time>2026-04-05T16:44:42.808Z</time></trkpt><trkpt lat="45.86602" lon="9.0769767"><ele>1031.0</ele><time>2026-04-05T16:44:43.808Z</time></trkpt><trkpt lat="45.86588" lon="9.07699"><ele>1031.0</ele><time>2026-04-05T16:44:44.808Z</time></trkpt><trkpt lat="45.86574" lon="9.0770017"><ele>1029.0</ele><time>2026-04-05T16:44:45.809Z</time></trkpt><trkpt lat="45.8655983" lon="9.0770083"><ele>1027.0</ele><time>2026-04-05T16:44:46.808Z</time></trkpt><trkpt lat="45.86546" lon="9.0770117"><ele>1025.0</ele><time>2026-04-05T16:44:47.809Z</time></trkpt><trkpt lat="45.865325" lon="9.0770067"><ele>1023.0</ele><time>2026-04-05T16:44:48.808Z</time></trkpt><trkpt lat="45.8652017" lon="9.07699"><ele>1022.25</ele><time>2026-04-05T16:44:49.808Z</time></trkpt><trkpt lat="45.8650817" lon="9.0769733"><ele>1021.5</ele><time>2026-04-05T16:44:50.808Z</time></trkpt><trkpt lat="45.86495" lon="9.0769767"><ele>1020.75</ele><time>2026-04-05T16:44:51.808Z</time></trkpt><trkpt lat="45.864815" lon="9.0769933"><ele>1020.0</ele><time>2026-04-05T16:44:52.808Z</time></trkpt><trkpt lat="45.8646717" lon="9.0770167"><ele>1020.0</ele><time>2026-04-05T16:44:53.809Z</time></trkpt><trkpt lat="45.8645217" lon="9.07704"><ele>1020.0</ele><time>2026-04-05T16:44:54.809Z</time></trkpt><trkpt lat="45.864375" lon="9.0770633"><ele>1020.0</ele><time>2026-04-05T16:44:55.808Z</time></trkpt><trkpt lat="45.8642483" lon="9.0770833"><ele>1020.0</ele><time>2026-04-05T16:44:56.808Z</time></trkpt><trkpt lat="45.8641183" lon="9.0770967"><ele>1019.25</ele><time>2026-04-05T16:44:57.809Z</time></trkpt><trkpt lat="45.863985" lon="9.0770917"><ele>1018.5</ele><time>2026-04-05T16:44:58.808Z</time></trkpt><trkpt lat="45.8638417" lon="9.0770917"><ele>1017.75</ele><time>2026-04-05T16:44:59.809Z</time></trkpt><trkpt lat="45.863705" lon="9.0770783"><ele>1017.0</ele><time>2026-04-05T16:45:00.808Z</time></trkpt><trkpt lat="45.8635583" lon="9.077075"><ele>1016.5</ele><time>2026-04-05T16:45:01.808Z</time></trkpt><trkpt lat="45.863415" lon="9.0770417"><ele>1016.0</ele><time>2026-04-05T16:45:02.808Z</time></trkpt><trkpt lat="45.86328" lon="9.0770117"><ele>1015.5</ele><time>2026-04-05T16:45:03.808Z</time></trkpt><trkpt lat="45.8631517" lon="9.0769517"><ele>1015.0</ele><time>2026-04-05T16:45:04.809Z</time></trkpt><trkpt lat="45.86302" lon="9.0769117"><ele>1015.0</ele><time>2026-04-05T16:45:05.808Z</time></trkpt><trkpt lat="45.8629083" lon="9.0768683"><ele>1015.0</ele><time>2026-04-05T16:45:06.808Z</time></trkpt><trkpt lat="45.862805" lon="9.0767883"><ele>1015.0</ele><time>2026-04-05T16:45:07.808Z</time></trkpt><trkpt lat="45.86269" lon="9.0767283"><ele>1015.0</ele><time>2026-04-05T16:45:08.809Z</time></trkpt><trkpt lat="45.8625667" lon="9.0766767"><ele>1014.5</ele><time>2026-04-05T16:45:09.808Z</time></trkpt><trkpt lat="45.8624433" lon="9.0766467"><ele>1014.0</ele><time>2026-04-05T16:45:10.808Z</time></trkpt><trkpt lat="45.862315" lon="9.0766267"><ele>1013.5</ele><time>2026-04-05T16:45:11.809Z</time></trkpt><trkpt lat="45.8621683" lon="9.0766067"><ele>1013.0</ele><time>2026-04-05T16:45:12.808Z</time></trkpt><trkpt lat="45.862015" lon="9.0765933"><ele>1003.6666666666667</ele><time>2026-04-05T16:45:13.808Z</time></trkpt><trkpt lat="45.8618583" lon="9.0765867"><ele>994.3333333333333</ele><time>2026-04-05T16:45:14.808Z</time></trkpt><trkpt lat="45.8617" lon="9.0765917"><ele>985.0</ele><time>2026-04-05T16:45:15.808Z</time></trkpt><trkpt lat="45.86154" lon="9.0765967"><ele>993.0</ele><time>2026-04-05T16:45:16.808Z</time></trkpt><trkpt lat="45.8613967" lon="9.0766033"><ele>1001.0</ele><time>2026-04-05T16:45:17.808Z</time></trkpt><trkpt lat="45.8612383" lon="9.07661"><ele>1009.0</ele><time>2026-04-05T16:45:18.808Z</time></trkpt><trkpt lat="45.8610867" lon="9.0766067"><ele>1001.25</ele><time>2026-04-05T16:45:19.808Z</time></trkpt><trkpt lat="45.860945" lon="9.0765883"><ele>993.5</ele><time>2026-04-05T16:45:20.808Z</time></trkpt><trkpt lat="45.86081" lon="9.0765783"><ele>985.75</ele><time>2026-04-05T16:45:21.808Z</time></trkpt><trkpt lat="45.860695" lon="9.07657"><ele>978.0</ele><time>2026-04-05T16:45:22.808Z</time></trkpt><trkpt lat="45.8605817" lon="9.07655"><ele>978.0</ele><time>2026-04-05T16:45:23.809Z</time></trkpt><trkpt lat="45.8604717" lon="9.0765217"><ele>978.0</ele><time>2026-04-05T16:45:24.809Z</time></trkpt><trkpt lat="45.86037" lon="9.0764933"><ele>978.0</ele><time>2026-04-05T16:45:25.808Z</time></trkpt><trkpt lat="45.8602733" lon="9.0764933"><ele>978.0</ele><time>2026-04-05T16:45:26.808Z</time></trkpt><trkpt lat="45.8601833" lon="9.07651"><ele>978.0</ele><time>2026-04-05T16:45:27.809Z</time></trkpt><trkpt lat="45.8600933" lon="9.076555"><ele>980.2</ele><time>2026-04-05T16:45:28.809Z</time></trkpt><trkpt lat="45.86001" lon="9.0766283"><ele>982.4</ele><time>2026-04-05T16:45:29.809Z</time></trkpt><trkpt lat="45.8599183" lon="9.076725"><ele>984.6000000000001</ele><time>2026-04-05T16:45:30.808Z</time></trkpt><trkpt lat="45.85983" lon="9.07684"><ele>986.8000000000001</ele><time>2026-04-05T16:45:31.808Z</time></trkpt><trkpt lat="45.859745" lon="9.0769517"><ele>989.0</ele><time>2026-04-05T16:45:32.809Z</time></trkpt><trkpt lat="45.8596583" lon="9.07706"><ele>989.0000000000001</ele><time>2026-04-05T16:45:33.808Z</time></trkpt><trkpt lat="45.8595817" lon="9.077155"><ele>989.0</ele><time>2026-04-05T16:45:34.808Z</time></trkpt><trkpt lat="45.8595033" lon="9.0772583"><ele>989.0</ele><time>2026-04-05T16:45:35.808Z</time></trkpt><trkpt lat="45.8594633" lon="9.0773633"><ele>989.0</ele><time>2026-04-05T16:45:36.808Z</time></trkpt><trkpt lat="45.859435" lon="9.0774717"><ele>989.0000000000001</ele><time>2026-04-05T16:45:37.808Z</time></trkpt><trkpt lat="45.85943" lon="9.077575"><ele>989.0</ele><time>2026-04-05T16:45:38.808Z</time></trkpt><trkpt lat="45.8594567" lon="9.07766"><ele>990.4000000000001</ele><time>2026-04-05T16:45:39.808Z</time></trkpt><trkpt lat="45.8594867" lon="9.0778067"><ele>991.8000000000001</ele><time>2026-04-05T16:45:41.808Z</time></trkpt><trkpt lat="45.859425" lon="9.0778467"><ele>993.1999999999999</ele><time>2026-04-05T16:45:43.808Z</time></trkpt><trkpt lat="45.8593667" lon="9.0777317"><ele>994.5999999999999</ele><time>2026-04-05T16:45:45.808Z</time></trkpt><trkpt lat="45.8593467" lon="9.0776067"><ele>996.0</ele><time>2026-04-05T16:45:46.809Z</time></trkpt><trkpt lat="45.8593367" lon="9.0774583"><ele>994.5999999999999</ele><time>2026-04-05T16:45:47.809Z</time></trkpt><trkpt lat="45.8593483" lon="9.0773167"><ele>993.1999999999999</ele><time>2026-04-05T16:45:48.808Z</time></trkpt><trkpt lat="45.85938" lon="9.0771717"><ele>991.8000000000001</ele><time>2026-04-05T16:45:49.809Z</time></trkpt><trkpt lat="45.8594283" lon="9.0770233"><ele>990.4000000000001</ele><time>2026-04-05T16:45:50.808Z</time></trkpt><trkpt lat="45.8594833" lon="9.07686"><ele>989.0</ele><time>2026-04-05T16:45:51.808Z</time></trkpt><trkpt lat="45.8595367" lon="9.0767033"><ele>984.5</ele><time>2026-04-05T16:45:52.809Z</time></trkpt><trkpt lat="45.8595817" lon="9.07655"><ele>980.0</ele><time>2026-04-05T16:45:53.808Z</time></trkpt><trkpt lat="45.85962" lon="9.0764083"><ele>975.5</ele><time>2026-04-05T16:45:54.809Z</time></trkpt><trkpt lat="45.8596633" lon="9.0762583"><ele>971.0</ele><time>2026-04-05T16:45:55.809Z</time></trkpt><trkpt lat="45.8597117" lon="9.0761033"><ele>971.0</ele><time>2026-04-05T16:45:56.808Z</time></trkpt><trkpt lat="45.8597533" lon="9.0759533"><ele>971.0</ele><time>2026-04-05T16:45:57.808Z</time></trkpt><trkpt lat="45.859805" lon="9.0757983"><ele>971.0</ele><time>2026-04-05T16:45:58.808Z</time></trkpt><trkpt lat="45.8598583" lon="9.0756533"><ele>971.0</ele><time>2026-04-05T16:45:59.809Z</time></trkpt><trkpt lat="45.85993" lon="9.07552"><ele>967.1999999999999</ele><time>2026-04-05T16:46:00.808Z</time></trkpt><trkpt lat="45.860005" lon="9.0754133"><ele>963.3999999999999</ele><time>2026-04-05T16:46:01.809Z</time></trkpt><trkpt lat="45.8600933" lon="9.0753367"><ele>959.6</ele><time>2026-04-05T16:46:02.809Z</time></trkpt><trkpt lat="45.8601867" lon="9.0752817"><ele>955.8</ele><time>2026-04-05T16:46:03.808Z</time></trkpt><trkpt lat="45.8603" lon="9.0752417"><ele>952.0</ele><time>2026-04-05T16:46:04.808Z</time></trkpt><trkpt lat="45.8604233" lon="9.075215"><ele>952.0</ele><time>2026-04-05T16:46:05.808Z</time></trkpt><trkpt lat="45.860555" lon="9.0752"><ele>952.0</ele><time>2026-04-05T16:46:06.809Z</time></trkpt><trkpt lat="45.8606767" lon="9.0751883"><ele>952.0</ele><time>2026-04-05T16:46:07.808Z</time></trkpt><trkpt lat="45.8607817" lon="9.07518"><ele>952.0</ele><time>2026-04-05T16:46:08.808Z</time></trkpt><trkpt lat="45.8608767" lon="9.075165"><ele>952.0</ele><time>2026-04-05T16:46:09.808Z</time></trkpt><trkpt lat="45.8609883" lon="9.075125"><ele>952.0</ele><time>2026-04-05T16:46:10.808Z</time></trkpt><trkpt lat="45.8610933" lon="9.0750633"><ele>952.0</ele><time>2026-04-05T16:46:11.808Z</time></trkpt><trkpt lat="45.8611967" lon="9.0750083"><ele>952.0</ele><time>2026-04-05T16:46:12.808Z</time></trkpt><trkpt lat="45.8613" lon="9.07497"><ele>952.0</ele><time>2026-04-05T16:46:13.809Z</time></trkpt><trkpt lat="45.8613933" lon="9.0749467"><ele>952.0</ele><time>2026-04-05T16:46:14.808Z</time></trkpt><trkpt lat="45.8614733" lon="9.0749383"><ele>952.0</ele><time>2026-04-05T16:46:15.808Z</time></trkpt><trkpt lat="45.8615767" lon="9.0749417"><ele>952.0</ele><time>2026-04-05T16:46:17.808Z</time></trkpt><trkpt lat="45.8615067" lon="9.0748533"><ele>952.0</ele><time>2026-04-05T16:46:21.808Z</time></trkpt><trkpt lat="45.861425" lon="9.074845"><ele>952.0</ele><time>2026-04-05T16:46:22.808Z</time></trkpt><trkpt lat="45.8613267" lon="9.0748317"><ele>943.5</ele><time>2026-04-05T16:46:23.808Z</time></trkpt><trkpt lat="45.8612033" lon="9.074815"><ele>935.0</ele><time>2026-04-05T16:46:24.808Z</time></trkpt><trkpt lat="45.8610683" lon="9.0747983"><ele>926.5</ele><time>2026-04-05T16:46:25.808Z</time></trkpt><trkpt lat="45.8609267" lon="9.0747833"><ele>918.0</ele><time>2026-04-05T16:46:26.808Z</time></trkpt><trkpt lat="45.8607867" lon="9.0747583"><ele>918.0</ele><time>2026-04-05T16:46:27.808Z</time></trkpt><trkpt lat="45.8606417" lon="9.0747283"><ele>918.0</ele><time>2026-04-05T16:46:28.808Z</time></trkpt><trkpt lat="45.86051" lon="9.0747117"><ele>918.0</ele><time>2026-04-05T16:46:29.809Z</time></trkpt><trkpt lat="45.860375" lon="9.07469"><ele>918.0</ele><time>2026-04-05T16:46:30.809Z</time></trkpt><trkpt lat="45.8602483" lon="9.0746683"><ele>918.0</ele><time>2026-04-05T16:46:31.808Z</time></trkpt><trkpt lat="45.86013" lon="9.0746417"><ele>918.0</ele><time>2026-04-05T16:46:32.809Z</time></trkpt><trkpt lat="45.8600233" lon="9.0746133"><ele>918.0</ele><time>2026-04-05T16:46:33.808Z</time></trkpt><trkpt lat="45.8599133" lon="9.0745917"><ele>918.0</ele><time>2026-04-05T16:46:34.808Z</time></trkpt><trkpt lat="45.8597983" lon="9.0745733"><ele>918.5</ele><time>2026-04-05T16:46:35.808Z</time></trkpt><trkpt lat="45.859685" lon="9.0745683"><ele>919.0</ele><time>2026-04-05T16:46:36.808Z</time></trkpt><trkpt lat="45.8595833" lon="9.0745667"><ele>919.5</ele><time>2026-04-05T16:46:37.809Z</time></trkpt><trkpt lat="45.8594983" lon="9.0745833"><ele>920.0</ele><time>2026-04-05T16:46:38.808Z</time></trkpt><trkpt lat="45.8594283" lon="9.0746233"><ele>920.5</ele><time>2026-04-05T16:46:39.809Z</time></trkpt><trkpt lat="45.859385" lon="9.0746983"><ele>921.0</ele><time>2026-04-05T16:46:40.808Z</time></trkpt><trkpt lat="45.859345" lon="9.0747783"><ele>921.0</ele><time>2026-04-05T16:46:41.808Z</time></trkpt><trkpt lat="45.8592833" lon="9.074815"><ele>921.0</ele><time>2026-04-05T16:46:43.808Z</time></trkpt><trkpt lat="45.8592883" lon="9.0747067"><ele>921.0</ele><time>2026-04-05T16:46:45.808Z</time></trkpt><trkpt lat="45.859325" lon="9.0746283"><ele>921.0</ele><time>2026-04-05T16:46:46.808Z</time></trkpt><trkpt lat="45.8593867" lon="9.07454"><ele>921.0</ele><time>2026-04-05T16:46:47.808Z</time></trkpt><trkpt lat="45.8594683" lon="9.0744583"><ele>921.0</ele><time>2026-04-05T16:46:48.808Z</time></trkpt><trkpt lat="45.859575" lon="9.0743917"><ele>921.0</ele><time>2026-04-05T16:46:49.808Z</time></trkpt><trkpt lat="45.8596917" lon="9.0743317"><ele>921.0</ele><time>2026-04-05T16:46:50.809Z</time></trkpt><trkpt lat="45.8598083" lon="9.074285"><ele>921.0</ele><time>2026-04-05T16:46:51.808Z</time></trkpt><trkpt lat="45.8599267" lon="9.0742417"><ele>921.0</ele><time>2026-04-05T16:46:52.808Z</time></trkpt><trkpt lat="45.8600517" lon="9.0742217"><ele>920.25</ele><time>2026-04-05T16:46:53.808Z</time></trkpt><trkpt lat="45.860175" lon="9.0741833"><ele>919.5</ele><time>2026-04-05T16:46:54.809Z</time></trkpt><trkpt lat="45.8603017" lon="9.0741583"><ele>918.75</ele><time>2026-04-05T16:46:55.809Z</time></trkpt><trkpt lat="45.8604183" lon="9.0741333"><ele>918.0</ele><time>2026-04-05T16:46:56.808Z</time></trkpt><trkpt lat="45.8605317" lon="9.0741133"><ele>909.0</ele><time>2026-04-05T16:46:57.808Z</time></trkpt><trkpt lat="45.86064" lon="9.0740817"><ele>900.0</ele><time>2026-04-05T16:46:58.809Z</time></trkpt><trkpt lat="45.8607533" lon="9.07405"><ele>891.0</ele><time>2026-04-05T16:46:59.808Z</time></trkpt><trkpt lat="45.8608633" lon="9.0740083"><ele>882.0</ele><time>2026-04-05T16:47:00.809Z</time></trkpt><trkpt lat="45.8609717" lon="9.0739683"><ele>882.0</ele><time>2026-04-05T16:47:01.808Z</time></trkpt><trkpt lat="45.8610883" lon="9.0739417"><ele>882.0</ele><time>2026-04-05T16:47:02.809Z</time></trkpt><trkpt lat="45.86121" lon="9.07392"><ele>882.0</ele><time>2026-04-05T16:47:03.808Z</time></trkpt><trkpt lat="45.8613283" lon="9.0738967"><ele>882.0</ele><time>2026-04-05T16:47:04.808Z</time></trkpt><trkpt lat="45.8614433" lon="9.0738883"><ele>882.0</ele><time>2026-04-05T16:47:05.808Z</time></trkpt><trkpt lat="45.8615533" lon="9.0738883"><ele>882.0</ele><time>2026-04-05T16:47:06.808Z</time></trkpt><trkpt lat="45.86165" lon="9.073905"><ele>882.0</ele><time>2026-04-05T16:47:07.809Z</time></trkpt><trkpt lat="45.861735" lon="9.0739333"><ele>882.0</ele><time>2026-04-05T16:47:08.808Z</time></trkpt><trkpt lat="45.8618233" lon="9.0739183"><ele>882.0</ele><time>2026-04-05T16:47:10.808Z</time></trkpt><trkpt lat="45.8617883" lon="9.0738383"><ele>882.0</ele><time>2026-04-05T16:47:12.808Z</time></trkpt><trkpt lat="45.8617217" lon="9.0738183"><ele>882.0</ele><time>2026-04-05T16:47:13.808Z</time></trkpt><trkpt lat="45.8616317" lon="9.0738067"><ele>882.0</ele><time>2026-04-05T16:47:14.808Z</time></trkpt><trkpt lat="45.8615417" lon="9.073795"><ele>882.0</ele><time>2026-04-05T16:47:15.808Z</time></trkpt><trkpt lat="45.8614367" lon="9.0737767"><ele>882.0</ele><time>2026-04-05T16:47:16.809Z</time></trkpt><trkpt lat="45.8613167" lon="9.0737567"><ele>882.0</ele><time>2026-04-05T16:47:17.808Z</time></trkpt><trkpt lat="45.8611883" lon="9.07374"><ele>882.0</ele><time>2026-04-05T16:47:18.808Z</time></trkpt><trkpt lat="45.8610567" lon="9.07374"><ele>882.0</ele><time>2026-04-05T16:47:19.808Z</time></trkpt><trkpt lat="45.8609233" lon="9.07374"><ele>882.0</ele><time>2026-04-05T16:47:20.809Z</time></trkpt><trkpt lat="45.86079" lon="9.073735"><ele>882.0</ele><time>2026-04-05T16:47:21.808Z</time></trkpt><trkpt lat="45.8606567" lon="9.0737267"><ele>881.5</ele><time>2026-04-05T16:47:22.809Z</time></trkpt><trkpt lat="45.8605333" lon="9.0737083"><ele>881.0</ele><time>2026-04-05T16:47:23.808Z</time></trkpt><trkpt lat="45.8604083" lon="9.0736983"><ele>880.5</ele><time>2026-04-05T16:47:24.808Z</time></trkpt><trkpt lat="45.8602933" lon="9.0736783"><ele>880.0</ele><time>2026-04-05T16:47:25.809Z</time></trkpt><trkpt lat="45.86017" lon="9.0736583"><ele>879.75</ele><time>2026-04-05T16:47:26.809Z</time></trkpt><trkpt lat="45.8600383" lon="9.0736267"><ele>879.5</ele><time>2026-04-05T16:47:27.809Z</time></trkpt><trkpt lat="45.8599033" lon="9.0736"><ele>879.25</ele><time>2026-04-05T16:47:28.809Z</time></trkpt><trkpt lat="45.8597583" lon="9.0735683"><ele>879.0</ele><time>2026-04-05T16:47:29.808Z</time></trkpt><trkpt lat="45.85962" lon="9.0735517"><ele>879.0</ele><time>2026-04-05T16:47:30.808Z</time></trkpt><trkpt lat="45.8594833" lon="9.073535"><ele>879.0</ele><time>2026-04-05T16:47:31.808Z</time></trkpt><trkpt lat="45.8593417" lon="9.0735117"><ele>879.0</ele><time>2026-04-05T16:47:32.808Z</time></trkpt><trkpt lat="45.8592117" lon="9.0734883"><ele>879.0</ele><time>2026-04-05T16:47:33.808Z</time></trkpt><trkpt lat="45.8590867" lon="9.0734733"><ele>878.6</ele><time>2026-04-05T16:47:34.809Z</time></trkpt><trkpt lat="45.8589767" lon="9.0734683"><ele>878.2</ele><time>2026-04-05T16:47:35.808Z</time></trkpt><trkpt lat="45.8588783" lon="9.0734817"><ele>877.8000000000001</ele><time>2026-04-05T16:47:36.808Z</time></trkpt><trkpt lat="45.8587967" lon="9.07352"><ele>877.4000000000001</ele><time>2026-04-05T16:47:37.808Z</time></trkpt><trkpt lat="45.85873" lon="9.0735783"><ele>877.0</ele><time>2026-04-05T16:47:38.808Z</time></trkpt><trkpt lat="45.8586467" lon="9.073585"><ele>877.0</ele><time>2026-04-05T16:47:40.808Z</time></trkpt><trkpt lat="45.8586667" lon="9.0734733"><ele>877.0</ele><time>2026-04-05T16:47:42.809Z</time></trkpt><trkpt lat="45.8587267" lon="9.0734233"><ele>877.0</ele><time>2026-04-05T16:47:43.808Z</time></trkpt><trkpt lat="45.8588183" lon="9.0733783"><ele>877.0</ele><time>2026-04-05T16:47:44.808Z</time></trkpt><trkpt lat="45.8589233" lon="9.0733333"><ele>877.0</ele><time>2026-04-05T16:47:45.808Z</time></trkpt><trkpt lat="45.8590383" lon="9.073305"><ele>877.0</ele><time>2026-04-05T16:47:46.809Z</time></trkpt><trkpt lat="45.8591667" lon="9.0732817"><ele>877.0</ele><time>2026-04-05T16:47:47.809Z</time></trkpt><trkpt lat="45.8593017" lon="9.07325"><ele>877.0</ele><time>2026-04-05T16:47:48.808Z</time></trkpt><trkpt lat="45.85943" lon="9.07323"><ele>877.0</ele><time>2026-04-05T16:47:49.809Z</time></trkpt><trkpt lat="45.8595517" lon="9.0732167"><ele>869.0</ele><time>2026-04-05T16:47:50.809Z</time></trkpt><trkpt lat="45.8596733" lon="9.0731983"><ele>861.0</ele><time>2026-04-05T16:47:51.808Z</time></trkpt><trkpt lat="45.8597783" lon="9.07319"><ele>853.0</ele><time>2026-04-05T16:47:52.808Z</time></trkpt><trkpt lat="45.8598567" lon="9.073205"><ele>845.0</ele><time>2026-04-05T16:47:53.808Z</time></trkpt><trkpt lat="45.8599467" lon="9.0731867"><ele>837.0</ele><time>2026-04-05T16:47:55.808Z</time></trkpt><trkpt lat="45.8598833" lon="9.0730917"><ele>837.0</ele><time>2026-04-05T16:47:58.808Z</time></trkpt><trkpt lat="45.859805" lon="9.0730833"><ele>837.0</ele><time>2026-04-05T16:47:59.808Z</time></trkpt><trkpt lat="45.85969" lon="9.0730783"><ele>837.0</ele><time>2026-04-05T16:48:00.808Z</time></trkpt><trkpt lat="45.8595533" lon="9.0730717"><ele>837.0</ele><time>2026-04-05T16:48:01.809Z</time></trkpt><trkpt lat="45.8594233" lon="9.0730483"><ele>837.0</ele><time>2026-04-05T16:48:02.808Z</time></trkpt><trkpt lat="45.85929" lon="9.0730067"><ele>837.0</ele><time>2026-04-05T16:48:03.808Z</time></trkpt><trkpt lat="45.859165" lon="9.07297"><ele>837.0</ele><time>2026-04-05T16:48:04.808Z</time></trkpt><trkpt lat="45.8590367" lon="9.0729383"><ele>837.0</ele><time>2026-04-05T16:48:05.808Z</time></trkpt><trkpt lat="45.8589167" lon="9.0729033"><ele>836.75</ele><time>2026-04-05T16:48:06.809Z</time></trkpt><trkpt lat="45.858795" lon="9.0728683"><ele>836.5</ele><time>2026-04-05T16:48:07.808Z</time></trkpt><trkpt lat="45.8586783" lon="9.072825"><ele>836.25</ele><time>2026-04-05T16:48:08.809Z</time></trkpt><trkpt lat="45.8585617" lon="9.0727933"><ele>836.0</ele><time>2026-04-05T16:48:09.808Z</time></trkpt><trkpt lat="45.8584467" lon="9.07276"><ele>835.8333333333334</ele><time>2026-04-05T16:48:10.808Z</time></trkpt><trkpt lat="45.8583483" lon="9.0727317"><ele>835.6666666666667</ele><time>2026-04-05T16:48:11.808Z</time></trkpt><trkpt lat="45.8582617" lon="9.0727183"><ele>835.5</ele><time>2026-04-05T16:48:12.808Z</time></trkpt><trkpt lat="45.8581783" lon="9.0727267"><ele>835.3333333333333</ele><time>2026-04-05T16:48:13.809Z</time></trkpt><trkpt lat="45.8581067" lon="9.072755"><ele>835.1666666666666</ele><time>2026-04-05T16:48:14.808Z</time></trkpt><trkpt lat="45.8580533" lon="9.0728133"><ele>835.0</ele><time>2026-04-05T16:48:15.808Z</time></trkpt><trkpt lat="45.8580117" lon="9.0729667"><ele>835.0</ele><time>2026-04-05T16:48:17.809Z</time></trkpt><trkpt lat="45.8580317" lon="9.0730917"><ele>835.0</ele><time>2026-04-05T16:48:18.808Z</time></trkpt><trkpt lat="45.8580517" lon="9.0732283"><ele>835.0</ele><time>2026-04-05T16:48:19.809Z</time></trkpt><trkpt lat="45.8580567" lon="9.0733633"><ele>835.0</ele><time>2026-04-05T16:48:20.808Z</time></trkpt><trkpt lat="45.8580633" lon="9.0735217"><ele>835.0</ele><time>2026-04-05T16:48:21.808Z</time></trkpt><trkpt lat="45.858075" lon="9.073685"><ele>840.0</ele><time>2026-04-05T16:48:22.808Z</time></trkpt><trkpt lat="45.8580867" lon="9.0738483"><ele>845.0</ele><time>2026-04-05T16:48:23.808Z</time></trkpt><trkpt lat="45.8581067" lon="9.0739967"><ele>850.0</ele><time>2026-04-05T16:48:24.808Z</time></trkpt><trkpt lat="45.8581133" lon="9.0741367"><ele>855.0</ele><time>2026-04-05T16:48:25.808Z</time></trkpt><trkpt lat="45.8581117" lon="9.074275"><ele>860.0</ele><time>2026-04-05T16:48:26.808Z</time></trkpt><trkpt lat="45.8580983" lon="9.0744033"><ele>861.4</ele><time>2026-04-05T16:48:27.808Z</time></trkpt><trkpt lat="45.8580733" lon="9.07455"><ele>862.8</ele><time>2026-04-05T16:48:28.808Z</time></trkpt><trkpt lat="45.8580433" lon="9.0746983"><ele>864.2</ele><time>2026-04-05T16:48:29.808Z</time></trkpt><trkpt lat="45.858005" lon="9.0748283"><ele>865.6</ele><time>2026-04-05T16:48:30.808Z</time></trkpt><trkpt lat="45.85796" lon="9.0749317"><ele>867.0</ele><time>2026-04-05T16:48:31.809Z</time></trkpt><trkpt lat="45.8578967" lon="9.0750067"><ele>867.8</ele><time>2026-04-05T16:48:32.808Z</time></trkpt><trkpt lat="45.8578217" lon="9.0750483"><ele>868.6</ele><time>2026-04-05T16:48:33.809Z</time></trkpt><trkpt lat="45.8577267" lon="9.0750567"><ele>869.3999999999999</ele><time>2026-04-05T16:48:34.808Z</time></trkpt><trkpt lat="45.8576233" lon="9.0750633"><ele>870.1999999999999</ele><time>2026-04-05T16:48:35.808Z</time></trkpt><trkpt lat="45.857515" lon="9.075085"><ele>871.0</ele><time>2026-04-05T16:48:36.809Z</time></trkpt><trkpt lat="45.8574067" lon="9.07511"><ele>862.8</ele><time>2026-04-05T16:48:37.808Z</time></trkpt><trkpt lat="45.857315" lon="9.075135"><ele>854.5999999999999</ele><time>2026-04-05T16:48:38.808Z</time></trkpt><trkpt lat="45.85723" lon="9.0751783"><ele>846.4</ele><time>2026-04-05T16:48:39.809Z</time></trkpt><trkpt lat="45.85715" lon="9.0752467"><ele>838.2</ele><time>2026-04-05T16:48:40.809Z</time></trkpt><trkpt lat="45.85707" lon="9.0753417"><ele>830.0</ele><time>2026-04-05T16:48:41.808Z</time></trkpt><trkpt lat="45.8569733" lon="9.0754567"><ele>830.0000000000001</ele><time>2026-04-05T16:48:42.808Z</time></trkpt><trkpt lat="45.8568883" lon="9.0755533"><ele>830.0</ele><time>2026-04-05T16:48:43.809Z</time></trkpt><trkpt lat="45.85681" lon="9.07562"><ele>830.0</ele><time>2026-04-05T16:48:44.808Z</time></trkpt><trkpt lat="45.856755" lon="9.0756733"><ele>830.0</ele><time>2026-04-05T16:48:45.808Z</time></trkpt><trkpt lat="45.85668" lon="9.0756667"><ele>830.0000000000001</ele><time>2026-04-05T16:48:47.808Z</time></trkpt><trkpt lat="45.8566983" lon="9.0755633"><ele>830.0</ele><time>2026-04-05T16:48:49.808Z</time></trkpt><trkpt lat="45.8567983" lon="9.07542"><ele>830.0000000000001</ele><time>2026-04-05T16:48:51.808Z</time></trkpt><trkpt lat="45.85686" lon="9.0753417"><ele>830.0</ele><time>2026-04-05T16:48:52.809Z</time></trkpt><trkpt lat="45.8569017" lon="9.0752683"><ele>830.0</ele><time>2026-04-05T16:48:53.808Z</time></trkpt><trkpt lat="45.85692" lon="9.0751617"><ele>830.0</ele><time>2026-04-05T16:48:55.809Z</time></trkpt><trkpt lat="45.85684" lon="9.0751433"><ele>830.0000000000001</ele><time>2026-04-05T16:48:57.808Z</time></trkpt><trkpt lat="45.8567733" lon="9.075195"><ele>830.0</ele><time>2026-04-05T16:48:58.809Z</time></trkpt><trkpt lat="45.8566967" lon="9.0752683"><ele>825.8</ele><time>2026-04-05T16:48:59.809Z</time></trkpt><trkpt lat="45.856615" lon="9.0753367"><ele>821.6</ele><time>2026-04-05T16:49:00.808Z</time></trkpt><trkpt lat="45.8565267" lon="9.07539"><ele>817.4000000000001</ele><time>2026-04-05T16:49:01.809Z</time></trkpt><trkpt lat="45.8564367" lon="9.07542"><ele>813.2</ele><time>2026-04-05T16:49:02.808Z</time></trkpt><trkpt lat="45.8563467" lon="9.0754383"><ele>809.0</ele><time>2026-04-05T16:49:03.808Z</time></trkpt><trkpt lat="45.8562633" lon="9.07546"><ele>809.0000000000001</ele><time>2026-04-05T16:49:04.808Z</time></trkpt><trkpt lat="45.856195" lon="9.0755067"><ele>809.0</ele><time>2026-04-05T16:49:05.808Z</time></trkpt><trkpt lat="45.8561333" lon="9.0756017"><ele>809.0</ele><time>2026-04-05T16:49:06.808Z</time></trkpt><trkpt lat="45.856095" lon="9.0757067"><ele>809.0</ele><time>2026-04-05T16:49:07.808Z</time></trkpt><trkpt lat="45.8560583" lon="9.075835"><ele>809.0000000000001</ele><time>2026-04-05T16:49:08.809Z</time></trkpt><trkpt lat="45.85603" lon="9.075975"><ele>809.0</ele><time>2026-04-05T16:49:09.808Z</time></trkpt><trkpt lat="45.8560217" lon="9.0760933"><ele>813.1666666666667</ele><time>2026-04-05T16:49:10.809Z</time></trkpt><trkpt lat="45.8560283" lon="9.0762183"><ele>817.3333333333334</ele><time>2026-04-05T16:49:11.809Z</time></trkpt><trkpt lat="45.8560367" lon="9.07631"><ele>821.5</ele><time>2026-04-05T16:49:12.808Z</time></trkpt><trkpt lat="45.855965" lon="9.0762517"><ele>825.6666666666667</ele><time>2026-04-05T16:49:16.809Z</time></trkpt><trkpt lat="45.85596" lon="9.0761367"><ele>829.8333333333334</ele><time>2026-04-05T16:49:17.808Z</time></trkpt><trkpt lat="45.8559633" lon="9.0760033"><ele>834.0</ele><time>2026-04-05T16:49:18.808Z</time></trkpt><trkpt lat="45.8559783" lon="9.0758383"><ele>829.0</ele><time>2026-04-05T16:49:19.808Z</time></trkpt><trkpt lat="45.8559967" lon="9.0756633"><ele>824.0</ele><time>2026-04-05T16:49:20.808Z</time></trkpt><trkpt lat="45.8560167" lon="9.0755067"><ele>819.0</ele><time>2026-04-05T16:49:21.809Z</time></trkpt><trkpt lat="45.8560483" lon="9.0753767"><ele>814.0</ele><time>2026-04-05T16:49:22.809Z</time></trkpt><trkpt lat="45.856065" lon="9.075275"><ele>809.0</ele><time>2026-04-05T16:49:23.809Z</time></trkpt><trkpt lat="45.8560267" lon="9.0751917"><ele>807.6666666666667</ele><time>2026-04-05T16:49:25.808Z</time></trkpt><trkpt lat="45.8559533" lon="9.075255"><ele>806.3333333333334</ele><time>2026-04-05T16:49:27.808Z</time></trkpt><trkpt lat="45.85593" lon="9.0753417"><ele>805.0</ele><time>2026-04-05T16:49:28.808Z</time></trkpt><trkpt lat="45.855915" lon="9.0754517"><ele>803.6666666666667</ele><time>2026-04-05T16:49:29.808Z</time></trkpt><trkpt lat="45.8559" lon="9.0755717"><ele>802.3333333333334</ele><time>2026-04-05T16:49:30.808Z</time></trkpt><trkpt lat="45.8558783" lon="9.0757033"><ele>801.0</ele><time>2026-04-05T16:49:31.808Z</time></trkpt><trkpt lat="45.855855" lon="9.0758633"><ele>801.0</ele><time>2026-04-05T16:49:32.809Z</time></trkpt><trkpt lat="45.8558467" lon="9.0760283"><ele>801.0</ele><time>2026-04-05T16:49:33.809Z</time></trkpt><trkpt lat="45.8558367" lon="9.0761833"><ele>801.0</ele><time>2026-04-05T16:49:34.808Z</time></trkpt><trkpt lat="45.855835" lon="9.0763333"><ele>801.0</ele><time>2026-04-05T16:49:35.808Z</time></trkpt><trkpt lat="45.8558317" lon="9.0764783"><ele>801.0</ele><time>2026-04-05T16:49:36.808Z</time></trkpt><trkpt lat="45.8558317" lon="9.0766033"><ele>800.3333333333334</ele><time>2026-04-05T16:49:37.808Z</time></trkpt><trkpt lat="45.8558383" lon="9.076715"><ele>799.6666666666667</ele><time>2026-04-05T16:49:38.808Z</time></trkpt><trkpt lat="45.8558517" lon="9.0768233"><ele>799.0</ele><time>2026-04-05T16:49:39.808Z</time></trkpt><trkpt lat="45.8558733" lon="9.0769283"><ele>798.3333333333334</ele><time>2026-04-05T16:49:40.809Z</time></trkpt><trkpt lat="45.8559033" lon="9.0770233"><ele>797.6666666666667</ele><time>2026-04-05T16:49:41.808Z</time></trkpt><trkpt lat="45.8559617" lon="9.0771683"><ele>797.0</ele><time>2026-04-05T16:49:43.808Z</time></trkpt><trkpt lat="45.8560283" lon="9.0772933"><ele>797.0000000000001</ele><time>2026-04-05T16:49:45.809Z</time></trkpt><trkpt lat="45.855925" lon="9.0772417"><ele>797.0</ele><time>2026-04-05T16:49:50.808Z</time></trkpt><trkpt lat="45.8558833" lon="9.07716"><ele>797.0</ele><time>2026-04-05T16:49:51.808Z</time></trkpt><trkpt lat="45.8558117" lon="9.07703"><ele>797.0</ele><time>2026-04-05T16:49:53.809Z</time></trkpt><trkpt lat="45.8557717" lon="9.0769483"><ele>797.0000000000001</ele><time>2026-04-05T16:49:55.808Z</time></trkpt><trkpt lat="45.855745" lon="9.0768617"><ele>797.0</ele><time>2026-04-05T16:49:59.809Z</time></trkpt><trkpt lat="45.8557283" lon="9.0767617"><ele>797.0</ele><time>2026-04-05T16:51:08.808Z</time></trkpt><trkpt lat="45.8556933" lon="9.0766317"><ele>797.0</ele><time>2026-04-05T16:51:10.809Z</time></trkpt><trkpt lat="45.85568" lon="9.0765267"><ele>797.0</ele><time>2026-04-05T16:51:11.809Z</time></trkpt><trkpt lat="45.85566" lon="9.07638"><ele>797.0</ele><time>2026-04-05T16:51:12.808Z</time></trkpt><trkpt lat="45.8556383" lon="9.0762233"><ele>797.0</ele><time>2026-04-05T16:51:13.808Z</time></trkpt><trkpt lat="45.85562" lon="9.076055"><ele>797.8</ele><time>2026-04-05T16:51:14.808Z</time></trkpt><trkpt lat="45.8556117" lon="9.07589"><ele>798.6</ele><time>2026-04-05T16:51:15.808Z</time></trkpt><trkpt lat="45.8556033" lon="9.07574"><ele>799.4</ele><time>2026-04-05T16:51:16.808Z</time></trkpt><trkpt lat="45.855595" lon="9.07561"><ele>800.1999999999999</ele><time>2026-04-05T16:51:17.808Z</time></trkpt><trkpt lat="45.8555883" lon="9.0755017"><ele>801.0</ele><time>2026-04-05T16:51:18.808Z</time></trkpt><trkpt lat="45.855555" lon="9.075385"><ele>801.0</ele><time>2026-04-05T16:51:20.808Z</time></trkpt><trkpt lat="45.8555167" lon="9.0754933"><ele>801.0</ele><time>2026-04-05T16:51:23.808Z</time></trkpt><trkpt lat="45.8555283" lon="9.07559"><ele>801.0</ele><time>2026-04-05T16:51:24.808Z</time></trkpt><trkpt lat="45.8555383" lon="9.07571"><ele>801.0</ele><time>2026-04-05T16:51:25.808Z</time></trkpt><trkpt lat="45.855545" lon="9.075865"><ele>801.0</ele><time>2026-04-05T16:51:26.808Z</time></trkpt><trkpt lat="45.8555467" lon="9.076035"><ele>801.0</ele><time>2026-04-05T16:51:27.808Z</time></trkpt><trkpt lat="45.8555483" lon="9.076235"><ele>801.0</ele><time>2026-04-05T16:51:28.808Z</time></trkpt><trkpt lat="45.8555533" lon="9.0764383"><ele>801.0</ele><time>2026-04-05T16:51:29.808Z</time></trkpt><trkpt lat="45.8555583" lon="9.076625"><ele>801.0</ele><time>2026-04-05T16:51:30.808Z</time></trkpt><trkpt lat="45.8555667" lon="9.0767967"><ele>800.0</ele><time>2026-04-05T16:51:31.808Z</time></trkpt><trkpt lat="45.8555833" lon="9.0769583"><ele>799.0</ele><time>2026-04-05T16:51:32.808Z</time></trkpt><trkpt lat="45.8556183" lon="9.07712"><ele>798.0</ele><time>2026-04-05T16:51:33.809Z</time></trkpt><trkpt lat="45.8556583" lon="9.07728"><ele>797.0</ele><time>2026-04-05T16:51:34.808Z</time></trkpt><trkpt lat="45.8557033" lon="9.0774467"><ele>793.75</ele><time>2026-04-05T16:51:35.808Z</time></trkpt><trkpt lat="45.8557417" lon="9.07763"><ele>790.5</ele><time>2026-04-05T16:51:36.808Z</time></trkpt><trkpt lat="45.85579" lon="9.0778167"><ele>787.25</ele><time>2026-04-05T16:51:37.808Z</time></trkpt><trkpt lat="45.8558417" lon="9.0780083"><ele>784.0</ele><time>2026-04-05T16:51:38.809Z</time></trkpt><trkpt lat="45.855905" lon="9.078205"><ele>800.0</ele><time>2026-04-05T16:51:39.808Z</time></trkpt><trkpt lat="45.8559667" lon="9.078415"><ele>816.0</ele><time>2026-04-05T16:51:40.809Z</time></trkpt><trkpt lat="45.8560383" lon="9.0786217"><ele>832.0</ele><time>2026-04-05T16:51:41.808Z</time></trkpt><trkpt lat="45.8561067" lon="9.0788183"><ele>832.0</ele><time>2026-04-05T16:51:42.808Z</time></trkpt><trkpt lat="45.856165" lon="9.079015"><ele>832.0</ele><time>2026-04-05T16:51:43.808Z</time></trkpt><trkpt lat="45.8562233" lon="9.0792"><ele>832.0</ele><time>2026-04-05T16:51:44.809Z</time></trkpt><trkpt lat="45.856275" lon="9.079385"><ele>832.0</ele><time>2026-04-05T16:51:45.808Z</time></trkpt><trkpt lat="45.8563217" lon="9.0795683"><ele>825.0</ele><time>2026-04-05T16:51:46.808Z</time></trkpt><trkpt lat="45.8563583" lon="9.0797483"><ele>818.0</ele><time>2026-04-05T16:51:47.808Z</time></trkpt><trkpt lat="45.856395" lon="9.0799183"><ele>811.0</ele><time>2026-04-05T16:51:48.808Z</time></trkpt><trkpt lat="45.8564283" lon="9.0800983"><ele>804.0</ele><time>2026-04-05T16:51:49.808Z</time></trkpt><trkpt lat="45.8564583" lon="9.0802717"><ele>798.6</ele><time>2026-04-05T16:51:50.808Z</time></trkpt><trkpt lat="45.8564867" lon="9.08043"><ele>793.2</ele><time>2026-04-05T16:51:51.808Z</time></trkpt><trkpt lat="45.856525" lon="9.0805633"><ele>787.8000000000001</ele><time>2026-04-05T16:51:52.808Z</time></trkpt><trkpt lat="45.85657" lon="9.080685"><ele>782.4000000000001</ele><time>2026-04-05T16:51:53.808Z</time></trkpt><trkpt lat="45.8566333" lon="9.0807883"><ele>777.0</ele><time>2026-04-05T16:51:54.808Z</time></trkpt><trkpt lat="45.8567083" lon="9.0808983"><ele>782.25</ele><time>2026-04-05T16:51:55.808Z</time></trkpt><trkpt lat="45.8567933" lon="9.0810183"><ele>787.5</ele><time>2026-04-05T16:51:56.808Z</time></trkpt><trkpt lat="45.8568833" lon="9.081155"><ele>792.75</ele><time>2026-04-05T16:51:57.808Z</time></trkpt><trkpt lat="45.8569717" lon="9.08129"><ele>798.0</ele><time>2026-04-05T16:51:58.808Z</time></trkpt><trkpt lat="45.8570583" lon="9.081425"><ele>798.0</ele><time>2026-04-05T16:51:59.809Z</time></trkpt><trkpt lat="45.8571367" lon="9.0815483"><ele>798.0</ele><time>2026-04-05T16:52:00.808Z</time></trkpt><trkpt lat="45.8572217" lon="9.0816667"><ele>798.0</ele><time>2026-04-05T16:52:01.808Z</time></trkpt><trkpt lat="45.8573" lon="9.0817517"><ele>798.0</ele><time>2026-04-05T16:52:02.808Z</time></trkpt><trkpt lat="45.8573967" lon="9.0818333"><ele>798.0</ele><time>2026-04-05T16:52:03.808Z</time></trkpt><trkpt lat="45.857505" lon="9.0819217"><ele>792.8</ele><time>2026-04-05T16:52:04.808Z</time></trkpt><trkpt lat="45.8576167" lon="9.0820017"><ele>787.5999999999999</ele><time>2026-04-05T16:52:05.808Z</time></trkpt><trkpt lat="45.8577233" lon="9.082065"><ele>782.4000000000001</ele><time>2026-04-05T16:52:06.809Z</time></trkpt><trkpt lat="45.8578217" lon="9.0821133"><ele>777.2</ele><time>2026-04-05T16:52:07.808Z</time></trkpt><trkpt lat="45.8579133" lon="9.0821467"><ele>772.0</ele><time>2026-04-05T16:52:08.808Z</time></trkpt><trkpt lat="45.8580167" lon="9.0821667"><ele>772.0</ele><time>2026-04-05T16:52:09.808Z</time></trkpt><trkpt lat="45.8581283" lon="9.0821767"><ele>772.0</ele><time>2026-04-05T16:52:10.809Z</time></trkpt><trkpt lat="45.858235" lon="9.0821733"><ele>772.0</ele><time>2026-04-05T16:52:11.808Z</time></trkpt><trkpt lat="45.8583433" lon="9.0821383"><ele>772.0</ele><time>2026-04-05T16:52:12.808Z</time></trkpt><trkpt lat="45.858445" lon="9.0820833"><ele>772.0</ele><time>2026-04-05T16:52:13.808Z</time></trkpt><trkpt lat="45.8585283" lon="9.0820483"><ele>768.9999999999999</ele><time>2026-04-05T16:52:14.808Z</time></trkpt><trkpt lat="45.8586017" lon="9.082035"><ele>766.0</ele><time>2026-04-05T16:52:15.808Z</time></trkpt><trkpt lat="45.858665" lon="9.0820617"><ele>763.0</ele><time>2026-04-05T16:52:16.809Z</time></trkpt><trkpt lat="45.8587267" lon="9.082125"><ele>760.0</ele><time>2026-04-05T16:52:17.808Z</time></trkpt><trkpt lat="45.8587867" lon="9.0822217"><ele>757.0</ele><time>2026-04-05T16:52:18.808Z</time></trkpt><trkpt lat="45.85886" lon="9.0823433"><ele>754.0</ele><time>2026-04-05T16:52:19.808Z</time></trkpt><trkpt lat="45.858945" lon="9.0824883"><ele>754.0</ele><time>2026-04-05T16:52:20.808Z</time></trkpt><trkpt lat="45.8590233" lon="9.0826333"><ele>754.0</ele><time>2026-04-05T16:52:21.809Z</time></trkpt><trkpt lat="45.8590833" lon="9.082775"><ele>754.0</ele><time>2026-04-05T16:52:22.808Z</time></trkpt><trkpt lat="45.8591317" lon="9.0828817"><ele>754.0</ele><time>2026-04-05T16:52:23.808Z</time></trkpt><trkpt lat="45.859195" lon="9.0829767"><ele>754.0</ele><time>2026-04-05T16:52:24.808Z</time></trkpt><trkpt lat="45.8592733" lon="9.08306"><ele>753.4000000000001</ele><time>2026-04-05T16:52:25.809Z</time></trkpt><trkpt lat="45.8593733" lon="9.0831267"><ele>752.8</ele><time>2026-04-05T16:52:26.809Z</time></trkpt><trkpt lat="45.859485" lon="9.0831783"><ele>752.2</ele><time>2026-04-05T16:52:27.808Z</time></trkpt><trkpt lat="45.8595833" lon="9.083235"><ele>751.5999999999999</ele><time>2026-04-05T16:52:28.809Z</time></trkpt><trkpt lat="45.8596617" lon="9.083325"><ele>751.0</ele><time>2026-04-05T16:52:29.809Z</time></trkpt><trkpt lat="45.8597283" lon="9.08344"><ele>751.0</ele><time>2026-04-05T16:52:30.808Z</time></trkpt><trkpt lat="45.8597617" lon="9.0835767"><ele>751.0</ele><time>2026-04-05T16:52:31.809Z</time></trkpt><trkpt lat="45.85979" lon="9.08372"><ele>751.0</ele><time>2026-04-05T16:52:32.808Z</time></trkpt><trkpt lat="45.8598167" lon="9.0838667"><ele>751.0</ele><time>2026-04-05T16:52:33.808Z</time></trkpt><trkpt lat="45.8598617" lon="9.084005"><ele>751.0</ele><time>2026-04-05T16:52:34.808Z</time></trkpt><trkpt lat="45.8599333" lon="9.0841383"><ele>745.25</ele><time>2026-04-05T16:52:35.808Z</time></trkpt><trkpt lat="45.860005" lon="9.0842967"><ele>739.5</ele><time>2026-04-05T16:52:36.809Z</time></trkpt><trkpt lat="45.860065" lon="9.08447"><ele>733.75</ele><time>2026-04-05T16:52:37.809Z</time></trkpt><trkpt lat="45.8601217" lon="9.0846533"><ele>728.0</ele><time>2026-04-05T16:52:38.808Z</time></trkpt><trkpt lat="45.86018" lon="9.0848367"><ele>732.5</ele><time>2026-04-05T16:52:39.808Z</time></trkpt><trkpt lat="45.8602383" lon="9.0849983"><ele>737.0</ele><time>2026-04-05T16:52:40.808Z</time></trkpt><trkpt lat="45.8602817" lon="9.08514"><ele>741.5</ele><time>2026-04-05T16:52:41.808Z</time></trkpt><trkpt lat="45.86034" lon="9.0852667"><ele>746.0</ele><time>2026-04-05T16:52:42.808Z</time></trkpt><trkpt lat="45.8604133" lon="9.0853867"><ele>746.0</ele><time>2026-04-05T16:52:43.809Z</time></trkpt><trkpt lat="45.8605" lon="9.0855167"><ele>746.0</ele><time>2026-04-05T16:52:44.809Z</time></trkpt><trkpt lat="45.8605883" lon="9.08565"><ele>746.0</ele><time>2026-04-05T16:52:45.808Z</time></trkpt><trkpt lat="45.86068" lon="9.0857917"><ele>746.0</ele><time>2026-04-05T16:52:46.808Z</time></trkpt><trkpt lat="45.8607833" lon="9.0859117"><ele>742.75</ele><time>2026-04-05T16:52:47.809Z</time></trkpt><trkpt lat="45.8608917" lon="9.0860233"><ele>739.5</ele><time>2026-04-05T16:52:48.808Z</time></trkpt><trkpt lat="45.8610033" lon="9.08612"><ele>736.25</ele><time>2026-04-05T16:52:49.808Z</time></trkpt><trkpt lat="45.8611283" lon="9.08622"><ele>733.0</ele><time>2026-04-05T16:52:50.808Z</time></trkpt><trkpt lat="45.8612583" lon="9.0863283"><ele>733.0</ele><time>2026-04-05T16:52:51.808Z</time></trkpt><trkpt lat="45.8613783" lon="9.0864617"><ele>733.0</ele><time>2026-04-05T16:52:52.808Z</time></trkpt><trkpt lat="45.8614783" lon="9.086585"><ele>733.0</ele><time>2026-04-05T16:52:53.808Z</time></trkpt><trkpt lat="45.8615817" lon="9.086695"><ele>733.0</ele><time>2026-04-05T16:52:54.808Z</time></trkpt><trkpt lat="45.8616717" lon="9.08679"><ele>727.6666666666667</ele><time>2026-04-05T16:52:55.808Z</time></trkpt><trkpt lat="45.8617533" lon="9.086855"><ele>722.3333333333334</ele><time>2026-04-05T16:52:56.808Z</time></trkpt><trkpt lat="45.8618233" lon="9.0868967"><ele>717.0</ele><time>2026-04-05T16:52:57.808Z</time></trkpt><trkpt lat="45.8619" lon="9.0869983"><ele>711.6666666666666</ele><time>2026-04-05T16:52:59.808Z</time></trkpt><trkpt lat="45.8618283" lon="9.0870517"><ele>706.3333333333333</ele><time>2026-04-05T16:53:01.808Z</time></trkpt><trkpt lat="45.86174" lon="9.0870233"><ele>701.0</ele><time>2026-04-05T16:53:02.809Z</time></trkpt><trkpt lat="45.8616133" lon="9.086965"><ele>701.0</ele><time>2026-04-05T16:53:03.809Z</time></trkpt><trkpt lat="45.8614683" lon="9.0868817"><ele>701.0</ele><time>2026-04-05T16:53:04.809Z</time></trkpt><trkpt lat="45.861325" lon="9.0867883"><ele>701.0</ele><time>2026-04-05T16:53:05.808Z</time></trkpt><trkpt lat="45.8611883" lon="9.0867083"><ele>701.0</ele><time>2026-04-05T16:53:06.808Z</time></trkpt><trkpt lat="45.861055" lon="9.086625"><ele>701.0</ele><time>2026-04-05T16:53:07.808Z</time></trkpt><trkpt lat="45.860925" lon="9.0865583"><ele>701.0</ele><time>2026-04-05T16:53:08.808Z</time></trkpt><trkpt lat="45.8607967" lon="9.0865117"><ele>701.0</ele><time>2026-04-05T16:53:09.809Z</time></trkpt><trkpt lat="45.8606833" lon="9.0864717"><ele>703.1999999999999</ele><time>2026-04-05T16:53:10.808Z</time></trkpt><trkpt lat="45.8605833" lon="9.0864367"><ele>705.4</ele><time>2026-04-05T16:53:11.808Z</time></trkpt><trkpt lat="45.8605033" lon="9.08638"><ele>707.6</ele><time>2026-04-05T16:53:12.808Z</time></trkpt><trkpt lat="45.8604267" lon="9.086295"><ele>709.8</ele><time>2026-04-05T16:53:13.808Z</time></trkpt><trkpt lat="45.860345" lon="9.0861933"><ele>712.0</ele><time>2026-04-05T16:53:14.808Z</time></trkpt><trkpt lat="45.860255" lon="9.0860867"><ele>712.0</ele><time>2026-04-05T16:53:15.808Z</time></trkpt><trkpt lat="45.8601583" lon="9.0859867"><ele>712.0</ele><time>2026-04-05T16:53:16.808Z</time></trkpt><trkpt lat="45.8600667" lon="9.08591"><ele>712.0</ele><time>2026-04-05T16:53:17.808Z</time></trkpt><trkpt lat="45.85998" lon="9.0858517"><ele>712.0</ele><time>2026-04-05T16:53:18.808Z</time></trkpt><trkpt lat="45.85988" lon="9.0858217"><ele>712.0</ele><time>2026-04-05T16:53:19.809Z</time></trkpt><trkpt lat="45.8597783" lon="9.0857933"><ele>711.0</ele><time>2026-04-05T16:53:20.808Z</time></trkpt><trkpt lat="45.85968" lon="9.085735"><ele>710.0</ele><time>2026-04-05T16:53:21.808Z</time></trkpt><trkpt lat="45.8595967" lon="9.08566"><ele>709.0</ele><time>2026-04-05T16:53:22.809Z</time></trkpt><trkpt lat="45.8595367" lon="9.08559"><ele>708.0</ele><time>2026-04-05T16:53:23.808Z</time></trkpt><trkpt lat="45.8594533" lon="9.08553"><ele>707.0</ele><time>2026-04-05T16:53:25.809Z</time></trkpt><trkpt lat="45.8594133" lon="9.08562"><ele>707.0</ele><time>2026-04-05T16:53:27.808Z</time></trkpt><trkpt lat="45.8594383" lon="9.0857133"><ele>707.0</ele><time>2026-04-05T16:53:28.808Z</time></trkpt><trkpt lat="45.8595017" lon="9.0858217"><ele>707.0</ele><time>2026-04-05T16:53:29.808Z</time></trkpt><trkpt lat="45.859615" lon="9.0859383"><ele>707.0</ele><time>2026-04-05T16:53:30.808Z</time></trkpt><trkpt lat="45.8597417" lon="9.08605"><ele>701.25</ele><time>2026-04-05T16:53:31.809Z</time></trkpt><trkpt lat="45.8598683" lon="9.0861567"><ele>695.5</ele><time>2026-04-05T16:53:32.809Z</time></trkpt><trkpt lat="45.8599833" lon="9.086275"><ele>689.75</ele><time>2026-04-05T16:53:33.808Z</time></trkpt><trkpt lat="45.860085" lon="9.08643"><ele>684.0</ele><time>2026-04-05T16:53:34.808Z</time></trkpt><trkpt lat="45.8601933" lon="9.0866067"><ele>683.0</ele><time>2026-04-05T16:53:35.809Z</time></trkpt><trkpt lat="45.8602867" lon="9.0867883"><ele>682.0</ele><time>2026-04-05T16:53:36.808Z</time></trkpt><trkpt lat="45.8603767" lon="9.08696"><ele>681.0</ele><time>2026-04-05T16:53:37.808Z</time></trkpt><trkpt lat="45.8604683" lon="9.0871267"><ele>681.0</ele><time>2026-04-05T16:53:38.808Z</time></trkpt><trkpt lat="45.8605533" lon="9.087285"><ele>681.0</ele><time>2026-04-05T16:53:39.809Z</time></trkpt><trkpt lat="45.8606433" lon="9.0874383"><ele>681.0</ele><time>2026-04-05T16:53:40.809Z</time></trkpt><trkpt lat="45.860715" lon="9.0875917"><ele>681.0</ele><time>2026-04-05T16:53:41.808Z</time></trkpt><trkpt lat="45.86077" lon="9.0877633"><ele>674.5</ele><time>2026-04-05T16:53:42.808Z</time></trkpt><trkpt lat="45.86081" lon="9.08794"><ele>668.0</ele><time>2026-04-05T16:53:43.808Z</time></trkpt><trkpt lat="45.8608367" lon="9.0881167"><ele>661.5</ele><time>2026-04-05T16:53:44.808Z</time></trkpt><trkpt lat="45.860865" lon="9.0882817"><ele>655.0</ele><time>2026-04-05T16:53:45.809Z</time></trkpt><trkpt lat="45.8608917" lon="9.0884383"><ele>653.0</ele><time>2026-04-05T16:53:46.808Z</time></trkpt><trkpt lat="45.8609283" lon="9.0885933"><ele>651.0</ele><time>2026-04-05T16:53:47.808Z</time></trkpt><trkpt lat="45.8609867" lon="9.08875"><ele>649.0</ele><time>2026-04-05T16:53:48.808Z</time></trkpt><trkpt lat="45.8610517" lon="9.0889033"><ele>647.0</ele><time>2026-04-05T16:53:49.809Z</time></trkpt><trkpt lat="45.86111" lon="9.0890517"><ele>649.25</ele><time>2026-04-05T16:53:50.809Z</time></trkpt><trkpt lat="45.8611733" lon="9.0891883"><ele>651.5</ele><time>2026-04-05T16:53:51.808Z</time></trkpt><trkpt lat="45.8612567" lon="9.089325"><ele>653.75</ele><time>2026-04-05T16:53:52.808Z</time></trkpt><trkpt lat="45.861345" lon="9.0894467"><ele>656.0</ele><time>2026-04-05T16:53:53.808Z</time></trkpt><trkpt lat="45.8614383" lon="9.089535"><ele>656.0</ele><time>2026-04-05T16:53:54.808Z</time></trkpt><trkpt lat="45.8615383" lon="9.0896"><ele>656.0</ele><time>2026-04-05T16:53:55.808Z</time></trkpt><trkpt lat="45.86164" lon="9.0896483"><ele>656.0</ele><time>2026-04-05T16:53:56.808Z</time></trkpt><trkpt lat="45.8617467" lon="9.0896833"><ele>656.0</ele><time>2026-04-05T16:53:57.808Z</time></trkpt><trkpt lat="45.8618617" lon="9.0897333"><ele>656.0</ele><time>2026-04-05T16:53:58.809Z</time></trkpt><trkpt lat="45.8619817" lon="9.08981"><ele>650.75</ele><time>2026-04-05T16:53:59.808Z</time></trkpt><trkpt lat="45.8621083" lon="9.0898983"><ele>645.5</ele><time>2026-04-05T16:54:00.808Z</time></trkpt><trkpt lat="45.8622317" lon="9.089955"><ele>640.25</ele><time>2026-04-05T16:54:01.808Z</time></trkpt><trkpt lat="45.8623383" lon="9.089985"><ele>635.0</ele><time>2026-04-05T16:54:02.808Z</time></trkpt><trkpt lat="45.8624417" lon="9.08998"><ele>633.0</ele><time>2026-04-05T16:54:03.808Z</time></trkpt><trkpt lat="45.8625233" lon="9.08996"><ele>631.0</ele><time>2026-04-05T16:54:04.808Z</time></trkpt><trkpt lat="45.8626017" lon="9.0899383"><ele>629.0</ele><time>2026-04-05T16:54:05.809Z</time></trkpt><trkpt lat="45.8626683" lon="9.0899983"><ele>627.0</ele><time>2026-04-05T16:54:07.808Z</time></trkpt><trkpt lat="45.8626017" lon="9.0900933"><ele>625.0</ele><time>2026-04-05T16:54:09.808Z</time></trkpt><trkpt lat="45.8625083" lon="9.090115"><ele>623.0</ele><time>2026-04-05T16:54:10.808Z</time></trkpt><trkpt lat="45.8623767" lon="9.0901133"><ele>623.0</ele><time>2026-04-05T16:54:11.809Z</time></trkpt><trkpt lat="45.8622383" lon="9.090105"><ele>623.0</ele><time>2026-04-05T16:54:12.808Z</time></trkpt><trkpt lat="45.8621017" lon="9.0900883"><ele>623.0</ele><time>2026-04-05T16:54:13.808Z</time></trkpt><trkpt lat="45.861965" lon="9.090065"><ele>623.0</ele><time>2026-04-05T16:54:14.808Z</time></trkpt><trkpt lat="45.8618317" lon="9.0900467"><ele>623.25</ele><time>2026-04-05T16:54:15.808Z</time></trkpt><trkpt lat="45.8617033" lon="9.0900533"><ele>623.5</ele><time>2026-04-05T16:54:16.809Z</time></trkpt><trkpt lat="45.86158" lon="9.0900617"><ele>623.75</ele><time>2026-04-05T16:54:17.808Z</time></trkpt><trkpt lat="45.86146" lon="9.090055"><ele>624.0</ele><time>2026-04-05T16:54:18.808Z</time></trkpt><trkpt lat="45.861335" lon="9.0900217"><ele>624.0</ele><time>2026-04-05T16:54:19.808Z</time></trkpt><trkpt lat="45.8612183" lon="9.089955"><ele>624.0</ele><time>2026-04-05T16:54:20.808Z</time></trkpt><trkpt lat="45.8610917" lon="9.0898917"><ele>624.0</ele><time>2026-04-05T16:54:21.808Z</time></trkpt><trkpt lat="45.8609667" lon="9.0898167"><ele>624.0</ele><time>2026-04-05T16:54:22.808Z</time></trkpt><trkpt lat="45.86085" lon="9.0897283"><ele>625.25</ele><time>2026-04-05T16:54:23.809Z</time></trkpt><trkpt lat="45.8607283" lon="9.0896367"><ele>626.5</ele><time>2026-04-05T16:54:24.808Z</time></trkpt><trkpt lat="45.8606167" lon="9.089545"><ele>627.75</ele><time>2026-04-05T16:54:25.808Z</time></trkpt><trkpt lat="45.860495" lon="9.0894633"><ele>629.0</ele><time>2026-04-05T16:54:26.808Z</time></trkpt><trkpt lat="45.8603833" lon="9.0893617"><ele>629.0</ele><time>2026-04-05T16:54:27.808Z</time></trkpt><trkpt lat="45.8602883" lon="9.0892333"><ele>629.0</ele><time>2026-04-05T16:54:28.809Z</time></trkpt><trkpt lat="45.8601967" lon="9.089095"><ele>629.0</ele><time>2026-04-05T16:54:29.809Z</time></trkpt><trkpt lat="45.8601283" lon="9.0889417"><ele>629.0</ele><time>2026-04-05T16:54:30.808Z</time></trkpt><trkpt lat="45.8600383" lon="9.0887983"><ele>624.25</ele><time>2026-04-05T16:54:31.808Z</time></trkpt><trkpt lat="45.8599383" lon="9.088675"><ele>619.5</ele><time>2026-04-05T16:54:32.808Z</time></trkpt><trkpt lat="45.8598267" lon="9.0885683"><ele>614.75</ele><time>2026-04-05T16:54:33.808Z</time></trkpt><trkpt lat="45.8597117" lon="9.088465"><ele>610.0</ele><time>2026-04-05T16:54:34.809Z</time></trkpt><trkpt lat="45.859595" lon="9.0884017"><ele>610.0</ele><time>2026-04-05T16:54:35.809Z</time></trkpt><trkpt lat="45.85948" lon="9.08833"><ele>610.0</ele><time>2026-04-05T16:54:36.809Z</time></trkpt><trkpt lat="45.8593567" lon="9.088265"><ele>610.0</ele><time>2026-04-05T16:54:37.808Z</time></trkpt><trkpt lat="45.85924" lon="9.0882133"><ele>610.0</ele><time>2026-04-05T16:54:38.809Z</time></trkpt><trkpt lat="45.859135" lon="9.0881483"><ele>608.75</ele><time>2026-04-05T16:54:39.808Z</time></trkpt><trkpt lat="45.8590333" lon="9.0880533"><ele>607.5</ele><time>2026-04-05T16:54:40.808Z</time></trkpt><trkpt lat="45.8589483" lon="9.08794"><ele>606.25</ele><time>2026-04-05T16:54:41.808Z</time></trkpt><trkpt lat="45.8588833" lon="9.0878233"><ele>605.0</ele><time>2026-04-05T16:54:42.808Z</time></trkpt><trkpt lat="45.8588017" lon="9.0877083"><ele>605.0</ele><time>2026-04-05T16:54:43.808Z</time></trkpt><trkpt lat="45.8587033" lon="9.0876033"><ele>605.0</ele><time>2026-04-05T16:54:44.809Z</time></trkpt><trkpt lat="45.858585" lon="9.0874983"><ele>605.0</ele><time>2026-04-05T16:54:45.808Z</time></trkpt><trkpt lat="45.8584567" lon="9.0873967"><ele>605.0</ele><time>2026-04-05T16:54:46.809Z</time></trkpt><trkpt lat="45.8583267" lon="9.0873233"><ele>606.25</ele><time>2026-04-05T16:54:47.808Z</time></trkpt><trkpt lat="45.858185" lon="9.0872567"><ele>607.5</ele><time>2026-04-05T16:54:48.808Z</time></trkpt><trkpt lat="45.858045" lon="9.0872083"><ele>608.75</ele><time>2026-04-05T16:54:49.808Z</time></trkpt><trkpt lat="45.8579083" lon="9.0871667"><ele>610.0</ele><time>2026-04-05T16:54:50.808Z</time></trkpt><trkpt lat="45.85778" lon="9.087115"><ele>610.0</ele><time>2026-04-05T16:54:51.808Z</time></trkpt><trkpt lat="45.8576517" lon="9.08704"><ele>610.0</ele><time>2026-04-05T16:54:52.808Z</time></trkpt><trkpt lat="45.8575317" lon="9.08695"><ele>610.0</ele><time>2026-04-05T16:54:53.808Z</time></trkpt><trkpt lat="45.8574317" lon="9.08684"><ele>610.0</ele><time>2026-04-05T16:54:54.809Z</time></trkpt><trkpt lat="45.8573517" lon="9.086705"><ele>610.2</ele><time>2026-04-05T16:54:55.809Z</time></trkpt><trkpt lat="45.8573" lon="9.0865717"><ele>610.4</ele><time>2026-04-05T16:54:56.808Z</time></trkpt><trkpt lat="45.8572417" lon="9.0864617"><ele>610.6</ele><time>2026-04-05T16:54:57.808Z</time></trkpt><trkpt lat="45.8571633" lon="9.0863817"><ele>610.8</ele><time>2026-04-05T16:54:58.808Z</time></trkpt><trkpt lat="45.8570617" lon="9.0863167"><ele>611.0</ele><time>2026-04-05T16:54:59.808Z</time></trkpt><trkpt lat="45.8569517" lon="9.0862633"><ele>611.0</ele><time>2026-04-05T16:55:00.808Z</time></trkpt><trkpt lat="45.856845" lon="9.08624"><ele>611.0</ele><time>2026-04-05T16:55:01.808Z</time></trkpt><trkpt lat="45.8567367" lon="9.08623"><ele>611.0</ele><time>2026-04-05T16:55:02.808Z</time></trkpt><trkpt lat="45.8566417" lon="9.0862517"><ele>611.0</ele><time>2026-04-05T16:55:03.808Z</time></trkpt><trkpt lat="45.8565467" lon="9.0862917"><ele>611.0</ele><time>2026-04-05T16:55:04.808Z</time></trkpt><trkpt lat="45.8564483" lon="9.0863617"><ele>605.6</ele><time>2026-04-05T16:55:05.808Z</time></trkpt><trkpt lat="45.8563483" lon="9.0864467"><ele>600.2</ele><time>2026-04-05T16:55:06.808Z</time></trkpt><trkpt lat="45.85625" lon="9.0865333"><ele>594.8</ele><time>2026-04-05T16:55:07.808Z</time></trkpt><trkpt lat="45.85617" lon="9.086575"><ele>589.4</ele><time>2026-04-05T16:55:08.808Z</time></trkpt><trkpt lat="45.8560883" lon="9.086575"><ele>584.0</ele><time>2026-04-05T16:55:09.808Z</time></trkpt><trkpt lat="45.8560033" lon="9.0865433"><ele>580.25</ele><time>2026-04-05T16:55:10.808Z</time></trkpt><trkpt lat="45.8559117" lon="9.0864817"><ele>576.5</ele><time>2026-04-05T16:55:11.808Z</time></trkpt><trkpt lat="45.8558017" lon="9.0864033"><ele>572.75</ele><time>2026-04-05T16:55:12.808Z</time></trkpt><trkpt lat="45.8556883" lon="9.086325"><ele>569.0</ele><time>2026-04-05T16:55:13.809Z</time></trkpt><trkpt lat="45.8555833" lon="9.086255"><ele>569.0</ele><time>2026-04-05T16:55:14.808Z</time></trkpt><trkpt lat="45.8554817" lon="9.086195"><ele>569.0</ele><time>2026-04-05T16:55:15.808Z</time></trkpt><trkpt lat="45.8553933" lon="9.0861217"><ele>569.0</ele><time>2026-04-05T16:55:16.808Z</time></trkpt><trkpt lat="45.8553067" lon="9.086065"><ele>569.0</ele><time>2026-04-05T16:55:17.808Z</time></trkpt><trkpt lat="45.85521" lon="9.08601"><ele>569.0</ele><time>2026-04-05T16:55:18.808Z</time></trkpt><trkpt lat="45.8551133" lon="9.085955"><ele>566.2</ele><time>2026-04-05T16:55:19.809Z</time></trkpt><trkpt lat="45.8550317" lon="9.0858883"><ele>563.4</ele><time>2026-04-05T16:55:20.809Z</time></trkpt><trkpt lat="45.8549667" lon="9.085805"><ele>560.6</ele><time>2026-04-05T16:55:21.808Z</time></trkpt><trkpt lat="45.85492" lon="9.085715"><ele>557.8</ele><time>2026-04-05T16:55:22.808Z</time></trkpt><trkpt lat="45.854885" lon="9.085595"><ele>555.0</ele><time>2026-04-05T16:55:23.808Z</time></trkpt><trkpt lat="45.8548517" lon="9.0854383"><ele>555.0</ele><time>2026-04-05T16:55:24.808Z</time></trkpt><trkpt lat="45.85482" lon="9.085265"><ele>555.0</ele><time>2026-04-05T16:55:25.808Z</time></trkpt><trkpt lat="45.854785" lon="9.08508"><ele>555.0</ele><time>2026-04-05T16:55:26.808Z</time></trkpt><trkpt lat="45.8547433" lon="9.0848983"><ele>555.0</ele><time>2026-04-05T16:55:27.809Z</time></trkpt><trkpt lat="45.8547117" lon="9.0847117"><ele>559.0</ele><time>2026-04-05T16:55:28.808Z</time></trkpt><trkpt lat="45.854675" lon="9.0845333"><ele>563.0</ele><time>2026-04-05T16:55:29.808Z</time></trkpt><trkpt lat="45.854635" lon="9.08436"><ele>567.0</ele><time>2026-04-05T16:55:30.808Z</time></trkpt><trkpt lat="45.8545867" lon="9.0842033"><ele>571.0</ele><time>2026-04-05T16:55:31.808Z</time></trkpt><trkpt lat="45.854535" lon="9.0840667"><ele>575.5</ele><time>2026-04-05T16:55:32.808Z</time></trkpt><trkpt lat="45.8544567" lon="9.0839417"><ele>580.0</ele><time>2026-04-05T16:55:33.808Z</time></trkpt><trkpt lat="45.8543617" lon="9.0838183"><ele>584.5</ele><time>2026-04-05T16:55:34.808Z</time></trkpt><trkpt lat="45.854265" lon="9.0836933"><ele>589.0</ele><time>2026-04-05T16:55:35.808Z</time></trkpt><trkpt lat="45.85418" lon="9.0835817"><ele>581.0</ele><time>2026-04-05T16:55:36.808Z</time></trkpt><trkpt lat="45.8541067" lon="9.0834767"><ele>573.0</ele><time>2026-04-05T16:55:37.808Z</time></trkpt><trkpt lat="45.8540517" lon="9.0834017"><ele>565.0</ele><time>2026-04-05T16:55:38.808Z</time></trkpt><trkpt lat="45.8539733" lon="9.0833683"><ele>557.0</ele><time>2026-04-05T16:55:40.808Z</time></trkpt><trkpt lat="45.85396" lon="9.083495"><ele>549.0</ele><time>2026-04-05T16:55:42.808Z</time></trkpt><trkpt lat="45.8539967" lon="9.08358"><ele>541.0</ele><time>2026-04-05T16:55:43.808Z</time></trkpt><trkpt lat="45.8540617" lon="9.0836967"><ele>541.0</ele><time>2026-04-05T16:55:44.809Z</time></trkpt><trkpt lat="45.8541367" lon="9.08383"><ele>541.0</ele><time>2026-04-05T16:55:45.808Z</time></trkpt><trkpt lat="45.854205" lon="9.083965"><ele>541.0</ele><time>2026-04-05T16:55:46.808Z</time></trkpt><trkpt lat="45.85426" lon="9.0840833"><ele>541.0</ele><time>2026-04-05T16:55:47.809Z</time></trkpt><trkpt lat="45.8542883" lon="9.0841783"><ele>541.0</ele><time>2026-04-05T16:55:48.808Z</time></trkpt><trkpt lat="45.8542433" lon="9.0842683"><ele>541.0</ele><time>2026-04-05T16:55:50.808Z</time></trkpt><trkpt lat="45.854135" lon="9.0841733"><ele>541.0</ele><time>2026-04-05T16:55:52.809Z</time></trkpt><trkpt lat="45.8540767" lon="9.0840583"><ele>541.0</ele><time>2026-04-05T16:55:53.808Z</time></trkpt><trkpt lat="45.8540033" lon="9.08392"><ele>541.0</ele><time>2026-04-05T16:55:54.809Z</time></trkpt><trkpt lat="45.8539283" lon="9.0837633"><ele>541.0</ele><time>2026-04-05T16:55:55.808Z</time></trkpt><trkpt lat="45.8538483" lon="9.0836033"><ele>541.0</ele><time>2026-04-05T16:55:56.808Z</time></trkpt><trkpt lat="45.8537717" lon="9.0834467"><ele>541.0</ele><time>2026-04-05T16:55:57.808Z</time></trkpt><trkpt lat="45.8537017" lon="9.0832767"><ele>541.0</ele><time>2026-04-05T16:55:58.809Z</time></trkpt><trkpt lat="45.8536417" lon="9.083095"><ele>547.0</ele><time>2026-04-05T16:55:59.808Z</time></trkpt><trkpt lat="45.8535883" lon="9.0829033"><ele>553.0</ele><time>2026-04-05T16:56:00.808Z</time></trkpt><trkpt lat="45.8535417" lon="9.0827183"><ele>559.0</ele><time>2026-04-05T16:56:01.808Z</time></trkpt><trkpt lat="45.8535017" lon="9.0825583"><ele>565.0</ele><time>2026-04-05T16:56:02.809Z</time></trkpt><trkpt lat="45.853465" lon="9.0824383"><ele>558.8</ele><time>2026-04-05T16:56:03.808Z</time></trkpt><trkpt lat="45.85343" lon="9.082345"><ele>552.6</ele><time>2026-04-05T16:56:04.808Z</time></trkpt><trkpt lat="45.85334" lon="9.0822833"><ele>546.4</ele><time>2026-04-05T16:56:06.809Z</time></trkpt><trkpt lat="45.8533" lon="9.0823833"><ele>540.2</ele><time>2026-04-05T16:56:08.808Z</time></trkpt><trkpt lat="45.85333" lon="9.0825083"><ele>534.0</ele><time>2026-04-05T16:56:09.808Z</time></trkpt><trkpt lat="45.853375" lon="9.08268"><ele>535.75</ele><time>2026-04-05T16:56:10.808Z</time></trkpt><trkpt lat="45.8534217" lon="9.082885"><ele>537.5</ele><time>2026-04-05T16:56:11.808Z</time></trkpt><trkpt lat="45.8534633" lon="9.083085"><ele>539.25</ele><time>2026-04-05T16:56:12.808Z</time></trkpt><trkpt lat="45.8534917" lon="9.0832783"><ele>541.0</ele><time>2026-04-05T16:56:13.808Z</time></trkpt><trkpt lat="45.8535167" lon="9.08347"><ele>541.0</ele><time>2026-04-05T16:56:14.809Z</time></trkpt><trkpt lat="45.8535333" lon="9.0836433"><ele>541.0</ele><time>2026-04-05T16:56:15.808Z</time></trkpt><trkpt lat="45.853555" lon="9.08381"><ele>541.0</ele><time>2026-04-05T16:56:16.808Z</time></trkpt><trkpt lat="45.8535867" lon="9.0839683"><ele>541.0</ele><time>2026-04-05T16:56:17.808Z</time></trkpt><trkpt lat="45.853625" lon="9.0841233"><ele>538.6</ele><time>2026-04-05T16:56:18.808Z</time></trkpt><trkpt lat="45.85366" lon="9.084245"><ele>536.2</ele><time>2026-04-05T16:56:19.809Z</time></trkpt><trkpt lat="45.853665" lon="9.0843817"><ele>533.8</ele><time>2026-04-05T16:56:21.808Z</time></trkpt><trkpt lat="45.853575" lon="9.0843183"><ele>531.4</ele><time>2026-04-05T16:56:24.808Z</time></trkpt><trkpt lat="45.8535133" lon="9.0842167"><ele>529.0</ele><time>2026-04-05T16:56:25.808Z</time></trkpt><trkpt lat="45.853455" lon="9.0840583"><ele>521.75</ele><time>2026-04-05T16:56:26.808Z</time></trkpt><trkpt lat="45.853375" lon="9.0838833"><ele>514.5</ele><time>2026-04-05T16:56:27.808Z</time></trkpt><trkpt lat="45.8532917" lon="9.08371"><ele>507.25</ele><time>2026-04-05T16:56:28.809Z</time></trkpt><trkpt lat="45.8532367" lon="9.0835467"><ele>500.0</ele><time>2026-04-05T16:56:29.808Z</time></trkpt><trkpt lat="45.853175" lon="9.083385"><ele>503.75</ele><time>2026-04-05T16:56:30.808Z</time></trkpt><trkpt lat="45.853105" lon="9.083215"><ele>507.5</ele><time>2026-04-05T16:56:31.808Z</time></trkpt><trkpt lat="45.8530133" lon="9.0830667"><ele>511.25</ele><time>2026-04-05T16:56:32.808Z</time></trkpt><trkpt lat="45.85292" lon="9.0829183"><ele>515.0</ele><time>2026-04-05T16:56:33.808Z</time></trkpt><trkpt lat="45.8528283" lon="9.0827717"><ele>515.0</ele><time>2026-04-05T16:56:34.809Z</time></trkpt><trkpt lat="45.8527417" lon="9.082635"><ele>515.0</ele><time>2026-04-05T16:56:35.808Z</time></trkpt><trkpt lat="45.8526567" lon="9.0824967"><ele>515.0</ele><time>2026-04-05T16:56:36.809Z</time></trkpt><trkpt lat="45.8525717" lon="9.08237"><ele>515.0</ele><time>2026-04-05T16:56:37.808Z</time></trkpt><trkpt lat="45.85249" lon="9.0822533"><ele>509.8</ele><time>2026-04-05T16:56:38.809Z</time></trkpt><trkpt lat="45.8524267" lon="9.0821433"><ele>504.6</ele><time>2026-04-05T16:56:39.808Z</time></trkpt><trkpt lat="45.852365" lon="9.082065"><ele>499.4</ele><time>2026-04-05T16:56:40.808Z</time></trkpt><trkpt lat="45.8522733" lon="9.0820217"><ele>494.2</ele><time>2026-04-05T16:56:42.808Z</time></trkpt><trkpt lat="45.85221" lon="9.0821383"><ele>489.0</ele><time>2026-04-05T16:56:44.809Z</time></trkpt><trkpt lat="45.8522133" lon="9.0822717"><ele>489.0</ele><time>2026-04-05T16:56:45.808Z</time></trkpt><trkpt lat="45.8522167" lon="9.08243"><ele>489.0</ele><time>2026-04-05T16:56:46.808Z</time></trkpt><trkpt lat="45.8522217" lon="9.0825917"><ele>489.0</ele><time>2026-04-05T16:56:47.808Z</time></trkpt><trkpt lat="45.8522283" lon="9.082765"><ele>489.0</ele><time>2026-04-05T16:56:48.809Z</time></trkpt><trkpt lat="45.852235" lon="9.0829417"><ele>486.0</ele><time>2026-04-05T16:56:49.808Z</time></trkpt><trkpt lat="45.85223" lon="9.08312"><ele>483.0</ele><time>2026-04-05T16:56:50.809Z</time></trkpt><trkpt lat="45.8522183" lon="9.0832883"><ele>480.0</ele><time>2026-04-05T16:56:51.809Z</time></trkpt><trkpt lat="45.8522033" lon="9.0834483"><ele>477.0</ele><time>2026-04-05T16:56:52.809Z</time></trkpt><trkpt lat="45.852195" lon="9.0835883"><ele>476.0</ele><time>2026-04-05T16:56:53.808Z</time></trkpt><trkpt lat="45.8522017" lon="9.0837317"><ele>475.00000000000006</ele><time>2026-04-05T16:56:54.809Z</time></trkpt><trkpt lat="45.8522283" lon="9.08386"><ele>474.00000000000006</ele><time>2026-04-05T16:56:55.808Z</time></trkpt><trkpt lat="45.852275" lon="9.0839933"><ele>473.0</ele><time>2026-04-05T16:56:56.808Z</time></trkpt><trkpt lat="45.8523333" lon="9.0841333"><ele>472.0</ele><time>2026-04-05T16:56:57.809Z</time></trkpt><trkpt lat="45.852405" lon="9.0842667"><ele>470.8</ele><time>2026-04-05T16:56:58.808Z</time></trkpt><trkpt lat="45.8524767" lon="9.0843883"><ele>469.6</ele><time>2026-04-05T16:56:59.809Z</time></trkpt><trkpt lat="45.852535" lon="9.0844967"><ele>468.40000000000003</ele><time>2026-04-05T16:57:00.808Z</time></trkpt><trkpt lat="45.8525783" lon="9.084575"><ele>467.20000000000005</ele><time>2026-04-05T16:57:01.809Z</time></trkpt><trkpt lat="45.852595" lon="9.08469"><ele>466.0</ele><time>2026-04-05T16:57:03.808Z</time></trkpt><trkpt lat="45.8524917" lon="9.0847"><ele>466.0</ele><time>2026-04-05T16:57:06.808Z</time></trkpt><trkpt lat="45.852435" lon="9.0846417"><ele>466.0</ele><time>2026-04-05T16:57:07.808Z</time></trkpt><trkpt lat="45.852355" lon="9.0845483"><ele>466.0</ele><time>2026-04-05T16:57:08.808Z</time></trkpt><trkpt lat="45.85225" lon="9.0844583"><ele>466.0</ele><time>2026-04-05T16:57:09.808Z</time></trkpt><trkpt lat="45.8521367" lon="9.08437"><ele>466.0</ele><time>2026-04-05T16:57:10.808Z</time></trkpt><trkpt lat="45.8520217" lon="9.0842867"><ele>466.0</ele><time>2026-04-05T16:57:11.808Z</time></trkpt><trkpt lat="45.8519067" lon="9.0842317"><ele>466.0</ele><time>2026-04-05T16:57:12.808Z</time></trkpt><trkpt lat="45.8518033" lon="9.084175"><ele>466.0</ele><time>2026-04-05T16:57:13.808Z</time></trkpt><trkpt lat="45.8517083" lon="9.0841133"><ele>466.0</ele><time>2026-04-05T16:57:14.808Z</time></trkpt><trkpt lat="45.8516233" lon="9.0840533"><ele>466.0</ele><time>2026-04-05T16:57:15.808Z</time></trkpt><trkpt lat="45.8515333" lon="9.0839667"><ele>463.0</ele><time>2026-04-05T16:57:16.808Z</time></trkpt><trkpt lat="45.8514317" lon="9.0838533"><ele>460.0</ele><time>2026-04-05T16:57:17.808Z</time></trkpt><trkpt lat="45.8513233" lon="9.08374"><ele>457.0</ele><time>2026-04-05T16:57:18.809Z</time></trkpt><trkpt lat="45.8512233" lon="9.08363"><ele>454.0</ele><time>2026-04-05T16:57:19.808Z</time></trkpt><trkpt lat="45.8511267" lon="9.0835233"><ele>454.0</ele><time>2026-04-05T16:57:20.808Z</time></trkpt><trkpt lat="45.8510317" lon="9.0834217"><ele>454.0</ele><time>2026-04-05T16:57:21.808Z</time></trkpt><trkpt lat="45.850945" lon="9.0833283"><ele>454.0</ele><time>2026-04-05T16:57:22.809Z</time></trkpt><trkpt lat="45.8508667" lon="9.0832667"><ele>454.0</ele><time>2026-04-05T16:57:23.808Z</time></trkpt><trkpt lat="45.8507833" lon="9.0832233"><ele>454.0</ele><time>2026-04-05T16:57:24.809Z</time></trkpt><trkpt lat="45.850705" lon="9.0832267"><ele>452.0</ele><time>2026-04-05T16:57:25.808Z</time></trkpt><trkpt lat="45.850625" lon="9.0832667"><ele>450.0</ele><time>2026-04-05T16:57:26.808Z</time></trkpt><trkpt lat="45.8505567" lon="9.0833483"><ele>448.0</ele><time>2026-04-05T16:57:27.809Z</time></trkpt><trkpt lat="45.85049" lon="9.083455"><ele>446.0</ele><time>2026-04-05T16:57:28.808Z</time></trkpt><trkpt lat="45.8504333" lon="9.0835833"><ele>444.0</ele><time>2026-04-05T16:57:29.808Z</time></trkpt><trkpt lat="45.850385" lon="9.0837233"><ele>444.0</ele><time>2026-04-05T16:57:30.809Z</time></trkpt><trkpt lat="45.8503317" lon="9.0838517"><ele>444.0</ele><time>2026-04-05T16:57:31.808Z</time></trkpt><trkpt lat="45.8502717" lon="9.0839867"><ele>444.0</ele><time>2026-04-05T16:57:32.808Z</time></trkpt><trkpt lat="45.8502233" lon="9.0841217"><ele>444.0</ele><time>2026-04-05T16:57:33.808Z</time></trkpt><trkpt lat="45.850165" lon="9.0842333"><ele>444.0</ele><time>2026-04-05T16:57:34.809Z</time></trkpt><trkpt lat="45.8501167" lon="9.0843217"><ele>442.1666666666667</ele><time>2026-04-05T16:57:35.808Z</time></trkpt><trkpt lat="45.8500517" lon="9.08437"><ele>440.33333333333337</ele><time>2026-04-05T16:57:36.809Z</time></trkpt><trkpt lat="45.849975" lon="9.0843833"><ele>438.5</ele><time>2026-04-05T16:57:37.808Z</time></trkpt><trkpt lat="45.8498933" lon="9.084385"><ele>436.6666666666667</ele><time>2026-04-05T16:57:38.808Z</time></trkpt><trkpt lat="45.8497967" lon="9.084365"><ele>434.83333333333337</ele><time>2026-04-05T16:57:39.808Z</time></trkpt><trkpt lat="45.8497017" lon="9.0843217"><ele>433.0</ele><time>2026-04-05T16:57:40.809Z</time></trkpt><trkpt lat="45.8496067" lon="9.08425"><ele>433.0</ele><time>2026-04-05T16:57:41.809Z</time></trkpt><trkpt lat="45.8495183" lon="9.08416"><ele>433.0</ele><time>2026-04-05T16:57:42.808Z</time></trkpt><trkpt lat="45.8494283" lon="9.0840317"><ele>433.0</ele><time>2026-04-05T16:57:43.808Z</time></trkpt><trkpt lat="45.8493467" lon="9.0838933"><ele>433.0</ele><time>2026-04-05T16:57:44.808Z</time></trkpt><trkpt lat="45.8492717" lon="9.0837567"><ele>430.25</ele><time>2026-04-05T16:57:45.808Z</time></trkpt><trkpt lat="45.84922" lon="9.0836033"><ele>427.5</ele><time>2026-04-05T16:57:46.808Z</time></trkpt><trkpt lat="45.84918" lon="9.0834367"><ele>424.75</ele><time>2026-04-05T16:57:47.808Z</time></trkpt><trkpt lat="45.8491583" lon="9.0832783"><ele>422.0</ele><time>2026-04-05T16:57:48.808Z</time></trkpt><trkpt lat="45.849145" lon="9.0831283"><ele>421.20000000000005</ele><time>2026-04-05T16:57:49.809Z</time></trkpt><trkpt lat="45.8491467" lon="9.0829617"><ele>420.4</ele><time>2026-04-05T16:57:50.808Z</time></trkpt><trkpt lat="45.84916" lon="9.0828017"><ele>419.6</ele><time>2026-04-05T16:57:51.808Z</time></trkpt><trkpt lat="45.8491717" lon="9.082645"><ele>418.79999999999995</ele><time>2026-04-05T16:57:52.808Z</time></trkpt><trkpt lat="45.84918" lon="9.0824917"><ele>418.0</ele><time>2026-04-05T16:57:53.808Z</time></trkpt><trkpt lat="45.8491833" lon="9.0823483"><ele>417.2</ele><time>2026-04-05T16:57:54.808Z</time></trkpt><trkpt lat="45.8491917" lon="9.0822033"><ele>416.4</ele><time>2026-04-05T16:57:55.808Z</time></trkpt><trkpt lat="45.8492017" lon="9.0820667"><ele>415.59999999999997</ele><time>2026-04-05T16:57:56.809Z</time></trkpt><trkpt lat="45.8492133" lon="9.0819317"><ele>414.79999999999995</ele><time>2026-04-05T16:57:57.808Z</time></trkpt><trkpt lat="45.849215" lon="9.0817967"><ele>414.0</ele><time>2026-04-05T16:57:58.808Z</time></trkpt><trkpt lat="45.8492283" lon="9.0816583"><ele>412.4</ele><time>2026-04-05T16:57:59.808Z</time></trkpt><trkpt lat="45.8492333" lon="9.0815083"><ele>410.79999999999995</ele><time>2026-04-05T16:58:00.809Z</time></trkpt><trkpt lat="45.8492383" lon="9.0813533"><ele>409.20000000000005</ele><time>2026-04-05T16:58:01.808Z</time></trkpt><trkpt lat="45.849255" lon="9.0812017"><ele>407.6</ele><time>2026-04-05T16:58:02.808Z</time></trkpt><trkpt lat="45.8492733" lon="9.0810633"><ele>406.0</ele><time>2026-04-05T16:58:03.808Z</time></trkpt><trkpt lat="45.8492883" lon="9.0809133"><ele>410.20000000000005</ele><time>2026-04-05T16:58:04.809Z</time></trkpt><trkpt lat="45.8493017" lon="9.0807833"><ele>414.40000000000003</ele><time>2026-04-05T16:58:05.808Z</time></trkpt><trkpt lat="45.8493317" lon="9.080655"><ele>418.6</ele><time>2026-04-05T16:58:06.808Z</time></trkpt><trkpt lat="45.8493783" lon="9.0805267"><ele>422.8</ele><time>2026-04-05T16:58:07.809Z</time></trkpt><trkpt lat="45.849435" lon="9.0803867"><ele>427.0</ele><time>2026-04-05T16:58:08.808Z</time></trkpt><trkpt lat="45.849495" lon="9.0802433"><ele>427.0</ele><time>2026-04-05T16:58:09.808Z</time></trkpt><trkpt lat="45.8495367" lon="9.0801"><ele>427.00000000000006</ele><time>2026-04-05T16:58:10.808Z</time></trkpt><trkpt lat="45.849565" lon="9.0799633"><ele>427.00000000000006</ele><time>2026-04-05T16:58:11.808Z</time></trkpt><trkpt lat="45.8495733" lon="9.0798183"><ele>427.0</ele><time>2026-04-05T16:58:12.808Z</time></trkpt><trkpt lat="45.84957" lon="9.07967"><ele>427.0</ele><time>2026-04-05T16:58:13.808Z</time></trkpt><trkpt lat="45.8495483" lon="9.079535"><ele>425.1666666666667</ele><time>2026-04-05T16:58:14.808Z</time></trkpt><trkpt lat="45.849535" lon="9.07941"><ele>423.33333333333337</ele><time>2026-04-05T16:58:15.809Z</time></trkpt><trkpt lat="45.84952" lon="9.0793067"><ele>421.5</ele><time>2026-04-05T16:58:16.809Z</time></trkpt><trkpt lat="45.8494717" lon="9.0791983"><ele>419.66666666666663</ele><time>2026-04-05T16:58:18.809Z</time></trkpt><trkpt lat="45.8493933" lon="9.0792567"><ele>417.8333333333333</ele><time>2026-04-05T16:58:20.809Z</time></trkpt><trkpt lat="45.8493733" lon="9.079345"><ele>416.0</ele><time>2026-04-05T16:58:21.809Z</time></trkpt><trkpt lat="45.8493633" lon="9.0794667"><ele>416.0</ele><time>2026-04-05T16:58:22.81Z</time></trkpt><trkpt lat="45.849345" lon="9.0796067"><ele>416.0</ele><time>2026-04-05T16:58:23.809Z</time></trkpt><trkpt lat="45.8493167" lon="9.0797333"><ele>416.0</ele><time>2026-04-05T16:58:24.809Z</time></trkpt><trkpt lat="45.8492833" lon="9.0798533"><ele>416.0</ele><time>2026-04-05T16:58:25.809Z</time></trkpt><trkpt lat="45.8492517" lon="9.0799767"><ele>416.0</ele><time>2026-04-05T16:58:26.809Z</time></trkpt><trkpt lat="45.8492183" lon="9.0801083"><ele>412.4</ele><time>2026-04-05T16:58:27.809Z</time></trkpt><trkpt lat="45.8491783" lon="9.080235"><ele>408.8</ele><time>2026-04-05T16:58:28.81Z</time></trkpt><trkpt lat="45.84913" lon="9.08036"><ele>405.2</ele><time>2026-04-05T16:58:29.809Z</time></trkpt><trkpt lat="45.8490883" lon="9.0804817"><ele>401.59999999999997</ele><time>2026-04-05T16:58:30.809Z</time></trkpt><trkpt lat="45.8490567" lon="9.0806033"><ele>398.0</ele><time>2026-04-05T16:58:31.81Z</time></trkpt><trkpt lat="45.8490367" lon="9.080715"><ele>399.3333333333333</ele><time>2026-04-05T16:58:32.809Z</time></trkpt><trkpt lat="45.8490133" lon="9.0808167"><ele>400.66666666666663</ele><time>2026-04-05T16:58:33.81Z</time></trkpt><trkpt lat="45.8489733" lon="9.080905"><ele>402.0</ele><time>2026-04-05T16:58:34.809Z</time></trkpt><trkpt lat="45.8489317" lon="9.081005"><ele>403.33333333333337</ele><time>2026-04-05T16:58:35.809Z</time></trkpt><trkpt lat="45.848905" lon="9.0811183"><ele>404.6666666666667</ele><time>2026-04-05T16:58:36.809Z</time></trkpt><trkpt lat="45.848885" lon="9.0812767"><ele>406.0</ele><time>2026-04-05T16:58:37.809Z</time></trkpt><trkpt lat="45.8488633" lon="9.0814467"><ele>407.6</ele><time>2026-04-05T16:58:38.809Z</time></trkpt><trkpt lat="45.848845" lon="9.0816217"><ele>409.20000000000005</ele><time>2026-04-05T16:58:39.809Z</time></trkpt><trkpt lat="45.8488283" lon="9.0817783"><ele>410.79999999999995</ele><time>2026-04-05T16:58:40.809Z</time></trkpt><trkpt lat="45.8488017" lon="9.0819117"><ele>412.4</ele><time>2026-04-05T16:58:41.809Z</time></trkpt><trkpt lat="45.848765" lon="9.0820367"><ele>414.0</ele><time>2026-04-05T16:58:42.809Z</time></trkpt><trkpt lat="45.848715" lon="9.0821667"><ele>414.0</ele><time>2026-04-05T16:58:43.809Z</time></trkpt><trkpt lat="45.848665" lon="9.0822917"><ele>414.0</ele><time>2026-04-05T16:58:44.81Z</time></trkpt><trkpt lat="45.8486083" lon="9.0824217"><ele>414.0</ele><time>2026-04-05T16:58:45.809Z</time></trkpt><trkpt lat="45.848555" lon="9.0825467"><ele>414.0</ele><time>2026-04-05T16:58:46.809Z</time></trkpt><trkpt lat="45.8485183" lon="9.0826683"><ele>414.0</ele><time>2026-04-05T16:58:47.81Z</time></trkpt><trkpt lat="45.8484867" lon="9.0827833"><ele>414.0</ele><time>2026-04-05T16:58:48.809Z</time></trkpt><trkpt lat="45.8484683" lon="9.0828733"><ele>414.0</ele><time>2026-04-05T16:58:49.809Z</time></trkpt><trkpt lat="45.8483933" lon="9.082905"><ele>414.0</ele><time>2026-04-05T16:58:52.809Z</time></trkpt><trkpt lat="45.8484017" lon="9.0827917"><ele>414.0</ele><time>2026-04-05T16:58:54.809Z</time></trkpt><trkpt lat="45.8484333" lon="9.0826217"><ele>414.0</ele><time>2026-04-05T16:58:56.809Z</time></trkpt><trkpt lat="45.8484433" lon="9.0825133"><ele>414.0</ele><time>2026-04-05T16:58:57.809Z</time></trkpt><trkpt lat="45.84846" lon="9.0823967"><ele>414.0</ele><time>2026-04-05T16:58:58.81Z</time></trkpt><trkpt lat="45.8484767" lon="9.0822917"><ele>414.0</ele><time>2026-04-05T16:58:59.809Z</time></trkpt><trkpt lat="45.8484983" lon="9.0821867"><ele>414.0</ele><time>2026-04-05T16:59:00.809Z</time></trkpt><trkpt lat="45.8485167" lon="9.08208"><ele>414.0</ele><time>2026-04-05T16:59:01.81Z</time></trkpt><trkpt lat="45.8485317" lon="9.08197"><ele>414.0</ele><time>2026-04-05T16:59:02.809Z</time></trkpt><trkpt lat="45.848535" lon="9.0818617"><ele>414.0</ele><time>2026-04-05T16:59:03.81Z</time></trkpt><trkpt lat="45.8485367" lon="9.081745"><ele>414.00000000000006</ele><time>2026-04-05T16:59:04.809Z</time></trkpt><trkpt lat="45.84854" lon="9.0816383"><ele>414.0</ele><time>2026-04-05T16:59:05.809Z</time></trkpt><trkpt lat="45.8485417" lon="9.0815367"><ele>414.0</ele><time>2026-04-05T16:59:06.81Z</time></trkpt><trkpt lat="45.8485483" lon="9.081435"><ele>414.0</ele><time>2026-04-05T16:59:07.809Z</time></trkpt><trkpt lat="45.8485533" lon="9.081335"><ele>414.0</ele><time>2026-04-05T16:59:08.809Z</time></trkpt><trkpt lat="45.8485567" lon="9.0812383"><ele>414.00000000000006</ele><time>2026-04-05T16:59:09.809Z</time></trkpt><trkpt lat="45.84856" lon="9.0811333"><ele>414.0</ele><time>2026-04-05T16:59:10.809Z</time></trkpt><trkpt lat="45.8485633" lon="9.08103"><ele>412.8571428571429</ele><time>2026-04-05T16:59:11.809Z</time></trkpt><trkpt lat="45.848565" lon="9.0809317"><ele>411.7142857142857</ele><time>2026-04-05T16:59:12.809Z</time></trkpt><trkpt lat="45.8485717" lon="9.0808317"><ele>410.57142857142856</ele><time>2026-04-05T16:59:13.809Z</time></trkpt><trkpt lat="45.848585" lon="9.0807333"><ele>409.42857142857144</ele><time>2026-04-05T16:59:14.809Z</time></trkpt><trkpt lat="45.848595" lon="9.0806433"><ele>408.2857142857143</ele><time>2026-04-05T16:59:15.809Z</time></trkpt><trkpt lat="45.8486067" lon="9.0805467"><ele>407.14285714285717</ele><time>2026-04-05T16:59:16.809Z</time></trkpt><trkpt lat="45.848625" lon="9.0804433"><ele>406.0</ele><time>2026-04-05T16:59:17.81Z</time></trkpt><trkpt lat="45.8486367" lon="9.08035"><ele>404.6666666666667</ele><time>2026-04-05T16:59:18.809Z</time></trkpt><trkpt lat="45.8486417" lon="9.08025"><ele>403.33333333333337</ele><time>2026-04-05T16:59:19.81Z</time></trkpt><trkpt lat="45.848635" lon="9.08015"><ele>402.0</ele><time>2026-04-05T16:59:20.809Z</time></trkpt><trkpt lat="45.84862" lon="9.0800567"><ele>400.66666666666663</ele><time>2026-04-05T16:59:21.809Z</time></trkpt><trkpt lat="45.848605" lon="9.079955"><ele>399.3333333333333</ele><time>2026-04-05T16:59:22.809Z</time></trkpt><trkpt lat="45.84859" lon="9.0798667"><ele>398.0</ele><time>2026-04-05T16:59:23.81Z</time></trkpt><trkpt lat="45.8485783" lon="9.0797067"><ele>396.66666666666663</ele><time>2026-04-05T16:59:25.81Z</time></trkpt><trkpt lat="45.84857" lon="9.079525"><ele>395.3333333333333</ele><time>2026-04-05T16:59:27.809Z</time></trkpt><trkpt lat="45.8485733" lon="9.0794333"><ele>394.0</ele><time>2026-04-05T16:59:28.81Z</time></trkpt><trkpt lat="45.8485783" lon="9.0793333"><ele>392.66666666666663</ele><time>2026-04-05T16:59:29.809Z</time></trkpt><trkpt lat="45.84858" lon="9.079235"><ele>391.3333333333333</ele><time>2026-04-05T16:59:30.809Z</time></trkpt><trkpt lat="45.8485933" lon="9.0791367"><ele>390.0</ele><time>2026-04-05T16:59:31.809Z</time></trkpt><trkpt lat="45.8486233" lon="9.0789633"><ele>386.0</ele><time>2026-04-05T16:59:33.809Z</time></trkpt><trkpt lat="45.848665" lon="9.0787967"><ele>382.0</ele><time>2026-04-05T16:59:35.809Z</time></trkpt><trkpt lat="45.84871" lon="9.07865"><ele>378.0</ele><time>2026-04-05T16:59:37.81Z</time></trkpt><trkpt lat="45.84879" lon="9.0784667"><ele>374.0</ele><time>2026-04-05T16:59:58.809Z</time></trkpt><trkpt lat="45.84883" lon="9.0783333"><ele>374.0</ele><time>2026-04-05T17:00:00.809Z</time></trkpt><trkpt lat="45.8487533" lon="9.07834"><ele>374.0</ele><time>2026-04-05T17:00:04.809Z</time></trkpt><trkpt lat="45.8486983" lon="9.078485"><ele>374.0</ele><time>2026-04-05T17:00:06.809Z</time></trkpt><trkpt lat="45.8486583" lon="9.0785817"><ele>374.0</ele><time>2026-04-05T17:00:07.809Z</time></trkpt><trkpt lat="45.8486067" lon="9.0786967"><ele>374.0</ele><time>2026-04-05T17:00:08.809Z</time></trkpt><trkpt lat="45.848555" lon="9.07882"><ele>374.0</ele><time>2026-04-05T17:00:09.809Z</time></trkpt><trkpt lat="45.848495" lon="9.0789483"><ele>374.0</ele><time>2026-04-05T17:00:10.809Z</time></trkpt><trkpt lat="45.8484333" lon="9.0790783"><ele>374.0</ele><time>2026-04-05T17:00:11.809Z</time></trkpt><trkpt lat="45.8483783" lon="9.0792"><ele>374.0</ele><time>2026-04-05T17:00:12.81Z</time></trkpt><trkpt lat="45.8483367" lon="9.07933"><ele>374.0</ele><time>2026-04-05T17:00:13.809Z</time></trkpt><trkpt lat="45.8483117" lon="9.079465"><ele>370.2</ele><time>2026-04-05T17:00:14.809Z</time></trkpt><trkpt lat="45.8483067" lon="9.0796083"><ele>366.4</ele><time>2026-04-05T17:00:15.809Z</time></trkpt><trkpt lat="45.8483" lon="9.0797417"><ele>362.6</ele><time>2026-04-05T17:00:16.809Z</time></trkpt><trkpt lat="45.8482817" lon="9.0798633"><ele>358.8</ele><time>2026-04-05T17:00:17.809Z</time></trkpt><trkpt lat="45.848255" lon="9.079985"><ele>355.0</ele><time>2026-04-05T17:00:18.81Z</time></trkpt><trkpt lat="45.848225" lon="9.0801017"><ele>355.0</ele><time>2026-04-05T17:00:19.81Z</time></trkpt><trkpt lat="45.8481833" lon="9.0802067"><ele>355.0</ele><time>2026-04-05T17:00:20.809Z</time></trkpt><trkpt lat="45.848145" lon="9.0803"><ele>355.0</ele><time>2026-04-05T17:00:21.809Z</time></trkpt><trkpt lat="45.8481083" lon="9.0803883"><ele>355.0</ele><time>2026-04-05T17:00:22.809Z</time></trkpt><trkpt lat="45.8480733" lon="9.080485"><ele>355.0</ele><time>2026-04-05T17:00:23.81Z</time></trkpt><trkpt lat="45.848035" lon="9.08057"><ele>355.0</ele><time>2026-04-05T17:00:24.81Z</time></trkpt><trkpt lat="45.8479933" lon="9.0806967"><ele>355.0</ele><time>2026-04-05T17:00:26.81Z</time></trkpt><trkpt lat="45.8479767" lon="9.080825"><ele>355.0</ele><time>2026-04-05T17:00:29.809Z</time></trkpt><trkpt lat="45.8479867" lon="9.08095"><ele>355.0</ele><time>2026-04-05T17:00:32.809Z</time></trkpt><trkpt lat="45.8479533" lon="9.08104"><ele>355.0</ele><time>2026-04-05T17:00:35.81Z</time></trkpt><trkpt lat="45.8479033" lon="9.080945"><ele>355.0</ele><time>2026-04-05T17:00:38.81Z</time></trkpt><trkpt lat="45.8479083" lon="9.08083"><ele>355.0</ele><time>2026-04-05T17:00:40.808Z</time></trkpt><trkpt lat="45.847915" lon="9.0806733"><ele>355.0</ele><time>2026-04-05T17:00:42.809Z</time></trkpt><trkpt lat="45.8479267" lon="9.0805767"><ele>355.0</ele><time>2026-04-05T17:00:43.809Z</time></trkpt><trkpt lat="45.84794" lon="9.0804667"><ele>355.0</ele><time>2026-04-05T17:00:44.808Z</time></trkpt><trkpt lat="45.8479483" lon="9.080365"><ele>355.0</ele><time>2026-04-05T17:00:45.809Z</time></trkpt><trkpt lat="45.8479567" lon="9.080255"><ele>355.0</ele><time>2026-04-05T17:00:46.809Z</time></trkpt><trkpt lat="45.8479633" lon="9.0801567"><ele>355.0</ele><time>2026-04-05T17:00:47.808Z</time></trkpt><trkpt lat="45.8479717" lon="9.0800633"><ele>355.0</ele><time>2026-04-05T17:00:48.808Z</time></trkpt><trkpt lat="45.8479967" lon="9.0798967"><ele>353.8333333333333</ele><time>2026-04-05T17:00:50.808Z</time></trkpt><trkpt lat="45.8480083" lon="9.0798067"><ele>352.66666666666663</ele><time>2026-04-05T17:00:51.808Z</time></trkpt><trkpt lat="45.8480133" lon="9.0796383"><ele>351.5</ele><time>2026-04-05T17:00:53.808Z</time></trkpt><trkpt lat="45.8480133" lon="9.0795433"><ele>350.3333333333333</ele><time>2026-04-05T17:00:54.808Z</time></trkpt><trkpt lat="45.848015" lon="9.079445"><ele>349.1666666666667</ele><time>2026-04-05T17:00:55.808Z</time></trkpt><trkpt lat="45.84802" lon="9.0792717"><ele>348.0</ele><time>2026-04-05T17:00:57.809Z</time></trkpt><trkpt lat="45.8480167" lon="9.0791167"><ele>346.0</ele><time>2026-04-05T17:00:59.809Z</time></trkpt><trkpt lat="45.8480183" lon="9.0789633"><ele>344.0</ele><time>2026-04-05T17:01:01.808Z</time></trkpt><trkpt lat="45.8480383" lon="9.0788083"><ele>342.0</ele><time>2026-04-05T17:01:03.808Z</time></trkpt><trkpt lat="45.848085" lon="9.07868"><ele>340.0</ele><time>2026-04-05T17:01:05.808Z</time></trkpt><trkpt lat="45.84815" lon="9.078625"><ele>338.0</ele><time>2026-04-05T17:01:07.808Z</time></trkpt><trkpt lat="45.8482167" lon="9.07855"><ele>338.0</ele><time>2026-04-05T17:01:10.808Z</time></trkpt><trkpt lat="45.84818" lon="9.07844"><ele>338.0</ele><time>2026-04-05T17:01:13.809Z</time></trkpt><trkpt lat="45.8481083" lon="9.0784633"><ele>338.0</ele><time>2026-04-05T17:01:15.808Z</time></trkpt><trkpt lat="45.8480083" lon="9.0785517"><ele>338.0</ele><time>2026-04-05T17:01:17.808Z</time></trkpt><trkpt lat="45.8479667" lon="9.0786217"><ele>338.0</ele><time>2026-04-05T17:01:18.808Z</time></trkpt><trkpt lat="45.84793" lon="9.0787"><ele>338.0</ele><time>2026-04-05T17:01:19.808Z</time></trkpt><trkpt lat="45.847905" lon="9.0787867"><ele>338.0</ele><time>2026-04-05T17:01:20.808Z</time></trkpt><trkpt lat="45.84787" lon="9.0789567"><ele>338.0</ele><time>2026-04-05T17:01:22.808Z</time></trkpt><trkpt lat="45.847855" lon="9.0790467"><ele>338.0</ele><time>2026-04-05T17:01:23.808Z</time></trkpt><trkpt lat="45.84783" lon="9.0791467"><ele>338.0</ele><time>2026-04-05T17:01:24.808Z</time></trkpt><trkpt lat="45.847805" lon="9.079255"><ele>338.0</ele><time>2026-04-05T17:01:25.809Z</time></trkpt><trkpt lat="45.84777" lon="9.0793517"><ele>338.0</ele><time>2026-04-05T17:01:26.809Z</time></trkpt><trkpt lat="45.847735" lon="9.0794433"><ele>339.6666666666667</ele><time>2026-04-05T17:01:27.808Z</time></trkpt><trkpt lat="45.8477" lon="9.079535"><ele>341.33333333333337</ele><time>2026-04-05T17:01:28.808Z</time></trkpt><trkpt lat="45.847665" lon="9.07962"><ele>343.0</ele><time>2026-04-05T17:01:29.808Z</time></trkpt><trkpt lat="45.84764" lon="9.0797033"><ele>344.6666666666667</ele><time>2026-04-05T17:01:30.808Z</time></trkpt><trkpt lat="45.8476283" lon="9.0797983"><ele>346.3333333333333</ele><time>2026-04-05T17:01:31.808Z</time></trkpt><trkpt lat="45.8476183" lon="9.0799733"><ele>348.0</ele><time>2026-04-05T17:01:33.808Z</time></trkpt><trkpt lat="45.847605" lon="9.0801283"><ele>340.2</ele><time>2026-04-05T17:01:35.808Z</time></trkpt><trkpt lat="45.8475767" lon="9.0802967"><ele>332.4</ele><time>2026-04-05T17:01:37.808Z</time></trkpt><trkpt lat="45.8475567" lon="9.08045"><ele>324.59999999999997</ele><time>2026-04-05T17:01:39.808Z</time></trkpt><trkpt lat="45.8475267" lon="9.08058"><ele>316.79999999999995</ele><time>2026-04-05T17:01:41.808Z</time></trkpt><trkpt lat="45.8474967" lon="9.0807067"><ele>309.0</ele><time>2026-04-05T17:01:44.809Z</time></trkpt><trkpt lat="45.8475083" lon="9.0808167"><ele>309.0</ele><time>2026-04-05T17:01:47.808Z</time></trkpt><trkpt lat="45.8475167" lon="9.0809233"><ele>309.0</ele><time>2026-04-05T17:01:50.808Z</time></trkpt><trkpt lat="45.8474717" lon="9.081"><ele>309.0</ele><time>2026-04-05T17:01:53.808Z</time></trkpt><trkpt lat="45.847425" lon="9.08092"><ele>309.0</ele><time>2026-04-05T17:01:56.808Z</time></trkpt><trkpt lat="45.8474317" lon="9.080765"><ele>309.0</ele><time>2026-04-05T17:01:58.808Z</time></trkpt><trkpt lat="45.84744" lon="9.08067"><ele>309.0</ele><time>2026-04-05T17:01:59.808Z</time></trkpt><trkpt lat="45.847445" lon="9.0805733"><ele>308.6666666666667</ele><time>2026-04-05T17:02:00.809Z</time></trkpt><trkpt lat="45.8474583" lon="9.08047"><ele>308.3333333333333</ele><time>2026-04-05T17:02:01.808Z</time></trkpt><trkpt lat="45.8474617" lon="9.080345"><ele>308.0</ele><time>2026-04-05T17:02:02.808Z</time></trkpt><trkpt lat="45.847455" lon="9.0802133"><ele>307.66666666666663</ele><time>2026-04-05T17:02:03.808Z</time></trkpt><trkpt lat="45.8474433" lon="9.08007"><ele>307.3333333333333</ele><time>2026-04-05T17:02:04.809Z</time></trkpt><trkpt lat="45.84744" lon="9.0799367"><ele>307.0</ele><time>2026-04-05T17:02:05.809Z</time></trkpt><trkpt lat="45.8474417" lon="9.0798067"><ele>306.66666666666663</ele><time>2026-04-05T17:02:06.808Z</time></trkpt><trkpt lat="45.8474417" lon="9.0796933"><ele>306.3333333333333</ele><time>2026-04-05T17:02:07.808Z</time></trkpt><trkpt lat="45.847445" lon="9.079585"><ele>306.0</ele><time>2026-04-05T17:02:08.808Z</time></trkpt><trkpt lat="45.8474483" lon="9.0794817"><ele>305.6666666666667</ele><time>2026-04-05T17:02:09.808Z</time></trkpt><trkpt lat="45.847455" lon="9.0793233"><ele>305.33333333333337</ele><time>2026-04-05T17:02:11.808Z</time></trkpt><trkpt lat="45.8474567" lon="9.0792067"><ele>305.0</ele><time>2026-04-05T17:02:13.808Z</time></trkpt><trkpt lat="45.84746" lon="9.079085"><ele>303.4</ele><time>2026-04-05T17:02:15.808Z</time></trkpt><trkpt lat="45.8474683" lon="9.0789533"><ele>301.8</ele><time>2026-04-05T17:02:17.808Z</time></trkpt><trkpt lat="45.8474983" lon="9.0788233"><ele>300.2</ele><time>2026-04-05T17:02:19.808Z</time></trkpt><trkpt lat="45.847535" lon="9.0786617"><ele>298.6</ele><time>2026-04-05T17:02:21.808Z</time></trkpt><trkpt lat="45.8475683" lon="9.07851"><ele>297.0</ele><time>2026-04-05T17:02:23.808Z</time></trkpt><trkpt lat="45.8475983" lon="9.0783667"><ele>297.0</ele><time>2026-04-05T17:02:25.809Z</time></trkpt><trkpt lat="45.8476133" lon="9.07827"><ele>297.0</ele><time>2026-04-05T17:02:26.808Z</time></trkpt><trkpt lat="45.847625" lon="9.0781533"><ele>297.0</ele><time>2026-04-05T17:02:27.809Z</time></trkpt><trkpt lat="45.8476317" lon="9.0780133"><ele>297.0</ele><time>2026-04-05T17:02:28.808Z</time></trkpt><trkpt lat="45.847635" lon="9.0778367"><ele>297.0</ele><time>2026-04-05T17:02:29.808Z</time></trkpt><trkpt lat="45.8476517" lon="9.0776367"><ele>305.25</ele><time>2026-04-05T17:02:30.809Z</time></trkpt><trkpt lat="45.8476717" lon="9.0774317"><ele>313.5</ele><time>2026-04-05T17:02:31.808Z</time></trkpt><trkpt lat="45.8476883" lon="9.0772217"><ele>321.75</ele><time>2026-04-05T17:02:32.809Z</time></trkpt><trkpt lat="45.8477117" lon="9.0770017"><ele>330.0</ele><time>2026-04-05T17:02:33.808Z</time></trkpt><trkpt lat="45.8477267" lon="9.0768017"><ele>330.0</ele><time>2026-04-05T17:02:34.809Z</time></trkpt><trkpt lat="45.847735" lon="9.0766367"><ele>330.0</ele><time>2026-04-05T17:02:35.808Z</time></trkpt><trkpt lat="45.84774" lon="9.076495"><ele>330.0</ele><time>2026-04-05T17:02:36.808Z</time></trkpt><trkpt lat="45.8477517" lon="9.0763667"><ele>330.0</ele><time>2026-04-05T17:02:37.808Z</time></trkpt><trkpt lat="45.84777" lon="9.07625"><ele>330.0</ele><time>2026-04-05T17:02:38.809Z</time></trkpt><trkpt lat="45.84778" lon="9.0761417"><ele>329.3333333333333</ele><time>2026-04-05T17:02:39.808Z</time></trkpt><trkpt lat="45.84779" lon="9.0760383"><ele>328.6666666666667</ele><time>2026-04-05T17:02:40.809Z</time></trkpt><trkpt lat="45.8478167" lon="9.075845"><ele>328.0</ele><time>2026-04-05T17:02:42.808Z</time></trkpt><trkpt lat="45.8478233" lon="9.075735"><ele>327.33333333333337</ele><time>2026-04-05T17:02:43.808Z</time></trkpt><trkpt lat="45.8478217" lon="9.075625"><ele>326.6666666666667</ele><time>2026-04-05T17:02:44.808Z</time></trkpt><trkpt lat="45.8478067" lon="9.0755267"><ele>326.0</ele><time>2026-04-05T17:02:45.809Z</time></trkpt><trkpt lat="45.8477683" lon="9.0753783"><ele>324.25</ele><time>2026-04-05T17:02:47.809Z</time></trkpt><trkpt lat="45.8477067" lon="9.0752367"><ele>322.5</ele><time>2026-04-05T17:02:49.808Z</time></trkpt><trkpt lat="45.8476367" lon="9.0751167"><ele>320.75</ele><time>2026-04-05T17:02:51.808Z</time></trkpt><trkpt lat="45.847545" lon="9.0750183"><ele>319.0</ele><time>2026-04-05T17:02:54.808Z</time></trkpt><trkpt lat="45.8474217" lon="9.07504"><ele>318.0</ele><time>2026-04-05T17:02:56.808Z</time></trkpt><trkpt lat="45.84732" lon="9.0750467"><ele>317.0</ele><time>2026-04-05T17:02:57.809Z</time></trkpt><trkpt lat="45.8472267" lon="9.0750267"><ele>316.0</ele><time>2026-04-05T17:02:58.808Z</time></trkpt><trkpt lat="45.84713" lon="9.0749683"><ele>315.0</ele><time>2026-04-05T17:02:59.809Z</time></trkpt><trkpt lat="45.847025" lon="9.0748783"><ele>314.0</ele><time>2026-04-05T17:03:00.808Z</time></trkpt><trkpt lat="45.8469167" lon="9.0747867"><ele>314.0</ele><time>2026-04-05T17:03:01.808Z</time></trkpt><trkpt lat="45.8468167" lon="9.0746967"><ele>314.0</ele><time>2026-04-05T17:03:02.808Z</time></trkpt><trkpt lat="45.8467167" lon="9.0746167"><ele>314.0</ele><time>2026-04-05T17:03:03.808Z</time></trkpt><trkpt lat="45.8466233" lon="9.074565"><ele>314.0</ele><time>2026-04-05T17:03:04.808Z</time></trkpt><trkpt lat="45.8465433" lon="9.0745283"><ele>314.0</ele><time>2026-04-05T17:03:05.808Z</time></trkpt><trkpt lat="45.8464567" lon="9.0745217"><ele>309.59999999999997</ele><time>2026-04-05T17:03:06.808Z</time></trkpt><trkpt lat="45.8463783" lon="9.0745517"><ele>305.2</ele><time>2026-04-05T17:03:07.808Z</time></trkpt><trkpt lat="45.846295" lon="9.0746217"><ele>300.79999999999995</ele><time>2026-04-05T17:03:08.809Z</time></trkpt><trkpt lat="45.8462233" lon="9.074735"><ele>296.4</ele><time>2026-04-05T17:03:09.808Z</time></trkpt><trkpt lat="45.8461533" lon="9.0748667"><ele>292.0</ele><time>2026-04-05T17:03:10.808Z</time></trkpt><trkpt lat="45.8460933" lon="9.0750183"><ele>289.16666666666663</ele><time>2026-04-05T17:03:11.808Z</time></trkpt><trkpt lat="45.8460417" lon="9.0751317"><ele>286.3333333333333</ele><time>2026-04-05T17:03:12.808Z</time></trkpt><trkpt lat="45.845985" lon="9.0752133"><ele>283.5</ele><time>2026-04-05T17:03:13.808Z</time></trkpt><trkpt lat="45.8459133" lon="9.0752733"><ele>280.6666666666667</ele><time>2026-04-05T17:03:14.809Z</time></trkpt><trkpt lat="45.8458383" lon="9.0753017"><ele>277.83333333333337</ele><time>2026-04-05T17:03:15.809Z</time></trkpt><trkpt lat="45.8457733" lon="9.075315"><ele>275.0</ele><time>2026-04-05T17:03:16.808Z</time></trkpt><trkpt lat="45.8457133" lon="9.075395"><ele>275.0</ele><time>2026-04-05T17:03:18.808Z</time></trkpt><trkpt lat="45.84581" lon="9.0754567"><ele>275.0</ele><time>2026-04-05T17:03:20.808Z</time></trkpt><trkpt lat="45.8458867" lon="9.07542"><ele>275.0</ele><time>2026-04-05T17:03:21.809Z</time></trkpt><trkpt lat="45.8459783" lon="9.075355"><ele>275.0</ele><time>2026-04-05T17:03:22.808Z</time></trkpt><trkpt lat="45.846075" lon="9.0752733"><ele>275.0</ele><time>2026-04-05T17:03:23.808Z</time></trkpt><trkpt lat="45.8461583" lon="9.0751917"><ele>275.0</ele><time>2026-04-05T17:03:24.809Z</time></trkpt><trkpt lat="45.8462383" lon="9.0751417"><ele>275.0</ele><time>2026-04-05T17:03:25.808Z</time></trkpt><trkpt lat="45.8463217" lon="9.075115"><ele>275.0</ele><time>2026-04-05T17:03:26.809Z</time></trkpt><trkpt lat="45.8464017" lon="9.0751217"><ele>275.0</ele><time>2026-04-05T17:03:27.808Z</time></trkpt><trkpt lat="45.8464767" lon="9.0751583"><ele>275.0</ele><time>2026-04-05T17:03:28.808Z</time></trkpt><trkpt lat="45.8465417" lon="9.0752267"><ele>275.0</ele><time>2026-04-05T17:03:29.808Z</time></trkpt><trkpt lat="45.8466017" lon="9.0753367"><ele>275.0</ele><time>2026-04-05T17:03:30.809Z</time></trkpt><trkpt lat="45.8466533" lon="9.075455"><ele>275.0</ele><time>2026-04-05T17:03:31.808Z</time></trkpt><trkpt lat="45.8466917" lon="9.0755517"><ele>275.0</ele><time>2026-04-05T17:03:32.808Z</time></trkpt><trkpt lat="45.8466967" lon="9.0756767"><ele>275.0</ele><time>2026-04-05T17:03:34.808Z</time></trkpt><trkpt lat="45.846575" lon="9.0756517"><ele>275.0</ele><time>2026-04-05T17:03:36.808Z</time></trkpt><trkpt lat="45.84647" lon="9.075605"><ele>275.0</ele><time>2026-04-05T17:03:37.808Z</time></trkpt><trkpt lat="45.8463683" lon="9.07555"><ele>275.0</ele><time>2026-04-05T17:03:38.808Z</time></trkpt><trkpt lat="45.8462667" lon="9.0755267"><ele>275.0</ele><time>2026-04-05T17:03:39.808Z</time></trkpt><trkpt lat="45.84616" lon="9.0755217"><ele>275.0</ele><time>2026-04-05T17:03:40.808Z</time></trkpt><trkpt lat="45.846045" lon="9.0755533"><ele>275.0</ele><time>2026-04-05T17:03:41.808Z</time></trkpt><trkpt lat="45.84592" lon="9.0756217"><ele>274.75</ele><time>2026-04-05T17:03:42.808Z</time></trkpt><trkpt lat="45.8457867" lon="9.0756933"><ele>274.5</ele><time>2026-04-05T17:03:43.808Z</time></trkpt><trkpt lat="45.8456667" lon="9.0757433"><ele>274.25</ele><time>2026-04-05T17:03:44.808Z</time></trkpt><trkpt lat="45.84557" lon="9.0757617"><ele>274.0</ele><time>2026-04-05T17:03:45.808Z</time></trkpt><trkpt lat="45.8454767" lon="9.07575"><ele>274.0</ele><time>2026-04-05T17:03:46.808Z</time></trkpt><trkpt lat="45.8453883" lon="9.0757083"><ele>274.0</ele><time>2026-04-05T17:03:47.809Z</time></trkpt><trkpt lat="45.8453067" lon="9.0756433"><ele>274.0</ele><time>2026-04-05T17:03:48.809Z</time></trkpt><trkpt lat="45.8452183" lon="9.07554"><ele>274.0</ele><time>2026-04-05T17:03:49.808Z</time></trkpt><trkpt lat="45.845145" lon="9.07543"><ele>274.0</ele><time>2026-04-05T17:03:50.809Z</time></trkpt><trkpt lat="45.8450933" lon="9.0753167"><ele>271.5</ele><time>2026-04-05T17:03:51.808Z</time></trkpt><trkpt lat="45.84505" lon="9.07523"><ele>269.0</ele><time>2026-04-05T17:03:52.809Z</time></trkpt><trkpt lat="45.8449483" lon="9.07518"><ele>266.5</ele><time>2026-04-05T17:03:54.809Z</time></trkpt><trkpt lat="45.844865" lon="9.07519"><ele>264.0</ele><time>2026-04-05T17:03:55.809Z</time></trkpt><trkpt lat="45.8447783" lon="9.075195"><ele>261.5</ele><time>2026-04-05T17:03:56.809Z</time></trkpt><trkpt lat="45.8446967" lon="9.0752033"><ele>259.0</ele><time>2026-04-05T17:03:57.808Z</time></trkpt><trkpt lat="45.8446233" lon="9.0752333"><ele>259.0</ele><time>2026-04-05T17:03:58.808Z</time></trkpt><trkpt lat="45.8445467" lon="9.07528"><ele>259.0</ele><time>2026-04-05T17:03:59.808Z</time></trkpt><trkpt lat="45.8444883" lon="9.0753533"><ele>259.0</ele><time>2026-04-05T17:04:00.808Z</time></trkpt><trkpt lat="45.8444367" lon="9.075425"><ele>259.0</ele><time>2026-04-05T17:04:01.808Z</time></trkpt><trkpt lat="45.84438" lon="9.0754667"><ele>259.0</ele><time>2026-04-05T17:04:02.808Z</time></trkpt><trkpt lat="45.8442633" lon="9.07541"><ele>259.0</ele><time>2026-04-05T17:04:04.808Z</time></trkpt><trkpt lat="45.8441967" lon="9.07533"><ele>256.42857142857144</ele><time>2026-04-05T17:04:05.809Z</time></trkpt><trkpt lat="45.8441233" lon="9.0752567"><ele>253.85714285714286</ele><time>2026-04-05T17:04:06.808Z</time></trkpt><trkpt lat="45.8440617" lon="9.07518"><ele>251.28571428571428</ele><time>2026-04-05T17:04:07.809Z</time></trkpt><trkpt lat="45.8440233" lon="9.0751"><ele>248.71428571428572</ele><time>2026-04-05T17:04:08.808Z</time></trkpt><trkpt lat="45.8439967" lon="9.0750167"><ele>246.14285714285717</ele><time>2026-04-05T17:04:09.808Z</time></trkpt><trkpt lat="45.8439767" lon="9.0749267"><ele>243.57142857142858</ele><time>2026-04-05T17:04:10.808Z</time></trkpt><trkpt lat="45.8439817" lon="9.0748183"><ele>241.0</ele><time>2026-04-05T17:04:11.809Z</time></trkpt><trkpt lat="45.8439783" lon="9.074685"><ele>241.0</ele><time>2026-04-05T17:04:12.808Z</time></trkpt><trkpt lat="45.8439683" lon="9.0745417"><ele>241.00000000000003</ele><time>2026-04-05T17:04:13.809Z</time></trkpt><trkpt lat="45.84396" lon="9.0744"><ele>241.00000000000003</ele><time>2026-04-05T17:04:14.808Z</time></trkpt><trkpt lat="45.843965" lon="9.0742683"><ele>241.0</ele><time>2026-04-05T17:04:15.808Z</time></trkpt><trkpt lat="45.8439683" lon="9.0741517"><ele>241.0</ele><time>2026-04-05T17:04:16.808Z</time></trkpt><trkpt lat="45.8439717" lon="9.0740383"><ele>240.71428571428572</ele><time>2026-04-05T17:04:17.808Z</time></trkpt><trkpt lat="45.843985" lon="9.073925"><ele>240.42857142857144</ele><time>2026-04-05T17:04:18.808Z</time></trkpt><trkpt lat="45.844" lon="9.0738217"><ele>240.14285714285717</ele><time>2026-04-05T17:04:19.808Z</time></trkpt><trkpt lat="45.84401" lon="9.0737317"><ele>239.8571428571429</ele><time>2026-04-05T17:04:20.809Z</time></trkpt><trkpt lat="45.8440167" lon="9.073635"><ele>239.57142857142858</ele><time>2026-04-05T17:04:21.808Z</time></trkpt><trkpt lat="45.8440233" lon="9.0735433"><ele>239.28571428571433</ele><time>2026-04-05T17:04:22.809Z</time></trkpt><trkpt lat="45.8440317" lon="9.0734467"><ele>239.00000000000003</ele><time>2026-04-05T17:04:23.808Z</time></trkpt><trkpt lat="45.84403" lon="9.0733217"><ele>239.0</ele><time>2026-04-05T17:04:25.808Z</time></trkpt><trkpt lat="45.8439733" lon="9.0732233"><ele>239.0</ele><time>2026-04-05T17:04:27.808Z</time></trkpt><trkpt lat="45.84377" lon="9.0732917"><ele>239.0</ele><time>2026-04-05T17:04:30.808Z</time></trkpt><trkpt lat="45.8436883" lon="9.0733183"><ele>239.0</ele><time>2026-04-05T17:04:31.808Z</time></trkpt><trkpt lat="45.8436083" lon="9.073325"><ele>239.00000000000003</ele><time>2026-04-05T17:04:32.808Z</time></trkpt><trkpt lat="45.8435217" lon="9.0733333"><ele>239.0</ele><time>2026-04-05T17:04:33.808Z</time></trkpt><trkpt lat="45.84344" lon="9.073345"><ele>239.0</ele><time>2026-04-05T17:04:34.808Z</time></trkpt><trkpt lat="45.8433483" lon="9.073365"><ele>239.0</ele><time>2026-04-05T17:04:35.808Z</time></trkpt><trkpt lat="45.8432617" lon="9.073385"><ele>239.00000000000003</ele><time>2026-04-05T17:04:36.808Z</time></trkpt><trkpt lat="45.8431817" lon="9.0734067"><ele>239.0</ele><time>2026-04-05T17:04:37.808Z</time></trkpt><trkpt lat="45.8431017" lon="9.0734267"><ele>237.33333333333334</ele><time>2026-04-05T17:04:38.808Z</time></trkpt><trkpt lat="45.8430283" lon="9.073445"><ele>235.66666666666669</ele><time>2026-04-05T17:04:39.808Z</time></trkpt><trkpt lat="45.8429583" lon="9.0734683"><ele>234.0</ele><time>2026-04-05T17:04:40.808Z</time></trkpt><trkpt lat="45.8428917" lon="9.073495"><ele>232.33333333333331</ele><time>2026-04-05T17:04:41.808Z</time></trkpt><trkpt lat="45.8428233" lon="9.07352"><ele>230.66666666666666</ele><time>2026-04-05T17:04:42.809Z</time></trkpt><trkpt lat="45.8427483" lon="9.07355"><ele>229.0</ele><time>2026-04-05T17:04:43.808Z</time></trkpt><trkpt lat="45.842665" lon="9.0735983"><ele>228.6</ele><time>2026-04-05T17:04:44.808Z</time></trkpt><trkpt lat="45.842575" lon="9.0736567"><ele>228.2</ele><time>2026-04-05T17:04:45.808Z</time></trkpt><trkpt lat="45.8424917" lon="9.07372"><ele>227.79999999999998</ele><time>2026-04-05T17:04:46.808Z</time></trkpt><trkpt lat="45.8424067" lon="9.0737817"><ele>227.39999999999998</ele><time>2026-04-05T17:04:47.808Z</time></trkpt><trkpt lat="45.8423267" lon="9.0738367"><ele>227.0</ele><time>2026-04-05T17:04:48.808Z</time></trkpt><trkpt lat="45.8422533" lon="9.0738883"><ele>227.00000000000003</ele><time>2026-04-05T17:04:49.808Z</time></trkpt><trkpt lat="45.8421833" lon="9.073945"><ele>227.0</ele><time>2026-04-05T17:04:50.808Z</time></trkpt><trkpt lat="45.8421067" lon="9.074"><ele>227.0</ele><time>2026-04-05T17:04:51.809Z</time></trkpt><trkpt lat="45.84203" lon="9.0740533"><ele>227.0</ele><time>2026-04-05T17:04:52.808Z</time></trkpt><trkpt lat="45.8419517" lon="9.0740983"><ele>227.00000000000003</ele><time>2026-04-05T17:04:53.808Z</time></trkpt><trkpt lat="45.8418833" lon="9.0741333"><ele>227.0</ele><time>2026-04-05T17:04:54.808Z</time></trkpt><trkpt lat="45.8418167" lon="9.0741717"><ele>225.50000000000003</ele><time>2026-04-05T17:04:55.809Z</time></trkpt><trkpt lat="45.8417383" lon="9.07423"><ele>224.0</ele><time>2026-04-05T17:04:57.808Z</time></trkpt><trkpt lat="45.841665" lon="9.0742467"><ele>222.5</ele><time>2026-04-05T17:05:01.808Z</time></trkpt><trkpt lat="45.8415833" lon="9.0742233"><ele>221.0</ele><time>2026-04-05T17:05:04.809Z</time></trkpt><trkpt lat="45.8415117" lon="9.074215"><ele>219.50000000000003</ele><time>2026-04-05T17:05:06.808Z</time></trkpt><trkpt lat="45.84143" lon="9.074285"><ele>218.0</ele><time>2026-04-05T17:05:08.808Z</time></trkpt><trkpt lat="45.8413317" lon="9.074375"><ele>218.0</ele><time>2026-04-05T17:05:10.808Z</time></trkpt><trkpt lat="45.8412517" lon="9.074405"><ele>218.0</ele><time>2026-04-05T17:05:12.808Z</time></trkpt><trkpt lat="45.8411217" lon="9.0744833"><ele>218.0</ele><time>2026-04-05T17:05:51.809Z</time></trkpt><trkpt lat="45.841075" lon="9.0745567"><ele>218.0</ele><time>2026-04-05T17:06:04.808Z</time></trkpt><trkpt lat="45.8409883" lon="9.0746383"><ele>218.0</ele><time>2026-04-05T17:06:06.808Z</time></trkpt><trkpt lat="45.8409267" lon="9.074715"><ele>217.66666666666669</ele><time>2026-04-05T17:06:08.808Z</time></trkpt><trkpt lat="45.8408683" lon="9.0747867"><ele>217.33333333333334</ele><time>2026-04-05T17:06:10.808Z</time></trkpt><trkpt lat="45.840795" lon="9.0748633"><ele>217.0</ele><time>2026-04-05T17:06:12.808Z</time></trkpt><trkpt lat="45.8407433" lon="9.0749167"><ele>216.66666666666669</ele><time>2026-04-05T17:06:13.808Z</time></trkpt><trkpt lat="45.840645" lon="9.0750133"><ele>216.33333333333334</ele><time>2026-04-05T17:06:15.808Z</time></trkpt><trkpt lat="45.84057" lon="9.075085"><ele>216.0</ele><time>2026-04-05T17:06:17.809Z</time></trkpt><trkpt lat="45.8404733" lon="9.07511"><ele>216.0</ele><time>2026-04-05T17:06:19.808Z</time></trkpt><trkpt lat="45.8404067" lon="9.0751"><ele>216.0</ele><time>2026-04-05T17:06:20.809Z</time></trkpt><trkpt lat="45.8403367" lon="9.0750733"><ele>216.0</ele><time>2026-04-05T17:06:21.808Z</time></trkpt><trkpt lat="45.8402617" lon="9.075015"><ele>216.0</ele><time>2026-04-05T17:06:22.809Z</time></trkpt><trkpt lat="45.84018" lon="9.0749333"><ele>216.0</ele><time>2026-04-05T17:06:23.808Z</time></trkpt><trkpt lat="45.840105" lon="9.0748533"><ele>216.0</ele><time>2026-04-05T17:06:24.808Z</time></trkpt><trkpt lat="45.840035" lon="9.0747867"><ele>215.0</ele><time>2026-04-05T17:06:25.808Z</time></trkpt><trkpt lat="45.8399617" lon="9.0747367"><ele>214.0</ele><time>2026-04-05T17:06:26.809Z</time></trkpt><trkpt lat="45.8398917" lon="9.0746983"><ele>213.0</ele><time>2026-04-05T17:06:27.808Z</time></trkpt><trkpt lat="45.839825" lon="9.0746667"><ele>212.0</ele><time>2026-04-05T17:06:28.809Z</time></trkpt><trkpt lat="45.8397633" lon="9.0746483"><ele>211.0</ele><time>2026-04-05T17:06:29.808Z</time></trkpt><trkpt lat="45.8396967" lon="9.0746283"><ele>210.0</ele><time>2026-04-05T17:06:30.808Z</time></trkpt><trkpt lat="45.839635" lon="9.0746"><ele>209.0</ele><time>2026-04-05T17:06:31.808Z</time></trkpt><trkpt lat="45.839575" lon="9.07456"><ele>209.00000000000003</ele><time>2026-04-05T17:06:32.808Z</time></trkpt><trkpt lat="45.8395133" lon="9.074535"><ele>209.0</ele><time>2026-04-05T17:06:33.809Z</time></trkpt><trkpt lat="45.8393917" lon="9.0744733"><ele>209.0</ele><time>2026-04-05T17:06:35.808Z</time></trkpt><trkpt lat="45.8393283" lon="9.074435"><ele>209.0</ele><time>2026-04-05T17:06:36.808Z</time></trkpt><trkpt lat="45.8392683" lon="9.074405"><ele>209.00000000000003</ele><time>2026-04-05T17:06:37.808Z</time></trkpt><trkpt lat="45.839205" lon="9.074385"><ele>209.0</ele><time>2026-04-05T17:06:38.808Z</time></trkpt><trkpt lat="45.8391417" lon="9.0743733"><ele>208.83333333333334</ele><time>2026-04-05T17:06:39.808Z</time></trkpt><trkpt lat="45.8390767" lon="9.074365"><ele>208.66666666666669</ele><time>2026-04-05T17:06:40.808Z</time></trkpt><trkpt lat="45.8390017" lon="9.0743483"><ele>208.5</ele><time>2026-04-05T17:06:41.809Z</time></trkpt><trkpt lat="45.8389233" lon="9.0743267"><ele>208.33333333333331</ele><time>2026-04-05T17:06:42.808Z</time></trkpt><trkpt lat="45.8388333" lon="9.0742933"><ele>208.16666666666666</ele><time>2026-04-05T17:06:43.808Z</time></trkpt><trkpt lat="45.8387417" lon="9.0742617"><ele>208.0</ele><time>2026-04-05T17:06:44.808Z</time></trkpt><trkpt lat="45.8386567" lon="9.07424"><ele>207.99999999999997</ele><time>2026-04-05T17:06:45.808Z</time></trkpt><trkpt lat="45.8385767" lon="9.074205"><ele>208.0</ele><time>2026-04-05T17:06:46.808Z</time></trkpt><trkpt lat="45.8384933" lon="9.074175"><ele>208.0</ele><time>2026-04-05T17:06:47.808Z</time></trkpt><trkpt lat="45.8384067" lon="9.07414"><ele>208.0</ele><time>2026-04-05T17:06:48.808Z</time></trkpt><trkpt lat="45.8383283" lon="9.0741067"><ele>207.99999999999997</ele><time>2026-04-05T17:06:49.809Z</time></trkpt><trkpt lat="45.8382467" lon="9.0740633"><ele>208.0</ele><time>2026-04-05T17:06:50.809Z</time></trkpt><trkpt lat="45.8381567" lon="9.0740117"><ele>207.25</ele><time>2026-04-05T17:06:51.808Z</time></trkpt><trkpt lat="45.838055" lon="9.0739533"><ele>206.5</ele><time>2026-04-05T17:06:52.809Z</time></trkpt><trkpt lat="45.837945" lon="9.0738983"><ele>205.75</ele><time>2026-04-05T17:06:53.809Z</time></trkpt><trkpt lat="45.83782" lon="9.0738683"><ele>205.0</ele><time>2026-04-05T17:06:54.809Z</time></trkpt><trkpt lat="45.8376933" lon="9.0738317"><ele>205.75</ele><time>2026-04-05T17:06:55.809Z</time></trkpt><trkpt lat="45.8375683" lon="9.0737883"><ele>206.5</ele><time>2026-04-05T17:06:56.808Z</time></trkpt><trkpt lat="45.8374483" lon="9.0737583"><ele>207.25</ele><time>2026-04-05T17:06:57.808Z</time></trkpt><trkpt lat="45.837335" lon="9.0737067"><ele>208.0</ele><time>2026-04-05T17:06:58.809Z</time></trkpt><trkpt lat="45.8372217" lon="9.0736683"><ele>208.0</ele><time>2026-04-05T17:06:59.808Z</time></trkpt><trkpt lat="45.83712" lon="9.073625"><ele>208.0</ele><time>2026-04-05T17:07:00.808Z</time></trkpt><trkpt lat="45.8370217" lon="9.0735883"><ele>208.0</ele><time>2026-04-05T17:07:01.808Z</time></trkpt><trkpt lat="45.83693" lon="9.0735583"><ele>208.0</ele><time>2026-04-05T17:07:02.808Z</time></trkpt><trkpt lat="45.8368383" lon="9.0735333"><ele>208.0</ele><time>2026-04-05T17:07:03.808Z</time></trkpt><trkpt lat="45.8367517" lon="9.073505"><ele>208.25</ele><time>2026-04-05T17:07:04.809Z</time></trkpt><trkpt lat="45.83665" lon="9.07347"><ele>208.5</ele><time>2026-04-05T17:07:05.808Z</time></trkpt><trkpt lat="45.8365417" lon="9.0734317"><ele>208.75</ele><time>2026-04-05T17:07:06.809Z</time></trkpt><trkpt lat="45.8364233" lon="9.073385"><ele>209.0</ele><time>2026-04-05T17:07:07.809Z</time></trkpt><trkpt lat="45.8362733" lon="9.07336"><ele>209.0</ele><time>2026-04-05T17:07:08.808Z</time></trkpt><trkpt lat="45.8361217" lon="9.0733117"><ele>209.0</ele><time>2026-04-05T17:07:09.808Z</time></trkpt><trkpt lat="45.8359817" lon="9.0732567"><ele>209.0</ele><time>2026-04-05T17:07:10.808Z</time></trkpt><trkpt lat="45.835855" lon="9.0731917"><ele>209.0</ele><time>2026-04-05T17:07:11.809Z</time></trkpt><trkpt lat="45.835735" lon="9.0731367"><ele>207.6</ele><time>2026-04-05T17:07:12.808Z</time></trkpt><trkpt lat="45.83563" lon="9.0730917"><ele>206.2</ele><time>2026-04-05T17:07:13.808Z</time></trkpt><trkpt lat="45.835535" lon="9.07305"><ele>204.79999999999998</ele><time>2026-04-05T17:07:14.809Z</time></trkpt><trkpt lat="45.835445" lon="9.0730117"><ele>203.39999999999998</ele><time>2026-04-05T17:07:15.809Z</time></trkpt><trkpt lat="45.8353717" lon="9.0729717"><ele>202.0</ele><time>2026-04-05T17:07:16.809Z</time></trkpt><trkpt lat="45.835295" lon="9.0729483"><ele>201.99999999999997</ele><time>2026-04-05T17:07:17.809Z</time></trkpt><trkpt lat="45.8352167" lon="9.0729217"><ele>202.0</ele><time>2026-04-05T17:07:18.809Z</time></trkpt><trkpt lat="45.835145" lon="9.072905"><ele>202.0</ele><time>2026-04-05T17:07:19.808Z</time></trkpt><trkpt lat="45.83507" lon="9.0728817"><ele>202.0</ele><time>2026-04-05T17:07:20.809Z</time></trkpt><trkpt lat="45.8350067" lon="9.0728633"><ele>201.99999999999997</ele><time>2026-04-05T17:07:21.808Z</time></trkpt><trkpt lat="45.834915" lon="9.0727967"><ele>202.0</ele><time>2026-04-05T17:07:23.808Z</time></trkpt><trkpt lat="45.8348567" lon="9.072725"><ele>202.16666666666666</ele><time>2026-04-05T17:07:25.809Z</time></trkpt><trkpt lat="45.8348267" lon="9.07262"><ele>202.33333333333331</ele><time>2026-04-05T17:07:29.808Z</time></trkpt><trkpt lat="45.8347867" lon="9.0725133"><ele>202.5</ele><time>2026-04-05T17:07:31.808Z</time></trkpt><trkpt lat="45.8347417" lon="9.0724483"><ele>202.66666666666669</ele><time>2026-04-05T17:07:32.808Z</time></trkpt><trkpt lat="45.83468" lon="9.0724"><ele>202.83333333333334</ele><time>2026-04-05T17:07:33.808Z</time></trkpt><trkpt lat="45.8346067" lon="9.0723967"><ele>203.0</ele><time>2026-04-05T17:07:34.808Z</time></trkpt><trkpt lat="45.8345283" lon="9.0724133"><ele>203.00000000000003</ele><time>2026-04-05T17:07:35.808Z</time></trkpt><trkpt lat="45.8344433" lon="9.072445"><ele>203.0</ele><time>2026-04-05T17:07:36.808Z</time></trkpt><trkpt lat="45.834355" lon="9.0724617"><ele>203.0</ele><time>2026-04-05T17:07:37.809Z</time></trkpt><trkpt lat="45.834265" lon="9.0724767"><ele>203.0</ele><time>2026-04-05T17:07:38.808Z</time></trkpt><trkpt lat="45.8341717" lon="9.0724783"><ele>203.00000000000003</ele><time>2026-04-05T17:07:39.808Z</time></trkpt><trkpt lat="45.834085" lon="9.0724683"><ele>203.0</ele><time>2026-04-05T17:07:40.809Z</time></trkpt><trkpt lat="45.8339933" lon="9.0724467"><ele>203.0</ele><time>2026-04-05T17:07:41.809Z</time></trkpt><trkpt lat="45.8338933" lon="9.072425"><ele>203.0</ele><time>2026-04-05T17:07:42.809Z</time></trkpt><trkpt lat="45.833795" lon="9.0723983"><ele>203.0</ele><time>2026-04-05T17:07:43.808Z</time></trkpt><trkpt lat="45.8336917" lon="9.0723667"><ele>203.0</ele><time>2026-04-05T17:07:44.808Z</time></trkpt><trkpt lat="45.8336033" lon="9.0723267"><ele>203.0</ele><time>2026-04-05T17:07:45.809Z</time></trkpt><trkpt lat="45.8335033" lon="9.0723"><ele>203.33333333333334</ele><time>2026-04-05T17:07:46.809Z</time></trkpt><trkpt lat="45.8334183" lon="9.072265"><ele>203.66666666666669</ele><time>2026-04-05T17:07:47.808Z</time></trkpt><trkpt lat="45.833315" lon="9.0722367"><ele>204.0</ele><time>2026-04-05T17:07:49.809Z</time></trkpt><trkpt lat="45.83325" lon="9.0721967"><ele>204.33333333333331</ele><time>2026-04-05T17:07:51.808Z</time></trkpt><trkpt lat="45.83319" lon="9.0721683"><ele>204.66666666666666</ele><time>2026-04-05T17:07:54.808Z</time></trkpt><trkpt lat="45.833125" lon="9.0721283"><ele>205.0</ele><time>2026-04-05T17:08:04.808Z</time></trkpt><trkpt lat="45.8329867" lon="9.0720667"><ele>205.0</ele><time>2026-04-05T17:08:06.808Z</time></trkpt><trkpt lat="45.83289" lon="9.072025"><ele>205.0</ele><time>2026-04-05T17:08:07.808Z</time></trkpt><trkpt lat="45.8327917" lon="9.071985"><ele>205.0</ele><time>2026-04-05T17:08:08.808Z</time></trkpt><trkpt lat="45.8326917" lon="9.0719517"><ele>205.0</ele><time>2026-04-05T17:08:09.808Z</time></trkpt><trkpt lat="45.83258" lon="9.071915"><ele>205.0</ele><time>2026-04-05T17:08:10.808Z</time></trkpt><trkpt lat="45.8324633" lon="9.0718767"><ele>205.0</ele><time>2026-04-05T17:08:11.808Z</time></trkpt><trkpt lat="45.8323517" lon="9.071845"><ele>205.0</ele><time>2026-04-05T17:08:12.808Z</time></trkpt><trkpt lat="45.8322433" lon="9.071815"><ele>205.0</ele><time>2026-04-05T17:08:13.808Z</time></trkpt><trkpt lat="45.8321417" lon="9.0717967"><ele>205.0</ele><time>2026-04-05T17:08:14.808Z</time></trkpt><trkpt lat="45.8320417" lon="9.0717983"><ele>205.0</ele><time>2026-04-05T17:08:15.808Z</time></trkpt><trkpt lat="45.83192" lon="9.0718167"><ele>204.25</ele><time>2026-04-05T17:08:16.808Z</time></trkpt><trkpt lat="45.831795" lon="9.0718383"><ele>203.5</ele><time>2026-04-05T17:08:17.808Z</time></trkpt><trkpt lat="45.8316833" lon="9.0718583"><ele>202.75</ele><time>2026-04-05T17:08:18.808Z</time></trkpt><trkpt lat="45.8315733" lon="9.0718817"><ele>202.0</ele><time>2026-04-05T17:08:19.809Z</time></trkpt><trkpt lat="45.8314633" lon="9.0719"><ele>202.0</ele><time>2026-04-05T17:08:20.808Z</time></trkpt><trkpt lat="45.8313467" lon="9.071915"><ele>202.0</ele><time>2026-04-05T17:08:21.809Z</time></trkpt><trkpt lat="45.83123" lon="9.0719333"><ele>202.0</ele><time>2026-04-05T17:08:22.808Z</time></trkpt><trkpt lat="45.8311133" lon="9.0719417"><ele>202.0</ele><time>2026-04-05T17:08:23.809Z</time></trkpt><trkpt lat="45.8310033" lon="9.07195"><ele>204.0</ele><time>2026-04-05T17:08:24.808Z</time></trkpt><trkpt lat="45.8308983" lon="9.071945"><ele>206.0</ele><time>2026-04-05T17:08:25.808Z</time></trkpt><trkpt lat="45.8307933" lon="9.0719283"><ele>208.0</ele><time>2026-04-05T17:08:26.808Z</time></trkpt><trkpt lat="45.8306833" lon="9.071895"><ele>210.0</ele><time>2026-04-05T17:08:27.809Z</time></trkpt><trkpt lat="45.83057" lon="9.0718533"><ele>212.0</ele><time>2026-04-05T17:08:28.808Z</time></trkpt><trkpt lat="45.8304467" lon="9.0718067"><ele>212.0</ele><time>2026-04-05T17:08:29.808Z</time></trkpt><trkpt lat="45.83032" lon="9.0717317"><ele>212.0</ele><time>2026-04-05T17:08:30.808Z</time></trkpt><trkpt lat="45.8301883" lon="9.0716483"><ele>212.0</ele><time>2026-04-05T17:08:31.808Z</time></trkpt><trkpt lat="45.8300517" lon="9.0715467"><ele>212.0</ele><time>2026-04-05T17:08:32.808Z</time></trkpt><trkpt lat="45.82992" lon="9.0714417"><ele>218.25</ele><time>2026-04-05T17:08:33.809Z</time></trkpt><trkpt lat="45.8297833" lon="9.0713533"><ele>224.5</ele><time>2026-04-05T17:08:34.808Z</time></trkpt><trkpt lat="45.8296567" lon="9.0712467"><ele>230.75</ele><time>2026-04-05T17:08:35.809Z</time></trkpt><trkpt lat="45.82954" lon="9.0711383"><ele>237.0</ele><time>2026-04-05T17:08:36.809Z</time></trkpt><trkpt lat="45.8294283" lon="9.07103"><ele>237.0</ele><time>2026-04-05T17:08:37.808Z</time></trkpt><trkpt lat="45.8293317" lon="9.07092"><ele>237.0</ele><time>2026-04-05T17:08:38.809Z</time></trkpt><trkpt lat="45.8292367" lon="9.0707967"><ele>237.0</ele><time>2026-04-05T17:08:39.808Z</time></trkpt><trkpt lat="45.8291417" lon="9.0706867"><ele>237.0</ele><time>2026-04-05T17:08:40.808Z</time></trkpt><trkpt lat="45.8290533" lon="9.07057"><ele>239.25</ele><time>2026-04-05T17:08:41.808Z</time></trkpt><trkpt lat="45.8289617" lon="9.0704517"><ele>241.5</ele><time>2026-04-05T17:08:42.809Z</time></trkpt><trkpt lat="45.82887" lon="9.0703133"><ele>243.75</ele><time>2026-04-05T17:08:43.809Z</time></trkpt><trkpt lat="45.8287733" lon="9.07018"><ele>246.0</ele><time>2026-04-05T17:08:44.808Z</time></trkpt><trkpt lat="45.8286833" lon="9.0700717"><ele>246.0</ele><time>2026-04-05T17:08:45.809Z</time></trkpt><trkpt lat="45.8285933" lon="9.0699633"><ele>246.0</ele><time>2026-04-05T17:08:46.808Z</time></trkpt><trkpt lat="45.8285067" lon="9.0698433"><ele>246.0</ele><time>2026-04-05T17:08:47.808Z</time></trkpt><trkpt lat="45.8284" lon="9.069785"><ele>246.0</ele><time>2026-04-05T17:08:48.809Z</time></trkpt><trkpt lat="45.8282833" lon="9.069735"><ele>249.66666666666669</ele><time>2026-04-05T17:08:49.809Z</time></trkpt><trkpt lat="45.8281333" lon="9.06972"><ele>253.33333333333334</ele><time>2026-04-05T17:08:50.808Z</time></trkpt><trkpt lat="45.8279683" lon="9.0697417"><ele>257.0</ele><time>2026-04-05T17:08:51.808Z</time></trkpt><trkpt lat="45.82781" lon="9.0697633"><ele>257.0</ele><time>2026-04-05T17:08:52.809Z</time></trkpt><trkpt lat="45.8276717" lon="9.0697767"><ele>257.0</ele><time>2026-04-05T17:08:53.809Z</time></trkpt><trkpt lat="45.82756" lon="9.0697283"><ele>257.0</ele><time>2026-04-05T17:08:54.808Z</time></trkpt><trkpt lat="45.827445" lon="9.069665"><ele>257.0</ele><time>2026-04-05T17:08:55.808Z</time></trkpt><trkpt lat="45.8273283" lon="9.0696067"><ele>253.0</ele><time>2026-04-05T17:08:56.808Z</time></trkpt><trkpt lat="45.82721" lon="9.069525"><ele>249.0</ele><time>2026-04-05T17:08:57.809Z</time></trkpt><trkpt lat="45.827085" lon="9.0694383"><ele>245.0</ele><time>2026-04-05T17:08:58.808Z</time></trkpt><trkpt lat="45.82696" lon="9.0693383"><ele>241.0</ele><time>2026-04-05T17:08:59.808Z</time></trkpt><trkpt lat="45.8268283" lon="9.0692283"><ele>242.25</ele><time>2026-04-05T17:09:00.808Z</time></trkpt><trkpt lat="45.8267083" lon="9.069115"><ele>243.5</ele><time>2026-04-05T17:09:01.808Z</time></trkpt><trkpt lat="45.8265817" lon="9.069005"><ele>244.75</ele><time>2026-04-05T17:09:02.808Z</time></trkpt><trkpt lat="45.826455" lon="9.0689017"><ele>246.0</ele><time>2026-04-05T17:09:03.809Z</time></trkpt><trkpt lat="45.8263333" lon="9.0687867"><ele>246.0</ele><time>2026-04-05T17:09:04.808Z</time></trkpt><trkpt lat="45.8262083" lon="9.0686683"><ele>246.0</ele><time>2026-04-05T17:09:05.808Z</time></trkpt><trkpt lat="45.8260733" lon="9.068565"><ele>246.0</ele><time>2026-04-05T17:09:06.808Z</time></trkpt><trkpt lat="45.8259283" lon="9.068485"><ele>239.0</ele><time>2026-04-05T17:09:07.808Z</time></trkpt><trkpt lat="45.825785" lon="9.06843"><ele>232.0</ele><time>2026-04-05T17:09:08.808Z</time></trkpt><trkpt lat="45.8256367" lon="9.0684017"><ele>225.0</ele><time>2026-04-05T17:09:09.809Z</time></trkpt><trkpt lat="45.8254983" lon="9.06838"><ele>218.0</ele><time>2026-04-05T17:09:10.808Z</time></trkpt><trkpt lat="45.8253633" lon="9.06838"><ele>218.0</ele><time>2026-04-05T17:09:11.808Z</time></trkpt><trkpt lat="45.8252367" lon="9.068375"><ele>218.0</ele><time>2026-04-05T17:09:12.809Z</time></trkpt><trkpt lat="45.8251067" lon="9.06838"><ele>218.0</ele><time>2026-04-05T17:09:13.809Z</time></trkpt><trkpt lat="45.8249833" lon="9.068375"><ele>218.0</ele><time>2026-04-05T17:09:14.808Z</time></trkpt><trkpt lat="45.8248633" lon="9.0683717"><ele>216.5</ele><time>2026-04-05T17:09:15.808Z</time></trkpt><trkpt lat="45.82474" lon="9.0683483"><ele>215.0</ele><time>2026-04-05T17:09:16.808Z</time></trkpt><trkpt lat="45.8246167" lon="9.0682983"><ele>213.5</ele><time>2026-04-05T17:09:17.808Z</time></trkpt><trkpt lat="45.824495" lon="9.0682517"><ele>212.0</ele><time>2026-04-05T17:09:18.808Z</time></trkpt><trkpt lat="45.8243783" lon="9.06819"><ele>219.5</ele><time>2026-04-05T17:09:19.809Z</time></trkpt><trkpt lat="45.8242667" lon="9.0681417"><ele>227.0</ele><time>2026-04-05T17:09:20.808Z</time></trkpt><trkpt lat="45.8241483" lon="9.06809"><ele>234.5</ele><time>2026-04-05T17:09:21.808Z</time></trkpt><trkpt lat="45.8240333" lon="9.06803"><ele>242.0</ele><time>2026-04-05T17:09:22.808Z</time></trkpt><trkpt lat="45.823905" lon="9.0679667"><ele>242.0</ele><time>2026-04-05T17:09:23.808Z</time></trkpt><trkpt lat="45.8237733" lon="9.0679117"><ele>242.0</ele><time>2026-04-05T17:09:24.808Z</time></trkpt><trkpt lat="45.82364" lon="9.0678567"><ele>242.0</ele><time>2026-04-05T17:09:25.808Z</time></trkpt><trkpt lat="45.8234983" lon="9.0678033"><ele>242.0</ele><time>2026-04-05T17:09:26.809Z</time></trkpt><trkpt lat="45.8233583" lon="9.0677833"><ele>237.25</ele><time>2026-04-05T17:09:27.808Z</time></trkpt><trkpt lat="45.8232233" lon="9.0677783"><ele>232.5</ele><time>2026-04-05T17:09:28.808Z</time></trkpt><trkpt lat="45.8230917" lon="9.0677717"><ele>227.75</ele><time>2026-04-05T17:09:29.809Z</time></trkpt><trkpt lat="45.8229883" lon="9.0677633"><ele>223.0</ele><time>2026-04-05T17:09:30.809Z</time></trkpt><trkpt lat="45.822905" lon="9.0677533"><ele>222.99999999999997</ele><time>2026-04-05T17:09:31.808Z</time></trkpt><trkpt lat="45.8228383" lon="9.0677467"><ele>223.0</ele><time>2026-04-05T17:09:32.808Z</time></trkpt><trkpt lat="45.8227417" lon="9.0677283"><ele>223.0</ele><time>2026-04-05T17:09:34.808Z</time></trkpt><trkpt lat="45.82265" lon="9.0677033"><ele>223.0</ele><time>2026-04-05T17:09:36.809Z</time></trkpt><trkpt lat="45.8225617" lon="9.0676533"><ele>222.99999999999997</ele><time>2026-04-05T17:09:38.808Z</time></trkpt><trkpt lat="45.8224983" lon="9.0676067"><ele>223.0</ele><time>2026-04-05T17:09:40.808Z</time></trkpt><trkpt lat="45.8223933" lon="9.067555"><ele>221.2</ele><time>2026-04-05T17:09:42.809Z</time></trkpt><trkpt lat="45.82232" lon="9.0675"><ele>219.4</ele><time>2026-04-05T17:09:43.808Z</time></trkpt><trkpt lat="45.822225" lon="9.0674367"><ele>217.59999999999997</ele><time>2026-04-05T17:09:44.808Z</time></trkpt><trkpt lat="45.822125" lon="9.0673767"><ele>215.79999999999998</ele><time>2026-04-05T17:09:45.808Z</time></trkpt><trkpt lat="45.8220133" lon="9.0673017"><ele>214.0</ele><time>2026-04-05T17:09:46.808Z</time></trkpt><trkpt lat="45.8218917" lon="9.0672217"><ele>215.25</ele><time>2026-04-05T17:09:47.808Z</time></trkpt><trkpt lat="45.8217633" lon="9.0671433"><ele>216.5</ele><time>2026-04-05T17:09:48.808Z</time></trkpt><trkpt lat="45.8216267" lon="9.067065"><ele>217.75</ele><time>2026-04-05T17:09:49.808Z</time></trkpt><trkpt lat="45.82149" lon="9.0669867"><ele>219.0</ele><time>2026-04-05T17:09:50.808Z</time></trkpt><trkpt lat="45.821355" lon="9.0669117"><ele>219.0</ele><time>2026-04-05T17:09:51.808Z</time></trkpt><trkpt lat="45.8212367" lon="9.066835"><ele>219.0</ele><time>2026-04-05T17:09:52.808Z</time></trkpt><trkpt lat="45.8211383" lon="9.06677"><ele>219.0</ele><time>2026-04-05T17:09:53.809Z</time></trkpt><trkpt lat="45.82104" lon="9.0667"><ele>219.0</ele><time>2026-04-05T17:09:54.808Z</time></trkpt><trkpt lat="45.8209433" lon="9.0666167"><ele>219.25</ele><time>2026-04-05T17:09:55.808Z</time></trkpt><trkpt lat="45.8208433" lon="9.0665167"><ele>219.5</ele><time>2026-04-05T17:09:56.809Z</time></trkpt><trkpt lat="45.8207517" lon="9.0663967"><ele>219.75</ele><time>2026-04-05T17:09:57.809Z</time></trkpt><trkpt lat="45.8206717" lon="9.0662283"><ele>220.0</ele><time>2026-04-05T17:09:58.808Z</time></trkpt><trkpt lat="45.820605" lon="9.0660367"><ele>220.0</ele><time>2026-04-05T17:09:59.808Z</time></trkpt><trkpt lat="45.820545" lon="9.0658233"><ele>220.0</ele><time>2026-04-05T17:10:00.809Z</time></trkpt><trkpt lat="45.8204667" lon="9.06559"><ele>220.0</ele><time>2026-04-05T17:10:01.808Z</time></trkpt><trkpt lat="45.8203867" lon="9.0653483"><ele>222.66666666666666</ele><time>2026-04-05T17:10:02.808Z</time></trkpt><trkpt lat="45.8203067" lon="9.0651183"><ele>225.33333333333331</ele><time>2026-04-05T17:10:03.808Z</time></trkpt><trkpt lat="45.8202333" lon="9.0648917"><ele>228.0</ele><time>2026-04-05T17:10:04.808Z</time></trkpt><trkpt lat="45.82017" lon="9.0646933"><ele>226.0</ele><time>2026-04-05T17:10:05.808Z</time></trkpt><trkpt lat="45.8201067" lon="9.06451"><ele>224.0</ele><time>2026-04-05T17:10:06.808Z</time></trkpt><trkpt lat="45.82005" lon="9.0643217"><ele>222.0</ele><time>2026-04-05T17:10:07.808Z</time></trkpt><trkpt lat="45.8199933" lon="9.0641567"><ele>220.0</ele><time>2026-04-05T17:10:08.808Z</time></trkpt><trkpt lat="45.8199417" lon="9.0640117"><ele>220.0</ele><time>2026-04-05T17:10:09.808Z</time></trkpt><trkpt lat="45.8198967" lon="9.063875"><ele>220.0</ele><time>2026-04-05T17:10:10.808Z</time></trkpt><trkpt lat="45.8198483" lon="9.0637433"><ele>220.0</ele><time>2026-04-05T17:10:11.808Z</time></trkpt><trkpt lat="45.81978" lon="9.0636133"><ele>220.0</ele><time>2026-04-05T17:10:12.808Z</time></trkpt><trkpt lat="45.8196867" lon="9.0634883"><ele>220.0</ele><time>2026-04-05T17:10:13.809Z</time></trkpt><trkpt lat="45.8195883" lon="9.06339"><ele>220.0</ele><time>2026-04-05T17:10:14.808Z</time></trkpt><trkpt lat="45.8194933" lon="9.063315"><ele>220.0</ele><time>2026-04-05T17:10:15.808Z</time></trkpt><trkpt lat="45.8194" lon="9.0632617"><ele>220.0</ele><time>2026-04-05T17:10:16.808Z</time></trkpt><trkpt lat="45.819315" lon="9.0632267"><ele>220.0</ele><time>2026-04-05T17:10:17.808Z</time></trkpt><trkpt lat="45.8192417" lon="9.0632"><ele>220.6</ele><time>2026-04-05T17:10:18.809Z</time></trkpt><trkpt lat="45.8191767" lon="9.06318"><ele>221.2</ele><time>2026-04-05T17:10:19.808Z</time></trkpt><trkpt lat="45.8191033" lon="9.06316"><ele>221.8</ele><time>2026-04-05T17:10:21.808Z</time></trkpt><trkpt lat="45.81903" lon="9.063115"><ele>222.4</ele><time>2026-04-05T17:10:27.809Z</time></trkpt><trkpt lat="45.81895" lon="9.0629983"><ele>223.0</ele><time>2026-04-05T17:10:29.809Z</time></trkpt><trkpt lat="45.8189317" lon="9.062795"><ele>223.0</ele><time>2026-04-05T17:10:31.808Z</time></trkpt><trkpt lat="45.8189633" lon="9.0626383"><ele>223.0</ele><time>2026-04-05T17:10:32.809Z</time></trkpt><trkpt lat="45.8190317" lon="9.0624467"><ele>223.0</ele><time>2026-04-05T17:10:33.808Z</time></trkpt><trkpt lat="45.81911" lon="9.0622617"><ele>223.0</ele><time>2026-04-05T17:10:34.808Z</time></trkpt><trkpt lat="45.8191717" lon="9.0620667"><ele>224.66666666666666</ele><time>2026-04-05T17:10:35.808Z</time></trkpt><trkpt lat="45.819245" lon="9.0618533"><ele>226.33333333333331</ele><time>2026-04-05T17:10:36.808Z</time></trkpt><trkpt lat="45.8193167" lon="9.06165"><ele>228.0</ele><time>2026-04-05T17:10:37.808Z</time></trkpt><trkpt lat="45.8193733" lon="9.06145"><ele>230.60000000000002</ele><time>2026-04-05T17:10:38.808Z</time></trkpt><trkpt lat="45.8194383" lon="9.06129"><ele>233.20000000000002</ele><time>2026-04-05T17:10:39.808Z</time></trkpt><trkpt lat="45.8194933" lon="9.0611467"><ele>235.8</ele><time>2026-04-05T17:10:40.808Z</time></trkpt><trkpt lat="45.81954" lon="9.0610233"><ele>238.4</ele><time>2026-04-05T17:10:41.808Z</time></trkpt><trkpt lat="45.819595" lon="9.0609183"><ele>241.0</ele><time>2026-04-05T17:10:42.808Z</time></trkpt><trkpt lat="45.8196633" lon="9.06085"><ele>241.0</ele><time>2026-04-05T17:10:43.808Z</time></trkpt><trkpt lat="45.8197433" lon="9.06082"><ele>241.00000000000003</ele><time>2026-04-05T17:10:44.808Z</time></trkpt><trkpt lat="45.8198333" lon="9.0607967"><ele>241.00000000000003</ele><time>2026-04-05T17:10:45.808Z</time></trkpt><trkpt lat="45.8199467" lon="9.0607933"><ele>241.0</ele><time>2026-04-05T17:10:46.808Z</time></trkpt><trkpt lat="45.8200683" lon="9.0607983"><ele>241.0</ele><time>2026-04-05T17:10:47.808Z</time></trkpt><trkpt lat="45.8202083" lon="9.0607883"><ele>246.0</ele><time>2026-04-05T17:10:48.808Z</time></trkpt><trkpt lat="45.8203533" lon="9.0607733"><ele>251.0</ele><time>2026-04-05T17:10:49.808Z</time></trkpt><trkpt lat="45.8204767" lon="9.0607633"><ele>256.0</ele><time>2026-04-05T17:10:50.808Z</time></trkpt><trkpt lat="45.8205933" lon="9.0607667"><ele>261.0</ele><time>2026-04-05T17:10:51.808Z</time></trkpt><trkpt lat="45.8207033" lon="9.0607367"><ele>261.0</ele><time>2026-04-05T17:10:52.808Z</time></trkpt><trkpt lat="45.8208033" lon="9.0606367"><ele>261.0</ele><time>2026-04-05T17:10:53.808Z</time></trkpt><trkpt lat="45.8208883" lon="9.0605167"><ele>261.0</ele><time>2026-04-05T17:10:54.808Z</time></trkpt><trkpt lat="45.8209633" lon="9.0603833"><ele>261.0</ele><time>2026-04-05T17:10:55.808Z</time></trkpt><trkpt lat="45.82104" lon="9.0602733"><ele>262.8</ele><time>2026-04-05T17:10:56.808Z</time></trkpt><trkpt lat="45.8211183" lon="9.0602117"><ele>264.6</ele><time>2026-04-05T17:10:57.809Z</time></trkpt><trkpt lat="45.8212033" lon="9.0602"><ele>266.4</ele><time>2026-04-05T17:10:58.808Z</time></trkpt><trkpt lat="45.8212967" lon="9.060245"><ele>268.2</ele><time>2026-04-05T17:10:59.808Z</time></trkpt><trkpt lat="45.8213933" lon="9.060325"><ele>270.0</ele><time>2026-04-05T17:11:00.808Z</time></trkpt><trkpt lat="45.8214917" lon="9.0604583"><ele>270.0</ele><time>2026-04-05T17:11:01.808Z</time></trkpt><trkpt lat="45.82159" lon="9.0606467"><ele>270.0</ele><time>2026-04-05T17:11:02.808Z</time></trkpt><trkpt lat="45.82169" lon="9.0608517"><ele>270.0</ele><time>2026-04-05T17:11:03.808Z</time></trkpt><trkpt lat="45.82178" lon="9.06108"><ele>272.25</ele><time>2026-04-05T17:11:04.808Z</time></trkpt><trkpt lat="45.82183" lon="9.0613"><ele>274.5</ele><time>2026-04-05T17:11:05.808Z</time></trkpt><trkpt lat="45.82186" lon="9.061515"><ele>276.75</ele><time>2026-04-05T17:11:06.808Z</time></trkpt><trkpt lat="45.8218933" lon="9.0616883"><ele>279.0</ele><time>2026-04-05T17:11:07.809Z</time></trkpt><trkpt lat="45.8219433" lon="9.0618217"><ele>279.0</ele><time>2026-04-05T17:11:08.808Z</time></trkpt><trkpt lat="45.8220167" lon="9.0619117"><ele>279.0</ele><time>2026-04-05T17:11:09.809Z</time></trkpt><trkpt lat="45.8221117" lon="9.0619583"><ele>279.0</ele><time>2026-04-05T17:11:10.808Z</time></trkpt><trkpt lat="45.8222" lon="9.0619433"><ele>279.0</ele><time>2026-04-05T17:11:11.809Z</time></trkpt><trkpt lat="45.8222767" lon="9.0618617"><ele>279.0</ele><time>2026-04-05T17:11:12.808Z</time></trkpt><trkpt lat="45.8223283" lon="9.06175"><ele>280.75</ele><time>2026-04-05T17:11:13.808Z</time></trkpt><trkpt lat="45.8223417" lon="9.0616033"><ele>282.5</ele><time>2026-04-05T17:11:14.808Z</time></trkpt><trkpt lat="45.8223117" lon="9.0613933"><ele>284.25</ele><time>2026-04-05T17:11:15.809Z</time></trkpt><trkpt lat="45.8222483" lon="9.0611383"><ele>286.0</ele><time>2026-04-05T17:11:16.808Z</time></trkpt><trkpt lat="45.8222" lon="9.0608817"><ele>289.0</ele><time>2026-04-05T17:11:17.808Z</time></trkpt><trkpt lat="45.8221633" lon="9.0606217"><ele>292.0</ele><time>2026-04-05T17:11:18.808Z</time></trkpt><trkpt lat="45.82212" lon="9.0603583"><ele>295.0</ele><time>2026-04-05T17:11:19.808Z</time></trkpt><trkpt lat="45.8220633" lon="9.0600967"><ele>292.66666666666663</ele><time>2026-04-05T17:11:20.809Z</time></trkpt><trkpt lat="45.8219767" lon="9.0598417"><ele>290.3333333333333</ele><time>2026-04-05T17:11:21.808Z</time></trkpt><trkpt lat="45.8218517" lon="9.0595883"><ele>288.0</ele><time>2026-04-05T17:11:22.808Z</time></trkpt><trkpt lat="45.82171" lon="9.0593533"><ele>288.0</ele><time>2026-04-05T17:11:23.808Z</time></trkpt><trkpt lat="45.8215533" lon="9.0591267"><ele>288.0</ele><time>2026-04-05T17:11:24.808Z</time></trkpt><trkpt lat="45.821405" lon="9.05892"><ele>288.0</ele><time>2026-04-05T17:11:25.808Z</time></trkpt><trkpt lat="45.8212767" lon="9.0587133"><ele>288.0</ele><time>2026-04-05T17:11:26.808Z</time></trkpt><trkpt lat="45.8211517" lon="9.0585483"><ele>288.0</ele><time>2026-04-05T17:11:27.808Z</time></trkpt><trkpt lat="45.8210583" lon="9.05838"><ele>288.0</ele><time>2026-04-05T17:11:28.809Z</time></trkpt><trkpt lat="45.8209917" lon="9.0582233"><ele>288.0</ele><time>2026-04-05T17:11:29.808Z</time></trkpt><trkpt lat="45.8209617" lon="9.05807"><ele>288.0</ele><time>2026-04-05T17:11:30.809Z</time></trkpt><trkpt lat="45.8209717" lon="9.0579033"><ele>288.0</ele><time>2026-04-05T17:11:31.809Z</time></trkpt><trkpt lat="45.82102" lon="9.0577433"><ele>288.0</ele><time>2026-04-05T17:11:32.809Z</time></trkpt><trkpt lat="45.821085" lon="9.05758"><ele>288.0</ele><time>2026-04-05T17:11:33.809Z</time></trkpt><trkpt lat="45.821195" lon="9.05741"><ele>290.6666666666667</ele><time>2026-04-05T17:11:34.808Z</time></trkpt><trkpt lat="45.82132" lon="9.0572433"><ele>293.33333333333337</ele><time>2026-04-05T17:11:35.808Z</time></trkpt><trkpt lat="45.82146" lon="9.0570833"><ele>296.0</ele><time>2026-04-05T17:11:36.808Z</time></trkpt><trkpt lat="45.82159" lon="9.0569183"><ele>296.0</ele><time>2026-04-05T17:11:37.808Z</time></trkpt><trkpt lat="45.8217267" lon="9.056745"><ele>296.0</ele><time>2026-04-05T17:11:38.808Z</time></trkpt><trkpt lat="45.821855" lon="9.056565"><ele>296.0</ele><time>2026-04-05T17:11:39.808Z</time></trkpt><trkpt lat="45.8219767" lon="9.0564017"><ele>297.75</ele><time>2026-04-05T17:11:40.809Z</time></trkpt><trkpt lat="45.8220883" lon="9.05625"><ele>299.5</ele><time>2026-04-05T17:11:41.808Z</time></trkpt><trkpt lat="45.822195" lon="9.0561217"><ele>301.25</ele><time>2026-04-05T17:11:42.808Z</time></trkpt><trkpt lat="45.8222967" lon="9.0559867"><ele>303.0</ele><time>2026-04-05T17:11:43.809Z</time></trkpt><trkpt lat="45.822405" lon="9.0558433"><ele>302.5</ele><time>2026-04-05T17:11:44.808Z</time></trkpt><trkpt lat="45.8225117" lon="9.0556917"><ele>302.0</ele><time>2026-04-05T17:11:45.808Z</time></trkpt><trkpt lat="45.8226183" lon="9.05555"><ele>301.5</ele><time>2026-04-05T17:11:46.809Z</time></trkpt><trkpt lat="45.82271" lon="9.05542"><ele>301.0</ele><time>2026-04-05T17:11:47.808Z</time></trkpt><trkpt lat="45.8227983" lon="9.05532"><ele>301.8333333333333</ele><time>2026-04-05T17:11:48.808Z</time></trkpt><trkpt lat="45.822865" lon="9.055215"><ele>302.66666666666663</ele><time>2026-04-05T17:11:49.808Z</time></trkpt><trkpt lat="45.822935" lon="9.0551267"><ele>303.5</ele><time>2026-04-05T17:11:50.808Z</time></trkpt><trkpt lat="45.8229967" lon="9.0550517"><ele>304.3333333333333</ele><time>2026-04-05T17:11:51.808Z</time></trkpt><trkpt lat="45.823045" lon="9.05498"><ele>305.1666666666667</ele><time>2026-04-05T17:11:52.808Z</time></trkpt><trkpt lat="45.8231067" lon="9.0548733"><ele>306.0</ele><time>2026-04-05T17:11:54.809Z</time></trkpt><trkpt lat="45.8231483" lon="9.0547867"><ele>306.0</ele><time>2026-04-05T17:11:56.808Z</time></trkpt><trkpt lat="45.8232" lon="9.054655"><ele>306.0</ele><time>2026-04-05T17:11:58.809Z</time></trkpt><trkpt lat="45.8232" lon="9.0545083"><ele>306.0</ele><time>2026-04-05T17:12:00.809Z</time></trkpt><trkpt lat="45.823085" lon="9.0544533"><ele>306.0</ele><time>2026-04-05T17:12:02.808Z</time></trkpt><trkpt lat="45.8230017" lon="9.0544617"><ele>306.0</ele><time>2026-04-05T17:12:03.808Z</time></trkpt><trkpt lat="45.822905" lon="9.054465"><ele>306.0</ele><time>2026-04-05T17:12:04.808Z</time></trkpt><trkpt lat="45.8227883" lon="9.0544583"><ele>306.0</ele><time>2026-04-05T17:12:05.808Z</time></trkpt><trkpt lat="45.8226567" lon="9.0544717"><ele>306.0</ele><time>2026-04-05T17:12:06.808Z</time></trkpt><trkpt lat="45.8225267" lon="9.0545017"><ele>306.0</ele><time>2026-04-05T17:12:07.809Z</time></trkpt><trkpt lat="45.8223933" lon="9.0545267"><ele>305.5</ele><time>2026-04-05T17:12:08.808Z</time></trkpt><trkpt lat="45.8222633" lon="9.05456"><ele>305.0</ele><time>2026-04-05T17:12:09.808Z</time></trkpt><trkpt lat="45.8221433" lon="9.0545817"><ele>304.5</ele><time>2026-04-05T17:12:10.808Z</time></trkpt><trkpt lat="45.822025" lon="9.054585"><ele>304.0</ele><time>2026-04-05T17:12:11.808Z</time></trkpt><trkpt lat="45.821915" lon="9.0545817"><ele>306.5</ele><time>2026-04-05T17:12:12.808Z</time></trkpt><trkpt lat="45.82181" lon="9.0545767"><ele>309.0</ele><time>2026-04-05T17:12:13.808Z</time></trkpt><trkpt lat="45.821695" lon="9.0545767"><ele>311.5</ele><time>2026-04-05T17:12:14.809Z</time></trkpt><trkpt lat="45.8215633" lon="9.054585"><ele>314.0</ele><time>2026-04-05T17:12:15.808Z</time></trkpt><trkpt lat="45.8214217" lon="9.054615"><ele>314.0</ele><time>2026-04-05T17:12:16.808Z</time></trkpt><trkpt lat="45.8212817" lon="9.05466"><ele>314.0</ele><time>2026-04-05T17:12:17.808Z</time></trkpt><trkpt lat="45.8211533" lon="9.05469"><ele>314.0</ele><time>2026-04-05T17:12:18.808Z</time></trkpt><trkpt lat="45.8210467" lon="9.054715"><ele>314.0</ele><time>2026-04-05T17:12:19.808Z</time></trkpt><trkpt lat="45.82096" lon="9.0547467"><ele>313.8</ele><time>2026-04-05T17:12:20.808Z</time></trkpt><trkpt lat="45.8208817" lon="9.05477"><ele>313.59999999999997</ele><time>2026-04-05T17:12:21.808Z</time></trkpt><trkpt lat="45.8207917" lon="9.054805"><ele>313.4</ele><time>2026-04-05T17:12:22.808Z</time></trkpt><trkpt lat="45.8207067" lon="9.0548717"><ele>313.2</ele><time>2026-04-05T17:12:23.808Z</time></trkpt><trkpt lat="45.8206317" lon="9.054965"><ele>313.0</ele><time>2026-04-05T17:12:24.809Z</time></trkpt><trkpt lat="45.8205717" lon="9.05509"><ele>313.0</ele><time>2026-04-05T17:12:25.808Z</time></trkpt><trkpt lat="45.820515" lon="9.055255"><ele>313.0</ele><time>2026-04-05T17:12:26.808Z</time></trkpt><trkpt lat="45.8204617" lon="9.05543"><ele>313.0</ele><time>2026-04-05T17:12:27.809Z</time></trkpt><trkpt lat="45.8204117" lon="9.0555983"><ele>313.0</ele><time>2026-04-05T17:12:28.808Z</time></trkpt><trkpt lat="45.82036" lon="9.0557533"><ele>310.75</ele><time>2026-04-05T17:12:29.808Z</time></trkpt><trkpt lat="45.8202883" lon="9.05589"><ele>308.5</ele><time>2026-04-05T17:12:30.808Z</time></trkpt><trkpt lat="45.8202" lon="9.05604"><ele>306.25</ele><time>2026-04-05T17:12:31.808Z</time></trkpt><trkpt lat="45.8200967" lon="9.0562033"><ele>304.0</ele><time>2026-04-05T17:12:32.808Z</time></trkpt><trkpt lat="45.81997" lon="9.0563933"><ele>305.66666666666663</ele><time>2026-04-05T17:12:33.808Z</time></trkpt><trkpt lat="45.8198433" lon="9.056595"><ele>307.3333333333333</ele><time>2026-04-05T17:12:34.808Z</time></trkpt><trkpt lat="45.8196967" lon="9.0567883"><ele>309.0</ele><time>2026-04-05T17:12:35.808Z</time></trkpt><trkpt lat="45.8195517" lon="9.0569767"><ele>309.0</ele><time>2026-04-05T17:12:36.809Z</time></trkpt><trkpt lat="45.819415" lon="9.057155"><ele>309.0</ele><time>2026-04-05T17:12:37.808Z</time></trkpt><trkpt lat="45.8192883" lon="9.0573083"><ele>309.0</ele><time>2026-04-05T17:12:38.809Z</time></trkpt><trkpt lat="45.8191617" lon="9.0574283"><ele>314.0</ele><time>2026-04-05T17:12:39.808Z</time></trkpt><trkpt lat="45.8190417" lon="9.0575367"><ele>319.0</ele><time>2026-04-05T17:12:40.808Z</time></trkpt><trkpt lat="45.8188983" lon="9.0576417"><ele>324.0</ele><time>2026-04-05T17:12:41.808Z</time></trkpt><trkpt lat="45.81874" lon="9.0577533"><ele>324.0</ele><time>2026-04-05T17:12:42.808Z</time></trkpt><trkpt lat="45.8185667" lon="9.057875"><ele>324.0</ele><time>2026-04-05T17:12:43.808Z</time></trkpt><trkpt lat="45.8183917" lon="9.058"><ele>324.0</ele><time>2026-04-05T17:12:44.809Z</time></trkpt><trkpt lat="45.81821" lon="9.0581333"><ele>323.3333333333333</ele><time>2026-04-05T17:12:45.808Z</time></trkpt><trkpt lat="45.818025" lon="9.0582517"><ele>322.66666666666663</ele><time>2026-04-05T17:12:46.808Z</time></trkpt><trkpt lat="45.8178567" lon="9.058345"><ele>322.0</ele><time>2026-04-05T17:12:47.808Z</time></trkpt><trkpt lat="45.8176883" lon="9.0584133"><ele>328.25</ele><time>2026-04-05T17:12:48.808Z</time></trkpt><trkpt lat="45.81755" lon="9.05849"><ele>334.5</ele><time>2026-04-05T17:12:49.808Z</time></trkpt><trkpt lat="45.8174317" lon="9.05859"><ele>340.75</ele><time>2026-04-05T17:12:50.808Z</time></trkpt><trkpt lat="45.8173317" lon="9.0587"><ele>347.0</ele><time>2026-04-05T17:12:51.808Z</time></trkpt><trkpt lat="45.8172383" lon="9.0587933"><ele>347.0</ele><time>2026-04-05T17:12:52.808Z</time></trkpt><trkpt lat="45.817135" lon="9.0588367"><ele>347.0</ele><time>2026-04-05T17:12:53.808Z</time></trkpt><trkpt lat="45.8170133" lon="9.05884"><ele>347.0</ele><time>2026-04-05T17:12:54.808Z</time></trkpt><trkpt lat="45.8168767" lon="9.0588167"><ele>347.0</ele><time>2026-04-05T17:12:55.809Z</time></trkpt><trkpt lat="45.81673" lon="9.0587533"><ele>347.5</ele><time>2026-04-05T17:12:56.808Z</time></trkpt><trkpt lat="45.8166" lon="9.0586783"><ele>348.0</ele><time>2026-04-05T17:12:57.808Z</time></trkpt><trkpt lat="45.816485" lon="9.05864"><ele>348.5</ele><time>2026-04-05T17:12:58.808Z</time></trkpt><trkpt lat="45.8163733" lon="9.0586333"><ele>349.0</ele><time>2026-04-05T17:12:59.809Z</time></trkpt><trkpt lat="45.8162483" lon="9.0586683"><ele>349.0</ele><time>2026-04-05T17:13:00.808Z</time></trkpt><trkpt lat="45.816135" lon="9.0587517"><ele>349.0</ele><time>2026-04-05T17:13:01.808Z</time></trkpt><trkpt lat="45.81604" lon="9.058835"><ele>349.0</ele><time>2026-04-05T17:13:02.808Z</time></trkpt><trkpt lat="45.81596" lon="9.0588983"><ele>349.0</ele><time>2026-04-05T17:13:03.808Z</time></trkpt><trkpt lat="45.81588" lon="9.0589333"><ele>349.0</ele><time>2026-04-05T17:13:04.808Z</time></trkpt><trkpt lat="45.8157833" lon="9.0589567"><ele>351.25</ele><time>2026-04-05T17:13:05.809Z</time></trkpt><trkpt lat="45.8156717" lon="9.0589633"><ele>353.5</ele><time>2026-04-05T17:13:06.809Z</time></trkpt><trkpt lat="45.8155567" lon="9.0589633"><ele>355.75</ele><time>2026-04-05T17:13:07.808Z</time></trkpt><trkpt lat="45.8154467" lon="9.05896"><ele>358.0</ele><time>2026-04-05T17:13:08.808Z</time></trkpt><trkpt lat="45.8153333" lon="9.058955"><ele>358.0</ele><time>2026-04-05T17:13:09.808Z</time></trkpt><trkpt lat="45.8152117" lon="9.0589683"><ele>358.0</ele><time>2026-04-05T17:13:10.808Z</time></trkpt><trkpt lat="45.8150967" lon="9.0590117"><ele>358.0</ele><time>2026-04-05T17:13:11.808Z</time></trkpt><trkpt lat="45.8149917" lon="9.0590933"><ele>358.0</ele><time>2026-04-05T17:13:12.808Z</time></trkpt><trkpt lat="45.81489" lon="9.05921"><ele>355.66666666666663</ele><time>2026-04-05T17:13:13.809Z</time></trkpt><trkpt lat="45.8147967" lon="9.0593667"><ele>353.3333333333333</ele><time>2026-04-05T17:13:14.809Z</time></trkpt><trkpt lat="45.814705" lon="9.05956"><ele>351.0</ele><time>2026-04-05T17:13:15.808Z</time></trkpt><trkpt lat="45.8146433" lon="9.0597817"><ele>345.6666666666667</ele><time>2026-04-05T17:13:16.808Z</time></trkpt><trkpt lat="45.8145767" lon="9.0600033"><ele>340.33333333333337</ele><time>2026-04-05T17:13:17.808Z</time></trkpt><trkpt lat="45.814515" lon="9.0602083"><ele>335.0</ele><time>2026-04-05T17:13:18.808Z</time></trkpt><trkpt lat="45.8144633" lon="9.0603883"><ele>335.0</ele><time>2026-04-05T17:13:19.809Z</time></trkpt><trkpt lat="45.8143917" lon="9.06052"><ele>335.0</ele><time>2026-04-05T17:13:20.809Z</time></trkpt><trkpt lat="45.8142833" lon="9.060585"><ele>335.0</ele><time>2026-04-05T17:13:21.809Z</time></trkpt><trkpt lat="45.8141633" lon="9.0605833"><ele>335.0</ele><time>2026-04-05T17:13:22.808Z</time></trkpt><trkpt lat="45.8140467" lon="9.06052"><ele>341.75</ele><time>2026-04-05T17:13:23.808Z</time></trkpt><trkpt lat="45.8139317" lon="9.0604117"><ele>348.5</ele><time>2026-04-05T17:13:24.808Z</time></trkpt><trkpt lat="45.8138283" lon="9.0602667"><ele>355.25</ele><time>2026-04-05T17:13:25.809Z</time></trkpt><trkpt lat="45.81372" lon="9.0600917"><ele>362.0</ele><time>2026-04-05T17:13:26.808Z</time></trkpt><trkpt lat="45.8136167" lon="9.0599217"><ele>365.5</ele><time>2026-04-05T17:13:27.808Z</time></trkpt><trkpt lat="45.8135233" lon="9.0597633"><ele>369.0</ele><time>2026-04-05T17:13:28.808Z</time></trkpt><trkpt lat="45.8134383" lon="9.059635"><ele>372.5</ele><time>2026-04-05T17:13:29.808Z</time></trkpt><trkpt lat="45.8133367" lon="9.0595417"><ele>376.0</ele><time>2026-04-05T17:13:30.808Z</time></trkpt><trkpt lat="45.8132117" lon="9.0595033"><ele>380.3333333333333</ele><time>2026-04-05T17:13:31.809Z</time></trkpt><trkpt lat="45.813055" lon="9.0595333"><ele>384.66666666666663</ele><time>2026-04-05T17:13:32.808Z</time></trkpt><trkpt lat="45.8128783" lon="9.05956"><ele>389.0</ele><time>2026-04-05T17:13:33.808Z</time></trkpt><trkpt lat="45.81271" lon="9.0595867"><ele>387.75</ele><time>2026-04-05T17:13:34.809Z</time></trkpt><trkpt lat="45.81256" lon="9.0596033"><ele>386.5</ele><time>2026-04-05T17:13:35.808Z</time></trkpt><trkpt lat="45.8124367" lon="9.0595583"><ele>385.25</ele><time>2026-04-05T17:13:36.808Z</time></trkpt><trkpt lat="45.812335" lon="9.0594867"><ele>384.0</ele><time>2026-04-05T17:13:37.808Z</time></trkpt><trkpt lat="45.8122717" lon="9.0593683"><ele>384.0</ele><time>2026-04-05T17:13:38.808Z</time></trkpt><trkpt lat="45.8122533" lon="9.0592033"><ele>384.0</ele><time>2026-04-05T17:13:39.808Z</time></trkpt><trkpt lat="45.81224" lon="9.059045"><ele>384.0</ele><time>2026-04-05T17:13:40.809Z</time></trkpt><trkpt lat="45.8122017" lon="9.0589067"><ele>384.0</ele><time>2026-04-05T17:13:41.808Z</time></trkpt><trkpt lat="45.81212" lon="9.0587883"><ele>384.0</ele><time>2026-04-05T17:13:42.808Z</time></trkpt><trkpt lat="45.8120167" lon="9.05871"><ele>388.0</ele><time>2026-04-05T17:13:43.809Z</time></trkpt><trkpt lat="45.8119017" lon="9.0586683"><ele>392.0</ele><time>2026-04-05T17:13:44.808Z</time></trkpt><trkpt lat="45.8117583" lon="9.058685"><ele>396.0</ele><time>2026-04-05T17:13:45.808Z</time></trkpt><trkpt lat="45.8115983" lon="9.0587083"><ele>400.0</ele><time>2026-04-05T17:13:46.809Z</time></trkpt><trkpt lat="45.811425" lon="9.05875"><ele>400.33333333333337</ele><time>2026-04-05T17:13:47.809Z</time></trkpt><trkpt lat="45.8112567" lon="9.05878"><ele>400.66666666666663</ele><time>2026-04-05T17:13:48.808Z</time></trkpt><trkpt lat="45.8110967" lon="9.0588183"><ele>401.0</ele><time>2026-04-05T17:13:49.808Z</time></trkpt><trkpt lat="45.8109483" lon="9.0588617"><ele>399.0</ele><time>2026-04-05T17:13:50.808Z</time></trkpt><trkpt lat="45.810805" lon="9.058905"><ele>397.0</ele><time>2026-04-05T17:13:51.808Z</time></trkpt><trkpt lat="45.810665" lon="9.05893"><ele>395.0</ele><time>2026-04-05T17:13:52.808Z</time></trkpt><trkpt lat="45.8105167" lon="9.058965"><ele>393.0</ele><time>2026-04-05T17:13:53.808Z</time></trkpt><trkpt lat="45.8103833" lon="9.05899"><ele>393.0</ele><time>2026-04-05T17:13:54.808Z</time></trkpt><trkpt lat="45.8102833" lon="9.0589333"><ele>393.0</ele><time>2026-04-05T17:13:55.809Z</time></trkpt><trkpt lat="45.8104267" lon="9.0585933"><ele>393.0</ele><time>2026-04-05T17:13:56.808Z</time></trkpt><trkpt lat="45.81057" lon="9.0581883"><ele>395.0</ele><time>2026-04-05T17:13:57.808Z</time></trkpt><trkpt lat="45.8106317" lon="9.05792"><ele>397.0</ele><time>2026-04-05T17:13:58.808Z</time></trkpt><trkpt lat="45.8106267" lon="9.0577733"><ele>399.0</ele><time>2026-04-05T17:13:59.808Z</time></trkpt><trkpt lat="45.8106117" lon="9.0576067"><ele>401.0</ele><time>2026-04-05T17:14:00.808Z</time></trkpt><trkpt lat="45.8105933" lon="9.0574683"><ele>403.6</ele><time>2026-04-05T17:14:01.808Z</time></trkpt><trkpt lat="45.810565" lon="9.0573633"><ele>406.20000000000005</ele><time>2026-04-05T17:14:02.808Z</time></trkpt><trkpt lat="45.8105133" lon="9.0572767"><ele>408.79999999999995</ele><time>2026-04-05T17:14:03.808Z</time></trkpt><trkpt lat="45.8104417" lon="9.057205"><ele>411.4</ele><time>2026-04-05T17:14:04.809Z</time></trkpt><trkpt lat="45.81034" lon="9.057145"><ele>414.0</ele><time>2026-04-05T17:14:05.808Z</time></trkpt><trkpt lat="45.8102333" lon="9.0571067"><ele>410.3333333333333</ele><time>2026-04-05T17:14:06.808Z</time></trkpt><trkpt lat="45.810145" lon="9.0570733"><ele>406.66666666666663</ele><time>2026-04-05T17:14:07.808Z</time></trkpt><trkpt lat="45.810065" lon="9.0570417"><ele>403.0</ele><time>2026-04-05T17:14:08.808Z</time></trkpt><trkpt lat="45.8099883" lon="9.057005"><ele>399.3333333333333</ele><time>2026-04-05T17:14:09.808Z</time></trkpt><trkpt lat="45.8099117" lon="9.05696"><ele>395.66666666666663</ele><time>2026-04-05T17:14:10.808Z</time></trkpt><trkpt lat="45.809835" lon="9.0568867"><ele>392.0</ele><time>2026-04-05T17:14:11.808Z</time></trkpt><trkpt lat="45.8098117" lon="9.0567583"><ele>392.0</ele><time>2026-04-05T17:14:12.808Z</time></trkpt><trkpt lat="45.80981" lon="9.0566217"><ele>392.0</ele><time>2026-04-05T17:14:13.808Z</time></trkpt><trkpt lat="45.8098267" lon="9.0565"><ele>392.0</ele><time>2026-04-05T17:14:14.808Z</time></trkpt><trkpt lat="45.8098533" lon="9.05639"><ele>392.0</ele><time>2026-04-05T17:14:15.808Z</time></trkpt><trkpt lat="45.8099233" lon="9.0562517"><ele>392.0</ele><time>2026-04-05T17:14:16.809Z</time></trkpt><trkpt lat="45.8099917" lon="9.0561083"><ele>392.8</ele><time>2026-04-05T17:14:17.809Z</time></trkpt><trkpt lat="45.81002" lon="9.0559633"><ele>393.6</ele><time>2026-04-05T17:14:18.808Z</time></trkpt><trkpt lat="45.810005" lon="9.0558333"><ele>394.40000000000003</ele><time>2026-04-05T17:14:19.808Z</time></trkpt><trkpt lat="45.80994" lon="9.055685"><ele>395.20000000000005</ele><time>2026-04-05T17:14:20.809Z</time></trkpt><trkpt lat="45.8098933" lon="9.0555567"><ele>396.0</ele><time>2026-04-05T17:14:21.808Z</time></trkpt><trkpt lat="45.8098917" lon="9.0554233"><ele>397.1666666666667</ele><time>2026-04-05T17:14:22.808Z</time></trkpt><trkpt lat="45.8099" lon="9.05531"><ele>398.33333333333337</ele><time>2026-04-05T17:14:23.808Z</time></trkpt><trkpt lat="45.8099233" lon="9.055165"><ele>399.5</ele><time>2026-04-05T17:14:25.808Z</time></trkpt><trkpt lat="45.8099217" lon="9.0550317"><ele>400.6666666666667</ele><time>2026-04-05T17:14:28.808Z</time></trkpt><trkpt lat="45.8099217" lon="9.0549333"><ele>401.83333333333337</ele><time>2026-04-05T17:14:30.808Z</time></trkpt><trkpt lat="45.8099017" lon="9.0548133"><ele>403.0</ele><time>2026-04-05T17:14:32.809Z</time></trkpt><trkpt lat="45.8098667" lon="9.05462"><ele>404.25</ele><time>2026-04-05T17:14:34.808Z</time></trkpt><trkpt lat="45.8098283" lon="9.0544633"><ele>405.5</ele><time>2026-04-05T17:14:35.808Z</time></trkpt><trkpt lat="45.809785" lon="9.0542733"><ele>406.75</ele><time>2026-04-05T17:14:36.808Z</time></trkpt><trkpt lat="45.8097383" lon="9.0540767"><ele>408.0</ele><time>2026-04-05T17:14:37.809Z</time></trkpt><trkpt lat="45.8096867" lon="9.0538667"><ele>408.0</ele><time>2026-04-05T17:14:38.809Z</time></trkpt><trkpt lat="45.8096283" lon="9.0536633"><ele>408.0</ele><time>2026-04-05T17:14:39.809Z</time></trkpt><trkpt lat="45.8095767" lon="9.0534533"><ele>408.0</ele><time>2026-04-05T17:14:40.808Z</time></trkpt><trkpt lat="45.8095283" lon="9.05327"><ele>408.0</ele><time>2026-04-05T17:14:41.808Z</time></trkpt><trkpt lat="45.8094883" lon="9.0530983"><ele>407.59999999999997</ele><time>2026-04-05T17:14:42.808Z</time></trkpt><trkpt lat="45.8094483" lon="9.05295"><ele>407.2</ele><time>2026-04-05T17:14:43.808Z</time></trkpt><trkpt lat="45.809415" lon="9.0528017"><ele>406.8</ele><time>2026-04-05T17:14:44.809Z</time></trkpt><trkpt lat="45.80938" lon="9.0526633"><ele>406.4</ele><time>2026-04-05T17:14:45.808Z</time></trkpt><trkpt lat="45.8093483" lon="9.0525533"><ele>406.0</ele><time>2026-04-05T17:14:46.808Z</time></trkpt><trkpt lat="45.8093283" lon="9.0524617"><ele>404.8</ele><time>2026-04-05T17:14:47.808Z</time></trkpt><trkpt lat="45.80929" lon="9.0523267"><ele>403.6</ele><time>2026-04-05T17:14:49.808Z</time></trkpt><trkpt lat="45.8092433" lon="9.052185"><ele>402.4</ele><time>2026-04-05T17:14:51.809Z</time></trkpt><trkpt lat="45.8092117" lon="9.0520117"><ele>401.2</ele><time>2026-04-05T17:14:53.809Z</time></trkpt><trkpt lat="45.80919" lon="9.0519017"><ele>400.0</ele><time>2026-04-05T17:14:54.809Z</time></trkpt><trkpt lat="45.8091583" lon="9.0517683"><ele>400.0</ele><time>2026-04-05T17:14:55.809Z</time></trkpt><trkpt lat="45.8091017" lon="9.0516317"><ele>400.0</ele><time>2026-04-05T17:14:56.808Z</time></trkpt><trkpt lat="45.8090233" lon="9.0514967"><ele>400.0</ele><time>2026-04-05T17:14:57.808Z</time></trkpt><trkpt lat="45.8089233" lon="9.051365"><ele>400.0</ele><time>2026-04-05T17:14:58.808Z</time></trkpt><trkpt lat="45.8088117" lon="9.0512317"><ele>400.25</ele><time>2026-04-05T17:14:59.808Z</time></trkpt><trkpt lat="45.8087117" lon="9.05108"><ele>400.5</ele><time>2026-04-05T17:15:00.808Z</time></trkpt><trkpt lat="45.8086167" lon="9.05095"><ele>400.75</ele><time>2026-04-05T17:15:01.808Z</time></trkpt><trkpt lat="45.8085317" lon="9.0508333"><ele>401.0</ele><time>2026-04-05T17:15:02.809Z</time></trkpt><trkpt lat="45.8084567" lon="9.050715"><ele>401.0</ele><time>2026-04-05T17:15:03.808Z</time></trkpt><trkpt lat="45.8083933" lon="9.0505917"><ele>401.0</ele><time>2026-04-05T17:15:04.808Z</time></trkpt><trkpt lat="45.8083583" lon="9.05047"><ele>401.0</ele><time>2026-04-05T17:15:05.808Z</time></trkpt><trkpt lat="45.8083467" lon="9.05032"><ele>401.0</ele><time>2026-04-05T17:15:06.808Z</time></trkpt><trkpt lat="45.8083533" lon="9.0501783"><ele>401.0</ele><time>2026-04-05T17:15:07.808Z</time></trkpt><trkpt lat="45.80837" lon="9.0500467"><ele>400.8</ele><time>2026-04-05T17:15:08.808Z</time></trkpt><trkpt lat="45.8083983" lon="9.0499367"><ele>400.6</ele><time>2026-04-05T17:15:09.808Z</time></trkpt><trkpt lat="45.80842" lon="9.0498383"><ele>400.4</ele><time>2026-04-05T17:15:10.809Z</time></trkpt><trkpt lat="45.8084383" lon="9.0497467"><ele>400.2</ele><time>2026-04-05T17:15:11.808Z</time></trkpt><trkpt lat="45.80849" lon="9.0495833"><ele>400.0</ele><time>2026-04-05T17:15:13.809Z</time></trkpt><trkpt lat="45.8085383" lon="9.0494283"><ele>401.25</ele><time>2026-04-05T17:15:15.808Z</time></trkpt><trkpt lat="45.8085867" lon="9.04928"><ele>402.5</ele><time>2026-04-05T17:15:17.809Z</time></trkpt><trkpt lat="45.808625" lon="9.0491283"><ele>403.75</ele><time>2026-04-05T17:15:19.808Z</time></trkpt><trkpt lat="45.8086533" lon="9.0489633"><ele>405.0</ele><time>2026-04-05T17:15:21.808Z</time></trkpt><trkpt lat="45.8087" lon="9.048805"><ele>405.0</ele><time>2026-04-05T17:15:23.808Z</time></trkpt><trkpt lat="45.8087317" lon="9.048725"><ele>405.0</ele><time>2026-04-05T17:15:24.808Z</time></trkpt><trkpt lat="45.80877" lon="9.04865"><ele>405.0</ele><time>2026-04-05T17:15:25.808Z</time></trkpt><trkpt lat="45.80881" lon="9.04856"><ele>405.0</ele><time>2026-04-05T17:15:26.808Z</time></trkpt><trkpt lat="45.80887" lon="9.04845"><ele>405.0</ele><time>2026-04-05T17:15:27.808Z</time></trkpt><trkpt lat="45.80895" lon="9.0483083"><ele>405.0</ele><time>2026-04-05T17:15:28.809Z</time></trkpt><trkpt lat="45.80905" lon="9.04813"><ele>403.33333333333337</ele><time>2026-04-05T17:15:29.809Z</time></trkpt><trkpt lat="45.8091617" lon="9.047945"><ele>401.6666666666667</ele><time>2026-04-05T17:15:30.809Z</time></trkpt><trkpt lat="45.80926" lon="9.0477567"><ele>400.0</ele><time>2026-04-05T17:15:31.809Z</time></trkpt><trkpt lat="45.8093583" lon="9.0476033"><ele>398.5</ele><time>2026-04-05T17:15:32.808Z</time></trkpt><trkpt lat="45.809455" lon="9.0474567"><ele>397.0</ele><time>2026-04-05T17:15:33.808Z</time></trkpt><trkpt lat="45.809535" lon="9.0473083"><ele>395.5</ele><time>2026-04-05T17:15:34.808Z</time></trkpt><trkpt lat="45.80961" lon="9.0471767"><ele>394.0</ele><time>2026-04-05T17:15:35.808Z</time></trkpt><trkpt lat="45.8096883" lon="9.0470433"><ele>394.0</ele><time>2026-04-05T17:15:36.809Z</time></trkpt><trkpt lat="45.8097617" lon="9.0469183"><ele>394.0</ele><time>2026-04-05T17:15:37.809Z</time></trkpt><trkpt lat="45.809835" lon="9.0467883"><ele>394.0</ele><time>2026-04-05T17:15:38.808Z</time></trkpt><trkpt lat="45.8099117" lon="9.0466467"><ele>394.0</ele><time>2026-04-05T17:15:39.809Z</time></trkpt><trkpt lat="45.8100033" lon="9.0464817"><ele>394.33333333333337</ele><time>2026-04-05T17:15:40.808Z</time></trkpt><trkpt lat="45.810105" lon="9.0462933"><ele>394.66666666666663</ele><time>2026-04-05T17:15:41.808Z</time></trkpt><trkpt lat="45.8102067" lon="9.0460867"><ele>395.0</ele><time>2026-04-05T17:15:42.809Z</time></trkpt><trkpt lat="45.8103217" lon="9.0458783"><ele>394.66666666666663</ele><time>2026-04-05T17:15:43.808Z</time></trkpt><trkpt lat="45.8104333" lon="9.0456683"><ele>394.33333333333337</ele><time>2026-04-05T17:15:44.809Z</time></trkpt><trkpt lat="45.810545" lon="9.04546"><ele>394.0</ele><time>2026-04-05T17:15:45.808Z</time></trkpt><trkpt lat="45.8106483" lon="9.045265"><ele>394.0</ele><time>2026-04-05T17:15:46.808Z</time></trkpt><trkpt lat="45.8107383" lon="9.04508"><ele>394.0</ele><time>2026-04-05T17:15:47.808Z</time></trkpt><trkpt lat="45.8108183" lon="9.044925"><ele>394.0</ele><time>2026-04-05T17:15:48.809Z</time></trkpt><trkpt lat="45.8108933" lon="9.0447767"><ele>394.0</ele><time>2026-04-05T17:15:49.808Z</time></trkpt><trkpt lat="45.81096" lon="9.0446333"><ele>395.5</ele><time>2026-04-05T17:15:50.809Z</time></trkpt><trkpt lat="45.8110117" lon="9.0444833"><ele>397.0</ele><time>2026-04-05T17:15:51.808Z</time></trkpt><trkpt lat="45.811045" lon="9.044305"><ele>398.5</ele><time>2026-04-05T17:15:52.809Z</time></trkpt><trkpt lat="45.8110667" lon="9.0440983"><ele>400.0</ele><time>2026-04-05T17:15:53.808Z</time></trkpt><trkpt lat="45.8110717" lon="9.043885"><ele>400.75</ele><time>2026-04-05T17:15:54.808Z</time></trkpt><trkpt lat="45.8110883" lon="9.0437017"><ele>401.5</ele><time>2026-04-05T17:15:55.808Z</time></trkpt><trkpt lat="45.8110867" lon="9.0435183"><ele>402.25</ele><time>2026-04-05T17:15:56.808Z</time></trkpt><trkpt lat="45.8110733" lon="9.043355"><ele>403.0</ele><time>2026-04-05T17:15:57.808Z</time></trkpt><trkpt lat="45.8110283" lon="9.0431917"><ele>403.25</ele><time>2026-04-05T17:15:58.808Z</time></trkpt><trkpt lat="45.81096" lon="9.0430433"><ele>403.5</ele><time>2026-04-05T17:15:59.808Z</time></trkpt><trkpt lat="45.81086" lon="9.0428717"><ele>403.75</ele><time>2026-04-05T17:16:00.808Z</time></trkpt><trkpt lat="45.8107617" lon="9.0427233"><ele>404.0</ele><time>2026-04-05T17:16:01.808Z</time></trkpt><trkpt lat="45.81068" lon="9.0425817"><ele>404.4</ele><time>2026-04-05T17:16:02.809Z</time></trkpt><trkpt lat="45.810605" lon="9.0424517"><ele>404.79999999999995</ele><time>2026-04-05T17:16:03.809Z</time></trkpt><trkpt lat="45.810555" lon="9.0423183"><ele>405.20000000000005</ele><time>2026-04-05T17:16:04.808Z</time></trkpt><trkpt lat="45.8105233" lon="9.0421967"><ele>405.6</ele><time>2026-04-05T17:16:05.808Z</time></trkpt><trkpt lat="45.8105317" lon="9.0420333"><ele>406.0</ele><time>2026-04-05T17:16:06.808Z</time></trkpt><trkpt lat="45.8105783" lon="9.0418683"><ele>406.0</ele><time>2026-04-05T17:16:07.808Z</time></trkpt><trkpt lat="45.81065" lon="9.0416867"><ele>406.0</ele><time>2026-04-05T17:16:08.808Z</time></trkpt><trkpt lat="45.8107183" lon="9.0415"><ele>406.0</ele><time>2026-04-05T17:16:09.808Z</time></trkpt><trkpt lat="45.8107683" lon="9.0413333"><ele>406.0</ele><time>2026-04-05T17:16:10.808Z</time></trkpt><trkpt lat="45.8108283" lon="9.041155"><ele>404.0</ele><time>2026-04-05T17:16:11.808Z</time></trkpt><trkpt lat="45.8108783" lon="9.04097"><ele>402.0</ele><time>2026-04-05T17:16:12.808Z</time></trkpt><trkpt lat="45.8109333" lon="9.040795"><ele>400.0</ele><time>2026-04-05T17:16:13.808Z</time></trkpt><trkpt lat="45.8109667" lon="9.040605"><ele>398.0</ele><time>2026-04-05T17:16:14.809Z</time></trkpt><trkpt lat="45.8109733" lon="9.04042"><ele>398.0</ele><time>2026-04-05T17:16:15.808Z</time></trkpt><trkpt lat="45.8109467" lon="9.0402233"><ele>398.0</ele><time>2026-04-05T17:16:16.808Z</time></trkpt><trkpt lat="45.81089" lon="9.0400033"><ele>398.0</ele><time>2026-04-05T17:16:17.808Z</time></trkpt><trkpt lat="45.810835" lon="9.0398117"><ele>398.0</ele><time>2026-04-05T17:16:18.808Z</time></trkpt><trkpt lat="45.8107817" lon="9.039635"><ele>397.0</ele><time>2026-04-05T17:16:19.808Z</time></trkpt><trkpt lat="45.8107633" lon="9.03945"><ele>396.0</ele><time>2026-04-05T17:16:20.808Z</time></trkpt><trkpt lat="45.8107617" lon="9.0392833"><ele>395.0</ele><time>2026-04-05T17:16:21.809Z</time></trkpt><trkpt lat="45.810785" lon="9.0391167"><ele>394.0</ele><time>2026-04-05T17:16:22.808Z</time></trkpt><trkpt lat="45.8108183" lon="9.0389583"><ele>393.0</ele><time>2026-04-05T17:16:23.808Z</time></trkpt><trkpt lat="45.8108883" lon="9.0387983"><ele>392.0</ele><time>2026-04-05T17:16:24.808Z</time></trkpt><trkpt lat="45.81097" lon="9.038625"><ele>391.0</ele><time>2026-04-05T17:16:25.809Z</time></trkpt><trkpt lat="45.8110417" lon="9.0384683"><ele>390.0</ele><time>2026-04-05T17:16:26.808Z</time></trkpt><trkpt lat="45.8111083" lon="9.0383183"><ele>392.2</ele><time>2026-04-05T17:16:27.808Z</time></trkpt><trkpt lat="45.8111717" lon="9.0381883"><ele>394.4</ele><time>2026-04-05T17:16:28.808Z</time></trkpt><trkpt lat="45.8112367" lon="9.0380717"><ele>396.6</ele><time>2026-04-05T17:16:29.809Z</time></trkpt><trkpt lat="45.8112817" lon="9.03797"><ele>398.8</ele><time>2026-04-05T17:16:30.808Z</time></trkpt><trkpt lat="45.8113367" lon="9.0378617"><ele>401.0</ele><time>2026-04-05T17:16:31.808Z</time></trkpt><trkpt lat="45.8114017" lon="9.0377483"><ele>401.0</ele><time>2026-04-05T17:16:32.808Z</time></trkpt><trkpt lat="45.8114833" lon="9.0375917"><ele>401.0</ele><time>2026-04-05T17:16:33.808Z</time></trkpt><trkpt lat="45.8115767" lon="9.0374183"><ele>401.0</ele><time>2026-04-05T17:16:34.808Z</time></trkpt><trkpt lat="45.8116767" lon="9.0372383"><ele>401.0</ele><time>2026-04-05T17:16:35.808Z</time></trkpt><trkpt lat="45.8117883" lon="9.0370617"><ele>401.66666666666663</ele><time>2026-04-05T17:16:36.808Z</time></trkpt><trkpt lat="45.811905" lon="9.0368867"><ele>402.33333333333337</ele><time>2026-04-05T17:16:37.808Z</time></trkpt><trkpt lat="45.8120233" lon="9.0367267"><ele>403.0</ele><time>2026-04-05T17:16:38.808Z</time></trkpt><trkpt lat="45.8121383" lon="9.036575"><ele>399.6666666666667</ele><time>2026-04-05T17:16:39.808Z</time></trkpt><trkpt lat="45.812265" lon="9.0364117"><ele>396.33333333333337</ele><time>2026-04-05T17:16:40.809Z</time></trkpt><trkpt lat="45.812395" lon="9.0362367"><ele>393.0</ele><time>2026-04-05T17:16:41.808Z</time></trkpt><trkpt lat="45.8125167" lon="9.0360433"><ele>393.0</ele><time>2026-04-05T17:16:42.808Z</time></trkpt><trkpt lat="45.81263" lon="9.0358483"><ele>393.0</ele><time>2026-04-05T17:16:43.809Z</time></trkpt><trkpt lat="45.812735" lon="9.03565"><ele>393.0</ele><time>2026-04-05T17:16:44.809Z</time></trkpt><trkpt lat="45.8128417" lon="9.0354533"><ele>393.66666666666663</ele><time>2026-04-05T17:16:45.809Z</time></trkpt><trkpt lat="45.8129483" lon="9.0352417"><ele>394.3333333333333</ele><time>2026-04-05T17:16:46.808Z</time></trkpt><trkpt lat="45.8130517" lon="9.03504"><ele>395.0</ele><time>2026-04-05T17:16:47.808Z</time></trkpt><trkpt lat="45.8131517" lon="9.0348417"><ele>395.0</ele><time>2026-04-05T17:16:48.809Z</time></trkpt><trkpt lat="45.813255" lon="9.0346417"><ele>395.0</ele><time>2026-04-05T17:16:49.808Z</time></trkpt><trkpt lat="45.8133517" lon="9.0344383"><ele>395.0</ele><time>2026-04-05T17:16:50.808Z</time></trkpt><trkpt lat="45.8134567" lon="9.03424"><ele>397.66666666666663</ele><time>2026-04-05T17:16:51.808Z</time></trkpt><trkpt lat="45.8135617" lon="9.0340383"><ele>400.33333333333337</ele><time>2026-04-05T17:16:52.808Z</time></trkpt><trkpt lat="45.8136567" lon="9.0338483"><ele>403.0</ele><time>2026-04-05T17:16:53.808Z</time></trkpt><trkpt lat="45.8137467" lon="9.0336767"><ele>403.0</ele><time>2026-04-05T17:16:54.808Z</time></trkpt><trkpt lat="45.8138217" lon="9.0335033"><ele>403.0</ele><time>2026-04-05T17:16:55.808Z</time></trkpt><trkpt lat="45.8139017" lon="9.0333317"><ele>403.0</ele><time>2026-04-05T17:16:56.808Z</time></trkpt><trkpt lat="45.8139783" lon="9.0331617"><ele>403.0</ele><time>2026-04-05T17:16:57.808Z</time></trkpt><trkpt lat="45.8140517" lon="9.0329983"><ele>403.0</ele><time>2026-04-05T17:16:58.809Z</time></trkpt><trkpt lat="45.814125" lon="9.0328333"><ele>403.0</ele><time>2026-04-05T17:16:59.808Z</time></trkpt><trkpt lat="45.8141817" lon="9.0326833"><ele>403.0</ele><time>2026-04-05T17:17:00.808Z</time></trkpt><trkpt lat="45.814235" lon="9.0325367"><ele>403.0</ele><time>2026-04-05T17:17:01.808Z</time></trkpt><trkpt lat="45.814285" lon="9.0324067"><ele>404.2</ele><time>2026-04-05T17:17:02.808Z</time></trkpt><trkpt lat="45.8143433" lon="9.0322917"><ele>405.4</ele><time>2026-04-05T17:17:03.809Z</time></trkpt><trkpt lat="45.814405" lon="9.0321967"><ele>406.59999999999997</ele><time>2026-04-05T17:17:04.808Z</time></trkpt><trkpt lat="45.8144733" lon="9.0321283"><ele>407.79999999999995</ele><time>2026-04-05T17:17:05.808Z</time></trkpt><trkpt lat="45.8145567" lon="9.032065"><ele>409.0</ele><time>2026-04-05T17:17:06.808Z</time></trkpt><trkpt lat="45.8146533" lon="9.0320117"><ele>409.0</ele><time>2026-04-05T17:17:07.808Z</time></trkpt><trkpt lat="45.8147417" lon="9.03197"><ele>409.0</ele><time>2026-04-05T17:17:08.808Z</time></trkpt><trkpt lat="45.8148217" lon="9.031925"><ele>409.0</ele><time>2026-04-05T17:17:09.808Z</time></trkpt><trkpt lat="45.8149067" lon="9.0318583"><ele>409.0</ele><time>2026-04-05T17:17:10.808Z</time></trkpt><trkpt lat="45.8149717" lon="9.03175"><ele>409.0</ele><time>2026-04-05T17:17:11.808Z</time></trkpt><trkpt lat="45.8150233" lon="9.0316117"><ele>409.75</ele><time>2026-04-05T17:17:12.808Z</time></trkpt><trkpt lat="45.8150667" lon="9.03145"><ele>410.5</ele><time>2026-04-05T17:17:13.808Z</time></trkpt><trkpt lat="45.8150817" lon="9.0312867"><ele>411.25</ele><time>2026-04-05T17:17:14.808Z</time></trkpt><trkpt lat="45.8150617" lon="9.0311083"><ele>412.0</ele><time>2026-04-05T17:17:15.808Z</time></trkpt><trkpt lat="45.8150133" lon="9.0309217"><ele>414.33333333333337</ele><time>2026-04-05T17:17:16.809Z</time></trkpt><trkpt lat="45.8149433" lon="9.030715"><ele>416.66666666666663</ele><time>2026-04-05T17:17:17.809Z</time></trkpt><trkpt lat="45.8148533" lon="9.03049"><ele>419.0</ele><time>2026-04-05T17:17:18.808Z</time></trkpt><trkpt lat="45.8147817" lon="9.0302617"><ele>419.0</ele><time>2026-04-05T17:17:19.808Z</time></trkpt><trkpt lat="45.8147183" lon="9.0300433"><ele>419.0</ele><time>2026-04-05T17:17:20.809Z</time></trkpt><trkpt lat="45.8146583" lon="9.0298433"><ele>419.0</ele><time>2026-04-05T17:17:21.808Z</time></trkpt><trkpt lat="45.8145983" lon="9.02966"><ele>421.0</ele><time>2026-04-05T17:17:22.808Z</time></trkpt><trkpt lat="45.81454" lon="9.0294883"><ele>423.0</ele><time>2026-04-05T17:17:23.808Z</time></trkpt><trkpt lat="45.8145017" lon="9.029335"><ele>425.0</ele><time>2026-04-05T17:17:24.808Z</time></trkpt><trkpt lat="45.814465" lon="9.029185"><ele>427.0</ele><time>2026-04-05T17:17:25.808Z</time></trkpt><trkpt lat="45.814455" lon="9.0290267"><ele>427.5</ele><time>2026-04-05T17:17:26.808Z</time></trkpt><trkpt lat="45.8144633" lon="9.0288483"><ele>428.0</ele><time>2026-04-05T17:17:27.808Z</time></trkpt><trkpt lat="45.8144817" lon="9.0286817"><ele>428.5</ele><time>2026-04-05T17:17:28.808Z</time></trkpt><trkpt lat="45.8145167" lon="9.0285033"><ele>429.0</ele><time>2026-04-05T17:17:29.808Z</time></trkpt><trkpt lat="45.814565" lon="9.028305"><ele>429.0</ele><time>2026-04-05T17:17:30.808Z</time></trkpt><trkpt lat="45.814615" lon="9.0280933"><ele>429.0</ele><time>2026-04-05T17:17:31.808Z</time></trkpt><trkpt lat="45.8146733" lon="9.02788"><ele>429.0</ele><time>2026-04-05T17:17:32.808Z</time></trkpt><trkpt lat="45.8147167" lon="9.0276817"><ele>429.0</ele><time>2026-04-05T17:17:33.809Z</time></trkpt><trkpt lat="45.8147667" lon="9.027495"><ele>429.0</ele><time>2026-04-05T17:17:34.808Z</time></trkpt><trkpt lat="45.814805" lon="9.0273117"><ele>429.0</ele><time>2026-04-05T17:17:35.808Z</time></trkpt><trkpt lat="45.8148417" lon="9.0271467"><ele>429.0</ele><time>2026-04-05T17:17:36.808Z</time></trkpt><trkpt lat="45.8148717" lon="9.0269883"><ele>429.5</ele><time>2026-04-05T17:17:37.808Z</time></trkpt><trkpt lat="45.814875" lon="9.0268217"><ele>430.0</ele><time>2026-04-05T17:17:38.808Z</time></trkpt><trkpt lat="45.814845" lon="9.026625"><ele>430.5</ele><time>2026-04-05T17:17:39.808Z</time></trkpt><trkpt lat="45.8147733" lon="9.0264417"><ele>431.0</ele><time>2026-04-05T17:17:40.808Z</time></trkpt><trkpt lat="45.8146817" lon="9.0262783"><ele>432.5</ele><time>2026-04-05T17:17:41.809Z</time></trkpt><trkpt lat="45.8145933" lon="9.0261333"><ele>434.0</ele><time>2026-04-05T17:17:42.808Z</time></trkpt><trkpt lat="45.8145083" lon="9.0259733"><ele>435.5</ele><time>2026-04-05T17:17:43.808Z</time></trkpt><trkpt lat="45.8144383" lon="9.0257733"><ele>437.0</ele><time>2026-04-05T17:17:44.809Z</time></trkpt><trkpt lat="45.8143633" lon="9.025555"><ele>435.3333333333333</ele><time>2026-04-05T17:17:45.808Z</time></trkpt><trkpt lat="45.8142967" lon="9.0253317"><ele>433.66666666666663</ele><time>2026-04-05T17:17:46.809Z</time></trkpt><trkpt lat="45.8142317" lon="9.02514"><ele>432.0</ele><time>2026-04-05T17:17:47.808Z</time></trkpt><trkpt lat="45.81416" lon="9.0249683"><ele>438.33333333333337</ele><time>2026-04-05T17:17:48.808Z</time></trkpt><trkpt lat="45.814065" lon="9.0248283"><ele>444.6666666666667</ele><time>2026-04-05T17:17:49.808Z</time></trkpt><trkpt lat="45.81394" lon="9.0246933"><ele>451.0</ele><time>2026-04-05T17:17:50.808Z</time></trkpt><trkpt lat="45.8137983" lon="9.0245633"><ele>451.0</ele><time>2026-04-05T17:17:51.808Z</time></trkpt><trkpt lat="45.8136567" lon="9.0244583"><ele>451.0</ele><time>2026-04-05T17:17:52.808Z</time></trkpt><trkpt lat="45.8135267" lon="9.0243617"><ele>451.0</ele><time>2026-04-05T17:17:53.808Z</time></trkpt><trkpt lat="45.8134067" lon="9.0242683"><ele>451.0</ele><time>2026-04-05T17:17:54.808Z</time></trkpt><trkpt lat="45.8132967" lon="9.0241617"><ele>451.0</ele><time>2026-04-05T17:17:55.808Z</time></trkpt><trkpt lat="45.8131867" lon="9.0240517"><ele>451.0</ele><time>2026-04-05T17:17:56.808Z</time></trkpt><trkpt lat="45.813085" lon="9.023935"><ele>451.0</ele><time>2026-04-05T17:17:57.808Z</time></trkpt><trkpt lat="45.8130067" lon="9.0238033"><ele>451.0</ele><time>2026-04-05T17:17:58.808Z</time></trkpt><trkpt lat="45.8129433" lon="9.0236517"><ele>451.0</ele><time>2026-04-05T17:17:59.809Z</time></trkpt><trkpt lat="45.81289" lon="9.023475"><ele>451.0</ele><time>2026-04-05T17:18:00.809Z</time></trkpt><trkpt lat="45.8128367" lon="9.0232933"><ele>451.0</ele><time>2026-04-05T17:18:01.808Z</time></trkpt><trkpt lat="45.8127867" lon="9.0231133"><ele>451.0</ele><time>2026-04-05T17:18:02.808Z</time></trkpt><trkpt lat="45.8127417" lon="9.0229333"><ele>451.75</ele><time>2026-04-05T17:18:03.808Z</time></trkpt><trkpt lat="45.8126933" lon="9.02274"><ele>452.5</ele><time>2026-04-05T17:18:04.809Z</time></trkpt><trkpt lat="45.8126467" lon="9.0225333"><ele>453.25</ele><time>2026-04-05T17:18:05.808Z</time></trkpt><trkpt lat="45.8125917" lon="9.0223333"><ele>454.0</ele><time>2026-04-05T17:18:06.808Z</time></trkpt><trkpt lat="45.8125333" lon="9.022145"><ele>450.5</ele><time>2026-04-05T17:18:07.809Z</time></trkpt><trkpt lat="45.8124833" lon="9.021965"><ele>447.0</ele><time>2026-04-05T17:18:08.808Z</time></trkpt><trkpt lat="45.8124467" lon="9.0218017"><ele>443.5</ele><time>2026-04-05T17:18:09.808Z</time></trkpt><trkpt lat="45.8124133" lon="9.0216433"><ele>440.0</ele><time>2026-04-05T17:18:10.808Z</time></trkpt><trkpt lat="45.8123967" lon="9.0214717"><ele>439.25</ele><time>2026-04-05T17:18:11.809Z</time></trkpt><trkpt lat="45.8123817" lon="9.0213083"><ele>438.5</ele><time>2026-04-05T17:18:12.808Z</time></trkpt><trkpt lat="45.8123683" lon="9.0211333"><ele>437.75</ele><time>2026-04-05T17:18:13.808Z</time></trkpt><trkpt lat="45.812355" lon="9.0209483"><ele>437.0</ele><time>2026-04-05T17:18:14.809Z</time></trkpt><trkpt lat="45.81234" lon="9.0207333"><ele>436.5</ele><time>2026-04-05T17:18:15.808Z</time></trkpt><trkpt lat="45.8123283" lon="9.0205183"><ele>436.0</ele><time>2026-04-05T17:18:16.808Z</time></trkpt><trkpt lat="45.812315" lon="9.0203267"><ele>435.5</ele><time>2026-04-05T17:18:17.808Z</time></trkpt><trkpt lat="45.8123017" lon="9.02014"><ele>435.0</ele><time>2026-04-05T17:18:18.809Z</time></trkpt><trkpt lat="45.8122917" lon="9.019935"><ele>434.0</ele><time>2026-04-05T17:18:19.809Z</time></trkpt><trkpt lat="45.8122817" lon="9.0197267"><ele>433.0</ele><time>2026-04-05T17:18:20.808Z</time></trkpt><trkpt lat="45.8122733" lon="9.0195217"><ele>432.0</ele><time>2026-04-05T17:18:21.808Z</time></trkpt><trkpt lat="45.8122583" lon="9.0193233"><ele>431.0</ele><time>2026-04-05T17:18:22.808Z</time></trkpt><trkpt lat="45.812245" lon="9.0191317"><ele>430.25</ele><time>2026-04-05T17:18:23.809Z</time></trkpt><trkpt lat="45.8122333" lon="9.0189417"><ele>429.5</ele><time>2026-04-05T17:18:24.809Z</time></trkpt><trkpt lat="45.8122317" lon="9.01877"><ele>428.75</ele><time>2026-04-05T17:18:25.808Z</time></trkpt><trkpt lat="45.81224" lon="9.0186117"><ele>428.0</ele><time>2026-04-05T17:18:26.808Z</time></trkpt><trkpt lat="45.8122733" lon="9.0184683"><ele>428.0</ele><time>2026-04-05T17:18:27.808Z</time></trkpt><trkpt lat="45.8123033" lon="9.0183317"><ele>427.99999999999994</ele><time>2026-04-05T17:18:28.808Z</time></trkpt><trkpt lat="45.812325" lon="9.01821"><ele>427.99999999999994</ele><time>2026-04-05T17:18:29.808Z</time></trkpt><trkpt lat="45.81232" lon="9.018095"><ele>428.0</ele><time>2026-04-05T17:18:30.808Z</time></trkpt><trkpt lat="45.8122767" lon="9.017985"><ele>428.0</ele><time>2026-04-05T17:18:31.808Z</time></trkpt><trkpt lat="45.8122133" lon="9.0178717"><ele>427.5</ele><time>2026-04-05T17:18:32.808Z</time></trkpt><trkpt lat="45.81217" lon="9.01774"><ele>427.0</ele><time>2026-04-05T17:18:33.808Z</time></trkpt><trkpt lat="45.8121483" lon="9.017565"><ele>426.5</ele><time>2026-04-05T17:18:34.808Z</time></trkpt><trkpt lat="45.8121467" lon="9.0173483"><ele>426.0</ele><time>2026-04-05T17:18:35.808Z</time></trkpt><trkpt lat="45.812135" lon="9.0171383"><ele>426.0</ele><time>2026-04-05T17:18:36.808Z</time></trkpt><trkpt lat="45.81212" lon="9.0169217"><ele>426.0</ele><time>2026-04-05T17:18:37.809Z</time></trkpt><trkpt lat="45.8121083" lon="9.0167133"><ele>426.0</ele><time>2026-04-05T17:18:38.809Z</time></trkpt><trkpt lat="45.8120883" lon="9.0164967"><ele>426.0</ele><time>2026-04-05T17:18:39.809Z</time></trkpt><trkpt lat="45.8120667" lon="9.01626"><ele>426.0</ele><time>2026-04-05T17:18:40.809Z</time></trkpt><trkpt lat="45.81205" lon="9.0160183"><ele>426.0</ele><time>2026-04-05T17:18:41.808Z</time></trkpt><trkpt lat="45.8120283" lon="9.0157717"><ele>426.33333333333337</ele><time>2026-04-05T17:18:42.808Z</time></trkpt><trkpt lat="45.812005" lon="9.01553"><ele>426.6666666666667</ele><time>2026-04-05T17:18:43.808Z</time></trkpt><trkpt lat="45.8119783" lon="9.0152917"><ele>427.0</ele><time>2026-04-05T17:18:44.808Z</time></trkpt><trkpt lat="45.8119533" lon="9.0150783"><ele>427.5</ele><time>2026-04-05T17:18:45.808Z</time></trkpt><trkpt lat="45.8119217" lon="9.0148733"><ele>428.0</ele><time>2026-04-05T17:18:46.809Z</time></trkpt><trkpt lat="45.81189" lon="9.0146683"><ele>428.5</ele><time>2026-04-05T17:18:47.809Z</time></trkpt><trkpt lat="45.8118583" lon="9.01446"><ele>429.0</ele><time>2026-04-05T17:18:48.809Z</time></trkpt><trkpt lat="45.8118183" lon="9.0142633"><ele>427.0</ele><time>2026-04-05T17:18:49.808Z</time></trkpt><trkpt lat="45.8117717" lon="9.0140833"><ele>425.0</ele><time>2026-04-05T17:18:50.808Z</time></trkpt><trkpt lat="45.811715" lon="9.01392"><ele>423.0</ele><time>2026-04-05T17:18:51.808Z</time></trkpt><trkpt lat="45.8116617" lon="9.0137683"><ele>421.0</ele><time>2026-04-05T17:18:52.808Z</time></trkpt><trkpt lat="45.811615" lon="9.0136283"><ele>421.0</ele><time>2026-04-05T17:18:53.808Z</time></trkpt><trkpt lat="45.8115733" lon="9.0135033"><ele>421.0</ele><time>2026-04-05T17:18:54.809Z</time></trkpt><trkpt lat="45.811535" lon="9.0133683"><ele>421.0</ele><time>2026-04-05T17:18:55.808Z</time></trkpt><trkpt lat="45.8114617" lon="9.0132717"><ele>421.0</ele><time>2026-04-05T17:18:56.808Z</time></trkpt><trkpt lat="45.8113683" lon="9.0132033"><ele>421.0</ele><time>2026-04-05T17:18:57.808Z</time></trkpt><trkpt lat="45.8112683" lon="9.013125"><ele>421.0</ele><time>2026-04-05T17:18:58.808Z</time></trkpt><trkpt lat="45.8111717" lon="9.0130067"><ele>421.0</ele><time>2026-04-05T17:18:59.809Z</time></trkpt><trkpt lat="45.81106" lon="9.012845"><ele>421.0</ele><time>2026-04-05T17:19:00.809Z</time></trkpt><trkpt lat="45.8109417" lon="9.0126633"><ele>418.6666666666667</ele><time>2026-04-05T17:19:01.808Z</time></trkpt><trkpt lat="45.8108217" lon="9.0124883"><ele>416.33333333333337</ele><time>2026-04-05T17:19:02.808Z</time></trkpt><trkpt lat="45.810705" lon="9.012305"><ele>414.0</ele><time>2026-04-05T17:19:03.809Z</time></trkpt><trkpt lat="45.8105883" lon="9.0121483"><ele>414.0</ele><time>2026-04-05T17:19:04.808Z</time></trkpt><trkpt lat="45.8104817" lon="9.011985"><ele>414.0</ele><time>2026-04-05T17:19:05.808Z</time></trkpt><trkpt lat="45.8103917" lon="9.0118167"><ele>414.0</ele><time>2026-04-05T17:19:06.808Z</time></trkpt><trkpt lat="45.8103217" lon="9.01164"><ele>414.0</ele><time>2026-04-05T17:19:07.808Z</time></trkpt><trkpt lat="45.8102717" lon="9.011455"><ele>414.0</ele><time>2026-04-05T17:19:08.808Z</time></trkpt><trkpt lat="45.8102317" lon="9.0112767"><ele>414.0</ele><time>2026-04-05T17:19:09.808Z</time></trkpt><trkpt lat="45.8102067" lon="9.011085"><ele>414.0</ele><time>2026-04-05T17:19:10.808Z</time></trkpt><trkpt lat="45.8101883" lon="9.01089"><ele>414.0</ele><time>2026-04-05T17:19:11.808Z</time></trkpt><trkpt lat="45.81019" lon="9.01068"><ele>414.25</ele><time>2026-04-05T17:19:12.808Z</time></trkpt><trkpt lat="45.8102133" lon="9.010465"><ele>414.5</ele><time>2026-04-05T17:19:13.808Z</time></trkpt><trkpt lat="45.810245" lon="9.01026"><ele>414.75</ele><time>2026-04-05T17:19:14.809Z</time></trkpt><trkpt lat="45.8102783" lon="9.0100617"><ele>415.0</ele><time>2026-04-05T17:19:15.808Z</time></trkpt><trkpt lat="45.8103083" lon="9.0098783"><ele>415.0</ele><time>2026-04-05T17:19:16.808Z</time></trkpt><trkpt lat="45.8103233" lon="9.0096933"><ele>415.0</ele><time>2026-04-05T17:19:17.809Z</time></trkpt><trkpt lat="45.810335" lon="9.0095033"><ele>415.0</ele><time>2026-04-05T17:19:18.808Z</time></trkpt><trkpt lat="45.81034" lon="9.0093117"><ele>415.0</ele><time>2026-04-05T17:19:19.808Z</time></trkpt><trkpt lat="45.8103383" lon="9.009105"><ele>415.0</ele><time>2026-04-05T17:19:20.808Z</time></trkpt><trkpt lat="45.81032" lon="9.0089067"><ele>415.0</ele><time>2026-04-05T17:19:21.809Z</time></trkpt><trkpt lat="45.8102917" lon="9.0087233"><ele>415.0</ele><time>2026-04-05T17:19:22.808Z</time></trkpt><trkpt lat="45.8102517" lon="9.0085483"><ele>415.0</ele><time>2026-04-05T17:19:23.808Z</time></trkpt><trkpt lat="45.810195" lon="9.0083817"><ele>413.25</ele><time>2026-04-05T17:19:24.808Z</time></trkpt><trkpt lat="45.8101233" lon="9.008205"><ele>411.5</ele><time>2026-04-05T17:19:25.809Z</time></trkpt><trkpt lat="45.81004" lon="9.00805"><ele>409.75</ele><time>2026-04-05T17:19:26.808Z</time></trkpt><trkpt lat="45.80995" lon="9.0078917"><ele>408.0</ele><time>2026-04-05T17:19:27.808Z</time></trkpt><trkpt lat="45.8098283" lon="9.00774"><ele>408.0</ele><time>2026-04-05T17:19:28.808Z</time></trkpt><trkpt lat="45.8096983" lon="9.0075983"><ele>408.0</ele><time>2026-04-05T17:19:29.809Z</time></trkpt><trkpt lat="45.8095667" lon="9.00748"><ele>408.0</ele><time>2026-04-05T17:19:30.808Z</time></trkpt><trkpt lat="45.80946" lon="9.0073667"><ele>408.25</ele><time>2026-04-05T17:19:31.808Z</time></trkpt><trkpt lat="45.8093633" lon="9.0072567"><ele>408.5</ele><time>2026-04-05T17:19:32.809Z</time></trkpt><trkpt lat="45.809285" lon="9.0071317"><ele>408.75</ele><time>2026-04-05T17:19:33.808Z</time></trkpt><trkpt lat="45.8092167" lon="9.0069833"><ele>409.0</ele><time>2026-04-05T17:19:34.809Z</time></trkpt><trkpt lat="45.8091617" lon="9.0068083"><ele>405.5</ele><time>2026-04-05T17:19:35.808Z</time></trkpt><trkpt lat="45.809125" lon="9.006645"><ele>402.0</ele><time>2026-04-05T17:19:36.808Z</time></trkpt><trkpt lat="45.80911" lon="9.00647"><ele>398.5</ele><time>2026-04-05T17:19:37.809Z</time></trkpt><trkpt lat="45.8091083" lon="9.0062983"><ele>395.0</ele><time>2026-04-05T17:19:38.808Z</time></trkpt><trkpt lat="45.8091167" lon="9.0061383"><ele>395.0</ele><time>2026-04-05T17:19:39.808Z</time></trkpt><trkpt lat="45.809145" lon="9.0059833"><ele>395.0</ele><time>2026-04-05T17:19:40.808Z</time></trkpt><trkpt lat="45.8091767" lon="9.0058217"><ele>395.0</ele><time>2026-04-05T17:19:41.808Z</time></trkpt><trkpt lat="45.8092033" lon="9.00567"><ele>395.0</ele><time>2026-04-05T17:19:42.808Z</time></trkpt><trkpt lat="45.8092317" lon="9.0055117"><ele>395.0</ele><time>2026-04-05T17:19:43.808Z</time></trkpt><trkpt lat="45.8092617" lon="9.0053333"><ele>395.0</ele><time>2026-04-05T17:19:44.808Z</time></trkpt><trkpt lat="45.8092933" lon="9.0051583"><ele>395.0</ele><time>2026-04-05T17:19:45.808Z</time></trkpt><trkpt lat="45.8093233" lon="9.0049983"><ele>395.0</ele><time>2026-04-05T17:19:46.808Z</time></trkpt><trkpt lat="45.80935" lon="9.004845"><ele>395.0</ele><time>2026-04-05T17:19:47.809Z</time></trkpt><trkpt lat="45.8093783" lon="9.0046967"><ele>395.0</ele><time>2026-04-05T17:19:48.808Z</time></trkpt><trkpt lat="45.8094033" lon="9.00455"><ele>395.0</ele><time>2026-04-05T17:19:49.809Z</time></trkpt><trkpt lat="45.8094283" lon="9.0044217"><ele>395.0</ele><time>2026-04-05T17:19:50.808Z</time></trkpt><trkpt lat="45.8094533" lon="9.0043017"><ele>395.0</ele><time>2026-04-05T17:19:51.809Z</time></trkpt><trkpt lat="45.8094767" lon="9.00419"><ele>393.8333333333333</ele><time>2026-04-05T17:19:52.809Z</time></trkpt><trkpt lat="45.8095017" lon="9.0040967"><ele>392.66666666666663</ele><time>2026-04-05T17:19:53.809Z</time></trkpt><trkpt lat="45.8095283" lon="9.0040083"><ele>391.5</ele><time>2026-04-05T17:19:54.808Z</time></trkpt><trkpt lat="45.8095617" lon="9.00393"><ele>390.33333333333337</ele><time>2026-04-05T17:19:55.808Z</time></trkpt><trkpt lat="45.8096083" lon="9.00378"><ele>389.1666666666667</ele><time>2026-04-05T17:19:57.808Z</time></trkpt><trkpt lat="45.8096167" lon="9.0036767"><ele>388.0</ele><time>2026-04-05T17:19:58.808Z</time></trkpt><trkpt lat="45.8096" lon="9.003565"><ele>388.0</ele><time>2026-04-05T17:19:59.808Z</time></trkpt><trkpt lat="45.80955" lon="9.00345"><ele>388.0</ele><time>2026-04-05T17:20:00.809Z</time></trkpt><trkpt lat="45.80948" lon="9.003325"><ele>388.0</ele><time>2026-04-05T17:20:01.808Z</time></trkpt><trkpt lat="45.80941" lon="9.0031883"><ele>388.0</ele><time>2026-04-05T17:20:02.808Z</time></trkpt><trkpt lat="45.809345" lon="9.00304"><ele>388.0</ele><time>2026-04-05T17:20:03.809Z</time></trkpt><trkpt lat="45.80928" lon="9.0028917"><ele>389.0</ele><time>2026-04-05T17:20:04.808Z</time></trkpt><trkpt lat="45.8092033" lon="9.00274"><ele>390.0</ele><time>2026-04-05T17:20:05.808Z</time></trkpt><trkpt lat="45.80913" lon="9.002605"><ele>391.0</ele><time>2026-04-05T17:20:06.808Z</time></trkpt><trkpt lat="45.809055" lon="9.0024883"><ele>392.0</ele><time>2026-04-05T17:20:07.808Z</time></trkpt><trkpt lat="45.8089767" lon="9.0023717"><ele>392.75</ele><time>2026-04-05T17:20:08.809Z</time></trkpt><trkpt lat="45.8088883" lon="9.0022567"><ele>393.5</ele><time>2026-04-05T17:20:09.808Z</time></trkpt><trkpt lat="45.8087917" lon="9.00215"><ele>394.25</ele><time>2026-04-05T17:20:10.808Z</time></trkpt><trkpt lat="45.8086917" lon="9.0020633"><ele>395.0</ele><time>2026-04-05T17:20:11.808Z</time></trkpt><trkpt lat="45.8085933" lon="9.001985"><ele>395.0</ele><time>2026-04-05T17:20:12.809Z</time></trkpt><trkpt lat="45.8085017" lon="9.00191"><ele>395.0</ele><time>2026-04-05T17:20:13.808Z</time></trkpt><trkpt lat="45.8084117" lon="9.0018417"><ele>395.0</ele><time>2026-04-05T17:20:14.808Z</time></trkpt><trkpt lat="45.808315" lon="9.0017767"><ele>395.0</ele><time>2026-04-05T17:20:15.808Z</time></trkpt><trkpt lat="45.8082167" lon="9.001705"><ele>395.0</ele><time>2026-04-05T17:20:16.808Z</time></trkpt><trkpt lat="45.808115" lon="9.00163"><ele>394.75</ele><time>2026-04-05T17:20:17.808Z</time></trkpt><trkpt lat="45.808" lon="9.0015667"><ele>394.5</ele><time>2026-04-05T17:20:18.809Z</time></trkpt><trkpt lat="45.807875" lon="9.0015033"><ele>394.25</ele><time>2026-04-05T17:20:19.808Z</time></trkpt><trkpt lat="45.8077483" lon="9.0014433"><ele>394.0</ele><time>2026-04-05T17:20:20.808Z</time></trkpt><trkpt lat="45.8076333" lon="9.0013933"><ele>392.75</ele><time>2026-04-05T17:20:21.808Z</time></trkpt><trkpt lat="45.80752" lon="9.00134"><ele>391.5</ele><time>2026-04-05T17:20:22.808Z</time></trkpt><trkpt lat="45.8074" lon="9.0012817"><ele>390.25</ele><time>2026-04-05T17:20:23.808Z</time></trkpt><trkpt lat="45.80727" lon="9.0012183"><ele>389.0</ele><time>2026-04-05T17:20:24.808Z</time></trkpt><trkpt lat="45.8071383" lon="9.0011517"><ele>389.0</ele><time>2026-04-05T17:20:25.808Z</time></trkpt><trkpt lat="45.807" lon="9.0010867"><ele>389.0</ele><time>2026-04-05T17:20:26.808Z</time></trkpt><trkpt lat="45.806865" lon="9.0010283"><ele>389.0</ele><time>2026-04-05T17:20:27.808Z</time></trkpt><trkpt lat="45.80673" lon="9.000965"><ele>389.0</ele><time>2026-04-05T17:20:28.808Z</time></trkpt><trkpt lat="45.806595" lon="9.0009"><ele>388.25</ele><time>2026-04-05T17:20:29.808Z</time></trkpt><trkpt lat="45.8064533" lon="9.0008367"><ele>387.5</ele><time>2026-04-05T17:20:30.808Z</time></trkpt><trkpt lat="45.8063083" lon="9.0007717"><ele>386.75</ele><time>2026-04-05T17:20:31.809Z</time></trkpt><trkpt lat="45.8061717" lon="9.00071"><ele>386.0</ele><time>2026-04-05T17:20:32.808Z</time></trkpt><trkpt lat="45.8060483" lon="9.0006467"><ele>384.75</ele><time>2026-04-05T17:20:33.809Z</time></trkpt><trkpt lat="45.805915" lon="9.0005917"><ele>383.5</ele><time>2026-04-05T17:20:34.808Z</time></trkpt><trkpt lat="45.8057867" lon="9.0005283"><ele>382.25</ele><time>2026-04-05T17:20:35.808Z</time></trkpt><trkpt lat="45.805665" lon="9.0004617"><ele>381.0</ele><time>2026-04-05T17:20:36.808Z</time></trkpt><trkpt lat="45.8055417" lon="9.0003983"><ele>381.0</ele><time>2026-04-05T17:20:37.808Z</time></trkpt><trkpt lat="45.8054083" lon="9.0003267"><ele>381.0</ele><time>2026-04-05T17:20:38.808Z</time></trkpt><trkpt lat="45.8052667" lon="9.00026"><ele>381.0</ele><time>2026-04-05T17:20:39.808Z</time></trkpt><trkpt lat="45.805125" lon="9.0001983"><ele>381.0</ele><time>2026-04-05T17:20:40.808Z</time></trkpt><trkpt lat="45.80499" lon="9.0001283"><ele>381.5</ele><time>2026-04-05T17:20:41.808Z</time></trkpt><trkpt lat="45.8048633" lon="9.0000633"><ele>382.0</ele><time>2026-04-05T17:20:42.808Z</time></trkpt><trkpt lat="45.8047433" lon="9.0"><ele>382.5</ele><time>2026-04-05T17:20:43.808Z</time></trkpt><trkpt lat="45.8046267" lon="8.9999283"><ele>383.0</ele><time>2026-04-05T17:20:44.808Z</time></trkpt><trkpt lat="45.8045217" lon="8.9998467"><ele>383.0</ele><time>2026-04-05T17:20:45.808Z</time></trkpt><trkpt lat="45.8044217" lon="8.999765"><ele>383.0</ele><time>2026-04-05T17:20:46.808Z</time></trkpt><trkpt lat="45.8043467" lon="8.9996833"><ele>383.0</ele><time>2026-04-05T17:20:47.808Z</time></trkpt><trkpt lat="45.8043" lon="8.9996017"><ele>383.0</ele><time>2026-04-05T17:20:48.808Z</time></trkpt><trkpt lat="45.804245" lon="8.9994367"><ele>383.0</ele><time>2026-04-05T17:20:50.808Z</time></trkpt><trkpt lat="45.8042083" lon="8.9993383"><ele>383.5</ele><time>2026-04-05T17:20:51.808Z</time></trkpt><trkpt lat="45.8041633" lon="8.9992383"><ele>384.0</ele><time>2026-04-05T17:20:52.808Z</time></trkpt><trkpt lat="45.8041" lon="8.9991133"><ele>384.5</ele><time>2026-04-05T17:20:53.809Z</time></trkpt><trkpt lat="45.804025" lon="8.9989533"><ele>385.0</ele><time>2026-04-05T17:20:54.808Z</time></trkpt><trkpt lat="45.8039417" lon="8.9987583"><ele>382.75</ele><time>2026-04-05T17:20:55.808Z</time></trkpt><trkpt lat="45.803865" lon="8.9985633"><ele>380.5</ele><time>2026-04-05T17:20:56.808Z</time></trkpt><trkpt lat="45.8037933" lon="8.9983933"><ele>378.25</ele><time>2026-04-05T17:20:57.809Z</time></trkpt><trkpt lat="45.8037233" lon="8.998235"><ele>376.0</ele><time>2026-04-05T17:20:58.808Z</time></trkpt><trkpt lat="45.803665" lon="8.9980917"><ele>376.0</ele><time>2026-04-05T17:20:59.809Z</time></trkpt><trkpt lat="45.80361" lon="8.9979567"><ele>376.0</ele><time>2026-04-05T17:21:00.808Z</time></trkpt><trkpt lat="45.8035567" lon="8.99782"><ele>376.0</ele><time>2026-04-05T17:21:01.808Z</time></trkpt><trkpt lat="45.8035017" lon="8.997675"><ele>376.0</ele><time>2026-04-05T17:21:02.809Z</time></trkpt><trkpt lat="45.8034433" lon="8.9975433"><ele>376.0</ele><time>2026-04-05T17:21:03.808Z</time></trkpt><trkpt lat="45.803385" lon="8.9974133"><ele>377.16666666666663</ele><time>2026-04-05T17:21:04.808Z</time></trkpt><trkpt lat="45.80333" lon="8.9972867"><ele>378.3333333333333</ele><time>2026-04-05T17:21:05.808Z</time></trkpt><trkpt lat="45.8032867" lon="8.99718"><ele>379.5</ele><time>2026-04-05T17:21:06.808Z</time></trkpt><trkpt lat="45.8032417" lon="8.9970833"><ele>380.6666666666667</ele><time>2026-04-05T17:21:07.808Z</time></trkpt><trkpt lat="45.8031983" lon="8.9969917"><ele>381.83333333333337</ele><time>2026-04-05T17:21:08.808Z</time></trkpt><trkpt lat="45.8031567" lon="8.9969067"><ele>383.0</ele><time>2026-04-05T17:21:09.808Z</time></trkpt><trkpt lat="45.8031167" lon="8.9968217"><ele>383.0</ele><time>2026-04-05T17:21:10.809Z</time></trkpt><trkpt lat="45.8030533" lon="8.9966833"><ele>383.0</ele><time>2026-04-05T17:21:12.808Z</time></trkpt><trkpt lat="45.80299" lon="8.9965633"><ele>383.0</ele><time>2026-04-05T17:21:15.808Z</time></trkpt><trkpt lat="45.80294" lon="8.9964367"><ele>383.0</ele><time>2026-04-05T17:21:18.809Z</time></trkpt><trkpt lat="45.8028833" lon="8.9962983"><ele>383.0</ele><time>2026-04-05T17:21:20.809Z</time></trkpt><trkpt lat="45.8028367" lon="8.996215"><ele>383.5</ele><time>2026-04-05T17:21:21.808Z</time></trkpt><trkpt lat="45.802775" lon="8.9961067"><ele>384.0</ele><time>2026-04-05T17:21:22.808Z</time></trkpt><trkpt lat="45.8027117" lon="8.995965"><ele>384.5</ele><time>2026-04-05T17:21:23.808Z</time></trkpt><trkpt lat="45.802655" lon="8.995805"><ele>385.0</ele><time>2026-04-05T17:21:24.808Z</time></trkpt><trkpt lat="45.8026067" lon="8.9956217"><ele>386.0</ele><time>2026-04-05T17:21:25.809Z</time></trkpt><trkpt lat="45.8025417" lon="8.99545"><ele>387.0</ele><time>2026-04-05T17:21:26.808Z</time></trkpt><trkpt lat="45.802475" lon="8.9952883"><ele>388.0</ele><time>2026-04-05T17:21:27.809Z</time></trkpt><trkpt lat="45.8024" lon="8.9951233"><ele>389.0</ele><time>2026-04-05T17:21:28.808Z</time></trkpt><trkpt lat="45.8023167" lon="8.9949617"><ele>391.66666666666663</ele><time>2026-04-05T17:21:29.808Z</time></trkpt><trkpt lat="45.802215" lon="8.994785"><ele>394.33333333333337</ele><time>2026-04-05T17:21:30.808Z</time></trkpt><trkpt lat="45.8021083" lon="8.9945817"><ele>397.0</ele><time>2026-04-05T17:21:31.809Z</time></trkpt><trkpt lat="45.802005" lon="8.994385"><ele>397.0</ele><time>2026-04-05T17:21:32.809Z</time></trkpt><trkpt lat="45.8019117" lon="8.994195"><ele>397.0</ele><time>2026-04-05T17:21:33.809Z</time></trkpt><trkpt lat="45.8018183" lon="8.9940117"><ele>397.0</ele><time>2026-04-05T17:21:34.808Z</time></trkpt><trkpt lat="45.801725" lon="8.9938383"><ele>397.25</ele><time>2026-04-05T17:21:35.808Z</time></trkpt><trkpt lat="45.8016417" lon="8.9936683"><ele>397.5</ele><time>2026-04-05T17:21:36.808Z</time></trkpt><trkpt lat="45.8015633" lon="8.9934983"><ele>397.75</ele><time>2026-04-05T17:21:37.808Z</time></trkpt><trkpt lat="45.801475" lon="8.993345"><ele>398.0</ele><time>2026-04-05T17:21:38.808Z</time></trkpt><trkpt lat="45.80139" lon="8.9931917"><ele>397.3333333333333</ele><time>2026-04-05T17:21:39.808Z</time></trkpt><trkpt lat="45.801295" lon="8.9930183"><ele>396.66666666666663</ele><time>2026-04-05T17:21:40.808Z</time></trkpt><trkpt lat="45.8011867" lon="8.9928433"><ele>396.0</ele><time>2026-04-05T17:21:41.808Z</time></trkpt><trkpt lat="45.8010783" lon="8.9926567"><ele>395.0</ele><time>2026-04-05T17:21:42.808Z</time></trkpt><trkpt lat="45.800975" lon="8.9924717"><ele>394.0</ele><time>2026-04-05T17:21:43.808Z</time></trkpt><trkpt lat="45.8008783" lon="8.9922883"><ele>393.0</ele><time>2026-04-05T17:21:44.808Z</time></trkpt><trkpt lat="45.8007983" lon="8.9921067"><ele>393.0</ele><time>2026-04-05T17:21:45.809Z</time></trkpt><trkpt lat="45.8007483" lon="8.9919283"><ele>393.0</ele><time>2026-04-05T17:21:46.808Z</time></trkpt><trkpt lat="45.800725" lon="8.9917517"><ele>393.0</ele><time>2026-04-05T17:21:47.808Z</time></trkpt><trkpt lat="45.8007217" lon="8.99159"><ele>393.0</ele><time>2026-04-05T17:21:48.809Z</time></trkpt><trkpt lat="45.8007233" lon="8.9914533"><ele>391.79999999999995</ele><time>2026-04-05T17:21:49.808Z</time></trkpt><trkpt lat="45.8007367" lon="8.9913167"><ele>390.6</ele><time>2026-04-05T17:21:50.808Z</time></trkpt><trkpt lat="45.80075" lon="8.9911817"><ele>389.4</ele><time>2026-04-05T17:21:51.809Z</time></trkpt><trkpt lat="45.8007617" lon="8.991035"><ele>388.20000000000005</ele><time>2026-04-05T17:21:52.808Z</time></trkpt><trkpt lat="45.8007783" lon="8.99089"><ele>387.0</ele><time>2026-04-05T17:21:53.808Z</time></trkpt><trkpt lat="45.8008017" lon="8.9907483"><ele>387.0</ele><time>2026-04-05T17:21:54.808Z</time></trkpt><trkpt lat="45.8008283" lon="8.990625"><ele>387.0</ele><time>2026-04-05T17:21:55.808Z</time></trkpt><trkpt lat="45.8008567" lon="8.9905117"><ele>387.0</ele><time>2026-04-05T17:21:56.809Z</time></trkpt><trkpt lat="45.8008883" lon="8.9904067"><ele>387.0</ele><time>2026-04-05T17:21:57.808Z</time></trkpt><trkpt lat="45.80092" lon="8.990295"><ele>387.0</ele><time>2026-04-05T17:21:58.808Z</time></trkpt><trkpt lat="45.8009567" lon="8.990165"><ele>387.0</ele><time>2026-04-05T17:21:59.808Z</time></trkpt><trkpt lat="45.8009967" lon="8.9900133"><ele>387.0</ele><time>2026-04-05T17:22:00.808Z</time></trkpt><trkpt lat="45.8010417" lon="8.98985"><ele>387.0</ele><time>2026-04-05T17:22:01.808Z</time></trkpt><trkpt lat="45.80109" lon="8.9896867"><ele>387.0</ele><time>2026-04-05T17:22:02.809Z</time></trkpt><trkpt lat="45.8011417" lon="8.9895117"><ele>387.0</ele><time>2026-04-05T17:22:03.809Z</time></trkpt><trkpt lat="45.8011933" lon="8.989315"><ele>384.0</ele><time>2026-04-05T17:22:04.808Z</time></trkpt><trkpt lat="45.8012467" lon="8.9890817"><ele>381.0</ele><time>2026-04-05T17:22:05.809Z</time></trkpt><trkpt lat="45.8013" lon="8.98883"><ele>378.0</ele><time>2026-04-05T17:22:06.808Z</time></trkpt><trkpt lat="45.8013567" lon="8.9885667"><ele>376.0</ele><time>2026-04-05T17:22:07.808Z</time></trkpt><trkpt lat="45.8014167" lon="8.9883017"><ele>374.0</ele><time>2026-04-05T17:22:08.808Z</time></trkpt><trkpt lat="45.8014733" lon="8.98804"><ele>372.0</ele><time>2026-04-05T17:22:09.808Z</time></trkpt><trkpt lat="45.8015317" lon="8.9877883"><ele>372.0</ele><time>2026-04-05T17:22:10.809Z</time></trkpt><trkpt lat="45.801595" lon="8.9875267"><ele>372.0</ele><time>2026-04-05T17:22:11.808Z</time></trkpt><trkpt lat="45.8016567" lon="8.9872467"><ele>372.0</ele><time>2026-04-05T17:22:12.809Z</time></trkpt><trkpt lat="45.80172" lon="8.9869517"><ele>370.6666666666667</ele><time>2026-04-05T17:22:13.809Z</time></trkpt><trkpt lat="45.8017817" lon="8.9867083"><ele>369.33333333333337</ele><time>2026-04-05T17:22:14.808Z</time></trkpt><trkpt lat="45.80184" lon="8.9865033"><ele>368.0</ele><time>2026-04-05T17:22:15.809Z</time></trkpt><trkpt lat="45.8018817" lon="8.98633"><ele>367.5</ele><time>2026-04-05T17:22:16.809Z</time></trkpt><trkpt lat="45.8019133" lon="8.98619"><ele>367.0</ele><time>2026-04-05T17:22:17.808Z</time></trkpt><trkpt lat="45.8019533" lon="8.98607"><ele>366.5</ele><time>2026-04-05T17:22:18.808Z</time></trkpt><trkpt lat="45.8019883" lon="8.9859583"><ele>366.0</ele><time>2026-04-05T17:22:19.808Z</time></trkpt><trkpt lat="45.8020233" lon="8.9858483"><ele>365.5</ele><time>2026-04-05T17:22:20.809Z</time></trkpt><trkpt lat="45.8020383" lon="8.985735"><ele>365.0</ele><time>2026-04-05T17:22:21.809Z</time></trkpt><trkpt lat="45.8020383" lon="8.9856017"><ele>365.0</ele><time>2026-04-05T17:22:22.808Z</time></trkpt><trkpt lat="45.8020283" lon="8.9854533"><ele>365.0</ele><time>2026-04-05T17:22:23.808Z</time></trkpt><trkpt lat="45.8020117" lon="8.985285"><ele>365.0</ele><time>2026-04-05T17:22:24.809Z</time></trkpt><trkpt lat="45.801995" lon="8.9851017"><ele>365.0</ele><time>2026-04-05T17:22:25.808Z</time></trkpt><trkpt lat="45.8019783" lon="8.984905"><ele>365.25</ele><time>2026-04-05T17:22:26.808Z</time></trkpt><trkpt lat="45.8019567" lon="8.9847117"><ele>365.5</ele><time>2026-04-05T17:22:27.808Z</time></trkpt><trkpt lat="45.80194" lon="8.98453"><ele>365.75</ele><time>2026-04-05T17:22:28.808Z</time></trkpt><trkpt lat="45.8019283" lon="8.9843483"><ele>366.0</ele><time>2026-04-05T17:22:29.808Z</time></trkpt><trkpt lat="45.801905" lon="8.9841583"><ele>366.0</ele><time>2026-04-05T17:22:30.808Z</time></trkpt><trkpt lat="45.8018933" lon="8.9839533"><ele>366.0</ele><time>2026-04-05T17:22:31.808Z</time></trkpt><trkpt lat="45.8018833" lon="8.9837333"><ele>366.0</ele><time>2026-04-05T17:22:32.808Z</time></trkpt><trkpt lat="45.80187" lon="8.9835333"><ele>366.0</ele><time>2026-04-05T17:22:33.808Z</time></trkpt><trkpt lat="45.8018517" lon="8.98335"><ele>366.75</ele><time>2026-04-05T17:22:34.809Z</time></trkpt><trkpt lat="45.8018417" lon="8.98317"><ele>367.5</ele><time>2026-04-05T17:22:35.808Z</time></trkpt><trkpt lat="45.8018217" lon="8.9830033"><ele>368.25</ele><time>2026-04-05T17:22:36.809Z</time></trkpt><trkpt lat="45.801805" lon="8.9828483"><ele>369.0</ele><time>2026-04-05T17:22:37.808Z</time></trkpt><trkpt lat="45.8017867" lon="8.9826983"><ele>369.5</ele><time>2026-04-05T17:22:38.809Z</time></trkpt><trkpt lat="45.8017583" lon="8.982545"><ele>370.0</ele><time>2026-04-05T17:22:39.808Z</time></trkpt><trkpt lat="45.8017283" lon="8.9823717"><ele>370.5</ele><time>2026-04-05T17:22:40.808Z</time></trkpt><trkpt lat="45.8016983" lon="8.9821833"><ele>371.0</ele><time>2026-04-05T17:22:41.809Z</time></trkpt><trkpt lat="45.801665" lon="8.9819933"><ele>371.33333333333337</ele><time>2026-04-05T17:22:42.808Z</time></trkpt><trkpt lat="45.8016367" lon="8.9817767"><ele>371.6666666666667</ele><time>2026-04-05T17:22:43.808Z</time></trkpt><trkpt lat="45.8015967" lon="8.9815417"><ele>372.0</ele><time>2026-04-05T17:22:44.808Z</time></trkpt><trkpt lat="45.8015567" lon="8.9813117"><ele>372.25</ele><time>2026-04-05T17:22:45.808Z</time></trkpt><trkpt lat="45.8015133" lon="8.9811033"><ele>372.5</ele><time>2026-04-05T17:22:46.808Z</time></trkpt><trkpt lat="45.801475" lon="8.9808933"><ele>372.75</ele><time>2026-04-05T17:22:47.808Z</time></trkpt><trkpt lat="45.8014433" lon="8.9806917"><ele>373.0</ele><time>2026-04-05T17:22:48.808Z</time></trkpt><trkpt lat="45.80142" lon="8.9804917"><ele>373.0</ele><time>2026-04-05T17:22:49.808Z</time></trkpt><trkpt lat="45.801395" lon="8.980295"><ele>373.0</ele><time>2026-04-05T17:22:50.808Z</time></trkpt><trkpt lat="45.80136" lon="8.9800867"><ele>373.0</ele><time>2026-04-05T17:22:51.808Z</time></trkpt><trkpt lat="45.801315" lon="8.97987"><ele>373.0</ele><time>2026-04-05T17:22:52.808Z</time></trkpt><trkpt lat="45.80127" lon="8.9796533"><ele>371.66666666666663</ele><time>2026-04-05T17:22:53.808Z</time></trkpt><trkpt lat="45.8012317" lon="8.979435"><ele>370.3333333333333</ele><time>2026-04-05T17:22:54.808Z</time></trkpt><trkpt lat="45.80119" lon="8.9792267"><ele>369.0</ele><time>2026-04-05T17:22:55.808Z</time></trkpt><trkpt lat="45.8011517" lon="8.9790133"><ele>368.0</ele><time>2026-04-05T17:22:56.808Z</time></trkpt><trkpt lat="45.8011083" lon="8.9787883"><ele>367.0</ele><time>2026-04-05T17:22:57.808Z</time></trkpt><trkpt lat="45.801065" lon="8.978545"><ele>366.0</ele><time>2026-04-05T17:22:58.808Z</time></trkpt><trkpt lat="45.8010067" lon="8.9782983"><ele>369.3333333333333</ele><time>2026-04-05T17:22:59.808Z</time></trkpt><trkpt lat="45.8009517" lon="8.9780467"><ele>372.66666666666663</ele><time>2026-04-05T17:23:00.808Z</time></trkpt><trkpt lat="45.8008933" lon="8.9778"><ele>376.0</ele><time>2026-04-05T17:23:01.808Z</time></trkpt><trkpt lat="45.8008467" lon="8.97759"><ele>375.25</ele><time>2026-04-05T17:23:02.809Z</time></trkpt><trkpt lat="45.8007983" lon="8.9773917"><ele>374.5</ele><time>2026-04-05T17:23:03.808Z</time></trkpt><trkpt lat="45.80076" lon="8.9771983"><ele>373.75</ele><time>2026-04-05T17:23:04.808Z</time></trkpt><trkpt lat="45.8007217" lon="8.9770183"><ele>373.0</ele><time>2026-04-05T17:23:05.808Z</time></trkpt><trkpt lat="45.800695" lon="8.9768217"><ele>372.25</ele><time>2026-04-05T17:23:06.808Z</time></trkpt><trkpt lat="45.8006617" lon="8.9766417"><ele>371.5</ele><time>2026-04-05T17:23:07.809Z</time></trkpt><trkpt lat="45.8006167" lon="8.9764633"><ele>370.75</ele><time>2026-04-05T17:23:08.808Z</time></trkpt><trkpt lat="45.8005567" lon="8.9762933"><ele>370.0</ele><time>2026-04-05T17:23:09.808Z</time></trkpt><trkpt lat="45.8004767" lon="8.9761533"><ele>370.0</ele><time>2026-04-05T17:23:10.808Z</time></trkpt><trkpt lat="45.8003817" lon="8.9760483"><ele>370.0</ele><time>2026-04-05T17:23:11.808Z</time></trkpt><trkpt lat="45.8002567" lon="8.975955"><ele>370.0</ele><time>2026-04-05T17:23:12.809Z</time></trkpt><trkpt lat="45.8001267" lon="8.9758533"><ele>370.0</ele><time>2026-04-05T17:23:13.808Z</time></trkpt><trkpt lat="45.7999883" lon="8.97572"><ele>372.66666666666663</ele><time>2026-04-05T17:23:14.808Z</time></trkpt><trkpt lat="45.7998467" lon="8.975565"><ele>375.3333333333333</ele><time>2026-04-05T17:23:15.808Z</time></trkpt><trkpt lat="45.7997233" lon="8.9753867"><ele>378.0</ele><time>2026-04-05T17:23:16.809Z</time></trkpt><trkpt lat="45.7996233" lon="8.975185"><ele>378.3333333333333</ele><time>2026-04-05T17:23:17.808Z</time></trkpt><trkpt lat="45.7995333" lon="8.974955"><ele>378.66666666666663</ele><time>2026-04-05T17:23:18.808Z</time></trkpt><trkpt lat="45.7994483" lon="8.9746967"><ele>379.0</ele><time>2026-04-05T17:23:19.808Z</time></trkpt><trkpt lat="45.7993667" lon="8.9744333"><ele>378.66666666666663</ele><time>2026-04-05T17:23:20.809Z</time></trkpt><trkpt lat="45.7992817" lon="8.9741967"><ele>378.3333333333333</ele><time>2026-04-05T17:23:21.808Z</time></trkpt><trkpt lat="45.7992017" lon="8.9739617"><ele>378.0</ele><time>2026-04-05T17:23:22.808Z</time></trkpt><trkpt lat="45.79912" lon="8.973735"><ele>378.0</ele><time>2026-04-05T17:23:23.808Z</time></trkpt><trkpt lat="45.7990467" lon="8.9734933"><ele>378.0</ele><time>2026-04-05T17:23:24.808Z</time></trkpt><trkpt lat="45.7989717" lon="8.9732483"><ele>378.0</ele><time>2026-04-05T17:23:25.808Z</time></trkpt><trkpt lat="45.7988983" lon="8.9729833"><ele>378.0</ele><time>2026-04-05T17:23:26.808Z</time></trkpt><trkpt lat="45.7988267" lon="8.9727083"><ele>378.0</ele><time>2026-04-05T17:23:27.809Z</time></trkpt><trkpt lat="45.7987467" lon="8.9724533"><ele>378.0</ele><time>2026-04-05T17:23:28.808Z</time></trkpt><trkpt lat="45.7986483" lon="8.9722217"><ele>378.0</ele><time>2026-04-05T17:23:29.808Z</time></trkpt><trkpt lat="45.7985167" lon="8.9720133"><ele>378.0</ele><time>2026-04-05T17:23:30.808Z</time></trkpt><trkpt lat="45.798365" lon="8.9718267"><ele>378.0</ele><time>2026-04-05T17:23:31.808Z</time></trkpt><trkpt lat="45.7982033" lon="8.9716267"><ele>379.3333333333333</ele><time>2026-04-05T17:23:32.808Z</time></trkpt><trkpt lat="45.7980583" lon="8.9714333"><ele>380.66666666666663</ele><time>2026-04-05T17:23:33.808Z</time></trkpt><trkpt lat="45.7979317" lon="8.97125"><ele>382.0</ele><time>2026-04-05T17:23:34.808Z</time></trkpt><trkpt lat="45.797815" lon="8.971075"><ele>382.0</ele><time>2026-04-05T17:23:35.808Z</time></trkpt><trkpt lat="45.7977017" lon="8.9709067"><ele>382.0</ele><time>2026-04-05T17:23:36.808Z</time></trkpt><trkpt lat="45.7975933" lon="8.970755"><ele>382.0</ele><time>2026-04-05T17:23:37.808Z</time></trkpt><trkpt lat="45.797495" lon="8.9706133"><ele>381.5</ele><time>2026-04-05T17:23:38.808Z</time></trkpt><trkpt lat="45.7973967" lon="8.9704667"><ele>381.0</ele><time>2026-04-05T17:23:39.809Z</time></trkpt><trkpt lat="45.7972983" lon="8.9703133"><ele>380.5</ele><time>2026-04-05T17:23:40.808Z</time></trkpt><trkpt lat="45.7971967" lon="8.9701833"><ele>380.0</ele><time>2026-04-05T17:23:41.808Z</time></trkpt><trkpt lat="45.7970883" lon="8.9700683"><ele>380.0</ele><time>2026-04-05T17:23:42.808Z</time></trkpt><trkpt lat="45.796995" lon="8.9699783"><ele>380.0</ele><time>2026-04-05T17:23:43.808Z</time></trkpt><trkpt lat="45.7969183" lon="8.969895"><ele>380.0</ele><time>2026-04-05T17:23:44.808Z</time></trkpt><trkpt lat="45.796865" lon="8.9698133"><ele>380.0</ele><time>2026-04-05T17:23:45.808Z</time></trkpt><trkpt lat="45.7968183" lon="8.9697283"><ele>380.0</ele><time>2026-04-05T17:23:46.808Z</time></trkpt><trkpt lat="45.7967667" lon="8.9696467"><ele>380.0</ele><time>2026-04-05T17:23:47.809Z</time></trkpt><trkpt lat="45.7967033" lon="8.9695533"><ele>379.5</ele><time>2026-04-05T17:23:48.808Z</time></trkpt><trkpt lat="45.7966433" lon="8.9694333"><ele>379.0</ele><time>2026-04-05T17:23:49.808Z</time></trkpt><trkpt lat="45.7965983" lon="8.96926"><ele>378.5</ele><time>2026-04-05T17:23:50.809Z</time></trkpt><trkpt lat="45.7965717" lon="8.969065"><ele>378.0</ele><time>2026-04-05T17:23:51.808Z</time></trkpt><trkpt lat="45.796555" lon="8.96885"><ele>377.3333333333333</ele><time>2026-04-05T17:23:52.808Z</time></trkpt><trkpt lat="45.7965483" lon="8.9686133"><ele>376.66666666666663</ele><time>2026-04-05T17:23:53.808Z</time></trkpt><trkpt lat="45.7965633" lon="8.96837"><ele>376.0</ele><time>2026-04-05T17:23:54.808Z</time></trkpt><trkpt lat="45.7965983" lon="8.968145"><ele>378.0</ele><time>2026-04-05T17:23:55.808Z</time></trkpt><trkpt lat="45.796655" lon="8.967915"><ele>380.0</ele><time>2026-04-05T17:23:56.809Z</time></trkpt><trkpt lat="45.7967233" lon="8.9676983"><ele>382.0</ele><time>2026-04-05T17:23:57.808Z</time></trkpt><trkpt lat="45.7968133" lon="8.9674917"><ele>379.0</ele><time>2026-04-05T17:23:58.808Z</time></trkpt><trkpt lat="45.7969183" lon="8.96728"><ele>376.0</ele><time>2026-04-05T17:23:59.808Z</time></trkpt><trkpt lat="45.79703" lon="8.9670633"><ele>373.0</ele><time>2026-04-05T17:24:00.809Z</time></trkpt><trkpt lat="45.7971517" lon="8.9668517"><ele>375.3333333333333</ele><time>2026-04-05T17:24:01.808Z</time></trkpt><trkpt lat="45.7972667" lon="8.96664"><ele>377.6666666666667</ele><time>2026-04-05T17:24:02.808Z</time></trkpt><trkpt lat="45.7973833" lon="8.9664283"><ele>380.0</ele><time>2026-04-05T17:24:03.808Z</time></trkpt><trkpt lat="45.79749" lon="8.9662333"><ele>380.0</ele><time>2026-04-05T17:24:04.808Z</time></trkpt><trkpt lat="45.79759" lon="8.9660433"><ele>380.0</ele><time>2026-04-05T17:24:05.808Z</time></trkpt><trkpt lat="45.7976867" lon="8.965855"><ele>380.0</ele><time>2026-04-05T17:24:06.808Z</time></trkpt><trkpt lat="45.7977783" lon="8.9656567"><ele>379.6666666666667</ele><time>2026-04-05T17:24:07.808Z</time></trkpt><trkpt lat="45.79786" lon="8.9654233"><ele>379.3333333333333</ele><time>2026-04-05T17:24:08.808Z</time></trkpt><trkpt lat="45.79793" lon="8.9651833"><ele>379.0</ele><time>2026-04-05T17:24:09.808Z</time></trkpt><trkpt lat="45.7979883" lon="8.9649267"><ele>380.0</ele><time>2026-04-05T17:24:10.809Z</time></trkpt><trkpt lat="45.79804" lon="8.9646633"><ele>381.0</ele><time>2026-04-05T17:24:11.808Z</time></trkpt><trkpt lat="45.7980833" lon="8.9643833"><ele>382.0</ele><time>2026-04-05T17:24:12.808Z</time></trkpt><trkpt lat="45.7981333" lon="8.9640767"><ele>382.0</ele><time>2026-04-05T17:24:13.809Z</time></trkpt><trkpt lat="45.79818" lon="8.96378"><ele>382.0</ele><time>2026-04-05T17:24:14.808Z</time></trkpt><trkpt lat="45.79824" lon="8.963485"><ele>382.0</ele><time>2026-04-05T17:24:15.808Z</time></trkpt><trkpt lat="45.7982933" lon="8.96318"><ele>383.0</ele><time>2026-04-05T17:24:16.808Z</time></trkpt><trkpt lat="45.79835" lon="8.9628767"><ele>384.0</ele><time>2026-04-05T17:24:17.808Z</time></trkpt><trkpt lat="45.7984067" lon="8.9625717"><ele>385.0</ele><time>2026-04-05T17:24:18.808Z</time></trkpt><trkpt lat="45.79846" lon="8.962275"><ele>382.6666666666667</ele><time>2026-04-05T17:24:19.808Z</time></trkpt><trkpt lat="45.7985083" lon="8.9619933"><ele>380.33333333333337</ele><time>2026-04-05T17:24:20.808Z</time></trkpt><trkpt lat="45.7985733" lon="8.96173"><ele>378.0</ele><time>2026-04-05T17:24:21.808Z</time></trkpt><trkpt lat="45.79864" lon="8.9614833"><ele>377.6666666666667</ele><time>2026-04-05T17:24:22.808Z</time></trkpt><trkpt lat="45.7987133" lon="8.9612517"><ele>377.33333333333337</ele><time>2026-04-05T17:24:23.808Z</time></trkpt><trkpt lat="45.7988" lon="8.96103"><ele>377.0</ele><time>2026-04-05T17:24:24.808Z</time></trkpt><trkpt lat="45.7988933" lon="8.9608017"><ele>376.6666666666667</ele><time>2026-04-05T17:24:25.808Z</time></trkpt><trkpt lat="45.7990033" lon="8.96057"><ele>376.3333333333333</ele><time>2026-04-05T17:24:26.808Z</time></trkpt><trkpt lat="45.799125" lon="8.960325"><ele>376.0</ele><time>2026-04-05T17:24:27.808Z</time></trkpt><trkpt lat="45.7992417" lon="8.9600717"><ele>377.0</ele><time>2026-04-05T17:24:28.808Z</time></trkpt><trkpt lat="45.7993567" lon="8.9598317"><ele>378.0</ele><time>2026-04-05T17:24:29.808Z</time></trkpt><trkpt lat="45.7994683" lon="8.959595"><ele>379.0</ele><time>2026-04-05T17:24:30.808Z</time></trkpt><trkpt lat="45.79958" lon="8.9593583"><ele>380.0</ele><time>2026-04-05T17:24:31.808Z</time></trkpt><trkpt lat="45.799685" lon="8.95913"><ele>381.0</ele><time>2026-04-05T17:24:32.808Z</time></trkpt><trkpt lat="45.7997917" lon="8.9589083"><ele>382.0</ele><time>2026-04-05T17:24:33.808Z</time></trkpt><trkpt lat="45.79989" lon="8.9586883"><ele>382.0</ele><time>2026-04-05T17:24:34.809Z</time></trkpt><trkpt lat="45.7999817" lon="8.9584667"><ele>382.0</ele><time>2026-04-05T17:24:35.808Z</time></trkpt><trkpt lat="45.8000583" lon="8.9582467"><ele>382.0</ele><time>2026-04-05T17:24:36.808Z</time></trkpt><trkpt lat="45.80012" lon="8.958025"><ele>384.0</ele><time>2026-04-05T17:24:37.808Z</time></trkpt><trkpt lat="45.8001683" lon="8.9578067"><ele>386.0</ele><time>2026-04-05T17:24:38.808Z</time></trkpt><trkpt lat="45.8002117" lon="8.9575967"><ele>388.0</ele><time>2026-04-05T17:24:39.809Z</time></trkpt><trkpt lat="45.8002467" lon="8.95738"><ele>389.33333333333337</ele><time>2026-04-05T17:24:40.808Z</time></trkpt><trkpt lat="45.80027" lon="8.9571533"><ele>390.66666666666663</ele><time>2026-04-05T17:24:41.809Z</time></trkpt><trkpt lat="45.8002833" lon="8.9569217"><ele>392.0</ele><time>2026-04-05T17:24:42.808Z</time></trkpt><trkpt lat="45.800295" lon="8.9566817"><ele>393.0</ele><time>2026-04-05T17:24:43.809Z</time></trkpt><trkpt lat="45.8003017" lon="8.956455"><ele>394.0</ele><time>2026-04-05T17:24:44.808Z</time></trkpt><trkpt lat="45.800305" lon="8.956215"><ele>395.0</ele><time>2026-04-05T17:24:45.808Z</time></trkpt><trkpt lat="45.8003067" lon="8.95596"><ele>396.0</ele><time>2026-04-05T17:24:46.808Z</time></trkpt><trkpt lat="45.8003067" lon="8.955705"><ele>397.0</ele><time>2026-04-05T17:24:47.808Z</time></trkpt><trkpt lat="45.80031" lon="8.9554467"><ele>398.0</ele><time>2026-04-05T17:24:48.808Z</time></trkpt><trkpt lat="45.8003167" lon="8.9552067"><ele>399.0</ele><time>2026-04-05T17:24:49.808Z</time></trkpt><trkpt lat="45.8003233" lon="8.95497"><ele>400.0</ele><time>2026-04-05T17:24:50.808Z</time></trkpt><trkpt lat="45.800335" lon="8.9547467"><ele>401.0</ele><time>2026-04-05T17:24:51.808Z</time></trkpt><trkpt lat="45.8003467" lon="8.9545333"><ele>401.0</ele><time>2026-04-05T17:24:52.809Z</time></trkpt><trkpt lat="45.8003533" lon="8.9543317"><ele>401.0</ele><time>2026-04-05T17:24:53.808Z</time></trkpt><trkpt lat="45.80037" lon="8.95414"><ele>401.0</ele><time>2026-04-05T17:24:54.808Z</time></trkpt><trkpt lat="45.8004067" lon="8.95396"><ele>401.0</ele><time>2026-04-05T17:24:55.808Z</time></trkpt><trkpt lat="45.800445" lon="8.9538083"><ele>400.66666666666663</ele><time>2026-04-05T17:24:56.808Z</time></trkpt><trkpt lat="45.800495" lon="8.95368"><ele>400.3333333333333</ele><time>2026-04-05T17:24:57.808Z</time></trkpt><trkpt lat="45.8005083" lon="8.9535667"><ele>400.0</ele><time>2026-04-05T17:24:58.808Z</time></trkpt><trkpt lat="45.8004917" lon="8.9534717"><ele>399.66666666666663</ele><time>2026-04-05T17:24:59.808Z</time></trkpt><trkpt lat="45.8004433" lon="8.9533933"><ele>399.3333333333333</ele><time>2026-04-05T17:25:00.808Z</time></trkpt><trkpt lat="45.800365" lon="8.9533533"><ele>399.0</ele><time>2026-04-05T17:25:01.809Z</time></trkpt><trkpt lat="45.8002767" lon="8.95337"><ele>399.0</ele><time>2026-04-05T17:25:02.808Z</time></trkpt><trkpt lat="45.8001883" lon="8.9534367"><ele>399.0</ele><time>2026-04-05T17:25:03.808Z</time></trkpt><trkpt lat="45.8001083" lon="8.95356"><ele>399.0</ele><time>2026-04-05T17:25:04.809Z</time></trkpt><trkpt lat="45.80002" lon="8.9537333"><ele>399.0</ele><time>2026-04-05T17:25:05.808Z</time></trkpt><trkpt lat="45.7999083" lon="8.9539017"><ele>397.0</ele><time>2026-04-05T17:25:06.808Z</time></trkpt><trkpt lat="45.799775" lon="8.9540633"><ele>395.0</ele><time>2026-04-05T17:25:07.809Z</time></trkpt><trkpt lat="45.7996183" lon="8.9542183"><ele>393.0</ele><time>2026-04-05T17:25:08.808Z</time></trkpt><trkpt lat="45.7994683" lon="8.9543683"><ele>392.0</ele><time>2026-04-05T17:25:09.808Z</time></trkpt><trkpt lat="45.7993217" lon="8.954495"><ele>391.0</ele><time>2026-04-05T17:25:10.808Z</time></trkpt><trkpt lat="45.79919" lon="8.95462"><ele>390.0</ele><time>2026-04-05T17:25:11.808Z</time></trkpt><trkpt lat="45.79906" lon="8.954755"><ele>390.0</ele><time>2026-04-05T17:25:12.808Z</time></trkpt><trkpt lat="45.7989333" lon="8.954885"><ele>390.0</ele><time>2026-04-05T17:25:13.808Z</time></trkpt><trkpt lat="45.7988033" lon="8.95501"><ele>390.0</ele><time>2026-04-05T17:25:14.808Z</time></trkpt><trkpt lat="45.7986733" lon="8.9551317"><ele>390.66666666666663</ele><time>2026-04-05T17:25:15.808Z</time></trkpt><trkpt lat="45.798545" lon="8.95526"><ele>391.3333333333333</ele><time>2026-04-05T17:25:16.808Z</time></trkpt><trkpt lat="45.79842" lon="8.9553917"><ele>392.0</ele><time>2026-04-05T17:25:17.808Z</time></trkpt><trkpt lat="45.7982933" lon="8.9555183"><ele>392.0</ele><time>2026-04-05T17:25:18.808Z</time></trkpt><trkpt lat="45.7981733" lon="8.95564"><ele>392.0</ele><time>2026-04-05T17:25:19.808Z</time></trkpt><trkpt lat="45.7980467" lon="8.9557683"><ele>392.0</ele><time>2026-04-05T17:25:20.808Z</time></trkpt><trkpt lat="45.7979183" lon="8.95589"><ele>392.0</ele><time>2026-04-05T17:25:21.808Z</time></trkpt><trkpt lat="45.7978017" lon="8.9560133"><ele>392.0</ele><time>2026-04-05T17:25:22.808Z</time></trkpt><trkpt lat="45.7976833" lon="8.9561333"><ele>392.0</ele><time>2026-04-05T17:25:23.808Z</time></trkpt><trkpt lat="45.797565" lon="8.9562567"><ele>392.0</ele><time>2026-04-05T17:25:24.808Z</time></trkpt><trkpt lat="45.7974417" lon="8.956375"><ele>392.0</ele><time>2026-04-05T17:25:25.808Z</time></trkpt><trkpt lat="45.7973183" lon="8.9564917"><ele>392.0</ele><time>2026-04-05T17:25:26.809Z</time></trkpt><trkpt lat="45.7972" lon="8.9566117"><ele>392.0</ele><time>2026-04-05T17:25:27.808Z</time></trkpt><trkpt lat="45.7970867" lon="8.956735"><ele>392.0</ele><time>2026-04-05T17:25:28.808Z</time></trkpt><trkpt lat="45.79696" lon="8.9568633"><ele>392.0</ele><time>2026-04-05T17:25:29.808Z</time></trkpt><trkpt lat="45.7968383" lon="8.9569867"><ele>392.0</ele><time>2026-04-05T17:25:30.808Z</time></trkpt><trkpt lat="45.7967117" lon="8.95711"><ele>392.0</ele><time>2026-04-05T17:25:31.808Z</time></trkpt><trkpt lat="45.7965867" lon="8.9572367"><ele>392.0</ele><time>2026-04-05T17:25:32.808Z</time></trkpt><trkpt lat="45.7964633" lon="8.95736"><ele>392.0</ele><time>2026-04-05T17:25:33.808Z</time></trkpt><trkpt lat="45.796335" lon="8.9574767"><ele>392.0</ele><time>2026-04-05T17:25:34.808Z</time></trkpt><trkpt lat="45.7962067" lon="8.9576017"><ele>392.3333333333333</ele><time>2026-04-05T17:25:35.808Z</time></trkpt><trkpt lat="45.7960833" lon="8.9577333"><ele>392.66666666666663</ele><time>2026-04-05T17:25:36.809Z</time></trkpt><trkpt lat="45.7959633" lon="8.9578583"><ele>393.0</ele><time>2026-04-05T17:25:37.809Z</time></trkpt><trkpt lat="45.7958333" lon="8.9579867"><ele>392.33333333333337</ele><time>2026-04-05T17:25:38.809Z</time></trkpt><trkpt lat="45.7957017" lon="8.9581233"><ele>391.6666666666667</ele><time>2026-04-05T17:25:39.808Z</time></trkpt><trkpt lat="45.7955733" lon="8.958245"><ele>391.0</ele><time>2026-04-05T17:25:40.808Z</time></trkpt><trkpt lat="45.7954367" lon="8.9583683"><ele>391.0</ele><time>2026-04-05T17:25:41.808Z</time></trkpt><trkpt lat="45.7953017" lon="8.9584883"><ele>391.0</ele><time>2026-04-05T17:25:42.808Z</time></trkpt><trkpt lat="45.7951667" lon="8.95861"><ele>391.0</ele><time>2026-04-05T17:25:43.808Z</time></trkpt><trkpt lat="45.79502" lon="8.958715"><ele>390.33333333333337</ele><time>2026-04-05T17:25:44.808Z</time></trkpt><trkpt lat="45.794885" lon="8.9587833"><ele>389.66666666666663</ele><time>2026-04-05T17:25:45.808Z</time></trkpt><trkpt lat="45.79473" lon="8.9588767"><ele>389.0</ele><time>2026-04-05T17:25:46.808Z</time></trkpt><trkpt lat="45.7945683" lon="8.9589517"><ele>389.0</ele><time>2026-04-05T17:25:47.809Z</time></trkpt><trkpt lat="45.7944067" lon="8.9590017"><ele>389.0</ele><time>2026-04-05T17:25:48.808Z</time></trkpt><trkpt lat="45.7942417" lon="8.95904"><ele>389.0</ele><time>2026-04-05T17:25:49.808Z</time></trkpt><trkpt lat="45.79407" lon="8.95906"><ele>388.3333333333333</ele><time>2026-04-05T17:25:50.808Z</time></trkpt><trkpt lat="45.7939033" lon="8.9590717"><ele>387.66666666666663</ele><time>2026-04-05T17:25:51.808Z</time></trkpt><trkpt lat="45.7937317" lon="8.9590583"><ele>387.0</ele><time>2026-04-05T17:25:52.808Z</time></trkpt><trkpt lat="45.7935617" lon="8.9590417"><ele>388.33333333333337</ele><time>2026-04-05T17:25:53.808Z</time></trkpt><trkpt lat="45.7933983" lon="8.9590117"><ele>389.6666666666667</ele><time>2026-04-05T17:25:54.808Z</time></trkpt><trkpt lat="45.7932367" lon="8.95898"><ele>391.0</ele><time>2026-04-05T17:25:55.808Z</time></trkpt><trkpt lat="45.7930783" lon="8.958935"><ele>391.0</ele><time>2026-04-05T17:25:56.808Z</time></trkpt><trkpt lat="45.7929217" lon="8.9588917"><ele>391.0</ele><time>2026-04-05T17:25:57.809Z</time></trkpt><trkpt lat="45.792765" lon="8.9588483"><ele>391.0</ele><time>2026-04-05T17:25:58.809Z</time></trkpt><trkpt lat="45.7926083" lon="8.9588017"><ele>392.33333333333337</ele><time>2026-04-05T17:25:59.808Z</time></trkpt><trkpt lat="45.7924567" lon="8.9587467"><ele>393.66666666666663</ele><time>2026-04-05T17:26:00.808Z</time></trkpt><trkpt lat="45.7923017" lon="8.9586983"><ele>395.0</ele><time>2026-04-05T17:26:01.809Z</time></trkpt><trkpt lat="45.7921433" lon="8.9586383"><ele>395.0</ele><time>2026-04-05T17:26:02.808Z</time></trkpt><trkpt lat="45.7919883" lon="8.9586017"><ele>395.0</ele><time>2026-04-05T17:26:03.809Z</time></trkpt><trkpt lat="45.7918417" lon="8.9585617"><ele>395.0</ele><time>2026-04-05T17:26:04.808Z</time></trkpt><trkpt lat="45.791695" lon="8.9585083"><ele>396.66666666666663</ele><time>2026-04-05T17:26:05.809Z</time></trkpt><trkpt lat="45.7915417" lon="8.9584617"><ele>398.33333333333337</ele><time>2026-04-05T17:26:06.809Z</time></trkpt><trkpt lat="45.791385" lon="8.95841"><ele>400.0</ele><time>2026-04-05T17:26:07.809Z</time></trkpt><trkpt lat="45.7912283" lon="8.958365"><ele>400.0</ele><time>2026-04-05T17:26:08.808Z</time></trkpt><trkpt lat="45.7910683" lon="8.95832"><ele>400.0</ele><time>2026-04-05T17:26:09.809Z</time></trkpt><trkpt lat="45.790915" lon="8.9582683"><ele>400.0</ele><time>2026-04-05T17:26:10.808Z</time></trkpt><trkpt lat="45.79076" lon="8.9582167"><ele>400.6666666666667</ele><time>2026-04-05T17:26:11.808Z</time></trkpt><trkpt lat="45.7906067" lon="8.9581683"><ele>401.33333333333337</ele><time>2026-04-05T17:26:12.808Z</time></trkpt><trkpt lat="45.7904533" lon="8.9581167"><ele>402.0</ele><time>2026-04-05T17:26:13.809Z</time></trkpt><trkpt lat="45.7903017" lon="8.9580717"><ele>403.33333333333337</ele><time>2026-04-05T17:26:14.808Z</time></trkpt><trkpt lat="45.7901467" lon="8.9580333"><ele>404.6666666666667</ele><time>2026-04-05T17:26:15.808Z</time></trkpt><trkpt lat="45.7899917" lon="8.95799"><ele>406.0</ele><time>2026-04-05T17:26:16.808Z</time></trkpt><trkpt lat="45.7898383" lon="8.9579333"><ele>406.0</ele><time>2026-04-05T17:26:17.808Z</time></trkpt><trkpt lat="45.78968" lon="8.95789"><ele>406.0</ele><time>2026-04-05T17:26:18.808Z</time></trkpt><trkpt lat="45.789525" lon="8.9578417"><ele>406.0</ele><time>2026-04-05T17:26:19.808Z</time></trkpt><trkpt lat="45.7893633" lon="8.9577917"><ele>406.0</ele><time>2026-04-05T17:26:20.808Z</time></trkpt><trkpt lat="45.7892033" lon="8.9577417"><ele>406.0</ele><time>2026-04-05T17:26:21.809Z</time></trkpt><trkpt lat="45.78905" lon="8.957695"><ele>406.0</ele><time>2026-04-05T17:26:22.809Z</time></trkpt><trkpt lat="45.7888917" lon="8.9576467"><ele>406.0</ele><time>2026-04-05T17:26:23.808Z</time></trkpt><trkpt lat="45.7887383" lon="8.9576033"><ele>406.0</ele><time>2026-04-05T17:26:24.808Z</time></trkpt><trkpt lat="45.78859" lon="8.9575617"><ele>406.0</ele><time>2026-04-05T17:26:25.808Z</time></trkpt><trkpt lat="45.7884467" lon="8.9575183"><ele>406.25</ele><time>2026-04-05T17:26:26.808Z</time></trkpt><trkpt lat="45.7883067" lon="8.95748"><ele>406.5</ele><time>2026-04-05T17:26:27.808Z</time></trkpt><trkpt lat="45.7881717" lon="8.9574517"><ele>406.75</ele><time>2026-04-05T17:26:28.808Z</time></trkpt><trkpt lat="45.7880267" lon="8.9574067"><ele>407.0</ele><time>2026-04-05T17:26:29.809Z</time></trkpt><trkpt lat="45.787885" lon="8.9573567"><ele>407.0</ele><time>2026-04-05T17:26:30.808Z</time></trkpt><trkpt lat="45.7877483" lon="8.9573167"><ele>407.0</ele><time>2026-04-05T17:26:31.808Z</time></trkpt><trkpt lat="45.7876317" lon="8.95727"><ele>407.0</ele><time>2026-04-05T17:26:32.809Z</time></trkpt><trkpt lat="45.787515" lon="8.9572283"><ele>407.0</ele><time>2026-04-05T17:26:33.808Z</time></trkpt><trkpt lat="45.7874017" lon="8.9571917"><ele>406.40000000000003</ele><time>2026-04-05T17:26:34.808Z</time></trkpt><trkpt lat="45.7872933" lon="8.95714"><ele>405.8</ele><time>2026-04-05T17:26:35.808Z</time></trkpt><trkpt lat="45.7871967" lon="8.9570817"><ele>405.2</ele><time>2026-04-05T17:26:36.808Z</time></trkpt><trkpt lat="45.7871183" lon="8.9570133"><ele>404.6</ele><time>2026-04-05T17:26:37.809Z</time></trkpt><trkpt lat="45.7870633" lon="8.95694"><ele>404.0</ele><time>2026-04-05T17:26:38.809Z</time></trkpt><trkpt lat="45.7870167" lon="8.95686"><ele>403.99999999999994</ele><time>2026-04-05T17:26:39.808Z</time></trkpt><trkpt lat="45.7869633" lon="8.9567033"><ele>404.0</ele><time>2026-04-05T17:26:41.808Z</time></trkpt><trkpt lat="45.786945" lon="8.9566167"><ele>404.0</ele><time>2026-04-05T17:26:42.808Z</time></trkpt><trkpt lat="45.7869183" lon="8.9565267"><ele>404.0</ele><time>2026-04-05T17:26:43.808Z</time></trkpt><trkpt lat="45.7868883" lon="8.9564283"><ele>403.99999999999994</ele><time>2026-04-05T17:26:44.808Z</time></trkpt><trkpt lat="45.7868667" lon="8.95633"><ele>404.0</ele><time>2026-04-05T17:26:45.808Z</time></trkpt><trkpt lat="45.7868517" lon="8.9562233"><ele>404.0</ele><time>2026-04-05T17:26:46.808Z</time></trkpt><trkpt lat="45.786855" lon="8.9561083"><ele>404.0</ele><time>2026-04-05T17:26:47.808Z</time></trkpt><trkpt lat="45.7868767" lon="8.95599"><ele>404.0</ele><time>2026-04-05T17:26:48.808Z</time></trkpt><trkpt lat="45.78691" lon="8.955845"><ele>404.0</ele><time>2026-04-05T17:26:49.808Z</time></trkpt><trkpt lat="45.7869583" lon="8.9556783"><ele>404.0</ele><time>2026-04-05T17:26:50.808Z</time></trkpt><trkpt lat="45.7870133" lon="8.955505"><ele>404.5</ele><time>2026-04-05T17:26:51.809Z</time></trkpt><trkpt lat="45.787075" lon="8.955335"><ele>405.0</ele><time>2026-04-05T17:26:52.808Z</time></trkpt><trkpt lat="45.7871433" lon="8.9551617"><ele>405.5</ele><time>2026-04-05T17:26:53.809Z</time></trkpt><trkpt lat="45.787215" lon="8.95498"><ele>406.0</ele><time>2026-04-05T17:26:54.808Z</time></trkpt><trkpt lat="45.78728" lon="8.95479"><ele>406.0</ele><time>2026-04-05T17:26:55.808Z</time></trkpt><trkpt lat="45.7873467" lon="8.9545967"><ele>406.0</ele><time>2026-04-05T17:26:56.808Z</time></trkpt><trkpt lat="45.7874167" lon="8.9544017"><ele>406.0</ele><time>2026-04-05T17:26:57.808Z</time></trkpt><trkpt lat="45.7874833" lon="8.95421"><ele>405.5</ele><time>2026-04-05T17:26:58.809Z</time></trkpt><trkpt lat="45.787545" lon="8.954035"><ele>405.0</ele><time>2026-04-05T17:26:59.808Z</time></trkpt><trkpt lat="45.787605" lon="8.9538483"><ele>404.5</ele><time>2026-04-05T17:27:00.808Z</time></trkpt><trkpt lat="45.7876633" lon="8.9536667"><ele>404.0</ele><time>2026-04-05T17:27:01.808Z</time></trkpt><trkpt lat="45.7877283" lon="8.9534733"><ele>405.5</ele><time>2026-04-05T17:27:02.809Z</time></trkpt><trkpt lat="45.7877917" lon="8.953285"><ele>407.0</ele><time>2026-04-05T17:27:03.808Z</time></trkpt><trkpt lat="45.7878567" lon="8.9531017"><ele>408.5</ele><time>2026-04-05T17:27:04.808Z</time></trkpt><trkpt lat="45.7879167" lon="8.9529133"><ele>410.0</ele><time>2026-04-05T17:27:05.808Z</time></trkpt><trkpt lat="45.7879783" lon="8.9527167"><ele>411.0</ele><time>2026-04-05T17:27:06.809Z</time></trkpt><trkpt lat="45.78804" lon="8.9525367"><ele>412.0</ele><time>2026-04-05T17:27:07.809Z</time></trkpt><trkpt lat="45.7880983" lon="8.952365"><ele>413.0</ele><time>2026-04-05T17:27:08.809Z</time></trkpt><trkpt lat="45.7881483" lon="8.952215"><ele>414.0</ele><time>2026-04-05T17:27:09.808Z</time></trkpt><trkpt lat="45.788205" lon="8.9520733"><ele>414.0</ele><time>2026-04-05T17:27:10.809Z</time></trkpt><trkpt lat="45.7882583" lon="8.9519317"><ele>414.0</ele><time>2026-04-05T17:27:11.808Z</time></trkpt><trkpt lat="45.7883083" lon="8.9518033"><ele>414.0</ele><time>2026-04-05T17:27:12.808Z</time></trkpt><trkpt lat="45.7883533" lon="8.9516767"><ele>414.0</ele><time>2026-04-05T17:27:13.808Z</time></trkpt><trkpt lat="45.78839" lon="8.951565"><ele>414.0</ele><time>2026-04-05T17:27:14.808Z</time></trkpt><trkpt lat="45.7884083" lon="8.95146"><ele>413.79999999999995</ele><time>2026-04-05T17:27:15.808Z</time></trkpt><trkpt lat="45.788425" lon="8.9513533"><ele>413.59999999999997</ele><time>2026-04-05T17:27:16.808Z</time></trkpt><trkpt lat="45.78845" lon="8.9512333"><ele>413.4</ele><time>2026-04-05T17:27:17.809Z</time></trkpt><trkpt lat="45.78848" lon="8.951095"><ele>413.2</ele><time>2026-04-05T17:27:18.808Z</time></trkpt><trkpt lat="45.7885117" lon="8.95094"><ele>413.0</ele><time>2026-04-05T17:27:19.808Z</time></trkpt><trkpt lat="45.788535" lon="8.9507717"><ele>413.25</ele><time>2026-04-05T17:27:20.808Z</time></trkpt><trkpt lat="45.788535" lon="8.950605"><ele>413.5</ele><time>2026-04-05T17:27:21.808Z</time></trkpt><trkpt lat="45.7885217" lon="8.950445"><ele>413.75</ele><time>2026-04-05T17:27:22.808Z</time></trkpt><trkpt lat="45.7885067" lon="8.950275"><ele>414.0</ele><time>2026-04-05T17:27:23.809Z</time></trkpt><trkpt lat="45.78849" lon="8.9500967"><ele>414.5</ele><time>2026-04-05T17:27:24.809Z</time></trkpt><trkpt lat="45.7884617" lon="8.949915"><ele>415.0</ele><time>2026-04-05T17:27:25.808Z</time></trkpt><trkpt lat="45.7884367" lon="8.9497417"><ele>415.5</ele><time>2026-04-05T17:27:26.809Z</time></trkpt><trkpt lat="45.78841" lon="8.9495567"><ele>416.0</ele><time>2026-04-05T17:27:27.808Z</time></trkpt><trkpt lat="45.788385" lon="8.949375"><ele>416.0</ele><time>2026-04-05T17:27:28.808Z</time></trkpt><trkpt lat="45.78836" lon="8.9491967"><ele>416.0</ele><time>2026-04-05T17:27:29.808Z</time></trkpt><trkpt lat="45.7883383" lon="8.94904"><ele>416.0</ele><time>2026-04-05T17:27:30.809Z</time></trkpt><trkpt lat="45.788315" lon="8.9489"><ele>416.0</ele><time>2026-04-05T17:27:31.809Z</time></trkpt><trkpt lat="45.7883" lon="8.9487733"><ele>416.0</ele><time>2026-04-05T17:27:32.808Z</time></trkpt><trkpt lat="45.7882833" lon="8.948675"><ele>415.99999999999994</ele><time>2026-04-05T17:27:33.808Z</time></trkpt><trkpt lat="45.78827" lon="8.9485817"><ele>416.0</ele><time>2026-04-05T17:27:34.808Z</time></trkpt><trkpt lat="45.788255" lon="8.9484767"><ele>416.0</ele><time>2026-04-05T17:27:35.809Z</time></trkpt><trkpt lat="45.7882417" lon="8.9483567"><ele>416.0</ele><time>2026-04-05T17:27:36.808Z</time></trkpt><trkpt lat="45.78823" lon="8.94823"><ele>415.99999999999994</ele><time>2026-04-05T17:27:37.808Z</time></trkpt><trkpt lat="45.78822" lon="8.9481033"><ele>416.0</ele><time>2026-04-05T17:27:38.808Z</time></trkpt><trkpt lat="45.7882033" lon="8.9479883"><ele>416.4285714285714</ele><time>2026-04-05T17:27:39.808Z</time></trkpt><trkpt lat="45.7881833" lon="8.9478833"><ele>416.8571428571429</ele><time>2026-04-05T17:27:40.808Z</time></trkpt><trkpt lat="45.788165" lon="8.9477817"><ele>417.2857142857143</ele><time>2026-04-05T17:27:41.808Z</time></trkpt><trkpt lat="45.7881567" lon="8.9476733"><ele>417.71428571428567</ele><time>2026-04-05T17:27:42.808Z</time></trkpt><trkpt lat="45.7881483" lon="8.9475767"><ele>418.1428571428571</ele><time>2026-04-05T17:27:43.808Z</time></trkpt><trkpt lat="45.7881317" lon="8.94748"><ele>418.57142857142856</ele><time>2026-04-05T17:27:44.808Z</time></trkpt><trkpt lat="45.7881183" lon="8.9473767"><ele>419.0</ele><time>2026-04-05T17:27:45.808Z</time></trkpt><trkpt lat="45.788105" lon="8.9472783"><ele>420.0</ele><time>2026-04-05T17:27:46.809Z</time></trkpt><trkpt lat="45.7881067" lon="8.9471717"><ele>421.0</ele><time>2026-04-05T17:27:47.808Z</time></trkpt><trkpt lat="45.7881083" lon="8.9470567"><ele>422.0</ele><time>2026-04-05T17:27:48.809Z</time></trkpt><trkpt lat="45.7881233" lon="8.946925"><ele>423.0</ele><time>2026-04-05T17:27:49.809Z</time></trkpt><trkpt lat="45.7881567" lon="8.9467533"><ele>424.0</ele><time>2026-04-05T17:27:50.808Z</time></trkpt><trkpt lat="45.7881883" lon="8.9465783"><ele>424.25</ele><time>2026-04-05T17:27:51.808Z</time></trkpt><trkpt lat="45.788215" lon="8.9463967"><ele>424.5</ele><time>2026-04-05T17:27:52.808Z</time></trkpt><trkpt lat="45.788235" lon="8.9461983"><ele>424.75</ele><time>2026-04-05T17:27:53.808Z</time></trkpt><trkpt lat="45.788265" lon="8.9459817"><ele>425.0</ele><time>2026-04-05T17:27:54.808Z</time></trkpt><trkpt lat="45.7882917" lon="8.945755"><ele>425.3333333333333</ele><time>2026-04-05T17:27:55.809Z</time></trkpt><trkpt lat="45.788325" lon="8.9455067"><ele>425.66666666666663</ele><time>2026-04-05T17:27:56.808Z</time></trkpt><trkpt lat="45.78836" lon="8.945255"><ele>426.0</ele><time>2026-04-05T17:27:57.808Z</time></trkpt><trkpt lat="45.7883983" lon="8.9450017"><ele>426.33333333333337</ele><time>2026-04-05T17:27:58.808Z</time></trkpt><trkpt lat="45.78844" lon="8.94476"><ele>426.6666666666667</ele><time>2026-04-05T17:27:59.808Z</time></trkpt><trkpt lat="45.7884817" lon="8.944515"><ele>427.0</ele><time>2026-04-05T17:28:00.808Z</time></trkpt><trkpt lat="45.7885217" lon="8.944255"><ele>426.0</ele><time>2026-04-05T17:28:01.808Z</time></trkpt><trkpt lat="45.7885667" lon="8.9439983"><ele>425.0</ele><time>2026-04-05T17:28:02.808Z</time></trkpt><trkpt lat="45.7886017" lon="8.9437267"><ele>424.0</ele><time>2026-04-05T17:28:03.808Z</time></trkpt><trkpt lat="45.7886367" lon="8.94345"><ele>424.33333333333337</ele><time>2026-04-05T17:28:04.809Z</time></trkpt><trkpt lat="45.7886783" lon="8.9431867"><ele>424.66666666666663</ele><time>2026-04-05T17:28:05.809Z</time></trkpt><trkpt lat="45.7887133" lon="8.94292"><ele>425.0</ele><time>2026-04-05T17:28:06.808Z</time></trkpt><trkpt lat="45.78875" lon="8.9426533"><ele>425.66666666666663</ele><time>2026-04-05T17:28:07.809Z</time></trkpt><trkpt lat="45.7887833" lon="8.9423933"><ele>426.33333333333337</ele><time>2026-04-05T17:28:08.808Z</time></trkpt><trkpt lat="45.78882" lon="8.942135"><ele>427.0</ele><time>2026-04-05T17:28:09.808Z</time></trkpt><trkpt lat="45.7888617" lon="8.9418817"><ele>428.0</ele><time>2026-04-05T17:28:10.808Z</time></trkpt><trkpt lat="45.7889" lon="8.9416333"><ele>429.0</ele><time>2026-04-05T17:28:11.808Z</time></trkpt><trkpt lat="45.7889383" lon="8.94139"><ele>430.0</ele><time>2026-04-05T17:28:12.808Z</time></trkpt><trkpt lat="45.7889717" lon="8.941165"><ele>430.0</ele><time>2026-04-05T17:28:13.808Z</time></trkpt><trkpt lat="45.7890067" lon="8.94095"><ele>430.0</ele><time>2026-04-05T17:28:14.809Z</time></trkpt><trkpt lat="45.7890367" lon="8.9407533"><ele>430.0</ele><time>2026-04-05T17:28:15.808Z</time></trkpt><trkpt lat="45.789065" lon="8.9405583"><ele>430.0</ele><time>2026-04-05T17:28:16.808Z</time></trkpt><trkpt lat="45.78909" lon="8.9403733"><ele>430.5</ele><time>2026-04-05T17:28:17.808Z</time></trkpt><trkpt lat="45.789115" lon="8.9401917"><ele>431.0</ele><time>2026-04-05T17:28:18.808Z</time></trkpt><trkpt lat="45.7891417" lon="8.9400033"><ele>431.5</ele><time>2026-04-05T17:28:19.808Z</time></trkpt><trkpt lat="45.78917" lon="8.9398267"><ele>432.0</ele><time>2026-04-05T17:28:20.808Z</time></trkpt><trkpt lat="45.7891983" lon="8.9396317"><ele>432.66666666666663</ele><time>2026-04-05T17:28:21.808Z</time></trkpt><trkpt lat="45.7892217" lon="8.939425"><ele>433.3333333333333</ele><time>2026-04-05T17:28:22.808Z</time></trkpt><trkpt lat="45.7892517" lon="8.9391967"><ele>434.0</ele><time>2026-04-05T17:28:23.808Z</time></trkpt><trkpt lat="45.7892867" lon="8.93896"><ele>434.66666666666663</ele><time>2026-04-05T17:28:24.808Z</time></trkpt><trkpt lat="45.789325" lon="8.9387233"><ele>435.33333333333337</ele><time>2026-04-05T17:28:25.808Z</time></trkpt><trkpt lat="45.7893567" lon="8.9384983"><ele>436.0</ele><time>2026-04-05T17:28:26.809Z</time></trkpt><trkpt lat="45.7893867" lon="8.9382867"><ele>436.75</ele><time>2026-04-05T17:28:27.808Z</time></trkpt><trkpt lat="45.78942" lon="8.9380917"><ele>437.5</ele><time>2026-04-05T17:28:28.808Z</time></trkpt><trkpt lat="45.789445" lon="8.9379067"><ele>438.25</ele><time>2026-04-05T17:28:29.808Z</time></trkpt><trkpt lat="45.7894683" lon="8.9377333"><ele>439.0</ele><time>2026-04-05T17:28:30.808Z</time></trkpt><trkpt lat="45.789495" lon="8.9375567"><ele>439.25</ele><time>2026-04-05T17:28:31.809Z</time></trkpt><trkpt lat="45.7895167" lon="8.9373867"><ele>439.5</ele><time>2026-04-05T17:28:32.808Z</time></trkpt><trkpt lat="45.7895433" lon="8.9372133"><ele>439.75</ele><time>2026-04-05T17:28:33.808Z</time></trkpt><trkpt lat="45.78957" lon="8.9370383"><ele>440.0</ele><time>2026-04-05T17:28:34.808Z</time></trkpt><trkpt lat="45.7895967" lon="8.9368633"><ele>441.5</ele><time>2026-04-05T17:28:35.808Z</time></trkpt><trkpt lat="45.7896283" lon="8.9366917"><ele>443.0</ele><time>2026-04-05T17:28:36.809Z</time></trkpt><trkpt lat="45.789645" lon="8.93653"><ele>444.5</ele><time>2026-04-05T17:28:37.808Z</time></trkpt><trkpt lat="45.7896483" lon="8.93637"><ele>446.0</ele><time>2026-04-05T17:28:38.808Z</time></trkpt><trkpt lat="45.7896467" lon="8.9362133"><ele>446.0</ele><time>2026-04-05T17:28:39.808Z</time></trkpt><trkpt lat="45.7896267" lon="8.936055"><ele>446.0</ele><time>2026-04-05T17:28:40.808Z</time></trkpt><trkpt lat="45.789585" lon="8.9359117"><ele>446.0</ele><time>2026-04-05T17:28:41.808Z</time></trkpt><trkpt lat="45.7895317" lon="8.9357833"><ele>446.0</ele><time>2026-04-05T17:28:42.808Z</time></trkpt><trkpt lat="45.7894583" lon="8.9356683"><ele>446.0</ele><time>2026-04-05T17:28:43.808Z</time></trkpt><trkpt lat="45.7893667" lon="8.9355767"><ele>446.6</ele><time>2026-04-05T17:28:44.808Z</time></trkpt><trkpt lat="45.78928" lon="8.935505"><ele>447.20000000000005</ele><time>2026-04-05T17:28:45.808Z</time></trkpt><trkpt lat="45.7892067" lon="8.9353983"><ele>447.79999999999995</ele><time>2026-04-05T17:28:46.808Z</time></trkpt><trkpt lat="45.7891467" lon="8.935285"><ele>448.4</ele><time>2026-04-05T17:28:47.808Z</time></trkpt><trkpt lat="45.7891017" lon="8.935145"><ele>449.0</ele><time>2026-04-05T17:28:48.808Z</time></trkpt><trkpt lat="45.78908" lon="8.9349633"><ele>449.0</ele><time>2026-04-05T17:28:49.808Z</time></trkpt><trkpt lat="45.7890483" lon="8.9347883"><ele>449.0</ele><time>2026-04-05T17:28:50.808Z</time></trkpt><trkpt lat="45.7890117" lon="8.93462"><ele>449.0</ele><time>2026-04-05T17:28:51.808Z</time></trkpt><trkpt lat="45.7889817" lon="8.9344333"><ele>449.0</ele><time>2026-04-05T17:28:52.808Z</time></trkpt><trkpt lat="45.7889483" lon="8.9342667"><ele>449.0</ele><time>2026-04-05T17:28:53.808Z</time></trkpt><trkpt lat="45.7889117" lon="8.934115"><ele>449.0</ele><time>2026-04-05T17:28:54.809Z</time></trkpt><trkpt lat="45.78888" lon="8.9339733"><ele>449.0</ele><time>2026-04-05T17:28:55.808Z</time></trkpt><trkpt lat="45.7888567" lon="8.9338267"><ele>449.0</ele><time>2026-04-05T17:28:56.808Z</time></trkpt><trkpt lat="45.788835" lon="8.9336817"><ele>449.0</ele><time>2026-04-05T17:28:57.809Z</time></trkpt><trkpt lat="45.7888067" lon="8.93354"><ele>449.0</ele><time>2026-04-05T17:28:58.809Z</time></trkpt><trkpt lat="45.788785" lon="8.9334033"><ele>449.0</ele><time>2026-04-05T17:28:59.808Z</time></trkpt><trkpt lat="45.788755" lon="8.9332817"><ele>449.0</ele><time>2026-04-05T17:29:00.808Z</time></trkpt><trkpt lat="45.7887183" lon="8.9331733"><ele>449.0</ele><time>2026-04-05T17:29:01.809Z</time></trkpt><trkpt lat="45.7886733" lon="8.9330683"><ele>449.0</ele><time>2026-04-05T17:29:02.808Z</time></trkpt><trkpt lat="45.7886217" lon="8.93295"><ele>448.5</ele><time>2026-04-05T17:29:03.809Z</time></trkpt><trkpt lat="45.78855" lon="8.9328217"><ele>448.0</ele><time>2026-04-05T17:29:04.808Z</time></trkpt><trkpt lat="45.788495" lon="8.9326783"><ele>447.5</ele><time>2026-04-05T17:29:05.808Z</time></trkpt><trkpt lat="45.78844" lon="8.9325417"><ele>447.0</ele><time>2026-04-05T17:29:06.808Z</time></trkpt><trkpt lat="45.788385" lon="8.9323933"><ele>446.0</ele><time>2026-04-05T17:29:07.808Z</time></trkpt><trkpt lat="45.7883217" lon="8.9322567"><ele>445.00000000000006</ele><time>2026-04-05T17:29:08.808Z</time></trkpt><trkpt lat="45.7882667" lon="8.932125"><ele>444.00000000000006</ele><time>2026-04-05T17:29:09.808Z</time></trkpt><trkpt lat="45.7882083" lon="8.9320017"><ele>443.0</ele><time>2026-04-05T17:29:10.809Z</time></trkpt><trkpt lat="45.7881467" lon="8.9318733"><ele>442.0</ele><time>2026-04-05T17:29:11.808Z</time></trkpt><trkpt lat="45.7880817" lon="8.9317333"><ele>441.6</ele><time>2026-04-05T17:29:12.808Z</time></trkpt><trkpt lat="45.7880217" lon="8.9315967"><ele>441.20000000000005</ele><time>2026-04-05T17:29:13.808Z</time></trkpt><trkpt lat="45.787965" lon="8.9314733"><ele>440.8</ele><time>2026-04-05T17:29:14.808Z</time></trkpt><trkpt lat="45.7879083" lon="8.93135"><ele>440.4</ele><time>2026-04-05T17:29:15.809Z</time></trkpt><trkpt lat="45.787865" lon="8.9312217"><ele>440.0</ele><time>2026-04-05T17:29:16.808Z</time></trkpt><trkpt lat="45.7878333" lon="8.9310933"><ele>440.0</ele><time>2026-04-05T17:29:17.808Z</time></trkpt><trkpt lat="45.78782" lon="8.93096"><ele>440.0</ele><time>2026-04-05T17:29:18.808Z</time></trkpt><trkpt lat="45.7878133" lon="8.9308217"><ele>440.0</ele><time>2026-04-05T17:29:19.809Z</time></trkpt><trkpt lat="45.7878" lon="8.9306817"><ele>440.0</ele><time>2026-04-05T17:29:20.808Z</time></trkpt><trkpt lat="45.7877617" lon="8.930555"><ele>440.0</ele><time>2026-04-05T17:29:21.808Z</time></trkpt><trkpt lat="45.7877017" lon="8.930435"><ele>439.0</ele><time>2026-04-05T17:29:22.808Z</time></trkpt><trkpt lat="45.7876333" lon="8.930345"><ele>438.0</ele><time>2026-04-05T17:29:23.808Z</time></trkpt><trkpt lat="45.7875567" lon="8.930265"><ele>437.0</ele><time>2026-04-05T17:29:24.808Z</time></trkpt><trkpt lat="45.7874783" lon="8.9301783"><ele>436.0</ele><time>2026-04-05T17:29:25.808Z</time></trkpt><trkpt lat="45.7874033" lon="8.9300767"><ele>435.0</ele><time>2026-04-05T17:29:26.808Z</time></trkpt><trkpt lat="45.787345" lon="8.929955"><ele>435.0</ele><time>2026-04-05T17:29:27.808Z</time></trkpt><trkpt lat="45.787305" lon="8.9298133"><ele>435.0</ele><time>2026-04-05T17:29:28.808Z</time></trkpt><trkpt lat="45.7872717" lon="8.9296683"><ele>435.0</ele><time>2026-04-05T17:29:29.809Z</time></trkpt><trkpt lat="45.787235" lon="8.92951"><ele>435.0</ele><time>2026-04-05T17:29:30.808Z</time></trkpt><trkpt lat="45.7872" lon="8.929355"><ele>435.0</ele><time>2026-04-05T17:29:31.808Z</time></trkpt><trkpt lat="45.7871683" lon="8.9291883"><ele>435.0</ele><time>2026-04-05T17:29:32.808Z</time></trkpt><trkpt lat="45.7871483" lon="8.9290083"><ele>435.0</ele><time>2026-04-05T17:29:33.808Z</time></trkpt><trkpt lat="45.787135" lon="8.928805"><ele>435.0</ele><time>2026-04-05T17:29:34.808Z</time></trkpt><trkpt lat="45.787115" lon="8.9286"><ele>435.0</ele><time>2026-04-05T17:29:35.808Z</time></trkpt><trkpt lat="45.78709" lon="8.928405"><ele>434.66666666666663</ele><time>2026-04-05T17:29:36.808Z</time></trkpt><trkpt lat="45.78705" lon="8.9281933"><ele>434.3333333333333</ele><time>2026-04-05T17:29:37.808Z</time></trkpt><trkpt lat="45.7870083" lon="8.9279583"><ele>434.0</ele><time>2026-04-05T17:29:38.808Z</time></trkpt><trkpt lat="45.7869717" lon="8.9277033"><ele>433.66666666666663</ele><time>2026-04-05T17:29:39.808Z</time></trkpt><trkpt lat="45.7869467" lon="8.927435"><ele>433.33333333333337</ele><time>2026-04-05T17:29:40.808Z</time></trkpt><trkpt lat="45.7869133" lon="8.9271783"><ele>433.0</ele><time>2026-04-05T17:29:41.808Z</time></trkpt><trkpt lat="45.786885" lon="8.92693"><ele>432.6666666666667</ele><time>2026-04-05T17:29:42.809Z</time></trkpt><trkpt lat="45.7868583" lon="8.92669"><ele>432.33333333333337</ele><time>2026-04-05T17:29:43.808Z</time></trkpt><trkpt lat="45.7868283" lon="8.9264683"><ele>432.0</ele><time>2026-04-05T17:29:44.809Z</time></trkpt><trkpt lat="45.786795" lon="8.9262467"><ele>432.0</ele><time>2026-04-05T17:29:45.808Z</time></trkpt><trkpt lat="45.7867717" lon="8.9260267"><ele>432.0</ele><time>2026-04-05T17:29:46.808Z</time></trkpt><trkpt lat="45.78675" lon="8.9258117"><ele>432.0</ele><time>2026-04-05T17:29:47.808Z</time></trkpt><trkpt lat="45.7867267" lon="8.9256"><ele>432.0</ele><time>2026-04-05T17:29:48.809Z</time></trkpt><trkpt lat="45.7866933" lon="8.9253767"><ele>432.0</ele><time>2026-04-05T17:29:49.808Z</time></trkpt><trkpt lat="45.7866617" lon="8.925145"><ele>432.0</ele><time>2026-04-05T17:29:50.809Z</time></trkpt><trkpt lat="45.78663" lon="8.9248917"><ele>431.66666666666663</ele><time>2026-04-05T17:29:51.808Z</time></trkpt><trkpt lat="45.7865933" lon="8.92463"><ele>431.3333333333333</ele><time>2026-04-05T17:29:52.808Z</time></trkpt><trkpt lat="45.786565" lon="8.9243517"><ele>431.0</ele><time>2026-04-05T17:29:53.808Z</time></trkpt><trkpt lat="45.78654" lon="8.9240817"><ele>431.66666666666663</ele><time>2026-04-05T17:29:54.808Z</time></trkpt><trkpt lat="45.786515" lon="8.9238083"><ele>432.33333333333337</ele><time>2026-04-05T17:29:55.808Z</time></trkpt><trkpt lat="45.7864867" lon="8.9235233"><ele>433.0</ele><time>2026-04-05T17:29:56.808Z</time></trkpt><trkpt lat="45.78645" lon="8.9232467"><ele>433.0</ele><time>2026-04-05T17:29:57.808Z</time></trkpt><trkpt lat="45.786415" lon="8.9229667"><ele>433.0</ele><time>2026-04-05T17:29:58.809Z</time></trkpt><trkpt lat="45.78638" lon="8.9226933"><ele>433.0</ele><time>2026-04-05T17:29:59.809Z</time></trkpt><trkpt lat="45.7863467" lon="8.9224317"><ele>433.0</ele><time>2026-04-05T17:30:00.808Z</time></trkpt><trkpt lat="45.78631" lon="8.92217"><ele>433.0</ele><time>2026-04-05T17:30:01.809Z</time></trkpt><trkpt lat="45.786275" lon="8.9219083"><ele>433.0</ele><time>2026-04-05T17:30:02.808Z</time></trkpt><trkpt lat="45.7862467" lon="8.921645"><ele>432.0</ele><time>2026-04-05T17:30:03.809Z</time></trkpt><trkpt lat="45.7862217" lon="8.9213883"><ele>431.0</ele><time>2026-04-05T17:30:04.808Z</time></trkpt><trkpt lat="45.786195" lon="8.9211283"><ele>430.0</ele><time>2026-04-05T17:30:05.809Z</time></trkpt><trkpt lat="45.786175" lon="8.9208683"><ele>428.0</ele><time>2026-04-05T17:30:06.809Z</time></trkpt><trkpt lat="45.7861433" lon="8.920605"><ele>426.0</ele><time>2026-04-05T17:30:07.808Z</time></trkpt><trkpt lat="45.7861083" lon="8.9203567"><ele>424.0</ele><time>2026-04-05T17:30:08.808Z</time></trkpt><trkpt lat="45.7860733" lon="8.9201033"><ele>423.6666666666667</ele><time>2026-04-05T17:30:09.808Z</time></trkpt><trkpt lat="45.78603" lon="8.9198467"><ele>423.33333333333337</ele><time>2026-04-05T17:30:10.808Z</time></trkpt><trkpt lat="45.785985" lon="8.9195617"><ele>423.0</ele><time>2026-04-05T17:30:11.808Z</time></trkpt><trkpt lat="45.785955" lon="8.9192617"><ele>423.0</ele><time>2026-04-05T17:30:12.808Z</time></trkpt><trkpt lat="45.785925" lon="8.91896"><ele>423.0</ele><time>2026-04-05T17:30:13.808Z</time></trkpt><trkpt lat="45.7858983" lon="8.9186517"><ele>423.0</ele><time>2026-04-05T17:30:14.808Z</time></trkpt><trkpt lat="45.785865" lon="8.9183483"><ele>423.0</ele><time>2026-04-05T17:30:15.808Z</time></trkpt><trkpt lat="45.7858283" lon="8.9180567"><ele>423.0</ele><time>2026-04-05T17:30:16.808Z</time></trkpt><trkpt lat="45.7857983" lon="8.9177867"><ele>423.0</ele><time>2026-04-05T17:30:17.808Z</time></trkpt><trkpt lat="45.7857667" lon="8.91751"><ele>423.0</ele><time>2026-04-05T17:30:18.808Z</time></trkpt><trkpt lat="45.785735" lon="8.9172367"><ele>423.0</ele><time>2026-04-05T17:30:19.809Z</time></trkpt><trkpt lat="45.7857067" lon="8.916955"><ele>423.0</ele><time>2026-04-05T17:30:20.808Z</time></trkpt><trkpt lat="45.7856883" lon="8.9166833"><ele>420.66666666666663</ele><time>2026-04-05T17:30:21.808Z</time></trkpt><trkpt lat="45.7856733" lon="8.9164283"><ele>418.3333333333333</ele><time>2026-04-05T17:30:22.808Z</time></trkpt><trkpt lat="45.7856683" lon="8.91617"><ele>416.0</ele><time>2026-04-05T17:30:23.808Z</time></trkpt><trkpt lat="45.7856617" lon="8.9159067"><ele>414.3333333333333</ele><time>2026-04-05T17:30:24.809Z</time></trkpt><trkpt lat="45.7856633" lon="8.9156333"><ele>412.66666666666663</ele><time>2026-04-05T17:30:25.808Z</time></trkpt><trkpt lat="45.7856617" lon="8.9153633"><ele>411.0</ele><time>2026-04-05T17:30:26.808Z</time></trkpt><trkpt lat="45.785665" lon="8.9150767"><ele>409.33333333333337</ele><time>2026-04-05T17:30:27.808Z</time></trkpt><trkpt lat="45.78566" lon="8.9147867"><ele>407.6666666666667</ele><time>2026-04-05T17:30:28.808Z</time></trkpt><trkpt lat="45.785655" lon="8.9145033"><ele>406.0</ele><time>2026-04-05T17:30:29.809Z</time></trkpt><trkpt lat="45.785655" lon="8.9142267"><ele>402.0</ele><time>2026-04-05T17:30:30.808Z</time></trkpt><trkpt lat="45.7856583" lon="8.9139617"><ele>398.0</ele><time>2026-04-05T17:30:31.808Z</time></trkpt><trkpt lat="45.785665" lon="8.9136983"><ele>394.0</ele><time>2026-04-05T17:30:32.808Z</time></trkpt><trkpt lat="45.785665" lon="8.91346"><ele>393.6666666666667</ele><time>2026-04-05T17:30:33.808Z</time></trkpt><trkpt lat="45.785665" lon="8.9132217"><ele>393.33333333333337</ele><time>2026-04-05T17:30:34.809Z</time></trkpt><trkpt lat="45.7856683" lon="8.9130017"><ele>393.0</ele><time>2026-04-05T17:30:35.808Z</time></trkpt><trkpt lat="45.7856717" lon="8.9128"><ele>393.0</ele><time>2026-04-05T17:30:36.808Z</time></trkpt><trkpt lat="45.7856917" lon="8.9125983"><ele>393.0</ele><time>2026-04-05T17:30:37.808Z</time></trkpt><trkpt lat="45.7857283" lon="8.9124133"><ele>393.0</ele><time>2026-04-05T17:30:38.808Z</time></trkpt><trkpt lat="45.7857833" lon="8.91225"><ele>393.0</ele><time>2026-04-05T17:30:39.808Z</time></trkpt><trkpt lat="45.7858433" lon="8.912105"><ele>392.59999999999997</ele><time>2026-04-05T17:30:40.808Z</time></trkpt><trkpt lat="45.7858933" lon="8.9119617"><ele>392.2</ele><time>2026-04-05T17:30:41.808Z</time></trkpt><trkpt lat="45.78592" lon="8.91182"><ele>391.8</ele><time>2026-04-05T17:30:42.808Z</time></trkpt><trkpt lat="45.7859083" lon="8.9116717"><ele>391.4</ele><time>2026-04-05T17:30:43.809Z</time></trkpt><trkpt lat="45.7858733" lon="8.9115017"><ele>391.0</ele><time>2026-04-05T17:30:44.808Z</time></trkpt><trkpt lat="45.7858317" lon="8.9113067"><ele>389.6666666666667</ele><time>2026-04-05T17:30:45.808Z</time></trkpt><trkpt lat="45.7857967" lon="8.9110867"><ele>388.33333333333337</ele><time>2026-04-05T17:30:46.808Z</time></trkpt><trkpt lat="45.7857817" lon="8.9108483"><ele>387.0</ele><time>2026-04-05T17:30:47.809Z</time></trkpt><trkpt lat="45.785785" lon="8.9105983"><ele>387.0</ele><time>2026-04-05T17:30:48.808Z</time></trkpt><trkpt lat="45.7858067" lon="8.91033"><ele>387.0</ele><time>2026-04-05T17:30:49.808Z</time></trkpt><trkpt lat="45.785825" lon="8.910065"><ele>387.0</ele><time>2026-04-05T17:30:50.809Z</time></trkpt><trkpt lat="45.78584" lon="8.9098067"><ele>386.33333333333337</ele><time>2026-04-05T17:30:51.808Z</time></trkpt><trkpt lat="45.78586" lon="8.909545"><ele>385.6666666666667</ele><time>2026-04-05T17:30:52.808Z</time></trkpt><trkpt lat="45.7858917" lon="8.9092883"><ele>385.0</ele><time>2026-04-05T17:30:53.809Z</time></trkpt><trkpt lat="45.785915" lon="8.9090283"><ele>383.6666666666667</ele><time>2026-04-05T17:30:54.808Z</time></trkpt><trkpt lat="45.7859367" lon="8.9087633"><ele>382.33333333333337</ele><time>2026-04-05T17:30:55.808Z</time></trkpt><trkpt lat="45.7859583" lon="8.908495"><ele>381.0</ele><time>2026-04-05T17:30:56.808Z</time></trkpt><trkpt lat="45.7859883" lon="8.90822"><ele>381.0</ele><time>2026-04-05T17:30:57.809Z</time></trkpt><trkpt lat="45.786015" lon="8.907945"><ele>381.0</ele><time>2026-04-05T17:30:58.808Z</time></trkpt><trkpt lat="45.7860467" lon="8.907675"><ele>381.0</ele><time>2026-04-05T17:30:59.808Z</time></trkpt><trkpt lat="45.7860717" lon="8.9074067"><ele>380.6666666666667</ele><time>2026-04-05T17:31:00.809Z</time></trkpt><trkpt lat="45.7860967" lon="8.9071467"><ele>380.33333333333337</ele><time>2026-04-05T17:31:01.809Z</time></trkpt><trkpt lat="45.7861217" lon="8.906895"><ele>380.0</ele><time>2026-04-05T17:31:02.808Z</time></trkpt><trkpt lat="45.7861433" lon="8.9066517"><ele>379.33333333333337</ele><time>2026-04-05T17:31:03.809Z</time></trkpt><trkpt lat="45.7861683" lon="8.906415"><ele>378.6666666666667</ele><time>2026-04-05T17:31:04.808Z</time></trkpt><trkpt lat="45.7861917" lon="8.9061817"><ele>378.0</ele><time>2026-04-05T17:31:05.809Z</time></trkpt><trkpt lat="45.7862133" lon="8.9059483"><ele>377.6666666666667</ele><time>2026-04-05T17:31:06.808Z</time></trkpt><trkpt lat="45.7862417" lon="8.905715"><ele>377.33333333333337</ele><time>2026-04-05T17:31:07.808Z</time></trkpt><trkpt lat="45.78627" lon="8.905475"><ele>377.0</ele><time>2026-04-05T17:31:08.808Z</time></trkpt><trkpt lat="45.786295" lon="8.9052333"><ele>377.0</ele><time>2026-04-05T17:31:09.808Z</time></trkpt><trkpt lat="45.7863233" lon="8.9049917"><ele>377.0</ele><time>2026-04-05T17:31:10.808Z</time></trkpt><trkpt lat="45.78635" lon="8.90476"><ele>377.0</ele><time>2026-04-05T17:31:11.809Z</time></trkpt><trkpt lat="45.7863717" lon="8.9045283"><ele>377.0</ele><time>2026-04-05T17:31:12.808Z</time></trkpt><trkpt lat="45.7863933" lon="8.904315"><ele>377.0</ele><time>2026-04-05T17:31:13.808Z</time></trkpt><trkpt lat="45.7864117" lon="8.9041083"><ele>377.0</ele><time>2026-04-05T17:31:14.808Z</time></trkpt><trkpt lat="45.7864283" lon="8.9039083"><ele>377.0</ele><time>2026-04-05T17:31:15.808Z</time></trkpt><trkpt lat="45.786445" lon="8.9037133"><ele>376.75</ele><time>2026-04-05T17:31:16.808Z</time></trkpt><trkpt lat="45.7864633" lon="8.9035333"><ele>376.5</ele><time>2026-04-05T17:31:17.808Z</time></trkpt><trkpt lat="45.7864767" lon="8.9033483"><ele>376.25</ele><time>2026-04-05T17:31:18.808Z</time></trkpt><trkpt lat="45.78649" lon="8.90318"><ele>376.0</ele><time>2026-04-05T17:31:19.809Z</time></trkpt><trkpt lat="45.7865033" lon="8.9030183"><ele>375.8</ele><time>2026-04-05T17:31:20.808Z</time></trkpt><trkpt lat="45.7865217" lon="8.90287"><ele>375.6</ele><time>2026-04-05T17:31:21.809Z</time></trkpt><trkpt lat="45.7865367" lon="8.902715"><ele>375.4</ele><time>2026-04-05T17:31:22.808Z</time></trkpt><trkpt lat="45.7865517" lon="8.902565"><ele>375.2</ele><time>2026-04-05T17:31:23.809Z</time></trkpt><trkpt lat="45.78656" lon="8.9024233"><ele>375.0</ele><time>2026-04-05T17:31:24.808Z</time></trkpt><trkpt lat="45.78658" lon="8.9022933"><ele>374.6666666666667</ele><time>2026-04-05T17:31:25.809Z</time></trkpt><trkpt lat="45.7866117" lon="8.902175"><ele>374.3333333333333</ele><time>2026-04-05T17:31:26.809Z</time></trkpt><trkpt lat="45.7866433" lon="8.9020767"><ele>374.0</ele><time>2026-04-05T17:31:27.808Z</time></trkpt><trkpt lat="45.7866517" lon="8.901985"><ele>373.66666666666663</ele><time>2026-04-05T17:31:28.808Z</time></trkpt><trkpt lat="45.7865833" lon="8.9018683"><ele>373.3333333333333</ele><time>2026-04-05T17:31:30.809Z</time></trkpt><trkpt lat="45.7865117" lon="8.9018683"><ele>373.0</ele><time>2026-04-05T17:31:31.808Z</time></trkpt><trkpt lat="45.78643" lon="8.9018783"><ele>373.0</ele><time>2026-04-05T17:31:32.808Z</time></trkpt><trkpt lat="45.7863367" lon="8.9018533"><ele>373.0</ele><time>2026-04-05T17:31:33.808Z</time></trkpt><trkpt lat="45.7862183" lon="8.9017983"><ele>373.0</ele><time>2026-04-05T17:31:34.808Z</time></trkpt><trkpt lat="45.786085" lon="8.90173"><ele>373.0</ele><time>2026-04-05T17:31:35.808Z</time></trkpt><trkpt lat="45.7859517" lon="8.9016467"><ele>373.0</ele><time>2026-04-05T17:31:36.808Z</time></trkpt><trkpt lat="45.78581" lon="8.901565"><ele>373.0</ele><time>2026-04-05T17:31:37.808Z</time></trkpt><trkpt lat="45.785675" lon="8.9014783"><ele>373.0</ele><time>2026-04-05T17:31:38.808Z</time></trkpt><trkpt lat="45.7855533" lon="8.90138"><ele>373.0</ele><time>2026-04-05T17:31:39.808Z</time></trkpt><trkpt lat="45.7854367" lon="8.9012833"><ele>373.0</ele><time>2026-04-05T17:31:40.808Z</time></trkpt><trkpt lat="45.785335" lon="8.9011883"><ele>373.0</ele><time>2026-04-05T17:31:41.808Z</time></trkpt><trkpt lat="45.7852283" lon="8.90109"><ele>373.0</ele><time>2026-04-05T17:31:42.809Z</time></trkpt><trkpt lat="45.7851233" lon="8.9009733"><ele>373.0</ele><time>2026-04-05T17:31:43.808Z</time></trkpt><trkpt lat="45.7850133" lon="8.9008483"><ele>372.0</ele><time>2026-04-05T17:31:44.808Z</time></trkpt><trkpt lat="45.7848883" lon="8.9007133"><ele>371.0</ele><time>2026-04-05T17:31:45.808Z</time></trkpt><trkpt lat="45.7847633" lon="8.9005633"><ele>370.0</ele><time>2026-04-05T17:31:46.808Z</time></trkpt><trkpt lat="45.78463" lon="8.9004133"><ele>370.0</ele><time>2026-04-05T17:31:47.809Z</time></trkpt><trkpt lat="45.7844983" lon="8.900265"><ele>370.0</ele><time>2026-04-05T17:31:48.808Z</time></trkpt><trkpt lat="45.7843783" lon="8.9001267"><ele>370.0</ele><time>2026-04-05T17:31:49.808Z</time></trkpt><trkpt lat="45.784265" lon="8.8999933"><ele>369.5</ele><time>2026-04-05T17:31:50.808Z</time></trkpt><trkpt lat="45.7841567" lon="8.899865"><ele>369.0</ele><time>2026-04-05T17:31:51.808Z</time></trkpt><trkpt lat="45.7840433" lon="8.89974"><ele>368.5</ele><time>2026-04-05T17:31:52.808Z</time></trkpt><trkpt lat="45.7839317" lon="8.89962"><ele>368.0</ele><time>2026-04-05T17:31:53.809Z</time></trkpt><trkpt lat="45.78381" lon="8.8994983"><ele>368.0</ele><time>2026-04-05T17:31:54.808Z</time></trkpt><trkpt lat="45.7836917" lon="8.899375"><ele>368.0</ele><time>2026-04-05T17:31:55.808Z</time></trkpt><trkpt lat="45.78357" lon="8.8992383"><ele>368.0</ele><time>2026-04-05T17:31:56.809Z</time></trkpt><trkpt lat="45.78345" lon="8.8991017"><ele>367.75</ele><time>2026-04-05T17:31:57.808Z</time></trkpt><trkpt lat="45.783335" lon="8.8989767"><ele>367.5</ele><time>2026-04-05T17:31:58.809Z</time></trkpt><trkpt lat="45.78322" lon="8.898845"><ele>367.25</ele><time>2026-04-05T17:31:59.808Z</time></trkpt><trkpt lat="45.7831083" lon="8.8987067"><ele>367.0</ele><time>2026-04-05T17:32:00.808Z</time></trkpt><trkpt lat="45.7830017" lon="8.89856"><ele>367.75</ele><time>2026-04-05T17:32:01.808Z</time></trkpt><trkpt lat="45.7829117" lon="8.8984133"><ele>368.5</ele><time>2026-04-05T17:32:02.808Z</time></trkpt><trkpt lat="45.782835" lon="8.89826"><ele>369.25</ele><time>2026-04-05T17:32:03.808Z</time></trkpt><trkpt lat="45.7827617" lon="8.8980933"><ele>370.0</ele><time>2026-04-05T17:32:04.808Z</time></trkpt><trkpt lat="45.7827033" lon="8.8979233"><ele>370.25</ele><time>2026-04-05T17:32:05.808Z</time></trkpt><trkpt lat="45.7826533" lon="8.8977333"><ele>370.5</ele><time>2026-04-05T17:32:06.808Z</time></trkpt><trkpt lat="45.78261" lon="8.89753"><ele>370.75</ele><time>2026-04-05T17:32:07.808Z</time></trkpt><trkpt lat="45.782565" lon="8.897325"><ele>371.0</ele><time>2026-04-05T17:32:08.808Z</time></trkpt><trkpt lat="45.78252" lon="8.8971367"><ele>370.0</ele><time>2026-04-05T17:32:09.808Z</time></trkpt><trkpt lat="45.7824683" lon="8.8969467"><ele>369.0</ele><time>2026-04-05T17:32:10.808Z</time></trkpt><trkpt lat="45.782415" lon="8.89675"><ele>368.0</ele><time>2026-04-05T17:32:11.808Z</time></trkpt><trkpt lat="45.7823567" lon="8.8965467"><ele>367.0</ele><time>2026-04-05T17:32:12.808Z</time></trkpt><trkpt lat="45.78227" lon="8.8963467"><ele>367.0</ele><time>2026-04-05T17:32:13.808Z</time></trkpt><trkpt lat="45.782185" lon="8.8961567"><ele>367.0</ele><time>2026-04-05T17:32:14.808Z</time></trkpt><trkpt lat="45.7820983" lon="8.8959717"><ele>367.0</ele><time>2026-04-05T17:32:15.808Z</time></trkpt><trkpt lat="45.782015" lon="8.89581"><ele>367.0</ele><time>2026-04-05T17:32:16.809Z</time></trkpt><trkpt lat="45.7819333" lon="8.89565"><ele>367.0</ele><time>2026-04-05T17:32:17.808Z</time></trkpt><trkpt lat="45.7818533" lon="8.8954833"><ele>367.0</ele><time>2026-04-05T17:32:18.808Z</time></trkpt><trkpt lat="45.78177" lon="8.8953067"><ele>367.0</ele><time>2026-04-05T17:32:19.808Z</time></trkpt><trkpt lat="45.7816833" lon="8.895125"><ele>367.0</ele><time>2026-04-05T17:32:20.808Z</time></trkpt><trkpt lat="45.7816" lon="8.894945"><ele>367.0</ele><time>2026-04-05T17:32:21.809Z</time></trkpt><trkpt lat="45.78152" lon="8.8947683"><ele>367.0</ele><time>2026-04-05T17:32:22.808Z</time></trkpt><trkpt lat="45.78144" lon="8.894605"><ele>367.0</ele><time>2026-04-05T17:32:23.808Z</time></trkpt><trkpt lat="45.78137" lon="8.89445"><ele>367.0</ele><time>2026-04-05T17:32:24.808Z</time></trkpt><trkpt lat="45.78129" lon="8.8943033"><ele>367.0</ele><time>2026-04-05T17:32:25.808Z</time></trkpt><trkpt lat="45.7812083" lon="8.894165"><ele>367.0</ele><time>2026-04-05T17:32:26.809Z</time></trkpt><trkpt lat="45.7811083" lon="8.8940533"><ele>367.0</ele><time>2026-04-05T17:32:27.808Z</time></trkpt><trkpt lat="45.7809833" lon="8.8939733"><ele>367.0</ele><time>2026-04-05T17:32:28.808Z</time></trkpt><trkpt lat="45.78084" lon="8.893915"><ele>367.0</ele><time>2026-04-05T17:32:29.808Z</time></trkpt><trkpt lat="45.7806933" lon="8.893865"><ele>367.0</ele><time>2026-04-05T17:32:30.808Z</time></trkpt><trkpt lat="45.780555" lon="8.893815"><ele>367.0</ele><time>2026-04-05T17:32:31.808Z</time></trkpt><trkpt lat="45.7804283" lon="8.8937483"><ele>367.0</ele><time>2026-04-05T17:32:32.808Z</time></trkpt><trkpt lat="45.7803183" lon="8.89366"><ele>367.0</ele><time>2026-04-05T17:32:33.809Z</time></trkpt><trkpt lat="45.7802067" lon="8.8935533"><ele>367.0</ele><time>2026-04-05T17:32:34.808Z</time></trkpt><trkpt lat="45.7800867" lon="8.8934217"><ele>367.0</ele><time>2026-04-05T17:32:35.808Z</time></trkpt><trkpt lat="45.779965" lon="8.893285"><ele>367.5</ele><time>2026-04-05T17:32:36.809Z</time></trkpt><trkpt lat="45.77984" lon="8.89316"><ele>368.0</ele><time>2026-04-05T17:32:37.809Z</time></trkpt><trkpt lat="45.7797283" lon="8.8930367"><ele>368.5</ele><time>2026-04-05T17:32:38.808Z</time></trkpt><trkpt lat="45.7796267" lon="8.8929117"><ele>369.0</ele><time>2026-04-05T17:32:39.809Z</time></trkpt><trkpt lat="45.77952" lon="8.892795"><ele>369.0</ele><time>2026-04-05T17:32:40.808Z</time></trkpt><trkpt lat="45.77941" lon="8.8926767"><ele>369.0</ele><time>2026-04-05T17:32:41.808Z</time></trkpt><trkpt lat="45.7792883" lon="8.8925467"><ele>369.0</ele><time>2026-04-05T17:32:42.808Z</time></trkpt><trkpt lat="45.779175" lon="8.8923917"><ele>369.0</ele><time>2026-04-05T17:32:43.809Z</time></trkpt><trkpt lat="45.7790683" lon="8.892235"><ele>368.0</ele><time>2026-04-05T17:32:44.808Z</time></trkpt><trkpt lat="45.7789667" lon="8.892085"><ele>367.0</ele><time>2026-04-05T17:32:45.809Z</time></trkpt><trkpt lat="45.778865" lon="8.891945"><ele>366.0</ele><time>2026-04-05T17:32:46.808Z</time></trkpt><trkpt lat="45.7787717" lon="8.89181"><ele>365.0</ele><time>2026-04-05T17:32:47.808Z</time></trkpt><trkpt lat="45.7786633" lon="8.8917"><ele>365.0</ele><time>2026-04-05T17:32:48.808Z</time></trkpt><trkpt lat="45.77856" lon="8.891625"><ele>365.0</ele><time>2026-04-05T17:32:49.808Z</time></trkpt><trkpt lat="45.7784467" lon="8.89156"><ele>365.0</ele><time>2026-04-05T17:32:50.809Z</time></trkpt><trkpt lat="45.7783383" lon="8.8915033"><ele>365.0</ele><time>2026-04-05T17:32:51.808Z</time></trkpt><trkpt lat="45.7782517" lon="8.89143"><ele>365.0</ele><time>2026-04-05T17:32:52.808Z</time></trkpt><trkpt lat="45.7781817" lon="8.89134"><ele>365.0</ele><time>2026-04-05T17:32:53.808Z</time></trkpt><trkpt lat="45.77811" lon="8.89126"><ele>365.0</ele><time>2026-04-05T17:32:54.809Z</time></trkpt><trkpt lat="45.77802" lon="8.8912183"><ele>365.0</ele><time>2026-04-05T17:32:55.809Z</time></trkpt><trkpt lat="45.7779117" lon="8.89121"><ele>365.0</ele><time>2026-04-05T17:32:56.809Z</time></trkpt><trkpt lat="45.7777733" lon="8.8912117"><ele>365.0</ele><time>2026-04-05T17:32:57.808Z</time></trkpt><trkpt lat="45.7776183" lon="8.8912"><ele>365.0</ele><time>2026-04-05T17:32:58.808Z</time></trkpt><trkpt lat="45.7774617" lon="8.8911983"><ele>365.0</ele><time>2026-04-05T17:32:59.808Z</time></trkpt><trkpt lat="45.77731" lon="8.8912"><ele>365.0</ele><time>2026-04-05T17:33:00.808Z</time></trkpt><trkpt lat="45.7771867" lon="8.8912017"><ele>365.0</ele><time>2026-04-05T17:33:01.808Z</time></trkpt><trkpt lat="45.7770833" lon="8.891195"><ele>365.0</ele><time>2026-04-05T17:33:02.808Z</time></trkpt><trkpt lat="45.7769983" lon="8.8912067"><ele>365.0</ele><time>2026-04-05T17:33:03.808Z</time></trkpt><trkpt lat="45.77693" lon="8.891255"><ele>365.0</ele><time>2026-04-05T17:33:04.808Z</time></trkpt><trkpt lat="45.77687" lon="8.8913467"><ele>364.75</ele><time>2026-04-05T17:33:05.808Z</time></trkpt><trkpt lat="45.7768367" lon="8.89147"><ele>364.5</ele><time>2026-04-05T17:33:06.808Z</time></trkpt><trkpt lat="45.776825" lon="8.8916317"><ele>364.25</ele><time>2026-04-05T17:33:07.808Z</time></trkpt><trkpt lat="45.7768367" lon="8.8918383"><ele>364.0</ele><time>2026-04-05T17:33:08.808Z</time></trkpt><trkpt lat="45.776835" lon="8.89204"><ele>364.0</ele><time>2026-04-05T17:33:09.808Z</time></trkpt><trkpt lat="45.7768383" lon="8.8922217"><ele>364.0</ele><time>2026-04-05T17:33:10.808Z</time></trkpt><trkpt lat="45.7768367" lon="8.892395"><ele>364.0</ele><time>2026-04-05T17:33:11.808Z</time></trkpt><trkpt lat="45.7768317" lon="8.8925433"><ele>364.0</ele><time>2026-04-05T17:33:12.809Z</time></trkpt><trkpt lat="45.7768217" lon="8.8926817"><ele>364.0</ele><time>2026-04-05T17:33:13.808Z</time></trkpt><trkpt lat="45.7767933" lon="8.8928133"><ele>364.0</ele><time>2026-04-05T17:33:14.808Z</time></trkpt><trkpt lat="45.7767533" lon="8.89292"><ele>364.0</ele><time>2026-04-05T17:33:15.809Z</time></trkpt><trkpt lat="45.7766967" lon="8.8930183"><ele>364.0</ele><time>2026-04-05T17:33:16.808Z</time></trkpt><trkpt lat="45.7766133" lon="8.8930833"><ele>364.0</ele><time>2026-04-05T17:33:17.809Z</time></trkpt><trkpt lat="45.7765133" lon="8.89312"><ele>364.0</ele><time>2026-04-05T17:33:18.808Z</time></trkpt><trkpt lat="45.7763917" lon="8.8931333"><ele>364.0</ele><time>2026-04-05T17:33:19.808Z</time></trkpt><trkpt lat="45.7762567" lon="8.89315"><ele>364.0</ele><time>2026-04-05T17:33:20.808Z</time></trkpt><trkpt lat="45.7761" lon="8.8931667"><ele>364.0</ele><time>2026-04-05T17:33:21.808Z</time></trkpt><trkpt lat="45.7759617" lon="8.8931783"><ele>364.0</ele><time>2026-04-05T17:33:22.808Z</time></trkpt><trkpt lat="45.7758333" lon="8.8931483"><ele>363.75</ele><time>2026-04-05T17:33:23.808Z</time></trkpt><trkpt lat="45.7757167" lon="8.89307"><ele>363.5</ele><time>2026-04-05T17:33:24.808Z</time></trkpt><trkpt lat="45.7756117" lon="8.89297"><ele>363.25</ele><time>2026-04-05T17:33:25.808Z</time></trkpt><trkpt lat="45.7755183" lon="8.8928533"><ele>363.0</ele><time>2026-04-05T17:33:26.808Z</time></trkpt><trkpt lat="45.7754433" lon="8.8927317"><ele>363.0</ele><time>2026-04-05T17:33:27.808Z</time></trkpt><trkpt lat="45.7753583" lon="8.8926333"><ele>363.0</ele><time>2026-04-05T17:33:28.808Z</time></trkpt><trkpt lat="45.7752683" lon="8.8925833"><ele>363.0</ele><time>2026-04-05T17:33:29.808Z</time></trkpt><trkpt lat="45.7751683" lon="8.8925983"><ele>363.0</ele><time>2026-04-05T17:33:30.809Z</time></trkpt><trkpt lat="45.7750467" lon="8.8926467"><ele>363.0</ele><time>2026-04-05T17:33:31.808Z</time></trkpt><trkpt lat="45.7749133" lon="8.8926933"><ele>362.75</ele><time>2026-04-05T17:33:32.808Z</time></trkpt><trkpt lat="45.774765" lon="8.8927433"><ele>362.5</ele><time>2026-04-05T17:33:33.808Z</time></trkpt><trkpt lat="45.7746217" lon="8.892795"><ele>362.25</ele><time>2026-04-05T17:33:34.808Z</time></trkpt><trkpt lat="45.774485" lon="8.89284"><ele>362.0</ele><time>2026-04-05T17:33:35.808Z</time></trkpt><trkpt lat="45.7743483" lon="8.8928833"><ele>361.5</ele><time>2026-04-05T17:33:36.809Z</time></trkpt><trkpt lat="45.7742117" lon="8.89293"><ele>361.0</ele><time>2026-04-05T17:33:37.809Z</time></trkpt><trkpt lat="45.7740917" lon="8.8929683"><ele>360.5</ele><time>2026-04-05T17:33:38.808Z</time></trkpt><trkpt lat="45.7739767" lon="8.8929967"><ele>360.0</ele><time>2026-04-05T17:33:39.808Z</time></trkpt><trkpt lat="45.7738717" lon="8.8930233"><ele>360.0</ele><time>2026-04-05T17:33:40.808Z</time></trkpt><trkpt lat="45.77379" lon="8.893055"><ele>360.0</ele><time>2026-04-05T17:33:41.808Z</time></trkpt><trkpt lat="45.773715" lon="8.89308"><ele>360.0</ele><time>2026-04-05T17:33:42.809Z</time></trkpt><trkpt lat="45.77364" lon="8.8931083"><ele>360.0</ele><time>2026-04-05T17:33:43.809Z</time></trkpt><trkpt lat="45.7735733" lon="8.8931383"><ele>360.0</ele><time>2026-04-05T17:33:44.809Z</time></trkpt><trkpt lat="45.7735083" lon="8.893155"><ele>360.0</ele><time>2026-04-05T17:33:45.808Z</time></trkpt><trkpt lat="45.773445" lon="8.893175"><ele>360.0</ele><time>2026-04-05T17:33:46.808Z</time></trkpt><trkpt lat="45.7733283" lon="8.8932067"><ele>360.3333333333333</ele><time>2026-04-05T17:33:48.809Z</time></trkpt><trkpt lat="45.7732533" lon="8.893195"><ele>360.6666666666667</ele><time>2026-04-05T17:33:49.808Z</time></trkpt><trkpt lat="45.7731917" lon="8.89313"><ele>361.0</ele><time>2026-04-05T17:33:50.808Z</time></trkpt><trkpt lat="45.773155" lon="8.8930317"><ele>361.33333333333337</ele><time>2026-04-05T17:33:51.808Z</time></trkpt><trkpt lat="45.7731333" lon="8.8928983"><ele>361.6666666666667</ele><time>2026-04-05T17:33:52.808Z</time></trkpt><trkpt lat="45.7731317" lon="8.89274"><ele>362.0</ele><time>2026-04-05T17:33:53.808Z</time></trkpt><trkpt lat="45.773135" lon="8.892575"><ele>362.0</ele><time>2026-04-05T17:33:54.808Z</time></trkpt><trkpt lat="45.7731267" lon="8.89241"><ele>362.0</ele><time>2026-04-05T17:33:55.808Z</time></trkpt><trkpt lat="45.773115" lon="8.892245"><ele>362.0</ele><time>2026-04-05T17:33:56.809Z</time></trkpt><trkpt lat="45.7731067" lon="8.8920683"><ele>362.0</ele><time>2026-04-05T17:33:57.809Z</time></trkpt><trkpt lat="45.7731067" lon="8.8918933"><ele>361.6</ele><time>2026-04-05T17:33:58.809Z</time></trkpt><trkpt lat="45.77311" lon="8.891735"><ele>361.20000000000005</ele><time>2026-04-05T17:33:59.808Z</time></trkpt><trkpt lat="45.77311" lon="8.89159"><ele>360.8</ele><time>2026-04-05T17:34:00.808Z</time></trkpt><trkpt lat="45.7731133" lon="8.8914317"><ele>360.4</ele><time>2026-04-05T17:34:01.808Z</time></trkpt><trkpt lat="45.7731133" lon="8.89127"><ele>360.0</ele><time>2026-04-05T17:34:02.808Z</time></trkpt><trkpt lat="45.77311" lon="8.8911067"><ele>360.0</ele><time>2026-04-05T17:34:03.808Z</time></trkpt><trkpt lat="45.77311" lon="8.8909317"><ele>360.0</ele><time>2026-04-05T17:34:04.809Z</time></trkpt><trkpt lat="45.7731133" lon="8.8907433"><ele>360.0</ele><time>2026-04-05T17:34:05.808Z</time></trkpt><trkpt lat="45.773115" lon="8.8905517"><ele>360.0</ele><time>2026-04-05T17:34:06.808Z</time></trkpt><trkpt lat="45.773115" lon="8.8903567"><ele>360.0</ele><time>2026-04-05T17:34:07.808Z</time></trkpt><trkpt lat="45.773115" lon="8.8901617"><ele>360.0</ele><time>2026-04-05T17:34:08.808Z</time></trkpt><trkpt lat="45.77311" lon="8.889955"><ele>360.0</ele><time>2026-04-05T17:34:09.808Z</time></trkpt><trkpt lat="45.7731083" lon="8.8897317"><ele>360.0</ele><time>2026-04-05T17:34:10.808Z</time></trkpt><trkpt lat="45.77311" lon="8.8894783"><ele>359.0</ele><time>2026-04-05T17:34:11.809Z</time></trkpt><trkpt lat="45.7731067" lon="8.8892117"><ele>358.0</ele><time>2026-04-05T17:34:12.808Z</time></trkpt><trkpt lat="45.7731033" lon="8.88894"><ele>357.0</ele><time>2026-04-05T17:34:13.809Z</time></trkpt><trkpt lat="45.7731033" lon="8.888675"><ele>357.0</ele><time>2026-04-05T17:34:14.808Z</time></trkpt><trkpt lat="45.773105" lon="8.88844"><ele>357.0</ele><time>2026-04-05T17:34:15.808Z</time></trkpt><trkpt lat="45.7731117" lon="8.88823"><ele>357.0</ele><time>2026-04-05T17:34:16.808Z</time></trkpt><trkpt lat="45.7731133" lon="8.8880167"><ele>356.75</ele><time>2026-04-05T17:34:17.809Z</time></trkpt><trkpt lat="45.7731133" lon="8.887825"><ele>356.5</ele><time>2026-04-05T17:34:18.808Z</time></trkpt><trkpt lat="45.773115" lon="8.8876467"><ele>356.25</ele><time>2026-04-05T17:34:19.808Z</time></trkpt><trkpt lat="45.773115" lon="8.8874767"><ele>356.0</ele><time>2026-04-05T17:34:20.808Z</time></trkpt><trkpt lat="45.7731183" lon="8.8873"><ele>355.75</ele><time>2026-04-05T17:34:21.808Z</time></trkpt><trkpt lat="45.7731183" lon="8.8871217"><ele>355.5</ele><time>2026-04-05T17:34:22.808Z</time></trkpt><trkpt lat="45.7731217" lon="8.886935"><ele>355.25</ele><time>2026-04-05T17:34:23.808Z</time></trkpt><trkpt lat="45.77312" lon="8.8867483"><ele>355.0</ele><time>2026-04-05T17:34:24.808Z</time></trkpt><trkpt lat="45.7731217" lon="8.88656"><ele>355.75</ele><time>2026-04-05T17:34:25.808Z</time></trkpt><trkpt lat="45.77312" lon="8.8863683"><ele>356.5</ele><time>2026-04-05T17:34:26.809Z</time></trkpt><trkpt lat="45.773125" lon="8.8861883"><ele>357.25</ele><time>2026-04-05T17:34:27.808Z</time></trkpt><trkpt lat="45.7731383" lon="8.8860183"><ele>358.0</ele><time>2026-04-05T17:34:28.808Z</time></trkpt><trkpt lat="45.7731517" lon="8.8858583"><ele>358.0</ele><time>2026-04-05T17:34:29.808Z</time></trkpt><trkpt lat="45.7731667" lon="8.8857067"><ele>358.0</ele><time>2026-04-05T17:34:30.808Z</time></trkpt><trkpt lat="45.77318" lon="8.885565"><ele>358.0</ele><time>2026-04-05T17:34:31.808Z</time></trkpt><trkpt lat="45.773195" lon="8.885435"><ele>358.0</ele><time>2026-04-05T17:34:32.808Z</time></trkpt><trkpt lat="45.7732033" lon="8.8853017"><ele>358.0</ele><time>2026-04-05T17:34:33.809Z</time></trkpt><trkpt lat="45.7732067" lon="8.885165"><ele>357.66666666666663</ele><time>2026-04-05T17:34:34.808Z</time></trkpt><trkpt lat="45.7732167" lon="8.88505"><ele>357.3333333333333</ele><time>2026-04-05T17:34:35.808Z</time></trkpt><trkpt lat="45.7732433" lon="8.88494"><ele>357.0</ele><time>2026-04-05T17:34:36.808Z</time></trkpt><trkpt lat="45.7732833" lon="8.88485"><ele>356.6666666666667</ele><time>2026-04-05T17:34:37.808Z</time></trkpt><trkpt lat="45.7733333" lon="8.88479"><ele>356.33333333333337</ele><time>2026-04-05T17:34:38.808Z</time></trkpt><trkpt lat="45.7734467" lon="8.8847683"><ele>356.0</ele><time>2026-04-05T17:34:40.808Z</time></trkpt><trkpt lat="45.7735117" lon="8.8847917"><ele>357.0</ele><time>2026-04-05T17:34:41.808Z</time></trkpt><trkpt lat="45.7736317" lon="8.884815"><ele>358.0</ele><time>2026-04-05T17:34:43.808Z</time></trkpt><trkpt lat="45.7737317" lon="8.88473"><ele>359.0</ele><time>2026-04-05T17:34:45.808Z</time></trkpt><trkpt lat="45.773755" lon="8.8845317"><ele>360.0</ele><time>2026-04-05T17:34:47.808Z</time></trkpt><trkpt lat="45.77373" lon="8.884375"><ele>360.3333333333333</ele><time>2026-04-05T17:34:48.808Z</time></trkpt><trkpt lat="45.773685" lon="8.8841817"><ele>360.66666666666663</ele><time>2026-04-05T17:34:49.808Z</time></trkpt><trkpt lat="45.77364" lon="8.8839383"><ele>361.0</ele><time>2026-04-05T17:34:50.808Z</time></trkpt><trkpt lat="45.7736117" lon="8.8836883"><ele>360.3333333333333</ele><time>2026-04-05T17:34:51.809Z</time></trkpt><trkpt lat="45.7735817" lon="8.8834267"><ele>359.6666666666667</ele><time>2026-04-05T17:34:52.808Z</time></trkpt><trkpt lat="45.77355" lon="8.8831683"><ele>359.0</ele><time>2026-04-05T17:34:53.809Z</time></trkpt><trkpt lat="45.7735183" lon="8.8829417"><ele>359.0</ele><time>2026-04-05T17:34:54.808Z</time></trkpt><trkpt lat="45.7734883" lon="8.8827283"><ele>359.0</ele><time>2026-04-05T17:34:55.808Z</time></trkpt><trkpt lat="45.7734567" lon="8.8825267"><ele>359.0</ele><time>2026-04-05T17:34:56.808Z</time></trkpt><trkpt lat="45.773425" lon="8.88233"><ele>359.0</ele><time>2026-04-05T17:34:57.808Z</time></trkpt><trkpt lat="45.7733967" lon="8.8821383"><ele>359.0</ele><time>2026-04-05T17:34:58.808Z</time></trkpt><trkpt lat="45.7733717" lon="8.88194"><ele>359.0</ele><time>2026-04-05T17:34:59.808Z</time></trkpt><trkpt lat="45.7733433" lon="8.8817383"><ele>359.0</ele><time>2026-04-05T17:35:00.809Z</time></trkpt><trkpt lat="45.77331" lon="8.8815417"><ele>359.0</ele><time>2026-04-05T17:35:01.809Z</time></trkpt><trkpt lat="45.773275" lon="8.8813383"><ele>359.25</ele><time>2026-04-05T17:35:02.809Z</time></trkpt><trkpt lat="45.7732483" lon="8.8811333"><ele>359.5</ele><time>2026-04-05T17:35:03.808Z</time></trkpt><trkpt lat="45.773225" lon="8.8809183"><ele>359.75</ele><time>2026-04-05T17:35:04.808Z</time></trkpt><trkpt lat="45.7732033" lon="8.8807033"><ele>360.0</ele><time>2026-04-05T17:35:05.808Z</time></trkpt><trkpt lat="45.7731833" lon="8.88048"><ele>360.0</ele><time>2026-04-05T17:35:06.809Z</time></trkpt><trkpt lat="45.773175" lon="8.880255"><ele>360.0</ele><time>2026-04-05T17:35:07.808Z</time></trkpt><trkpt lat="45.773145" lon="8.8800383"><ele>360.0</ele><time>2026-04-05T17:35:08.808Z</time></trkpt><trkpt lat="45.77313" lon="8.87983"><ele>359.75</ele><time>2026-04-05T17:35:09.808Z</time></trkpt><trkpt lat="45.77312" lon="8.8796217"><ele>359.5</ele><time>2026-04-05T17:35:10.808Z</time></trkpt><trkpt lat="45.773095" lon="8.8794167"><ele>359.25</ele><time>2026-04-05T17:35:11.809Z</time></trkpt><trkpt lat="45.7730683" lon="8.8791967"><ele>359.0</ele><time>2026-04-05T17:35:12.808Z</time></trkpt><trkpt lat="45.7730533" lon="8.8789833"><ele>359.0</ele><time>2026-04-05T17:35:13.808Z</time></trkpt><trkpt lat="45.773025" lon="8.8787733"><ele>359.0</ele><time>2026-04-05T17:35:14.808Z</time></trkpt><trkpt lat="45.77301" lon="8.8785867"><ele>359.0</ele><time>2026-04-05T17:35:15.809Z</time></trkpt><trkpt lat="45.7730033" lon="8.87839"><ele>359.0</ele><time>2026-04-05T17:35:16.808Z</time></trkpt><trkpt lat="45.772985" lon="8.87822"><ele>359.0</ele><time>2026-04-05T17:35:17.809Z</time></trkpt><trkpt lat="45.772965" lon="8.8780783"><ele>359.0</ele><time>2026-04-05T17:35:18.808Z</time></trkpt><trkpt lat="45.77295" lon="8.8779633"><ele>359.0</ele><time>2026-04-05T17:35:19.808Z</time></trkpt><trkpt lat="45.7729567" lon="8.8777917"><ele>359.0</ele><time>2026-04-05T17:35:21.808Z</time></trkpt><trkpt lat="45.7729533" lon="8.8776083"><ele>359.0</ele><time>2026-04-05T17:35:23.809Z</time></trkpt><trkpt lat="45.7729267" lon="8.8774983"><ele>359.0</ele><time>2026-04-05T17:35:24.808Z</time></trkpt><trkpt lat="45.77288" lon="8.8773517"><ele>359.0</ele><time>2026-04-05T17:35:25.808Z</time></trkpt><trkpt lat="45.7728317" lon="8.8772"><ele>359.0</ele><time>2026-04-05T17:35:26.808Z</time></trkpt><trkpt lat="45.7727867" lon="8.8770433"><ele>359.0</ele><time>2026-04-05T17:35:27.808Z</time></trkpt><trkpt lat="45.7727417" lon="8.8768983"><ele>359.25</ele><time>2026-04-05T17:35:28.809Z</time></trkpt><trkpt lat="45.7727" lon="8.8767433"><ele>359.5</ele><time>2026-04-05T17:35:29.808Z</time></trkpt><trkpt lat="45.772665" lon="8.8765583"><ele>359.75</ele><time>2026-04-05T17:35:30.808Z</time></trkpt><trkpt lat="45.7726233" lon="8.8763817"><ele>360.0</ele><time>2026-04-05T17:35:31.808Z</time></trkpt><trkpt lat="45.7725717" lon="8.87621"><ele>360.0</ele><time>2026-04-05T17:35:32.808Z</time></trkpt><trkpt lat="45.7725267" lon="8.8760483"><ele>360.0</ele><time>2026-04-05T17:35:33.808Z</time></trkpt><trkpt lat="45.77248" lon="8.87589"><ele>360.0</ele><time>2026-04-05T17:35:34.809Z</time></trkpt><trkpt lat="45.7724333" lon="8.8757383"><ele>360.0</ele><time>2026-04-05T17:35:35.809Z</time></trkpt><trkpt lat="45.772385" lon="8.87559"><ele>359.8</ele><time>2026-04-05T17:35:36.808Z</time></trkpt><trkpt lat="45.77234" lon="8.8754517"><ele>359.6</ele><time>2026-04-05T17:35:37.808Z</time></trkpt><trkpt lat="45.7722767" lon="8.8753383"><ele>359.4</ele><time>2026-04-05T17:35:38.809Z</time></trkpt><trkpt lat="45.7721933" lon="8.87525"><ele>359.2</ele><time>2026-04-05T17:35:39.808Z</time></trkpt><trkpt lat="45.7721" lon="8.8751867"><ele>359.0</ele><time>2026-04-05T17:35:40.808Z</time></trkpt><trkpt lat="45.77199" lon="8.8751517"><ele>359.0</ele><time>2026-04-05T17:35:41.808Z</time></trkpt><trkpt lat="45.7718633" lon="8.87512"><ele>359.0</ele><time>2026-04-05T17:35:42.808Z</time></trkpt><trkpt lat="45.771725" lon="8.8750867"><ele>359.0</ele><time>2026-04-05T17:35:43.808Z</time></trkpt><trkpt lat="45.77159" lon="8.8750483"><ele>359.0</ele><time>2026-04-05T17:35:44.808Z</time></trkpt><trkpt lat="45.7714483" lon="8.8750017"><ele>354.6666666666667</ele><time>2026-04-05T17:35:45.808Z</time></trkpt><trkpt lat="45.7713" lon="8.8749383"><ele>350.3333333333333</ele><time>2026-04-05T17:35:46.808Z</time></trkpt><trkpt lat="45.7711483" lon="8.874865"><ele>346.0</ele><time>2026-04-05T17:35:47.808Z</time></trkpt><trkpt lat="45.7709833" lon="8.8747883"><ele>346.0</ele><time>2026-04-05T17:35:48.808Z</time></trkpt><trkpt lat="45.77082" lon="8.8747133"><ele>346.0</ele><time>2026-04-05T17:35:49.808Z</time></trkpt><trkpt lat="45.7706533" lon="8.87465"><ele>346.0</ele><time>2026-04-05T17:35:50.809Z</time></trkpt><trkpt lat="45.7704817" lon="8.8745867"><ele>346.0</ele><time>2026-04-05T17:35:51.808Z</time></trkpt><trkpt lat="45.7703167" lon="8.87454"><ele>346.0</ele><time>2026-04-05T17:35:52.808Z</time></trkpt><trkpt lat="45.77015" lon="8.8744967"><ele>346.0</ele><time>2026-04-05T17:35:53.808Z</time></trkpt><trkpt lat="45.76998" lon="8.8744733"><ele>347.66666666666663</ele><time>2026-04-05T17:35:54.808Z</time></trkpt><trkpt lat="45.76981" lon="8.8744617"><ele>349.3333333333333</ele><time>2026-04-05T17:35:55.809Z</time></trkpt><trkpt lat="45.7696617" lon="8.8744467"><ele>351.0</ele><time>2026-04-05T17:35:56.808Z</time></trkpt><trkpt lat="45.769515" lon="8.874425"><ele>351.0</ele><time>2026-04-05T17:35:57.808Z</time></trkpt><trkpt lat="45.7693783" lon="8.87442"><ele>351.0</ele><time>2026-04-05T17:35:58.808Z</time></trkpt><trkpt lat="45.7692383" lon="8.8744233"><ele>351.0</ele><time>2026-04-05T17:35:59.808Z</time></trkpt><trkpt lat="45.7691083" lon="8.87443"><ele>351.0</ele><time>2026-04-05T17:36:00.808Z</time></trkpt><trkpt lat="45.7689983" lon="8.874435"><ele>350.20000000000005</ele><time>2026-04-05T17:36:01.808Z</time></trkpt><trkpt lat="45.768885" lon="8.8744683"><ele>349.40000000000003</ele><time>2026-04-05T17:36:02.808Z</time></trkpt><trkpt lat="45.768795" lon="8.8745433"><ele>348.6</ele><time>2026-04-05T17:36:03.808Z</time></trkpt><trkpt lat="45.7687133" lon="8.8746283"><ele>347.8</ele><time>2026-04-05T17:36:04.808Z</time></trkpt><trkpt lat="45.76864" lon="8.8746917"><ele>347.0</ele><time>2026-04-05T17:36:05.809Z</time></trkpt><trkpt lat="45.768565" lon="8.8747"><ele>347.0</ele><time>2026-04-05T17:36:06.808Z</time></trkpt><trkpt lat="45.7685033" lon="8.8745717"><ele>347.0</ele><time>2026-04-05T17:36:08.808Z</time></trkpt><trkpt lat="45.7685067" lon="8.8744717"><ele>347.0</ele><time>2026-04-05T17:36:09.809Z</time></trkpt><trkpt lat="45.7685567" lon="8.8743883"><ele>347.0</ele><time>2026-04-05T17:36:10.808Z</time></trkpt><trkpt lat="45.768635" lon="8.8743317"><ele>347.0</ele><time>2026-04-05T17:36:11.809Z</time></trkpt><trkpt lat="45.7687383" lon="8.87432"><ele>347.0</ele><time>2026-04-05T17:36:12.808Z</time></trkpt><trkpt lat="45.76886" lon="8.87431"><ele>347.0</ele><time>2026-04-05T17:36:13.809Z</time></trkpt><trkpt lat="45.7690233" lon="8.8743217"><ele>347.0</ele><time>2026-04-05T17:36:14.808Z</time></trkpt><trkpt lat="45.76919" lon="8.8743233"><ele>347.0</ele><time>2026-04-05T17:36:15.809Z</time></trkpt><trkpt lat="45.7693433" lon="8.8743233"><ele>348.33333333333337</ele><time>2026-04-05T17:36:16.808Z</time></trkpt><trkpt lat="45.7694983" lon="8.87432"><ele>349.6666666666667</ele><time>2026-04-05T17:36:17.809Z</time></trkpt><trkpt lat="45.769665" lon="8.87431"><ele>351.0</ele><time>2026-04-05T17:36:18.809Z</time></trkpt><trkpt lat="45.7698367" lon="8.8743117"><ele>351.0</ele><time>2026-04-05T17:36:19.808Z</time></trkpt><trkpt lat="45.7700117" lon="8.8743117"><ele>351.0</ele><time>2026-04-05T17:36:20.808Z</time></trkpt><trkpt lat="45.77019" lon="8.8743183"><ele>351.0</ele><time>2026-04-05T17:36:21.808Z</time></trkpt><trkpt lat="45.7703633" lon="8.8743333"><ele>349.3333333333333</ele><time>2026-04-05T17:36:22.808Z</time></trkpt><trkpt lat="45.770535" lon="8.8743383"><ele>347.66666666666663</ele><time>2026-04-05T17:36:23.808Z</time></trkpt><trkpt lat="45.770715" lon="8.8743433"><ele>346.0</ele><time>2026-04-05T17:36:24.808Z</time></trkpt><trkpt lat="45.7708933" lon="8.87435"><ele>345.3333333333333</ele><time>2026-04-05T17:36:25.808Z</time></trkpt><trkpt lat="45.771075" lon="8.8743533"><ele>344.6666666666667</ele><time>2026-04-05T17:36:26.808Z</time></trkpt><trkpt lat="45.7712533" lon="8.874335"><ele>344.0</ele><time>2026-04-05T17:36:27.809Z</time></trkpt><trkpt lat="45.7714467" lon="8.8742917"><ele>334.0</ele><time>2026-04-05T17:36:28.808Z</time></trkpt><trkpt lat="45.7716467" lon="8.8742317"><ele>324.0</ele><time>2026-04-05T17:36:29.808Z</time></trkpt><trkpt lat="45.771845" lon="8.8741567"><ele>314.0</ele><time>2026-04-05T17:36:30.808Z</time></trkpt><trkpt lat="45.77204" lon="8.8740817"><ele>314.0</ele><time>2026-04-05T17:36:31.808Z</time></trkpt><trkpt lat="45.77225" lon="8.8739967"><ele>314.0</ele><time>2026-04-05T17:36:32.809Z</time></trkpt><trkpt lat="45.772475" lon="8.8739317"><ele>314.0</ele><time>2026-04-05T17:36:33.808Z</time></trkpt><trkpt lat="45.7727" lon="8.8738717"><ele>313.33333333333337</ele><time>2026-04-05T17:36:34.808Z</time></trkpt><trkpt lat="45.772915" lon="8.8738117"><ele>312.6666666666667</ele><time>2026-04-05T17:36:35.808Z</time></trkpt><trkpt lat="45.7731217" lon="8.8737467"><ele>312.0</ele><time>2026-04-05T17:36:36.808Z</time></trkpt><trkpt lat="45.7733217" lon="8.8736817"><ele>312.0</ele><time>2026-04-05T17:36:37.808Z</time></trkpt><trkpt lat="45.773515" lon="8.8736233"><ele>312.0</ele><time>2026-04-05T17:36:38.808Z</time></trkpt><trkpt lat="45.7736883" lon="8.8735617"><ele>312.0</ele><time>2026-04-05T17:36:39.808Z</time></trkpt><trkpt lat="45.77385" lon="8.873505"><ele>307.5</ele><time>2026-04-05T17:36:40.808Z</time></trkpt><trkpt lat="45.7739933" lon="8.8734233"><ele>303.0</ele><time>2026-04-05T17:36:41.808Z</time></trkpt><trkpt lat="45.774105" lon="8.8733083"><ele>298.5</ele><time>2026-04-05T17:36:42.809Z</time></trkpt><trkpt lat="45.7741883" lon="8.8731433"><ele>294.0</ele><time>2026-04-05T17:36:43.808Z</time></trkpt><trkpt lat="45.7742433" lon="8.87294"><ele>294.0</ele><time>2026-04-05T17:36:44.808Z</time></trkpt><trkpt lat="45.7742717" lon="8.87273"><ele>294.0</ele><time>2026-04-05T17:36:45.808Z</time></trkpt><trkpt lat="45.7742767" lon="8.8724933"><ele>294.0</ele><time>2026-04-05T17:36:46.809Z</time></trkpt><trkpt lat="45.774285" lon="8.872285"><ele>292.5</ele><time>2026-04-05T17:36:47.808Z</time></trkpt><trkpt lat="45.7743217" lon="8.8720933"><ele>291.0</ele><time>2026-04-05T17:36:48.808Z</time></trkpt><trkpt lat="45.7744033" lon="8.8719483"><ele>289.5</ele><time>2026-04-05T17:36:49.808Z</time></trkpt><trkpt lat="45.7745167" lon="8.8718283"><ele>288.0</ele><time>2026-04-05T17:36:50.809Z</time></trkpt><trkpt lat="45.7746433" lon="8.8717067"><ele>287.3333333333333</ele><time>2026-04-05T17:36:51.808Z</time></trkpt><trkpt lat="45.7747867" lon="8.8715783"><ele>286.66666666666663</ele><time>2026-04-05T17:36:52.808Z</time></trkpt><trkpt lat="45.77495" lon="8.87143"><ele>286.0</ele><time>2026-04-05T17:36:53.809Z</time></trkpt><trkpt lat="45.7751183" lon="8.8712683"><ele>286.0</ele><time>2026-04-05T17:36:54.809Z</time></trkpt><trkpt lat="45.7752867" lon="8.87111"><ele>286.0</ele><time>2026-04-05T17:36:55.808Z</time></trkpt><trkpt lat="45.7754467" lon="8.870955"><ele>286.0</ele><time>2026-04-05T17:36:56.808Z</time></trkpt><trkpt lat="45.775595" lon="8.870805"><ele>285.25</ele><time>2026-04-05T17:36:57.808Z</time></trkpt><trkpt lat="45.7757367" lon="8.87067"><ele>284.5</ele><time>2026-04-05T17:36:58.808Z</time></trkpt><trkpt lat="45.7758567" lon="8.870545"><ele>283.75</ele><time>2026-04-05T17:36:59.808Z</time></trkpt><trkpt lat="45.77596" lon="8.8704567"><ele>283.0</ele><time>2026-04-05T17:37:00.808Z</time></trkpt><trkpt lat="45.7760683" lon="8.8703933"><ele>283.0</ele><time>2026-04-05T17:37:01.809Z</time></trkpt><trkpt lat="45.7761883" lon="8.8703683"><ele>283.0</ele><time>2026-04-05T17:37:02.808Z</time></trkpt><trkpt lat="45.776315" lon="8.8703483"><ele>283.0</ele><time>2026-04-05T17:37:03.808Z</time></trkpt><trkpt lat="45.7764267" lon="8.8703117"><ele>283.0</ele><time>2026-04-05T17:37:04.808Z</time></trkpt><trkpt lat="45.7765183" lon="8.870235"><ele>283.0</ele><time>2026-04-05T17:37:05.808Z</time></trkpt><trkpt lat="45.7765817" lon="8.87012"><ele>283.0</ele><time>2026-04-05T17:37:06.808Z</time></trkpt><trkpt lat="45.7766083" lon="8.8699733"><ele>283.0</ele><time>2026-04-05T17:37:07.808Z</time></trkpt><trkpt lat="45.7765983" lon="8.8698217"><ele>283.0</ele><time>2026-04-05T17:37:08.809Z</time></trkpt><trkpt lat="45.7765567" lon="8.8696833"><ele>283.0</ele><time>2026-04-05T17:37:09.808Z</time></trkpt><trkpt lat="45.77648" lon="8.86956"><ele>282.6</ele><time>2026-04-05T17:37:10.808Z</time></trkpt><trkpt lat="45.77638" lon="8.869475"><ele>282.20000000000005</ele><time>2026-04-05T17:37:11.809Z</time></trkpt><trkpt lat="45.7762833" lon="8.8694233"><ele>281.8</ele><time>2026-04-05T17:37:12.808Z</time></trkpt><trkpt lat="45.77621" lon="8.8693683"><ele>281.40000000000003</ele><time>2026-04-05T17:37:13.808Z</time></trkpt><trkpt lat="45.77616" lon="8.8692667"><ele>281.0</ele><time>2026-04-05T17:37:14.808Z</time></trkpt><trkpt lat="45.7761167" lon="8.869135"><ele>280.75</ele><time>2026-04-05T17:37:15.808Z</time></trkpt><trkpt lat="45.7760683" lon="8.8689733"><ele>280.5</ele><time>2026-04-05T17:37:16.808Z</time></trkpt><trkpt lat="45.776025" lon="8.8688117"><ele>280.25</ele><time>2026-04-05T17:37:17.808Z</time></trkpt><trkpt lat="45.7759917" lon="8.8686417"><ele>280.0</ele><time>2026-04-05T17:37:18.808Z</time></trkpt><trkpt lat="45.7759567" lon="8.8684833"><ele>279.75</ele><time>2026-04-05T17:37:19.808Z</time></trkpt><trkpt lat="45.77592" lon="8.868315"><ele>279.5</ele><time>2026-04-05T17:37:20.808Z</time></trkpt><trkpt lat="45.7758833" lon="8.868125"><ele>279.25</ele><time>2026-04-05T17:37:21.809Z</time></trkpt><trkpt lat="45.775835" lon="8.86792"><ele>279.0</ele><time>2026-04-05T17:37:22.808Z</time></trkpt><trkpt lat="45.7757783" lon="8.8677017"><ele>279.0</ele><time>2026-04-05T17:37:23.808Z</time></trkpt><trkpt lat="45.7757017" lon="8.8674867"><ele>279.0</ele><time>2026-04-05T17:37:24.808Z</time></trkpt><trkpt lat="45.7756183" lon="8.867285"><ele>279.0</ele><time>2026-04-05T17:37:25.808Z</time></trkpt><trkpt lat="45.7755183" lon="8.867085"><ele>279.0</ele><time>2026-04-05T17:37:26.808Z</time></trkpt><trkpt lat="45.7754" lon="8.866885"><ele>279.0</ele><time>2026-04-05T17:37:27.808Z</time></trkpt><trkpt lat="45.7752667" lon="8.8666933"><ele>279.0</ele><time>2026-04-05T17:37:28.809Z</time></trkpt><trkpt lat="45.7751117" lon="8.8665033"><ele>278.3333333333333</ele><time>2026-04-05T17:37:29.809Z</time></trkpt><trkpt lat="45.7749417" lon="8.8663167"><ele>277.66666666666663</ele><time>2026-04-05T17:37:30.808Z</time></trkpt><trkpt lat="45.77477" lon="8.8661467"><ele>277.0</ele><time>2026-04-05T17:37:31.808Z</time></trkpt><trkpt lat="45.7746083" lon="8.865995"><ele>277.5</ele><time>2026-04-05T17:37:32.808Z</time></trkpt><trkpt lat="45.7744567" lon="8.86587"><ele>278.0</ele><time>2026-04-05T17:37:33.808Z</time></trkpt><trkpt lat="45.7743233" lon="8.8657733"><ele>278.5</ele><time>2026-04-05T17:37:34.808Z</time></trkpt><trkpt lat="45.7742133" lon="8.8656983"><ele>279.0</ele><time>2026-04-05T17:37:35.809Z</time></trkpt><trkpt lat="45.77413" lon="8.865625"><ele>278.59999999999997</ele><time>2026-04-05T17:37:36.808Z</time></trkpt><trkpt lat="45.7740933" lon="8.865525"><ele>278.2</ele><time>2026-04-05T17:37:37.809Z</time></trkpt><trkpt lat="45.7740983" lon="8.865415"><ele>277.79999999999995</ele><time>2026-04-05T17:37:38.808Z</time></trkpt><trkpt lat="45.774135" lon="8.8653017"><ele>277.4</ele><time>2026-04-05T17:37:39.808Z</time></trkpt><trkpt lat="45.77417" lon="8.8651633"><ele>277.0</ele><time>2026-04-05T17:37:40.808Z</time></trkpt><trkpt lat="45.7741717" lon="8.8649883"><ele>277.0</ele><time>2026-04-05T17:37:41.808Z</time></trkpt><trkpt lat="45.7741333" lon="8.8647983"><ele>277.0</ele><time>2026-04-05T17:37:42.809Z</time></trkpt><trkpt lat="45.774095" lon="8.8645867"><ele>277.0</ele><time>2026-04-05T17:37:43.808Z</time></trkpt><trkpt lat="45.7740383" lon="8.8643517"><ele>277.66666666666663</ele><time>2026-04-05T17:37:44.808Z</time></trkpt><trkpt lat="45.77395" lon="8.8641017"><ele>278.3333333333333</ele><time>2026-04-05T17:37:45.808Z</time></trkpt><trkpt lat="45.7738483" lon="8.8638433"><ele>279.0</ele><time>2026-04-05T17:37:46.808Z</time></trkpt><trkpt lat="45.77373" lon="8.8635683"><ele>280.0</ele><time>2026-04-05T17:37:47.808Z</time></trkpt><trkpt lat="45.7736117" lon="8.8632817"><ele>281.0</ele><time>2026-04-05T17:37:48.808Z</time></trkpt><trkpt lat="45.7734867" lon="8.8629917"><ele>281.0</ele><time>2026-04-05T17:37:49.808Z</time></trkpt><trkpt lat="45.7733633" lon="8.86269"><ele>281.0</ele><time>2026-04-05T17:37:50.808Z</time></trkpt><trkpt lat="45.7732417" lon="8.8624"><ele>282.0</ele><time>2026-04-05T17:37:51.808Z</time></trkpt><trkpt lat="45.7731167" lon="8.8621317"><ele>283.0</ele><time>2026-04-05T17:37:52.808Z</time></trkpt><trkpt lat="45.7729983" lon="8.861875"><ele>284.0</ele><time>2026-04-05T17:37:53.808Z</time></trkpt><trkpt lat="45.772885" lon="8.8616483"><ele>284.33333333333337</ele><time>2026-04-05T17:37:54.808Z</time></trkpt><trkpt lat="45.77278" lon="8.8614467"><ele>284.6666666666667</ele><time>2026-04-05T17:37:55.808Z</time></trkpt><trkpt lat="45.772695" lon="8.861245"><ele>285.0</ele><time>2026-04-05T17:37:56.809Z</time></trkpt><trkpt lat="45.772625" lon="8.8610233"><ele>285.0</ele><time>2026-04-05T17:37:57.809Z</time></trkpt><trkpt lat="45.7725533" lon="8.8607733"><ele>285.0</ele><time>2026-04-05T17:37:58.808Z</time></trkpt><trkpt lat="45.772485" lon="8.8605217"><ele>285.0</ele><time>2026-04-05T17:37:59.809Z</time></trkpt><trkpt lat="45.772435" lon="8.8602633"><ele>287.0</ele><time>2026-04-05T17:38:00.809Z</time></trkpt><trkpt lat="45.7724083" lon="8.8599967"><ele>289.0</ele><time>2026-04-05T17:38:01.808Z</time></trkpt><trkpt lat="45.7724" lon="8.8597167"><ele>291.0</ele><time>2026-04-05T17:38:02.808Z</time></trkpt><trkpt lat="45.7724017" lon="8.8594467"><ele>291.3333333333333</ele><time>2026-04-05T17:38:03.809Z</time></trkpt><trkpt lat="45.77242" lon="8.859175"><ele>291.66666666666663</ele><time>2026-04-05T17:38:04.809Z</time></trkpt><trkpt lat="45.77244" lon="8.8589017"><ele>292.0</ele><time>2026-04-05T17:38:05.809Z</time></trkpt><trkpt lat="45.7724583" lon="8.858615"><ele>292.3333333333333</ele><time>2026-04-05T17:38:06.809Z</time></trkpt><trkpt lat="45.7724683" lon="8.8583133"><ele>292.6666666666667</ele><time>2026-04-05T17:38:07.808Z</time></trkpt><trkpt lat="45.7724783" lon="8.8579917"><ele>293.0</ele><time>2026-04-05T17:38:08.808Z</time></trkpt><trkpt lat="45.7724917" lon="8.8576633"><ele>296.0</ele><time>2026-04-05T17:38:09.808Z</time></trkpt><trkpt lat="45.7725067" lon="8.8573467"><ele>299.0</ele><time>2026-04-05T17:38:10.808Z</time></trkpt><trkpt lat="45.77253" lon="8.8570517"><ele>302.0</ele><time>2026-04-05T17:38:11.808Z</time></trkpt><trkpt lat="45.7725567" lon="8.8567667"><ele>302.0</ele><time>2026-04-05T17:38:12.808Z</time></trkpt><trkpt lat="45.77259" lon="8.85649"><ele>302.0</ele><time>2026-04-05T17:38:13.809Z</time></trkpt><trkpt lat="45.7726267" lon="8.856215"><ele>302.0</ele><time>2026-04-05T17:38:14.808Z</time></trkpt><trkpt lat="45.772655" lon="8.8559133"><ele>302.0</ele><time>2026-04-05T17:38:15.809Z</time></trkpt><trkpt lat="45.7726867" lon="8.8556067"><ele>302.0</ele><time>2026-04-05T17:38:16.809Z</time></trkpt><trkpt lat="45.7727217" lon="8.8552917"><ele>302.0</ele><time>2026-04-05T17:38:17.808Z</time></trkpt><trkpt lat="45.7727533" lon="8.8549717"><ele>309.5</ele><time>2026-04-05T17:38:18.808Z</time></trkpt><trkpt lat="45.7727867" lon="8.854635"><ele>317.0</ele><time>2026-04-05T17:38:19.809Z</time></trkpt><trkpt lat="45.7728233" lon="8.8542817"><ele>317.0</ele><time>2026-04-05T17:38:20.808Z</time></trkpt><trkpt lat="45.7728683" lon="8.8539367"><ele>317.0</ele><time>2026-04-05T17:38:21.808Z</time></trkpt><trkpt lat="45.772915" lon="8.8535883"><ele>314.0</ele><time>2026-04-05T17:38:22.808Z</time></trkpt><trkpt lat="45.7729483" lon="8.853235"><ele>311.0</ele><time>2026-04-05T17:38:23.809Z</time></trkpt><trkpt lat="45.7729733" lon="8.85288"><ele>312.0</ele><time>2026-04-05T17:38:24.808Z</time></trkpt><trkpt lat="45.7729767" lon="8.85252"><ele>313.0</ele><time>2026-04-05T17:38:25.808Z</time></trkpt><trkpt lat="45.7729567" lon="8.8521467"><ele>317.0</ele><time>2026-04-05T17:38:26.808Z</time></trkpt><trkpt lat="45.7729267" lon="8.85176"><ele>321.0</ele><time>2026-04-05T17:38:27.809Z</time></trkpt><trkpt lat="45.7729" lon="8.851375"><ele>321.0</ele><time>2026-04-05T17:38:28.808Z</time></trkpt><trkpt lat="45.77287" lon="8.8509883"><ele>321.0</ele><time>2026-04-05T17:38:29.808Z</time></trkpt><trkpt lat="45.7728383" lon="8.8506017"><ele>327.5</ele><time>2026-04-05T17:38:30.808Z</time></trkpt><trkpt lat="45.77281" lon="8.8502033"><ele>334.0</ele><time>2026-04-05T17:38:31.808Z</time></trkpt><trkpt lat="45.77279" lon="8.8498233"><ele>336.5</ele><time>2026-04-05T17:38:32.808Z</time></trkpt><trkpt lat="45.772775" lon="8.8494567"><ele>339.0</ele><time>2026-04-05T17:38:33.809Z</time></trkpt><trkpt lat="45.7727917" lon="8.8491033"><ele>339.5</ele><time>2026-04-05T17:38:34.808Z</time></trkpt><trkpt lat="45.7728267" lon="8.8487633"><ele>340.0</ele><time>2026-04-05T17:38:35.809Z</time></trkpt><trkpt lat="45.7728867" lon="8.8484383"><ele>340.0</ele><time>2026-04-05T17:38:36.808Z</time></trkpt><trkpt lat="45.772975" lon="8.8481267"><ele>340.0</ele><time>2026-04-05T17:38:37.809Z</time></trkpt><trkpt lat="45.773075" lon="8.8478317"><ele>341.0</ele><time>2026-04-05T17:38:38.808Z</time></trkpt><trkpt lat="45.77319" lon="8.84756"><ele>342.0</ele><time>2026-04-05T17:38:39.808Z</time></trkpt><trkpt lat="45.7733267" lon="8.8473083"><ele>343.0</ele><time>2026-04-05T17:38:40.808Z</time></trkpt><trkpt lat="45.7734833" lon="8.847065"><ele>349.5</ele><time>2026-04-05T17:38:41.808Z</time></trkpt><trkpt lat="45.77366" lon="8.846845"><ele>356.0</ele><time>2026-04-05T17:38:42.808Z</time></trkpt><trkpt lat="45.773845" lon="8.84663"><ele>356.0</ele><time>2026-04-05T17:38:43.809Z</time></trkpt><trkpt lat="45.7740433" lon="8.8464117"><ele>356.0</ele><time>2026-04-05T17:38:44.808Z</time></trkpt><trkpt lat="45.77424" lon="8.846205"><ele>356.5</ele><time>2026-04-05T17:38:45.808Z</time></trkpt><trkpt lat="45.7744367" lon="8.84601"><ele>357.0</ele><time>2026-04-05T17:38:46.808Z</time></trkpt><trkpt lat="45.7746333" lon="8.8458167"><ele>357.0</ele><time>2026-04-05T17:38:47.808Z</time></trkpt><trkpt lat="45.7748333" lon="8.845625"><ele>357.0</ele><time>2026-04-05T17:38:48.809Z</time></trkpt><trkpt lat="45.7750167" lon="8.84544"><ele>357.3333333333333</ele><time>2026-04-05T17:38:49.808Z</time></trkpt><trkpt lat="45.7752033" lon="8.845255"><ele>357.66666666666663</ele><time>2026-04-05T17:38:50.809Z</time></trkpt><trkpt lat="45.775385" lon="8.8450717"><ele>358.0</ele><time>2026-04-05T17:38:51.808Z</time></trkpt><trkpt lat="45.7755683" lon="8.8448933"><ele>358.0</ele><time>2026-04-05T17:38:52.808Z</time></trkpt><trkpt lat="45.7757367" lon="8.844725"><ele>358.0</ele><time>2026-04-05T17:38:53.809Z</time></trkpt><trkpt lat="45.7759117" lon="8.8445467"><ele>358.0</ele><time>2026-04-05T17:38:54.809Z</time></trkpt><trkpt lat="45.7760967" lon="8.8443667"><ele>359.0</ele><time>2026-04-05T17:38:55.808Z</time></trkpt><trkpt lat="45.7762867" lon="8.8441817"><ele>360.0</ele><time>2026-04-05T17:38:56.808Z</time></trkpt><trkpt lat="45.7764767" lon="8.8439817"><ele>360.0</ele><time>2026-04-05T17:38:57.808Z</time></trkpt><trkpt lat="45.7766583" lon="8.8437733"><ele>360.0</ele><time>2026-04-05T17:38:58.808Z</time></trkpt><trkpt lat="45.7768217" lon="8.8435567"><ele>361.3333333333333</ele><time>2026-04-05T17:38:59.808Z</time></trkpt><trkpt lat="45.7769717" lon="8.843325"><ele>362.66666666666663</ele><time>2026-04-05T17:39:00.808Z</time></trkpt><trkpt lat="45.7771033" lon="8.8430867"><ele>364.0</ele><time>2026-04-05T17:39:01.808Z</time></trkpt><trkpt lat="45.77722" lon="8.8428283"><ele>365.0</ele><time>2026-04-05T17:39:02.808Z</time></trkpt><trkpt lat="45.7773183" lon="8.842545"><ele>366.0</ele><time>2026-04-05T17:39:03.808Z</time></trkpt><trkpt lat="45.77741" lon="8.84226"><ele>367.0</ele><time>2026-04-05T17:39:04.808Z</time></trkpt><trkpt lat="45.77749" lon="8.841975"><ele>368.3333333333333</ele><time>2026-04-05T17:39:05.809Z</time></trkpt><trkpt lat="45.7775567" lon="8.8416933"><ele>369.6666666666667</ele><time>2026-04-05T17:39:06.808Z</time></trkpt><trkpt lat="45.7776083" lon="8.841425"><ele>371.0</ele><time>2026-04-05T17:39:07.808Z</time></trkpt><trkpt lat="45.777665" lon="8.8411533"><ele>370.0</ele><time>2026-04-05T17:39:08.808Z</time></trkpt><trkpt lat="45.7777267" lon="8.8408783"><ele>369.0</ele><time>2026-04-05T17:39:09.808Z</time></trkpt><trkpt lat="45.7777933" lon="8.8405883"><ele>368.0</ele><time>2026-04-05T17:39:10.808Z</time></trkpt><trkpt lat="45.7778633" lon="8.840285"><ele>368.33333333333337</ele><time>2026-04-05T17:39:11.808Z</time></trkpt><trkpt lat="45.7779233" lon="8.8399933"><ele>368.6666666666667</ele><time>2026-04-05T17:39:12.808Z</time></trkpt><trkpt lat="45.7779833" lon="8.8397033"><ele>369.0</ele><time>2026-04-05T17:39:13.808Z</time></trkpt><trkpt lat="45.778045" lon="8.83943"><ele>369.6666666666667</ele><time>2026-04-05T17:39:14.808Z</time></trkpt><trkpt lat="45.7781083" lon="8.8391517"><ele>370.33333333333337</ele><time>2026-04-05T17:39:15.809Z</time></trkpt><trkpt lat="45.77817" lon="8.8388717"><ele>371.0</ele><time>2026-04-05T17:39:16.808Z</time></trkpt><trkpt lat="45.778235" lon="8.83858"><ele>372.0</ele><time>2026-04-05T17:39:17.808Z</time></trkpt><trkpt lat="45.7782983" lon="8.838285"><ele>373.0</ele><time>2026-04-05T17:39:18.808Z</time></trkpt><trkpt lat="45.7783667" lon="8.8379867"><ele>374.0</ele><time>2026-04-05T17:39:19.808Z</time></trkpt><trkpt lat="45.7784333" lon="8.8376783"><ele>374.5</ele><time>2026-04-05T17:39:20.808Z</time></trkpt><trkpt lat="45.7784933" lon="8.8373717"><ele>375.0</ele><time>2026-04-05T17:39:21.808Z</time></trkpt><trkpt lat="45.778555" lon="8.8370483"><ele>378.5</ele><time>2026-04-05T17:39:22.809Z</time></trkpt><trkpt lat="45.778615" lon="8.8367133"><ele>382.0</ele><time>2026-04-05T17:39:23.808Z</time></trkpt><trkpt lat="45.77867" lon="8.8363517"><ele>382.0</ele><time>2026-04-05T17:39:24.808Z</time></trkpt><trkpt lat="45.7787133" lon="8.83598"><ele>382.0</ele><time>2026-04-05T17:39:25.808Z</time></trkpt><trkpt lat="45.77876" lon="8.8356117"><ele>381.5</ele><time>2026-04-05T17:39:26.808Z</time></trkpt><trkpt lat="45.7787817" lon="8.8352267"><ele>381.0</ele><time>2026-04-05T17:39:27.808Z</time></trkpt><trkpt lat="45.7787883" lon="8.8348533"><ele>381.0</ele><time>2026-04-05T17:39:28.808Z</time></trkpt><trkpt lat="45.7787817" lon="8.834475"><ele>381.0</ele><time>2026-04-05T17:39:29.808Z</time></trkpt><trkpt lat="45.77875" lon="8.8341"><ele>380.5</ele><time>2026-04-05T17:39:30.808Z</time></trkpt><trkpt lat="45.778695" lon="8.8337183"><ele>380.0</ele><time>2026-04-05T17:39:31.809Z</time></trkpt><trkpt lat="45.7786117" lon="8.8333367"><ele>376.5</ele><time>2026-04-05T17:39:32.808Z</time></trkpt><trkpt lat="45.77851" lon="8.8329517"><ele>373.0</ele><time>2026-04-05T17:39:33.808Z</time></trkpt><trkpt lat="45.7783767" lon="8.83257"><ele>372.0</ele><time>2026-04-05T17:39:34.808Z</time></trkpt><trkpt lat="45.77824" lon="8.8322117"><ele>371.0</ele><time>2026-04-05T17:39:35.809Z</time></trkpt><trkpt lat="45.77808" lon="8.8318767"><ele>371.0</ele><time>2026-04-05T17:39:36.808Z</time></trkpt><trkpt lat="45.7779067" lon="8.8315533"><ele>371.0</ele><time>2026-04-05T17:39:37.808Z</time></trkpt><trkpt lat="45.7777117" lon="8.8312517"><ele>371.5</ele><time>2026-04-05T17:39:38.808Z</time></trkpt><trkpt lat="45.7775017" lon="8.8309633"><ele>372.0</ele><time>2026-04-05T17:39:39.808Z</time></trkpt><trkpt lat="45.7772717" lon="8.8306933"><ele>372.0</ele><time>2026-04-05T17:39:40.809Z</time></trkpt><trkpt lat="45.7770367" lon="8.8304283"><ele>372.0</ele><time>2026-04-05T17:39:41.808Z</time></trkpt><trkpt lat="45.776795" lon="8.830175"><ele>371.0</ele><time>2026-04-05T17:39:42.808Z</time></trkpt><trkpt lat="45.7765683" lon="8.8299383"><ele>370.0</ele><time>2026-04-05T17:39:43.808Z</time></trkpt><trkpt lat="45.7763433" lon="8.8297067"><ele>370.0</ele><time>2026-04-05T17:39:44.809Z</time></trkpt><trkpt lat="45.7761283" lon="8.8294933"><ele>370.0</ele><time>2026-04-05T17:39:45.808Z</time></trkpt><trkpt lat="45.7759267" lon="8.8292883"><ele>370.0</ele><time>2026-04-05T17:39:46.808Z</time></trkpt><trkpt lat="45.77573" lon="8.8290967"><ele>370.0</ele><time>2026-04-05T17:39:47.808Z</time></trkpt><trkpt lat="45.775545" lon="8.8289183"><ele>370.0</ele><time>2026-04-05T17:39:48.808Z</time></trkpt><trkpt lat="45.7753683" lon="8.8287467"><ele>370.0</ele><time>2026-04-05T17:39:49.809Z</time></trkpt><trkpt lat="45.7752033" lon="8.828585"><ele>370.0</ele><time>2026-04-05T17:39:50.808Z</time></trkpt><trkpt lat="45.7750483" lon="8.82842"><ele>371.0</ele><time>2026-04-05T17:39:51.808Z</time></trkpt><trkpt lat="45.7749" lon="8.82825"><ele>372.0</ele><time>2026-04-05T17:39:52.808Z</time></trkpt><trkpt lat="45.7747633" lon="8.8280917"><ele>373.0</ele><time>2026-04-05T17:39:53.808Z</time></trkpt><trkpt lat="45.7746283" lon="8.8279483"><ele>373.0</ele><time>2026-04-05T17:39:54.808Z</time></trkpt><trkpt lat="45.7744983" lon="8.827815"><ele>373.0</ele><time>2026-04-05T17:39:55.808Z</time></trkpt><trkpt lat="45.77438" lon="8.8276867"><ele>373.0</ele><time>2026-04-05T17:39:56.808Z</time></trkpt><trkpt lat="45.7742617" lon="8.8275683"><ele>373.0</ele><time>2026-04-05T17:39:57.808Z</time></trkpt><trkpt lat="45.77415" lon="8.82745"><ele>373.0</ele><time>2026-04-05T17:39:58.809Z</time></trkpt><trkpt lat="45.774045" lon="8.8273417"><ele>373.0</ele><time>2026-04-05T17:39:59.808Z</time></trkpt><trkpt lat="45.7739417" lon="8.827245"><ele>373.0</ele><time>2026-04-05T17:40:00.808Z</time></trkpt><trkpt lat="45.7738517" lon="8.82715"><ele>373.0</ele><time>2026-04-05T17:40:01.809Z</time></trkpt><trkpt lat="45.773765" lon="8.8270683"><ele>373.0</ele><time>2026-04-05T17:40:02.808Z</time></trkpt><trkpt lat="45.7737" lon="8.8269917"><ele>373.0</ele><time>2026-04-05T17:40:03.809Z</time></trkpt><trkpt lat="45.7736383" lon="8.826905"><ele>373.0</ele><time>2026-04-05T17:40:04.808Z</time></trkpt><trkpt lat="45.7735967" lon="8.8268067"><ele>373.0</ele><time>2026-04-05T17:40:05.809Z</time></trkpt><trkpt lat="45.7735417" lon="8.8266867"><ele>372.79999999999995</ele><time>2026-04-05T17:40:06.808Z</time></trkpt><trkpt lat="45.773475" lon="8.826585"><ele>372.6</ele><time>2026-04-05T17:40:07.808Z</time></trkpt><trkpt lat="45.7733867" lon="8.8265217"><ele>372.4</ele><time>2026-04-05T17:40:08.808Z</time></trkpt><trkpt lat="45.7732783" lon="8.8264783"><ele>372.20000000000005</ele><time>2026-04-05T17:40:09.808Z</time></trkpt><trkpt lat="45.7731567" lon="8.8264267"><ele>372.0</ele><time>2026-04-05T17:40:10.809Z</time></trkpt><trkpt lat="45.7730433" lon="8.826335"><ele>372.0</ele><time>2026-04-05T17:40:11.809Z</time></trkpt><trkpt lat="45.77292" lon="8.826205"><ele>372.0</ele><time>2026-04-05T17:40:12.808Z</time></trkpt><trkpt lat="45.7727783" lon="8.8260533"><ele>372.0</ele><time>2026-04-05T17:40:13.809Z</time></trkpt><trkpt lat="45.77262" lon="8.8258817"><ele>371.0</ele><time>2026-04-05T17:40:14.809Z</time></trkpt><trkpt lat="45.772455" lon="8.8257083"><ele>370.0</ele><time>2026-04-05T17:40:15.808Z</time></trkpt><trkpt lat="45.772275" lon="8.8255233"><ele>369.0</ele><time>2026-04-05T17:40:16.808Z</time></trkpt><trkpt lat="45.772095" lon="8.8253417"><ele>369.0</ele><time>2026-04-05T17:40:17.808Z</time></trkpt><trkpt lat="45.7719183" lon="8.8251583"><ele>369.0</ele><time>2026-04-05T17:40:18.808Z</time></trkpt><trkpt lat="45.7717533" lon="8.8249867"><ele>369.0</ele><time>2026-04-05T17:40:19.808Z</time></trkpt><trkpt lat="45.7715933" lon="8.8248033"><ele>368.3333333333333</ele><time>2026-04-05T17:40:20.808Z</time></trkpt><trkpt lat="45.7714333" lon="8.8246017"><ele>367.66666666666663</ele><time>2026-04-05T17:40:21.809Z</time></trkpt><trkpt lat="45.7712783" lon="8.8243767"><ele>367.0</ele><time>2026-04-05T17:40:22.808Z</time></trkpt><trkpt lat="45.77113" lon="8.8241217"><ele>367.0</ele><time>2026-04-05T17:40:23.808Z</time></trkpt><trkpt lat="45.7709933" lon="8.8238433"><ele>367.0</ele><time>2026-04-05T17:40:24.808Z</time></trkpt><trkpt lat="45.770885" lon="8.8235517"><ele>365.3333333333333</ele><time>2026-04-05T17:40:25.808Z</time></trkpt><trkpt lat="45.770815" lon="8.82326"><ele>363.6666666666667</ele><time>2026-04-05T17:40:26.808Z</time></trkpt><trkpt lat="45.77076" lon="8.8229783"><ele>362.0</ele><time>2026-04-05T17:40:27.808Z</time></trkpt><trkpt lat="45.77072" lon="8.82269"><ele>361.33333333333337</ele><time>2026-04-05T17:40:28.808Z</time></trkpt><trkpt lat="45.770705" lon="8.822425"><ele>360.6666666666667</ele><time>2026-04-05T17:40:29.808Z</time></trkpt><trkpt lat="45.77071" lon="8.8221667"><ele>360.0</ele><time>2026-04-05T17:40:30.808Z</time></trkpt><trkpt lat="45.7707267" lon="8.8219083"><ele>359.6666666666667</ele><time>2026-04-05T17:40:31.808Z</time></trkpt><trkpt lat="45.770755" lon="8.8216317"><ele>359.33333333333337</ele><time>2026-04-05T17:40:32.809Z</time></trkpt><trkpt lat="45.7707933" lon="8.8213583"><ele>359.0</ele><time>2026-04-05T17:40:33.809Z</time></trkpt><trkpt lat="45.7708483" lon="8.8210767"><ele>357.6666666666667</ele><time>2026-04-05T17:40:34.809Z</time></trkpt><trkpt lat="45.770905" lon="8.8207783"><ele>356.3333333333333</ele><time>2026-04-05T17:40:35.809Z</time></trkpt><trkpt lat="45.7709683" lon="8.8204783"><ele>355.0</ele><time>2026-04-05T17:40:36.808Z</time></trkpt><trkpt lat="45.7710267" lon="8.82018"><ele>354.66666666666663</ele><time>2026-04-05T17:40:37.808Z</time></trkpt><trkpt lat="45.7710867" lon="8.8198933"><ele>354.3333333333333</ele><time>2026-04-05T17:40:38.808Z</time></trkpt><trkpt lat="45.7711433" lon="8.8196083"><ele>354.0</ele><time>2026-04-05T17:40:39.808Z</time></trkpt><trkpt lat="45.771205" lon="8.8193317"><ele>353.0</ele><time>2026-04-05T17:40:40.808Z</time></trkpt><trkpt lat="45.7712667" lon="8.8190583"><ele>352.0</ele><time>2026-04-05T17:40:41.808Z</time></trkpt><trkpt lat="45.7713367" lon="8.8187917"><ele>351.0</ele><time>2026-04-05T17:40:42.808Z</time></trkpt><trkpt lat="45.7714083" lon="8.8185133"><ele>350.3333333333333</ele><time>2026-04-05T17:40:43.808Z</time></trkpt><trkpt lat="45.7714817" lon="8.81823"><ele>349.66666666666663</ele><time>2026-04-05T17:40:44.809Z</time></trkpt><trkpt lat="45.7715517" lon="8.8179383"><ele>349.0</ele><time>2026-04-05T17:40:45.808Z</time></trkpt><trkpt lat="45.7716217" lon="8.8176367"><ele>349.0</ele><time>2026-04-05T17:40:46.809Z</time></trkpt><trkpt lat="45.7716967" lon="8.81734"><ele>349.0</ele><time>2026-04-05T17:40:47.808Z</time></trkpt><trkpt lat="45.7717633" lon="8.81705"><ele>349.0</ele><time>2026-04-05T17:40:48.808Z</time></trkpt><trkpt lat="45.771835" lon="8.8167783"><ele>349.0</ele><time>2026-04-05T17:40:49.808Z</time></trkpt><trkpt lat="45.7719067" lon="8.8165083"><ele>349.0</ele><time>2026-04-05T17:40:50.809Z</time></trkpt><trkpt lat="45.7719783" lon="8.816245"><ele>349.0</ele><time>2026-04-05T17:40:51.808Z</time></trkpt><trkpt lat="45.772045" lon="8.8159783"><ele>349.0</ele><time>2026-04-05T17:40:52.809Z</time></trkpt><trkpt lat="45.77211" lon="8.8157167"><ele>349.0</ele><time>2026-04-05T17:40:53.808Z</time></trkpt><trkpt lat="45.7721817" lon="8.8154567"><ele>349.0</ele><time>2026-04-05T17:40:54.808Z</time></trkpt><trkpt lat="45.7722517" lon="8.815205"><ele>349.0</ele><time>2026-04-05T17:40:55.808Z</time></trkpt><trkpt lat="45.7723117" lon="8.81496"><ele>349.0</ele><time>2026-04-05T17:40:56.809Z</time></trkpt><trkpt lat="45.772375" lon="8.8147267"><ele>349.0</ele><time>2026-04-05T17:40:57.809Z</time></trkpt><trkpt lat="45.7724333" lon="8.8145067"><ele>348.66666666666663</ele><time>2026-04-05T17:40:58.808Z</time></trkpt><trkpt lat="45.77249" lon="8.8142967"><ele>348.3333333333333</ele><time>2026-04-05T17:40:59.808Z</time></trkpt><trkpt lat="45.7725467" lon="8.8140917"><ele>348.0</ele><time>2026-04-05T17:41:00.808Z</time></trkpt><trkpt lat="45.7725983" lon="8.8138933"><ele>348.0</ele><time>2026-04-05T17:41:01.808Z</time></trkpt><trkpt lat="45.7726533" lon="8.8136967"><ele>348.0</ele><time>2026-04-05T17:41:02.808Z</time></trkpt><trkpt lat="45.772705" lon="8.813505"><ele>348.0</ele><time>2026-04-05T17:41:03.808Z</time></trkpt><trkpt lat="45.7727583" lon="8.8133183"><ele>348.0</ele><time>2026-04-05T17:41:04.808Z</time></trkpt><trkpt lat="45.7728083" lon="8.8131583"><ele>347.75</ele><time>2026-04-05T17:41:05.808Z</time></trkpt><trkpt lat="45.7728533" lon="8.8130083"><ele>347.5</ele><time>2026-04-05T17:41:06.808Z</time></trkpt><trkpt lat="45.7728933" lon="8.8128583"><ele>347.25</ele><time>2026-04-05T17:41:07.808Z</time></trkpt><trkpt lat="45.7729383" lon="8.8126983"><ele>347.0</ele><time>2026-04-05T17:41:08.808Z</time></trkpt><trkpt lat="45.772985" lon="8.812535"><ele>347.0</ele><time>2026-04-05T17:41:09.808Z</time></trkpt><trkpt lat="45.7730267" lon="8.8123833"><ele>347.0</ele><time>2026-04-05T17:41:10.809Z</time></trkpt><trkpt lat="45.7730783" lon="8.8122383"><ele>347.0</ele><time>2026-04-05T17:41:11.809Z</time></trkpt><trkpt lat="45.7731383" lon="8.8120883"><ele>347.0</ele><time>2026-04-05T17:41:12.808Z</time></trkpt><trkpt lat="45.7731983" lon="8.8119467"><ele>347.5</ele><time>2026-04-05T17:41:13.808Z</time></trkpt><trkpt lat="45.7732667" lon="8.8118"><ele>348.0</ele><time>2026-04-05T17:41:14.808Z</time></trkpt><trkpt lat="45.773345" lon="8.8116583"><ele>348.5</ele><time>2026-04-05T17:41:15.808Z</time></trkpt><trkpt lat="45.77343" lon="8.8115167"><ele>349.0</ele><time>2026-04-05T17:41:16.808Z</time></trkpt><trkpt lat="45.77352" lon="8.81138"><ele>350.25</ele><time>2026-04-05T17:41:17.808Z</time></trkpt><trkpt lat="45.7736267" lon="8.8112383"><ele>351.5</ele><time>2026-04-05T17:41:18.808Z</time></trkpt><trkpt lat="45.7737383" lon="8.8111083"><ele>352.75</ele><time>2026-04-05T17:41:19.809Z</time></trkpt><trkpt lat="45.77386" lon="8.8109767"><ele>354.0</ele><time>2026-04-05T17:41:20.808Z</time></trkpt><trkpt lat="45.7739867" lon="8.8108533"><ele>354.0</ele><time>2026-04-05T17:41:21.808Z</time></trkpt><trkpt lat="45.77413" lon="8.8107333"><ele>354.0</ele><time>2026-04-05T17:41:22.809Z</time></trkpt><trkpt lat="45.7742633" lon="8.8106417"><ele>354.0</ele><time>2026-04-05T17:41:23.809Z</time></trkpt><trkpt lat="45.7743933" lon="8.810565"><ele>354.0</ele><time>2026-04-05T17:41:24.808Z</time></trkpt><trkpt lat="45.7745367" lon="8.8105017"><ele>354.0</ele><time>2026-04-05T17:41:25.808Z</time></trkpt><trkpt lat="45.7746883" lon="8.8104467"><ele>354.0</ele><time>2026-04-05T17:41:26.808Z</time></trkpt><trkpt lat="45.7748417" lon="8.810405"><ele>354.0</ele><time>2026-04-05T17:41:27.808Z</time></trkpt><trkpt lat="45.775" lon="8.8103483"><ele>354.0</ele><time>2026-04-05T17:41:28.809Z</time></trkpt><trkpt lat="45.775165" lon="8.8103"><ele>354.0</ele><time>2026-04-05T17:41:29.808Z</time></trkpt><trkpt lat="45.775315" lon="8.8102483"><ele>353.0</ele><time>2026-04-05T17:41:30.808Z</time></trkpt><trkpt lat="45.7754817" lon="8.81019"><ele>352.0</ele><time>2026-04-05T17:41:31.808Z</time></trkpt><trkpt lat="45.7756267" lon="8.8101317"><ele>351.0</ele><time>2026-04-05T17:41:32.809Z</time></trkpt><trkpt lat="45.7757783" lon="8.810075"><ele>350.75</ele><time>2026-04-05T17:41:33.808Z</time></trkpt><trkpt lat="45.7759267" lon="8.8100283"><ele>350.5</ele><time>2026-04-05T17:41:34.808Z</time></trkpt><trkpt lat="45.7760633" lon="8.8099867"><ele>350.25</ele><time>2026-04-05T17:41:35.808Z</time></trkpt><trkpt lat="45.7762083" lon="8.8099317"><ele>350.0</ele><time>2026-04-05T17:41:36.808Z</time></trkpt><trkpt lat="45.7763367" lon="8.8098767"><ele>347.25</ele><time>2026-04-05T17:41:37.808Z</time></trkpt><trkpt lat="45.7764683" lon="8.8098367"><ele>344.5</ele><time>2026-04-05T17:41:38.808Z</time></trkpt><trkpt lat="45.776585" lon="8.809805"><ele>341.75</ele><time>2026-04-05T17:41:39.808Z</time></trkpt><trkpt lat="45.77671" lon="8.80978"><ele>339.0</ele><time>2026-04-05T17:41:40.808Z</time></trkpt><trkpt lat="45.77684" lon="8.8097383"><ele>337.25</ele><time>2026-04-05T17:41:41.808Z</time></trkpt><trkpt lat="45.7769733" lon="8.8096983"><ele>335.5</ele><time>2026-04-05T17:41:42.808Z</time></trkpt><trkpt lat="45.77711" lon="8.8096567"><ele>333.75</ele><time>2026-04-05T17:41:43.808Z</time></trkpt><trkpt lat="45.77725" lon="8.8096183"><ele>332.0</ele><time>2026-04-05T17:41:44.808Z</time></trkpt><trkpt lat="45.7773833" lon="8.809575"><ele>332.0</ele><time>2026-04-05T17:41:45.809Z</time></trkpt><trkpt lat="45.7775217" lon="8.8095333"><ele>332.0</ele><time>2026-04-05T17:41:46.808Z</time></trkpt><trkpt lat="45.7776633" lon="8.8094783"><ele>332.0</ele><time>2026-04-05T17:41:47.808Z</time></trkpt><trkpt lat="45.7778" lon="8.80943"><ele>332.0</ele><time>2026-04-05T17:41:48.808Z</time></trkpt><trkpt lat="45.77794" lon="8.8093933"><ele>331.25</ele><time>2026-04-05T17:41:49.808Z</time></trkpt><trkpt lat="45.7780883" lon="8.8093383"><ele>330.5</ele><time>2026-04-05T17:41:50.808Z</time></trkpt><trkpt lat="45.7782317" lon="8.80929"><ele>329.75</ele><time>2026-04-05T17:41:51.808Z</time></trkpt><trkpt lat="45.7783717" lon="8.809235"><ele>329.0</ele><time>2026-04-05T17:41:52.808Z</time></trkpt><trkpt lat="45.7785067" lon="8.809185"><ele>327.0</ele><time>2026-04-05T17:41:53.809Z</time></trkpt><trkpt lat="45.77865" lon="8.809135"><ele>325.0</ele><time>2026-04-05T17:41:54.809Z</time></trkpt><trkpt lat="45.7787917" lon="8.8090983"><ele>323.0</ele><time>2026-04-05T17:41:55.808Z</time></trkpt><trkpt lat="45.77892" lon="8.8090633"><ele>321.0</ele><time>2026-04-05T17:41:56.808Z</time></trkpt><trkpt lat="45.7790567" lon="8.80903"><ele>321.0</ele><time>2026-04-05T17:41:57.808Z</time></trkpt><trkpt lat="45.7792033" lon="8.80899"><ele>321.0</ele><time>2026-04-05T17:41:58.809Z</time></trkpt><trkpt lat="45.7793417" lon="8.808965"><ele>321.0</ele><time>2026-04-05T17:41:59.808Z</time></trkpt><trkpt lat="45.7794783" lon="8.8089483"><ele>321.0</ele><time>2026-04-05T17:42:00.809Z</time></trkpt><trkpt lat="45.7796167" lon="8.8089383"><ele>320.75</ele><time>2026-04-05T17:42:01.808Z</time></trkpt><trkpt lat="45.7797583" lon="8.8089283"><ele>320.5</ele><time>2026-04-05T17:42:02.808Z</time></trkpt><trkpt lat="45.7799" lon="8.8089283"><ele>320.25</ele><time>2026-04-05T17:42:03.808Z</time></trkpt><trkpt lat="45.7800433" lon="8.808935"><ele>320.0</ele><time>2026-04-05T17:42:04.808Z</time></trkpt><trkpt lat="45.780185" lon="8.80895"><ele>320.0</ele><time>2026-04-05T17:42:05.808Z</time></trkpt><trkpt lat="45.7803233" lon="8.8089617"><ele>320.0</ele><time>2026-04-05T17:42:06.808Z</time></trkpt><trkpt lat="45.7804683" lon="8.8089817"><ele>320.0</ele><time>2026-04-05T17:42:07.808Z</time></trkpt><trkpt lat="45.780605" lon="8.8090117"><ele>320.0</ele><time>2026-04-05T17:42:08.809Z</time></trkpt><trkpt lat="45.780745" lon="8.8090533"><ele>320.0</ele><time>2026-04-05T17:42:09.808Z</time></trkpt><trkpt lat="45.7808817" lon="8.8090967"><ele>320.0</ele><time>2026-04-05T17:42:10.808Z</time></trkpt><trkpt lat="45.7810267" lon="8.809155"><ele>320.0</ele><time>2026-04-05T17:42:11.808Z</time></trkpt><trkpt lat="45.781165" lon="8.809215"><ele>320.0</ele><time>2026-04-05T17:42:12.808Z</time></trkpt><trkpt lat="45.7812967" lon="8.8092833"><ele>319.5</ele><time>2026-04-05T17:42:13.808Z</time></trkpt><trkpt lat="45.7814367" lon="8.80935"><ele>319.0</ele><time>2026-04-05T17:42:14.808Z</time></trkpt><trkpt lat="45.7815733" lon="8.8094183"><ele>318.5</ele><time>2026-04-05T17:42:15.808Z</time></trkpt><trkpt lat="45.781705" lon="8.8094917"><ele>318.0</ele><time>2026-04-05T17:42:16.809Z</time></trkpt><trkpt lat="45.7818417" lon="8.80956"><ele>318.75</ele><time>2026-04-05T17:42:17.809Z</time></trkpt><trkpt lat="45.7819717" lon="8.80963"><ele>319.5</ele><time>2026-04-05T17:42:18.808Z</time></trkpt><trkpt lat="45.7821067" lon="8.809695"><ele>320.25</ele><time>2026-04-05T17:42:19.809Z</time></trkpt><trkpt lat="45.7822383" lon="8.809765"><ele>321.0</ele><time>2026-04-05T17:42:20.808Z</time></trkpt><trkpt lat="45.78237" lon="8.809835"><ele>321.0</ele><time>2026-04-05T17:42:21.808Z</time></trkpt><trkpt lat="45.7825117" lon="8.8099017"><ele>321.0</ele><time>2026-04-05T17:42:22.809Z</time></trkpt><trkpt lat="45.782655" lon="8.8099767"><ele>321.0</ele><time>2026-04-05T17:42:23.808Z</time></trkpt><trkpt lat="45.7828" lon="8.81005"><ele>321.3333333333333</ele><time>2026-04-05T17:42:24.808Z</time></trkpt><trkpt lat="45.7829533" lon="8.81012"><ele>321.66666666666663</ele><time>2026-04-05T17:42:25.808Z</time></trkpt><trkpt lat="45.783095" lon="8.8101867"><ele>322.0</ele><time>2026-04-05T17:42:26.808Z</time></trkpt><trkpt lat="45.7832417" lon="8.8102583"><ele>319.66666666666663</ele><time>2026-04-05T17:42:27.808Z</time></trkpt><trkpt lat="45.7833933" lon="8.8103233"><ele>317.3333333333333</ele><time>2026-04-05T17:42:28.808Z</time></trkpt><trkpt lat="45.783545" lon="8.81037"><ele>315.0</ele><time>2026-04-05T17:42:29.809Z</time></trkpt><trkpt lat="45.7837133" lon="8.8103983"><ele>314.3333333333333</ele><time>2026-04-05T17:42:30.808Z</time></trkpt><trkpt lat="45.783885" lon="8.81041"><ele>313.66666666666663</ele><time>2026-04-05T17:42:31.809Z</time></trkpt><trkpt lat="45.7840567" lon="8.8104033"><ele>313.0</ele><time>2026-04-05T17:42:32.808Z</time></trkpt><trkpt lat="45.784235" lon="8.81038"><ele>312.0</ele><time>2026-04-05T17:42:33.808Z</time></trkpt><trkpt lat="45.7844133" lon="8.8103467"><ele>311.0</ele><time>2026-04-05T17:42:34.808Z</time></trkpt><trkpt lat="45.7845883" lon="8.8103033"><ele>310.0</ele><time>2026-04-05T17:42:35.808Z</time></trkpt><trkpt lat="45.784765" lon="8.8102483"><ele>310.0</ele><time>2026-04-05T17:42:36.808Z</time></trkpt><trkpt lat="45.784945" lon="8.81016"><ele>310.0</ele><time>2026-04-05T17:42:37.808Z</time></trkpt><trkpt lat="45.785125" lon="8.8100633"><ele>310.0</ele><time>2026-04-05T17:42:38.808Z</time></trkpt><trkpt lat="45.7852983" lon="8.8099633"><ele>309.0</ele><time>2026-04-05T17:42:39.808Z</time></trkpt><trkpt lat="45.7854683" lon="8.8098783"><ele>308.0</ele><time>2026-04-05T17:42:40.808Z</time></trkpt><trkpt lat="45.7856367" lon="8.80978"><ele>307.0</ele><time>2026-04-05T17:42:41.808Z</time></trkpt><trkpt lat="45.7857983" lon="8.8096883"><ele>307.0</ele><time>2026-04-05T17:42:42.808Z</time></trkpt><trkpt lat="45.7859683" lon="8.8095967"><ele>307.0</ele><time>2026-04-05T17:42:43.809Z</time></trkpt><trkpt lat="45.786145" lon="8.8095117"><ele>307.0</ele><time>2026-04-05T17:42:44.808Z</time></trkpt><trkpt lat="45.7863267" lon="8.8094533"><ele>305.0</ele><time>2026-04-05T17:42:45.808Z</time></trkpt><trkpt lat="45.7865083" lon="8.8094"><ele>303.0</ele><time>2026-04-05T17:42:46.808Z</time></trkpt><trkpt lat="45.786695" lon="8.8093667"><ele>301.0</ele><time>2026-04-05T17:42:47.808Z</time></trkpt><trkpt lat="45.7868833" lon="8.8093667"><ele>299.66666666666663</ele><time>2026-04-05T17:42:48.809Z</time></trkpt><trkpt lat="45.78708" lon="8.8093767"><ele>298.3333333333333</ele><time>2026-04-05T17:42:49.809Z</time></trkpt><trkpt lat="45.7872783" lon="8.8094183"><ele>297.0</ele><time>2026-04-05T17:42:50.808Z</time></trkpt><trkpt lat="45.78748" lon="8.8094783"><ele>296.3333333333333</ele><time>2026-04-05T17:42:51.809Z</time></trkpt><trkpt lat="45.7876783" lon="8.8095583"><ele>295.66666666666663</ele><time>2026-04-05T17:42:52.808Z</time></trkpt><trkpt lat="45.7878667" lon="8.809645"><ele>295.0</ele><time>2026-04-05T17:42:53.808Z</time></trkpt><trkpt lat="45.788055" lon="8.809745"><ele>295.0</ele><time>2026-04-05T17:42:54.808Z</time></trkpt><trkpt lat="45.788235" lon="8.8098417"><ele>295.0</ele><time>2026-04-05T17:42:55.808Z</time></trkpt><trkpt lat="45.7884183" lon="8.80995"><ele>295.0</ele><time>2026-04-05T17:42:56.808Z</time></trkpt><trkpt lat="45.7886033" lon="8.8100467"><ele>295.66666666666663</ele><time>2026-04-05T17:42:57.808Z</time></trkpt><trkpt lat="45.78879" lon="8.8101483"><ele>296.3333333333333</ele><time>2026-04-05T17:42:58.809Z</time></trkpt><trkpt lat="45.7889683" lon="8.81024"><ele>297.0</ele><time>2026-04-05T17:42:59.809Z</time></trkpt><trkpt lat="45.7891433" lon="8.8103283"><ele>296.0</ele><time>2026-04-05T17:43:00.808Z</time></trkpt><trkpt lat="45.78932" lon="8.8104267"><ele>295.0</ele><time>2026-04-05T17:43:01.809Z</time></trkpt><trkpt lat="45.789495" lon="8.8105233"><ele>294.0</ele><time>2026-04-05T17:43:02.808Z</time></trkpt><trkpt lat="45.7896633" lon="8.8106067"><ele>294.0</ele><time>2026-04-05T17:43:03.808Z</time></trkpt><trkpt lat="45.78983" lon="8.81068"><ele>294.0</ele><time>2026-04-05T17:43:04.808Z</time></trkpt><trkpt lat="45.7900017" lon="8.8107317"><ele>294.0</ele><time>2026-04-05T17:43:05.808Z</time></trkpt><trkpt lat="45.7901717" lon="8.8107567"><ele>291.0</ele><time>2026-04-05T17:43:06.808Z</time></trkpt><trkpt lat="45.790355" lon="8.8107383"><ele>288.0</ele><time>2026-04-05T17:43:07.808Z</time></trkpt><trkpt lat="45.7905267" lon="8.8106817"><ele>285.0</ele><time>2026-04-05T17:43:08.808Z</time></trkpt><trkpt lat="45.7907017" lon="8.8106"><ele>285.0</ele><time>2026-04-05T17:43:09.808Z</time></trkpt><trkpt lat="45.7908733" lon="8.8104867"><ele>285.0</ele><time>2026-04-05T17:43:10.808Z</time></trkpt><trkpt lat="45.791025" lon="8.81033"><ele>285.0</ele><time>2026-04-05T17:43:11.808Z</time></trkpt><trkpt lat="45.7911633" lon="8.8101533"><ele>284.0</ele><time>2026-04-05T17:43:12.808Z</time></trkpt><trkpt lat="45.791285" lon="8.8099717"><ele>283.0</ele><time>2026-04-05T17:43:13.809Z</time></trkpt><trkpt lat="45.7913867" lon="8.8097583"><ele>282.0</ele><time>2026-04-05T17:43:14.809Z</time></trkpt><trkpt lat="45.7914667" lon="8.80952"><ele>282.0</ele><time>2026-04-05T17:43:15.808Z</time></trkpt><trkpt lat="45.79152" lon="8.80927"><ele>282.0</ele><time>2026-04-05T17:43:16.809Z</time></trkpt><trkpt lat="45.7915517" lon="8.8090133"><ele>282.0</ele><time>2026-04-05T17:43:17.808Z</time></trkpt><trkpt lat="45.791565" lon="8.8087583"><ele>282.0</ele><time>2026-04-05T17:43:18.809Z</time></trkpt><trkpt lat="45.7915567" lon="8.8084933"><ele>282.0</ele><time>2026-04-05T17:43:19.809Z</time></trkpt><trkpt lat="45.7915083" lon="8.8082267"><ele>282.0</ele><time>2026-04-05T17:43:20.808Z</time></trkpt><trkpt lat="45.7914483" lon="8.8079717"><ele>280.3333333333333</ele><time>2026-04-05T17:43:21.808Z</time></trkpt><trkpt lat="45.7913817" lon="8.80772"><ele>278.66666666666663</ele><time>2026-04-05T17:43:22.809Z</time></trkpt><trkpt lat="45.79131" lon="8.80747"><ele>277.0</ele><time>2026-04-05T17:43:23.808Z</time></trkpt><trkpt lat="45.7912367" lon="8.8072117"><ele>274.66666666666663</ele><time>2026-04-05T17:43:24.808Z</time></trkpt><trkpt lat="45.79116" lon="8.8069483"><ele>272.3333333333333</ele><time>2026-04-05T17:43:25.808Z</time></trkpt><trkpt lat="45.7910883" lon="8.8066983"><ele>270.0</ele><time>2026-04-05T17:43:26.808Z</time></trkpt><trkpt lat="45.7910217" lon="8.806445"><ele>271.6666666666667</ele><time>2026-04-05T17:43:27.809Z</time></trkpt><trkpt lat="45.7909533" lon="8.806195"><ele>273.33333333333337</ele><time>2026-04-05T17:43:28.809Z</time></trkpt><trkpt lat="45.7908917" lon="8.80594"><ele>275.0</ele><time>2026-04-05T17:43:29.808Z</time></trkpt><trkpt lat="45.7908267" lon="8.805685"><ele>275.0</ele><time>2026-04-05T17:43:30.808Z</time></trkpt><trkpt lat="45.7907567" lon="8.8054283"><ele>275.0</ele><time>2026-04-05T17:43:31.808Z</time></trkpt><trkpt lat="45.79069" lon="8.8051783"><ele>275.0</ele><time>2026-04-05T17:43:32.808Z</time></trkpt><trkpt lat="45.7906233" lon="8.804945"><ele>272.6666666666667</ele><time>2026-04-05T17:43:33.808Z</time></trkpt><trkpt lat="45.79056" lon="8.8047117"><ele>270.3333333333333</ele><time>2026-04-05T17:43:34.809Z</time></trkpt><trkpt lat="45.7905083" lon="8.8044883"><ele>268.0</ele><time>2026-04-05T17:43:35.808Z</time></trkpt><trkpt lat="45.790455" lon="8.8042733"><ele>265.66666666666663</ele><time>2026-04-05T17:43:36.808Z</time></trkpt><trkpt lat="45.790395" lon="8.8040433"><ele>263.3333333333333</ele><time>2026-04-05T17:43:37.808Z</time></trkpt><trkpt lat="45.7903433" lon="8.8038383"><ele>261.0</ele><time>2026-04-05T17:43:38.808Z</time></trkpt><trkpt lat="45.7902867" lon="8.803625"><ele>261.0</ele><time>2026-04-05T17:43:39.808Z</time></trkpt><trkpt lat="45.7902467" lon="8.8034083"><ele>261.0</ele><time>2026-04-05T17:43:40.808Z</time></trkpt><trkpt lat="45.79022" lon="8.8031783"><ele>261.0</ele><time>2026-04-05T17:43:41.808Z</time></trkpt><trkpt lat="45.7902117" lon="8.8029467"><ele>261.0</ele><time>2026-04-05T17:43:42.808Z</time></trkpt><trkpt lat="45.7902317" lon="8.80271"><ele>261.0</ele><time>2026-04-05T17:43:43.809Z</time></trkpt><trkpt lat="45.7902733" lon="8.80248"><ele>261.0</ele><time>2026-04-05T17:43:44.808Z</time></trkpt><trkpt lat="45.7903367" lon="8.8022533"><ele>260.3333333333333</ele><time>2026-04-05T17:43:45.808Z</time></trkpt><trkpt lat="45.7904083" lon="8.802055"><ele>259.66666666666663</ele><time>2026-04-05T17:43:46.808Z</time></trkpt><trkpt lat="45.7904933" lon="8.8018633"><ele>259.0</ele><time>2026-04-05T17:43:47.808Z</time></trkpt><trkpt lat="45.79061" lon="8.8016817"><ele>258.0</ele><time>2026-04-05T17:43:48.808Z</time></trkpt><trkpt lat="45.7907283" lon="8.8015267"><ele>257.0</ele><time>2026-04-05T17:43:49.808Z</time></trkpt><trkpt lat="45.7908583" lon="8.801405"><ele>256.0</ele><time>2026-04-05T17:43:50.808Z</time></trkpt><trkpt lat="45.791005" lon="8.8013017"><ele>254.0</ele><time>2026-04-05T17:43:51.808Z</time></trkpt><trkpt lat="45.7911617" lon="8.8012083"><ele>252.0</ele><time>2026-04-05T17:43:52.808Z</time></trkpt><trkpt lat="45.7913267" lon="8.8011383"><ele>250.0</ele><time>2026-04-05T17:43:53.809Z</time></trkpt><trkpt lat="45.7914833" lon="8.8010717"><ele>250.0</ele><time>2026-04-05T17:43:54.809Z</time></trkpt><trkpt lat="45.7916367" lon="8.801015"><ele>250.0</ele><time>2026-04-05T17:43:55.808Z</time></trkpt><trkpt lat="45.791785" lon="8.8009633"><ele>250.0</ele><time>2026-04-05T17:43:56.808Z</time></trkpt><trkpt lat="45.7919217" lon="8.8009033"><ele>248.25</ele><time>2026-04-05T17:43:57.809Z</time></trkpt><trkpt lat="45.7920533" lon="8.8008383"><ele>246.5</ele><time>2026-04-05T17:43:58.808Z</time></trkpt><trkpt lat="45.7921667" lon="8.80077"><ele>244.75</ele><time>2026-04-05T17:43:59.808Z</time></trkpt><trkpt lat="45.7922717" lon="8.8006933"><ele>243.0</ele><time>2026-04-05T17:44:00.808Z</time></trkpt><trkpt lat="45.7923617" lon="8.80063"><ele>243.0</ele><time>2026-04-05T17:44:01.808Z</time></trkpt><trkpt lat="45.7924283" lon="8.8005817"><ele>243.0</ele><time>2026-04-05T17:44:02.808Z</time></trkpt><trkpt lat="45.7925067" lon="8.80052"><ele>243.0</ele><time>2026-04-05T17:44:04.808Z</time></trkpt><trkpt lat="45.792595" lon="8.800495"><ele>243.0</ele><time>2026-04-05T17:44:13.808Z</time></trkpt><trkpt lat="45.79266" lon="8.800495"><ele>243.0</ele><time>2026-04-05T17:44:14.808Z</time></trkpt><trkpt lat="45.7927383" lon="8.8004883"><ele>243.0</ele><time>2026-04-05T17:44:15.808Z</time></trkpt><trkpt lat="45.7928183" lon="8.80045"><ele>243.0</ele><time>2026-04-05T17:44:16.808Z</time></trkpt><trkpt lat="45.7928833" lon="8.8003817"><ele>243.0</ele><time>2026-04-05T17:44:17.809Z</time></trkpt><trkpt lat="45.792915" lon="8.8002833"><ele>243.0</ele><time>2026-04-05T17:44:18.808Z</time></trkpt><trkpt lat="45.7929117" lon="8.8001583"><ele>243.0</ele><time>2026-04-05T17:44:19.808Z</time></trkpt><trkpt lat="45.7928683" lon="8.80004"><ele>243.0</ele><time>2026-04-05T17:44:20.808Z</time></trkpt><trkpt lat="45.7927917" lon="8.7999467"><ele>243.0</ele><time>2026-04-05T17:44:21.808Z</time></trkpt><trkpt lat="45.7926833" lon="8.7998867"><ele>243.66666666666669</ele><time>2026-04-05T17:44:22.808Z</time></trkpt><trkpt lat="45.7925583" lon="8.7998083"><ele>244.33333333333334</ele><time>2026-04-05T17:44:23.808Z</time></trkpt><trkpt lat="45.792425" lon="8.7996733"><ele>245.0</ele><time>2026-04-05T17:44:24.808Z</time></trkpt><trkpt lat="45.792285" lon="8.7995117"><ele>245.33333333333334</ele><time>2026-04-05T17:44:25.808Z</time></trkpt><trkpt lat="45.7921367" lon="8.79933"><ele>245.66666666666669</ele><time>2026-04-05T17:44:26.809Z</time></trkpt><trkpt lat="45.7919967" lon="8.7991117"><ele>246.0</ele><time>2026-04-05T17:44:27.809Z</time></trkpt><trkpt lat="45.79185" lon="8.7988917"><ele>246.5</ele><time>2026-04-05T17:44:28.808Z</time></trkpt><trkpt lat="45.7917217" lon="8.7986433"><ele>247.0</ele><time>2026-04-05T17:44:29.808Z</time></trkpt><trkpt lat="45.791595" lon="8.7983583"><ele>247.0</ele><time>2026-04-05T17:44:30.809Z</time></trkpt><trkpt lat="45.7914817" lon="8.79806"><ele>247.0</ele><time>2026-04-05T17:44:31.808Z</time></trkpt><trkpt lat="45.791375" lon="8.797745"><ele>246.66666666666666</ele><time>2026-04-05T17:44:32.808Z</time></trkpt><trkpt lat="45.7912633" lon="8.7974583"><ele>246.33333333333331</ele><time>2026-04-05T17:44:33.809Z</time></trkpt><trkpt lat="45.7911533" lon="8.7971933"><ele>246.0</ele><time>2026-04-05T17:44:34.808Z</time></trkpt><trkpt lat="45.79104" lon="8.7969517"><ele>246.0</ele><time>2026-04-05T17:44:35.808Z</time></trkpt><trkpt lat="45.790935" lon="8.7967233"><ele>246.0</ele><time>2026-04-05T17:44:36.808Z</time></trkpt><trkpt lat="45.790825" lon="8.7964983"><ele>246.0</ele><time>2026-04-05T17:44:37.809Z</time></trkpt><trkpt lat="45.7907017" lon="8.7962733"><ele>246.0</ele><time>2026-04-05T17:44:38.808Z</time></trkpt><trkpt lat="45.7905683" lon="8.7960567"><ele>246.0</ele><time>2026-04-05T17:44:39.808Z</time></trkpt><trkpt lat="45.79044" lon="8.79585"><ele>246.0</ele><time>2026-04-05T17:44:40.809Z</time></trkpt><trkpt lat="45.7903283" lon="8.795645"><ele>246.0</ele><time>2026-04-05T17:44:41.809Z</time></trkpt><trkpt lat="45.790225" lon="8.7954383"><ele>246.0</ele><time>2026-04-05T17:44:42.808Z</time></trkpt><trkpt lat="45.79012" lon="8.7952383"><ele>246.0</ele><time>2026-04-05T17:44:43.808Z</time></trkpt><trkpt lat="45.7900233" lon="8.7950317"><ele>246.33333333333331</ele><time>2026-04-05T17:44:44.809Z</time></trkpt><trkpt lat="45.7899333" lon="8.79483"><ele>246.66666666666666</ele><time>2026-04-05T17:44:45.809Z</time></trkpt><trkpt lat="45.7898383" lon="8.7946117"><ele>247.0</ele><time>2026-04-05T17:44:46.809Z</time></trkpt><trkpt lat="45.7897517" lon="8.794385"><ele>246.66666666666666</ele><time>2026-04-05T17:44:47.809Z</time></trkpt><trkpt lat="45.789685" lon="8.79413"><ele>246.33333333333331</ele><time>2026-04-05T17:44:48.808Z</time></trkpt><trkpt lat="45.7896333" lon="8.79385"><ele>246.0</ele><time>2026-04-05T17:44:49.808Z</time></trkpt><trkpt lat="45.7896017" lon="8.7935383"><ele>245.5</ele><time>2026-04-05T17:44:50.808Z</time></trkpt><trkpt lat="45.7895733" lon="8.793205"><ele>245.0</ele><time>2026-04-05T17:44:51.808Z</time></trkpt><trkpt lat="45.789545" lon="8.7928733"><ele>244.66666666666669</ele><time>2026-04-05T17:44:52.808Z</time></trkpt><trkpt lat="45.7895083" lon="8.79256"><ele>244.33333333333331</ele><time>2026-04-05T17:44:53.808Z</time></trkpt><trkpt lat="45.78947" lon="8.7922617"><ele>244.0</ele><time>2026-04-05T17:44:54.808Z</time></trkpt><trkpt lat="45.7894367" lon="8.791985"><ele>243.66666666666666</ele><time>2026-04-05T17:44:55.808Z</time></trkpt><trkpt lat="45.789415" lon="8.79172"><ele>243.33333333333331</ele><time>2026-04-05T17:44:56.808Z</time></trkpt><trkpt lat="45.7893917" lon="8.791485"><ele>243.0</ele><time>2026-04-05T17:44:57.808Z</time></trkpt><trkpt lat="45.7893717" lon="8.7912783"><ele>243.0</ele><time>2026-04-05T17:44:58.808Z</time></trkpt><trkpt lat="45.789355" lon="8.79112"><ele>243.0</ele><time>2026-04-05T17:44:59.808Z</time></trkpt><trkpt lat="45.7893467" lon="8.7909867"><ele>243.0</ele><time>2026-04-05T17:45:00.809Z</time></trkpt><trkpt lat="45.7893567" lon="8.790865"><ele>243.0</ele><time>2026-04-05T17:45:01.808Z</time></trkpt><trkpt lat="45.7893833" lon="8.7907533"><ele>243.0</ele><time>2026-04-05T17:45:02.808Z</time></trkpt><trkpt lat="45.7894217" lon="8.7906617"><ele>243.0</ele><time>2026-04-05T17:45:03.808Z</time></trkpt><trkpt lat="45.7894433" lon="8.7905733"><ele>242.66666666666666</ele><time>2026-04-05T17:45:04.808Z</time></trkpt><trkpt lat="45.7894433" lon="8.7904817"><ele>242.33333333333331</ele><time>2026-04-05T17:45:05.808Z</time></trkpt><trkpt lat="45.78941" lon="8.7904033"><ele>242.0</ele><time>2026-04-05T17:45:06.808Z</time></trkpt><trkpt lat="45.7893533" lon="8.7903233"><ele>241.66666666666666</ele><time>2026-04-05T17:45:07.808Z</time></trkpt><trkpt lat="45.7892883" lon="8.790235"><ele>241.33333333333331</ele><time>2026-04-05T17:45:08.808Z</time></trkpt><trkpt lat="45.7892383" lon="8.790105"><ele>241.0</ele><time>2026-04-05T17:45:09.808Z</time></trkpt><trkpt lat="45.78919" lon="8.7899183"><ele>242.33333333333331</ele><time>2026-04-05T17:45:10.808Z</time></trkpt><trkpt lat="45.7891583" lon="8.7896767"><ele>243.66666666666669</ele><time>2026-04-05T17:45:11.808Z</time></trkpt><trkpt lat="45.7891267" lon="8.789395"><ele>245.0</ele><time>2026-04-05T17:45:12.809Z</time></trkpt><trkpt lat="45.7891" lon="8.7890883"><ele>245.5</ele><time>2026-04-05T17:45:13.808Z</time></trkpt><trkpt lat="45.7890667" lon="8.7887517"><ele>246.0</ele><time>2026-04-05T17:45:14.808Z</time></trkpt><trkpt lat="45.7890267" lon="8.7883833"><ele>246.0</ele><time>2026-04-05T17:45:15.808Z</time></trkpt><trkpt lat="45.78898" lon="8.7880067"><ele>246.0</ele><time>2026-04-05T17:45:16.808Z</time></trkpt><trkpt lat="45.7889367" lon="8.78761"><ele>247.5</ele><time>2026-04-05T17:45:17.808Z</time></trkpt><trkpt lat="45.7888967" lon="8.78721"><ele>249.0</ele><time>2026-04-05T17:45:18.808Z</time></trkpt><trkpt lat="45.78885" lon="8.7868033"><ele>249.0</ele><time>2026-04-05T17:45:19.809Z</time></trkpt><trkpt lat="45.7888" lon="8.7863967"><ele>249.0</ele><time>2026-04-05T17:45:20.808Z</time></trkpt><trkpt lat="45.788755" lon="8.7860133"><ele>249.5</ele><time>2026-04-05T17:45:21.808Z</time></trkpt><trkpt lat="45.7887117" lon="8.785645"><ele>250.0</ele><time>2026-04-05T17:45:22.808Z</time></trkpt><trkpt lat="45.7886717" lon="8.7852733"><ele>248.5</ele><time>2026-04-05T17:45:23.808Z</time></trkpt><trkpt lat="45.78863" lon="8.78491"><ele>247.0</ele><time>2026-04-05T17:45:24.808Z</time></trkpt><trkpt lat="45.7885917" lon="8.7845467"><ele>246.5</ele><time>2026-04-05T17:45:25.808Z</time></trkpt><trkpt lat="45.7885583" lon="8.7842083"><ele>246.0</ele><time>2026-04-05T17:45:26.808Z</time></trkpt><trkpt lat="45.7885217" lon="8.7838633"><ele>247.33333333333331</ele><time>2026-04-05T17:45:27.809Z</time></trkpt><trkpt lat="45.788485" lon="8.7835317"><ele>248.66666666666666</ele><time>2026-04-05T17:45:28.808Z</time></trkpt><trkpt lat="45.7884517" lon="8.7832283"><ele>250.0</ele><time>2026-04-05T17:45:29.809Z</time></trkpt><trkpt lat="45.7884217" lon="8.7829383"><ele>249.66666666666666</ele><time>2026-04-05T17:45:30.808Z</time></trkpt><trkpt lat="45.7883917" lon="8.7826817"><ele>249.33333333333331</ele><time>2026-04-05T17:45:31.808Z</time></trkpt><trkpt lat="45.78837" lon="8.7824567"><ele>249.0</ele><time>2026-04-05T17:45:32.808Z</time></trkpt><trkpt lat="45.7883567" lon="8.7822483"><ele>249.0</ele><time>2026-04-05T17:45:33.809Z</time></trkpt><trkpt lat="45.7883483" lon="8.7820667"><ele>248.99999999999997</ele><time>2026-04-05T17:45:34.809Z</time></trkpt><trkpt lat="45.78835" lon="8.7819083"><ele>248.99999999999997</ele><time>2026-04-05T17:45:35.808Z</time></trkpt><trkpt lat="45.7883617" lon="8.7817667"><ele>249.0</ele><time>2026-04-05T17:45:36.809Z</time></trkpt><trkpt lat="45.7883767" lon="8.7816333"><ele>249.0</ele><time>2026-04-05T17:45:37.808Z</time></trkpt><trkpt lat="45.7883967" lon="8.7815083"><ele>249.0</ele><time>2026-04-05T17:45:38.808Z</time></trkpt><trkpt lat="45.7884033" lon="8.7813817"><ele>249.0</ele><time>2026-04-05T17:45:39.809Z</time></trkpt><trkpt lat="45.7883917" lon="8.7812233"><ele>249.0</ele><time>2026-04-05T17:45:40.808Z</time></trkpt><trkpt lat="45.788385" lon="8.7810417"><ele>249.0</ele><time>2026-04-05T17:45:41.808Z</time></trkpt><trkpt lat="45.7884017" lon="8.780825"><ele>249.0</ele><time>2026-04-05T17:45:42.808Z</time></trkpt><trkpt lat="45.7884367" lon="8.780575"><ele>249.0</ele><time>2026-04-05T17:45:43.808Z</time></trkpt><trkpt lat="45.78849" lon="8.7802817"><ele>249.0</ele><time>2026-04-05T17:45:44.809Z</time></trkpt><trkpt lat="45.788555" lon="8.779965"><ele>250.5</ele><time>2026-04-05T17:45:45.808Z</time></trkpt><trkpt lat="45.7886133" lon="8.7796433"><ele>252.0</ele><time>2026-04-05T17:45:46.809Z</time></trkpt><trkpt lat="45.7886817" lon="8.7792967"><ele>252.0</ele><time>2026-04-05T17:45:47.809Z</time></trkpt><trkpt lat="45.7887567" lon="8.7789283"><ele>252.0</ele><time>2026-04-05T17:45:48.808Z</time></trkpt><trkpt lat="45.7888317" lon="8.7785617"><ele>253.5</ele><time>2026-04-05T17:45:49.808Z</time></trkpt><trkpt lat="45.78891" lon="8.77819"><ele>255.0</ele><time>2026-04-05T17:45:50.808Z</time></trkpt><trkpt lat="45.78898" lon="8.7778283"><ele>256.0</ele><time>2026-04-05T17:45:51.809Z</time></trkpt><trkpt lat="45.78905" lon="8.7774867"><ele>257.0</ele><time>2026-04-05T17:45:52.808Z</time></trkpt><trkpt lat="45.78911" lon="8.7771717"><ele>257.0</ele><time>2026-04-05T17:45:53.808Z</time></trkpt><trkpt lat="45.7891733" lon="8.7768733"><ele>257.0</ele><time>2026-04-05T17:45:54.808Z</time></trkpt><trkpt lat="45.7892267" lon="8.77657"><ele>257.0</ele><time>2026-04-05T17:45:55.808Z</time></trkpt><trkpt lat="45.7892883" lon="8.7762617"><ele>254.66666666666669</ele><time>2026-04-05T17:45:56.808Z</time></trkpt><trkpt lat="45.7893433" lon="8.7759583"><ele>252.33333333333331</ele><time>2026-04-05T17:45:57.809Z</time></trkpt><trkpt lat="45.7894067" lon="8.7756467"><ele>250.0</ele><time>2026-04-05T17:45:58.808Z</time></trkpt><trkpt lat="45.7894717" lon="8.7753333"><ele>250.66666666666666</ele><time>2026-04-05T17:45:59.808Z</time></trkpt><trkpt lat="45.7895283" lon="8.7750267"><ele>251.33333333333331</ele><time>2026-04-05T17:46:00.808Z</time></trkpt><trkpt lat="45.789585" lon="8.77472"><ele>252.0</ele><time>2026-04-05T17:46:01.808Z</time></trkpt><trkpt lat="45.7896367" lon="8.7744183"><ele>251.5</ele><time>2026-04-05T17:46:02.809Z</time></trkpt><trkpt lat="45.7896917" lon="8.7740933"><ele>251.0</ele><time>2026-04-05T17:46:03.808Z</time></trkpt><trkpt lat="45.7897417" lon="8.7737783"><ele>252.33333333333334</ele><time>2026-04-05T17:46:04.808Z</time></trkpt><trkpt lat="45.7897667" lon="8.77348"><ele>253.66666666666669</ele><time>2026-04-05T17:46:05.809Z</time></trkpt><trkpt lat="45.789785" lon="8.7731917"><ele>255.0</ele><time>2026-04-05T17:46:06.808Z</time></trkpt><trkpt lat="45.78981" lon="8.7729433"><ele>255.0</ele><time>2026-04-05T17:46:07.809Z</time></trkpt><trkpt lat="45.78984" lon="8.7727033"><ele>255.0</ele><time>2026-04-05T17:46:08.808Z</time></trkpt><trkpt lat="45.7898633" lon="8.7724733"><ele>255.0</ele><time>2026-04-05T17:46:09.809Z</time></trkpt><trkpt lat="45.7898883" lon="8.77225"><ele>255.33333333333331</ele><time>2026-04-05T17:46:10.809Z</time></trkpt><trkpt lat="45.78991" lon="8.7720217"><ele>255.66666666666666</ele><time>2026-04-05T17:46:11.808Z</time></trkpt><trkpt lat="45.7899267" lon="8.771785"><ele>256.0</ele><time>2026-04-05T17:46:12.808Z</time></trkpt><trkpt lat="45.7899517" lon="8.7715283"><ele>255.33333333333331</ele><time>2026-04-05T17:46:13.809Z</time></trkpt><trkpt lat="45.7899683" lon="8.7712667"><ele>254.66666666666669</ele><time>2026-04-05T17:46:14.809Z</time></trkpt><trkpt lat="45.78999" lon="8.7710183"><ele>254.0</ele><time>2026-04-05T17:46:15.808Z</time></trkpt><trkpt lat="45.790005" lon="8.77077"><ele>254.0</ele><time>2026-04-05T17:46:16.808Z</time></trkpt><trkpt lat="45.790025" lon="8.7705083"><ele>254.0</ele><time>2026-04-05T17:46:17.808Z</time></trkpt><trkpt lat="45.7900467" lon="8.770245"><ele>254.0</ele><time>2026-04-05T17:46:18.809Z</time></trkpt><trkpt lat="45.7900717" lon="8.769985"><ele>255.0</ele><time>2026-04-05T17:46:19.808Z</time></trkpt><trkpt lat="45.7900983" lon="8.769745"><ele>256.0</ele><time>2026-04-05T17:46:20.808Z</time></trkpt><trkpt lat="45.7901317" lon="8.769505"><ele>257.0</ele><time>2026-04-05T17:46:21.808Z</time></trkpt><trkpt lat="45.79016" lon="8.7692633"><ele>254.0</ele><time>2026-04-05T17:46:22.808Z</time></trkpt><trkpt lat="45.7901917" lon="8.769015"><ele>251.0</ele><time>2026-04-05T17:46:23.808Z</time></trkpt><trkpt lat="45.79023" lon="8.7687617"><ele>248.0</ele><time>2026-04-05T17:46:24.808Z</time></trkpt><trkpt lat="45.79027" lon="8.7685017"><ele>248.0</ele><time>2026-04-05T17:46:25.809Z</time></trkpt><trkpt lat="45.7903067" lon="8.76824"><ele>248.0</ele><time>2026-04-05T17:46:26.809Z</time></trkpt><trkpt lat="45.790345" lon="8.7679933"><ele>248.0</ele><time>2026-04-05T17:46:27.808Z</time></trkpt><trkpt lat="45.79038" lon="8.7677617"><ele>248.66666666666669</ele><time>2026-04-05T17:46:28.808Z</time></trkpt><trkpt lat="45.790415" lon="8.7675283"><ele>249.33333333333331</ele><time>2026-04-05T17:46:29.808Z</time></trkpt><trkpt lat="45.7904533" lon="8.7672917"><ele>250.0</ele><time>2026-04-05T17:46:30.808Z</time></trkpt><trkpt lat="45.7904817" lon="8.7670483"><ele>251.33333333333331</ele><time>2026-04-05T17:46:31.808Z</time></trkpt><trkpt lat="45.790505" lon="8.7668"><ele>252.66666666666669</ele><time>2026-04-05T17:46:32.808Z</time></trkpt><trkpt lat="45.7905117" lon="8.7665567"><ele>254.0</ele><time>2026-04-05T17:46:33.808Z</time></trkpt><trkpt lat="45.79051" lon="8.766315"><ele>254.0</ele><time>2026-04-05T17:46:34.808Z</time></trkpt><trkpt lat="45.7905083" lon="8.76608"><ele>254.0</ele><time>2026-04-05T17:46:35.808Z</time></trkpt><trkpt lat="45.7904983" lon="8.7658333"><ele>254.0</ele><time>2026-04-05T17:46:36.808Z</time></trkpt><trkpt lat="45.790485" lon="8.7655883"><ele>254.33333333333334</ele><time>2026-04-05T17:46:37.808Z</time></trkpt><trkpt lat="45.7904717" lon="8.765345"><ele>254.66666666666669</ele><time>2026-04-05T17:46:38.808Z</time></trkpt><trkpt lat="45.7904583" lon="8.7651033"><ele>255.0</ele><time>2026-04-05T17:46:39.809Z</time></trkpt><trkpt lat="45.7904517" lon="8.7648717"><ele>255.0</ele><time>2026-04-05T17:46:40.808Z</time></trkpt><trkpt lat="45.7904467" lon="8.7646383"><ele>255.0</ele><time>2026-04-05T17:46:41.808Z</time></trkpt><trkpt lat="45.7904367" lon="8.7643983"><ele>255.0</ele><time>2026-04-05T17:46:42.808Z</time></trkpt><trkpt lat="45.7904333" lon="8.76414"><ele>255.0</ele><time>2026-04-05T17:46:43.808Z</time></trkpt><trkpt lat="45.7904183" lon="8.763885"><ele>255.0</ele><time>2026-04-05T17:46:44.808Z</time></trkpt><trkpt lat="45.7904017" lon="8.7636433"><ele>255.0</ele><time>2026-04-05T17:46:45.809Z</time></trkpt><trkpt lat="45.790395" lon="8.76341"><ele>254.66666666666669</ele><time>2026-04-05T17:46:46.808Z</time></trkpt><trkpt lat="45.7903867" lon="8.7631733"><ele>254.33333333333334</ele><time>2026-04-05T17:46:47.808Z</time></trkpt><trkpt lat="45.790375" lon="8.7629417"><ele>254.0</ele><time>2026-04-05T17:46:48.808Z</time></trkpt><trkpt lat="45.7903633" lon="8.76271"><ele>255.33333333333334</ele><time>2026-04-05T17:46:49.808Z</time></trkpt><trkpt lat="45.7903583" lon="8.76248"><ele>256.6666666666667</ele><time>2026-04-05T17:46:50.808Z</time></trkpt><trkpt lat="45.7903533" lon="8.76225"><ele>258.0</ele><time>2026-04-05T17:46:51.809Z</time></trkpt><trkpt lat="45.7903567" lon="8.762005"><ele>257.6666666666667</ele><time>2026-04-05T17:46:52.808Z</time></trkpt><trkpt lat="45.7903667" lon="8.7617583"><ele>257.33333333333337</ele><time>2026-04-05T17:46:53.808Z</time></trkpt><trkpt lat="45.7903733" lon="8.7615133"><ele>257.0</ele><time>2026-04-05T17:46:54.809Z</time></trkpt><trkpt lat="45.7903867" lon="8.76127"><ele>257.0</ele><time>2026-04-05T17:46:55.808Z</time></trkpt><trkpt lat="45.7904117" lon="8.76102"><ele>257.0</ele><time>2026-04-05T17:46:56.809Z</time></trkpt><trkpt lat="45.79043" lon="8.76077"><ele>257.0</ele><time>2026-04-05T17:46:57.808Z</time></trkpt><trkpt lat="45.79044" lon="8.7605283"><ele>257.0</ele><time>2026-04-05T17:46:58.808Z</time></trkpt><trkpt lat="45.790455" lon="8.7602817"><ele>257.0</ele><time>2026-04-05T17:46:59.808Z</time></trkpt><trkpt lat="45.7904667" lon="8.7600467"><ele>257.0</ele><time>2026-04-05T17:47:00.808Z</time></trkpt><trkpt lat="45.7904833" lon="8.7598283"><ele>257.25</ele><time>2026-04-05T17:47:01.808Z</time></trkpt><trkpt lat="45.7905" lon="8.7596217"><ele>257.5</ele><time>2026-04-05T17:47:02.808Z</time></trkpt><trkpt lat="45.7905117" lon="8.7594217"><ele>257.75</ele><time>2026-04-05T17:47:03.808Z</time></trkpt><trkpt lat="45.7905233" lon="8.7592183"><ele>258.0</ele><time>2026-04-05T17:47:04.808Z</time></trkpt><trkpt lat="45.7905317" lon="8.7590133"><ele>258.0</ele><time>2026-04-05T17:47:05.808Z</time></trkpt><trkpt lat="45.7905433" lon="8.7588033"><ele>258.0</ele><time>2026-04-05T17:47:06.808Z</time></trkpt><trkpt lat="45.790555" lon="8.7585983"><ele>258.0</ele><time>2026-04-05T17:47:07.808Z</time></trkpt><trkpt lat="45.790565" lon="8.7583917"><ele>258.0</ele><time>2026-04-05T17:47:08.808Z</time></trkpt><trkpt lat="45.7905767" lon="8.7581833"><ele>258.3333333333333</ele><time>2026-04-05T17:47:09.809Z</time></trkpt><trkpt lat="45.790595" lon="8.757965"><ele>258.66666666666663</ele><time>2026-04-05T17:47:10.809Z</time></trkpt><trkpt lat="45.7906067" lon="8.75774"><ele>259.0</ele><time>2026-04-05T17:47:11.808Z</time></trkpt><trkpt lat="45.790615" lon="8.757515"><ele>259.0</ele><time>2026-04-05T17:47:12.808Z</time></trkpt><trkpt lat="45.7906283" lon="8.757295"><ele>259.0</ele><time>2026-04-05T17:47:13.809Z</time></trkpt><trkpt lat="45.7906417" lon="8.7570667"><ele>259.0</ele><time>2026-04-05T17:47:14.808Z</time></trkpt><trkpt lat="45.7906583" lon="8.756835"><ele>260.0</ele><time>2026-04-05T17:47:15.808Z</time></trkpt><trkpt lat="45.7906733" lon="8.7566033"><ele>261.0</ele><time>2026-04-05T17:47:16.808Z</time></trkpt><trkpt lat="45.79068" lon="8.7563817"><ele>262.0</ele><time>2026-04-05T17:47:17.808Z</time></trkpt><trkpt lat="45.7906867" lon="8.75617"><ele>262.66666666666663</ele><time>2026-04-05T17:47:18.808Z</time></trkpt><trkpt lat="45.790685" lon="8.7559567"><ele>263.3333333333333</ele><time>2026-04-05T17:47:19.809Z</time></trkpt><trkpt lat="45.790685" lon="8.7557383"><ele>264.0</ele><time>2026-04-05T17:47:20.809Z</time></trkpt><trkpt lat="45.7906867" lon="8.7555183"><ele>264.0</ele><time>2026-04-05T17:47:21.808Z</time></trkpt><trkpt lat="45.790685" lon="8.755295"><ele>264.0</ele><time>2026-04-05T17:47:22.808Z</time></trkpt><trkpt lat="45.790685" lon="8.7550717"><ele>264.0</ele><time>2026-04-05T17:47:23.808Z</time></trkpt><trkpt lat="45.79068" lon="8.7548433"><ele>264.0</ele><time>2026-04-05T17:47:24.808Z</time></trkpt><trkpt lat="45.7906767" lon="8.7546117"><ele>264.0</ele><time>2026-04-05T17:47:25.808Z</time></trkpt><trkpt lat="45.79067" lon="8.7543917"><ele>264.0</ele><time>2026-04-05T17:47:26.808Z</time></trkpt><trkpt lat="45.7906667" lon="8.7541717"><ele>265.0</ele><time>2026-04-05T17:47:27.808Z</time></trkpt><trkpt lat="45.7906633" lon="8.7539467"><ele>266.0</ele><time>2026-04-05T17:47:28.808Z</time></trkpt><trkpt lat="45.79066" lon="8.7537233"><ele>267.0</ele><time>2026-04-05T17:47:29.808Z</time></trkpt><trkpt lat="45.790655" lon="8.7535083"><ele>267.25</ele><time>2026-04-05T17:47:30.808Z</time></trkpt><trkpt lat="45.7906583" lon="8.753295"><ele>267.5</ele><time>2026-04-05T17:47:31.808Z</time></trkpt><trkpt lat="45.7906583" lon="8.753085"><ele>267.75</ele><time>2026-04-05T17:47:32.808Z</time></trkpt><trkpt lat="45.7906517" lon="8.7528683"><ele>268.0</ele><time>2026-04-05T17:47:33.808Z</time></trkpt><trkpt lat="45.7906517" lon="8.7526583"><ele>268.75</ele><time>2026-04-05T17:47:34.808Z</time></trkpt><trkpt lat="45.7906467" lon="8.75244"><ele>269.5</ele><time>2026-04-05T17:47:35.808Z</time></trkpt><trkpt lat="45.7906467" lon="8.75223"><ele>270.25</ele><time>2026-04-05T17:47:36.809Z</time></trkpt><trkpt lat="45.7906467" lon="8.7520283"><ele>271.0</ele><time>2026-04-05T17:47:37.808Z</time></trkpt><trkpt lat="45.7906367" lon="8.7518417"><ele>271.0</ele><time>2026-04-05T17:47:38.808Z</time></trkpt><trkpt lat="45.7906383" lon="8.7516633"><ele>271.0</ele><time>2026-04-05T17:47:39.808Z</time></trkpt><trkpt lat="45.790635" lon="8.7514933"><ele>271.0</ele><time>2026-04-05T17:47:40.808Z</time></trkpt><trkpt lat="45.7906317" lon="8.751325"><ele>271.0</ele><time>2026-04-05T17:47:41.808Z</time></trkpt><trkpt lat="45.7906283" lon="8.7511683"><ele>270.40000000000003</ele><time>2026-04-05T17:47:42.809Z</time></trkpt><trkpt lat="45.79063" lon="8.751005"><ele>269.8</ele><time>2026-04-05T17:47:43.808Z</time></trkpt><trkpt lat="45.7906267" lon="8.7508433"><ele>269.20000000000005</ele><time>2026-04-05T17:47:44.808Z</time></trkpt><trkpt lat="45.790625" lon="8.750695"><ele>268.6</ele><time>2026-04-05T17:47:45.808Z</time></trkpt><trkpt lat="45.7906183" lon="8.75055"><ele>268.0</ele><time>2026-04-05T17:47:46.808Z</time></trkpt><trkpt lat="45.7906117" lon="8.7503867"><ele>268.0</ele><time>2026-04-05T17:47:47.809Z</time></trkpt><trkpt lat="45.79061" lon="8.7502183"><ele>268.0</ele><time>2026-04-05T17:47:48.808Z</time></trkpt><trkpt lat="45.79061" lon="8.7500483"><ele>268.0</ele><time>2026-04-05T17:47:49.809Z</time></trkpt><trkpt lat="45.7906067" lon="8.749865"><ele>268.0</ele><time>2026-04-05T17:47:50.808Z</time></trkpt><trkpt lat="45.790605" lon="8.749685"><ele>267.5</ele><time>2026-04-05T17:47:51.808Z</time></trkpt><trkpt lat="45.7906" lon="8.74949"><ele>267.0</ele><time>2026-04-05T17:47:52.808Z</time></trkpt><trkpt lat="45.7905967" lon="8.7493033"><ele>266.5</ele><time>2026-04-05T17:47:53.808Z</time></trkpt><trkpt lat="45.790595" lon="8.74912"><ele>266.0</ele><time>2026-04-05T17:47:54.808Z</time></trkpt><trkpt lat="45.7905983" lon="8.748935"><ele>265.5</ele><time>2026-04-05T17:47:55.808Z</time></trkpt><trkpt lat="45.790605" lon="8.7487567"><ele>265.0</ele><time>2026-04-05T17:47:56.809Z</time></trkpt><trkpt lat="45.7906117" lon="8.748585"><ele>264.5</ele><time>2026-04-05T17:47:57.809Z</time></trkpt><trkpt lat="45.79063" lon="8.7484183"><ele>264.0</ele><time>2026-04-05T17:47:58.808Z</time></trkpt><trkpt lat="45.79066" lon="8.7482817"><ele>264.0</ele><time>2026-04-05T17:47:59.809Z</time></trkpt><trkpt lat="45.7906917" lon="8.7481617"><ele>264.0</ele><time>2026-04-05T17:48:00.808Z</time></trkpt><trkpt lat="45.7907317" lon="8.7480367"><ele>264.0</ele><time>2026-04-05T17:48:01.808Z</time></trkpt><trkpt lat="45.79075" lon="8.7479117"><ele>264.0</ele><time>2026-04-05T17:48:02.809Z</time></trkpt><trkpt lat="45.7907333" lon="8.7477783"><ele>264.0</ele><time>2026-04-05T17:48:03.808Z</time></trkpt><trkpt lat="45.7907067" lon="8.7476517"><ele>264.0</ele><time>2026-04-05T17:48:04.809Z</time></trkpt><trkpt lat="45.7906933" lon="8.7475283"><ele>264.0</ele><time>2026-04-05T17:48:05.809Z</time></trkpt><trkpt lat="45.7906967" lon="8.7474183"><ele>264.0</ele><time>2026-04-05T17:48:06.808Z</time></trkpt><trkpt lat="45.790715" lon="8.7473117"><ele>264.0</ele><time>2026-04-05T17:48:07.808Z</time></trkpt><trkpt lat="45.7907367" lon="8.7472033"><ele>264.0</ele><time>2026-04-05T17:48:08.809Z</time></trkpt><trkpt lat="45.7907617" lon="8.7470933"><ele>264.0</ele><time>2026-04-05T17:48:09.808Z</time></trkpt><trkpt lat="45.7907883" lon="8.7469917"><ele>264.0</ele><time>2026-04-05T17:48:10.809Z</time></trkpt><trkpt lat="45.7908217" lon="8.7469017"><ele>264.0</ele><time>2026-04-05T17:48:11.808Z</time></trkpt><trkpt lat="45.7908567" lon="8.7468217"><ele>264.0</ele><time>2026-04-05T17:48:12.808Z</time></trkpt><trkpt lat="45.790875" lon="8.7466583"><ele>264.0</ele><time>2026-04-05T17:48:14.808Z</time></trkpt><trkpt lat="45.7907983" lon="8.74655"><ele>264.0</ele><time>2026-04-05T17:48:16.808Z</time></trkpt><trkpt lat="45.790735" lon="8.746495"><ele>264.0</ele><time>2026-04-05T17:48:17.808Z</time></trkpt><trkpt lat="45.79068" lon="8.7464167"><ele>264.0</ele><time>2026-04-05T17:48:18.809Z</time></trkpt><trkpt lat="45.7906283" lon="8.746295"><ele>264.0</ele><time>2026-04-05T17:48:19.809Z</time></trkpt><trkpt lat="45.7905783" lon="8.7461533"><ele>264.0</ele><time>2026-04-05T17:48:20.808Z</time></trkpt><trkpt lat="45.7905283" lon="8.7460183"><ele>264.0</ele><time>2026-04-05T17:48:21.808Z</time></trkpt><trkpt lat="45.7904767" lon="8.7458833"><ele>264.0</ele><time>2026-04-05T17:48:22.808Z</time></trkpt><trkpt lat="45.7904283" lon="8.7457483"><ele>263.8</ele><time>2026-04-05T17:48:23.808Z</time></trkpt><trkpt lat="45.790385" lon="8.7456117"><ele>263.59999999999997</ele><time>2026-04-05T17:48:24.808Z</time></trkpt><trkpt lat="45.79035" lon="8.7454867"><ele>263.4</ele><time>2026-04-05T17:48:25.809Z</time></trkpt><trkpt lat="45.79032" lon="8.7453767"><ele>263.2</ele><time>2026-04-05T17:48:26.809Z</time></trkpt><trkpt lat="45.7902917" lon="8.7452467"><ele>263.0</ele><time>2026-04-05T17:48:27.809Z</time></trkpt><trkpt lat="45.7902583" lon="8.7451"><ele>263.0</ele><time>2026-04-05T17:48:28.808Z</time></trkpt><trkpt lat="45.7902167" lon="8.7449283"><ele>263.0</ele><time>2026-04-05T17:48:29.808Z</time></trkpt><trkpt lat="45.7901767" lon="8.7447383"><ele>263.0</ele><time>2026-04-05T17:48:30.808Z</time></trkpt><trkpt lat="45.7901367" lon="8.7445533"><ele>263.0</ele><time>2026-04-05T17:48:31.808Z</time></trkpt><trkpt lat="45.7900983" lon="8.7443733"><ele>263.25</ele><time>2026-04-05T17:48:32.809Z</time></trkpt><trkpt lat="45.79006" lon="8.7441933"><ele>263.5</ele><time>2026-04-05T17:48:33.809Z</time></trkpt><trkpt lat="45.790028" lon="8.7440155"><ele>263.75</ele><time>2026-04-05T17:48:34.808Z</time></trkpt><trkpt lat="45.7900057" lon="8.7438396"><ele>264.0</ele><time>2026-04-05T17:48:35.808Z</time></trkpt><trkpt lat="45.7899969" lon="8.7436622"><ele>263.5</ele><time>2026-04-05T17:48:36.808Z</time></trkpt><trkpt lat="45.7899922" lon="8.7434847"><ele>263.0</ele><time>2026-04-05T17:48:37.808Z</time></trkpt><trkpt lat="45.789985" lon="8.7433055"><ele>262.5</ele><time>2026-04-05T17:48:38.808Z</time></trkpt><trkpt lat="45.7899608" lon="8.7431325"><ele>262.0</ele><time>2026-04-05T17:48:39.808Z</time></trkpt><trkpt lat="45.7899241" lon="8.7429731"><ele>262.0</ele><time>2026-04-05T17:48:40.808Z</time></trkpt><trkpt lat="45.7898783" lon="8.7428313"><ele>262.0</ele><time>2026-04-05T17:48:41.808Z</time></trkpt><trkpt lat="45.7898226" lon="8.7427032"><ele>262.0</ele><time>2026-04-05T17:48:42.808Z</time></trkpt><trkpt lat="45.7897565" lon="8.7425767"><ele>262.0</ele><time>2026-04-05T17:48:43.809Z</time></trkpt><trkpt lat="45.7896823" lon="8.7424494"><ele>262.0</ele><time>2026-04-05T17:48:44.809Z</time></trkpt><trkpt lat="45.7896045" lon="8.7423192"><ele>262.25</ele><time>2026-04-05T17:48:45.808Z</time></trkpt><trkpt lat="45.7895212" lon="8.7421909"><ele>262.5</ele><time>2026-04-05T17:48:46.809Z</time></trkpt><trkpt lat="45.7894443" lon="8.7420537"><ele>262.75</ele><time>2026-04-05T17:48:47.808Z</time></trkpt><trkpt lat="45.7893661" lon="8.7419123"><ele>263.0</ele><time>2026-04-05T17:48:48.808Z</time></trkpt><trkpt lat="45.7892846" lon="8.7417671"><ele>263.0</ele><time>2026-04-05T17:48:49.808Z</time></trkpt><trkpt lat="45.7891943" lon="8.7416213"><ele>263.0</ele><time>2026-04-05T17:48:50.808Z</time></trkpt><trkpt lat="45.7891017" lon="8.7414922"><ele>263.0</ele><time>2026-04-05T17:48:51.808Z</time></trkpt><trkpt lat="45.7889952" lon="8.7413675"><ele>263.0</ele><time>2026-04-05T17:48:52.808Z</time></trkpt><trkpt lat="45.7888754" lon="8.7412633"><ele>263.0</ele><time>2026-04-05T17:48:53.808Z</time></trkpt><trkpt lat="45.7887391" lon="8.7411859"><ele>263.0</ele><time>2026-04-05T17:48:54.808Z</time></trkpt><trkpt lat="45.7885998" lon="8.7411282"><ele>263.0</ele><time>2026-04-05T17:48:55.808Z</time></trkpt><trkpt lat="45.7884633" lon="8.7410548"><ele>263.0</ele><time>2026-04-05T17:48:56.808Z</time></trkpt><trkpt lat="45.7883329" lon="8.7409621"><ele>263.25</ele><time>2026-04-05T17:48:57.808Z</time></trkpt><trkpt lat="45.7882119" lon="8.7408486"><ele>263.5</ele><time>2026-04-05T17:48:58.809Z</time></trkpt><trkpt lat="45.7880994" lon="8.7407307"><ele>263.75</ele><time>2026-04-05T17:48:59.808Z</time></trkpt><trkpt lat="45.7879977" lon="8.7406063"><ele>264.0</ele><time>2026-04-05T17:49:00.808Z</time></trkpt><trkpt lat="45.7878907" lon="8.7404825"><ele>264.0</ele><time>2026-04-05T17:49:01.808Z</time></trkpt><trkpt lat="45.7877898" lon="8.7403557"><ele>264.0</ele><time>2026-04-05T17:49:02.808Z</time></trkpt><trkpt lat="45.7876876" lon="8.7402282"><ele>264.0</ele><time>2026-04-05T17:49:03.808Z</time></trkpt><trkpt lat="45.7875749" lon="8.7401089"><ele>264.0</ele><time>2026-04-05T17:49:04.809Z</time></trkpt><trkpt lat="45.7874607" lon="8.7399986"><ele>263.75</ele><time>2026-04-05T17:49:05.808Z</time></trkpt><trkpt lat="45.787353" lon="8.7399024"><ele>263.5</ele><time>2026-04-05T17:49:06.808Z</time></trkpt><trkpt lat="45.7872503" lon="8.7398048"><ele>263.25</ele><time>2026-04-05T17:49:07.808Z</time></trkpt><trkpt lat="45.7871654" lon="8.7397006"><ele>263.0</ele><time>2026-04-05T17:49:08.808Z</time></trkpt><trkpt lat="45.7870905" lon="8.7395876"><ele>263.0</ele><time>2026-04-05T17:49:09.808Z</time></trkpt><trkpt lat="45.7870164" lon="8.7394661"><ele>263.0</ele><time>2026-04-05T17:49:10.808Z</time></trkpt><trkpt lat="45.7869492" lon="8.7393392"><ele>263.0</ele><time>2026-04-05T17:49:11.808Z</time></trkpt><trkpt lat="45.7868732" lon="8.7392014"><ele>263.0</ele><time>2026-04-05T17:49:12.808Z</time></trkpt><trkpt lat="45.7867942" lon="8.7390727"><ele>263.0</ele><time>2026-04-05T17:49:13.808Z</time></trkpt><trkpt lat="45.7867263" lon="8.7389529"><ele>263.0</ele><time>2026-04-05T17:49:14.808Z</time></trkpt><trkpt lat="45.786666" lon="8.7388331"><ele>263.0</ele><time>2026-04-05T17:49:15.809Z</time></trkpt><trkpt lat="45.7866147" lon="8.7387194"><ele>263.0</ele><time>2026-04-05T17:49:16.808Z</time></trkpt><trkpt lat="45.7865649" lon="8.7386078"><ele>263.0</ele><time>2026-04-05T17:49:17.808Z</time></trkpt><trkpt lat="45.7865243" lon="8.7384941"><ele>263.0</ele><time>2026-04-05T17:49:18.808Z</time></trkpt><trkpt lat="45.7864975" lon="8.7383895"><ele>263.0</ele><time>2026-04-05T17:49:19.808Z</time></trkpt><trkpt lat="45.7864781" lon="8.7382817"><ele>263.0</ele><time>2026-04-05T17:49:20.808Z</time></trkpt><trkpt lat="45.786462" lon="8.7381791"><ele>263.0</ele><time>2026-04-05T17:49:21.809Z</time></trkpt><trkpt lat="45.7864443" lon="8.7380787"><ele>263.0</ele><time>2026-04-05T17:49:22.808Z</time></trkpt><trkpt lat="45.7864317" lon="8.7379718"><ele>263.0</ele><time>2026-04-05T17:49:23.808Z</time></trkpt><trkpt lat="45.7864202" lon="8.7378534"><ele>263.0</ele><time>2026-04-05T17:49:24.808Z</time></trkpt><trkpt lat="45.7864061" lon="8.7377251"><ele>263.0</ele><time>2026-04-05T17:49:25.808Z</time></trkpt><trkpt lat="45.7863916" lon="8.737594"><ele>263.0</ele><time>2026-04-05T17:49:26.808Z</time></trkpt><trkpt lat="45.7863804" lon="8.7374713"><ele>263.0</ele><time>2026-04-05T17:49:27.808Z</time></trkpt><trkpt lat="45.7863729" lon="8.73737"><ele>263.0</ele><time>2026-04-05T17:49:28.808Z</time></trkpt><trkpt lat="45.786364" lon="8.7372771"><ele>263.0</ele><time>2026-04-05T17:49:29.808Z</time></trkpt><trkpt lat="45.7863367" lon="8.7371171"><ele>263.0</ele><time>2026-04-05T17:49:31.808Z</time></trkpt><trkpt lat="45.7863111" lon="8.7369496"><ele>263.0</ele><time>2026-04-05T17:49:33.808Z</time></trkpt><trkpt lat="45.7862878" lon="8.7368318"><ele>263.0</ele><time>2026-04-05T17:49:34.808Z</time></trkpt><trkpt lat="45.7862533" lon="8.7366825"><ele>263.0</ele><time>2026-04-05T17:49:35.808Z</time></trkpt><trkpt lat="45.7862082" lon="8.7365122"><ele>263.0</ele><time>2026-04-05T17:49:36.808Z</time></trkpt><trkpt lat="45.7861607" lon="8.7363276"><ele>262.6</ele><time>2026-04-05T17:49:37.808Z</time></trkpt><trkpt lat="45.7861188" lon="8.7361504"><ele>262.20000000000005</ele><time>2026-04-05T17:49:38.808Z</time></trkpt><trkpt lat="45.7860838" lon="8.7359923"><ele>261.8</ele><time>2026-04-05T17:49:39.809Z</time></trkpt><trkpt lat="45.7860612" lon="8.7358598"><ele>261.40000000000003</ele><time>2026-04-05T17:49:40.808Z</time></trkpt><trkpt lat="45.786057" lon="8.7357513"><ele>261.0</ele><time>2026-04-05T17:49:41.809Z</time></trkpt><trkpt lat="45.786107" lon="8.7356049"><ele>261.0</ele><time>2026-04-05T17:49:43.809Z</time></trkpt><trkpt lat="45.7861418" lon="8.7354885"><ele>261.0</ele><time>2026-04-05T17:49:45.808Z</time></trkpt></trkseg></trk></gpx>